<?xml version='1.0' encoding='UTF-8'?><gpx version="1.1" creator="JPX - https://github.com/jenetics/jpx" xmlns="http://www.topografix.com/GPX/1/1"><trk><trkseg><trkpt lat="39.8039068" lon="8.6095075"><ele>-1.0</ele><time>2026-05-03T05:53:08.78Z</time></trkpt><trkpt lat="39.8039069" lon="8.6097282"><ele>-1.0</ele><time>2026-05-03T05:53:09.778Z</time></trkpt><trkpt lat="39.8039074" lon="8.609949"><ele>-1.0</ele><time>2026-05-03T05:53:10.779Z</time></trkpt><trkpt lat="39.803906" lon="8.6101698"><ele>-0.3333333333333333</ele><time>2026-05-03T05:53:11.78Z</time></trkpt><trkpt lat="39.8039058" lon="8.6103867"><ele>0.3333333333333333</ele><time>2026-05-03T05:53:12.779Z</time></trkpt><trkpt lat="39.8039052" lon="8.6106028"><ele>1.0</ele><time>2026-05-03T05:53:13.779Z</time></trkpt><trkpt lat="39.8039047" lon="8.6108169"><ele>1.0</ele><time>2026-05-03T05:53:14.778Z</time></trkpt><trkpt lat="39.8039063" lon="8.6110298"><ele>1.0</ele><time>2026-05-03T05:53:15.778Z</time></trkpt><trkpt lat="39.8039108" lon="8.611241"><ele>1.0</ele><time>2026-05-03T05:53:16.779Z</time></trkpt><trkpt lat="39.8039133" lon="8.6114464"><ele>1.0</ele><time>2026-05-03T05:53:17.778Z</time></trkpt><trkpt lat="39.8039129" lon="8.6116578"><ele>1.0</ele><time>2026-05-03T05:53:18.779Z</time></trkpt><trkpt lat="39.8039117" lon="8.6118766"><ele>1.0</ele><time>2026-05-03T05:53:19.778Z</time></trkpt><trkpt lat="39.803909" lon="8.6120986"><ele>0.6666666666666666</ele><time>2026-05-03T05:53:20.779Z</time></trkpt><trkpt lat="39.8039139" lon="8.6123239"><ele>0.3333333333333333</ele><time>2026-05-03T05:53:21.779Z</time></trkpt><trkpt lat="39.8039152" lon="8.6125493"><ele>0.0</ele><time>2026-05-03T05:53:22.779Z</time></trkpt><trkpt lat="39.8039175" lon="8.6127691"><ele>-0.3333333333333333</ele><time>2026-05-03T05:53:23.778Z</time></trkpt><trkpt lat="39.8039182" lon="8.6129933"><ele>-0.6666666666666666</ele><time>2026-05-03T05:53:24.78Z</time></trkpt><trkpt lat="39.8039178" lon="8.6132217"><ele>-1.0</ele><time>2026-05-03T05:53:25.779Z</time></trkpt><trkpt lat="39.8039169" lon="8.6134516"><ele>-0.6666666666666666</ele><time>2026-05-03T05:53:26.779Z</time></trkpt><trkpt lat="39.8039176" lon="8.6136834"><ele>-0.3333333333333333</ele><time>2026-05-03T05:53:27.779Z</time></trkpt><trkpt lat="39.803918" lon="8.6139092"><ele>0.0</ele><time>2026-05-03T05:53:28.78Z</time></trkpt><trkpt lat="39.8039197" lon="8.6141307"><ele>0.0</ele><time>2026-05-03T05:53:29.778Z</time></trkpt><trkpt lat="39.8039183" lon="8.614354"><ele>0.0</ele><time>2026-05-03T05:53:30.779Z</time></trkpt><trkpt lat="39.8039186" lon="8.614569"><ele>0.0</ele><time>2026-05-03T05:53:31.779Z</time></trkpt><trkpt lat="39.8039208" lon="8.6147852"><ele>0.0</ele><time>2026-05-03T05:53:32.78Z</time></trkpt><trkpt lat="39.803918" lon="8.6149944"><ele>0.0</ele><time>2026-05-03T05:53:33.778Z</time></trkpt><trkpt lat="39.8039182" lon="8.6152083"><ele>0.0</ele><time>2026-05-03T05:53:34.78Z</time></trkpt><trkpt lat="39.8039185" lon="8.6154252"><ele>0.3333333333333333</ele><time>2026-05-03T05:53:35.779Z</time></trkpt><trkpt lat="39.8039162" lon="8.6156481"><ele>0.6666666666666666</ele><time>2026-05-03T05:53:36.78Z</time></trkpt><trkpt lat="39.803915" lon="8.6158651"><ele>1.0</ele><time>2026-05-03T05:53:37.778Z</time></trkpt><trkpt lat="39.8039201" lon="8.6160789"><ele>1.0</ele><time>2026-05-03T05:53:38.779Z</time></trkpt><trkpt lat="39.8039208" lon="8.6162894"><ele>1.0</ele><time>2026-05-03T05:53:39.778Z</time></trkpt><trkpt lat="39.8039228" lon="8.6165004"><ele>1.0</ele><time>2026-05-03T05:53:40.779Z</time></trkpt><trkpt lat="39.8039211" lon="8.6167087"><ele>1.0</ele><time>2026-05-03T05:53:41.778Z</time></trkpt><trkpt lat="39.803919" lon="8.6169133"><ele>1.0</ele><time>2026-05-03T05:53:42.779Z</time></trkpt><trkpt lat="39.8039215" lon="8.6171216"><ele>1.0</ele><time>2026-05-03T05:53:43.779Z</time></trkpt><trkpt lat="39.8039189" lon="8.6173326"><ele>0.6666666666666666</ele><time>2026-05-03T05:53:44.779Z</time></trkpt><trkpt lat="39.8039195" lon="8.6175421"><ele>0.3333333333333333</ele><time>2026-05-03T05:53:45.779Z</time></trkpt><trkpt lat="39.8039185" lon="8.617752"><ele>0.0</ele><time>2026-05-03T05:53:46.78Z</time></trkpt><trkpt lat="39.8039203" lon="8.6179631"><ele>0.0</ele><time>2026-05-03T05:53:47.779Z</time></trkpt><trkpt lat="39.8039254" lon="8.6181706"><ele>0.0</ele><time>2026-05-03T05:53:48.779Z</time></trkpt><trkpt lat="39.8039273" lon="8.618379"><ele>0.0</ele><time>2026-05-03T05:53:49.78Z</time></trkpt><trkpt lat="39.8039282" lon="8.6185923"><ele>0.0</ele><time>2026-05-03T05:53:50.78Z</time></trkpt><trkpt lat="39.8039261" lon="8.6188099"><ele>0.0</ele><time>2026-05-03T05:53:51.779Z</time></trkpt><trkpt lat="39.8039252" lon="8.6190334"><ele>0.0</ele><time>2026-05-03T05:53:52.78Z</time></trkpt><trkpt lat="39.8039303" lon="8.6192639"><ele>0.0</ele><time>2026-05-03T05:53:53.778Z</time></trkpt><trkpt lat="39.8039323" lon="8.6194939"><ele>0.0</ele><time>2026-05-03T05:53:54.78Z</time></trkpt><trkpt lat="39.8039345" lon="8.619721"><ele>0.0</ele><time>2026-05-03T05:53:55.78Z</time></trkpt><trkpt lat="39.803936" lon="8.619942"><ele>0.0</ele><time>2026-05-03T05:53:56.779Z</time></trkpt><trkpt lat="39.8039387" lon="8.6201508"><ele>0.0</ele><time>2026-05-03T05:53:57.78Z</time></trkpt><trkpt lat="39.8039399" lon="8.6203595"><ele>0.0</ele><time>2026-05-03T05:53:58.778Z</time></trkpt><trkpt lat="39.8039432" lon="8.6205698"><ele>-0.3333333333333333</ele><time>2026-05-03T05:53:59.779Z</time></trkpt><trkpt lat="39.8039431" lon="8.6207911"><ele>-0.6666666666666666</ele><time>2026-05-03T05:54:00.78Z</time></trkpt><trkpt lat="39.8039447" lon="8.6210061"><ele>-1.0</ele><time>2026-05-03T05:54:01.779Z</time></trkpt><trkpt lat="39.8039455" lon="8.621222"><ele>0.0</ele><time>2026-05-03T05:54:02.78Z</time></trkpt><trkpt lat="39.8039485" lon="8.6214347"><ele>1.0</ele><time>2026-05-03T05:54:03.779Z</time></trkpt><trkpt lat="39.8039475" lon="8.6216521"><ele>2.0</ele><time>2026-05-03T05:54:04.778Z</time></trkpt><trkpt lat="39.8039491" lon="8.6218711"><ele>3.0</ele><time>2026-05-03T05:54:05.779Z</time></trkpt><trkpt lat="39.8039506" lon="8.6220921"><ele>4.0</ele><time>2026-05-03T05:54:06.778Z</time></trkpt><trkpt lat="39.8039528" lon="8.6223038"><ele>5.0</ele><time>2026-05-03T05:54:07.779Z</time></trkpt><trkpt lat="39.8039506" lon="8.6225206"><ele>5.0</ele><time>2026-05-03T05:54:08.779Z</time></trkpt><trkpt lat="39.8039509" lon="8.6227433"><ele>5.0</ele><time>2026-05-03T05:54:09.78Z</time></trkpt><trkpt lat="39.8039469" lon="8.6229592"><ele>5.0</ele><time>2026-05-03T05:54:10.78Z</time></trkpt><trkpt lat="39.8039461" lon="8.6231775"><ele>5.0</ele><time>2026-05-03T05:54:11.778Z</time></trkpt><trkpt lat="39.8039483" lon="8.6233962"><ele>5.0</ele><time>2026-05-03T05:54:12.779Z</time></trkpt><trkpt lat="39.8039454" lon="8.6236123"><ele>5.0</ele><time>2026-05-03T05:54:13.778Z</time></trkpt><trkpt lat="39.8039476" lon="8.6238323"><ele>5.333333333333334</ele><time>2026-05-03T05:54:14.778Z</time></trkpt><trkpt lat="39.8039513" lon="8.6240453"><ele>5.666666666666667</ele><time>2026-05-03T05:54:15.779Z</time></trkpt><trkpt lat="39.8039515" lon="8.6242585"><ele>6.0</ele><time>2026-05-03T05:54:16.778Z</time></trkpt><trkpt lat="39.803953" lon="8.6244724"><ele>6.333333333333334</ele><time>2026-05-03T05:54:17.78Z</time></trkpt><trkpt lat="39.8039573" lon="8.6246879"><ele>6.666666666666667</ele><time>2026-05-03T05:54:18.78Z</time></trkpt><trkpt lat="39.8039548" lon="8.6249075"><ele>7.0</ele><time>2026-05-03T05:54:19.779Z</time></trkpt><trkpt lat="39.8039597" lon="8.6251286"><ele>7.0</ele><time>2026-05-03T05:54:20.779Z</time></trkpt><trkpt lat="39.8039627" lon="8.6253499"><ele>7.0</ele><time>2026-05-03T05:54:21.78Z</time></trkpt><trkpt lat="39.8039663" lon="8.6255698"><ele>7.0</ele><time>2026-05-03T05:54:22.779Z</time></trkpt><trkpt lat="39.8039649" lon="8.6257836"><ele>7.0</ele><time>2026-05-03T05:54:23.779Z</time></trkpt><trkpt lat="39.8039724" lon="8.6260013"><ele>7.0</ele><time>2026-05-03T05:54:24.778Z</time></trkpt><trkpt lat="39.8039734" lon="8.6262209"><ele>7.0</ele><time>2026-05-03T05:54:25.779Z</time></trkpt><trkpt lat="39.8039782" lon="8.6264331"><ele>7.0</ele><time>2026-05-03T05:54:26.778Z</time></trkpt><trkpt lat="39.8039838" lon="8.6266424"><ele>7.0</ele><time>2026-05-03T05:54:27.778Z</time></trkpt><trkpt lat="39.8039861" lon="8.6268616"><ele>7.0</ele><time>2026-05-03T05:54:28.779Z</time></trkpt><trkpt lat="39.8039866" lon="8.627085"><ele>7.333333333333334</ele><time>2026-05-03T05:54:29.779Z</time></trkpt><trkpt lat="39.8039886" lon="8.6273028"><ele>7.666666666666666</ele><time>2026-05-03T05:54:30.78Z</time></trkpt><trkpt lat="39.8039907" lon="8.6275216"><ele>8.0</ele><time>2026-05-03T05:54:31.779Z</time></trkpt><trkpt lat="39.803991" lon="8.6277479"><ele>9.0</ele><time>2026-05-03T05:54:32.779Z</time></trkpt><trkpt lat="39.8039862" lon="8.6279705"><ele>10.0</ele><time>2026-05-03T05:54:33.777Z</time></trkpt><trkpt lat="39.8039793" lon="8.628191"><ele>11.0</ele><time>2026-05-03T05:54:34.78Z</time></trkpt><trkpt lat="39.8039772" lon="8.6284116"><ele>11.0</ele><time>2026-05-03T05:54:35.779Z</time></trkpt><trkpt lat="39.8039749" lon="8.6286305"><ele>11.0</ele><time>2026-05-03T05:54:36.778Z</time></trkpt><trkpt lat="39.8039757" lon="8.6288568"><ele>11.0</ele><time>2026-05-03T05:54:37.779Z</time></trkpt><trkpt lat="39.8039778" lon="8.6290742"><ele>11.333333333333332</ele><time>2026-05-03T05:54:38.78Z</time></trkpt><trkpt lat="39.8039759" lon="8.6292893"><ele>11.666666666666666</ele><time>2026-05-03T05:54:39.778Z</time></trkpt><trkpt lat="39.803978" lon="8.6295046"><ele>12.0</ele><time>2026-05-03T05:54:40.779Z</time></trkpt><trkpt lat="39.8039798" lon="8.6297209"><ele>12.25</ele><time>2026-05-03T05:54:41.78Z</time></trkpt><trkpt lat="39.8039814" lon="8.629932"><ele>12.5</ele><time>2026-05-03T05:54:42.779Z</time></trkpt><trkpt lat="39.8039777" lon="8.6301203"><ele>12.75</ele><time>2026-05-03T05:54:43.778Z</time></trkpt><trkpt lat="39.8039763" lon="8.6302982"><ele>13.0</ele><time>2026-05-03T05:54:44.78Z</time></trkpt><trkpt lat="39.8039789" lon="8.6304694"><ele>12.5</ele><time>2026-05-03T05:54:45.779Z</time></trkpt><trkpt lat="39.8039794" lon="8.6306335"><ele>12.0</ele><time>2026-05-03T05:54:46.779Z</time></trkpt><trkpt lat="39.8039794" lon="8.6308075"><ele>11.5</ele><time>2026-05-03T05:54:47.779Z</time></trkpt><trkpt lat="39.8039798" lon="8.6309991"><ele>11.0</ele><time>2026-05-03T05:54:48.78Z</time></trkpt><trkpt lat="39.8039824" lon="8.6311973"><ele>10.666666666666666</ele><time>2026-05-03T05:54:49.779Z</time></trkpt><trkpt lat="39.8039826" lon="8.6314026"><ele>10.333333333333334</ele><time>2026-05-03T05:54:50.78Z</time></trkpt><trkpt lat="39.803986" lon="8.6316143"><ele>10.0</ele><time>2026-05-03T05:54:51.778Z</time></trkpt><trkpt lat="39.80399" lon="8.6318309"><ele>9.666666666666668</ele><time>2026-05-03T05:54:52.779Z</time></trkpt><trkpt lat="39.8039895" lon="8.6320486"><ele>9.333333333333334</ele><time>2026-05-03T05:54:53.778Z</time></trkpt><trkpt lat="39.8039944" lon="8.632262"><ele>9.0</ele><time>2026-05-03T05:54:54.779Z</time></trkpt><trkpt lat="39.8040109" lon="8.6324788"><ele>9.0</ele><time>2026-05-03T05:54:55.779Z</time></trkpt><trkpt lat="39.8040438" lon="8.6326969"><ele>9.0</ele><time>2026-05-03T05:54:56.78Z</time></trkpt><trkpt lat="39.8040944" lon="8.6329071"><ele>9.0</ele><time>2026-05-03T05:54:57.779Z</time></trkpt><trkpt lat="39.8041733" lon="8.6331114"><ele>9.333333333333334</ele><time>2026-05-03T05:54:58.779Z</time></trkpt><trkpt lat="39.80427" lon="8.6332979"><ele>9.666666666666668</ele><time>2026-05-03T05:54:59.778Z</time></trkpt><trkpt lat="39.8043779" lon="8.6334744"><ele>10.0</ele><time>2026-05-03T05:55:00.778Z</time></trkpt><trkpt lat="39.8044939" lon="8.6336514"><ele>10.333333333333334</ele><time>2026-05-03T05:55:01.778Z</time></trkpt><trkpt lat="39.8046125" lon="8.6338184"><ele>10.666666666666666</ele><time>2026-05-03T05:55:02.779Z</time></trkpt><trkpt lat="39.8047272" lon="8.6339847"><ele>11.0</ele><time>2026-05-03T05:55:03.778Z</time></trkpt><trkpt lat="39.8048402" lon="8.6341484"><ele>11.0</ele><time>2026-05-03T05:55:04.78Z</time></trkpt><trkpt lat="39.8049508" lon="8.6343129"><ele>11.0</ele><time>2026-05-03T05:55:05.78Z</time></trkpt><trkpt lat="39.8050605" lon="8.6344779"><ele>11.0</ele><time>2026-05-03T05:55:06.78Z</time></trkpt><trkpt lat="39.8051731" lon="8.6346447"><ele>10.666666666666666</ele><time>2026-05-03T05:55:07.779Z</time></trkpt><trkpt lat="39.8052841" lon="8.6348109"><ele>10.333333333333334</ele><time>2026-05-03T05:55:08.779Z</time></trkpt><trkpt lat="39.8053956" lon="8.6349847"><ele>10.0</ele><time>2026-05-03T05:55:09.779Z</time></trkpt><trkpt lat="39.8055121" lon="8.6351593"><ele>10.0</ele><time>2026-05-03T05:55:10.78Z</time></trkpt><trkpt lat="39.8056295" lon="8.6353381"><ele>10.0</ele><time>2026-05-03T05:55:11.78Z</time></trkpt><trkpt lat="39.8057469" lon="8.6355153"><ele>10.0</ele><time>2026-05-03T05:55:12.779Z</time></trkpt><trkpt lat="39.8058593" lon="8.635688"><ele>10.0</ele><time>2026-05-03T05:55:13.778Z</time></trkpt><trkpt lat="39.8059728" lon="8.6358648"><ele>10.0</ele><time>2026-05-03T05:55:14.779Z</time></trkpt><trkpt lat="39.8060869" lon="8.6360331"><ele>10.0</ele><time>2026-05-03T05:55:15.778Z</time></trkpt><trkpt lat="39.806199" lon="8.6362007"><ele>10.0</ele><time>2026-05-03T05:55:16.778Z</time></trkpt><trkpt lat="39.8063092" lon="8.6363649"><ele>10.0</ele><time>2026-05-03T05:55:17.779Z</time></trkpt><trkpt lat="39.80642" lon="8.6365174"><ele>10.0</ele><time>2026-05-03T05:55:18.78Z</time></trkpt><trkpt lat="39.8065351" lon="8.6366555"><ele>10.0</ele><time>2026-05-03T05:55:19.778Z</time></trkpt><trkpt lat="39.8066671" lon="8.636772"><ele>10.0</ele><time>2026-05-03T05:55:20.779Z</time></trkpt><trkpt lat="39.8068119" lon="8.6368599"><ele>10.0</ele><time>2026-05-03T05:55:21.779Z</time></trkpt><trkpt lat="39.8069688" lon="8.6369229"><ele>9.666666666666668</ele><time>2026-05-03T05:55:22.779Z</time></trkpt><trkpt lat="39.8071341" lon="8.6369652"><ele>9.333333333333334</ele><time>2026-05-03T05:55:23.779Z</time></trkpt><trkpt lat="39.8073045" lon="8.6369881"><ele>9.0</ele><time>2026-05-03T05:55:24.78Z</time></trkpt><trkpt lat="39.8074771" lon="8.6370113"><ele>9.0</ele><time>2026-05-03T05:55:25.779Z</time></trkpt><trkpt lat="39.8076583" lon="8.6370265"><ele>9.0</ele><time>2026-05-03T05:55:26.78Z</time></trkpt><trkpt lat="39.8078386" lon="8.6370441"><ele>9.0</ele><time>2026-05-03T05:55:27.779Z</time></trkpt><trkpt lat="39.8080119" lon="8.6370741"><ele>9.0</ele><time>2026-05-03T05:55:28.78Z</time></trkpt><trkpt lat="39.8081841" lon="8.6371008"><ele>9.0</ele><time>2026-05-03T05:55:29.779Z</time></trkpt><trkpt lat="39.8083509" lon="8.6371288"><ele>9.0</ele><time>2026-05-03T05:55:30.779Z</time></trkpt><trkpt lat="39.8085144" lon="8.637154"><ele>10.333333333333332</ele><time>2026-05-03T05:55:31.777Z</time></trkpt><trkpt lat="39.8086821" lon="8.6371784"><ele>11.666666666666666</ele><time>2026-05-03T05:55:32.779Z</time></trkpt><trkpt lat="39.8088511" lon="8.6372033"><ele>13.0</ele><time>2026-05-03T05:55:33.779Z</time></trkpt><trkpt lat="39.8090198" lon="8.6372298"><ele>13.0</ele><time>2026-05-03T05:55:34.78Z</time></trkpt><trkpt lat="39.8091839" lon="8.6372557"><ele>13.0</ele><time>2026-05-03T05:55:35.779Z</time></trkpt><trkpt lat="39.8093478" lon="8.6372801"><ele>13.0</ele><time>2026-05-03T05:55:36.778Z</time></trkpt><trkpt lat="39.8095092" lon="8.637302"><ele>13.666666666666666</ele><time>2026-05-03T05:55:37.778Z</time></trkpt><trkpt lat="39.8096736" lon="8.6373258"><ele>14.333333333333332</ele><time>2026-05-03T05:55:38.779Z</time></trkpt><trkpt lat="39.8098408" lon="8.6373509"><ele>15.0</ele><time>2026-05-03T05:55:39.78Z</time></trkpt><trkpt lat="39.8100068" lon="8.6373717"><ele>14.333333333333332</ele><time>2026-05-03T05:55:40.779Z</time></trkpt><trkpt lat="39.810174" lon="8.6373983"><ele>13.666666666666666</ele><time>2026-05-03T05:55:41.78Z</time></trkpt><trkpt lat="39.8103389" lon="8.6374264"><ele>13.0</ele><time>2026-05-03T05:55:42.778Z</time></trkpt><trkpt lat="39.8105064" lon="8.637456"><ele>13.0</ele><time>2026-05-03T05:55:43.779Z</time></trkpt><trkpt lat="39.8106734" lon="8.6374844"><ele>13.0</ele><time>2026-05-03T05:55:44.779Z</time></trkpt><trkpt lat="39.81084" lon="8.6375106"><ele>13.0</ele><time>2026-05-03T05:55:45.78Z</time></trkpt><trkpt lat="39.8110061" lon="8.6375341"><ele>12.666666666666666</ele><time>2026-05-03T05:55:46.778Z</time></trkpt><trkpt lat="39.8111702" lon="8.6375613"><ele>12.333333333333332</ele><time>2026-05-03T05:55:47.778Z</time></trkpt><trkpt lat="39.8113318" lon="8.6375863"><ele>12.0</ele><time>2026-05-03T05:55:48.78Z</time></trkpt><trkpt lat="39.8114912" lon="8.6376114"><ele>12.0</ele><time>2026-05-03T05:55:49.779Z</time></trkpt><trkpt lat="39.8116489" lon="8.637633"><ele>12.0</ele><time>2026-05-03T05:55:50.779Z</time></trkpt><trkpt lat="39.8118021" lon="8.6376594"><ele>12.0</ele><time>2026-05-03T05:55:51.779Z</time></trkpt><trkpt lat="39.8119495" lon="8.6376936"><ele>12.25</ele><time>2026-05-03T05:55:52.777Z</time></trkpt><trkpt lat="39.8120886" lon="8.6377241"><ele>12.5</ele><time>2026-05-03T05:55:53.779Z</time></trkpt><trkpt lat="39.8122189" lon="8.6377808"><ele>12.75</ele><time>2026-05-03T05:55:54.78Z</time></trkpt><trkpt lat="39.8123344" lon="8.6378718"><ele>13.0</ele><time>2026-05-03T05:55:55.779Z</time></trkpt><trkpt lat="39.8124437" lon="8.6379759"><ele>13.25</ele><time>2026-05-03T05:55:56.779Z</time></trkpt><trkpt lat="39.812536" lon="8.6381148"><ele>13.5</ele><time>2026-05-03T05:55:57.779Z</time></trkpt><trkpt lat="39.8126187" lon="8.638281"><ele>13.75</ele><time>2026-05-03T05:55:58.78Z</time></trkpt><trkpt lat="39.8126898" lon="8.6384568"><ele>14.0</ele><time>2026-05-03T05:55:59.779Z</time></trkpt><trkpt lat="39.8127641" lon="8.6386452"><ele>15.0</ele><time>2026-05-03T05:56:00.778Z</time></trkpt><trkpt lat="39.8128311" lon="8.6388418"><ele>16.0</ele><time>2026-05-03T05:56:01.78Z</time></trkpt><trkpt lat="39.8128952" lon="8.63904"><ele>17.0</ele><time>2026-05-03T05:56:02.778Z</time></trkpt><trkpt lat="39.812958" lon="8.6392401"><ele>17.0</ele><time>2026-05-03T05:56:03.78Z</time></trkpt><trkpt lat="39.8130161" lon="8.6394328"><ele>17.0</ele><time>2026-05-03T05:56:04.777Z</time></trkpt><trkpt lat="39.8130621" lon="8.6396284"><ele>17.0</ele><time>2026-05-03T05:56:05.778Z</time></trkpt><trkpt lat="39.8131082" lon="8.6398295"><ele>17.0</ele><time>2026-05-03T05:56:06.779Z</time></trkpt><trkpt lat="39.8131512" lon="8.6400333"><ele>17.0</ele><time>2026-05-03T05:56:07.779Z</time></trkpt><trkpt lat="39.8131939" lon="8.6402295"><ele>17.0</ele><time>2026-05-03T05:56:08.779Z</time></trkpt><trkpt lat="39.8132362" lon="8.6404245"><ele>17.0</ele><time>2026-05-03T05:56:09.779Z</time></trkpt><trkpt lat="39.8132717" lon="8.6406137"><ele>17.0</ele><time>2026-05-03T05:56:10.779Z</time></trkpt><trkpt lat="39.813292" lon="8.6407948"><ele>17.0</ele><time>2026-05-03T05:56:11.778Z</time></trkpt><trkpt lat="39.8132989" lon="8.6409704"><ele>17.0</ele><time>2026-05-03T05:56:12.779Z</time></trkpt><trkpt lat="39.8132912" lon="8.6411541"><ele>17.0</ele><time>2026-05-03T05:56:13.78Z</time></trkpt><trkpt lat="39.8132666" lon="8.6413429"><ele>17.0</ele><time>2026-05-03T05:56:14.778Z</time></trkpt><trkpt lat="39.8132181" lon="8.6415226"><ele>17.0</ele><time>2026-05-03T05:56:15.78Z</time></trkpt><trkpt lat="39.8131472" lon="8.6416935"><ele>17.0</ele><time>2026-05-03T05:56:16.779Z</time></trkpt><trkpt lat="39.8130539" lon="8.6418469"><ele>16.666666666666668</ele><time>2026-05-03T05:56:17.778Z</time></trkpt><trkpt lat="39.8129449" lon="8.6419845"><ele>16.333333333333332</ele><time>2026-05-03T05:56:18.779Z</time></trkpt><trkpt lat="39.8128145" lon="8.6421036"><ele>16.0</ele><time>2026-05-03T05:56:19.778Z</time></trkpt><trkpt lat="39.8126713" lon="8.6421975"><ele>15.666666666666666</ele><time>2026-05-03T05:56:20.778Z</time></trkpt><trkpt lat="39.812519" lon="8.6422715"><ele>15.333333333333332</ele><time>2026-05-03T05:56:21.778Z</time></trkpt><trkpt lat="39.8123585" lon="8.6423301"><ele>15.0</ele><time>2026-05-03T05:56:22.778Z</time></trkpt><trkpt lat="39.8121986" lon="8.6423908"><ele>15.0</ele><time>2026-05-03T05:56:23.78Z</time></trkpt><trkpt lat="39.8120381" lon="8.6424522"><ele>15.0</ele><time>2026-05-03T05:56:24.778Z</time></trkpt><trkpt lat="39.8118734" lon="8.6425116"><ele>15.0</ele><time>2026-05-03T05:56:25.778Z</time></trkpt><trkpt lat="39.8117115" lon="8.6425731"><ele>15.0</ele><time>2026-05-03T05:56:26.779Z</time></trkpt><trkpt lat="39.8115514" lon="8.6426353"><ele>15.0</ele><time>2026-05-03T05:56:27.779Z</time></trkpt><trkpt lat="39.8113947" lon="8.6426982"><ele>15.0</ele><time>2026-05-03T05:56:28.777Z</time></trkpt><trkpt lat="39.8112396" lon="8.6427634"><ele>15.333333333333332</ele><time>2026-05-03T05:56:29.777Z</time></trkpt><trkpt lat="39.8110865" lon="8.6428278"><ele>15.666666666666666</ele><time>2026-05-03T05:56:30.779Z</time></trkpt><trkpt lat="39.8109372" lon="8.6428903"><ele>16.0</ele><time>2026-05-03T05:56:31.78Z</time></trkpt><trkpt lat="39.8107971" lon="8.6429482"><ele>16.2</ele><time>2026-05-03T05:56:32.778Z</time></trkpt><trkpt lat="39.8106838" lon="8.6429956"><ele>16.400000000000002</ele><time>2026-05-03T05:56:33.777Z</time></trkpt><trkpt lat="39.8105981" lon="8.6430372"><ele>16.6</ele><time>2026-05-03T05:56:34.777Z</time></trkpt><trkpt lat="39.8105377" lon="8.6430956"><ele>16.8</ele><time>2026-05-03T05:56:35.779Z</time></trkpt><trkpt lat="39.8104889" lon="8.643177"><ele>17.0</ele><time>2026-05-03T05:56:36.78Z</time></trkpt><trkpt lat="39.8104607" lon="8.6433109"><ele>17.0</ele><time>2026-05-03T05:56:37.778Z</time></trkpt><trkpt lat="39.8104511" lon="8.6434558"><ele>17.0</ele><time>2026-05-03T05:56:38.78Z</time></trkpt><trkpt lat="39.8104463" lon="8.6436187"><ele>17.0</ele><time>2026-05-03T05:56:39.78Z</time></trkpt><trkpt lat="39.8104451" lon="8.6438035"><ele>17.0</ele><time>2026-05-03T05:56:40.779Z</time></trkpt><trkpt lat="39.8104438" lon="8.6439918"><ele>17.0</ele><time>2026-05-03T05:56:41.779Z</time></trkpt><trkpt lat="39.8104415" lon="8.6441941"><ele>17.0</ele><time>2026-05-03T05:56:42.78Z</time></trkpt><trkpt lat="39.8104344" lon="8.6444083"><ele>17.0</ele><time>2026-05-03T05:56:43.778Z</time></trkpt><trkpt lat="39.8104318" lon="8.6446301"><ele>17.333333333333336</ele><time>2026-05-03T05:56:44.778Z</time></trkpt><trkpt lat="39.8104248" lon="8.6448575"><ele>17.666666666666668</ele><time>2026-05-03T05:56:45.779Z</time></trkpt><trkpt lat="39.8104176" lon="8.6450783"><ele>18.0</ele><time>2026-05-03T05:56:46.779Z</time></trkpt><trkpt lat="39.8104109" lon="8.6452978"><ele>19.333333333333332</ele><time>2026-05-03T05:56:47.779Z</time></trkpt><trkpt lat="39.8104061" lon="8.6455173"><ele>20.666666666666664</ele><time>2026-05-03T05:56:48.78Z</time></trkpt><trkpt lat="39.8104021" lon="8.6457303"><ele>22.0</ele><time>2026-05-03T05:56:49.779Z</time></trkpt><trkpt lat="39.8103982" lon="8.6459452"><ele>22.0</ele><time>2026-05-03T05:56:50.779Z</time></trkpt><trkpt lat="39.8103922" lon="8.6461652"><ele>22.0</ele><time>2026-05-03T05:56:51.779Z</time></trkpt><trkpt lat="39.8103892" lon="8.6463874"><ele>22.0</ele><time>2026-05-03T05:56:52.779Z</time></trkpt><trkpt lat="39.8103915" lon="8.6465905"><ele>22.0</ele><time>2026-05-03T05:56:53.78Z</time></trkpt><trkpt lat="39.8103884" lon="8.6467599"><ele>22.0</ele><time>2026-05-03T05:56:54.779Z</time></trkpt><trkpt lat="39.8103837" lon="8.6469352"><ele>22.0</ele><time>2026-05-03T05:56:55.779Z</time></trkpt><trkpt lat="39.8103828" lon="8.6471014"><ele>22.0</ele><time>2026-05-03T05:56:56.779Z</time></trkpt><trkpt lat="39.8103749" lon="8.6472479"><ele>21.833333333333332</ele><time>2026-05-03T05:56:57.779Z</time></trkpt><trkpt lat="39.8103701" lon="8.6473698"><ele>21.666666666666664</ele><time>2026-05-03T05:56:58.78Z</time></trkpt><trkpt lat="39.810378" lon="8.6474587"><ele>21.5</ele><time>2026-05-03T05:56:59.78Z</time></trkpt><trkpt lat="39.8104486" lon="8.6475674"><ele>21.333333333333332</ele><time>2026-05-03T05:57:01.779Z</time></trkpt><trkpt lat="39.8105222" lon="8.6475901"><ele>21.166666666666668</ele><time>2026-05-03T05:57:02.78Z</time></trkpt><trkpt lat="39.8106096" lon="8.6475968"><ele>21.0</ele><time>2026-05-03T05:57:03.78Z</time></trkpt><trkpt lat="39.8107157" lon="8.6475988"><ele>21.0</ele><time>2026-05-03T05:57:04.778Z</time></trkpt><trkpt lat="39.8108384" lon="8.6476049"><ele>21.0</ele><time>2026-05-03T05:57:05.78Z</time></trkpt><trkpt lat="39.8109696" lon="8.6476142"><ele>21.0</ele><time>2026-05-03T05:57:06.778Z</time></trkpt><trkpt lat="39.8111117" lon="8.6476228"><ele>21.0</ele><time>2026-05-03T05:57:07.778Z</time></trkpt><trkpt lat="39.8112636" lon="8.6476316"><ele>21.0</ele><time>2026-05-03T05:57:08.779Z</time></trkpt><trkpt lat="39.8114213" lon="8.6476428"><ele>21.0</ele><time>2026-05-03T05:57:09.78Z</time></trkpt><trkpt lat="39.8115701" lon="8.6476538"><ele>21.0</ele><time>2026-05-03T05:57:10.78Z</time></trkpt><trkpt lat="39.8117056" lon="8.6476602"><ele>21.0</ele><time>2026-05-03T05:57:11.778Z</time></trkpt><trkpt lat="39.8118063" lon="8.6476628"><ele>20.2</ele><time>2026-05-03T05:57:12.78Z</time></trkpt><trkpt lat="39.8118758" lon="8.6476616"><ele>19.400000000000002</ele><time>2026-05-03T05:57:13.78Z</time></trkpt><trkpt lat="39.8119674" lon="8.6476347"><ele>18.6</ele><time>2026-05-03T05:57:15.779Z</time></trkpt><trkpt lat="39.8120285" lon="8.6475069"><ele>17.8</ele><time>2026-05-03T05:57:17.78Z</time></trkpt><trkpt lat="39.8120545" lon="8.6474208"><ele>17.0</ele><time>2026-05-03T05:57:18.779Z</time></trkpt><trkpt lat="39.8120581" lon="8.6472871"><ele>17.0</ele><time>2026-05-03T05:57:19.779Z</time></trkpt><trkpt lat="39.8120579" lon="8.6471452"><ele>17.0</ele><time>2026-05-03T05:57:20.78Z</time></trkpt><trkpt lat="39.8120669" lon="8.6469895"><ele>17.0</ele><time>2026-05-03T05:57:21.778Z</time></trkpt><trkpt lat="39.8120749" lon="8.6468184"><ele>17.0</ele><time>2026-05-03T05:57:22.779Z</time></trkpt><trkpt lat="39.8120854" lon="8.6466429"><ele>17.0</ele><time>2026-05-03T05:57:23.779Z</time></trkpt><trkpt lat="39.8120879" lon="8.6464684"><ele>17.0</ele><time>2026-05-03T05:57:24.777Z</time></trkpt><trkpt lat="39.8121014" lon="8.6462841"><ele>17.0</ele><time>2026-05-03T05:57:25.778Z</time></trkpt><trkpt lat="39.8121355" lon="8.6461103"><ele>17.0</ele><time>2026-05-03T05:57:26.779Z</time></trkpt><trkpt lat="39.812191" lon="8.645942"><ele>17.0</ele><time>2026-05-03T05:57:27.78Z</time></trkpt><trkpt lat="39.8122572" lon="8.6457681"><ele>17.0</ele><time>2026-05-03T05:57:28.78Z</time></trkpt><trkpt lat="39.8123327" lon="8.645589"><ele>17.0</ele><time>2026-05-03T05:57:29.777Z</time></trkpt><trkpt lat="39.8124084" lon="8.645414"><ele>17.333333333333336</ele><time>2026-05-03T05:57:30.779Z</time></trkpt><trkpt lat="39.8124893" lon="8.6452258"><ele>17.666666666666668</ele><time>2026-05-03T05:57:31.779Z</time></trkpt><trkpt lat="39.812574" lon="8.6450304"><ele>18.0</ele><time>2026-05-03T05:57:32.779Z</time></trkpt><trkpt lat="39.8126596" lon="8.6448276"><ele>17.333333333333332</ele><time>2026-05-03T05:57:33.78Z</time></trkpt><trkpt lat="39.8127471" lon="8.6446359"><ele>16.666666666666664</ele><time>2026-05-03T05:57:34.778Z</time></trkpt><trkpt lat="39.8128259" lon="8.6444521"><ele>16.0</ele><time>2026-05-03T05:57:35.778Z</time></trkpt><trkpt lat="39.8129048" lon="8.6442693"><ele>16.0</ele><time>2026-05-03T05:57:36.779Z</time></trkpt><trkpt lat="39.8129784" lon="8.6440918"><ele>16.0</ele><time>2026-05-03T05:57:37.778Z</time></trkpt><trkpt lat="39.81305" lon="8.643943"><ele>16.0</ele><time>2026-05-03T05:57:38.778Z</time></trkpt><trkpt lat="39.8131062" lon="8.643827"><ele>16.0</ele><time>2026-05-03T05:57:39.78Z</time></trkpt><trkpt lat="39.8131547" lon="8.6437523"><ele>16.0</ele><time>2026-05-03T05:57:40.778Z</time></trkpt><trkpt lat="39.8132527" lon="8.6437323"><ele>16.0</ele><time>2026-05-03T05:57:42.779Z</time></trkpt><trkpt lat="39.8133181" lon="8.6437916"><ele>16.0</ele><time>2026-05-03T05:57:43.778Z</time></trkpt><trkpt lat="39.8133965" lon="8.6438696"><ele>16.0</ele><time>2026-05-03T05:57:44.778Z</time></trkpt><trkpt lat="39.8134913" lon="8.6439627"><ele>16.0</ele><time>2026-05-03T05:57:45.779Z</time></trkpt><trkpt lat="39.8135871" lon="8.6440613"><ele>16.0</ele><time>2026-05-03T05:57:46.779Z</time></trkpt><trkpt lat="39.8137055" lon="8.644178"><ele>16.0</ele><time>2026-05-03T05:57:47.778Z</time></trkpt><trkpt lat="39.8138229" lon="8.6442883"><ele>16.0</ele><time>2026-05-03T05:57:48.779Z</time></trkpt><trkpt lat="39.8139457" lon="8.6443974"><ele>16.0</ele><time>2026-05-03T05:57:49.777Z</time></trkpt><trkpt lat="39.8140718" lon="8.6445112"><ele>16.0</ele><time>2026-05-03T05:57:50.779Z</time></trkpt><trkpt lat="39.8141924" lon="8.6446237"><ele>16.0</ele><time>2026-05-03T05:57:51.779Z</time></trkpt><trkpt lat="39.8143052" lon="8.6447324"><ele>16.0</ele><time>2026-05-03T05:57:52.779Z</time></trkpt><trkpt lat="39.8144069" lon="8.6448266"><ele>16.0</ele><time>2026-05-03T05:57:53.779Z</time></trkpt><trkpt lat="39.8144933" lon="8.6448801"><ele>15.600000000000001</ele><time>2026-05-03T05:57:54.779Z</time></trkpt><trkpt lat="39.8145771" lon="8.6449108"><ele>15.200000000000001</ele><time>2026-05-03T05:57:55.779Z</time></trkpt><trkpt lat="39.8146702" lon="8.6449336"><ele>14.799999999999999</ele><time>2026-05-03T05:57:56.78Z</time></trkpt><trkpt lat="39.8147654" lon="8.6449509"><ele>14.399999999999999</ele><time>2026-05-03T05:57:57.779Z</time></trkpt><trkpt lat="39.8148576" lon="8.6449439"><ele>14.0</ele><time>2026-05-03T05:57:58.779Z</time></trkpt><trkpt lat="39.8149379" lon="8.6449099"><ele>14.0</ele><time>2026-05-03T05:57:59.779Z</time></trkpt><trkpt lat="39.8150078" lon="8.6448598"><ele>13.999999999999998</ele><time>2026-05-03T05:58:00.778Z</time></trkpt><trkpt lat="39.815079" lon="8.6447827"><ele>13.999999999999998</ele><time>2026-05-03T05:58:01.78Z</time></trkpt><trkpt lat="39.8151632" lon="8.6446686"><ele>14.0</ele><time>2026-05-03T05:58:02.78Z</time></trkpt><trkpt lat="39.8152467" lon="8.6445427"><ele>14.0</ele><time>2026-05-03T05:58:03.78Z</time></trkpt><trkpt lat="39.815338" lon="8.6444093"><ele>12.75</ele><time>2026-05-03T05:58:04.779Z</time></trkpt><trkpt lat="39.8154281" lon="8.6442711"><ele>11.5</ele><time>2026-05-03T05:58:05.778Z</time></trkpt><trkpt lat="39.8155153" lon="8.6441475"><ele>10.25</ele><time>2026-05-03T05:58:06.778Z</time></trkpt><trkpt lat="39.8156027" lon="8.6440346"><ele>9.0</ele><time>2026-05-03T05:58:07.78Z</time></trkpt><trkpt lat="39.8156959" lon="8.6439187"><ele>9.0</ele><time>2026-05-03T05:58:08.778Z</time></trkpt><trkpt lat="39.8157935" lon="8.643816"><ele>9.0</ele><time>2026-05-03T05:58:09.778Z</time></trkpt><trkpt lat="39.8158871" lon="8.6437323"><ele>9.0</ele><time>2026-05-03T05:58:10.78Z</time></trkpt><trkpt lat="39.8159679" lon="8.6436658"><ele>9.0</ele><time>2026-05-03T05:58:11.779Z</time></trkpt><trkpt lat="39.8160424" lon="8.6436091"><ele>9.0</ele><time>2026-05-03T05:58:12.78Z</time></trkpt><trkpt lat="39.8161104" lon="8.6435364"><ele>9.166666666666666</ele><time>2026-05-03T05:58:13.778Z</time></trkpt><trkpt lat="39.8161704" lon="8.6434463"><ele>9.333333333333334</ele><time>2026-05-03T05:58:14.78Z</time></trkpt><trkpt lat="39.8162355" lon="8.6433166"><ele>9.5</ele><time>2026-05-03T05:58:15.779Z</time></trkpt><trkpt lat="39.8162895" lon="8.6432223"><ele>9.666666666666668</ele><time>2026-05-03T05:58:16.779Z</time></trkpt><trkpt lat="39.8163444" lon="8.6431626"><ele>9.833333333333334</ele><time>2026-05-03T05:58:17.779Z</time></trkpt><trkpt lat="39.816403" lon="8.6431278"><ele>10.0</ele><time>2026-05-03T05:58:18.78Z</time></trkpt><trkpt lat="39.8164722" lon="8.6431132"><ele>10.0</ele><time>2026-05-03T05:58:19.779Z</time></trkpt><trkpt lat="39.8165615" lon="8.6431225"><ele>10.0</ele><time>2026-05-03T05:58:20.78Z</time></trkpt><trkpt lat="39.8166565" lon="8.643137"><ele>10.0</ele><time>2026-05-03T05:58:21.78Z</time></trkpt><trkpt lat="39.8167364" lon="8.6431342"><ele>10.0</ele><time>2026-05-03T05:58:22.778Z</time></trkpt><trkpt lat="39.816807" lon="8.6431082"><ele>10.0</ele><time>2026-05-03T05:58:23.778Z</time></trkpt><trkpt lat="39.8168626" lon="8.6430415"><ele>10.0</ele><time>2026-05-03T05:58:24.779Z</time></trkpt><trkpt lat="39.816909" lon="8.642933"><ele>11.25</ele><time>2026-05-03T05:58:25.779Z</time></trkpt><trkpt lat="39.8169586" lon="8.642798"><ele>12.5</ele><time>2026-05-03T05:58:26.779Z</time></trkpt><trkpt lat="39.8169789" lon="8.6426308"><ele>13.75</ele><time>2026-05-03T05:58:27.779Z</time></trkpt><trkpt lat="39.8169886" lon="8.6424595"><ele>15.0</ele><time>2026-05-03T05:58:28.779Z</time></trkpt><trkpt lat="39.8169849" lon="8.6422753"><ele>15.0</ele><time>2026-05-03T05:58:29.778Z</time></trkpt><trkpt lat="39.8169729" lon="8.6420822"><ele>15.0</ele><time>2026-05-03T05:58:30.78Z</time></trkpt><trkpt lat="39.8169635" lon="8.6418878"><ele>15.0</ele><time>2026-05-03T05:58:31.778Z</time></trkpt><trkpt lat="39.8169545" lon="8.641704"><ele>15.0</ele><time>2026-05-03T05:58:32.779Z</time></trkpt><trkpt lat="39.8169489" lon="8.6415384"><ele>15.0</ele><time>2026-05-03T05:58:33.778Z</time></trkpt><trkpt lat="39.8169481" lon="8.6413876"><ele>15.0</ele><time>2026-05-03T05:58:34.779Z</time></trkpt><trkpt lat="39.8169443" lon="8.6412761"><ele>15.0</ele><time>2026-05-03T05:58:35.779Z</time></trkpt><trkpt lat="39.816913" lon="8.6411618"><ele>15.0</ele><time>2026-05-03T05:58:37.779Z</time></trkpt><trkpt lat="39.8168237" lon="8.6411392"><ele>15.0</ele><time>2026-05-03T05:58:39.779Z</time></trkpt><trkpt lat="39.816744" lon="8.6410981"><ele>13.8</ele><time>2026-05-03T05:58:41.78Z</time></trkpt><trkpt lat="39.8167155" lon="8.6409827"><ele>12.6</ele><time>2026-05-03T05:58:43.779Z</time></trkpt><trkpt lat="39.8167204" lon="8.640889"><ele>11.4</ele><time>2026-05-03T05:58:44.779Z</time></trkpt><trkpt lat="39.8167235" lon="8.6407669"><ele>10.2</ele><time>2026-05-03T05:58:45.779Z</time></trkpt><trkpt lat="39.8167255" lon="8.6406355"><ele>9.0</ele><time>2026-05-03T05:58:46.779Z</time></trkpt><trkpt lat="39.8167385" lon="8.6404856"><ele>9.0</ele><time>2026-05-03T05:58:47.778Z</time></trkpt><trkpt lat="39.8167586" lon="8.6403518"><ele>9.0</ele><time>2026-05-03T05:58:48.779Z</time></trkpt><trkpt lat="39.8167968" lon="8.6402193"><ele>9.0</ele><time>2026-05-03T05:58:49.78Z</time></trkpt><trkpt lat="39.8168537" lon="8.6400977"><ele>9.0</ele><time>2026-05-03T05:58:50.779Z</time></trkpt><trkpt lat="39.816932" lon="8.6399772"><ele>9.0</ele><time>2026-05-03T05:58:51.779Z</time></trkpt><trkpt lat="39.8170155" lon="8.6398586"><ele>9.5</ele><time>2026-05-03T05:58:52.78Z</time></trkpt><trkpt lat="39.8171137" lon="8.6397314"><ele>10.0</ele><time>2026-05-03T05:58:53.777Z</time></trkpt><trkpt lat="39.8172185" lon="8.6396149"><ele>10.5</ele><time>2026-05-03T05:58:54.779Z</time></trkpt><trkpt lat="39.8173275" lon="8.6395048"><ele>11.0</ele><time>2026-05-03T05:58:55.778Z</time></trkpt><trkpt lat="39.817453" lon="8.6394085"><ele>11.0</ele><time>2026-05-03T05:58:56.78Z</time></trkpt><trkpt lat="39.8175847" lon="8.6393326"><ele>11.0</ele><time>2026-05-03T05:58:57.779Z</time></trkpt><trkpt lat="39.8177102" lon="8.639268"><ele>11.0</ele><time>2026-05-03T05:58:58.779Z</time></trkpt><trkpt lat="39.8178456" lon="8.639205"><ele>11.0</ele><time>2026-05-03T05:58:59.779Z</time></trkpt><trkpt lat="39.8179822" lon="8.6391509"><ele>11.75</ele><time>2026-05-03T05:59:00.78Z</time></trkpt><trkpt lat="39.8181132" lon="8.6391002"><ele>12.5</ele><time>2026-05-03T05:59:01.779Z</time></trkpt><trkpt lat="39.8182459" lon="8.6390429"><ele>13.25</ele><time>2026-05-03T05:59:02.778Z</time></trkpt><trkpt lat="39.8183737" lon="8.6389889"><ele>14.0</ele><time>2026-05-03T05:59:03.778Z</time></trkpt><trkpt lat="39.8185069" lon="8.6389311"><ele>14.0</ele><time>2026-05-03T05:59:04.778Z</time></trkpt><trkpt lat="39.8186423" lon="8.638882"><ele>14.0</ele><time>2026-05-03T05:59:05.779Z</time></trkpt><trkpt lat="39.8187756" lon="8.6388261"><ele>14.0</ele><time>2026-05-03T05:59:06.779Z</time></trkpt><trkpt lat="39.8189187" lon="8.6387819"><ele>14.0</ele><time>2026-05-03T05:59:07.778Z</time></trkpt><trkpt lat="39.8190694" lon="8.6387417"><ele>14.0</ele><time>2026-05-03T05:59:08.777Z</time></trkpt><trkpt lat="39.819227" lon="8.6386968"><ele>14.0</ele><time>2026-05-03T05:59:09.78Z</time></trkpt><trkpt lat="39.8193773" lon="8.6386444"><ele>14.0</ele><time>2026-05-03T05:59:10.779Z</time></trkpt><trkpt lat="39.8195218" lon="8.6386007"><ele>13.75</ele><time>2026-05-03T05:59:11.78Z</time></trkpt><trkpt lat="39.8196674" lon="8.6385567"><ele>13.5</ele><time>2026-05-03T05:59:12.78Z</time></trkpt><trkpt lat="39.8198058" lon="8.6385055"><ele>13.25</ele><time>2026-05-03T05:59:13.778Z</time></trkpt><trkpt lat="39.8199426" lon="8.638466"><ele>13.0</ele><time>2026-05-03T05:59:14.777Z</time></trkpt><trkpt lat="39.8200666" lon="8.6384357"><ele>12.5</ele><time>2026-05-03T05:59:15.778Z</time></trkpt><trkpt lat="39.8201968" lon="8.6384147"><ele>12.0</ele><time>2026-05-03T05:59:16.779Z</time></trkpt><trkpt lat="39.8203367" lon="8.638413"><ele>11.5</ele><time>2026-05-03T05:59:17.778Z</time></trkpt><trkpt lat="39.820461" lon="8.6384203"><ele>11.0</ele><time>2026-05-03T05:59:18.778Z</time></trkpt><trkpt lat="39.820565" lon="8.6384433"><ele>11.0</ele><time>2026-05-03T05:59:19.779Z</time></trkpt><trkpt lat="39.8206733" lon="8.6384801"><ele>11.0</ele><time>2026-05-03T05:59:20.779Z</time></trkpt><trkpt lat="39.82078" lon="8.6385377"><ele>11.0</ele><time>2026-05-03T05:59:21.779Z</time></trkpt><trkpt lat="39.8208742" lon="8.6386069"><ele>11.0</ele><time>2026-05-03T05:59:22.777Z</time></trkpt><trkpt lat="39.8209702" lon="8.6387015"><ele>10.25</ele><time>2026-05-03T05:59:23.779Z</time></trkpt><trkpt lat="39.8210615" lon="8.6388057"><ele>9.5</ele><time>2026-05-03T05:59:24.777Z</time></trkpt><trkpt lat="39.8211441" lon="8.6389342"><ele>8.75</ele><time>2026-05-03T05:59:25.778Z</time></trkpt><trkpt lat="39.8212232" lon="8.6390713"><ele>8.0</ele><time>2026-05-03T05:59:26.779Z</time></trkpt><trkpt lat="39.8213135" lon="8.6392294"><ele>8.0</ele><time>2026-05-03T05:59:27.778Z</time></trkpt><trkpt lat="39.8213997" lon="8.6393687"><ele>8.0</ele><time>2026-05-03T05:59:28.778Z</time></trkpt><trkpt lat="39.821494" lon="8.6394852"><ele>8.0</ele><time>2026-05-03T05:59:29.779Z</time></trkpt><trkpt lat="39.8216045" lon="8.6395876"><ele>8.0</ele><time>2026-05-03T05:59:30.778Z</time></trkpt><trkpt lat="39.821724" lon="8.6396763"><ele>8.0</ele><time>2026-05-03T05:59:31.778Z</time></trkpt><trkpt lat="39.8218503" lon="8.6397389"><ele>8.0</ele><time>2026-05-03T05:59:32.778Z</time></trkpt><trkpt lat="39.8219828" lon="8.6397837"><ele>8.0</ele><time>2026-05-03T05:59:33.778Z</time></trkpt><trkpt lat="39.8221228" lon="8.6398131"><ele>8.0</ele><time>2026-05-03T05:59:34.778Z</time></trkpt><trkpt lat="39.8222624" lon="8.6398264"><ele>8.0</ele><time>2026-05-03T05:59:35.779Z</time></trkpt><trkpt lat="39.8224079" lon="8.6398439"><ele>8.0</ele><time>2026-05-03T05:59:36.779Z</time></trkpt><trkpt lat="39.8225511" lon="8.6398559"><ele>8.0</ele><time>2026-05-03T05:59:37.778Z</time></trkpt><trkpt lat="39.8226832" lon="8.6398714"><ele>8.0</ele><time>2026-05-03T05:59:38.779Z</time></trkpt><trkpt lat="39.8227881" lon="8.6398872"><ele>7.833333333333333</ele><time>2026-05-03T05:59:39.778Z</time></trkpt><trkpt lat="39.8228702" lon="8.63989"><ele>7.666666666666666</ele><time>2026-05-03T05:59:40.779Z</time></trkpt><trkpt lat="39.8229741" lon="8.6399084"><ele>7.5</ele><time>2026-05-03T05:59:42.778Z</time></trkpt><trkpt lat="39.8229956" lon="8.6400006"><ele>7.333333333333334</ele><time>2026-05-03T05:59:45.777Z</time></trkpt><trkpt lat="39.8229678" lon="8.6401014"><ele>7.166666666666667</ele><time>2026-05-03T05:59:47.779Z</time></trkpt><trkpt lat="39.8229542" lon="8.6401878"><ele>7.0</ele><time>2026-05-03T05:59:48.777Z</time></trkpt><trkpt lat="39.8229427" lon="8.640294"><ele>7.0</ele><time>2026-05-03T05:59:49.779Z</time></trkpt><trkpt lat="39.8229391" lon="8.6404209"><ele>7.0</ele><time>2026-05-03T05:59:50.778Z</time></trkpt><trkpt lat="39.8229407" lon="8.6405714"><ele>7.0</ele><time>2026-05-03T05:59:51.78Z</time></trkpt><trkpt lat="39.8229355" lon="8.6407322"><ele>7.0</ele><time>2026-05-03T05:59:52.779Z</time></trkpt><trkpt lat="39.8229266" lon="8.6409301"><ele>7.0</ele><time>2026-05-03T05:59:53.779Z</time></trkpt><trkpt lat="39.8229217" lon="8.6411117"><ele>7.0</ele><time>2026-05-03T05:59:54.778Z</time></trkpt><trkpt lat="39.8229166" lon="8.6412952"><ele>7.0</ele><time>2026-05-03T05:59:55.78Z</time></trkpt><trkpt lat="39.8229092" lon="8.6414753"><ele>7.0</ele><time>2026-05-03T05:59:56.779Z</time></trkpt><trkpt lat="39.8229007" lon="8.6416413"><ele>7.0</ele><time>2026-05-03T05:59:57.779Z</time></trkpt><trkpt lat="39.8228954" lon="8.6418046"><ele>7.0</ele><time>2026-05-03T05:59:58.778Z</time></trkpt><trkpt lat="39.822889" lon="8.6419817"><ele>7.0</ele><time>2026-05-03T05:59:59.778Z</time></trkpt><trkpt lat="39.8228849" lon="8.6421654"><ele>7.0</ele><time>2026-05-03T06:00:00.777Z</time></trkpt><trkpt lat="39.8228782" lon="8.6423576"><ele>7.25</ele><time>2026-05-03T06:00:01.78Z</time></trkpt><trkpt lat="39.822872" lon="8.642544"><ele>7.5</ele><time>2026-05-03T06:00:02.777Z</time></trkpt><trkpt lat="39.8228647" lon="8.6427187"><ele>7.75</ele><time>2026-05-03T06:00:03.78Z</time></trkpt><trkpt lat="39.8228564" lon="8.6428863"><ele>8.0</ele><time>2026-05-03T06:00:04.779Z</time></trkpt><trkpt lat="39.8228508" lon="8.6430689"><ele>8.5</ele><time>2026-05-03T06:00:05.778Z</time></trkpt><trkpt lat="39.822845" lon="8.643246"><ele>9.0</ele><time>2026-05-03T06:00:06.779Z</time></trkpt><trkpt lat="39.8228395" lon="8.6434279"><ele>9.5</ele><time>2026-05-03T06:00:07.78Z</time></trkpt><trkpt lat="39.822835" lon="8.6436105"><ele>10.0</ele><time>2026-05-03T06:00:08.777Z</time></trkpt><trkpt lat="39.8228266" lon="8.643782"><ele>10.0</ele><time>2026-05-03T06:00:09.778Z</time></trkpt><trkpt lat="39.822817" lon="8.6439253"><ele>10.0</ele><time>2026-05-03T06:00:10.78Z</time></trkpt><trkpt lat="39.8228065" lon="8.6440581"><ele>10.0</ele><time>2026-05-03T06:00:11.778Z</time></trkpt><trkpt lat="39.8228037" lon="8.6441806"><ele>10.0</ele><time>2026-05-03T06:00:12.78Z</time></trkpt><trkpt lat="39.8228064" lon="8.6443147"><ele>10.0</ele><time>2026-05-03T06:00:13.779Z</time></trkpt><trkpt lat="39.8228151" lon="8.6444555"><ele>10.2</ele><time>2026-05-03T06:00:14.779Z</time></trkpt><trkpt lat="39.8228218" lon="8.6446"><ele>10.4</ele><time>2026-05-03T06:00:15.779Z</time></trkpt><trkpt lat="39.8228199" lon="8.6447357"><ele>10.600000000000001</ele><time>2026-05-03T06:00:16.778Z</time></trkpt><trkpt lat="39.8228129" lon="8.6448655"><ele>10.8</ele><time>2026-05-03T06:00:17.779Z</time></trkpt><trkpt lat="39.822808" lon="8.6449967"><ele>11.0</ele><time>2026-05-03T06:00:18.779Z</time></trkpt><trkpt lat="39.8228045" lon="8.6450998"><ele>11.0</ele><time>2026-05-03T06:00:19.777Z</time></trkpt><trkpt lat="39.8228043" lon="8.6452222"><ele>11.0</ele><time>2026-05-03T06:00:20.778Z</time></trkpt><trkpt lat="39.8228013" lon="8.6453303"><ele>11.0</ele><time>2026-05-03T06:00:21.778Z</time></trkpt><trkpt lat="39.8227893" lon="8.6454526"><ele>11.0</ele><time>2026-05-03T06:00:22.777Z</time></trkpt><trkpt lat="39.8227709" lon="8.6455824"><ele>11.0</ele><time>2026-05-03T06:00:23.779Z</time></trkpt><trkpt lat="39.8227468" lon="8.6457216"><ele>11.0</ele><time>2026-05-03T06:00:24.778Z</time></trkpt><trkpt lat="39.8227205" lon="8.6458641"><ele>11.0</ele><time>2026-05-03T06:00:25.779Z</time></trkpt><trkpt lat="39.8226978" lon="8.646014"><ele>11.0</ele><time>2026-05-03T06:00:26.778Z</time></trkpt><trkpt lat="39.8226822" lon="8.6461701"><ele>11.0</ele><time>2026-05-03T06:00:27.779Z</time></trkpt><trkpt lat="39.822674" lon="8.6463184"><ele>11.25</ele><time>2026-05-03T06:00:28.779Z</time></trkpt><trkpt lat="39.8226646" lon="8.6464687"><ele>11.5</ele><time>2026-05-03T06:00:29.779Z</time></trkpt><trkpt lat="39.8226594" lon="8.646611"><ele>11.75</ele><time>2026-05-03T06:00:30.779Z</time></trkpt><trkpt lat="39.822654" lon="8.646753"><ele>12.0</ele><time>2026-05-03T06:00:31.778Z</time></trkpt><trkpt lat="39.8226453" lon="8.6469114"><ele>12.25</ele><time>2026-05-03T06:00:32.778Z</time></trkpt><trkpt lat="39.822632" lon="8.6470724"><ele>12.5</ele><time>2026-05-03T06:00:33.778Z</time></trkpt><trkpt lat="39.8226166" lon="8.6472505"><ele>12.75</ele><time>2026-05-03T06:00:34.777Z</time></trkpt><trkpt lat="39.8226038" lon="8.647406"><ele>13.0</ele><time>2026-05-03T06:00:35.78Z</time></trkpt><trkpt lat="39.8225811" lon="8.6475651"><ele>13.0</ele><time>2026-05-03T06:00:36.778Z</time></trkpt><trkpt lat="39.8225542" lon="8.6477247"><ele>13.0</ele><time>2026-05-03T06:00:37.778Z</time></trkpt><trkpt lat="39.8225268" lon="8.6478787"><ele>13.0</ele><time>2026-05-03T06:00:38.78Z</time></trkpt><trkpt lat="39.822497" lon="8.6480525"><ele>13.0</ele><time>2026-05-03T06:00:39.778Z</time></trkpt><trkpt lat="39.822464" lon="8.6482136"><ele>13.0</ele><time>2026-05-03T06:00:40.777Z</time></trkpt><trkpt lat="39.8224312" lon="8.6483841"><ele>13.0</ele><time>2026-05-03T06:00:41.778Z</time></trkpt><trkpt lat="39.8223945" lon="8.6485689"><ele>13.0</ele><time>2026-05-03T06:00:42.778Z</time></trkpt><trkpt lat="39.8223559" lon="8.6487368"><ele>13.0</ele><time>2026-05-03T06:00:43.779Z</time></trkpt><trkpt lat="39.822313" lon="8.6489206"><ele>13.25</ele><time>2026-05-03T06:00:44.778Z</time></trkpt><trkpt lat="39.8222755" lon="8.6491017"><ele>13.5</ele><time>2026-05-03T06:00:45.779Z</time></trkpt><trkpt lat="39.8222489" lon="8.6492893"><ele>13.75</ele><time>2026-05-03T06:00:46.777Z</time></trkpt><trkpt lat="39.8222175" lon="8.649468"><ele>14.0</ele><time>2026-05-03T06:00:47.778Z</time></trkpt><trkpt lat="39.8221868" lon="8.6496449"><ele>14.5</ele><time>2026-05-03T06:00:48.778Z</time></trkpt><trkpt lat="39.8221483" lon="8.6498163"><ele>15.0</ele><time>2026-05-03T06:00:49.779Z</time></trkpt><trkpt lat="39.8221115" lon="8.6499827"><ele>15.5</ele><time>2026-05-03T06:00:50.779Z</time></trkpt><trkpt lat="39.8220779" lon="8.6501383"><ele>16.0</ele><time>2026-05-03T06:00:51.777Z</time></trkpt><trkpt lat="39.8220517" lon="8.6502825"><ele>16.0</ele><time>2026-05-03T06:00:52.779Z</time></trkpt><trkpt lat="39.8220191" lon="8.6504308"><ele>16.0</ele><time>2026-05-03T06:00:53.779Z</time></trkpt><trkpt lat="39.8219799" lon="8.6505699"><ele>16.0</ele><time>2026-05-03T06:00:54.777Z</time></trkpt><trkpt lat="39.8219419" lon="8.6507335"><ele>16.0</ele><time>2026-05-03T06:00:55.778Z</time></trkpt><trkpt lat="39.821909" lon="8.6509144"><ele>16.0</ele><time>2026-05-03T06:00:56.78Z</time></trkpt><trkpt lat="39.8218795" lon="8.6510958"><ele>16.0</ele><time>2026-05-03T06:00:57.777Z</time></trkpt><trkpt lat="39.8218498" lon="8.6512647"><ele>16.0</ele><time>2026-05-03T06:00:58.779Z</time></trkpt><trkpt lat="39.821817" lon="8.6514362"><ele>16.0</ele><time>2026-05-03T06:00:59.78Z</time></trkpt><trkpt lat="39.821778" lon="8.6516076"><ele>16.25</ele><time>2026-05-03T06:01:00.778Z</time></trkpt><trkpt lat="39.8217404" lon="8.6517968"><ele>16.5</ele><time>2026-05-03T06:01:01.778Z</time></trkpt><trkpt lat="39.8217045" lon="8.6519807"><ele>16.75</ele><time>2026-05-03T06:01:02.778Z</time></trkpt><trkpt lat="39.8216692" lon="8.6521548"><ele>17.0</ele><time>2026-05-03T06:01:03.778Z</time></trkpt><trkpt lat="39.8216321" lon="8.6523107"><ele>17.0</ele><time>2026-05-03T06:01:04.779Z</time></trkpt><trkpt lat="39.8216074" lon="8.6524313"><ele>17.0</ele><time>2026-05-03T06:01:05.78Z</time></trkpt><trkpt lat="39.8215772" lon="8.6525429"><ele>17.0</ele><time>2026-05-03T06:01:06.778Z</time></trkpt><trkpt lat="39.8215509" lon="8.6526312"><ele>17.0</ele><time>2026-05-03T06:01:07.779Z</time></trkpt><trkpt lat="39.8215136" lon="8.6527884"><ele>17.0</ele><time>2026-05-03T06:01:09.78Z</time></trkpt><trkpt lat="39.8214929" lon="8.6528819"><ele>17.0</ele><time>2026-05-03T06:01:10.778Z</time></trkpt><trkpt lat="39.8214735" lon="8.6529771"><ele>17.0</ele><time>2026-05-03T06:01:11.778Z</time></trkpt><trkpt lat="39.8214538" lon="8.6530652"><ele>17.0</ele><time>2026-05-03T06:01:12.778Z</time></trkpt><trkpt lat="39.8214333" lon="8.6531709"><ele>17.0</ele><time>2026-05-03T06:01:13.78Z</time></trkpt><trkpt lat="39.8214032" lon="8.6532778"><ele>17.0</ele><time>2026-05-03T06:01:14.78Z</time></trkpt><trkpt lat="39.8213824" lon="8.653369"><ele>17.0</ele><time>2026-05-03T06:01:15.778Z</time></trkpt><trkpt lat="39.8213655" lon="8.6534662"><ele>17.0</ele><time>2026-05-03T06:01:16.78Z</time></trkpt><trkpt lat="39.8213548" lon="8.6535627"><ele>17.0</ele><time>2026-05-03T06:01:17.779Z</time></trkpt><trkpt lat="39.8213265" lon="8.6537288"><ele>17.0</ele><time>2026-05-03T06:01:19.778Z</time></trkpt><trkpt lat="39.8213065" lon="8.6538128"><ele>17.0</ele><time>2026-05-03T06:01:20.778Z</time></trkpt><trkpt lat="39.8212725" lon="8.6539736"><ele>17.0</ele><time>2026-05-03T06:01:22.779Z</time></trkpt><trkpt lat="39.8212532" lon="8.6540563"><ele>17.0</ele><time>2026-05-03T06:01:23.779Z</time></trkpt><trkpt lat="39.8212381" lon="8.6541383"><ele>17.0</ele><time>2026-05-03T06:01:24.779Z</time></trkpt><trkpt lat="39.821205" lon="8.6542971"><ele>17.0</ele><time>2026-05-03T06:01:26.778Z</time></trkpt><trkpt lat="39.8211891" lon="8.6543785"><ele>17.0</ele><time>2026-05-03T06:01:27.78Z</time></trkpt><trkpt lat="39.8211681" lon="8.6544575"><ele>17.0</ele><time>2026-05-03T06:01:28.779Z</time></trkpt><trkpt lat="39.8211489" lon="8.6545451"><ele>17.0</ele><time>2026-05-03T06:01:29.78Z</time></trkpt><trkpt lat="39.8211304" lon="8.6546966"><ele>17.2</ele><time>2026-05-03T06:01:31.777Z</time></trkpt><trkpt lat="39.8211247" lon="8.6548094"><ele>17.4</ele><time>2026-05-03T06:01:33.78Z</time></trkpt><trkpt lat="39.8210999" lon="8.6549543"><ele>17.6</ele><time>2026-05-03T06:01:35.779Z</time></trkpt><trkpt lat="39.8210742" lon="8.6551069"><ele>17.8</ele><time>2026-05-03T06:01:37.778Z</time></trkpt><trkpt lat="39.8210604" lon="8.6551894"><ele>18.0</ele><time>2026-05-03T06:01:38.778Z</time></trkpt><trkpt lat="39.8210283" lon="8.6553448"><ele>18.142857142857146</ele><time>2026-05-03T06:01:40.779Z</time></trkpt><trkpt lat="39.8210097" lon="8.6554238"><ele>18.285714285714285</ele><time>2026-05-03T06:01:41.778Z</time></trkpt><trkpt lat="39.8209835" lon="8.6555088"><ele>18.42857142857143</ele><time>2026-05-03T06:01:42.779Z</time></trkpt><trkpt lat="39.8209579" lon="8.6555854"><ele>18.571428571428573</ele><time>2026-05-03T06:01:43.778Z</time></trkpt><trkpt lat="39.820925" lon="8.6556738"><ele>18.714285714285715</ele><time>2026-05-03T06:01:44.779Z</time></trkpt><trkpt lat="39.820906" lon="8.6557666"><ele>18.857142857142858</ele><time>2026-05-03T06:01:45.779Z</time></trkpt><trkpt lat="39.8208855" lon="8.6558682"><ele>19.0</ele><time>2026-05-03T06:01:46.777Z</time></trkpt><trkpt lat="39.820866" lon="8.6559669"><ele>19.0</ele><time>2026-05-03T06:01:47.778Z</time></trkpt><trkpt lat="39.8208441" lon="8.656065"><ele>19.0</ele><time>2026-05-03T06:01:48.78Z</time></trkpt><trkpt lat="39.8208233" lon="8.6561585"><ele>19.0</ele><time>2026-05-03T06:01:49.778Z</time></trkpt><trkpt lat="39.8207996" lon="8.6562613"><ele>19.0</ele><time>2026-05-03T06:01:50.779Z</time></trkpt><trkpt lat="39.8207847" lon="8.6563489"><ele>19.0</ele><time>2026-05-03T06:01:51.779Z</time></trkpt><trkpt lat="39.8207664" lon="8.6564383"><ele>19.0</ele><time>2026-05-03T06:01:52.78Z</time></trkpt><trkpt lat="39.8207475" lon="8.656526"><ele>19.0</ele><time>2026-05-03T06:01:53.78Z</time></trkpt><trkpt lat="39.8207302" lon="8.6566146"><ele>19.0</ele><time>2026-05-03T06:01:54.779Z</time></trkpt><trkpt lat="39.8207155" lon="8.6567023"><ele>19.0</ele><time>2026-05-03T06:01:55.78Z</time></trkpt><trkpt lat="39.8207098" lon="8.656802"><ele>19.0</ele><time>2026-05-03T06:01:56.777Z</time></trkpt><trkpt lat="39.8206928" lon="8.6568947"><ele>19.0</ele><time>2026-05-03T06:01:57.779Z</time></trkpt><trkpt lat="39.8206669" lon="8.6570392"><ele>19.0</ele><time>2026-05-03T06:01:59.777Z</time></trkpt><trkpt lat="39.8206387" lon="8.6571904"><ele>19.166666666666664</ele><time>2026-05-03T06:02:01.78Z</time></trkpt><trkpt lat="39.820606" lon="8.6573426"><ele>19.333333333333332</ele><time>2026-05-03T06:02:03.778Z</time></trkpt><trkpt lat="39.8205863" lon="8.6574242"><ele>19.5</ele><time>2026-05-03T06:02:04.778Z</time></trkpt><trkpt lat="39.8205719" lon="8.6575092"><ele>19.666666666666668</ele><time>2026-05-03T06:02:05.779Z</time></trkpt><trkpt lat="39.8205528" lon="8.6575973"><ele>19.833333333333336</ele><time>2026-05-03T06:02:06.778Z</time></trkpt><trkpt lat="39.8205335" lon="8.6576847"><ele>20.0</ele><time>2026-05-03T06:02:07.777Z</time></trkpt><trkpt lat="39.8205158" lon="8.6577763"><ele>20.285714285714285</ele><time>2026-05-03T06:02:08.779Z</time></trkpt><trkpt lat="39.8204958" lon="8.6578706"><ele>20.571428571428573</ele><time>2026-05-03T06:02:09.778Z</time></trkpt><trkpt lat="39.8204767" lon="8.6579628"><ele>20.857142857142858</ele><time>2026-05-03T06:02:10.779Z</time></trkpt><trkpt lat="39.8204572" lon="8.6580507"><ele>21.142857142857142</ele><time>2026-05-03T06:02:11.779Z</time></trkpt><trkpt lat="39.8204338" lon="8.6581351"><ele>21.428571428571427</ele><time>2026-05-03T06:02:12.779Z</time></trkpt><trkpt lat="39.8204111" lon="8.6582258"><ele>21.714285714285715</ele><time>2026-05-03T06:02:13.778Z</time></trkpt><trkpt lat="39.8203885" lon="8.6583273"><ele>22.0</ele><time>2026-05-03T06:02:14.777Z</time></trkpt><trkpt lat="39.8203747" lon="8.6584261"><ele>22.0</ele><time>2026-05-03T06:02:15.777Z</time></trkpt><trkpt lat="39.8203544" lon="8.6585172"><ele>22.0</ele><time>2026-05-03T06:02:16.78Z</time></trkpt><trkpt lat="39.8203377" lon="8.6586167"><ele>22.0</ele><time>2026-05-03T06:02:17.779Z</time></trkpt><trkpt lat="39.8203193" lon="8.6587112"><ele>22.0</ele><time>2026-05-03T06:02:18.779Z</time></trkpt><trkpt lat="39.8203032" lon="8.6588081"><ele>22.0</ele><time>2026-05-03T06:02:19.778Z</time></trkpt><trkpt lat="39.8202836" lon="8.6589016"><ele>22.0</ele><time>2026-05-03T06:02:20.779Z</time></trkpt><trkpt lat="39.8202659" lon="8.6589974"><ele>22.285714285714285</ele><time>2026-05-03T06:02:21.778Z</time></trkpt><trkpt lat="39.8202551" lon="8.6590955"><ele>22.57142857142857</ele><time>2026-05-03T06:02:22.777Z</time></trkpt><trkpt lat="39.8202393" lon="8.6591941"><ele>22.857142857142854</ele><time>2026-05-03T06:02:23.778Z</time></trkpt><trkpt lat="39.8202158" lon="8.6592841"><ele>23.142857142857142</ele><time>2026-05-03T06:02:24.779Z</time></trkpt><trkpt lat="39.820192" lon="8.6593725"><ele>23.428571428571427</ele><time>2026-05-03T06:02:25.779Z</time></trkpt><trkpt lat="39.820171" lon="8.6594634"><ele>23.71428571428571</ele><time>2026-05-03T06:02:26.78Z</time></trkpt><trkpt lat="39.8201522" lon="8.6595561"><ele>24.0</ele><time>2026-05-03T06:02:27.779Z</time></trkpt><trkpt lat="39.8201308" lon="8.659656"><ele>24.285714285714285</ele><time>2026-05-03T06:02:28.78Z</time></trkpt><trkpt lat="39.8201094" lon="8.6597508"><ele>24.57142857142857</ele><time>2026-05-03T06:02:29.777Z</time></trkpt><trkpt lat="39.8200952" lon="8.6598417"><ele>24.857142857142854</ele><time>2026-05-03T06:02:30.779Z</time></trkpt><trkpt lat="39.8200751" lon="8.6599291"><ele>25.142857142857142</ele><time>2026-05-03T06:02:31.778Z</time></trkpt><trkpt lat="39.8200591" lon="8.6600154"><ele>25.42857142857143</ele><time>2026-05-03T06:02:32.779Z</time></trkpt><trkpt lat="39.8200423" lon="8.6600985"><ele>25.71428571428571</ele><time>2026-05-03T06:02:33.779Z</time></trkpt><trkpt lat="39.8200247" lon="8.6601924"><ele>26.0</ele><time>2026-05-03T06:02:34.779Z</time></trkpt><trkpt lat="39.8200092" lon="8.6602836"><ele>26.0</ele><time>2026-05-03T06:02:35.778Z</time></trkpt><trkpt lat="39.8199977" lon="8.6603707"><ele>26.0</ele><time>2026-05-03T06:02:36.78Z</time></trkpt><trkpt lat="39.8199816" lon="8.6604598"><ele>26.0</ele><time>2026-05-03T06:02:37.779Z</time></trkpt><trkpt lat="39.8199617" lon="8.660556"><ele>26.0</ele><time>2026-05-03T06:02:38.78Z</time></trkpt><trkpt lat="39.8199425" lon="8.6606518"><ele>26.0</ele><time>2026-05-03T06:02:39.78Z</time></trkpt><trkpt lat="39.8199185" lon="8.6607406"><ele>26.0</ele><time>2026-05-03T06:02:40.779Z</time></trkpt><trkpt lat="39.8198928" lon="8.6608391"><ele>26.0</ele><time>2026-05-03T06:02:41.778Z</time></trkpt><trkpt lat="39.8198741" lon="8.6609354"><ele>26.0</ele><time>2026-05-03T06:02:42.779Z</time></trkpt><trkpt lat="39.8198547" lon="8.6610307"><ele>26.0</ele><time>2026-05-03T06:02:43.779Z</time></trkpt><trkpt lat="39.8198388" lon="8.6611264"><ele>26.0</ele><time>2026-05-03T06:02:44.777Z</time></trkpt><trkpt lat="39.8198194" lon="8.6612087"><ele>26.0</ele><time>2026-05-03T06:02:45.777Z</time></trkpt><trkpt lat="39.819799" lon="8.6613066"><ele>26.0</ele><time>2026-05-03T06:02:46.779Z</time></trkpt><trkpt lat="39.819783" lon="8.6613933"><ele>26.0</ele><time>2026-05-03T06:02:47.778Z</time></trkpt><trkpt lat="39.8197714" lon="8.661496"><ele>26.0</ele><time>2026-05-03T06:02:48.778Z</time></trkpt><trkpt lat="39.8197608" lon="8.6615808"><ele>26.0</ele><time>2026-05-03T06:02:49.777Z</time></trkpt><trkpt lat="39.8197468" lon="8.661683"><ele>26.0</ele><time>2026-05-03T06:02:50.777Z</time></trkpt><trkpt lat="39.8197283" lon="8.6617686"><ele>26.0</ele><time>2026-05-03T06:02:51.778Z</time></trkpt><trkpt lat="39.8197149" lon="8.6618519"><ele>26.0</ele><time>2026-05-03T06:02:52.779Z</time></trkpt><trkpt lat="39.8197047" lon="8.6619394"><ele>26.0</ele><time>2026-05-03T06:02:53.779Z</time></trkpt><trkpt lat="39.8196881" lon="8.6620222"><ele>26.0</ele><time>2026-05-03T06:02:54.78Z</time></trkpt><trkpt lat="39.8196626" lon="8.6621172"><ele>26.0</ele><time>2026-05-03T06:02:55.777Z</time></trkpt><trkpt lat="39.8196365" lon="8.6622328"><ele>26.0</ele><time>2026-05-03T06:02:56.779Z</time></trkpt><trkpt lat="39.819604" lon="8.6623597"><ele>26.0</ele><time>2026-05-03T06:02:57.778Z</time></trkpt><trkpt lat="39.81958" lon="8.6624917"><ele>26.0</ele><time>2026-05-03T06:02:58.778Z</time></trkpt><trkpt lat="39.8195519" lon="8.6626169"><ele>26.0</ele><time>2026-05-03T06:02:59.777Z</time></trkpt><trkpt lat="39.8195272" lon="8.6627265"><ele>26.0</ele><time>2026-05-03T06:03:00.778Z</time></trkpt><trkpt lat="39.8195093" lon="8.6628254"><ele>26.166666666666664</ele><time>2026-05-03T06:03:01.778Z</time></trkpt><trkpt lat="39.819483" lon="8.6629218"><ele>26.333333333333332</ele><time>2026-05-03T06:03:02.779Z</time></trkpt><trkpt lat="39.8194655" lon="8.6630171"><ele>26.5</ele><time>2026-05-03T06:03:03.779Z</time></trkpt><trkpt lat="39.8194485" lon="8.6631164"><ele>26.666666666666664</ele><time>2026-05-03T06:03:04.778Z</time></trkpt><trkpt lat="39.8194274" lon="8.6632275"><ele>26.833333333333332</ele><time>2026-05-03T06:03:05.778Z</time></trkpt><trkpt lat="39.8194027" lon="8.6633381"><ele>27.0</ele><time>2026-05-03T06:03:06.777Z</time></trkpt><trkpt lat="39.8193746" lon="8.663448"><ele>27.0</ele><time>2026-05-03T06:03:07.778Z</time></trkpt><trkpt lat="39.8193468" lon="8.6635548"><ele>27.0</ele><time>2026-05-03T06:03:08.78Z</time></trkpt><trkpt lat="39.819325" lon="8.6636624"><ele>27.0</ele><time>2026-05-03T06:03:09.778Z</time></trkpt><trkpt lat="39.8193067" lon="8.6637712"><ele>27.0</ele><time>2026-05-03T06:03:10.778Z</time></trkpt><trkpt lat="39.8192875" lon="8.6638853"><ele>27.0</ele><time>2026-05-03T06:03:11.777Z</time></trkpt><trkpt lat="39.8192703" lon="8.6639972"><ele>27.0</ele><time>2026-05-03T06:03:12.78Z</time></trkpt><trkpt lat="39.8192556" lon="8.6640964"><ele>27.428571428571427</ele><time>2026-05-03T06:03:13.778Z</time></trkpt><trkpt lat="39.8192388" lon="8.6641805"><ele>27.857142857142854</ele><time>2026-05-03T06:03:14.779Z</time></trkpt><trkpt lat="39.8192106" lon="8.6642721"><ele>28.285714285714285</ele><time>2026-05-03T06:03:15.778Z</time></trkpt><trkpt lat="39.8191824" lon="8.6643685"><ele>28.714285714285715</ele><time>2026-05-03T06:03:16.777Z</time></trkpt><trkpt lat="39.8191582" lon="8.6644772"><ele>29.142857142857142</ele><time>2026-05-03T06:03:17.778Z</time></trkpt><trkpt lat="39.8191457" lon="8.6645702"><ele>29.571428571428573</ele><time>2026-05-03T06:03:18.778Z</time></trkpt><trkpt lat="39.8191292" lon="8.6646565"><ele>30.0</ele><time>2026-05-03T06:03:19.779Z</time></trkpt><trkpt lat="39.8191094" lon="8.6647509"><ele>30.0</ele><time>2026-05-03T06:03:20.777Z</time></trkpt><trkpt lat="39.819081" lon="8.6648553"><ele>30.0</ele><time>2026-05-03T06:03:21.779Z</time></trkpt><trkpt lat="39.8190545" lon="8.6649696"><ele>30.0</ele><time>2026-05-03T06:03:22.778Z</time></trkpt><trkpt lat="39.8190212" lon="8.6650843"><ele>30.0</ele><time>2026-05-03T06:03:23.779Z</time></trkpt><trkpt lat="39.8189876" lon="8.6652"><ele>30.0</ele><time>2026-05-03T06:03:24.778Z</time></trkpt><trkpt lat="39.8189542" lon="8.6653113"><ele>29.8</ele><time>2026-05-03T06:03:25.778Z</time></trkpt><trkpt lat="39.8189237" lon="8.6654257"><ele>29.6</ele><time>2026-05-03T06:03:26.78Z</time></trkpt><trkpt lat="39.8189049" lon="8.6655393"><ele>29.4</ele><time>2026-05-03T06:03:27.778Z</time></trkpt><trkpt lat="39.8188944" lon="8.6656572"><ele>29.2</ele><time>2026-05-03T06:03:28.779Z</time></trkpt><trkpt lat="39.8188769" lon="8.6657891"><ele>29.0</ele><time>2026-05-03T06:03:29.778Z</time></trkpt><trkpt lat="39.8188589" lon="8.6659214"><ele>29.0</ele><time>2026-05-03T06:03:30.777Z</time></trkpt><trkpt lat="39.8188341" lon="8.66606"><ele>29.0</ele><time>2026-05-03T06:03:31.78Z</time></trkpt><trkpt lat="39.8188084" lon="8.6662192"><ele>29.0</ele><time>2026-05-03T06:03:32.779Z</time></trkpt><trkpt lat="39.8187775" lon="8.6663883"><ele>29.0</ele><time>2026-05-03T06:03:33.78Z</time></trkpt><trkpt lat="39.8187479" lon="8.6665562"><ele>29.0</ele><time>2026-05-03T06:03:34.778Z</time></trkpt><trkpt lat="39.8187203" lon="8.6667145"><ele>29.0</ele><time>2026-05-03T06:03:35.777Z</time></trkpt><trkpt lat="39.8186887" lon="8.6668623"><ele>29.0</ele><time>2026-05-03T06:03:36.78Z</time></trkpt><trkpt lat="39.8186576" lon="8.6670104"><ele>29.0</ele><time>2026-05-03T06:03:37.778Z</time></trkpt><trkpt lat="39.818638" lon="8.667155"><ele>29.2</ele><time>2026-05-03T06:03:38.778Z</time></trkpt><trkpt lat="39.8186265" lon="8.6672812"><ele>29.4</ele><time>2026-05-03T06:03:39.778Z</time></trkpt><trkpt lat="39.8186192" lon="8.6674232"><ele>29.6</ele><time>2026-05-03T06:03:40.778Z</time></trkpt><trkpt lat="39.8186313" lon="8.6675677"><ele>29.8</ele><time>2026-05-03T06:03:41.777Z</time></trkpt><trkpt lat="39.8186577" lon="8.6677176"><ele>30.0</ele><time>2026-05-03T06:03:42.779Z</time></trkpt><trkpt lat="39.8186946" lon="8.6678708"><ele>30.0</ele><time>2026-05-03T06:03:43.779Z</time></trkpt><trkpt lat="39.8187257" lon="8.6680238"><ele>30.0</ele><time>2026-05-03T06:03:44.78Z</time></trkpt><trkpt lat="39.8187507" lon="8.6681822"><ele>30.0</ele><time>2026-05-03T06:03:45.778Z</time></trkpt><trkpt lat="39.8187803" lon="8.6683475"><ele>30.0</ele><time>2026-05-03T06:03:46.778Z</time></trkpt><trkpt lat="39.8188037" lon="8.6685149"><ele>30.5</ele><time>2026-05-03T06:03:47.779Z</time></trkpt><trkpt lat="39.8188309" lon="8.6686837"><ele>31.0</ele><time>2026-05-03T06:03:48.779Z</time></trkpt><trkpt lat="39.8188636" lon="8.6688527"><ele>31.5</ele><time>2026-05-03T06:03:49.778Z</time></trkpt><trkpt lat="39.8189016" lon="8.6690259"><ele>32.0</ele><time>2026-05-03T06:03:50.779Z</time></trkpt><trkpt lat="39.8189356" lon="8.6691909"><ele>32.0</ele><time>2026-05-03T06:03:51.779Z</time></trkpt><trkpt lat="39.8189667" lon="8.6693611"><ele>32.0</ele><time>2026-05-03T06:03:52.779Z</time></trkpt><trkpt lat="39.8189985" lon="8.6695351"><ele>32.0</ele><time>2026-05-03T06:03:53.779Z</time></trkpt><trkpt lat="39.8190386" lon="8.6697006"><ele>32.0</ele><time>2026-05-03T06:03:54.778Z</time></trkpt><trkpt lat="39.8190815" lon="8.6698706"><ele>32.25</ele><time>2026-05-03T06:03:55.778Z</time></trkpt><trkpt lat="39.8191173" lon="8.6700386"><ele>32.5</ele><time>2026-05-03T06:03:56.778Z</time></trkpt><trkpt lat="39.819154" lon="8.6702148"><ele>32.75</ele><time>2026-05-03T06:03:57.779Z</time></trkpt><trkpt lat="39.8191979" lon="8.6704005"><ele>33.0</ele><time>2026-05-03T06:03:58.779Z</time></trkpt><trkpt lat="39.8192382" lon="8.6705796"><ele>32.75</ele><time>2026-05-03T06:03:59.779Z</time></trkpt><trkpt lat="39.8192859" lon="8.6707593"><ele>32.5</ele><time>2026-05-03T06:04:00.778Z</time></trkpt><trkpt lat="39.8193215" lon="8.6709314"><ele>32.25</ele><time>2026-05-03T06:04:01.778Z</time></trkpt><trkpt lat="39.8193567" lon="8.6710943"><ele>32.0</ele><time>2026-05-03T06:04:02.779Z</time></trkpt><trkpt lat="39.8193911" lon="8.6712618"><ele>32.0</ele><time>2026-05-03T06:04:03.778Z</time></trkpt><trkpt lat="39.8194247" lon="8.6714408"><ele>32.0</ele><time>2026-05-03T06:04:04.778Z</time></trkpt><trkpt lat="39.8194624" lon="8.6716276"><ele>32.0</ele><time>2026-05-03T06:04:05.777Z</time></trkpt><trkpt lat="39.8194982" lon="8.6718177"><ele>32.0</ele><time>2026-05-03T06:04:06.777Z</time></trkpt><trkpt lat="39.8195259" lon="8.671986"><ele>32.6</ele><time>2026-05-03T06:04:07.778Z</time></trkpt><trkpt lat="39.8195468" lon="8.6721372"><ele>33.2</ele><time>2026-05-03T06:04:08.778Z</time></trkpt><trkpt lat="39.819551" lon="8.6722819"><ele>33.8</ele><time>2026-05-03T06:04:09.778Z</time></trkpt><trkpt lat="39.8195234" lon="8.6723992"><ele>34.4</ele><time>2026-05-03T06:04:10.778Z</time></trkpt><trkpt lat="39.8194855" lon="8.6725276"><ele>35.0</ele><time>2026-05-03T06:04:11.779Z</time></trkpt><trkpt lat="39.8194267" lon="8.6726507"><ele>35.0</ele><time>2026-05-03T06:04:12.78Z</time></trkpt><trkpt lat="39.8193439" lon="8.6727706"><ele>35.0</ele><time>2026-05-03T06:04:13.778Z</time></trkpt><trkpt lat="39.8192458" lon="8.6728939"><ele>35.0</ele><time>2026-05-03T06:04:14.779Z</time></trkpt><trkpt lat="39.8191438" lon="8.6730285"><ele>35.0</ele><time>2026-05-03T06:04:15.777Z</time></trkpt><trkpt lat="39.8190515" lon="8.6731731"><ele>35.75</ele><time>2026-05-03T06:04:16.778Z</time></trkpt><trkpt lat="39.8189639" lon="8.6733126"><ele>36.5</ele><time>2026-05-03T06:04:17.779Z</time></trkpt><trkpt lat="39.8188805" lon="8.6734466"><ele>37.25</ele><time>2026-05-03T06:04:18.778Z</time></trkpt><trkpt lat="39.8187871" lon="8.6735752"><ele>38.0</ele><time>2026-05-03T06:04:19.778Z</time></trkpt><trkpt lat="39.8186924" lon="8.6737076"><ele>38.25</ele><time>2026-05-03T06:04:20.778Z</time></trkpt><trkpt lat="39.8186119" lon="8.6738303"><ele>38.5</ele><time>2026-05-03T06:04:21.779Z</time></trkpt><trkpt lat="39.8185515" lon="8.6739628"><ele>38.75</ele><time>2026-05-03T06:04:22.778Z</time></trkpt><trkpt lat="39.818508" lon="8.6741151"><ele>39.0</ele><time>2026-05-03T06:04:23.779Z</time></trkpt><trkpt lat="39.8184753" lon="8.6743003"><ele>40.333333333333336</ele><time>2026-05-03T06:04:24.777Z</time></trkpt><trkpt lat="39.81845" lon="8.6745087"><ele>41.66666666666667</ele><time>2026-05-03T06:04:25.778Z</time></trkpt><trkpt lat="39.8184303" lon="8.6747376"><ele>43.0</ele><time>2026-05-03T06:04:26.779Z</time></trkpt><trkpt lat="39.8184196" lon="8.6749868"><ele>43.0</ele><time>2026-05-03T06:04:27.777Z</time></trkpt><trkpt lat="39.8184121" lon="8.6752296"><ele>43.0</ele><time>2026-05-03T06:04:28.778Z</time></trkpt><trkpt lat="39.8184067" lon="8.6754519"><ele>43.0</ele><time>2026-05-03T06:04:29.78Z</time></trkpt><trkpt lat="39.8183916" lon="8.6756801"><ele>43.0</ele><time>2026-05-03T06:04:30.778Z</time></trkpt><trkpt lat="39.8183711" lon="8.6759217"><ele>43.0</ele><time>2026-05-03T06:04:31.78Z</time></trkpt><trkpt lat="39.8183507" lon="8.6761674"><ele>43.0</ele><time>2026-05-03T06:04:32.777Z</time></trkpt><trkpt lat="39.8183285" lon="8.6763988"><ele>42.75</ele><time>2026-05-03T06:04:33.779Z</time></trkpt><trkpt lat="39.8183" lon="8.6766069"><ele>42.5</ele><time>2026-05-03T06:04:34.778Z</time></trkpt><trkpt lat="39.8182697" lon="8.6768035"><ele>42.25</ele><time>2026-05-03T06:04:35.777Z</time></trkpt><trkpt lat="39.818239" lon="8.6769709"><ele>42.0</ele><time>2026-05-03T06:04:36.778Z</time></trkpt><trkpt lat="39.8181863" lon="8.6771251"><ele>42.0</ele><time>2026-05-03T06:04:37.779Z</time></trkpt><trkpt lat="39.8181295" lon="8.6772823"><ele>42.0</ele><time>2026-05-03T06:04:38.779Z</time></trkpt><trkpt lat="39.8180851" lon="8.6774294"><ele>42.0</ele><time>2026-05-03T06:04:39.779Z</time></trkpt><trkpt lat="39.8180448" lon="8.677562"><ele>42.0</ele><time>2026-05-03T06:04:40.778Z</time></trkpt><trkpt lat="39.8179982" lon="8.6776732"><ele>42.0</ele><time>2026-05-03T06:04:41.778Z</time></trkpt><trkpt lat="39.8179446" lon="8.6777648"><ele>42.0</ele><time>2026-05-03T06:04:42.78Z</time></trkpt><trkpt lat="39.8178724" lon="8.6778403"><ele>42.0</ele><time>2026-05-03T06:04:43.778Z</time></trkpt><trkpt lat="39.8177653" lon="8.6779355"><ele>42.0</ele><time>2026-05-03T06:04:44.778Z</time></trkpt><trkpt lat="39.8176733" lon="8.6780223"><ele>42.0</ele><time>2026-05-03T06:04:45.779Z</time></trkpt><trkpt lat="39.8175921" lon="8.678111"><ele>42.6</ele><time>2026-05-03T06:04:46.779Z</time></trkpt><trkpt lat="39.817515" lon="8.6782119"><ele>43.2</ele><time>2026-05-03T06:04:47.778Z</time></trkpt><trkpt lat="39.8174406" lon="8.6783148"><ele>43.8</ele><time>2026-05-03T06:04:48.778Z</time></trkpt><trkpt lat="39.8173593" lon="8.6784111"><ele>44.4</ele><time>2026-05-03T06:04:49.779Z</time></trkpt><trkpt lat="39.8172702" lon="8.6785078"><ele>45.0</ele><time>2026-05-03T06:04:50.777Z</time></trkpt><trkpt lat="39.8171754" lon="8.6786112"><ele>45.25</ele><time>2026-05-03T06:04:51.777Z</time></trkpt><trkpt lat="39.8170761" lon="8.6787241"><ele>45.5</ele><time>2026-05-03T06:04:52.779Z</time></trkpt><trkpt lat="39.8169664" lon="8.6788383"><ele>45.75</ele><time>2026-05-03T06:04:53.779Z</time></trkpt><trkpt lat="39.8168539" lon="8.6789604"><ele>46.0</ele><time>2026-05-03T06:04:54.779Z</time></trkpt><trkpt lat="39.816735" lon="8.6790812"><ele>47.333333333333336</ele><time>2026-05-03T06:04:55.779Z</time></trkpt><trkpt lat="39.8166168" lon="8.6792107"><ele>48.66666666666667</ele><time>2026-05-03T06:04:56.778Z</time></trkpt><trkpt lat="39.8164988" lon="8.6793306"><ele>50.0</ele><time>2026-05-03T06:04:57.779Z</time></trkpt><trkpt lat="39.8163751" lon="8.6794604"><ele>50.0</ele><time>2026-05-03T06:04:58.778Z</time></trkpt><trkpt lat="39.8162468" lon="8.6796132"><ele>50.0</ele><time>2026-05-03T06:04:59.779Z</time></trkpt><trkpt lat="39.816119" lon="8.6797565"><ele>50.0</ele><time>2026-05-03T06:05:00.777Z</time></trkpt><trkpt lat="39.8159923" lon="8.6799002"><ele>50.75</ele><time>2026-05-03T06:05:01.779Z</time></trkpt><trkpt lat="39.8158692" lon="8.6800292"><ele>51.5</ele><time>2026-05-03T06:05:02.78Z</time></trkpt><trkpt lat="39.8157708" lon="8.680141"><ele>52.25</ele><time>2026-05-03T06:05:03.777Z</time></trkpt><trkpt lat="39.8156776" lon="8.6802244"><ele>53.0</ele><time>2026-05-03T06:05:04.778Z</time></trkpt><trkpt lat="39.8155875" lon="8.6802791"><ele>53.0</ele><time>2026-05-03T06:05:05.778Z</time></trkpt><trkpt lat="39.8154953" lon="8.6803106"><ele>53.0</ele><time>2026-05-03T06:05:06.778Z</time></trkpt><trkpt lat="39.8154064" lon="8.6803061"><ele>53.0</ele><time>2026-05-03T06:05:07.778Z</time></trkpt><trkpt lat="39.8153155" lon="8.6802858"><ele>53.0</ele><time>2026-05-03T06:05:08.778Z</time></trkpt><trkpt lat="39.8152085" lon="8.6802417"><ele>53.0</ele><time>2026-05-03T06:05:09.777Z</time></trkpt><trkpt lat="39.8150853" lon="8.680182"><ele>53.66666666666667</ele><time>2026-05-03T06:05:10.781Z</time></trkpt><trkpt lat="39.814954" lon="8.6801189"><ele>54.33333333333333</ele><time>2026-05-03T06:05:11.777Z</time></trkpt><trkpt lat="39.8148052" lon="8.6800554"><ele>55.0</ele><time>2026-05-03T06:05:12.778Z</time></trkpt><trkpt lat="39.8146406" lon="8.6799904"><ele>55.0</ele><time>2026-05-03T06:05:13.78Z</time></trkpt><trkpt lat="39.8144668" lon="8.6799189"><ele>55.0</ele><time>2026-05-03T06:05:14.779Z</time></trkpt><trkpt lat="39.814284" lon="8.6798414"><ele>55.0</ele><time>2026-05-03T06:05:15.779Z</time></trkpt><trkpt lat="39.8140997" lon="8.6797717"><ele>55.5</ele><time>2026-05-03T06:05:16.777Z</time></trkpt><trkpt lat="39.8139342" lon="8.6797076"><ele>56.0</ele><time>2026-05-03T06:05:17.778Z</time></trkpt><trkpt lat="39.8137918" lon="8.6796523"><ele>56.5</ele><time>2026-05-03T06:05:18.778Z</time></trkpt><trkpt lat="39.8136853" lon="8.6796098"><ele>57.0</ele><time>2026-05-03T06:05:19.777Z</time></trkpt><trkpt lat="39.8136131" lon="8.6795725"><ele>57.0</ele><time>2026-05-03T06:05:20.78Z</time></trkpt><trkpt lat="39.8135324" lon="8.6795356"><ele>57.0</ele><time>2026-05-03T06:05:22.778Z</time></trkpt><trkpt lat="39.813466" lon="8.6796485"><ele>57.0</ele><time>2026-05-03T06:05:57.778Z</time></trkpt><trkpt lat="39.8134325" lon="8.6797967"><ele>57.0</ele><time>2026-05-03T06:05:59.778Z</time></trkpt><trkpt lat="39.813392" lon="8.6799528"><ele>57.0</ele><time>2026-05-03T06:06:01.778Z</time></trkpt><trkpt lat="39.8133673" lon="8.6800957"><ele>57.0</ele><time>2026-05-03T06:06:03.779Z</time></trkpt><trkpt lat="39.8133766" lon="8.6801849"><ele>57.0</ele><time>2026-05-03T06:06:05.779Z</time></trkpt><trkpt lat="39.8134813" lon="8.6802842"><ele>57.0</ele><time>2026-05-03T06:06:07.779Z</time></trkpt><trkpt lat="39.8135726" lon="8.6803211"><ele>57.0</ele><time>2026-05-03T06:06:08.778Z</time></trkpt><trkpt lat="39.8136874" lon="8.680365"><ele>57.0</ele><time>2026-05-03T06:06:09.779Z</time></trkpt><trkpt lat="39.8138235" lon="8.6804177"><ele>57.0</ele><time>2026-05-03T06:06:10.779Z</time></trkpt><trkpt lat="39.8139703" lon="8.6804814"><ele>57.0</ele><time>2026-05-03T06:06:11.779Z</time></trkpt><trkpt lat="39.8141359" lon="8.6805439"><ele>57.0</ele><time>2026-05-03T06:06:12.778Z</time></trkpt><trkpt lat="39.8143109" lon="8.6806163"><ele>56.66666666666667</ele><time>2026-05-03T06:06:13.778Z</time></trkpt><trkpt lat="39.8144982" lon="8.680687"><ele>56.333333333333336</ele><time>2026-05-03T06:06:14.778Z</time></trkpt><trkpt lat="39.814688" lon="8.6807652"><ele>56.0</ele><time>2026-05-03T06:06:15.78Z</time></trkpt><trkpt lat="39.8148831" lon="8.6808483"><ele>56.0</ele><time>2026-05-03T06:06:16.779Z</time></trkpt><trkpt lat="39.815078" lon="8.6809328"><ele>56.0</ele><time>2026-05-03T06:06:17.778Z</time></trkpt><trkpt lat="39.8152694" lon="8.6810128"><ele>56.0</ele><time>2026-05-03T06:06:18.778Z</time></trkpt><trkpt lat="39.8154527" lon="8.6810879"><ele>55.66666666666667</ele><time>2026-05-03T06:06:19.778Z</time></trkpt><trkpt lat="39.8156364" lon="8.6811661"><ele>55.33333333333333</ele><time>2026-05-03T06:06:20.778Z</time></trkpt><trkpt lat="39.8158218" lon="8.6812445"><ele>55.0</ele><time>2026-05-03T06:06:21.777Z</time></trkpt><trkpt lat="39.8160034" lon="8.6813208"><ele>54.0</ele><time>2026-05-03T06:06:22.778Z</time></trkpt><trkpt lat="39.8161799" lon="8.6813899"><ele>53.0</ele><time>2026-05-03T06:06:23.779Z</time></trkpt><trkpt lat="39.8163525" lon="8.6814581"><ele>52.0</ele><time>2026-05-03T06:06:24.779Z</time></trkpt><trkpt lat="39.8165248" lon="8.6815247"><ele>52.0</ele><time>2026-05-03T06:06:25.779Z</time></trkpt><trkpt lat="39.816702" lon="8.6815921"><ele>52.0</ele><time>2026-05-03T06:06:26.779Z</time></trkpt><trkpt lat="39.8168828" lon="8.6816594"><ele>52.0</ele><time>2026-05-03T06:06:27.778Z</time></trkpt><trkpt lat="39.8170695" lon="8.6817334"><ele>51.33333333333333</ele><time>2026-05-03T06:06:28.778Z</time></trkpt><trkpt lat="39.8172551" lon="8.6818114"><ele>50.66666666666667</ele><time>2026-05-03T06:06:29.779Z</time></trkpt><trkpt lat="39.8174429" lon="8.6818896"><ele>50.0</ele><time>2026-05-03T06:06:30.777Z</time></trkpt><trkpt lat="39.8176262" lon="8.681965"><ele>49.333333333333336</ele><time>2026-05-03T06:06:31.779Z</time></trkpt><trkpt lat="39.8178046" lon="8.6820353"><ele>48.66666666666667</ele><time>2026-05-03T06:06:32.777Z</time></trkpt><trkpt lat="39.8179695" lon="8.6821051"><ele>48.0</ele><time>2026-05-03T06:06:33.777Z</time></trkpt><trkpt lat="39.8181252" lon="8.6821691"><ele>48.0</ele><time>2026-05-03T06:06:34.779Z</time></trkpt><trkpt lat="39.8182866" lon="8.6822364"><ele>48.0</ele><time>2026-05-03T06:06:35.779Z</time></trkpt><trkpt lat="39.8184489" lon="8.6822998"><ele>48.0</ele><time>2026-05-03T06:06:36.778Z</time></trkpt><trkpt lat="39.8186127" lon="8.6823623"><ele>48.0</ele><time>2026-05-03T06:06:37.778Z</time></trkpt><trkpt lat="39.8187735" lon="8.6824279"><ele>48.0</ele><time>2026-05-03T06:06:38.778Z</time></trkpt><trkpt lat="39.8189353" lon="8.6824927"><ele>48.0</ele><time>2026-05-03T06:06:39.778Z</time></trkpt><trkpt lat="39.8190954" lon="8.6825569"><ele>48.0</ele><time>2026-05-03T06:06:40.778Z</time></trkpt><trkpt lat="39.8192554" lon="8.682621"><ele>48.0</ele><time>2026-05-03T06:06:41.778Z</time></trkpt><trkpt lat="39.8194115" lon="8.6826801"><ele>48.0</ele><time>2026-05-03T06:06:42.779Z</time></trkpt><trkpt lat="39.8195709" lon="8.6827493"><ele>48.66666666666667</ele><time>2026-05-03T06:06:43.779Z</time></trkpt><trkpt lat="39.81973" lon="8.6828173"><ele>49.333333333333336</ele><time>2026-05-03T06:06:44.778Z</time></trkpt><trkpt lat="39.8198867" lon="8.6828824"><ele>50.0</ele><time>2026-05-03T06:06:45.778Z</time></trkpt><trkpt lat="39.8200503" lon="8.6829474"><ele>51.0</ele><time>2026-05-03T06:06:46.779Z</time></trkpt><trkpt lat="39.8202144" lon="8.6830151"><ele>52.0</ele><time>2026-05-03T06:06:47.777Z</time></trkpt><trkpt lat="39.8203834" lon="8.6830852"><ele>53.0</ele><time>2026-05-03T06:06:48.777Z</time></trkpt><trkpt lat="39.8205518" lon="8.6831564"><ele>53.0</ele><time>2026-05-03T06:06:49.779Z</time></trkpt><trkpt lat="39.8207245" lon="8.6832283"><ele>53.0</ele><time>2026-05-03T06:06:50.778Z</time></trkpt><trkpt lat="39.8208942" lon="8.6832979"><ele>53.0</ele><time>2026-05-03T06:06:51.778Z</time></trkpt><trkpt lat="39.8210658" lon="8.6833655"><ele>52.333333333333336</ele><time>2026-05-03T06:06:52.778Z</time></trkpt><trkpt lat="39.8212351" lon="8.6834279"><ele>51.66666666666667</ele><time>2026-05-03T06:06:53.779Z</time></trkpt><trkpt lat="39.8214041" lon="8.6834938"><ele>51.0</ele><time>2026-05-03T06:06:54.779Z</time></trkpt><trkpt lat="39.8215736" lon="8.6835652"><ele>51.0</ele><time>2026-05-03T06:06:55.779Z</time></trkpt><trkpt lat="39.8217409" lon="8.6836334"><ele>51.0</ele><time>2026-05-03T06:06:56.779Z</time></trkpt><trkpt lat="39.8219075" lon="8.6837047"><ele>51.0</ele><time>2026-05-03T06:06:57.779Z</time></trkpt><trkpt lat="39.8220749" lon="8.683771"><ele>51.0</ele><time>2026-05-03T06:06:58.779Z</time></trkpt><trkpt lat="39.822247" lon="8.6838378"><ele>51.0</ele><time>2026-05-03T06:06:59.778Z</time></trkpt><trkpt lat="39.8224185" lon="8.6839086"><ele>51.0</ele><time>2026-05-03T06:07:00.778Z</time></trkpt><trkpt lat="39.8225879" lon="8.6839783"><ele>51.66666666666667</ele><time>2026-05-03T06:07:01.779Z</time></trkpt><trkpt lat="39.822759" lon="8.6840441"><ele>52.333333333333336</ele><time>2026-05-03T06:07:02.779Z</time></trkpt><trkpt lat="39.8229282" lon="8.6841127"><ele>53.0</ele><time>2026-05-03T06:07:03.778Z</time></trkpt><trkpt lat="39.8230942" lon="8.6841779"><ele>53.0</ele><time>2026-05-03T06:07:04.777Z</time></trkpt><trkpt lat="39.8232594" lon="8.6842432"><ele>53.0</ele><time>2026-05-03T06:07:05.778Z</time></trkpt><trkpt lat="39.8234259" lon="8.6843144"><ele>53.0</ele><time>2026-05-03T06:07:06.778Z</time></trkpt><trkpt lat="39.8235894" lon="8.684384"><ele>53.0</ele><time>2026-05-03T06:07:07.778Z</time></trkpt><trkpt lat="39.8237519" lon="8.6844531"><ele>53.0</ele><time>2026-05-03T06:07:08.778Z</time></trkpt><trkpt lat="39.8239181" lon="8.6845214"><ele>53.0</ele><time>2026-05-03T06:07:09.779Z</time></trkpt><trkpt lat="39.8240841" lon="8.6845855"><ele>53.0</ele><time>2026-05-03T06:07:10.78Z</time></trkpt><trkpt lat="39.8242524" lon="8.6846491"><ele>53.0</ele><time>2026-05-03T06:07:11.779Z</time></trkpt><trkpt lat="39.8244232" lon="8.6847137"><ele>53.0</ele><time>2026-05-03T06:07:12.78Z</time></trkpt><trkpt lat="39.8245964" lon="8.6847834"><ele>53.333333333333336</ele><time>2026-05-03T06:07:13.779Z</time></trkpt><trkpt lat="39.8247679" lon="8.6848528"><ele>53.66666666666667</ele><time>2026-05-03T06:07:14.778Z</time></trkpt><trkpt lat="39.8249312" lon="8.6849227"><ele>54.0</ele><time>2026-05-03T06:07:15.779Z</time></trkpt><trkpt lat="39.8250956" lon="8.6849912"><ele>54.66666666666667</ele><time>2026-05-03T06:07:16.779Z</time></trkpt><trkpt lat="39.8252552" lon="8.6850506"><ele>55.333333333333336</ele><time>2026-05-03T06:07:17.78Z</time></trkpt><trkpt lat="39.8254155" lon="8.6851169"><ele>56.0</ele><time>2026-05-03T06:07:18.777Z</time></trkpt><trkpt lat="39.8255772" lon="8.6851809"><ele>56.0</ele><time>2026-05-03T06:07:19.778Z</time></trkpt><trkpt lat="39.8257412" lon="8.685249"><ele>56.0</ele><time>2026-05-03T06:07:20.777Z</time></trkpt><trkpt lat="39.8259054" lon="8.6853162"><ele>56.0</ele><time>2026-05-03T06:07:21.778Z</time></trkpt><trkpt lat="39.8260735" lon="8.6853848"><ele>56.0</ele><time>2026-05-03T06:07:22.778Z</time></trkpt><trkpt lat="39.8262407" lon="8.6854527"><ele>56.0</ele><time>2026-05-03T06:07:23.778Z</time></trkpt><trkpt lat="39.8264091" lon="8.6855213"><ele>56.0</ele><time>2026-05-03T06:07:24.778Z</time></trkpt><trkpt lat="39.8265763" lon="8.6855899"><ele>56.0</ele><time>2026-05-03T06:07:25.779Z</time></trkpt><trkpt lat="39.8267416" lon="8.6856571"><ele>56.0</ele><time>2026-05-03T06:07:26.777Z</time></trkpt><trkpt lat="39.8269068" lon="8.6857265"><ele>56.0</ele><time>2026-05-03T06:07:27.778Z</time></trkpt><trkpt lat="39.8270707" lon="8.6857908"><ele>56.0</ele><time>2026-05-03T06:07:28.777Z</time></trkpt><trkpt lat="39.8272328" lon="8.6858545"><ele>56.0</ele><time>2026-05-03T06:07:29.778Z</time></trkpt><trkpt lat="39.8273952" lon="8.6859195"><ele>56.0</ele><time>2026-05-03T06:07:30.779Z</time></trkpt><trkpt lat="39.8275541" lon="8.6859847"><ele>55.66666666666667</ele><time>2026-05-03T06:07:31.779Z</time></trkpt><trkpt lat="39.8277148" lon="8.6860511"><ele>55.33333333333333</ele><time>2026-05-03T06:07:32.778Z</time></trkpt><trkpt lat="39.8278771" lon="8.6861155"><ele>55.0</ele><time>2026-05-03T06:07:33.779Z</time></trkpt><trkpt lat="39.8280394" lon="8.686175"><ele>56.0</ele><time>2026-05-03T06:07:34.779Z</time></trkpt><trkpt lat="39.8282017" lon="8.6862431"><ele>57.0</ele><time>2026-05-03T06:07:35.778Z</time></trkpt><trkpt lat="39.8283627" lon="8.6863095"><ele>58.0</ele><time>2026-05-03T06:07:36.777Z</time></trkpt><trkpt lat="39.8285262" lon="8.6863779"><ele>58.0</ele><time>2026-05-03T06:07:37.779Z</time></trkpt><trkpt lat="39.828693" lon="8.686442"><ele>58.0</ele><time>2026-05-03T06:07:38.779Z</time></trkpt><trkpt lat="39.8288605" lon="8.6865115"><ele>58.0</ele><time>2026-05-03T06:07:39.778Z</time></trkpt><trkpt lat="39.8290287" lon="8.6865828"><ele>58.0</ele><time>2026-05-03T06:07:40.778Z</time></trkpt><trkpt lat="39.8291998" lon="8.6866524"><ele>58.0</ele><time>2026-05-03T06:07:41.777Z</time></trkpt><trkpt lat="39.8293692" lon="8.6867221"><ele>58.0</ele><time>2026-05-03T06:07:42.779Z</time></trkpt><trkpt lat="39.8295401" lon="8.6867893"><ele>58.0</ele><time>2026-05-03T06:07:43.779Z</time></trkpt><trkpt lat="39.8297093" lon="8.6868568"><ele>58.0</ele><time>2026-05-03T06:07:44.779Z</time></trkpt><trkpt lat="39.8298778" lon="8.6869211"><ele>58.0</ele><time>2026-05-03T06:07:45.779Z</time></trkpt><trkpt lat="39.8300465" lon="8.6869867"><ele>58.666666666666664</ele><time>2026-05-03T06:07:46.779Z</time></trkpt><trkpt lat="39.8302142" lon="8.6870565"><ele>59.33333333333333</ele><time>2026-05-03T06:07:47.779Z</time></trkpt><trkpt lat="39.8303825" lon="8.6871288"><ele>60.0</ele><time>2026-05-03T06:07:48.777Z</time></trkpt><trkpt lat="39.8305527" lon="8.6871994"><ele>60.0</ele><time>2026-05-03T06:07:49.778Z</time></trkpt><trkpt lat="39.8307232" lon="8.6872658"><ele>60.0</ele><time>2026-05-03T06:07:50.778Z</time></trkpt><trkpt lat="39.8308922" lon="8.6873331"><ele>60.0</ele><time>2026-05-03T06:07:51.777Z</time></trkpt><trkpt lat="39.8310579" lon="8.6873975"><ele>60.0</ele><time>2026-05-03T06:07:52.779Z</time></trkpt><trkpt lat="39.8312219" lon="8.6874641"><ele>60.0</ele><time>2026-05-03T06:07:53.778Z</time></trkpt><trkpt lat="39.8313843" lon="8.687529"><ele>60.0</ele><time>2026-05-03T06:07:54.777Z</time></trkpt><trkpt lat="39.8315459" lon="8.6875932"><ele>60.0</ele><time>2026-05-03T06:07:55.779Z</time></trkpt><trkpt lat="39.8317066" lon="8.6876604"><ele>60.0</ele><time>2026-05-03T06:07:56.779Z</time></trkpt><trkpt lat="39.8318686" lon="8.6877274"><ele>60.0</ele><time>2026-05-03T06:07:57.779Z</time></trkpt><trkpt lat="39.8320339" lon="8.6877937"><ele>60.0</ele><time>2026-05-03T06:07:58.778Z</time></trkpt><trkpt lat="39.8321998" lon="8.6878581"><ele>60.0</ele><time>2026-05-03T06:07:59.779Z</time></trkpt><trkpt lat="39.832365" lon="8.6879262"><ele>60.0</ele><time>2026-05-03T06:08:00.778Z</time></trkpt><trkpt lat="39.8325307" lon="8.6879959"><ele>59.66666666666667</ele><time>2026-05-03T06:08:01.778Z</time></trkpt><trkpt lat="39.8326968" lon="8.6880628"><ele>59.333333333333336</ele><time>2026-05-03T06:08:02.778Z</time></trkpt><trkpt lat="39.8328643" lon="8.6881362"><ele>59.0</ele><time>2026-05-03T06:08:03.778Z</time></trkpt><trkpt lat="39.8330276" lon="8.6882028"><ele>59.0</ele><time>2026-05-03T06:08:04.777Z</time></trkpt><trkpt lat="39.8331888" lon="8.6882668"><ele>59.0</ele><time>2026-05-03T06:08:05.779Z</time></trkpt><trkpt lat="39.8333441" lon="8.6883281"><ele>59.0</ele><time>2026-05-03T06:08:06.779Z</time></trkpt><trkpt lat="39.8334944" lon="8.688383"><ele>59.0</ele><time>2026-05-03T06:08:07.777Z</time></trkpt><trkpt lat="39.8336437" lon="8.6884465"><ele>59.0</ele><time>2026-05-03T06:08:08.778Z</time></trkpt><trkpt lat="39.8337947" lon="8.6885096"><ele>59.0</ele><time>2026-05-03T06:08:09.778Z</time></trkpt><trkpt lat="39.8339491" lon="8.6885683"><ele>59.0</ele><time>2026-05-03T06:08:10.78Z</time></trkpt><trkpt lat="39.8341064" lon="8.6886312"><ele>59.0</ele><time>2026-05-03T06:08:11.778Z</time></trkpt><trkpt lat="39.834264" lon="8.6886955"><ele>59.0</ele><time>2026-05-03T06:08:12.779Z</time></trkpt><trkpt lat="39.8344237" lon="8.6887614"><ele>59.0</ele><time>2026-05-03T06:08:13.779Z</time></trkpt><trkpt lat="39.834589" lon="8.6888282"><ele>59.0</ele><time>2026-05-03T06:08:14.778Z</time></trkpt><trkpt lat="39.8347527" lon="8.6888962"><ele>59.0</ele><time>2026-05-03T06:08:15.778Z</time></trkpt><trkpt lat="39.8349164" lon="8.6889596"><ele>59.0</ele><time>2026-05-03T06:08:16.779Z</time></trkpt><trkpt lat="39.8350763" lon="8.6890184"><ele>59.0</ele><time>2026-05-03T06:08:17.779Z</time></trkpt><trkpt lat="39.8352286" lon="8.6890823"><ele>59.0</ele><time>2026-05-03T06:08:18.778Z</time></trkpt><trkpt lat="39.8353822" lon="8.6891472"><ele>58.66666666666667</ele><time>2026-05-03T06:08:19.778Z</time></trkpt><trkpt lat="39.8355439" lon="8.6892168"><ele>58.33333333333333</ele><time>2026-05-03T06:08:20.78Z</time></trkpt><trkpt lat="39.8357041" lon="8.6892794"><ele>58.0</ele><time>2026-05-03T06:08:21.777Z</time></trkpt><trkpt lat="39.8358557" lon="8.6893373"><ele>58.0</ele><time>2026-05-03T06:08:22.778Z</time></trkpt><trkpt lat="39.8359941" lon="8.6893916"><ele>58.0</ele><time>2026-05-03T06:08:23.778Z</time></trkpt><trkpt lat="39.8361306" lon="8.6894488"><ele>58.0</ele><time>2026-05-03T06:08:24.778Z</time></trkpt><trkpt lat="39.8362563" lon="8.689497"><ele>58.0</ele><time>2026-05-03T06:08:25.779Z</time></trkpt><trkpt lat="39.8363707" lon="8.6895409"><ele>57.99999999999999</ele><time>2026-05-03T06:08:26.778Z</time></trkpt><trkpt lat="39.8364623" lon="8.6895745"><ele>58.0</ele><time>2026-05-03T06:08:27.778Z</time></trkpt><trkpt lat="39.8365396" lon="8.6896103"><ele>58.0</ele><time>2026-05-03T06:08:28.777Z</time></trkpt><trkpt lat="39.8366112" lon="8.6896383"><ele>58.0</ele><time>2026-05-03T06:08:29.779Z</time></trkpt><trkpt lat="39.8366834" lon="8.6896675"><ele>57.99999999999999</ele><time>2026-05-03T06:08:30.779Z</time></trkpt><trkpt lat="39.8367694" lon="8.6896995"><ele>58.0</ele><time>2026-05-03T06:08:31.777Z</time></trkpt><trkpt lat="39.8368722" lon="8.6897432"><ele>58.0</ele><time>2026-05-03T06:08:32.777Z</time></trkpt><trkpt lat="39.8369932" lon="8.6897967"><ele>58.0</ele><time>2026-05-03T06:08:33.778Z</time></trkpt><trkpt lat="39.8371324" lon="8.6898552"><ele>58.0</ele><time>2026-05-03T06:08:34.778Z</time></trkpt><trkpt lat="39.8372801" lon="8.6899156"><ele>58.0</ele><time>2026-05-03T06:08:35.779Z</time></trkpt><trkpt lat="39.8374329" lon="8.6899778"><ele>58.0</ele><time>2026-05-03T06:08:36.777Z</time></trkpt><trkpt lat="39.8375948" lon="8.690042"><ele>58.0</ele><time>2026-05-03T06:08:37.779Z</time></trkpt><trkpt lat="39.8377637" lon="8.6901093"><ele>58.0</ele><time>2026-05-03T06:08:38.778Z</time></trkpt><trkpt lat="39.8379343" lon="8.6901795"><ele>58.0</ele><time>2026-05-03T06:08:39.778Z</time></trkpt><trkpt lat="39.8381111" lon="8.6902506"><ele>58.0</ele><time>2026-05-03T06:08:40.778Z</time></trkpt><trkpt lat="39.8382929" lon="8.6903255"><ele>58.0</ele><time>2026-05-03T06:08:41.779Z</time></trkpt><trkpt lat="39.8384782" lon="8.6903991"><ele>58.666666666666664</ele><time>2026-05-03T06:08:42.778Z</time></trkpt><trkpt lat="39.83867" lon="8.6904772"><ele>59.33333333333333</ele><time>2026-05-03T06:08:43.777Z</time></trkpt><trkpt lat="39.8388636" lon="8.6905576"><ele>60.0</ele><time>2026-05-03T06:08:44.777Z</time></trkpt><trkpt lat="39.839055" lon="8.6906373"><ele>60.0</ele><time>2026-05-03T06:08:45.779Z</time></trkpt><trkpt lat="39.8392493" lon="8.6907201"><ele>60.0</ele><time>2026-05-03T06:08:46.778Z</time></trkpt><trkpt lat="39.8394456" lon="8.6907984"><ele>60.0</ele><time>2026-05-03T06:08:47.777Z</time></trkpt><trkpt lat="39.8396451" lon="8.690879"><ele>59.66666666666667</ele><time>2026-05-03T06:08:48.778Z</time></trkpt><trkpt lat="39.8398494" lon="8.6909606"><ele>59.333333333333336</ele><time>2026-05-03T06:08:49.778Z</time></trkpt><trkpt lat="39.8400543" lon="8.6910399"><ele>59.0</ele><time>2026-05-03T06:08:50.778Z</time></trkpt><trkpt lat="39.8402569" lon="8.6911211"><ele>59.66666666666667</ele><time>2026-05-03T06:08:51.779Z</time></trkpt><trkpt lat="39.8404576" lon="8.6911999"><ele>60.33333333333333</ele><time>2026-05-03T06:08:52.778Z</time></trkpt><trkpt lat="39.8406621" lon="8.6912858"><ele>61.0</ele><time>2026-05-03T06:08:53.778Z</time></trkpt><trkpt lat="39.8408687" lon="8.6913685"><ele>60.33333333333333</ele><time>2026-05-03T06:08:54.779Z</time></trkpt><trkpt lat="39.8410752" lon="8.6914502"><ele>59.66666666666667</ele><time>2026-05-03T06:08:55.778Z</time></trkpt><trkpt lat="39.8412818" lon="8.6915356"><ele>59.0</ele><time>2026-05-03T06:08:56.778Z</time></trkpt><trkpt lat="39.8414906" lon="8.6916175"><ele>59.0</ele><time>2026-05-03T06:08:57.778Z</time></trkpt><trkpt lat="39.8417001" lon="8.6917042"><ele>59.0</ele><time>2026-05-03T06:08:58.778Z</time></trkpt><trkpt lat="39.8419063" lon="8.6917878"><ele>59.0</ele><time>2026-05-03T06:08:59.778Z</time></trkpt><trkpt lat="39.8421091" lon="8.6918692"><ele>59.0</ele><time>2026-05-03T06:09:00.777Z</time></trkpt><trkpt lat="39.8423117" lon="8.69195"><ele>59.0</ele><time>2026-05-03T06:09:01.779Z</time></trkpt><trkpt lat="39.8425096" lon="8.692032"><ele>59.0</ele><time>2026-05-03T06:09:02.777Z</time></trkpt><trkpt lat="39.8427052" lon="8.6921096"><ele>59.333333333333336</ele><time>2026-05-03T06:09:03.778Z</time></trkpt><trkpt lat="39.8428978" lon="8.6921846"><ele>59.66666666666667</ele><time>2026-05-03T06:09:04.778Z</time></trkpt><trkpt lat="39.8430875" lon="8.6922616"><ele>60.0</ele><time>2026-05-03T06:09:05.777Z</time></trkpt><trkpt lat="39.8432764" lon="8.692335"><ele>60.0</ele><time>2026-05-03T06:09:06.777Z</time></trkpt><trkpt lat="39.8434631" lon="8.6924172"><ele>60.0</ele><time>2026-05-03T06:09:07.778Z</time></trkpt><trkpt lat="39.8436542" lon="8.6924992"><ele>60.0</ele><time>2026-05-03T06:09:08.778Z</time></trkpt><trkpt lat="39.8438482" lon="8.6925765"><ele>60.33333333333333</ele><time>2026-05-03T06:09:09.778Z</time></trkpt><trkpt lat="39.8440433" lon="8.6926562"><ele>60.666666666666664</ele><time>2026-05-03T06:09:10.779Z</time></trkpt><trkpt lat="39.8442409" lon="8.6927371"><ele>61.0</ele><time>2026-05-03T06:09:11.778Z</time></trkpt><trkpt lat="39.8444383" lon="8.6928168"><ele>61.0</ele><time>2026-05-03T06:09:12.778Z</time></trkpt><trkpt lat="39.8446392" lon="8.692901"><ele>61.0</ele><time>2026-05-03T06:09:13.778Z</time></trkpt><trkpt lat="39.8448395" lon="8.6929838"><ele>61.0</ele><time>2026-05-03T06:09:14.778Z</time></trkpt><trkpt lat="39.8450422" lon="8.6930679"><ele>60.0</ele><time>2026-05-03T06:09:15.779Z</time></trkpt><trkpt lat="39.8452432" lon="8.6931484"><ele>59.0</ele><time>2026-05-03T06:09:16.779Z</time></trkpt><trkpt lat="39.8454452" lon="8.6932297"><ele>58.0</ele><time>2026-05-03T06:09:17.779Z</time></trkpt><trkpt lat="39.8456449" lon="8.6933139"><ele>58.0</ele><time>2026-05-03T06:09:18.779Z</time></trkpt><trkpt lat="39.8458405" lon="8.6933966"><ele>58.0</ele><time>2026-05-03T06:09:19.778Z</time></trkpt><trkpt lat="39.846028" lon="8.6934685"><ele>58.0</ele><time>2026-05-03T06:09:20.779Z</time></trkpt><trkpt lat="39.8462116" lon="8.6935381"><ele>57.0</ele><time>2026-05-03T06:09:21.778Z</time></trkpt><trkpt lat="39.8463919" lon="8.6936117"><ele>56.0</ele><time>2026-05-03T06:09:22.779Z</time></trkpt><trkpt lat="39.846571" lon="8.6936833"><ele>55.0</ele><time>2026-05-03T06:09:23.778Z</time></trkpt><trkpt lat="39.846759" lon="8.6937622"><ele>53.33333333333333</ele><time>2026-05-03T06:09:24.779Z</time></trkpt><trkpt lat="39.8469475" lon="8.6938381"><ele>51.66666666666667</ele><time>2026-05-03T06:09:25.778Z</time></trkpt><trkpt lat="39.8471396" lon="8.6939176"><ele>50.0</ele><time>2026-05-03T06:09:26.779Z</time></trkpt><trkpt lat="39.8473353" lon="8.6939986"><ele>50.0</ele><time>2026-05-03T06:09:27.779Z</time></trkpt><trkpt lat="39.847534" lon="8.6940784"><ele>50.0</ele><time>2026-05-03T06:09:28.779Z</time></trkpt><trkpt lat="39.8477363" lon="8.6941571"><ele>50.0</ele><time>2026-05-03T06:09:29.778Z</time></trkpt><trkpt lat="39.8479372" lon="8.6942385"><ele>49.66666666666667</ele><time>2026-05-03T06:09:30.777Z</time></trkpt><trkpt lat="39.8481413" lon="8.6943187"><ele>49.33333333333333</ele><time>2026-05-03T06:09:31.779Z</time></trkpt><trkpt lat="39.848344" lon="8.6943984"><ele>49.0</ele><time>2026-05-03T06:09:32.779Z</time></trkpt><trkpt lat="39.8485484" lon="8.6944815"><ele>47.666666666666664</ele><time>2026-05-03T06:09:33.779Z</time></trkpt><trkpt lat="39.8487476" lon="8.6945595"><ele>46.33333333333333</ele><time>2026-05-03T06:09:34.778Z</time></trkpt><trkpt lat="39.848941" lon="8.6946377"><ele>45.0</ele><time>2026-05-03T06:09:35.778Z</time></trkpt><trkpt lat="39.8491344" lon="8.6947173"><ele>45.0</ele><time>2026-05-03T06:09:36.779Z</time></trkpt><trkpt lat="39.849326" lon="8.6947923"><ele>45.0</ele><time>2026-05-03T06:09:37.779Z</time></trkpt><trkpt lat="39.8495116" lon="8.6948689"><ele>45.0</ele><time>2026-05-03T06:09:38.778Z</time></trkpt><trkpt lat="39.8496954" lon="8.6949513"><ele>45.0</ele><time>2026-05-03T06:09:39.778Z</time></trkpt><trkpt lat="39.8498865" lon="8.6950231"><ele>45.0</ele><time>2026-05-03T06:09:40.778Z</time></trkpt><trkpt lat="39.8500738" lon="8.6950975"><ele>45.0</ele><time>2026-05-03T06:09:41.778Z</time></trkpt><trkpt lat="39.85026" lon="8.6951722"><ele>45.0</ele><time>2026-05-03T06:09:42.779Z</time></trkpt><trkpt lat="39.8504466" lon="8.6952486"><ele>45.0</ele><time>2026-05-03T06:09:43.778Z</time></trkpt><trkpt lat="39.8506342" lon="8.6953269"><ele>45.0</ele><time>2026-05-03T06:09:44.778Z</time></trkpt><trkpt lat="39.850824" lon="8.6954054"><ele>46.0</ele><time>2026-05-03T06:09:45.778Z</time></trkpt><trkpt lat="39.8510181" lon="8.6954796"><ele>47.0</ele><time>2026-05-03T06:09:46.778Z</time></trkpt><trkpt lat="39.8512138" lon="8.6955544"><ele>48.0</ele><time>2026-05-03T06:09:47.778Z</time></trkpt><trkpt lat="39.8514079" lon="8.6956323"><ele>48.0</ele><time>2026-05-03T06:09:48.778Z</time></trkpt><trkpt lat="39.851599" lon="8.6957065"><ele>48.0</ele><time>2026-05-03T06:09:49.777Z</time></trkpt><trkpt lat="39.8517864" lon="8.6957827"><ele>48.0</ele><time>2026-05-03T06:09:50.779Z</time></trkpt><trkpt lat="39.8519703" lon="8.6958609"><ele>46.0</ele><time>2026-05-03T06:09:51.778Z</time></trkpt><trkpt lat="39.8521477" lon="8.6959354"><ele>44.0</ele><time>2026-05-03T06:09:52.778Z</time></trkpt><trkpt lat="39.8523257" lon="8.6960105"><ele>42.0</ele><time>2026-05-03T06:09:53.778Z</time></trkpt><trkpt lat="39.8525039" lon="8.6960822"><ele>44.0</ele><time>2026-05-03T06:09:54.777Z</time></trkpt><trkpt lat="39.8526763" lon="8.6961533"><ele>46.0</ele><time>2026-05-03T06:09:55.779Z</time></trkpt><trkpt lat="39.8528482" lon="8.6962268"><ele>48.0</ele><time>2026-05-03T06:09:56.777Z</time></trkpt><trkpt lat="39.853016" lon="8.6962983"><ele>48.0</ele><time>2026-05-03T06:09:57.778Z</time></trkpt><trkpt lat="39.853178" lon="8.6963651"><ele>48.0</ele><time>2026-05-03T06:09:58.779Z</time></trkpt><trkpt lat="39.8533322" lon="8.6964267"><ele>48.0</ele><time>2026-05-03T06:09:59.779Z</time></trkpt><trkpt lat="39.8534717" lon="8.6964851"><ele>47.5</ele><time>2026-05-03T06:10:00.779Z</time></trkpt><trkpt lat="39.8536107" lon="8.6965437"><ele>47.0</ele><time>2026-05-03T06:10:01.779Z</time></trkpt><trkpt lat="39.8537491" lon="8.6965998"><ele>46.5</ele><time>2026-05-03T06:10:02.777Z</time></trkpt><trkpt lat="39.8538702" lon="8.6966482"><ele>46.0</ele><time>2026-05-03T06:10:03.778Z</time></trkpt><trkpt lat="39.8539812" lon="8.6966906"><ele>46.0</ele><time>2026-05-03T06:10:04.779Z</time></trkpt><trkpt lat="39.854096" lon="8.6967335"><ele>46.0</ele><time>2026-05-03T06:10:05.779Z</time></trkpt><trkpt lat="39.8542067" lon="8.69678"><ele>46.0</ele><time>2026-05-03T06:10:06.779Z</time></trkpt><trkpt lat="39.8542876" lon="8.696824"><ele>46.0</ele><time>2026-05-03T06:10:07.779Z</time></trkpt><trkpt lat="39.8543586" lon="8.6969011"><ele>46.0</ele><time>2026-05-03T06:10:09.778Z</time></trkpt><trkpt lat="39.8543289" lon="8.6969993"><ele>46.4</ele><time>2026-05-03T06:10:11.778Z</time></trkpt><trkpt lat="39.8542749" lon="8.6970659"><ele>46.8</ele><time>2026-05-03T06:10:12.778Z</time></trkpt><trkpt lat="39.8541974" lon="8.6971571"><ele>47.199999999999996</ele><time>2026-05-03T06:10:13.778Z</time></trkpt><trkpt lat="39.854112" lon="8.6972459"><ele>47.599999999999994</ele><time>2026-05-03T06:10:14.778Z</time></trkpt><trkpt lat="39.8540203" lon="8.6973583"><ele>48.0</ele><time>2026-05-03T06:10:15.779Z</time></trkpt><trkpt lat="39.8539282" lon="8.6974717"><ele>48.0</ele><time>2026-05-03T06:10:16.778Z</time></trkpt><trkpt lat="39.8538335" lon="8.697596"><ele>48.0</ele><time>2026-05-03T06:10:17.778Z</time></trkpt><trkpt lat="39.8537306" lon="8.69772"><ele>48.0</ele><time>2026-05-03T06:10:18.778Z</time></trkpt><trkpt lat="39.8536295" lon="8.6978428"><ele>48.0</ele><time>2026-05-03T06:10:19.779Z</time></trkpt><trkpt lat="39.8535213" lon="8.6979739"><ele>49.25</ele><time>2026-05-03T06:10:20.778Z</time></trkpt><trkpt lat="39.8534187" lon="8.6981108"><ele>50.5</ele><time>2026-05-03T06:10:21.777Z</time></trkpt><trkpt lat="39.8533139" lon="8.6982441"><ele>51.75</ele><time>2026-05-03T06:10:22.779Z</time></trkpt><trkpt lat="39.853211" lon="8.6983828"><ele>53.0</ele><time>2026-05-03T06:10:23.778Z</time></trkpt><trkpt lat="39.8531025" lon="8.6985243"><ele>51.0</ele><time>2026-05-03T06:10:24.779Z</time></trkpt><trkpt lat="39.8529843" lon="8.6986746"><ele>49.0</ele><time>2026-05-03T06:10:25.777Z</time></trkpt><trkpt lat="39.852866" lon="8.6988325"><ele>47.0</ele><time>2026-05-03T06:10:26.777Z</time></trkpt><trkpt lat="39.8527487" lon="8.6989873"><ele>47.0</ele><time>2026-05-03T06:10:27.779Z</time></trkpt><trkpt lat="39.8526229" lon="8.6991429"><ele>47.0</ele><time>2026-05-03T06:10:28.779Z</time></trkpt><trkpt lat="39.8524949" lon="8.6992973"><ele>47.0</ele><time>2026-05-03T06:10:29.778Z</time></trkpt><trkpt lat="39.8523657" lon="8.6994558"><ele>47.33333333333333</ele><time>2026-05-03T06:10:30.779Z</time></trkpt><trkpt lat="39.8522403" lon="8.6996159"><ele>47.666666666666664</ele><time>2026-05-03T06:10:31.779Z</time></trkpt><trkpt lat="39.8521173" lon="8.6997775"><ele>48.0</ele><time>2026-05-03T06:10:32.778Z</time></trkpt><trkpt lat="39.8519944" lon="8.6999374"><ele>48.0</ele><time>2026-05-03T06:10:33.779Z</time></trkpt><trkpt lat="39.8518698" lon="8.7000974"><ele>48.0</ele><time>2026-05-03T06:10:34.779Z</time></trkpt><trkpt lat="39.8517455" lon="8.7002574"><ele>48.0</ele><time>2026-05-03T06:10:35.778Z</time></trkpt><trkpt lat="39.851622" lon="8.7004151"><ele>50.0</ele><time>2026-05-03T06:10:36.777Z</time></trkpt><trkpt lat="39.8514964" lon="8.7005713"><ele>52.0</ele><time>2026-05-03T06:10:37.777Z</time></trkpt><trkpt lat="39.8513754" lon="8.7007258"><ele>54.0</ele><time>2026-05-03T06:10:38.779Z</time></trkpt><trkpt lat="39.8512612" lon="8.7008812"><ele>54.0</ele><time>2026-05-03T06:10:39.779Z</time></trkpt><trkpt lat="39.8511459" lon="8.7010315"><ele>54.0</ele><time>2026-05-03T06:10:40.778Z</time></trkpt><trkpt lat="39.851032" lon="8.7011842"><ele>54.0</ele><time>2026-05-03T06:10:41.778Z</time></trkpt><trkpt lat="39.8509164" lon="8.7013388"><ele>56.66666666666667</ele><time>2026-05-03T06:10:42.779Z</time></trkpt><trkpt lat="39.8507865" lon="8.7014888"><ele>59.333333333333336</ele><time>2026-05-03T06:10:43.779Z</time></trkpt><trkpt lat="39.8506511" lon="8.7016359"><ele>62.0</ele><time>2026-05-03T06:10:44.778Z</time></trkpt><trkpt lat="39.8505238" lon="8.7017954"><ele>61.0</ele><time>2026-05-03T06:10:45.778Z</time></trkpt><trkpt lat="39.8503947" lon="8.7019582"><ele>60.0</ele><time>2026-05-03T06:10:46.778Z</time></trkpt><trkpt lat="39.8502619" lon="8.7021267"><ele>59.0</ele><time>2026-05-03T06:10:47.777Z</time></trkpt><trkpt lat="39.8501318" lon="8.7022966"><ele>61.333333333333336</ele><time>2026-05-03T06:10:48.778Z</time></trkpt><trkpt lat="39.8500047" lon="8.7024674"><ele>63.66666666666667</ele><time>2026-05-03T06:10:49.778Z</time></trkpt><trkpt lat="39.8498699" lon="8.7026368"><ele>66.0</ele><time>2026-05-03T06:10:50.779Z</time></trkpt><trkpt lat="39.8497329" lon="8.7028051"><ele>66.33333333333333</ele><time>2026-05-03T06:10:51.779Z</time></trkpt><trkpt lat="39.8496068" lon="8.7029719"><ele>66.66666666666666</ele><time>2026-05-03T06:10:52.779Z</time></trkpt><trkpt lat="39.8495201" lon="8.7031702"><ele>67.0</ele><time>2026-05-03T06:10:53.779Z</time></trkpt><trkpt lat="39.8494384" lon="8.7033817"><ele>66.0</ele><time>2026-05-03T06:10:54.777Z</time></trkpt><trkpt lat="39.8493595" lon="8.7036026"><ele>65.0</ele><time>2026-05-03T06:10:55.779Z</time></trkpt><trkpt lat="39.8492743" lon="8.703833"><ele>64.0</ele><time>2026-05-03T06:10:56.778Z</time></trkpt><trkpt lat="39.8491899" lon="8.704066"><ele>66.66666666666666</ele><time>2026-05-03T06:10:57.778Z</time></trkpt><trkpt lat="39.8491097" lon="8.7043025"><ele>69.33333333333333</ele><time>2026-05-03T06:10:58.778Z</time></trkpt><trkpt lat="39.8490236" lon="8.7045378"><ele>72.0</ele><time>2026-05-03T06:10:59.779Z</time></trkpt><trkpt lat="39.8489427" lon="8.704772"><ele>72.33333333333333</ele><time>2026-05-03T06:11:00.777Z</time></trkpt><trkpt lat="39.8488604" lon="8.704995"><ele>72.66666666666666</ele><time>2026-05-03T06:11:01.778Z</time></trkpt><trkpt lat="39.8487799" lon="8.7052131"><ele>73.0</ele><time>2026-05-03T06:11:02.778Z</time></trkpt><trkpt lat="39.8487017" lon="8.705422"><ele>72.0</ele><time>2026-05-03T06:11:03.779Z</time></trkpt><trkpt lat="39.8486295" lon="8.7056158"><ele>71.0</ele><time>2026-05-03T06:11:04.777Z</time></trkpt><trkpt lat="39.8485634" lon="8.7057953"><ele>70.0</ele><time>2026-05-03T06:11:05.777Z</time></trkpt><trkpt lat="39.8484949" lon="8.7059723"><ele>71.0</ele><time>2026-05-03T06:11:06.778Z</time></trkpt><trkpt lat="39.8484193" lon="8.7061252"><ele>72.0</ele><time>2026-05-03T06:11:07.777Z</time></trkpt><trkpt lat="39.8483232" lon="8.7062749"><ele>73.0</ele><time>2026-05-03T06:11:08.779Z</time></trkpt><trkpt lat="39.848211" lon="8.7064146"><ele>74.0</ele><time>2026-05-03T06:11:09.778Z</time></trkpt><trkpt lat="39.8480841" lon="8.7065514"><ele>74.0</ele><time>2026-05-03T06:11:10.779Z</time></trkpt><trkpt lat="39.847951" lon="8.7066811"><ele>74.0</ele><time>2026-05-03T06:11:11.777Z</time></trkpt><trkpt lat="39.8478189" lon="8.7068189"><ele>74.0</ele><time>2026-05-03T06:11:12.778Z</time></trkpt><trkpt lat="39.8476827" lon="8.7069549"><ele>74.0</ele><time>2026-05-03T06:11:13.779Z</time></trkpt><trkpt lat="39.847545" lon="8.7070918"><ele>74.0</ele><time>2026-05-03T06:11:14.779Z</time></trkpt><trkpt lat="39.8474052" lon="8.7072309"><ele>74.0</ele><time>2026-05-03T06:11:15.778Z</time></trkpt><trkpt lat="39.8472682" lon="8.7073767"><ele>74.0</ele><time>2026-05-03T06:11:16.778Z</time></trkpt><trkpt lat="39.8471255" lon="8.7075206"><ele>74.0</ele><time>2026-05-03T06:11:17.777Z</time></trkpt><trkpt lat="39.8469798" lon="8.7076745"><ele>74.0</ele><time>2026-05-03T06:11:18.778Z</time></trkpt><trkpt lat="39.8468376" lon="8.7078273"><ele>75.66666666666667</ele><time>2026-05-03T06:11:19.778Z</time></trkpt><trkpt lat="39.8466885" lon="8.7079762"><ele>77.33333333333333</ele><time>2026-05-03T06:11:20.778Z</time></trkpt><trkpt lat="39.8465394" lon="8.7081326"><ele>79.0</ele><time>2026-05-03T06:11:21.778Z</time></trkpt><trkpt lat="39.8463861" lon="8.708296"><ele>79.0</ele><time>2026-05-03T06:11:22.777Z</time></trkpt><trkpt lat="39.8462326" lon="8.7084537"><ele>79.0</ele><time>2026-05-03T06:11:23.777Z</time></trkpt><trkpt lat="39.8460822" lon="8.7086106"><ele>79.0</ele><time>2026-05-03T06:11:24.778Z</time></trkpt><trkpt lat="39.8459426" lon="8.7087539"><ele>81.0</ele><time>2026-05-03T06:11:25.778Z</time></trkpt><trkpt lat="39.8458067" lon="8.7089001"><ele>83.0</ele><time>2026-05-03T06:11:26.778Z</time></trkpt><trkpt lat="39.8456725" lon="8.709039"><ele>85.0</ele><time>2026-05-03T06:11:27.779Z</time></trkpt><trkpt lat="39.8455381" lon="8.7091844"><ele>85.0</ele><time>2026-05-03T06:11:28.778Z</time></trkpt><trkpt lat="39.8453988" lon="8.7093274"><ele>85.0</ele><time>2026-05-03T06:11:29.779Z</time></trkpt><trkpt lat="39.8452612" lon="8.7094713"><ele>85.0</ele><time>2026-05-03T06:11:30.778Z</time></trkpt><trkpt lat="39.8451231" lon="8.7096177"><ele>86.33333333333333</ele><time>2026-05-03T06:11:31.779Z</time></trkpt><trkpt lat="39.8449828" lon="8.7097674"><ele>87.66666666666667</ele><time>2026-05-03T06:11:32.778Z</time></trkpt><trkpt lat="39.8448388" lon="8.7099118"><ele>89.0</ele><time>2026-05-03T06:11:33.778Z</time></trkpt><trkpt lat="39.8446975" lon="8.7100593"><ele>89.0</ele><time>2026-05-03T06:11:34.777Z</time></trkpt><trkpt lat="39.8445482" lon="8.7102063"><ele>89.0</ele><time>2026-05-03T06:11:35.778Z</time></trkpt><trkpt lat="39.8444016" lon="8.7103536"><ele>89.0</ele><time>2026-05-03T06:11:36.777Z</time></trkpt><trkpt lat="39.8442514" lon="8.7104956"><ele>90.0</ele><time>2026-05-03T06:11:37.778Z</time></trkpt><trkpt lat="39.8441" lon="8.7106338"><ele>91.0</ele><time>2026-05-03T06:11:38.778Z</time></trkpt><trkpt lat="39.8439508" lon="8.7107726"><ele>92.0</ele><time>2026-05-03T06:11:39.779Z</time></trkpt><trkpt lat="39.8437988" lon="8.7109047"><ele>92.0</ele><time>2026-05-03T06:11:40.779Z</time></trkpt><trkpt lat="39.8436487" lon="8.7110362"><ele>92.0</ele><time>2026-05-03T06:11:41.777Z</time></trkpt><trkpt lat="39.8435028" lon="8.7111675"><ele>92.0</ele><time>2026-05-03T06:11:42.778Z</time></trkpt><trkpt lat="39.8433518" lon="8.7112986"><ele>93.0</ele><time>2026-05-03T06:11:43.778Z</time></trkpt><trkpt lat="39.8432026" lon="8.7114334"><ele>94.0</ele><time>2026-05-03T06:11:44.779Z</time></trkpt><trkpt lat="39.8430531" lon="8.7115701"><ele>95.0</ele><time>2026-05-03T06:11:45.778Z</time></trkpt><trkpt lat="39.8429008" lon="8.7117098"><ele>95.0</ele><time>2026-05-03T06:11:46.778Z</time></trkpt><trkpt lat="39.8427467" lon="8.711848"><ele>95.0</ele><time>2026-05-03T06:11:47.778Z</time></trkpt><trkpt lat="39.8426043" lon="8.711982"><ele>95.0</ele><time>2026-05-03T06:11:48.779Z</time></trkpt><trkpt lat="39.842477" lon="8.7121027"><ele>96.33333333333334</ele><time>2026-05-03T06:11:49.778Z</time></trkpt><trkpt lat="39.8423501" lon="8.7122142"><ele>97.66666666666667</ele><time>2026-05-03T06:11:50.779Z</time></trkpt><trkpt lat="39.8422228" lon="8.7123258"><ele>99.0</ele><time>2026-05-03T06:11:51.779Z</time></trkpt><trkpt lat="39.8420989" lon="8.712443"><ele>99.0</ele><time>2026-05-03T06:11:52.778Z</time></trkpt><trkpt lat="39.8419864" lon="8.7125451"><ele>99.0</ele><time>2026-05-03T06:11:53.778Z</time></trkpt><trkpt lat="39.8418809" lon="8.7126403"><ele>99.0</ele><time>2026-05-03T06:11:54.779Z</time></trkpt><trkpt lat="39.8417745" lon="8.7127425"><ele>99.0</ele><time>2026-05-03T06:11:55.779Z</time></trkpt><trkpt lat="39.8416689" lon="8.712844"><ele>100.25</ele><time>2026-05-03T06:11:56.779Z</time></trkpt><trkpt lat="39.8415658" lon="8.7129419"><ele>101.5</ele><time>2026-05-03T06:11:57.779Z</time></trkpt><trkpt lat="39.8414602" lon="8.713033"><ele>102.75</ele><time>2026-05-03T06:11:58.778Z</time></trkpt><trkpt lat="39.8413607" lon="8.7131194"><ele>104.0</ele><time>2026-05-03T06:11:59.778Z</time></trkpt><trkpt lat="39.8412922" lon="8.7131917"><ele>103.99999999999999</ele><time>2026-05-03T06:12:00.776Z</time></trkpt><trkpt lat="39.841245" lon="8.7132649"><ele>104.0</ele><time>2026-05-03T06:12:01.777Z</time></trkpt><trkpt lat="39.8412174" lon="8.7133387"><ele>104.0</ele><time>2026-05-03T06:12:02.778Z</time></trkpt><trkpt lat="39.8412349" lon="8.7134193"><ele>104.0</ele><time>2026-05-03T06:12:03.778Z</time></trkpt><trkpt lat="39.8412777" lon="8.7135151"><ele>103.99999999999999</ele><time>2026-05-03T06:12:04.779Z</time></trkpt><trkpt lat="39.8413313" lon="8.7136154"><ele>104.0</ele><time>2026-05-03T06:12:05.778Z</time></trkpt><trkpt lat="39.8413949" lon="8.7137118"><ele>104.6</ele><time>2026-05-03T06:12:06.778Z</time></trkpt><trkpt lat="39.8414645" lon="8.7138097"><ele>105.2</ele><time>2026-05-03T06:12:07.778Z</time></trkpt><trkpt lat="39.8415247" lon="8.7139077"><ele>105.79999999999998</ele><time>2026-05-03T06:12:08.778Z</time></trkpt><trkpt lat="39.8415828" lon="8.7140013"><ele>106.39999999999999</ele><time>2026-05-03T06:12:09.778Z</time></trkpt><trkpt lat="39.8416425" lon="8.7140924"><ele>107.0</ele><time>2026-05-03T06:12:10.778Z</time></trkpt><trkpt lat="39.8416998" lon="8.7141848"><ele>106.99999999999999</ele><time>2026-05-03T06:12:11.778Z</time></trkpt><trkpt lat="39.8417544" lon="8.7142737"><ele>107.0</ele><time>2026-05-03T06:12:12.778Z</time></trkpt><trkpt lat="39.841809" lon="8.7143675"><ele>107.0</ele><time>2026-05-03T06:12:13.778Z</time></trkpt><trkpt lat="39.8418612" lon="8.7144603"><ele>107.0</ele><time>2026-05-03T06:12:14.778Z</time></trkpt><trkpt lat="39.8419167" lon="8.7145451"><ele>106.99999999999999</ele><time>2026-05-03T06:12:15.779Z</time></trkpt><trkpt lat="39.8419747" lon="8.7146355"><ele>107.0</ele><time>2026-05-03T06:12:16.778Z</time></trkpt><trkpt lat="39.8420268" lon="8.7147354"><ele>106.8</ele><time>2026-05-03T06:12:17.776Z</time></trkpt><trkpt lat="39.8420785" lon="8.7148429"><ele>106.6</ele><time>2026-05-03T06:12:18.778Z</time></trkpt><trkpt lat="39.84214" lon="8.7149554"><ele>106.39999999999999</ele><time>2026-05-03T06:12:19.777Z</time></trkpt><trkpt lat="39.8422062" lon="8.7150679"><ele>106.19999999999999</ele><time>2026-05-03T06:12:20.779Z</time></trkpt><trkpt lat="39.8422782" lon="8.7151824"><ele>106.0</ele><time>2026-05-03T06:12:21.779Z</time></trkpt><trkpt lat="39.8423595" lon="8.715304"><ele>105.75</ele><time>2026-05-03T06:12:22.777Z</time></trkpt><trkpt lat="39.8424467" lon="8.7154378"><ele>105.5</ele><time>2026-05-03T06:12:23.779Z</time></trkpt><trkpt lat="39.8425282" lon="8.7155726"><ele>105.25</ele><time>2026-05-03T06:12:24.777Z</time></trkpt><trkpt lat="39.8426046" lon="8.7157109"><ele>105.0</ele><time>2026-05-03T06:12:25.778Z</time></trkpt><trkpt lat="39.8426758" lon="8.715834"><ele>105.0</ele><time>2026-05-03T06:12:26.779Z</time></trkpt><trkpt lat="39.8427307" lon="8.7159327"><ele>105.0</ele><time>2026-05-03T06:12:27.778Z</time></trkpt><trkpt lat="39.8427864" lon="8.7160278"><ele>105.0</ele><time>2026-05-03T06:12:28.777Z</time></trkpt><trkpt lat="39.8428508" lon="8.7161375"><ele>105.0</ele><time>2026-05-03T06:12:29.779Z</time></trkpt><trkpt lat="39.8429213" lon="8.7162576"><ele>105.0</ele><time>2026-05-03T06:12:30.777Z</time></trkpt><trkpt lat="39.8429937" lon="8.7163832"><ele>105.5</ele><time>2026-05-03T06:12:31.778Z</time></trkpt><trkpt lat="39.8430715" lon="8.7165089"><ele>106.0</ele><time>2026-05-03T06:12:32.779Z</time></trkpt><trkpt lat="39.8431563" lon="8.7166359"><ele>106.5</ele><time>2026-05-03T06:12:33.778Z</time></trkpt><trkpt lat="39.8432349" lon="8.716766"><ele>107.0</ele><time>2026-05-03T06:12:34.778Z</time></trkpt><trkpt lat="39.8433149" lon="8.7169005"><ele>106.5</ele><time>2026-05-03T06:12:35.777Z</time></trkpt><trkpt lat="39.8433983" lon="8.7170309"><ele>106.0</ele><time>2026-05-03T06:12:36.777Z</time></trkpt><trkpt lat="39.8434723" lon="8.7171547"><ele>105.5</ele><time>2026-05-03T06:12:37.778Z</time></trkpt><trkpt lat="39.8435593" lon="8.7172942"><ele>105.0</ele><time>2026-05-03T06:12:38.778Z</time></trkpt><trkpt lat="39.8436419" lon="8.7174353"><ele>105.0</ele><time>2026-05-03T06:12:39.778Z</time></trkpt><trkpt lat="39.8437246" lon="8.7175759"><ele>105.0</ele><time>2026-05-03T06:12:40.778Z</time></trkpt><trkpt lat="39.8438046" lon="8.7177173"><ele>105.0</ele><time>2026-05-03T06:12:41.779Z</time></trkpt><trkpt lat="39.8438876" lon="8.7178539"><ele>105.0</ele><time>2026-05-03T06:12:42.778Z</time></trkpt><trkpt lat="39.8439665" lon="8.7179858"><ele>105.75</ele><time>2026-05-03T06:12:43.777Z</time></trkpt><trkpt lat="39.8440455" lon="8.7181155"><ele>106.5</ele><time>2026-05-03T06:12:44.778Z</time></trkpt><trkpt lat="39.8441208" lon="8.7182455"><ele>107.25</ele><time>2026-05-03T06:12:45.778Z</time></trkpt><trkpt lat="39.8441981" lon="8.7183692"><ele>108.0</ele><time>2026-05-03T06:12:46.779Z</time></trkpt><trkpt lat="39.8442725" lon="8.7184768"><ele>108.33333333333333</ele><time>2026-05-03T06:12:47.777Z</time></trkpt><trkpt lat="39.8443186" lon="8.7185499"><ele>108.66666666666666</ele><time>2026-05-03T06:12:48.779Z</time></trkpt><trkpt lat="39.8443383" lon="8.7186372"><ele>109.0</ele><time>2026-05-03T06:12:50.779Z</time></trkpt><trkpt lat="39.8442671" lon="8.7186901"><ele>109.33333333333333</ele><time>2026-05-03T06:12:52.777Z</time></trkpt><trkpt lat="39.8441973" lon="8.7187181"><ele>109.66666666666666</ele><time>2026-05-03T06:12:53.778Z</time></trkpt><trkpt lat="39.8441192" lon="8.7187541"><ele>110.0</ele><time>2026-05-03T06:12:54.777Z</time></trkpt><trkpt lat="39.8440261" lon="8.718804"><ele>110.0</ele><time>2026-05-03T06:12:55.779Z</time></trkpt><trkpt lat="39.8439225" lon="8.7188665"><ele>110.0</ele><time>2026-05-03T06:12:56.779Z</time></trkpt><trkpt lat="39.8438144" lon="8.7189392"><ele>110.0</ele><time>2026-05-03T06:12:57.778Z</time></trkpt><trkpt lat="39.8436909" lon="8.719017"><ele>110.0</ele><time>2026-05-03T06:12:58.778Z</time></trkpt><trkpt lat="39.8435557" lon="8.7190997"><ele>111.0</ele><time>2026-05-03T06:12:59.779Z</time></trkpt><trkpt lat="39.8434182" lon="8.7191858"><ele>112.0</ele><time>2026-05-03T06:13:00.778Z</time></trkpt><trkpt lat="39.8432788" lon="8.7192697"><ele>113.0</ele><time>2026-05-03T06:13:01.779Z</time></trkpt><trkpt lat="39.8431383" lon="8.7193524"><ele>112.66666666666666</ele><time>2026-05-03T06:13:02.779Z</time></trkpt><trkpt lat="39.8429926" lon="8.7194392"><ele>112.33333333333334</ele><time>2026-05-03T06:13:03.778Z</time></trkpt><trkpt lat="39.8428442" lon="8.719525"><ele>112.0</ele><time>2026-05-03T06:13:04.776Z</time></trkpt><trkpt lat="39.842697" lon="8.7196112"><ele>113.66666666666667</ele><time>2026-05-03T06:13:05.778Z</time></trkpt><trkpt lat="39.842547" lon="8.7197017"><ele>115.33333333333334</ele><time>2026-05-03T06:13:06.776Z</time></trkpt><trkpt lat="39.8424025" lon="8.7197863"><ele>117.0</ele><time>2026-05-03T06:13:07.777Z</time></trkpt><trkpt lat="39.8422582" lon="8.7198748"><ele>117.0</ele><time>2026-05-03T06:13:08.778Z</time></trkpt><trkpt lat="39.8421121" lon="8.7199654"><ele>117.0</ele><time>2026-05-03T06:13:09.778Z</time></trkpt><trkpt lat="39.8419653" lon="8.7200582"><ele>117.0</ele><time>2026-05-03T06:13:10.779Z</time></trkpt><trkpt lat="39.8418161" lon="8.7201492"><ele>118.66666666666666</ele><time>2026-05-03T06:13:11.777Z</time></trkpt><trkpt lat="39.8416652" lon="8.7202389"><ele>120.33333333333333</ele><time>2026-05-03T06:13:12.778Z</time></trkpt><trkpt lat="39.8415134" lon="8.7203262"><ele>122.0</ele><time>2026-05-03T06:13:13.778Z</time></trkpt><trkpt lat="39.8413616" lon="8.7204205"><ele>122.0</ele><time>2026-05-03T06:13:14.777Z</time></trkpt><trkpt lat="39.8412109" lon="8.7205162"><ele>122.0</ele><time>2026-05-03T06:13:15.777Z</time></trkpt><trkpt lat="39.8410586" lon="8.720613"><ele>122.0</ele><time>2026-05-03T06:13:16.777Z</time></trkpt><trkpt lat="39.8409034" lon="8.7207096"><ele>123.33333333333333</ele><time>2026-05-03T06:13:17.779Z</time></trkpt><trkpt lat="39.8407445" lon="8.7208047"><ele>124.66666666666666</ele><time>2026-05-03T06:13:18.779Z</time></trkpt><trkpt lat="39.8405896" lon="8.7208938"><ele>126.0</ele><time>2026-05-03T06:13:19.778Z</time></trkpt><trkpt lat="39.8404377" lon="8.7209848"><ele>125.0</ele><time>2026-05-03T06:13:20.777Z</time></trkpt><trkpt lat="39.8402844" lon="8.7210764"><ele>124.0</ele><time>2026-05-03T06:13:21.777Z</time></trkpt><trkpt lat="39.8401333" lon="8.7211665"><ele>123.0</ele><time>2026-05-03T06:13:22.779Z</time></trkpt><trkpt lat="39.8399821" lon="8.7212558"><ele>123.0</ele><time>2026-05-03T06:13:23.778Z</time></trkpt><trkpt lat="39.8398303" lon="8.721344"><ele>123.0</ele><time>2026-05-03T06:13:24.779Z</time></trkpt><trkpt lat="39.8396807" lon="8.7214328"><ele>123.0</ele><time>2026-05-03T06:13:25.777Z</time></trkpt><trkpt lat="39.8395294" lon="8.7215227"><ele>123.0</ele><time>2026-05-03T06:13:26.779Z</time></trkpt><trkpt lat="39.8393776" lon="8.7216102"><ele>123.0</ele><time>2026-05-03T06:13:27.777Z</time></trkpt><trkpt lat="39.839227" lon="8.721699"><ele>123.0</ele><time>2026-05-03T06:13:28.778Z</time></trkpt><trkpt lat="39.8390763" lon="8.7217853"><ele>126.33333333333334</ele><time>2026-05-03T06:13:29.777Z</time></trkpt><trkpt lat="39.8389257" lon="8.7218742"><ele>129.66666666666669</ele><time>2026-05-03T06:13:30.778Z</time></trkpt><trkpt lat="39.8387786" lon="8.7219646"><ele>133.0</ele><time>2026-05-03T06:13:31.778Z</time></trkpt><trkpt lat="39.8386348" lon="8.72205"><ele>133.33333333333334</ele><time>2026-05-03T06:13:32.778Z</time></trkpt><trkpt lat="39.8384903" lon="8.7221376"><ele>133.66666666666666</ele><time>2026-05-03T06:13:33.776Z</time></trkpt><trkpt lat="39.8383458" lon="8.7222262"><ele>134.0</ele><time>2026-05-03T06:13:34.778Z</time></trkpt><trkpt lat="39.838203" lon="8.722317"><ele>136.33333333333331</ele><time>2026-05-03T06:13:35.778Z</time></trkpt><trkpt lat="39.838059" lon="8.7224006"><ele>138.66666666666666</ele><time>2026-05-03T06:13:36.779Z</time></trkpt><trkpt lat="39.8379181" lon="8.7224804"><ele>141.0</ele><time>2026-05-03T06:13:37.777Z</time></trkpt><trkpt lat="39.8377808" lon="8.7225624"><ele>141.0</ele><time>2026-05-03T06:13:38.779Z</time></trkpt><trkpt lat="39.8376449" lon="8.7226462"><ele>141.0</ele><time>2026-05-03T06:13:39.778Z</time></trkpt><trkpt lat="39.8375111" lon="8.7227258"><ele>141.0</ele><time>2026-05-03T06:13:40.779Z</time></trkpt><trkpt lat="39.8373836" lon="8.7227956"><ele>141.0</ele><time>2026-05-03T06:13:41.779Z</time></trkpt><trkpt lat="39.8372616" lon="8.7228617"><ele>143.0</ele><time>2026-05-03T06:13:42.777Z</time></trkpt><trkpt lat="39.8371389" lon="8.7229333"><ele>145.0</ele><time>2026-05-03T06:13:43.777Z</time></trkpt><trkpt lat="39.8370171" lon="8.723007"><ele>147.0</ele><time>2026-05-03T06:13:44.778Z</time></trkpt><trkpt lat="39.8368936" lon="8.7230871"><ele>149.0</ele><time>2026-05-03T06:13:45.778Z</time></trkpt><trkpt lat="39.8367652" lon="8.723166"><ele>150.0</ele><time>2026-05-03T06:13:46.778Z</time></trkpt><trkpt lat="39.8366381" lon="8.7232431"><ele>151.0</ele><time>2026-05-03T06:13:47.778Z</time></trkpt><trkpt lat="39.8365072" lon="8.7233165"><ele>152.0</ele><time>2026-05-03T06:13:48.777Z</time></trkpt><trkpt lat="39.8363734" lon="8.7233915"><ele>153.0</ele><time>2026-05-03T06:13:49.777Z</time></trkpt><trkpt lat="39.8362334" lon="8.7234719"><ele>153.0</ele><time>2026-05-03T06:13:50.779Z</time></trkpt><trkpt lat="39.8360963" lon="8.7235538"><ele>153.0</ele><time>2026-05-03T06:13:51.776Z</time></trkpt><trkpt lat="39.8359608" lon="8.7236404"><ele>153.0</ele><time>2026-05-03T06:13:52.778Z</time></trkpt><trkpt lat="39.8358279" lon="8.7237246"><ele>154.5</ele><time>2026-05-03T06:13:53.778Z</time></trkpt><trkpt lat="39.8356954" lon="8.723804"><ele>156.0</ele><time>2026-05-03T06:13:54.778Z</time></trkpt><trkpt lat="39.8355614" lon="8.7238841"><ele>157.5</ele><time>2026-05-03T06:13:55.778Z</time></trkpt><trkpt lat="39.8354285" lon="8.7239686"><ele>159.0</ele><time>2026-05-03T06:13:56.779Z</time></trkpt><trkpt lat="39.8352907" lon="8.7240559"><ele>159.0</ele><time>2026-05-03T06:13:57.779Z</time></trkpt><trkpt lat="39.8351535" lon="8.7241411"><ele>159.0</ele><time>2026-05-03T06:13:58.779Z</time></trkpt><trkpt lat="39.8350126" lon="8.7242254"><ele>159.0</ele><time>2026-05-03T06:13:59.778Z</time></trkpt><trkpt lat="39.8348762" lon="8.7243081"><ele>160.25</ele><time>2026-05-03T06:14:00.778Z</time></trkpt><trkpt lat="39.8347439" lon="8.7243801"><ele>161.5</ele><time>2026-05-03T06:14:01.777Z</time></trkpt><trkpt lat="39.834622" lon="8.7244561"><ele>162.75</ele><time>2026-05-03T06:14:02.777Z</time></trkpt><trkpt lat="39.8345055" lon="8.724528"><ele>164.0</ele><time>2026-05-03T06:14:03.778Z</time></trkpt><trkpt lat="39.8344076" lon="8.7245922"><ele>164.5</ele><time>2026-05-03T06:14:04.776Z</time></trkpt><trkpt lat="39.8343181" lon="8.7246667"><ele>165.0</ele><time>2026-05-03T06:14:05.776Z</time></trkpt><trkpt lat="39.8342403" lon="8.7247642"><ele>165.5</ele><time>2026-05-03T06:14:06.777Z</time></trkpt><trkpt lat="39.834167" lon="8.7248857"><ele>166.0</ele><time>2026-05-03T06:14:07.778Z</time></trkpt><trkpt lat="39.8340915" lon="8.7250254"><ele>166.25</ele><time>2026-05-03T06:14:08.777Z</time></trkpt><trkpt lat="39.8340115" lon="8.7251673"><ele>166.5</ele><time>2026-05-03T06:14:09.779Z</time></trkpt><trkpt lat="39.8339253" lon="8.72531"><ele>166.75</ele><time>2026-05-03T06:14:10.778Z</time></trkpt><trkpt lat="39.8338351" lon="8.7254537"><ele>167.0</ele><time>2026-05-03T06:14:11.777Z</time></trkpt><trkpt lat="39.8337449" lon="8.7256026"><ele>168.0</ele><time>2026-05-03T06:14:12.777Z</time></trkpt><trkpt lat="39.8336595" lon="8.7257588"><ele>169.0</ele><time>2026-05-03T06:14:13.779Z</time></trkpt><trkpt lat="39.833587" lon="8.7259222"><ele>170.0</ele><time>2026-05-03T06:14:14.777Z</time></trkpt><trkpt lat="39.8335319" lon="8.7261023"><ele>171.0</ele><time>2026-05-03T06:14:15.777Z</time></trkpt><trkpt lat="39.8334856" lon="8.7262929"><ele>170.66666666666666</ele><time>2026-05-03T06:14:16.778Z</time></trkpt><trkpt lat="39.8334423" lon="8.726484"><ele>170.33333333333331</ele><time>2026-05-03T06:14:17.778Z</time></trkpt><trkpt lat="39.8334149" lon="8.7266823"><ele>170.0</ele><time>2026-05-03T06:14:18.779Z</time></trkpt><trkpt lat="39.8334111" lon="8.7268887"><ele>170.66666666666666</ele><time>2026-05-03T06:14:19.777Z</time></trkpt><trkpt lat="39.8334191" lon="8.727093"><ele>171.33333333333334</ele><time>2026-05-03T06:14:20.778Z</time></trkpt><trkpt lat="39.8334183" lon="8.7272934"><ele>172.0</ele><time>2026-05-03T06:14:21.778Z</time></trkpt><trkpt lat="39.8333911" lon="8.7274787"><ele>172.0</ele><time>2026-05-03T06:14:22.778Z</time></trkpt><trkpt lat="39.8333372" lon="8.7276518"><ele>172.0</ele><time>2026-05-03T06:14:23.776Z</time></trkpt><trkpt lat="39.8332621" lon="8.7278243"><ele>172.0</ele><time>2026-05-03T06:14:24.777Z</time></trkpt><trkpt lat="39.833173" lon="8.7279916"><ele>173.25</ele><time>2026-05-03T06:14:25.778Z</time></trkpt><trkpt lat="39.8330879" lon="8.7281665"><ele>174.5</ele><time>2026-05-03T06:14:26.779Z</time></trkpt><trkpt lat="39.8330078" lon="8.7283361"><ele>175.75</ele><time>2026-05-03T06:14:27.778Z</time></trkpt><trkpt lat="39.8329362" lon="8.7284829"><ele>177.0</ele><time>2026-05-03T06:14:28.777Z</time></trkpt><trkpt lat="39.8328736" lon="8.7286182"><ele>179.0</ele><time>2026-05-03T06:14:29.778Z</time></trkpt><trkpt lat="39.8328694" lon="8.7287711"><ele>181.0</ele><time>2026-05-03T06:14:30.776Z</time></trkpt><trkpt lat="39.8328711" lon="8.7289229"><ele>183.0</ele><time>2026-05-03T06:14:31.777Z</time></trkpt><trkpt lat="39.8328935" lon="8.7290796"><ele>185.0</ele><time>2026-05-03T06:14:32.777Z</time></trkpt><trkpt lat="39.8329871" lon="8.7292319"><ele>185.0</ele><time>2026-05-03T06:14:33.777Z</time></trkpt><trkpt lat="39.8330396" lon="8.7293809"><ele>185.0</ele><time>2026-05-03T06:14:34.778Z</time></trkpt><trkpt lat="39.8330813" lon="8.7295659"><ele>185.0</ele><time>2026-05-03T06:14:35.779Z</time></trkpt><trkpt lat="39.8331238" lon="8.72976"><ele>185.0</ele><time>2026-05-03T06:14:36.778Z</time></trkpt><trkpt lat="39.8331803" lon="8.729967"><ele>185.75</ele><time>2026-05-03T06:14:37.778Z</time></trkpt><trkpt lat="39.833235" lon="8.7301649"><ele>186.5</ele><time>2026-05-03T06:14:38.778Z</time></trkpt><trkpt lat="39.8332805" lon="8.7303512"><ele>187.25</ele><time>2026-05-03T06:14:39.778Z</time></trkpt><trkpt lat="39.8333104" lon="8.7305032"><ele>188.0</ele><time>2026-05-03T06:14:40.778Z</time></trkpt><trkpt lat="39.8333151" lon="8.7306693"><ele>189.0</ele><time>2026-05-03T06:14:41.777Z</time></trkpt><trkpt lat="39.8333038" lon="8.7308399"><ele>190.0</ele><time>2026-05-03T06:14:42.777Z</time></trkpt><trkpt lat="39.8332749" lon="8.7310201"><ele>191.0</ele><time>2026-05-03T06:14:43.778Z</time></trkpt><trkpt lat="39.8332446" lon="8.7312038"><ele>192.0</ele><time>2026-05-03T06:14:44.778Z</time></trkpt><trkpt lat="39.8332135" lon="8.7313958"><ele>192.25</ele><time>2026-05-03T06:14:45.778Z</time></trkpt><trkpt lat="39.8331889" lon="8.7315918"><ele>192.5</ele><time>2026-05-03T06:14:46.779Z</time></trkpt><trkpt lat="39.8331643" lon="8.7317855"><ele>192.75</ele><time>2026-05-03T06:14:47.779Z</time></trkpt><trkpt lat="39.8331446" lon="8.7319664"><ele>193.0</ele><time>2026-05-03T06:14:48.78Z</time></trkpt><trkpt lat="39.8331283" lon="8.7321101"><ele>194.25</ele><time>2026-05-03T06:14:49.778Z</time></trkpt><trkpt lat="39.8330895" lon="8.7322589"><ele>195.5</ele><time>2026-05-03T06:14:50.778Z</time></trkpt><trkpt lat="39.8330238" lon="8.7324093"><ele>196.75</ele><time>2026-05-03T06:14:51.779Z</time></trkpt><trkpt lat="39.8329359" lon="8.7325516"><ele>198.0</ele><time>2026-05-03T06:14:52.777Z</time></trkpt><trkpt lat="39.8328409" lon="8.7326933"><ele>199.0</ele><time>2026-05-03T06:14:53.777Z</time></trkpt><trkpt lat="39.8327493" lon="8.732863"><ele>200.0</ele><time>2026-05-03T06:14:54.779Z</time></trkpt><trkpt lat="39.8326583" lon="8.7330401"><ele>201.0</ele><time>2026-05-03T06:14:55.777Z</time></trkpt><trkpt lat="39.8325803" lon="8.7332269"><ele>201.0</ele><time>2026-05-03T06:14:56.778Z</time></trkpt><trkpt lat="39.8324999" lon="8.7334144"><ele>201.0</ele><time>2026-05-03T06:14:57.778Z</time></trkpt><trkpt lat="39.8324225" lon="8.7335982"><ele>201.0</ele><time>2026-05-03T06:14:58.779Z</time></trkpt><trkpt lat="39.8323446" lon="8.7337872"><ele>202.33333333333331</ele><time>2026-05-03T06:14:59.779Z</time></trkpt><trkpt lat="39.8322633" lon="8.7339783"><ele>203.66666666666666</ele><time>2026-05-03T06:15:00.777Z</time></trkpt><trkpt lat="39.8321901" lon="8.7341627"><ele>205.0</ele><time>2026-05-03T06:15:01.777Z</time></trkpt><trkpt lat="39.8321139" lon="8.7343305"><ele>206.5</ele><time>2026-05-03T06:15:02.778Z</time></trkpt><trkpt lat="39.8320358" lon="8.7344828"><ele>208.0</ele><time>2026-05-03T06:15:03.776Z</time></trkpt><trkpt lat="39.8319533" lon="8.7346088"><ele>209.5</ele><time>2026-05-03T06:15:04.779Z</time></trkpt><trkpt lat="39.8318568" lon="8.7347154"><ele>211.0</ele><time>2026-05-03T06:15:05.779Z</time></trkpt><trkpt lat="39.8317505" lon="8.7348131"><ele>211.0</ele><time>2026-05-03T06:15:06.777Z</time></trkpt><trkpt lat="39.8316424" lon="8.7349414"><ele>211.0</ele><time>2026-05-03T06:15:07.776Z</time></trkpt><trkpt lat="39.8315375" lon="8.7350748"><ele>211.0</ele><time>2026-05-03T06:15:08.777Z</time></trkpt><trkpt lat="39.8314454" lon="8.735218"><ele>211.0</ele><time>2026-05-03T06:15:09.777Z</time></trkpt><trkpt lat="39.8313542" lon="8.7353586"><ele>213.25</ele><time>2026-05-03T06:15:10.778Z</time></trkpt><trkpt lat="39.8312476" lon="8.7354814"><ele>215.5</ele><time>2026-05-03T06:15:11.778Z</time></trkpt><trkpt lat="39.8311325" lon="8.7356013"><ele>217.75</ele><time>2026-05-03T06:15:12.777Z</time></trkpt><trkpt lat="39.8310136" lon="8.7357186"><ele>220.0</ele><time>2026-05-03T06:15:13.778Z</time></trkpt><trkpt lat="39.8309004" lon="8.7358508"><ele>220.0</ele><time>2026-05-03T06:15:14.778Z</time></trkpt><trkpt lat="39.8308012" lon="8.736003"><ele>220.0</ele><time>2026-05-03T06:15:15.778Z</time></trkpt><trkpt lat="39.830705" lon="8.7361575"><ele>220.0</ele><time>2026-05-03T06:15:16.779Z</time></trkpt><trkpt lat="39.8306123" lon="8.7362833"><ele>220.0</ele><time>2026-05-03T06:15:17.779Z</time></trkpt><trkpt lat="39.8305137" lon="8.7363933"><ele>221.0</ele><time>2026-05-03T06:15:18.779Z</time></trkpt><trkpt lat="39.8304096" lon="8.7364825"><ele>222.0</ele><time>2026-05-03T06:15:19.778Z</time></trkpt><trkpt lat="39.8302927" lon="8.7365616"><ele>223.0</ele><time>2026-05-03T06:15:20.777Z</time></trkpt><trkpt lat="39.8301744" lon="8.7366373"><ele>224.0</ele><time>2026-05-03T06:15:21.777Z</time></trkpt><trkpt lat="39.830059" lon="8.7366939"><ele>224.00000000000003</ele><time>2026-05-03T06:15:22.778Z</time></trkpt><trkpt lat="39.829961" lon="8.7367399"><ele>224.0</ele><time>2026-05-03T06:15:23.779Z</time></trkpt><trkpt lat="39.8298816" lon="8.7367668"><ele>224.0</ele><time>2026-05-03T06:15:24.778Z</time></trkpt><trkpt lat="39.8298068" lon="8.7368155"><ele>224.0</ele><time>2026-05-03T06:15:25.779Z</time></trkpt><trkpt lat="39.8297395" lon="8.736877"><ele>224.00000000000003</ele><time>2026-05-03T06:15:26.777Z</time></trkpt><trkpt lat="39.8296814" lon="8.7369441"><ele>224.0</ele><time>2026-05-03T06:15:27.778Z</time></trkpt><trkpt lat="39.8296277" lon="8.7370148"><ele>225.33333333333334</ele><time>2026-05-03T06:15:28.778Z</time></trkpt><trkpt lat="39.8295735" lon="8.7370985"><ele>226.66666666666669</ele><time>2026-05-03T06:15:29.778Z</time></trkpt><trkpt lat="39.8295013" lon="8.737163"><ele>228.0</ele><time>2026-05-03T06:15:30.776Z</time></trkpt><trkpt lat="39.8294201" lon="8.7372294"><ele>229.33333333333331</ele><time>2026-05-03T06:15:31.779Z</time></trkpt><trkpt lat="39.8293441" lon="8.7372552"><ele>230.66666666666666</ele><time>2026-05-03T06:15:32.777Z</time></trkpt><trkpt lat="39.8292624" lon="8.7372773"><ele>232.0</ele><time>2026-05-03T06:15:33.778Z</time></trkpt><trkpt lat="39.82917" lon="8.7372929"><ele>232.0</ele><time>2026-05-03T06:15:34.778Z</time></trkpt><trkpt lat="39.8290891" lon="8.7373154"><ele>232.0</ele><time>2026-05-03T06:15:35.776Z</time></trkpt><trkpt lat="39.8290164" lon="8.7373422"><ele>232.0</ele><time>2026-05-03T06:15:36.778Z</time></trkpt><trkpt lat="39.8289495" lon="8.7373696"><ele>232.0</ele><time>2026-05-03T06:15:37.778Z</time></trkpt><trkpt lat="39.8288553" lon="8.7373337"><ele>232.0</ele><time>2026-05-03T06:15:39.779Z</time></trkpt><trkpt lat="39.8287459" lon="8.7372563"><ele>232.0</ele><time>2026-05-03T06:15:41.778Z</time></trkpt><trkpt lat="39.8286532" lon="8.7371856"><ele>232.0</ele><time>2026-05-03T06:15:42.778Z</time></trkpt><trkpt lat="39.828556" lon="8.7371149"><ele>232.0</ele><time>2026-05-03T06:15:43.778Z</time></trkpt><trkpt lat="39.8284605" lon="8.7370505"><ele>232.0</ele><time>2026-05-03T06:15:44.779Z</time></trkpt><trkpt lat="39.8283655" lon="8.7369885"><ele>232.0</ele><time>2026-05-03T06:15:45.778Z</time></trkpt><trkpt lat="39.8282751" lon="8.736939"><ele>232.8</ele><time>2026-05-03T06:15:46.776Z</time></trkpt><trkpt lat="39.8281687" lon="8.7368712"><ele>233.6</ele><time>2026-05-03T06:15:47.778Z</time></trkpt><trkpt lat="39.8280814" lon="8.736814"><ele>234.40000000000003</ele><time>2026-05-03T06:15:48.778Z</time></trkpt><trkpt lat="39.8279758" lon="8.7367804"><ele>235.20000000000002</ele><time>2026-05-03T06:15:49.779Z</time></trkpt><trkpt lat="39.8278864" lon="8.7367698"><ele>236.0</ele><time>2026-05-03T06:15:50.776Z</time></trkpt><trkpt lat="39.8278003" lon="8.736786"><ele>236.00000000000003</ele><time>2026-05-03T06:15:51.779Z</time></trkpt><trkpt lat="39.8277254" lon="8.7368176"><ele>236.0</ele><time>2026-05-03T06:15:52.778Z</time></trkpt><trkpt lat="39.8276543" lon="8.7368865"><ele>236.0</ele><time>2026-05-03T06:15:53.778Z</time></trkpt><trkpt lat="39.8275759" lon="8.7369409"><ele>236.0</ele><time>2026-05-03T06:15:54.777Z</time></trkpt><trkpt lat="39.8274962" lon="8.7370044"><ele>236.00000000000003</ele><time>2026-05-03T06:15:55.778Z</time></trkpt><trkpt lat="39.8274108" lon="8.7370603"><ele>236.0</ele><time>2026-05-03T06:15:56.778Z</time></trkpt><trkpt lat="39.8273227" lon="8.7371277"><ele>238.20000000000002</ele><time>2026-05-03T06:15:57.777Z</time></trkpt><trkpt lat="39.8272404" lon="8.7371971"><ele>240.40000000000003</ele><time>2026-05-03T06:15:58.778Z</time></trkpt><trkpt lat="39.8271625" lon="8.7372748"><ele>242.6</ele><time>2026-05-03T06:15:59.779Z</time></trkpt><trkpt lat="39.8270838" lon="8.7373737"><ele>244.8</ele><time>2026-05-03T06:16:00.778Z</time></trkpt><trkpt lat="39.8270094" lon="8.7374747"><ele>247.0</ele><time>2026-05-03T06:16:01.777Z</time></trkpt><trkpt lat="39.8269464" lon="8.7375511"><ele>247.0</ele><time>2026-05-03T06:16:02.778Z</time></trkpt><trkpt lat="39.8268774" lon="8.7376148"><ele>247.0</ele><time>2026-05-03T06:16:03.778Z</time></trkpt><trkpt lat="39.8268064" lon="8.7376741"><ele>247.0</ele><time>2026-05-03T06:16:04.777Z</time></trkpt><trkpt lat="39.8267071" lon="8.7377467"><ele>247.0</ele><time>2026-05-03T06:16:05.777Z</time></trkpt><trkpt lat="39.8266198" lon="8.7378041"><ele>247.0</ele><time>2026-05-03T06:16:06.779Z</time></trkpt><trkpt lat="39.8265314" lon="8.7378627"><ele>248.2</ele><time>2026-05-03T06:16:07.777Z</time></trkpt><trkpt lat="39.8264517" lon="8.7379187"><ele>249.39999999999998</ele><time>2026-05-03T06:16:08.778Z</time></trkpt><trkpt lat="39.8263723" lon="8.7379757"><ele>250.60000000000002</ele><time>2026-05-03T06:16:09.778Z</time></trkpt><trkpt lat="39.8262917" lon="8.7380448"><ele>251.8</ele><time>2026-05-03T06:16:10.779Z</time></trkpt><trkpt lat="39.8262094" lon="8.7380973"><ele>253.0</ele><time>2026-05-03T06:16:11.777Z</time></trkpt><trkpt lat="39.8261278" lon="8.7381431"><ele>253.0</ele><time>2026-05-03T06:16:12.779Z</time></trkpt><trkpt lat="39.8260388" lon="8.7381671"><ele>253.0</ele><time>2026-05-03T06:16:13.777Z</time></trkpt><trkpt lat="39.82595" lon="8.7381884"><ele>253.0</ele><time>2026-05-03T06:16:14.777Z</time></trkpt><trkpt lat="39.8258416" lon="8.7381859"><ele>253.0</ele><time>2026-05-03T06:16:15.779Z</time></trkpt><trkpt lat="39.8257279" lon="8.7381818"><ele>253.0</ele><time>2026-05-03T06:16:16.777Z</time></trkpt><trkpt lat="39.825625" lon="8.7381928"><ele>251.8</ele><time>2026-05-03T06:16:17.778Z</time></trkpt><trkpt lat="39.8255168" lon="8.7382071"><ele>250.60000000000002</ele><time>2026-05-03T06:16:18.778Z</time></trkpt><trkpt lat="39.8254531" lon="8.738238"><ele>249.39999999999998</ele><time>2026-05-03T06:16:19.778Z</time></trkpt><trkpt lat="39.825374" lon="8.738344"><ele>248.2</ele><time>2026-05-03T06:16:21.778Z</time></trkpt><trkpt lat="39.8253264" lon="8.7384872"><ele>247.0</ele><time>2026-05-03T06:16:23.778Z</time></trkpt><trkpt lat="39.8252719" lon="8.7386246"><ele>248.8</ele><time>2026-05-03T06:16:25.777Z</time></trkpt><trkpt lat="39.8252517" lon="8.7387655"><ele>250.6</ele><time>2026-05-03T06:16:27.778Z</time></trkpt><trkpt lat="39.8252417" lon="8.7388813"><ele>252.40000000000003</ele><time>2026-05-03T06:16:29.778Z</time></trkpt><trkpt lat="39.8252037" lon="8.7389495"><ele>254.20000000000002</ele><time>2026-05-03T06:16:32.778Z</time></trkpt><trkpt lat="39.8251174" lon="8.7390174"><ele>256.0</ele><time>2026-05-03T06:16:42.778Z</time></trkpt><trkpt lat="39.8250138" lon="8.739039"><ele>256.0</ele><time>2026-05-03T06:16:44.778Z</time></trkpt><trkpt lat="39.824918" lon="8.7391235"><ele>256.0</ele><time>2026-05-03T06:16:46.776Z</time></trkpt><trkpt lat="39.8248324" lon="8.7392199"><ele>256.0</ele><time>2026-05-03T06:16:48.778Z</time></trkpt><trkpt lat="39.8247068" lon="8.7392818"><ele>256.0</ele><time>2026-05-03T06:16:50.778Z</time></trkpt><trkpt lat="39.8246312" lon="8.7393083"><ele>256.0</ele><time>2026-05-03T06:16:51.777Z</time></trkpt><trkpt lat="39.824555" lon="8.7393319"><ele>256.0</ele><time>2026-05-03T06:16:52.776Z</time></trkpt><trkpt lat="39.8244688" lon="8.7393685"><ele>256.0</ele><time>2026-05-03T06:16:53.779Z</time></trkpt><trkpt lat="39.8243841" lon="8.7394053"><ele>256.0</ele><time>2026-05-03T06:16:54.777Z</time></trkpt><trkpt lat="39.8242974" lon="8.7394393"><ele>256.0</ele><time>2026-05-03T06:16:55.779Z</time></trkpt><trkpt lat="39.8242002" lon="8.7394692"><ele>256.0</ele><time>2026-05-03T06:16:56.777Z</time></trkpt><trkpt lat="39.8241027" lon="8.7394991"><ele>260.2</ele><time>2026-05-03T06:16:57.779Z</time></trkpt><trkpt lat="39.8240061" lon="8.7395332"><ele>264.40000000000003</ele><time>2026-05-03T06:16:58.779Z</time></trkpt><trkpt lat="39.8239135" lon="8.7395566"><ele>268.6</ele><time>2026-05-03T06:16:59.779Z</time></trkpt><trkpt lat="39.8238224" lon="8.7395884"><ele>272.8</ele><time>2026-05-03T06:17:00.778Z</time></trkpt><trkpt lat="39.8237361" lon="8.7396363"><ele>277.0</ele><time>2026-05-03T06:17:01.778Z</time></trkpt><trkpt lat="39.8236524" lon="8.7396918"><ele>277.0</ele><time>2026-05-03T06:17:02.778Z</time></trkpt><trkpt lat="39.8235672" lon="8.7397581"><ele>277.0</ele><time>2026-05-03T06:17:03.778Z</time></trkpt><trkpt lat="39.8234816" lon="8.7398179"><ele>277.0</ele><time>2026-05-03T06:17:04.777Z</time></trkpt><trkpt lat="39.8234081" lon="8.7398838"><ele>277.0</ele><time>2026-05-03T06:17:05.778Z</time></trkpt><trkpt lat="39.8233407" lon="8.7399573"><ele>277.0</ele><time>2026-05-03T06:17:06.778Z</time></trkpt><trkpt lat="39.8232776" lon="8.7400404"><ele>276.8333333333333</ele><time>2026-05-03T06:17:07.777Z</time></trkpt><trkpt lat="39.8232284" lon="8.7401248"><ele>276.66666666666663</ele><time>2026-05-03T06:17:08.778Z</time></trkpt><trkpt lat="39.8231794" lon="8.7401984"><ele>276.5</ele><time>2026-05-03T06:17:09.777Z</time></trkpt><trkpt lat="39.8231195" lon="8.7402724"><ele>276.3333333333333</ele><time>2026-05-03T06:17:10.776Z</time></trkpt><trkpt lat="39.8230512" lon="8.7403374"><ele>276.1666666666667</ele><time>2026-05-03T06:17:11.778Z</time></trkpt><trkpt lat="39.8229793" lon="8.7404027"><ele>276.0</ele><time>2026-05-03T06:17:12.779Z</time></trkpt><trkpt lat="39.8229003" lon="8.7404668"><ele>278.8</ele><time>2026-05-03T06:17:13.778Z</time></trkpt><trkpt lat="39.8228265" lon="8.7405374"><ele>281.6</ele><time>2026-05-03T06:17:14.779Z</time></trkpt><trkpt lat="39.8227596" lon="8.7406195"><ele>284.4</ele><time>2026-05-03T06:17:15.778Z</time></trkpt><trkpt lat="39.8226991" lon="8.7407102"><ele>287.2</ele><time>2026-05-03T06:17:16.777Z</time></trkpt><trkpt lat="39.8226492" lon="8.7408079"><ele>290.0</ele><time>2026-05-03T06:17:17.777Z</time></trkpt><trkpt lat="39.8225981" lon="8.7408962"><ele>290.0</ele><time>2026-05-03T06:17:18.777Z</time></trkpt><trkpt lat="39.8225334" lon="8.7409656"><ele>290.0</ele><time>2026-05-03T06:17:19.777Z</time></trkpt><trkpt lat="39.822462" lon="8.7410264"><ele>290.0</ele><time>2026-05-03T06:17:20.778Z</time></trkpt><trkpt lat="39.8223843" lon="8.7410806"><ele>290.0</ele><time>2026-05-03T06:17:21.777Z</time></trkpt><trkpt lat="39.8222975" lon="8.7411174"><ele>290.0</ele><time>2026-05-03T06:17:22.779Z</time></trkpt><trkpt lat="39.8222056" lon="8.7411421"><ele>290.0</ele><time>2026-05-03T06:17:23.778Z</time></trkpt><trkpt lat="39.8221027" lon="8.7411684"><ele>292.4</ele><time>2026-05-03T06:17:24.779Z</time></trkpt><trkpt lat="39.8220018" lon="8.7412073"><ele>294.8</ele><time>2026-05-03T06:17:25.779Z</time></trkpt><trkpt lat="39.8218882" lon="8.7412375"><ele>297.2</ele><time>2026-05-03T06:17:26.778Z</time></trkpt><trkpt lat="39.821785" lon="8.7412601"><ele>299.6</ele><time>2026-05-03T06:17:27.778Z</time></trkpt><trkpt lat="39.82167" lon="8.7412792"><ele>302.0</ele><time>2026-05-03T06:17:28.777Z</time></trkpt><trkpt lat="39.8215604" lon="8.7413041"><ele>302.0</ele><time>2026-05-03T06:17:29.777Z</time></trkpt><trkpt lat="39.8214559" lon="8.7413259"><ele>302.0</ele><time>2026-05-03T06:17:30.778Z</time></trkpt><trkpt lat="39.821347" lon="8.7413345"><ele>302.0</ele><time>2026-05-03T06:17:31.779Z</time></trkpt><trkpt lat="39.8212322" lon="8.7413406"><ele>302.0</ele><time>2026-05-03T06:17:32.777Z</time></trkpt><trkpt lat="39.821123" lon="8.7413395"><ele>302.0</ele><time>2026-05-03T06:17:33.778Z</time></trkpt><trkpt lat="39.8210092" lon="8.74133"><ele>303.2</ele><time>2026-05-03T06:17:34.776Z</time></trkpt><trkpt lat="39.8209035" lon="8.7413106"><ele>304.4</ele><time>2026-05-03T06:17:35.778Z</time></trkpt><trkpt lat="39.8208155" lon="8.7412555"><ele>305.6</ele><time>2026-05-03T06:17:36.777Z</time></trkpt><trkpt lat="39.8207256" lon="8.7411947"><ele>306.8</ele><time>2026-05-03T06:17:37.777Z</time></trkpt><trkpt lat="39.8206487" lon="8.7411415"><ele>308.0</ele><time>2026-05-03T06:17:38.776Z</time></trkpt><trkpt lat="39.8205733" lon="8.7411534"><ele>308.0</ele><time>2026-05-03T06:17:39.778Z</time></trkpt><trkpt lat="39.8204895" lon="8.7411811"><ele>308.0</ele><time>2026-05-03T06:17:40.776Z</time></trkpt><trkpt lat="39.8204166" lon="8.7412328"><ele>308.0</ele><time>2026-05-03T06:17:41.779Z</time></trkpt><trkpt lat="39.8203403" lon="8.741288"><ele>308.0</ele><time>2026-05-03T06:17:42.777Z</time></trkpt><trkpt lat="39.8202753" lon="8.7413214"><ele>308.0</ele><time>2026-05-03T06:17:43.778Z</time></trkpt><trkpt lat="39.8201909" lon="8.741332"><ele>308.0</ele><time>2026-05-03T06:17:44.777Z</time></trkpt><trkpt lat="39.8201118" lon="8.7413482"><ele>309.0</ele><time>2026-05-03T06:17:45.778Z</time></trkpt><trkpt lat="39.8200165" lon="8.7413608"><ele>310.0</ele><time>2026-05-03T06:17:46.777Z</time></trkpt><trkpt lat="39.8199203" lon="8.7413903"><ele>311.0</ele><time>2026-05-03T06:17:47.776Z</time></trkpt><trkpt lat="39.81981" lon="8.7414234"><ele>312.0</ele><time>2026-05-03T06:17:48.778Z</time></trkpt><trkpt lat="39.8197071" lon="8.7414577"><ele>313.0</ele><time>2026-05-03T06:17:49.779Z</time></trkpt><trkpt lat="39.8196076" lon="8.7414837"><ele>313.0</ele><time>2026-05-03T06:17:50.777Z</time></trkpt><trkpt lat="39.819537" lon="8.7415304"><ele>313.0</ele><time>2026-05-03T06:17:51.777Z</time></trkpt><trkpt lat="39.8194704" lon="8.741595"><ele>313.0</ele><time>2026-05-03T06:17:52.778Z</time></trkpt><trkpt lat="39.8193896" lon="8.7416695"><ele>313.0</ele><time>2026-05-03T06:17:53.777Z</time></trkpt><trkpt lat="39.8193051" lon="8.7417274"><ele>313.0</ele><time>2026-05-03T06:17:54.776Z</time></trkpt><trkpt lat="39.8192278" lon="8.7418017"><ele>315.8</ele><time>2026-05-03T06:17:55.777Z</time></trkpt><trkpt lat="39.8191563" lon="8.7418692"><ele>318.6</ele><time>2026-05-03T06:17:56.778Z</time></trkpt><trkpt lat="39.8190917" lon="8.7419127"><ele>321.40000000000003</ele><time>2026-05-03T06:17:57.778Z</time></trkpt><trkpt lat="39.8189521" lon="8.741897"><ele>324.20000000000005</ele><time>2026-05-03T06:17:59.778Z</time></trkpt><trkpt lat="39.8188618" lon="8.7418655"><ele>327.0</ele><time>2026-05-03T06:18:00.778Z</time></trkpt><trkpt lat="39.818765" lon="8.7418266"><ele>327.0</ele><time>2026-05-03T06:18:01.778Z</time></trkpt><trkpt lat="39.8186634" lon="8.7417926"><ele>327.0</ele><time>2026-05-03T06:18:02.777Z</time></trkpt><trkpt lat="39.8185711" lon="8.7417473"><ele>327.0</ele><time>2026-05-03T06:18:03.778Z</time></trkpt><trkpt lat="39.8184785" lon="8.7416723"><ele>327.0</ele><time>2026-05-03T06:18:04.776Z</time></trkpt><trkpt lat="39.8183842" lon="8.7415903"><ele>327.0</ele><time>2026-05-03T06:18:05.777Z</time></trkpt><trkpt lat="39.8182846" lon="8.7415027"><ele>330.25</ele><time>2026-05-03T06:18:06.777Z</time></trkpt><trkpt lat="39.8181886" lon="8.7414177"><ele>333.5</ele><time>2026-05-03T06:18:07.778Z</time></trkpt><trkpt lat="39.8181015" lon="8.74132"><ele>336.75</ele><time>2026-05-03T06:18:08.777Z</time></trkpt><trkpt lat="39.8180118" lon="8.7412264"><ele>340.0</ele><time>2026-05-03T06:18:09.777Z</time></trkpt><trkpt lat="39.8179124" lon="8.7411326"><ele>342.8</ele><time>2026-05-03T06:18:10.778Z</time></trkpt><trkpt lat="39.8178259" lon="8.7410459"><ele>345.6</ele><time>2026-05-03T06:18:11.778Z</time></trkpt><trkpt lat="39.8177403" lon="8.7409654"><ele>348.4</ele><time>2026-05-03T06:18:12.777Z</time></trkpt><trkpt lat="39.8176582" lon="8.7409503"><ele>351.2</ele><time>2026-05-03T06:18:13.778Z</time></trkpt><trkpt lat="39.8175692" lon="8.7409461"><ele>354.0</ele><time>2026-05-03T06:18:14.777Z</time></trkpt><trkpt lat="39.8174792" lon="8.7409601"><ele>354.79999999999995</ele><time>2026-05-03T06:18:15.778Z</time></trkpt><trkpt lat="39.8173851" lon="8.7409903"><ele>355.59999999999997</ele><time>2026-05-03T06:18:16.777Z</time></trkpt><trkpt lat="39.817307" lon="8.7410637"><ele>356.4</ele><time>2026-05-03T06:18:17.778Z</time></trkpt><trkpt lat="39.817231" lon="8.7411162"><ele>357.2</ele><time>2026-05-03T06:18:18.779Z</time></trkpt><trkpt lat="39.8171409" lon="8.7411706"><ele>358.0</ele><time>2026-05-03T06:18:19.777Z</time></trkpt><trkpt lat="39.8170281" lon="8.7411903"><ele>358.0</ele><time>2026-05-03T06:18:20.778Z</time></trkpt><trkpt lat="39.8169161" lon="8.7412258"><ele>358.0</ele><time>2026-05-03T06:18:21.778Z</time></trkpt><trkpt lat="39.816816" lon="8.7412394"><ele>358.0</ele><time>2026-05-03T06:18:22.778Z</time></trkpt><trkpt lat="39.8167057" lon="8.7412386"><ele>358.0</ele><time>2026-05-03T06:18:23.778Z</time></trkpt><trkpt lat="39.8165995" lon="8.7412392"><ele>358.0</ele><time>2026-05-03T06:18:24.778Z</time></trkpt><trkpt lat="39.8165109" lon="8.7412369"><ele>360.3333333333333</ele><time>2026-05-03T06:18:25.778Z</time></trkpt><trkpt lat="39.8164263" lon="8.7412369"><ele>362.66666666666663</ele><time>2026-05-03T06:18:26.777Z</time></trkpt><trkpt lat="39.8163601" lon="8.7412845"><ele>365.0</ele><time>2026-05-03T06:18:27.777Z</time></trkpt><trkpt lat="39.8162842" lon="8.7413279"><ele>367.3333333333333</ele><time>2026-05-03T06:18:28.777Z</time></trkpt><trkpt lat="39.8162103" lon="8.7413601"><ele>369.6666666666667</ele><time>2026-05-03T06:18:29.777Z</time></trkpt><trkpt lat="39.8161274" lon="8.741372"><ele>372.0</ele><time>2026-05-03T06:18:30.778Z</time></trkpt><trkpt lat="39.8160275" lon="8.7413845"><ele>375.25</ele><time>2026-05-03T06:18:31.777Z</time></trkpt><trkpt lat="39.8159232" lon="8.741408"><ele>378.5</ele><time>2026-05-03T06:18:32.778Z</time></trkpt><trkpt lat="39.8158113" lon="8.7414239"><ele>381.75</ele><time>2026-05-03T06:18:33.778Z</time></trkpt><trkpt lat="39.8156898" lon="8.7414433"><ele>385.0</ele><time>2026-05-03T06:18:34.778Z</time></trkpt><trkpt lat="39.8155724" lon="8.7414509"><ele>385.0</ele><time>2026-05-03T06:18:35.779Z</time></trkpt><trkpt lat="39.8154609" lon="8.7414431"><ele>385.0</ele><time>2026-05-03T06:18:36.778Z</time></trkpt><trkpt lat="39.8153598" lon="8.7414047"><ele>385.0</ele><time>2026-05-03T06:18:37.779Z</time></trkpt><trkpt lat="39.8152629" lon="8.7413387"><ele>385.0</ele><time>2026-05-03T06:18:38.777Z</time></trkpt><trkpt lat="39.8151777" lon="8.7412662"><ele>385.0</ele><time>2026-05-03T06:18:39.777Z</time></trkpt><trkpt lat="39.8150875" lon="8.7412346"><ele>387.0</ele><time>2026-05-03T06:18:40.777Z</time></trkpt><trkpt lat="39.8149884" lon="8.7412529"><ele>389.0</ele><time>2026-05-03T06:18:41.779Z</time></trkpt><trkpt lat="39.8148929" lon="8.7412847"><ele>391.0</ele><time>2026-05-03T06:18:42.776Z</time></trkpt><trkpt lat="39.8147997" lon="8.7413088"><ele>393.0</ele><time>2026-05-03T06:18:43.777Z</time></trkpt><trkpt lat="39.8147107" lon="8.7413342"><ele>395.0</ele><time>2026-05-03T06:18:44.777Z</time></trkpt><trkpt lat="39.8146265" lon="8.7413694"><ele>394.99999999999994</ele><time>2026-05-03T06:18:45.778Z</time></trkpt><trkpt lat="39.8145521" lon="8.7414118"><ele>395.0</ele><time>2026-05-03T06:18:46.779Z</time></trkpt><trkpt lat="39.8144849" lon="8.7414507"><ele>395.0</ele><time>2026-05-03T06:18:47.777Z</time></trkpt><trkpt lat="39.8144204" lon="8.7414851"><ele>395.0</ele><time>2026-05-03T06:18:48.778Z</time></trkpt><trkpt lat="39.8143462" lon="8.741604"><ele>394.99999999999994</ele><time>2026-05-03T06:18:50.778Z</time></trkpt><trkpt lat="39.8143364" lon="8.7416891"><ele>395.0</ele><time>2026-05-03T06:18:51.779Z</time></trkpt><trkpt lat="39.8143445" lon="8.7417958"><ele>397.8</ele><time>2026-05-03T06:18:52.776Z</time></trkpt><trkpt lat="39.8143375" lon="8.7419163"><ele>400.6</ele><time>2026-05-03T06:18:53.778Z</time></trkpt><trkpt lat="39.8143132" lon="8.7420391"><ele>403.4</ele><time>2026-05-03T06:18:54.777Z</time></trkpt><trkpt lat="39.8142993" lon="8.7421534"><ele>406.2</ele><time>2026-05-03T06:18:55.778Z</time></trkpt><trkpt lat="39.8142686" lon="8.7422645"><ele>409.0</ele><time>2026-05-03T06:18:56.778Z</time></trkpt><trkpt lat="39.8142075" lon="8.7423734"><ele>410.0</ele><time>2026-05-03T06:18:57.778Z</time></trkpt><trkpt lat="39.8141377" lon="8.7424796"><ele>411.0</ele><time>2026-05-03T06:18:58.777Z</time></trkpt><trkpt lat="39.8140642" lon="8.7425832"><ele>412.0</ele><time>2026-05-03T06:18:59.776Z</time></trkpt><trkpt lat="39.8139816" lon="8.7426798"><ele>413.0</ele><time>2026-05-03T06:19:00.779Z</time></trkpt><trkpt lat="39.8139031" lon="8.7427722"><ele>414.0</ele><time>2026-05-03T06:19:01.778Z</time></trkpt><trkpt lat="39.8138216" lon="8.7428639"><ele>416.2</ele><time>2026-05-03T06:19:02.779Z</time></trkpt><trkpt lat="39.8137379" lon="8.7429446"><ele>418.4</ele><time>2026-05-03T06:19:03.778Z</time></trkpt><trkpt lat="39.8136606" lon="8.7430191"><ele>420.6</ele><time>2026-05-03T06:19:04.777Z</time></trkpt><trkpt lat="39.8135927" lon="8.7431106"><ele>422.8</ele><time>2026-05-03T06:19:05.777Z</time></trkpt><trkpt lat="39.8135296" lon="8.7431987"><ele>425.0</ele><time>2026-05-03T06:19:06.777Z</time></trkpt><trkpt lat="39.8134852" lon="8.7432961"><ele>425.0</ele><time>2026-05-03T06:19:07.777Z</time></trkpt><trkpt lat="39.8134896" lon="8.7434427"><ele>425.0</ele><time>2026-05-03T06:19:09.777Z</time></trkpt><trkpt lat="39.8134863" lon="8.7435424"><ele>425.0</ele><time>2026-05-03T06:19:10.777Z</time></trkpt><trkpt lat="39.8135116" lon="8.7436454"><ele>425.0</ele><time>2026-05-03T06:19:11.777Z</time></trkpt><trkpt lat="39.8135408" lon="8.7437782"><ele>425.0</ele><time>2026-05-03T06:19:12.778Z</time></trkpt><trkpt lat="39.8135563" lon="8.7439224"><ele>429.0</ele><time>2026-05-03T06:19:13.779Z</time></trkpt><trkpt lat="39.8135549" lon="8.7440486"><ele>433.0</ele><time>2026-05-03T06:19:14.777Z</time></trkpt><trkpt lat="39.8135472" lon="8.7441675"><ele>437.0</ele><time>2026-05-03T06:19:15.778Z</time></trkpt><trkpt lat="39.8135274" lon="8.7442957"><ele>441.0</ele><time>2026-05-03T06:19:16.778Z</time></trkpt><trkpt lat="39.8135101" lon="8.7444284"><ele>445.0</ele><time>2026-05-03T06:19:17.776Z</time></trkpt><trkpt lat="39.8135109" lon="8.744539"><ele>445.6</ele><time>2026-05-03T06:19:18.777Z</time></trkpt><trkpt lat="39.8135091" lon="8.7446611"><ele>446.2</ele><time>2026-05-03T06:19:19.778Z</time></trkpt><trkpt lat="39.8134894" lon="8.7447704"><ele>446.79999999999995</ele><time>2026-05-03T06:19:20.777Z</time></trkpt><trkpt lat="39.8134462" lon="8.7448673"><ele>447.4</ele><time>2026-05-03T06:19:21.777Z</time></trkpt><trkpt lat="39.8133975" lon="8.7449617"><ele>448.0</ele><time>2026-05-03T06:19:22.778Z</time></trkpt><trkpt lat="39.813351" lon="8.7450719"><ele>448.0</ele><time>2026-05-03T06:19:23.779Z</time></trkpt><trkpt lat="39.8133031" lon="8.7451926"><ele>447.99999999999994</ele><time>2026-05-03T06:19:24.778Z</time></trkpt><trkpt lat="39.8132592" lon="8.745324"><ele>447.99999999999994</ele><time>2026-05-03T06:19:25.777Z</time></trkpt><trkpt lat="39.8132378" lon="8.7454566"><ele>448.0</ele><time>2026-05-03T06:19:26.777Z</time></trkpt><trkpt lat="39.8132185" lon="8.7455921"><ele>448.0</ele><time>2026-05-03T06:19:27.779Z</time></trkpt><trkpt lat="39.813182" lon="8.7457021"><ele>450.50000000000006</ele><time>2026-05-03T06:19:28.779Z</time></trkpt><trkpt lat="39.8131322" lon="8.745799"><ele>453.0</ele><time>2026-05-03T06:19:29.777Z</time></trkpt><trkpt lat="39.8130609" lon="8.7458623"><ele>455.5</ele><time>2026-05-03T06:19:30.777Z</time></trkpt><trkpt lat="39.8129998" lon="8.7459049"><ele>458.0</ele><time>2026-05-03T06:19:31.777Z</time></trkpt><trkpt lat="39.8129327" lon="8.7459839"><ele>460.50000000000006</ele><time>2026-05-03T06:19:33.777Z</time></trkpt><trkpt lat="39.8129636" lon="8.7460819"><ele>463.0</ele><time>2026-05-03T06:19:35.777Z</time></trkpt><trkpt lat="39.8130199" lon="8.7461337"><ele>464.50000000000006</ele><time>2026-05-03T06:19:36.777Z</time></trkpt><trkpt lat="39.813092" lon="8.7461824"><ele>466.0</ele><time>2026-05-03T06:19:37.778Z</time></trkpt><trkpt lat="39.8131729" lon="8.7462177"><ele>467.5</ele><time>2026-05-03T06:19:38.778Z</time></trkpt><trkpt lat="39.8132377" lon="8.7462311"><ele>469.0</ele><time>2026-05-03T06:19:39.779Z</time></trkpt><trkpt lat="39.8133447" lon="8.7462765"><ele>470.50000000000006</ele><time>2026-05-03T06:19:41.778Z</time></trkpt><trkpt lat="39.8133833" lon="8.7463448"><ele>472.0</ele><time>2026-05-03T06:19:42.78Z</time></trkpt><trkpt lat="39.8134201" lon="8.7465304"><ele>472.00000000000006</ele><time>2026-05-03T06:19:44.777Z</time></trkpt><trkpt lat="39.8134277" lon="8.7466486"><ele>472.0</ele><time>2026-05-03T06:19:45.777Z</time></trkpt><trkpt lat="39.8134582" lon="8.7467635"><ele>472.0</ele><time>2026-05-03T06:19:46.777Z</time></trkpt><trkpt lat="39.8134899" lon="8.7468463"><ele>472.0</ele><time>2026-05-03T06:19:47.778Z</time></trkpt><trkpt lat="39.8135269" lon="8.7469186"><ele>472.00000000000006</ele><time>2026-05-03T06:19:48.776Z</time></trkpt><trkpt lat="39.813582" lon="8.7469945"><ele>472.0</ele><time>2026-05-03T06:19:49.778Z</time></trkpt><trkpt lat="39.8136284" lon="8.7470745"><ele>473.20000000000005</ele><time>2026-05-03T06:19:50.778Z</time></trkpt><trkpt lat="39.8136787" lon="8.747169"><ele>474.40000000000003</ele><time>2026-05-03T06:19:51.777Z</time></trkpt><trkpt lat="39.8137288" lon="8.7472735"><ele>475.59999999999997</ele><time>2026-05-03T06:19:52.777Z</time></trkpt><trkpt lat="39.8137732" lon="8.7473705"><ele>476.79999999999995</ele><time>2026-05-03T06:19:53.778Z</time></trkpt><trkpt lat="39.8138216" lon="8.7474767"><ele>478.0</ele><time>2026-05-03T06:19:54.778Z</time></trkpt><trkpt lat="39.813871" lon="8.7475764"><ele>478.00000000000006</ele><time>2026-05-03T06:19:55.779Z</time></trkpt><trkpt lat="39.8138833" lon="8.7476871"><ele>478.0</ele><time>2026-05-03T06:19:56.777Z</time></trkpt><trkpt lat="39.8138956" lon="8.747783"><ele>478.0</ele><time>2026-05-03T06:19:57.778Z</time></trkpt><trkpt lat="39.8138935" lon="8.7478867"><ele>478.0</ele><time>2026-05-03T06:19:58.777Z</time></trkpt><trkpt lat="39.8138544" lon="8.7479883"><ele>478.00000000000006</ele><time>2026-05-03T06:19:59.778Z</time></trkpt><trkpt lat="39.8138333" lon="8.7480932"><ele>478.0</ele><time>2026-05-03T06:20:00.777Z</time></trkpt><trkpt lat="39.8138307" lon="8.7482007"><ele>479.2</ele><time>2026-05-03T06:20:01.778Z</time></trkpt><trkpt lat="39.813837" lon="8.7483184"><ele>480.4</ele><time>2026-05-03T06:20:02.777Z</time></trkpt><trkpt lat="39.8138493" lon="8.7484402"><ele>481.59999999999997</ele><time>2026-05-03T06:20:03.777Z</time></trkpt><trkpt lat="39.8138528" lon="8.7485611"><ele>482.79999999999995</ele><time>2026-05-03T06:20:04.779Z</time></trkpt><trkpt lat="39.8138455" lon="8.7486796"><ele>484.0</ele><time>2026-05-03T06:20:05.778Z</time></trkpt><trkpt lat="39.8138247" lon="8.7487951"><ele>485.83333333333337</ele><time>2026-05-03T06:20:06.778Z</time></trkpt><trkpt lat="39.8137891" lon="8.7489034"><ele>487.6666666666667</ele><time>2026-05-03T06:20:07.778Z</time></trkpt><trkpt lat="39.8137648" lon="8.7490136"><ele>489.5</ele><time>2026-05-03T06:20:08.779Z</time></trkpt><trkpt lat="39.8137586" lon="8.7491138"><ele>491.33333333333337</ele><time>2026-05-03T06:20:09.778Z</time></trkpt><trkpt lat="39.813778" lon="8.7492082"><ele>493.1666666666667</ele><time>2026-05-03T06:20:10.778Z</time></trkpt><trkpt lat="39.8137946" lon="8.749316"><ele>495.0</ele><time>2026-05-03T06:20:11.777Z</time></trkpt><trkpt lat="39.813791" lon="8.7494343"><ele>496.4</ele><time>2026-05-03T06:20:12.777Z</time></trkpt><trkpt lat="39.813772" lon="8.7495575"><ele>497.8</ele><time>2026-05-03T06:20:13.778Z</time></trkpt><trkpt lat="39.8137296" lon="8.7496722"><ele>499.20000000000005</ele><time>2026-05-03T06:20:14.778Z</time></trkpt><trkpt lat="39.8136796" lon="8.7497873"><ele>500.6</ele><time>2026-05-03T06:20:15.777Z</time></trkpt><trkpt lat="39.8136151" lon="8.7498818"><ele>502.0</ele><time>2026-05-03T06:20:16.777Z</time></trkpt><trkpt lat="39.8135401" lon="8.7499581"><ele>505.50000000000006</ele><time>2026-05-03T06:20:17.778Z</time></trkpt><trkpt lat="39.8134779" lon="8.7500436"><ele>509.0</ele><time>2026-05-03T06:20:18.778Z</time></trkpt><trkpt lat="39.8134236" lon="8.7501347"><ele>512.5</ele><time>2026-05-03T06:20:19.777Z</time></trkpt><trkpt lat="39.813377" lon="8.750222"><ele>516.0</ele><time>2026-05-03T06:20:20.777Z</time></trkpt><trkpt lat="39.8133169" lon="8.7503079"><ele>519.5</ele><time>2026-05-03T06:20:21.778Z</time></trkpt><trkpt lat="39.81326" lon="8.7503887"><ele>523.0</ele><time>2026-05-03T06:20:22.779Z</time></trkpt><trkpt lat="39.8131964" lon="8.75046"><ele>523.8</ele><time>2026-05-03T06:20:23.776Z</time></trkpt><trkpt lat="39.813133" lon="8.7505302"><ele>524.5999999999999</ele><time>2026-05-03T06:20:24.778Z</time></trkpt><trkpt lat="39.8130645" lon="8.7506073"><ele>525.4000000000001</ele><time>2026-05-03T06:20:25.777Z</time></trkpt><trkpt lat="39.8129912" lon="8.7506909"><ele>526.2</ele><time>2026-05-03T06:20:26.776Z</time></trkpt><trkpt lat="39.8129258" lon="8.7507849"><ele>527.0</ele><time>2026-05-03T06:20:27.777Z</time></trkpt><trkpt lat="39.8128576" lon="8.7508843"><ele>527.0</ele><time>2026-05-03T06:20:28.777Z</time></trkpt><trkpt lat="39.8127857" lon="8.7509714"><ele>527.0</ele><time>2026-05-03T06:20:29.779Z</time></trkpt><trkpt lat="39.81273" lon="8.7510498"><ele>527.0</ele><time>2026-05-03T06:20:30.778Z</time></trkpt><trkpt lat="39.812674" lon="8.751108"><ele>527.0</ele><time>2026-05-03T06:20:31.778Z</time></trkpt><trkpt lat="39.8125711" lon="8.7511752"><ele>527.0</ele><time>2026-05-03T06:20:33.777Z</time></trkpt><trkpt lat="39.812475" lon="8.7511587"><ele>528.3333333333333</ele><time>2026-05-03T06:20:35.778Z</time></trkpt><trkpt lat="39.8123516" lon="8.7510909"><ele>529.6666666666666</ele><time>2026-05-03T06:20:37.777Z</time></trkpt><trkpt lat="39.8122785" lon="8.7510534"><ele>531.0</ele><time>2026-05-03T06:20:38.779Z</time></trkpt><trkpt lat="39.8122122" lon="8.7510157"><ele>532.3333333333334</ele><time>2026-05-03T06:20:39.777Z</time></trkpt><trkpt lat="39.8121331" lon="8.7509904"><ele>533.6666666666667</ele><time>2026-05-03T06:20:40.777Z</time></trkpt><trkpt lat="39.8120635" lon="8.750957"><ele>535.0</ele><time>2026-05-03T06:20:41.777Z</time></trkpt><trkpt lat="39.8119964" lon="8.7509323"><ele>535.3333333333334</ele><time>2026-05-03T06:20:42.778Z</time></trkpt><trkpt lat="39.8119236" lon="8.7509138"><ele>535.6666666666667</ele><time>2026-05-03T06:20:43.778Z</time></trkpt><trkpt lat="39.8118589" lon="8.7508993"><ele>536.0</ele><time>2026-05-03T06:20:44.778Z</time></trkpt><trkpt lat="39.8117446" lon="8.7509089"><ele>536.3333333333334</ele><time>2026-05-03T06:20:46.778Z</time></trkpt><trkpt lat="39.811639" lon="8.7509661"><ele>536.6666666666666</ele><time>2026-05-03T06:20:48.778Z</time></trkpt><trkpt lat="39.8115853" lon="8.7510095"><ele>537.0</ele><time>2026-05-03T06:20:49.777Z</time></trkpt><trkpt lat="39.8115211" lon="8.751085"><ele>539.0</ele><time>2026-05-03T06:20:50.778Z</time></trkpt><trkpt lat="39.811459" lon="8.7511898"><ele>541.0</ele><time>2026-05-03T06:20:51.779Z</time></trkpt><trkpt lat="39.8114105" lon="8.7512975"><ele>543.0</ele><time>2026-05-03T06:20:52.777Z</time></trkpt><trkpt lat="39.8114018" lon="8.7514248"><ele>545.0</ele><time>2026-05-03T06:20:53.777Z</time></trkpt><trkpt lat="39.8113901" lon="8.7515433"><ele>547.0</ele><time>2026-05-03T06:20:54.778Z</time></trkpt><trkpt lat="39.8113749" lon="8.7516576"><ele>547.0</ele><time>2026-05-03T06:20:55.776Z</time></trkpt><trkpt lat="39.8113362" lon="8.7517576"><ele>547.0</ele><time>2026-05-03T06:20:56.778Z</time></trkpt><trkpt lat="39.8112822" lon="8.7518536"><ele>547.0</ele><time>2026-05-03T06:20:57.777Z</time></trkpt><trkpt lat="39.8112196" lon="8.7519434"><ele>547.0</ele><time>2026-05-03T06:20:58.777Z</time></trkpt><trkpt lat="39.8111588" lon="8.7520393"><ele>547.0</ele><time>2026-05-03T06:20:59.777Z</time></trkpt><trkpt lat="39.8110958" lon="8.7521391"><ele>548.0</ele><time>2026-05-03T06:21:00.779Z</time></trkpt><trkpt lat="39.8110342" lon="8.7522507"><ele>549.0</ele><time>2026-05-03T06:21:01.777Z</time></trkpt><trkpt lat="39.8109857" lon="8.7523623"><ele>550.0</ele><time>2026-05-03T06:21:02.777Z</time></trkpt><trkpt lat="39.8109467" lon="8.7524691"><ele>551.0</ele><time>2026-05-03T06:21:03.777Z</time></trkpt><trkpt lat="39.810921" lon="8.7525693"><ele>552.0</ele><time>2026-05-03T06:21:04.777Z</time></trkpt><trkpt lat="39.8109049" lon="8.7526695"><ele>554.0</ele><time>2026-05-03T06:21:05.777Z</time></trkpt><trkpt lat="39.8109005" lon="8.7527702"><ele>556.0</ele><time>2026-05-03T06:21:06.778Z</time></trkpt><trkpt lat="39.8109276" lon="8.7528647"><ele>558.0</ele><time>2026-05-03T06:21:07.777Z</time></trkpt><trkpt lat="39.8109612" lon="8.7529709"><ele>560.0</ele><time>2026-05-03T06:21:08.778Z</time></trkpt><trkpt lat="39.810981" lon="8.7530794"><ele>562.0</ele><time>2026-05-03T06:21:09.778Z</time></trkpt><trkpt lat="39.8110132" lon="8.753185"><ele>564.0</ele><time>2026-05-03T06:21:10.778Z</time></trkpt><trkpt lat="39.8110429" lon="8.7532883"><ele>564.0</ele><time>2026-05-03T06:21:11.779Z</time></trkpt><trkpt lat="39.8111041" lon="8.7533794"><ele>564.0</ele><time>2026-05-03T06:21:12.778Z</time></trkpt><trkpt lat="39.8111423" lon="8.7534731"><ele>564.0</ele><time>2026-05-03T06:21:13.778Z</time></trkpt><trkpt lat="39.8111839" lon="8.7535472"><ele>564.0</ele><time>2026-05-03T06:21:14.777Z</time></trkpt><trkpt lat="39.8112555" lon="8.7536203"><ele>564.0</ele><time>2026-05-03T06:21:15.777Z</time></trkpt><trkpt lat="39.8113119" lon="8.7537009"><ele>564.0</ele><time>2026-05-03T06:21:16.777Z</time></trkpt><trkpt lat="39.8113802" lon="8.7537822"><ele>567.5</ele><time>2026-05-03T06:21:17.777Z</time></trkpt><trkpt lat="39.811433" lon="8.753882"><ele>571.0</ele><time>2026-05-03T06:21:18.779Z</time></trkpt><trkpt lat="39.8114805" lon="8.7539852"><ele>574.5</ele><time>2026-05-03T06:21:19.778Z</time></trkpt><trkpt lat="39.8115203" lon="8.7540881"><ele>578.0</ele><time>2026-05-03T06:21:20.778Z</time></trkpt><trkpt lat="39.8115401" lon="8.7541952"><ele>581.5</ele><time>2026-05-03T06:21:21.777Z</time></trkpt><trkpt lat="39.8115834" lon="8.7542981"><ele>585.0</ele><time>2026-05-03T06:21:22.777Z</time></trkpt><trkpt lat="39.811623" lon="8.7543919"><ele>586.8</ele><time>2026-05-03T06:21:23.776Z</time></trkpt><trkpt lat="39.8116718" lon="8.7544893"><ele>588.6</ele><time>2026-05-03T06:21:24.777Z</time></trkpt><trkpt lat="39.8117546" lon="8.7545637"><ele>590.4</ele><time>2026-05-03T06:21:25.777Z</time></trkpt><trkpt lat="39.8118167" lon="8.7546616"><ele>592.2</ele><time>2026-05-03T06:21:26.778Z</time></trkpt><trkpt lat="39.811887" lon="8.7547282"><ele>594.0</ele><time>2026-05-03T06:21:27.778Z</time></trkpt><trkpt lat="39.8119591" lon="8.754804"><ele>594.0</ele><time>2026-05-03T06:21:28.776Z</time></trkpt><trkpt lat="39.812038" lon="8.7548884"><ele>594.0</ele><time>2026-05-03T06:21:29.779Z</time></trkpt><trkpt lat="39.812106" lon="8.7549779"><ele>594.0</ele><time>2026-05-03T06:21:30.776Z</time></trkpt><trkpt lat="39.8121644" lon="8.7550745"><ele>594.0</ele><time>2026-05-03T06:21:31.777Z</time></trkpt><trkpt lat="39.8122312" lon="8.7551679"><ele>594.0</ele><time>2026-05-03T06:21:32.778Z</time></trkpt><trkpt lat="39.8123175" lon="8.7552717"><ele>599.2</ele><time>2026-05-03T06:21:33.779Z</time></trkpt><trkpt lat="39.8124104" lon="8.7553684"><ele>604.4</ele><time>2026-05-03T06:21:34.777Z</time></trkpt><trkpt lat="39.8124921" lon="8.7554558"><ele>609.6</ele><time>2026-05-03T06:21:35.778Z</time></trkpt><trkpt lat="39.8125802" lon="8.7555354"><ele>614.8</ele><time>2026-05-03T06:21:36.778Z</time></trkpt><trkpt lat="39.8126791" lon="8.7555933"><ele>620.0</ele><time>2026-05-03T06:21:37.778Z</time></trkpt><trkpt lat="39.8127826" lon="8.7556319"><ele>620.0</ele><time>2026-05-03T06:21:38.777Z</time></trkpt><trkpt lat="39.8128881" lon="8.7556656"><ele>620.0</ele><time>2026-05-03T06:21:39.776Z</time></trkpt><trkpt lat="39.8130051" lon="8.7556884"><ele>620.0</ele><time>2026-05-03T06:21:40.778Z</time></trkpt><trkpt lat="39.8131214" lon="8.7556992"><ele>620.0</ele><time>2026-05-03T06:21:41.776Z</time></trkpt><trkpt lat="39.8132427" lon="8.755708"><ele>620.0</ele><time>2026-05-03T06:21:42.777Z</time></trkpt><trkpt lat="39.81336" lon="8.7557136"><ele>620.0</ele><time>2026-05-03T06:21:43.778Z</time></trkpt><trkpt lat="39.8134848" lon="8.7557109"><ele>620.0</ele><time>2026-05-03T06:21:44.777Z</time></trkpt><trkpt lat="39.8136106" lon="8.7557069"><ele>620.0</ele><time>2026-05-03T06:21:45.777Z</time></trkpt><trkpt lat="39.8137301" lon="8.7557087"><ele>621.0</ele><time>2026-05-03T06:21:46.777Z</time></trkpt><trkpt lat="39.8138487" lon="8.7557251"><ele>622.0</ele><time>2026-05-03T06:21:47.778Z</time></trkpt><trkpt lat="39.8139674" lon="8.7557484"><ele>623.0</ele><time>2026-05-03T06:21:48.776Z</time></trkpt><trkpt lat="39.8140733" lon="8.7557588"><ele>624.0</ele><time>2026-05-03T06:21:49.777Z</time></trkpt><trkpt lat="39.8141569" lon="8.7557872"><ele>625.0</ele><time>2026-05-03T06:21:50.777Z</time></trkpt><trkpt lat="39.8142392" lon="8.7558483"><ele>625.0</ele><time>2026-05-03T06:21:51.777Z</time></trkpt><trkpt lat="39.8142968" lon="8.7559259"><ele>625.0</ele><time>2026-05-03T06:21:52.778Z</time></trkpt><trkpt lat="39.8143245" lon="8.7560231"><ele>625.0</ele><time>2026-05-03T06:21:53.778Z</time></trkpt><trkpt lat="39.8143344" lon="8.7561211"><ele>625.0</ele><time>2026-05-03T06:21:54.778Z</time></trkpt><trkpt lat="39.8143111" lon="8.7562254"><ele>625.0</ele><time>2026-05-03T06:21:55.777Z</time></trkpt><trkpt lat="39.8142935" lon="8.7563268"><ele>625.0</ele><time>2026-05-03T06:21:56.776Z</time></trkpt><trkpt lat="39.8142846" lon="8.7564369"><ele>624.3333333333334</ele><time>2026-05-03T06:21:57.777Z</time></trkpt><trkpt lat="39.8142935" lon="8.7565401"><ele>623.6666666666667</ele><time>2026-05-03T06:21:58.776Z</time></trkpt><trkpt lat="39.8143148" lon="8.7566336"><ele>623.0</ele><time>2026-05-03T06:21:59.779Z</time></trkpt><trkpt lat="39.8143517" lon="8.7567262"><ele>622.3333333333334</ele><time>2026-05-03T06:22:00.777Z</time></trkpt><trkpt lat="39.8143871" lon="8.7568327"><ele>621.6666666666666</ele><time>2026-05-03T06:22:01.777Z</time></trkpt><trkpt lat="39.814417" lon="8.7569261"><ele>621.0</ele><time>2026-05-03T06:22:02.777Z</time></trkpt><trkpt lat="39.8144343" lon="8.7570433"><ele>622.6666666666666</ele><time>2026-05-03T06:22:03.777Z</time></trkpt><trkpt lat="39.8144551" lon="8.7571316"><ele>624.3333333333334</ele><time>2026-05-03T06:22:04.778Z</time></trkpt><trkpt lat="39.814435" lon="8.7572198"><ele>626.0</ele><time>2026-05-03T06:22:05.777Z</time></trkpt><trkpt lat="39.8144162" lon="8.757307"><ele>627.6666666666667</ele><time>2026-05-03T06:22:06.777Z</time></trkpt><trkpt lat="39.8143801" lon="8.7573978"><ele>629.3333333333334</ele><time>2026-05-03T06:22:07.777Z</time></trkpt><trkpt lat="39.814336" lon="8.7574874"><ele>631.0</ele><time>2026-05-03T06:22:08.778Z</time></trkpt><trkpt lat="39.8142994" lon="8.7575835"><ele>633.8333333333334</ele><time>2026-05-03T06:22:09.777Z</time></trkpt><trkpt lat="39.8142622" lon="8.7576714"><ele>636.6666666666667</ele><time>2026-05-03T06:22:10.777Z</time></trkpt><trkpt lat="39.8142459" lon="8.7577837"><ele>639.5</ele><time>2026-05-03T06:22:11.778Z</time></trkpt><trkpt lat="39.814242" lon="8.7578878"><ele>642.3333333333334</ele><time>2026-05-03T06:22:12.777Z</time></trkpt><trkpt lat="39.8142294" lon="8.75802"><ele>645.1666666666666</ele><time>2026-05-03T06:22:13.777Z</time></trkpt><trkpt lat="39.8142219" lon="8.7581183"><ele>648.0</ele><time>2026-05-03T06:22:14.777Z</time></trkpt><trkpt lat="39.8141991" lon="8.7582427"><ele>648.4</ele><time>2026-05-03T06:22:15.777Z</time></trkpt><trkpt lat="39.8141823" lon="8.7583552"><ele>648.8</ele><time>2026-05-03T06:22:16.776Z</time></trkpt><trkpt lat="39.8141539" lon="8.7584942"><ele>649.2</ele><time>2026-05-03T06:22:17.776Z</time></trkpt><trkpt lat="39.8141199" lon="8.7586049"><ele>649.6</ele><time>2026-05-03T06:22:18.778Z</time></trkpt><trkpt lat="39.8140766" lon="8.7587217"><ele>650.0</ele><time>2026-05-03T06:22:19.779Z</time></trkpt><trkpt lat="39.8139947" lon="8.7587692"><ele>651.6</ele><time>2026-05-03T06:22:20.779Z</time></trkpt><trkpt lat="39.8139244" lon="8.7588124"><ele>653.2</ele><time>2026-05-03T06:22:21.776Z</time></trkpt><trkpt lat="39.8138545" lon="8.7588771"><ele>654.8</ele><time>2026-05-03T06:22:22.778Z</time></trkpt><trkpt lat="39.8137864" lon="8.7589529"><ele>656.4</ele><time>2026-05-03T06:22:23.778Z</time></trkpt><trkpt lat="39.8137038" lon="8.7590259"><ele>658.0</ele><time>2026-05-03T06:22:24.777Z</time></trkpt><trkpt lat="39.8136226" lon="8.7590966"><ele>658.0</ele><time>2026-05-03T06:22:25.778Z</time></trkpt><trkpt lat="39.8135373" lon="8.7591777"><ele>658.0</ele><time>2026-05-03T06:22:26.777Z</time></trkpt><trkpt lat="39.813448" lon="8.7592699"><ele>658.0</ele><time>2026-05-03T06:22:27.778Z</time></trkpt><trkpt lat="39.813365" lon="8.7593598"><ele>658.0</ele><time>2026-05-03T06:22:28.778Z</time></trkpt><trkpt lat="39.8132787" lon="8.7594482"><ele>658.0</ele><time>2026-05-03T06:22:29.778Z</time></trkpt><trkpt lat="39.813196" lon="8.7595285"><ele>659.5999999999999</ele><time>2026-05-03T06:22:30.778Z</time></trkpt><trkpt lat="39.8131327" lon="8.7595991"><ele>661.1999999999999</ele><time>2026-05-03T06:22:31.777Z</time></trkpt><trkpt lat="39.8130746" lon="8.7596541"><ele>662.8</ele><time>2026-05-03T06:22:32.778Z</time></trkpt><trkpt lat="39.8130348" lon="8.7597968"><ele>664.4</ele><time>2026-05-03T06:22:34.777Z</time></trkpt><trkpt lat="39.8130274" lon="8.7599538"><ele>666.0</ele><time>2026-05-03T06:22:36.778Z</time></trkpt><trkpt lat="39.8130821" lon="8.7600303"><ele>666.0</ele><time>2026-05-03T06:22:37.777Z</time></trkpt><trkpt lat="39.8131299" lon="8.7600945"><ele>666.0</ele><time>2026-05-03T06:22:38.779Z</time></trkpt><trkpt lat="39.8131918" lon="8.7601616"><ele>666.0</ele><time>2026-05-03T06:22:39.778Z</time></trkpt><trkpt lat="39.8132474" lon="8.7602113"><ele>666.0</ele><time>2026-05-03T06:22:40.777Z</time></trkpt><trkpt lat="39.813326" lon="8.7602918"><ele>666.0</ele><time>2026-05-03T06:22:41.777Z</time></trkpt><trkpt lat="39.8133912" lon="8.7603571"><ele>666.0</ele><time>2026-05-03T06:22:42.777Z</time></trkpt><trkpt lat="39.8134395" lon="8.7604305"><ele>665.6666666666666</ele><time>2026-05-03T06:22:43.776Z</time></trkpt><trkpt lat="39.8134738" lon="8.760501"><ele>665.3333333333334</ele><time>2026-05-03T06:22:44.777Z</time></trkpt><trkpt lat="39.8134962" lon="8.7605827"><ele>665.0</ele><time>2026-05-03T06:22:45.777Z</time></trkpt><trkpt lat="39.813491" lon="8.760669"><ele>664.6666666666667</ele><time>2026-05-03T06:22:46.778Z</time></trkpt><trkpt lat="39.813494" lon="8.7607722"><ele>664.3333333333334</ele><time>2026-05-03T06:22:47.777Z</time></trkpt><trkpt lat="39.8134962" lon="8.760891"><ele>664.0</ele><time>2026-05-03T06:22:48.778Z</time></trkpt><trkpt lat="39.8134888" lon="8.7610038"><ele>664.3333333333334</ele><time>2026-05-03T06:22:49.777Z</time></trkpt><trkpt lat="39.813469" lon="8.7611131"><ele>664.6666666666667</ele><time>2026-05-03T06:22:50.777Z</time></trkpt><trkpt lat="39.8134575" lon="8.761222"><ele>665.0</ele><time>2026-05-03T06:22:51.777Z</time></trkpt><trkpt lat="39.8134895" lon="8.7613279"><ele>665.3333333333334</ele><time>2026-05-03T06:22:52.776Z</time></trkpt><trkpt lat="39.8135165" lon="8.7614345"><ele>665.6666666666666</ele><time>2026-05-03T06:22:53.777Z</time></trkpt><trkpt lat="39.813539" lon="8.7615549"><ele>666.0</ele><time>2026-05-03T06:22:54.778Z</time></trkpt><trkpt lat="39.8135447" lon="8.7616802"><ele>666.0</ele><time>2026-05-03T06:22:55.776Z</time></trkpt><trkpt lat="39.8135454" lon="8.7618066"><ele>666.0</ele><time>2026-05-03T06:22:56.776Z</time></trkpt><trkpt lat="39.8135522" lon="8.7619434"><ele>666.0</ele><time>2026-05-03T06:22:57.778Z</time></trkpt><trkpt lat="39.8135513" lon="8.7620528"><ele>666.0</ele><time>2026-05-03T06:22:58.778Z</time></trkpt><trkpt lat="39.8135686" lon="8.7621722"><ele>666.0</ele><time>2026-05-03T06:22:59.776Z</time></trkpt><trkpt lat="39.8136298" lon="8.7622722"><ele>664.0</ele><time>2026-05-03T06:23:00.777Z</time></trkpt><trkpt lat="39.8136902" lon="8.7623683"><ele>662.0</ele><time>2026-05-03T06:23:01.777Z</time></trkpt><trkpt lat="39.8137576" lon="8.7624787"><ele>660.0</ele><time>2026-05-03T06:23:02.777Z</time></trkpt><trkpt lat="39.8138214" lon="8.7625876"><ele>658.0</ele><time>2026-05-03T06:23:03.779Z</time></trkpt><trkpt lat="39.8138833" lon="8.7626925"><ele>656.0</ele><time>2026-05-03T06:23:04.779Z</time></trkpt><trkpt lat="39.8139156" lon="8.7628289"><ele>655.0</ele><time>2026-05-03T06:23:05.778Z</time></trkpt><trkpt lat="39.8139454" lon="8.7629737"><ele>654.0</ele><time>2026-05-03T06:23:06.777Z</time></trkpt><trkpt lat="39.8139845" lon="8.7631271"><ele>653.0</ele><time>2026-05-03T06:23:07.777Z</time></trkpt><trkpt lat="39.8140373" lon="8.7632484"><ele>652.0</ele><time>2026-05-03T06:23:08.778Z</time></trkpt><trkpt lat="39.814081" lon="8.7633656"><ele>651.0</ele><time>2026-05-03T06:23:09.777Z</time></trkpt><trkpt lat="39.8141098" lon="8.7634667"><ele>650.0</ele><time>2026-05-03T06:23:10.779Z</time></trkpt><trkpt lat="39.8141113" lon="8.7635718"><ele>649.0</ele><time>2026-05-03T06:23:11.777Z</time></trkpt><trkpt lat="39.8140846" lon="8.763681"><ele>648.0</ele><time>2026-05-03T06:23:12.776Z</time></trkpt><trkpt lat="39.8140566" lon="8.7637936"><ele>647.0</ele><time>2026-05-03T06:23:13.778Z</time></trkpt><trkpt lat="39.8140302" lon="8.763918"><ele>646.0</ele><time>2026-05-03T06:23:14.778Z</time></trkpt><trkpt lat="39.8140113" lon="8.764055"><ele>646.0</ele><time>2026-05-03T06:23:15.777Z</time></trkpt><trkpt lat="39.8140048" lon="8.7641998"><ele>646.0</ele><time>2026-05-03T06:23:16.778Z</time></trkpt><trkpt lat="39.8140027" lon="8.7643414"><ele>646.0</ele><time>2026-05-03T06:23:17.777Z</time></trkpt><trkpt lat="39.8140124" lon="8.7644783"><ele>646.0</ele><time>2026-05-03T06:23:18.778Z</time></trkpt><trkpt lat="39.8140376" lon="8.7646153"><ele>646.0</ele><time>2026-05-03T06:23:19.778Z</time></trkpt><trkpt lat="39.8140734" lon="8.7647567"><ele>644.1999999999999</ele><time>2026-05-03T06:23:20.777Z</time></trkpt><trkpt lat="39.8141171" lon="8.7648903"><ele>642.4</ele><time>2026-05-03T06:23:21.779Z</time></trkpt><trkpt lat="39.8141664" lon="8.7650122"><ele>640.6</ele><time>2026-05-03T06:23:22.779Z</time></trkpt><trkpt lat="39.814213" lon="8.7651292"><ele>638.8</ele><time>2026-05-03T06:23:23.777Z</time></trkpt><trkpt lat="39.8142462" lon="8.7652536"><ele>637.0</ele><time>2026-05-03T06:23:24.777Z</time></trkpt><trkpt lat="39.8142622" lon="8.7653775"><ele>635.0</ele><time>2026-05-03T06:23:25.778Z</time></trkpt><trkpt lat="39.8142629" lon="8.7655089"><ele>633.0</ele><time>2026-05-03T06:23:26.776Z</time></trkpt><trkpt lat="39.8142471" lon="8.7656481"><ele>631.0</ele><time>2026-05-03T06:23:27.778Z</time></trkpt><trkpt lat="39.8142156" lon="8.7657821"><ele>629.0</ele><time>2026-05-03T06:23:28.776Z</time></trkpt><trkpt lat="39.8141907" lon="8.7659142"><ele>627.0</ele><time>2026-05-03T06:23:29.777Z</time></trkpt><trkpt lat="39.8141737" lon="8.7660384"><ele>626.0</ele><time>2026-05-03T06:23:30.778Z</time></trkpt><trkpt lat="39.8141637" lon="8.7661534"><ele>625.0</ele><time>2026-05-03T06:23:31.778Z</time></trkpt><trkpt lat="39.8141651" lon="8.7662598"><ele>624.0</ele><time>2026-05-03T06:23:32.777Z</time></trkpt><trkpt lat="39.8141659" lon="8.7663551"><ele>623.0</ele><time>2026-05-03T06:23:33.777Z</time></trkpt><trkpt lat="39.8141763" lon="8.7664795"><ele>622.0</ele><time>2026-05-03T06:23:35.779Z</time></trkpt><trkpt lat="39.8142362" lon="8.7665637"><ele>621.0</ele><time>2026-05-03T06:23:37.779Z</time></trkpt><trkpt lat="39.8143431" lon="8.7665878"><ele>621.0</ele><time>2026-05-03T06:23:39.778Z</time></trkpt><trkpt lat="39.8144163" lon="8.7665784"><ele>621.0</ele><time>2026-05-03T06:23:40.777Z</time></trkpt><trkpt lat="39.8144964" lon="8.7665574"><ele>621.0</ele><time>2026-05-03T06:23:41.778Z</time></trkpt><trkpt lat="39.8145755" lon="8.7665315"><ele>621.0</ele><time>2026-05-03T06:23:42.777Z</time></trkpt><trkpt lat="39.8146627" lon="8.7664882"><ele>621.0</ele><time>2026-05-03T06:23:43.776Z</time></trkpt><trkpt lat="39.8147467" lon="8.76645"><ele>621.0</ele><time>2026-05-03T06:23:44.778Z</time></trkpt><trkpt lat="39.814839" lon="8.7664196"><ele>621.0</ele><time>2026-05-03T06:23:45.778Z</time></trkpt><trkpt lat="39.8149411" lon="8.7664058"><ele>621.0</ele><time>2026-05-03T06:23:46.777Z</time></trkpt><trkpt lat="39.8150493" lon="8.7663999"><ele>621.0</ele><time>2026-05-03T06:23:47.778Z</time></trkpt><trkpt lat="39.8151608" lon="8.7663909"><ele>621.0</ele><time>2026-05-03T06:23:48.778Z</time></trkpt><trkpt lat="39.81526" lon="8.7663873"><ele>621.0</ele><time>2026-05-03T06:23:49.777Z</time></trkpt><trkpt lat="39.8153384" lon="8.7663826"><ele>621.3333333333334</ele><time>2026-05-03T06:23:50.778Z</time></trkpt><trkpt lat="39.8154025" lon="8.7664065"><ele>621.6666666666666</ele><time>2026-05-03T06:23:51.777Z</time></trkpt><trkpt lat="39.8154594" lon="8.7664491"><ele>622.0</ele><time>2026-05-03T06:23:52.777Z</time></trkpt><trkpt lat="39.8155089" lon="8.7665244"><ele>622.3333333333333</ele><time>2026-05-03T06:23:53.779Z</time></trkpt><trkpt lat="39.8155556" lon="8.766618"><ele>622.6666666666666</ele><time>2026-05-03T06:23:54.776Z</time></trkpt><trkpt lat="39.8155949" lon="8.7667219"><ele>623.0</ele><time>2026-05-03T06:23:55.777Z</time></trkpt><trkpt lat="39.8156317" lon="8.7668385"><ele>622.6</ele><time>2026-05-03T06:23:56.776Z</time></trkpt><trkpt lat="39.8156684" lon="8.7669605"><ele>622.1999999999999</ele><time>2026-05-03T06:23:57.777Z</time></trkpt><trkpt lat="39.815702" lon="8.7670844"><ele>621.8</ele><time>2026-05-03T06:23:58.777Z</time></trkpt><trkpt lat="39.8157332" lon="8.7672047"><ele>621.4</ele><time>2026-05-03T06:23:59.777Z</time></trkpt><trkpt lat="39.8157591" lon="8.7673058"><ele>621.0</ele><time>2026-05-03T06:24:00.777Z</time></trkpt><trkpt lat="39.8157832" lon="8.7673953"><ele>621.0</ele><time>2026-05-03T06:24:01.779Z</time></trkpt><trkpt lat="39.8158302" lon="8.7675181"><ele>621.0</ele><time>2026-05-03T06:24:03.777Z</time></trkpt><trkpt lat="39.81587" lon="8.7675997"><ele>621.0</ele><time>2026-05-03T06:24:06.777Z</time></trkpt><trkpt lat="39.8159007" lon="8.7677342"><ele>621.0</ele><time>2026-05-03T06:24:30.778Z</time></trkpt><trkpt lat="39.815941" lon="8.7678985"><ele>621.0</ele><time>2026-05-03T06:24:32.777Z</time></trkpt><trkpt lat="39.8159808" lon="8.7680064"><ele>618.8333333333334</ele><time>2026-05-03T06:24:33.777Z</time></trkpt><trkpt lat="39.8160217" lon="8.768109"><ele>616.6666666666666</ele><time>2026-05-03T06:24:34.777Z</time></trkpt><trkpt lat="39.816068" lon="8.768213"><ele>614.5</ele><time>2026-05-03T06:24:35.778Z</time></trkpt><trkpt lat="39.8161094" lon="8.7683055"><ele>612.3333333333333</ele><time>2026-05-03T06:24:36.776Z</time></trkpt><trkpt lat="39.8161393" lon="8.7683964"><ele>610.1666666666666</ele><time>2026-05-03T06:24:37.777Z</time></trkpt><trkpt lat="39.8161596" lon="8.7684835"><ele>608.0</ele><time>2026-05-03T06:24:38.776Z</time></trkpt><trkpt lat="39.8161752" lon="8.7685701"><ele>607.5</ele><time>2026-05-03T06:24:39.777Z</time></trkpt><trkpt lat="39.8161879" lon="8.7686578"><ele>607.0</ele><time>2026-05-03T06:24:40.777Z</time></trkpt><trkpt lat="39.8161906" lon="8.7687426"><ele>606.5</ele><time>2026-05-03T06:24:41.777Z</time></trkpt><trkpt lat="39.8161867" lon="8.7688877"><ele>606.0</ele><time>2026-05-03T06:24:43.778Z</time></trkpt><trkpt lat="39.8161749" lon="8.7690019"><ele>605.5</ele><time>2026-05-03T06:24:45.779Z</time></trkpt><trkpt lat="39.8161705" lon="8.7691051"><ele>605.0</ele><time>2026-05-03T06:24:47.779Z</time></trkpt><trkpt lat="39.8161828" lon="8.7692302"><ele>605.0</ele><time>2026-05-03T06:24:49.776Z</time></trkpt><trkpt lat="39.8161865" lon="8.7693264"><ele>605.0</ele><time>2026-05-03T06:24:50.778Z</time></trkpt><trkpt lat="39.816189" lon="8.7694425"><ele>605.0</ele><time>2026-05-03T06:24:51.778Z</time></trkpt><trkpt lat="39.8161917" lon="8.769584"><ele>605.0</ele><time>2026-05-03T06:24:52.777Z</time></trkpt><trkpt lat="39.8161874" lon="8.7697324"><ele>605.0</ele><time>2026-05-03T06:24:53.778Z</time></trkpt><trkpt lat="39.8161849" lon="8.7698944"><ele>604.0</ele><time>2026-05-03T06:24:54.776Z</time></trkpt><trkpt lat="39.816177" lon="8.7700611"><ele>603.0</ele><time>2026-05-03T06:24:55.778Z</time></trkpt><trkpt lat="39.8161725" lon="8.7702233"><ele>602.0</ele><time>2026-05-03T06:24:56.777Z</time></trkpt><trkpt lat="39.8161681" lon="8.7703834"><ele>601.0</ele><time>2026-05-03T06:24:57.779Z</time></trkpt><trkpt lat="39.8161664" lon="8.7705392"><ele>600.0</ele><time>2026-05-03T06:24:58.778Z</time></trkpt><trkpt lat="39.8161655" lon="8.7706871"><ele>599.0</ele><time>2026-05-03T06:24:59.779Z</time></trkpt><trkpt lat="39.8161651" lon="8.7708275"><ele>598.0</ele><time>2026-05-03T06:25:00.778Z</time></trkpt><trkpt lat="39.8161613" lon="8.7709706"><ele>597.0</ele><time>2026-05-03T06:25:01.777Z</time></trkpt><trkpt lat="39.816162" lon="8.7711115"><ele>596.0</ele><time>2026-05-03T06:25:02.778Z</time></trkpt><trkpt lat="39.8161614" lon="8.7712541"><ele>594.75</ele><time>2026-05-03T06:25:03.778Z</time></trkpt><trkpt lat="39.8161646" lon="8.7713959"><ele>593.5</ele><time>2026-05-03T06:25:04.778Z</time></trkpt><trkpt lat="39.8161664" lon="8.7715464"><ele>592.25</ele><time>2026-05-03T06:25:05.777Z</time></trkpt><trkpt lat="39.8161633" lon="8.7717015"><ele>591.0</ele><time>2026-05-03T06:25:06.777Z</time></trkpt><trkpt lat="39.8161607" lon="8.7718625"><ele>589.5</ele><time>2026-05-03T06:25:07.777Z</time></trkpt><trkpt lat="39.816157" lon="8.7720243"><ele>588.0</ele><time>2026-05-03T06:25:08.777Z</time></trkpt><trkpt lat="39.8161489" lon="8.7721825"><ele>586.5</ele><time>2026-05-03T06:25:09.777Z</time></trkpt><trkpt lat="39.8161454" lon="8.7723341"><ele>585.0</ele><time>2026-05-03T06:25:10.777Z</time></trkpt><trkpt lat="39.8161379" lon="8.7724771"><ele>585.0</ele><time>2026-05-03T06:25:11.777Z</time></trkpt><trkpt lat="39.8161357" lon="8.7726117"><ele>585.0</ele><time>2026-05-03T06:25:12.779Z</time></trkpt><trkpt lat="39.8161345" lon="8.772753"><ele>585.0</ele><time>2026-05-03T06:25:13.776Z</time></trkpt><trkpt lat="39.8161339" lon="8.7728885"><ele>585.0</ele><time>2026-05-03T06:25:14.776Z</time></trkpt><trkpt lat="39.8161329" lon="8.7730185"><ele>585.0</ele><time>2026-05-03T06:25:15.777Z</time></trkpt><trkpt lat="39.8161367" lon="8.7731503"><ele>584.0</ele><time>2026-05-03T06:25:16.779Z</time></trkpt><trkpt lat="39.8161392" lon="8.773284"><ele>583.0</ele><time>2026-05-03T06:25:17.777Z</time></trkpt><trkpt lat="39.8161377" lon="8.7734218"><ele>582.0</ele><time>2026-05-03T06:25:18.778Z</time></trkpt><trkpt lat="39.8161374" lon="8.7735519"><ele>581.0</ele><time>2026-05-03T06:25:19.776Z</time></trkpt><trkpt lat="39.8161367" lon="8.7736737"><ele>580.0</ele><time>2026-05-03T06:25:20.779Z</time></trkpt><trkpt lat="39.8161421" lon="8.7738056"><ele>579.2</ele><time>2026-05-03T06:25:21.778Z</time></trkpt><trkpt lat="39.8161472" lon="8.7739396"><ele>578.4</ele><time>2026-05-03T06:25:22.776Z</time></trkpt><trkpt lat="39.816146" lon="8.7740694"><ele>577.6</ele><time>2026-05-03T06:25:23.777Z</time></trkpt><trkpt lat="39.816141" lon="8.7742029"><ele>576.8</ele><time>2026-05-03T06:25:24.776Z</time></trkpt><trkpt lat="39.816139" lon="8.7743405"><ele>576.0</ele><time>2026-05-03T06:25:25.777Z</time></trkpt><trkpt lat="39.8161348" lon="8.7744889"><ele>574.5</ele><time>2026-05-03T06:25:26.776Z</time></trkpt><trkpt lat="39.8161338" lon="8.7746412"><ele>573.0</ele><time>2026-05-03T06:25:27.778Z</time></trkpt><trkpt lat="39.8161329" lon="8.7747946"><ele>571.5</ele><time>2026-05-03T06:25:28.777Z</time></trkpt><trkpt lat="39.8161325" lon="8.7749364"><ele>570.0</ele><time>2026-05-03T06:25:29.782Z</time></trkpt><trkpt lat="39.8161369" lon="8.7750747"><ele>568.8</ele><time>2026-05-03T06:25:30.778Z</time></trkpt><trkpt lat="39.8161441" lon="8.7752175"><ele>567.6</ele><time>2026-05-03T06:25:31.778Z</time></trkpt><trkpt lat="39.8161485" lon="8.7753666"><ele>566.4</ele><time>2026-05-03T06:25:32.776Z</time></trkpt><trkpt lat="39.8161509" lon="8.7755072"><ele>565.2</ele><time>2026-05-03T06:25:33.777Z</time></trkpt><trkpt lat="39.8161453" lon="8.7756512"><ele>564.0</ele><time>2026-05-03T06:25:34.777Z</time></trkpt><trkpt lat="39.8161435" lon="8.7758012"><ele>564.0</ele><time>2026-05-03T06:25:35.777Z</time></trkpt><trkpt lat="39.8161463" lon="8.7759502"><ele>564.0</ele><time>2026-05-03T06:25:36.778Z</time></trkpt><trkpt lat="39.816148" lon="8.7760925"><ele>564.0</ele><time>2026-05-03T06:25:37.776Z</time></trkpt><trkpt lat="39.8161514" lon="8.7762362"><ele>564.0</ele><time>2026-05-03T06:25:38.777Z</time></trkpt><trkpt lat="39.8161515" lon="8.7763747"><ele>564.0</ele><time>2026-05-03T06:25:39.777Z</time></trkpt><trkpt lat="39.8161541" lon="8.7765099"><ele>562.4</ele><time>2026-05-03T06:25:40.777Z</time></trkpt><trkpt lat="39.8161468" lon="8.7766601"><ele>560.8</ele><time>2026-05-03T06:25:41.776Z</time></trkpt><trkpt lat="39.8161405" lon="8.7768053"><ele>559.2</ele><time>2026-05-03T06:25:42.777Z</time></trkpt><trkpt lat="39.8161366" lon="8.7769395"><ele>557.6</ele><time>2026-05-03T06:25:43.776Z</time></trkpt><trkpt lat="39.8161311" lon="8.7770607"><ele>556.0</ele><time>2026-05-03T06:25:44.778Z</time></trkpt><trkpt lat="39.8161219" lon="8.7771635"><ele>554.5</ele><time>2026-05-03T06:25:45.778Z</time></trkpt><trkpt lat="39.8161147" lon="8.7772463"><ele>553.0</ele><time>2026-05-03T06:25:46.778Z</time></trkpt><trkpt lat="39.8161177" lon="8.7773626"><ele>551.5</ele><time>2026-05-03T06:25:48.777Z</time></trkpt><trkpt lat="39.8161621" lon="8.7774254"><ele>550.0</ele><time>2026-05-03T06:25:50.776Z</time></trkpt><trkpt lat="39.8162601" lon="8.7774401"><ele>548.5</ele><time>2026-05-03T06:25:52.779Z</time></trkpt><trkpt lat="39.8163685" lon="8.7773752"><ele>547.0</ele><time>2026-05-03T06:25:54.776Z</time></trkpt><trkpt lat="39.8164402" lon="8.7773162"><ele>547.0</ele><time>2026-05-03T06:25:55.777Z</time></trkpt><trkpt lat="39.8165251" lon="8.7772512"><ele>547.0</ele><time>2026-05-03T06:25:56.778Z</time></trkpt><trkpt lat="39.8166169" lon="8.7771784"><ele>547.0</ele><time>2026-05-03T06:25:57.779Z</time></trkpt><trkpt lat="39.8167229" lon="8.7770903"><ele>547.0</ele><time>2026-05-03T06:25:58.777Z</time></trkpt><trkpt lat="39.8168234" lon="8.777006"><ele>546.0</ele><time>2026-05-03T06:25:59.777Z</time></trkpt><trkpt lat="39.8169234" lon="8.7769283"><ele>545.0</ele><time>2026-05-03T06:26:00.777Z</time></trkpt><trkpt lat="39.8170185" lon="8.7768549"><ele>544.0</ele><time>2026-05-03T06:26:01.777Z</time></trkpt><trkpt lat="39.8171301" lon="8.7767856"><ele>543.0</ele><time>2026-05-03T06:26:02.777Z</time></trkpt><trkpt lat="39.8172468" lon="8.7767205"><ele>544.5</ele><time>2026-05-03T06:26:03.777Z</time></trkpt><trkpt lat="39.8173627" lon="8.776654"><ele>546.0</ele><time>2026-05-03T06:26:04.776Z</time></trkpt><trkpt lat="39.8174699" lon="8.7765832"><ele>547.5</ele><time>2026-05-03T06:26:05.777Z</time></trkpt><trkpt lat="39.8175721" lon="8.7765056"><ele>549.0</ele><time>2026-05-03T06:26:06.776Z</time></trkpt><trkpt lat="39.8176753" lon="8.7764179"><ele>549.0</ele><time>2026-05-03T06:26:07.777Z</time></trkpt><trkpt lat="39.8177893" lon="8.776332"><ele>549.0</ele><time>2026-05-03T06:26:08.778Z</time></trkpt><trkpt lat="39.817897" lon="8.776252"><ele>549.0</ele><time>2026-05-03T06:26:09.777Z</time></trkpt><trkpt lat="39.8180083" lon="8.7761777"><ele>549.0</ele><time>2026-05-03T06:26:10.777Z</time></trkpt><trkpt lat="39.8181169" lon="8.7761096"><ele>549.0</ele><time>2026-05-03T06:26:11.777Z</time></trkpt><trkpt lat="39.8182247" lon="8.7760376"><ele>549.0</ele><time>2026-05-03T06:26:12.777Z</time></trkpt><trkpt lat="39.818327" lon="8.7759598"><ele>549.0</ele><time>2026-05-03T06:26:13.776Z</time></trkpt><trkpt lat="39.818434" lon="8.7758784"><ele>549.0</ele><time>2026-05-03T06:26:14.777Z</time></trkpt><trkpt lat="39.8185386" lon="8.7758017"><ele>550.0</ele><time>2026-05-03T06:26:15.779Z</time></trkpt><trkpt lat="39.8186368" lon="8.7757348"><ele>551.0</ele><time>2026-05-03T06:26:16.777Z</time></trkpt><trkpt lat="39.8187269" lon="8.7756805"><ele>552.0</ele><time>2026-05-03T06:26:17.776Z</time></trkpt><trkpt lat="39.8188203" lon="8.7756311"><ele>553.0</ele><time>2026-05-03T06:26:18.778Z</time></trkpt><trkpt lat="39.8189167" lon="8.7755902"><ele>554.0</ele><time>2026-05-03T06:26:19.778Z</time></trkpt><trkpt lat="39.819011" lon="8.7755637"><ele>554.0</ele><time>2026-05-03T06:26:20.778Z</time></trkpt><trkpt lat="39.8191046" lon="8.7755531"><ele>554.0</ele><time>2026-05-03T06:26:21.778Z</time></trkpt><trkpt lat="39.8191896" lon="8.7755555"><ele>554.0</ele><time>2026-05-03T06:26:22.777Z</time></trkpt><trkpt lat="39.8192764" lon="8.7755684"><ele>554.0</ele><time>2026-05-03T06:26:23.777Z</time></trkpt><trkpt lat="39.819372" lon="8.775584"><ele>554.0</ele><time>2026-05-03T06:26:24.779Z</time></trkpt><trkpt lat="39.819461" lon="8.7755914"><ele>553.2</ele><time>2026-05-03T06:26:25.776Z</time></trkpt><trkpt lat="39.8195473" lon="8.775581"><ele>552.4</ele><time>2026-05-03T06:26:26.779Z</time></trkpt><trkpt lat="39.8196365" lon="8.7755634"><ele>551.6</ele><time>2026-05-03T06:26:27.777Z</time></trkpt><trkpt lat="39.819733" lon="8.7755244"><ele>550.8</ele><time>2026-05-03T06:26:28.778Z</time></trkpt><trkpt lat="39.8198344" lon="8.7754744"><ele>550.0</ele><time>2026-05-03T06:26:29.777Z</time></trkpt><trkpt lat="39.8199418" lon="8.7754151"><ele>550.0</ele><time>2026-05-03T06:26:30.779Z</time></trkpt><trkpt lat="39.820055" lon="8.7753548"><ele>550.0</ele><time>2026-05-03T06:26:31.777Z</time></trkpt><trkpt lat="39.8201539" lon="8.775301"><ele>550.0</ele><time>2026-05-03T06:26:32.777Z</time></trkpt><trkpt lat="39.8202514" lon="8.775251"><ele>550.0</ele><time>2026-05-03T06:26:33.779Z</time></trkpt><trkpt lat="39.8203456" lon="8.775215"><ele>550.0</ele><time>2026-05-03T06:26:34.776Z</time></trkpt><trkpt lat="39.8204401" lon="8.7751777"><ele>548.8</ele><time>2026-05-03T06:26:35.776Z</time></trkpt><trkpt lat="39.8205319" lon="8.7751466"><ele>547.6</ele><time>2026-05-03T06:26:36.777Z</time></trkpt><trkpt lat="39.8206199" lon="8.7751086"><ele>546.4</ele><time>2026-05-03T06:26:37.777Z</time></trkpt><trkpt lat="39.8207131" lon="8.7750632"><ele>545.2</ele><time>2026-05-03T06:26:38.777Z</time></trkpt><trkpt lat="39.8208013" lon="8.7750194"><ele>544.0</ele><time>2026-05-03T06:26:39.777Z</time></trkpt><trkpt lat="39.8208835" lon="8.7749826"><ele>544.0</ele><time>2026-05-03T06:26:40.777Z</time></trkpt><trkpt lat="39.8209707" lon="8.7749426"><ele>544.0</ele><time>2026-05-03T06:26:41.777Z</time></trkpt><trkpt lat="39.8210627" lon="8.774895"><ele>544.0</ele><time>2026-05-03T06:26:42.777Z</time></trkpt><trkpt lat="39.8211491" lon="8.7748526"><ele>544.0</ele><time>2026-05-03T06:26:43.778Z</time></trkpt><trkpt lat="39.8212186" lon="8.7748122"><ele>544.0</ele><time>2026-05-03T06:26:44.777Z</time></trkpt><trkpt lat="39.821328" lon="8.7747609"><ele>542.6666666666667</ele><time>2026-05-03T06:26:46.777Z</time></trkpt><trkpt lat="39.8214164" lon="8.7747305"><ele>541.3333333333334</ele><time>2026-05-03T06:26:48.777Z</time></trkpt><trkpt lat="39.8214824" lon="8.7747148"><ele>540.0</ele><time>2026-05-03T06:26:51.777Z</time></trkpt><trkpt lat="39.821489" lon="8.7746138"><ele>538.6666666666666</ele><time>2026-05-03T06:26:54.777Z</time></trkpt><trkpt lat="39.8214417" lon="8.7744855"><ele>537.3333333333333</ele><time>2026-05-03T06:26:56.777Z</time></trkpt><trkpt lat="39.8214141" lon="8.774403"><ele>536.0</ele><time>2026-05-03T06:26:57.777Z</time></trkpt><trkpt lat="39.8213924" lon="8.7743029"><ele>535.1666666666666</ele><time>2026-05-03T06:26:58.778Z</time></trkpt><trkpt lat="39.8213679" lon="8.7742032"><ele>534.3333333333333</ele><time>2026-05-03T06:26:59.779Z</time></trkpt><trkpt lat="39.8213311" lon="8.7740872"><ele>533.5</ele><time>2026-05-03T06:27:00.777Z</time></trkpt><trkpt lat="39.8213018" lon="8.7739866"><ele>532.6666666666666</ele><time>2026-05-03T06:27:01.779Z</time></trkpt><trkpt lat="39.8212763" lon="8.7738842"><ele>531.8333333333334</ele><time>2026-05-03T06:27:02.779Z</time></trkpt><trkpt lat="39.821242" lon="8.7737782"><ele>531.0</ele><time>2026-05-03T06:27:03.777Z</time></trkpt><trkpt lat="39.8212132" lon="8.7736702"><ele>531.0</ele><time>2026-05-03T06:27:04.777Z</time></trkpt><trkpt lat="39.8211892" lon="8.7735647"><ele>531.0</ele><time>2026-05-03T06:27:05.776Z</time></trkpt><trkpt lat="39.8211676" lon="8.7734578"><ele>531.0</ele><time>2026-05-03T06:27:06.776Z</time></trkpt><trkpt lat="39.8211551" lon="8.7733619"><ele>531.0</ele><time>2026-05-03T06:27:07.778Z</time></trkpt><trkpt lat="39.8211468" lon="8.7732638"><ele>531.0</ele><time>2026-05-03T06:27:08.778Z</time></trkpt><trkpt lat="39.8211404" lon="8.7731609"><ele>531.0</ele><time>2026-05-03T06:27:09.777Z</time></trkpt><trkpt lat="39.8211357" lon="8.7730495"><ele>530.8</ele><time>2026-05-03T06:27:10.777Z</time></trkpt><trkpt lat="39.8211369" lon="8.7729239"><ele>530.6</ele><time>2026-05-03T06:27:11.777Z</time></trkpt><trkpt lat="39.8211355" lon="8.772799"><ele>530.4</ele><time>2026-05-03T06:27:12.777Z</time></trkpt><trkpt lat="39.8211343" lon="8.7726765"><ele>530.2</ele><time>2026-05-03T06:27:13.776Z</time></trkpt><trkpt lat="39.8211374" lon="8.7725543"><ele>530.0</ele><time>2026-05-03T06:27:14.777Z</time></trkpt><trkpt lat="39.821147" lon="8.7724396"><ele>530.0</ele><time>2026-05-03T06:27:15.777Z</time></trkpt><trkpt lat="39.8211478" lon="8.7723179"><ele>530.0</ele><time>2026-05-03T06:27:16.777Z</time></trkpt><trkpt lat="39.8211462" lon="8.7721893"><ele>530.0</ele><time>2026-05-03T06:27:17.777Z</time></trkpt><trkpt lat="39.8211441" lon="8.7720649"><ele>530.0</ele><time>2026-05-03T06:27:18.778Z</time></trkpt><trkpt lat="39.8211393" lon="8.7719418"><ele>530.0</ele><time>2026-05-03T06:27:19.777Z</time></trkpt><trkpt lat="39.8211369" lon="8.7718225"><ele>530.1666666666666</ele><time>2026-05-03T06:27:20.778Z</time></trkpt><trkpt lat="39.8211303" lon="8.7717195"><ele>530.3333333333333</ele><time>2026-05-03T06:27:21.776Z</time></trkpt><trkpt lat="39.8211296" lon="8.7716205"><ele>530.5</ele><time>2026-05-03T06:27:22.777Z</time></trkpt><trkpt lat="39.8211376" lon="8.771521"><ele>530.6666666666666</ele><time>2026-05-03T06:27:23.777Z</time></trkpt><trkpt lat="39.8211351" lon="8.7713996"><ele>530.8333333333334</ele><time>2026-05-03T06:27:24.777Z</time></trkpt><trkpt lat="39.8211367" lon="8.7712831"><ele>531.0</ele><time>2026-05-03T06:27:25.778Z</time></trkpt><trkpt lat="39.8211327" lon="8.7711642"><ele>531.0</ele><time>2026-05-03T06:27:26.777Z</time></trkpt><trkpt lat="39.8211358" lon="8.7710341"><ele>531.0</ele><time>2026-05-03T06:27:27.778Z</time></trkpt><trkpt lat="39.8211327" lon="8.7709153"><ele>531.0</ele><time>2026-05-03T06:27:28.776Z</time></trkpt><trkpt lat="39.8211349" lon="8.7707972"><ele>531.0</ele><time>2026-05-03T06:27:29.776Z</time></trkpt><trkpt lat="39.8211358" lon="8.770678"><ele>531.0</ele><time>2026-05-03T06:27:30.778Z</time></trkpt><trkpt lat="39.8211405" lon="8.7705587"><ele>532.6</ele><time>2026-05-03T06:27:31.776Z</time></trkpt><trkpt lat="39.8211413" lon="8.7704369"><ele>534.2</ele><time>2026-05-03T06:27:32.777Z</time></trkpt><trkpt lat="39.8211477" lon="8.7703246"><ele>535.8</ele><time>2026-05-03T06:27:33.777Z</time></trkpt><trkpt lat="39.821146" lon="8.7701922"><ele>537.4</ele><time>2026-05-03T06:27:34.777Z</time></trkpt><trkpt lat="39.8211491" lon="8.7700687"><ele>539.0</ele><time>2026-05-03T06:27:35.777Z</time></trkpt><trkpt lat="39.8211448" lon="8.769947"><ele>540.8</ele><time>2026-05-03T06:27:36.777Z</time></trkpt><trkpt lat="39.8211502" lon="8.7698366"><ele>542.5999999999999</ele><time>2026-05-03T06:27:37.776Z</time></trkpt><trkpt lat="39.8211366" lon="8.769728"><ele>544.4</ele><time>2026-05-03T06:27:38.777Z</time></trkpt><trkpt lat="39.8211094" lon="8.7696105"><ele>546.1999999999999</ele><time>2026-05-03T06:27:39.777Z</time></trkpt><trkpt lat="39.8210813" lon="8.7694973"><ele>548.0</ele><time>2026-05-03T06:27:40.776Z</time></trkpt><trkpt lat="39.8210403" lon="8.7693718"><ele>548.6</ele><time>2026-05-03T06:27:41.778Z</time></trkpt><trkpt lat="39.8210102" lon="8.7692533"><ele>549.1999999999999</ele><time>2026-05-03T06:27:42.778Z</time></trkpt><trkpt lat="39.8209664" lon="8.7691208"><ele>549.8</ele><time>2026-05-03T06:27:43.777Z</time></trkpt><trkpt lat="39.820928" lon="8.7690023"><ele>550.4</ele><time>2026-05-03T06:27:44.776Z</time></trkpt><trkpt lat="39.8208834" lon="8.768886"><ele>551.0</ele><time>2026-05-03T06:27:45.776Z</time></trkpt><trkpt lat="39.8208454" lon="8.7687702"><ele>549.2</ele><time>2026-05-03T06:27:46.777Z</time></trkpt><trkpt lat="39.8207993" lon="8.7686516"><ele>547.4000000000001</ele><time>2026-05-03T06:27:47.776Z</time></trkpt><trkpt lat="39.8207561" lon="8.7685352"><ele>545.6</ele><time>2026-05-03T06:27:48.778Z</time></trkpt><trkpt lat="39.8207098" lon="8.7684049"><ele>543.8000000000001</ele><time>2026-05-03T06:27:49.777Z</time></trkpt><trkpt lat="39.8206744" lon="8.7682726"><ele>542.0</ele><time>2026-05-03T06:27:50.777Z</time></trkpt><trkpt lat="39.8206461" lon="8.7681585"><ele>542.0</ele><time>2026-05-03T06:27:51.776Z</time></trkpt><trkpt lat="39.8206112" lon="8.7680646"><ele>542.0</ele><time>2026-05-03T06:27:52.778Z</time></trkpt><trkpt lat="39.8205864" lon="8.7679769"><ele>542.0</ele><time>2026-05-03T06:27:53.777Z</time></trkpt><trkpt lat="39.820563" lon="8.7678867"><ele>542.0</ele><time>2026-05-03T06:27:54.776Z</time></trkpt><trkpt lat="39.8205486" lon="8.7677919"><ele>542.0</ele><time>2026-05-03T06:27:55.776Z</time></trkpt><trkpt lat="39.8205416" lon="8.7676892"><ele>542.0</ele><time>2026-05-03T06:27:56.778Z</time></trkpt><trkpt lat="39.8205398" lon="8.7675926"><ele>541.5</ele><time>2026-05-03T06:27:57.778Z</time></trkpt><trkpt lat="39.8205492" lon="8.7675043"><ele>541.0</ele><time>2026-05-03T06:27:58.778Z</time></trkpt><trkpt lat="39.820557" lon="8.7674159"><ele>540.5</ele><time>2026-05-03T06:27:59.777Z</time></trkpt><trkpt lat="39.8205816" lon="8.7673195"><ele>540.0</ele><time>2026-05-03T06:28:00.776Z</time></trkpt><trkpt lat="39.8206062" lon="8.7672197"><ele>539.5</ele><time>2026-05-03T06:28:01.777Z</time></trkpt><trkpt lat="39.8206397" lon="8.7671321"><ele>539.0</ele><time>2026-05-03T06:28:02.778Z</time></trkpt><trkpt lat="39.8206802" lon="8.7670296"><ele>539.0</ele><time>2026-05-03T06:28:03.778Z</time></trkpt><trkpt lat="39.8207202" lon="8.7669294"><ele>539.0</ele><time>2026-05-03T06:28:04.777Z</time></trkpt><trkpt lat="39.8207579" lon="8.7668347"><ele>539.0</ele><time>2026-05-03T06:28:05.777Z</time></trkpt><trkpt lat="39.8208006" lon="8.7667486"><ele>539.0</ele><time>2026-05-03T06:28:06.778Z</time></trkpt><trkpt lat="39.8208547" lon="8.766651"><ele>539.0</ele><time>2026-05-03T06:28:07.778Z</time></trkpt><trkpt lat="39.8209156" lon="8.7665622"><ele>539.0</ele><time>2026-05-03T06:28:08.778Z</time></trkpt><trkpt lat="39.8209849" lon="8.7664667"><ele>537.5</ele><time>2026-05-03T06:28:09.778Z</time></trkpt><trkpt lat="39.8210413" lon="8.7663751"><ele>536.0</ele><time>2026-05-03T06:28:10.777Z</time></trkpt><trkpt lat="39.8210935" lon="8.7662969"><ele>534.5</ele><time>2026-05-03T06:28:11.778Z</time></trkpt><trkpt lat="39.8211469" lon="8.7662399"><ele>533.0</ele><time>2026-05-03T06:28:12.777Z</time></trkpt><trkpt lat="39.8212101" lon="8.7661887"><ele>531.5</ele><time>2026-05-03T06:28:13.777Z</time></trkpt><trkpt lat="39.8212796" lon="8.7661427"><ele>530.0</ele><time>2026-05-03T06:28:14.778Z</time></trkpt><trkpt lat="39.8213564" lon="8.7661091"><ele>530.0</ele><time>2026-05-03T06:28:15.777Z</time></trkpt><trkpt lat="39.8214365" lon="8.7660931"><ele>530.0</ele><time>2026-05-03T06:28:16.777Z</time></trkpt><trkpt lat="39.8215255" lon="8.7660875"><ele>530.0</ele><time>2026-05-03T06:28:17.776Z</time></trkpt><trkpt lat="39.8216281" lon="8.7660912"><ele>530.0</ele><time>2026-05-03T06:28:18.777Z</time></trkpt><trkpt lat="39.8217307" lon="8.7660924"><ele>530.0</ele><time>2026-05-03T06:28:19.777Z</time></trkpt><trkpt lat="39.8218325" lon="8.7660875"><ele>529.6</ele><time>2026-05-03T06:28:20.777Z</time></trkpt><trkpt lat="39.821933" lon="8.7660803"><ele>529.2</ele><time>2026-05-03T06:28:21.778Z</time></trkpt><trkpt lat="39.8220412" lon="8.7660895"><ele>528.8</ele><time>2026-05-03T06:28:22.777Z</time></trkpt><trkpt lat="39.8221435" lon="8.766091"><ele>528.4</ele><time>2026-05-03T06:28:23.778Z</time></trkpt><trkpt lat="39.8222454" lon="8.7660841"><ele>528.0</ele><time>2026-05-03T06:28:24.777Z</time></trkpt><trkpt lat="39.8223453" lon="8.7660786"><ele>528.0</ele><time>2026-05-03T06:28:25.776Z</time></trkpt><trkpt lat="39.8224468" lon="8.7660675"><ele>528.0</ele><time>2026-05-03T06:28:26.778Z</time></trkpt><trkpt lat="39.8225463" lon="8.7660485"><ele>528.0</ele><time>2026-05-03T06:28:27.778Z</time></trkpt><trkpt lat="39.8226536" lon="8.7660127"><ele>528.0</ele><time>2026-05-03T06:28:28.777Z</time></trkpt><trkpt lat="39.8227496" lon="8.7659649"><ele>528.0</ele><time>2026-05-03T06:28:29.777Z</time></trkpt><trkpt lat="39.8228483" lon="8.7659076"><ele>528.8</ele><time>2026-05-03T06:28:30.777Z</time></trkpt><trkpt lat="39.8229461" lon="8.7658464"><ele>529.5999999999999</ele><time>2026-05-03T06:28:31.777Z</time></trkpt><trkpt lat="39.8230412" lon="8.7657736"><ele>530.4000000000001</ele><time>2026-05-03T06:28:32.778Z</time></trkpt><trkpt lat="39.8231367" lon="8.7657049"><ele>531.2</ele><time>2026-05-03T06:28:33.778Z</time></trkpt><trkpt lat="39.8232344" lon="8.7656276"><ele>532.0</ele><time>2026-05-03T06:28:34.778Z</time></trkpt><trkpt lat="39.8233292" lon="8.7655573"><ele>532.0</ele><time>2026-05-03T06:28:35.778Z</time></trkpt><trkpt lat="39.8234225" lon="8.7654932"><ele>532.0</ele><time>2026-05-03T06:28:36.776Z</time></trkpt><trkpt lat="39.8235085" lon="8.7654332"><ele>532.0</ele><time>2026-05-03T06:28:37.776Z</time></trkpt><trkpt lat="39.823595" lon="8.7653809"><ele>532.0</ele><time>2026-05-03T06:28:38.777Z</time></trkpt><trkpt lat="39.8236801" lon="8.7653335"><ele>532.0</ele><time>2026-05-03T06:28:39.777Z</time></trkpt><trkpt lat="39.8237647" lon="8.7652883"><ele>533.6</ele><time>2026-05-03T06:28:40.778Z</time></trkpt><trkpt lat="39.823842" lon="8.7652243"><ele>535.2</ele><time>2026-05-03T06:28:41.777Z</time></trkpt><trkpt lat="39.8239192" lon="8.7651608"><ele>536.8</ele><time>2026-05-03T06:28:42.779Z</time></trkpt><trkpt lat="39.824006" lon="8.7650937"><ele>538.4</ele><time>2026-05-03T06:28:43.777Z</time></trkpt><trkpt lat="39.8240927" lon="8.7650326"><ele>540.0</ele><time>2026-05-03T06:28:44.779Z</time></trkpt><trkpt lat="39.8241772" lon="8.764965"><ele>540.0</ele><time>2026-05-03T06:28:45.778Z</time></trkpt><trkpt lat="39.824245" lon="8.7649043"><ele>540.0</ele><time>2026-05-03T06:28:46.778Z</time></trkpt><trkpt lat="39.8243059" lon="8.7648446"><ele>540.0</ele><time>2026-05-03T06:28:47.779Z</time></trkpt><trkpt lat="39.8243605" lon="8.7647887"><ele>540.0</ele><time>2026-05-03T06:28:48.777Z</time></trkpt><trkpt lat="39.8244434" lon="8.7646902"><ele>540.0</ele><time>2026-05-03T06:28:50.778Z</time></trkpt><trkpt lat="39.8245013" lon="8.7645976"><ele>540.0</ele><time>2026-05-03T06:28:52.776Z</time></trkpt><trkpt lat="39.8245453" lon="8.7644754"><ele>542.5</ele><time>2026-05-03T06:28:54.777Z</time></trkpt><trkpt lat="39.8245899" lon="8.7643299"><ele>545.0</ele><time>2026-05-03T06:28:56.777Z</time></trkpt><trkpt lat="39.8246176" lon="8.7641848"><ele>547.5</ele><time>2026-05-03T06:28:58.779Z</time></trkpt><trkpt lat="39.8246542" lon="8.7640483"><ele>550.0</ele><time>2026-05-03T06:29:00.778Z</time></trkpt><trkpt lat="39.8246933" lon="8.7639066"><ele>550.0</ele><time>2026-05-03T06:29:02.776Z</time></trkpt><trkpt lat="39.8247395" lon="8.7637469"><ele>550.0</ele><time>2026-05-03T06:29:04.777Z</time></trkpt><trkpt lat="39.8247679" lon="8.7636574"><ele>550.0</ele><time>2026-05-03T06:29:05.776Z</time></trkpt><trkpt lat="39.8248107" lon="8.7635558"><ele>550.0</ele><time>2026-05-03T06:29:06.778Z</time></trkpt><trkpt lat="39.824861" lon="8.763447"><ele>550.0</ele><time>2026-05-03T06:29:07.778Z</time></trkpt><trkpt lat="39.8249064" lon="8.7633422"><ele>550.4</ele><time>2026-05-03T06:29:08.779Z</time></trkpt><trkpt lat="39.8249556" lon="8.7632395"><ele>550.8</ele><time>2026-05-03T06:29:09.778Z</time></trkpt><trkpt lat="39.8250072" lon="8.7631364"><ele>551.2</ele><time>2026-05-03T06:29:10.777Z</time></trkpt><trkpt lat="39.8250571" lon="8.7630272"><ele>551.6</ele><time>2026-05-03T06:29:11.776Z</time></trkpt><trkpt lat="39.8251057" lon="8.7629162"><ele>552.0</ele><time>2026-05-03T06:29:12.778Z</time></trkpt><trkpt lat="39.8251552" lon="8.7628048"><ele>553.8333333333334</ele><time>2026-05-03T06:29:13.777Z</time></trkpt><trkpt lat="39.825204" lon="8.7626995"><ele>555.6666666666666</ele><time>2026-05-03T06:29:14.776Z</time></trkpt><trkpt lat="39.8252478" lon="8.7626041"><ele>557.5</ele><time>2026-05-03T06:29:15.777Z</time></trkpt><trkpt lat="39.825284" lon="8.7625121"><ele>559.3333333333333</ele><time>2026-05-03T06:29:16.778Z</time></trkpt><trkpt lat="39.8253238" lon="8.7624262"><ele>561.1666666666666</ele><time>2026-05-03T06:29:17.778Z</time></trkpt><trkpt lat="39.8253614" lon="8.7623369"><ele>563.0</ele><time>2026-05-03T06:29:18.777Z</time></trkpt><trkpt lat="39.8254021" lon="8.7622476"><ele>563.0</ele><time>2026-05-03T06:29:19.778Z</time></trkpt><trkpt lat="39.8254405" lon="8.7621509"><ele>563.0</ele><time>2026-05-03T06:29:20.777Z</time></trkpt><trkpt lat="39.8254837" lon="8.7620466"><ele>563.0</ele><time>2026-05-03T06:29:21.777Z</time></trkpt><trkpt lat="39.8255313" lon="8.7619482"><ele>563.0</ele><time>2026-05-03T06:29:22.779Z</time></trkpt><trkpt lat="39.8255766" lon="8.7618453"><ele>563.0</ele><time>2026-05-03T06:29:23.777Z</time></trkpt><trkpt lat="39.8256168" lon="8.761742"><ele>563.0</ele><time>2026-05-03T06:29:24.777Z</time></trkpt><trkpt lat="39.8256559" lon="8.7616361"><ele>562.1999999999999</ele><time>2026-05-03T06:29:25.776Z</time></trkpt><trkpt lat="39.8256999" lon="8.7615239"><ele>561.4</ele><time>2026-05-03T06:29:26.779Z</time></trkpt><trkpt lat="39.8257447" lon="8.7614176"><ele>560.5999999999999</ele><time>2026-05-03T06:29:27.778Z</time></trkpt><trkpt lat="39.8257879" lon="8.761317"><ele>559.8</ele><time>2026-05-03T06:29:28.777Z</time></trkpt><trkpt lat="39.825842" lon="8.7612223"><ele>559.0</ele><time>2026-05-03T06:29:29.778Z</time></trkpt><trkpt lat="39.8258788" lon="8.7611234"><ele>559.2</ele><time>2026-05-03T06:29:30.777Z</time></trkpt><trkpt lat="39.8259138" lon="8.7610171"><ele>559.4</ele><time>2026-05-03T06:29:31.777Z</time></trkpt><trkpt lat="39.8259544" lon="8.7609295"><ele>559.6</ele><time>2026-05-03T06:29:32.777Z</time></trkpt><trkpt lat="39.8259805" lon="8.7608535"><ele>559.8</ele><time>2026-05-03T06:29:33.778Z</time></trkpt><trkpt lat="39.82598" lon="8.7607057"><ele>560.0</ele><time>2026-05-03T06:29:35.777Z</time></trkpt><trkpt lat="39.8259108" lon="8.760603"><ele>560.0</ele><time>2026-05-03T06:29:37.776Z</time></trkpt><trkpt lat="39.8258019" lon="8.7605949"><ele>560.0</ele><time>2026-05-03T06:29:39.777Z</time></trkpt><trkpt lat="39.8257338" lon="8.7606034"><ele>560.0</ele><time>2026-05-03T06:29:40.777Z</time></trkpt><trkpt lat="39.8256589" lon="8.760614"><ele>560.0</ele><time>2026-05-03T06:29:41.777Z</time></trkpt><trkpt lat="39.8255752" lon="8.7606214"><ele>560.0</ele><time>2026-05-03T06:29:42.778Z</time></trkpt><trkpt lat="39.8254882" lon="8.7606239"><ele>560.0</ele><time>2026-05-03T06:29:43.778Z</time></trkpt><trkpt lat="39.8254002" lon="8.7606194"><ele>560.0</ele><time>2026-05-03T06:29:44.777Z</time></trkpt><trkpt lat="39.8253142" lon="8.7605988"><ele>560.0</ele><time>2026-05-03T06:29:45.778Z</time></trkpt><trkpt lat="39.8252301" lon="8.7605635"><ele>560.0</ele><time>2026-05-03T06:29:46.778Z</time></trkpt><trkpt lat="39.8251462" lon="8.7605296"><ele>560.0</ele><time>2026-05-03T06:29:47.777Z</time></trkpt><trkpt lat="39.8250613" lon="8.7604875"><ele>560.0</ele><time>2026-05-03T06:29:48.777Z</time></trkpt><trkpt lat="39.8249784" lon="8.7604416"><ele>560.0</ele><time>2026-05-03T06:29:49.779Z</time></trkpt><trkpt lat="39.8249034" lon="8.760389"><ele>559.5</ele><time>2026-05-03T06:29:50.779Z</time></trkpt><trkpt lat="39.8248294" lon="8.7603243"><ele>559.0</ele><time>2026-05-03T06:29:51.777Z</time></trkpt><trkpt lat="39.824757" lon="8.7602707"><ele>558.5</ele><time>2026-05-03T06:29:52.777Z</time></trkpt><trkpt lat="39.8246918" lon="8.7602285"><ele>558.0</ele><time>2026-05-03T06:29:53.778Z</time></trkpt><trkpt lat="39.8246082" lon="8.760166"><ele>557.5</ele><time>2026-05-03T06:29:55.778Z</time></trkpt><trkpt lat="39.8245887" lon="8.7600711"><ele>557.0</ele><time>2026-05-03T06:29:58.778Z</time></trkpt><trkpt lat="39.8246151" lon="8.7599762"><ele>559.6</ele><time>2026-05-03T06:30:01.779Z</time></trkpt><trkpt lat="39.824652" lon="8.7599086"><ele>562.2</ele><time>2026-05-03T06:30:08.778Z</time></trkpt><trkpt lat="39.824688" lon="8.7597965"><ele>564.8</ele><time>2026-05-03T06:30:10.777Z</time></trkpt><trkpt lat="39.8247411" lon="8.7596443"><ele>567.4</ele><time>2026-05-03T06:30:12.779Z</time></trkpt><trkpt lat="39.8248165" lon="8.7595668"><ele>570.0</ele><time>2026-05-03T06:30:14.778Z</time></trkpt><trkpt lat="39.8249049" lon="8.7596102"><ele>570.0</ele><time>2026-05-03T06:30:16.779Z</time></trkpt><trkpt lat="39.824975" lon="8.7596806"><ele>570.0</ele><time>2026-05-03T06:30:18.778Z</time></trkpt><trkpt lat="39.8250342" lon="8.7597164"><ele>570.0</ele><time>2026-05-03T06:30:19.777Z</time></trkpt><trkpt lat="39.8251289" lon="8.759739"><ele>570.0</ele><time>2026-05-03T06:30:21.778Z</time></trkpt><trkpt lat="39.825248" lon="8.7597283"><ele>570.0</ele><time>2026-05-03T06:30:23.778Z</time></trkpt><trkpt lat="39.8253263" lon="8.7597103"><ele>570.0</ele><time>2026-05-03T06:30:24.776Z</time></trkpt><trkpt lat="39.8254178" lon="8.759698"><ele>570.8</ele><time>2026-05-03T06:30:25.778Z</time></trkpt><trkpt lat="39.8255104" lon="8.759697"><ele>571.6</ele><time>2026-05-03T06:30:26.776Z</time></trkpt><trkpt lat="39.8256071" lon="8.7596935"><ele>572.4</ele><time>2026-05-03T06:30:27.777Z</time></trkpt><trkpt lat="39.8256989" lon="8.7596879"><ele>573.2</ele><time>2026-05-03T06:30:28.778Z</time></trkpt><trkpt lat="39.8257887" lon="8.7596675"><ele>574.0</ele><time>2026-05-03T06:30:29.777Z</time></trkpt><trkpt lat="39.8258706" lon="8.7596368"><ele>574.0</ele><time>2026-05-03T06:30:30.777Z</time></trkpt><trkpt lat="39.8259575" lon="8.759601"><ele>574.0</ele><time>2026-05-03T06:30:31.778Z</time></trkpt><trkpt lat="39.8260361" lon="8.759564"><ele>574.0</ele><time>2026-05-03T06:30:32.776Z</time></trkpt><trkpt lat="39.8261153" lon="8.7595226"><ele>574.0</ele><time>2026-05-03T06:30:33.779Z</time></trkpt><trkpt lat="39.8261896" lon="8.7594826"><ele>574.0</ele><time>2026-05-03T06:30:34.778Z</time></trkpt><trkpt lat="39.8262556" lon="8.7594507"><ele>574.0</ele><time>2026-05-03T06:30:35.777Z</time></trkpt><trkpt lat="39.826326" lon="8.7594233"><ele>575.1428571428571</ele><time>2026-05-03T06:30:36.777Z</time></trkpt><trkpt lat="39.8263952" lon="8.759422"><ele>576.2857142857142</ele><time>2026-05-03T06:30:37.778Z</time></trkpt><trkpt lat="39.82647" lon="8.7594357"><ele>577.4285714285714</ele><time>2026-05-03T06:30:38.778Z</time></trkpt><trkpt lat="39.8265401" lon="8.7594552"><ele>578.5714285714286</ele><time>2026-05-03T06:30:39.779Z</time></trkpt><trkpt lat="39.8266125" lon="8.7594865"><ele>579.7142857142857</ele><time>2026-05-03T06:30:40.778Z</time></trkpt><trkpt lat="39.8266833" lon="8.7595206"><ele>580.8571428571429</ele><time>2026-05-03T06:30:41.778Z</time></trkpt><trkpt lat="39.8267505" lon="8.7595482"><ele>582.0</ele><time>2026-05-03T06:30:42.776Z</time></trkpt><trkpt lat="39.8268629" lon="8.7595623"><ele>584.6</ele><time>2026-05-03T06:30:44.778Z</time></trkpt><trkpt lat="39.8269656" lon="8.7595943"><ele>587.2</ele><time>2026-05-03T06:30:46.777Z</time></trkpt><trkpt lat="39.8270824" lon="8.7596302"><ele>589.8</ele><time>2026-05-03T06:30:48.778Z</time></trkpt><trkpt lat="39.8271473" lon="8.7596454"><ele>592.4</ele><time>2026-05-03T06:30:49.777Z</time></trkpt><trkpt lat="39.8272689" lon="8.7596521"><ele>595.0</ele><time>2026-05-03T06:30:51.777Z</time></trkpt><trkpt lat="39.827332" lon="8.7596616"><ele>595.0</ele><time>2026-05-03T06:30:52.777Z</time></trkpt><trkpt lat="39.8274013" lon="8.7596865"><ele>595.0</ele><time>2026-05-03T06:30:53.778Z</time></trkpt><trkpt lat="39.8275125" lon="8.7597211"><ele>595.0</ele><time>2026-05-03T06:30:55.777Z</time></trkpt><trkpt lat="39.8276114" lon="8.7597165"><ele>595.0</ele><time>2026-05-03T06:30:57.778Z</time></trkpt><trkpt lat="39.8276499" lon="8.7596205"><ele>595.0</ele><time>2026-05-03T06:31:00.778Z</time></trkpt><trkpt lat="39.8276338" lon="8.7594661"><ele>595.0</ele><time>2026-05-03T06:31:02.777Z</time></trkpt><trkpt lat="39.8276151" lon="8.7593796"><ele>595.0</ele><time>2026-05-03T06:31:03.778Z</time></trkpt><trkpt lat="39.8275767" lon="8.7592186"><ele>595.0</ele><time>2026-05-03T06:31:05.779Z</time></trkpt><trkpt lat="39.8275492" lon="8.7591343"><ele>595.0</ele><time>2026-05-03T06:31:06.777Z</time></trkpt><trkpt lat="39.8275127" lon="8.7590619"><ele>595.0</ele><time>2026-05-03T06:31:07.777Z</time></trkpt><trkpt lat="39.8274604" lon="8.7590029"><ele>595.0</ele><time>2026-05-03T06:31:08.778Z</time></trkpt><trkpt lat="39.8273901" lon="8.7589536"><ele>597.6</ele><time>2026-05-03T06:31:09.778Z</time></trkpt><trkpt lat="39.8273108" lon="8.7589136"><ele>600.2</ele><time>2026-05-03T06:31:10.778Z</time></trkpt><trkpt lat="39.8272234" lon="8.7588759"><ele>602.8</ele><time>2026-05-03T06:31:11.778Z</time></trkpt><trkpt lat="39.8271383" lon="8.7588422"><ele>605.4</ele><time>2026-05-03T06:31:12.778Z</time></trkpt><trkpt lat="39.8270414" lon="8.7587958"><ele>608.0</ele><time>2026-05-03T06:31:13.777Z</time></trkpt><trkpt lat="39.8269434" lon="8.7587491"><ele>608.0</ele><time>2026-05-03T06:31:14.778Z</time></trkpt><trkpt lat="39.8268418" lon="8.7587133"><ele>608.0</ele><time>2026-05-03T06:31:15.776Z</time></trkpt><trkpt lat="39.8267505" lon="8.7586868"><ele>608.0</ele><time>2026-05-03T06:31:16.779Z</time></trkpt><trkpt lat="39.826667" lon="8.7586637"><ele>608.0</ele><time>2026-05-03T06:31:17.778Z</time></trkpt><trkpt lat="39.826586" lon="8.7586484"><ele>608.0</ele><time>2026-05-03T06:31:18.777Z</time></trkpt><trkpt lat="39.8265101" lon="8.7586322"><ele>608.0</ele><time>2026-05-03T06:31:19.778Z</time></trkpt><trkpt lat="39.8264465" lon="8.7585905"><ele>607.4</ele><time>2026-05-03T06:31:20.778Z</time></trkpt><trkpt lat="39.8263616" lon="8.7584852"><ele>606.8</ele><time>2026-05-03T06:31:22.778Z</time></trkpt><trkpt lat="39.8263167" lon="8.7583272"><ele>606.2</ele><time>2026-05-03T06:31:24.778Z</time></trkpt><trkpt lat="39.8263015" lon="8.7582337"><ele>605.6</ele><time>2026-05-03T06:31:25.779Z</time></trkpt><trkpt lat="39.826287" lon="8.7581287"><ele>605.0</ele><time>2026-05-03T06:31:26.778Z</time></trkpt><trkpt lat="39.8262699" lon="8.7580139"><ele>605.0</ele><time>2026-05-03T06:31:27.778Z</time></trkpt><trkpt lat="39.8262555" lon="8.757901"><ele>605.0</ele><time>2026-05-03T06:31:28.777Z</time></trkpt><trkpt lat="39.8262476" lon="8.7577849"><ele>605.0</ele><time>2026-05-03T06:31:29.777Z</time></trkpt><trkpt lat="39.8262432" lon="8.7576768"><ele>605.0</ele><time>2026-05-03T06:31:30.777Z</time></trkpt><trkpt lat="39.8262456" lon="8.7575684"><ele>605.0</ele><time>2026-05-03T06:31:31.776Z</time></trkpt><trkpt lat="39.826254" lon="8.7574562"><ele>605.0</ele><time>2026-05-03T06:31:32.778Z</time></trkpt><trkpt lat="39.8262557" lon="8.7573291"><ele>602.8333333333333</ele><time>2026-05-03T06:31:33.778Z</time></trkpt><trkpt lat="39.8262584" lon="8.7572014"><ele>600.6666666666666</ele><time>2026-05-03T06:31:34.778Z</time></trkpt><trkpt lat="39.8262644" lon="8.7570845"><ele>598.5</ele><time>2026-05-03T06:31:35.778Z</time></trkpt><trkpt lat="39.8262691" lon="8.7569752"><ele>596.3333333333334</ele><time>2026-05-03T06:31:36.776Z</time></trkpt><trkpt lat="39.8262707" lon="8.7568695"><ele>594.1666666666667</ele><time>2026-05-03T06:31:37.777Z</time></trkpt><trkpt lat="39.8262653" lon="8.7567756"><ele>592.0</ele><time>2026-05-03T06:31:38.777Z</time></trkpt><trkpt lat="39.8262524" lon="8.7566797"><ele>591.6666666666667</ele><time>2026-05-03T06:31:39.779Z</time></trkpt><trkpt lat="39.826242" lon="8.756583"><ele>591.3333333333334</ele><time>2026-05-03T06:31:40.777Z</time></trkpt><trkpt lat="39.8262305" lon="8.7564822"><ele>591.0</ele><time>2026-05-03T06:31:41.778Z</time></trkpt><trkpt lat="39.8262242" lon="8.7563927"><ele>590.6666666666666</ele><time>2026-05-03T06:31:42.778Z</time></trkpt><trkpt lat="39.8262116" lon="8.7562376"><ele>590.3333333333333</ele><time>2026-05-03T06:31:44.779Z</time></trkpt><trkpt lat="39.8262043" lon="8.7560994"><ele>590.0</ele><time>2026-05-03T06:31:46.777Z</time></trkpt><trkpt lat="39.8262301" lon="8.7559746"><ele>592.0</ele><time>2026-05-03T06:31:48.777Z</time></trkpt><trkpt lat="39.8262847" lon="8.7559042"><ele>594.0</ele><time>2026-05-03T06:31:50.778Z</time></trkpt><trkpt lat="39.8263801" lon="8.7558699"><ele>596.0</ele><time>2026-05-03T06:31:52.779Z</time></trkpt><trkpt lat="39.8264941" lon="8.7558559"><ele>598.0</ele><time>2026-05-03T06:31:54.779Z</time></trkpt><trkpt lat="39.8266039" lon="8.7558359"><ele>600.0</ele><time>2026-05-03T06:31:56.777Z</time></trkpt><trkpt lat="39.8267389" lon="8.7558051"><ele>599.9999999999999</ele><time>2026-05-03T06:31:58.777Z</time></trkpt><trkpt lat="39.8268096" lon="8.7557968"><ele>600.0</ele><time>2026-05-03T06:31:59.778Z</time></trkpt><trkpt lat="39.8268759" lon="8.7557858"><ele>600.0</ele><time>2026-05-03T06:32:00.778Z</time></trkpt><trkpt lat="39.8269388" lon="8.755776"><ele>600.0</ele><time>2026-05-03T06:32:01.776Z</time></trkpt><trkpt lat="39.8270058" lon="8.7557662"><ele>600.0</ele><time>2026-05-03T06:32:02.777Z</time></trkpt><trkpt lat="39.8270797" lon="8.7557471"><ele>599.9999999999999</ele><time>2026-05-03T06:32:03.778Z</time></trkpt><trkpt lat="39.8271506" lon="8.7557188"><ele>600.0</ele><time>2026-05-03T06:32:04.777Z</time></trkpt><trkpt lat="39.8272141" lon="8.7556806"><ele>596.8333333333334</ele><time>2026-05-03T06:32:05.778Z</time></trkpt><trkpt lat="39.8272838" lon="8.7556306"><ele>593.6666666666666</ele><time>2026-05-03T06:32:06.778Z</time></trkpt><trkpt lat="39.8273499" lon="8.7555759"><ele>590.5</ele><time>2026-05-03T06:32:07.777Z</time></trkpt><trkpt lat="39.8274162" lon="8.7555045"><ele>587.3333333333333</ele><time>2026-05-03T06:32:08.778Z</time></trkpt><trkpt lat="39.8274843" lon="8.75542"><ele>584.1666666666666</ele><time>2026-05-03T06:32:09.778Z</time></trkpt><trkpt lat="39.8275543" lon="8.7553344"><ele>581.0</ele><time>2026-05-03T06:32:10.776Z</time></trkpt><trkpt lat="39.8276206" lon="8.7552499"><ele>580.0</ele><time>2026-05-03T06:32:11.778Z</time></trkpt><trkpt lat="39.8276899" lon="8.7551578"><ele>579.0</ele><time>2026-05-03T06:32:12.779Z</time></trkpt><trkpt lat="39.8277614" lon="8.7550786"><ele>578.0</ele><time>2026-05-03T06:32:13.777Z</time></trkpt><trkpt lat="39.8278346" lon="8.7550027"><ele>577.0</ele><time>2026-05-03T06:32:14.778Z</time></trkpt><trkpt lat="39.8279104" lon="8.7549294"><ele>576.0</ele><time>2026-05-03T06:32:15.776Z</time></trkpt><trkpt lat="39.8279881" lon="8.754864"><ele>576.0</ele><time>2026-05-03T06:32:16.779Z</time></trkpt><trkpt lat="39.8280656" lon="8.7548031"><ele>576.0</ele><time>2026-05-03T06:32:17.779Z</time></trkpt><trkpt lat="39.8281404" lon="8.7547439"><ele>576.0</ele><time>2026-05-03T06:32:18.776Z</time></trkpt><trkpt lat="39.82822" lon="8.754681"><ele>576.0</ele><time>2026-05-03T06:32:19.777Z</time></trkpt><trkpt lat="39.8282964" lon="8.7546222"><ele>576.0</ele><time>2026-05-03T06:32:20.777Z</time></trkpt><trkpt lat="39.8283736" lon="8.7545535"><ele>576.0</ele><time>2026-05-03T06:32:21.776Z</time></trkpt><trkpt lat="39.8284493" lon="8.7544758"><ele>576.0</ele><time>2026-05-03T06:32:22.776Z</time></trkpt><trkpt lat="39.8285207" lon="8.7543999"><ele>576.0</ele><time>2026-05-03T06:32:23.778Z</time></trkpt><trkpt lat="39.8285861" lon="8.7543211"><ele>576.0</ele><time>2026-05-03T06:32:24.778Z</time></trkpt><trkpt lat="39.8286427" lon="8.7542352"><ele>576.0</ele><time>2026-05-03T06:32:25.778Z</time></trkpt><trkpt lat="39.8286945" lon="8.7541443"><ele>574.1666666666666</ele><time>2026-05-03T06:32:26.778Z</time></trkpt><trkpt lat="39.8287393" lon="8.7540526"><ele>572.3333333333334</ele><time>2026-05-03T06:32:27.778Z</time></trkpt><trkpt lat="39.8287731" lon="8.7539563"><ele>570.5</ele><time>2026-05-03T06:32:28.778Z</time></trkpt><trkpt lat="39.8288016" lon="8.7538646"><ele>568.6666666666667</ele><time>2026-05-03T06:32:29.778Z</time></trkpt><trkpt lat="39.8288223" lon="8.7537738"><ele>566.8333333333334</ele><time>2026-05-03T06:32:30.778Z</time></trkpt><trkpt lat="39.8288285" lon="8.7536919"><ele>565.0</ele><time>2026-05-03T06:32:31.776Z</time></trkpt><trkpt lat="39.8288146" lon="8.7535475"><ele>565.1666666666667</ele><time>2026-05-03T06:32:33.777Z</time></trkpt><trkpt lat="39.8287685" lon="8.7534205"><ele>565.3333333333334</ele><time>2026-05-03T06:32:35.778Z</time></trkpt><trkpt lat="39.8287384" lon="8.7533459"><ele>565.5</ele><time>2026-05-03T06:32:36.776Z</time></trkpt><trkpt lat="39.8287046" lon="8.7532634"><ele>565.6666666666666</ele><time>2026-05-03T06:32:37.778Z</time></trkpt><trkpt lat="39.8286673" lon="8.7531789"><ele>565.8333333333333</ele><time>2026-05-03T06:32:38.777Z</time></trkpt><trkpt lat="39.8286311" lon="8.7531028"><ele>566.0</ele><time>2026-05-03T06:32:39.776Z</time></trkpt><trkpt lat="39.8285983" lon="8.753031"><ele>566.0</ele><time>2026-05-03T06:32:40.777Z</time></trkpt><trkpt lat="39.8285604" lon="8.7529566"><ele>566.0</ele><time>2026-05-03T06:32:41.778Z</time></trkpt><trkpt lat="39.828491" lon="8.7528338"><ele>566.0</ele><time>2026-05-03T06:32:43.778Z</time></trkpt><trkpt lat="39.8284681" lon="8.7527465"><ele>566.0</ele><time>2026-05-03T06:32:45.778Z</time></trkpt><trkpt lat="39.8284912" lon="8.7526439"><ele>566.0</ele><time>2026-05-03T06:32:48.779Z</time></trkpt><trkpt lat="39.828547" lon="8.7525857"><ele>566.0</ele><time>2026-05-03T06:32:50.777Z</time></trkpt><trkpt lat="39.8286325" lon="8.7525315"><ele>565.0</ele><time>2026-05-03T06:32:52.777Z</time></trkpt><trkpt lat="39.8287287" lon="8.7524703"><ele>564.0</ele><time>2026-05-03T06:32:54.777Z</time></trkpt><trkpt lat="39.8288287" lon="8.7524045"><ele>563.0</ele><time>2026-05-03T06:32:56.778Z</time></trkpt><trkpt lat="39.8289234" lon="8.7523483"><ele>562.0</ele><time>2026-05-03T06:32:58.776Z</time></trkpt><trkpt lat="39.8290214" lon="8.7522878"><ele>561.0</ele><time>2026-05-03T06:33:00.777Z</time></trkpt><trkpt lat="39.8291202" lon="8.7522394"><ele>561.0</ele><time>2026-05-03T06:33:02.778Z</time></trkpt><trkpt lat="39.8292243" lon="8.7521814"><ele>561.0</ele><time>2026-05-03T06:33:04.778Z</time></trkpt><trkpt lat="39.829285" lon="8.7521486"><ele>561.0</ele><time>2026-05-03T06:33:05.777Z</time></trkpt><trkpt lat="39.8293875" lon="8.7520786"><ele>561.0</ele><time>2026-05-03T06:33:07.778Z</time></trkpt><trkpt lat="39.8294907" lon="8.7520058"><ele>561.0</ele><time>2026-05-03T06:33:09.779Z</time></trkpt><trkpt lat="39.8296103" lon="8.7519516"><ele>558.3333333333334</ele><time>2026-05-03T06:33:11.778Z</time></trkpt><trkpt lat="39.8296856" lon="8.7519246"><ele>555.6666666666666</ele><time>2026-05-03T06:33:12.777Z</time></trkpt><trkpt lat="39.8297563" lon="8.7518987"><ele>553.0</ele><time>2026-05-03T06:33:13.777Z</time></trkpt><trkpt lat="39.8298367" lon="8.7518648"><ele>550.3333333333333</ele><time>2026-05-03T06:33:14.778Z</time></trkpt><trkpt lat="39.8299097" lon="8.7518297"><ele>547.6666666666666</ele><time>2026-05-03T06:33:15.778Z</time></trkpt><trkpt lat="39.8299687" lon="8.7517945"><ele>545.0</ele><time>2026-05-03T06:33:16.777Z</time></trkpt><trkpt lat="39.8300527" lon="8.751717"><ele>545.0</ele><time>2026-05-03T06:33:18.779Z</time></trkpt><trkpt lat="39.8301328" lon="8.7516925"><ele>545.0</ele><time>2026-05-03T06:33:20.777Z</time></trkpt><trkpt lat="39.8302234" lon="8.7516721"><ele>545.0</ele><time>2026-05-03T06:33:22.778Z</time></trkpt><trkpt lat="39.8303319" lon="8.751622"><ele>545.0</ele><time>2026-05-03T06:33:24.778Z</time></trkpt><trkpt lat="39.8304312" lon="8.7515403"><ele>545.0</ele><time>2026-05-03T06:33:26.778Z</time></trkpt><trkpt lat="39.8305112" lon="8.7514426"><ele>542.8333333333333</ele><time>2026-05-03T06:33:28.777Z</time></trkpt><trkpt lat="39.8305866" lon="8.7513567"><ele>540.6666666666666</ele><time>2026-05-03T06:33:30.777Z</time></trkpt><trkpt lat="39.8306392" lon="8.7513005"><ele>538.5</ele><time>2026-05-03T06:33:32.777Z</time></trkpt><trkpt lat="39.830724" lon="8.7512758"><ele>536.3333333333334</ele><time>2026-05-03T06:33:35.777Z</time></trkpt><trkpt lat="39.8307811" lon="8.7513269"><ele>534.1666666666667</ele><time>2026-05-03T06:33:38.779Z</time></trkpt><trkpt lat="39.8307713" lon="8.7514269"><ele>532.0</ele><time>2026-05-03T06:33:40.778Z</time></trkpt><trkpt lat="39.8307331" lon="8.7515801"><ele>532.0</ele><time>2026-05-03T06:33:42.777Z</time></trkpt><trkpt lat="39.8307031" lon="8.7517165"><ele>532.0</ele><time>2026-05-03T06:33:44.778Z</time></trkpt><trkpt lat="39.830686" lon="8.7518239"><ele>532.0</ele><time>2026-05-03T06:33:46.776Z</time></trkpt><trkpt lat="39.8306643" lon="8.7519308"><ele>532.0</ele><time>2026-05-03T06:33:48.777Z</time></trkpt><trkpt lat="39.830621" lon="8.7520429"><ele>532.0</ele><time>2026-05-03T06:33:50.777Z</time></trkpt><trkpt lat="39.8305621" lon="8.7521621"><ele>529.8333333333334</ele><time>2026-05-03T06:33:52.779Z</time></trkpt><trkpt lat="39.8305078" lon="8.7522758"><ele>527.6666666666667</ele><time>2026-05-03T06:33:54.779Z</time></trkpt><trkpt lat="39.8304624" lon="8.7523624"><ele>525.5</ele><time>2026-05-03T06:33:56.776Z</time></trkpt><trkpt lat="39.8304183" lon="8.7524416"><ele>523.3333333333334</ele><time>2026-05-03T06:33:58.776Z</time></trkpt><trkpt lat="39.8303504" lon="8.752528"><ele>521.1666666666666</ele><time>2026-05-03T06:34:01.777Z</time></trkpt><trkpt lat="39.8302735" lon="8.7525679"><ele>519.0</ele><time>2026-05-03T06:34:03.778Z</time></trkpt><trkpt lat="39.8301904" lon="8.7525948"><ele>518.3333333333334</ele><time>2026-05-03T06:34:05.777Z</time></trkpt><trkpt lat="39.8301223" lon="8.7526532"><ele>517.6666666666666</ele><time>2026-05-03T06:34:07.779Z</time></trkpt><trkpt lat="39.8301296" lon="8.7527834"><ele>517.0</ele><time>2026-05-03T06:34:09.778Z</time></trkpt><trkpt lat="39.8301511" lon="8.7528684"><ele>516.3333333333333</ele><time>2026-05-03T06:34:10.777Z</time></trkpt><trkpt lat="39.8302094" lon="8.7529446"><ele>515.6666666666666</ele><time>2026-05-03T06:34:11.78Z</time></trkpt><trkpt lat="39.830239" lon="8.7530395"><ele>515.0</ele><time>2026-05-03T06:34:12.778Z</time></trkpt><trkpt lat="39.8302638" lon="8.7531391"><ele>515.0</ele><time>2026-05-03T06:34:13.778Z</time></trkpt><trkpt lat="39.8302831" lon="8.7532401"><ele>515.0</ele><time>2026-05-03T06:34:14.779Z</time></trkpt><trkpt lat="39.8302903" lon="8.7533322"><ele>515.0</ele><time>2026-05-03T06:34:15.776Z</time></trkpt><trkpt lat="39.8302971" lon="8.7534286"><ele>515.0</ele><time>2026-05-03T06:34:16.779Z</time></trkpt><trkpt lat="39.8302878" lon="8.7535429"><ele>515.0</ele><time>2026-05-03T06:34:17.778Z</time></trkpt><trkpt lat="39.8302754" lon="8.7536653"><ele>515.0</ele><time>2026-05-03T06:34:18.779Z</time></trkpt><trkpt lat="39.830253" lon="8.7537987"><ele>516.0</ele><time>2026-05-03T06:34:19.778Z</time></trkpt><trkpt lat="39.8302303" lon="8.7539362"><ele>517.0</ele><time>2026-05-03T06:34:20.777Z</time></trkpt><trkpt lat="39.830216" lon="8.7540603"><ele>518.0</ele><time>2026-05-03T06:34:21.778Z</time></trkpt><trkpt lat="39.8302139" lon="8.7541813"><ele>519.0</ele><time>2026-05-03T06:34:22.779Z</time></trkpt><trkpt lat="39.8302294" lon="8.7542962"><ele>520.0</ele><time>2026-05-03T06:34:23.778Z</time></trkpt><trkpt lat="39.830258" lon="8.7543903"><ele>520.0</ele><time>2026-05-03T06:34:24.777Z</time></trkpt><trkpt lat="39.8303384" lon="8.7544886"><ele>520.0</ele><time>2026-05-03T06:34:26.777Z</time></trkpt><trkpt lat="39.8304246" lon="8.7544635"><ele>520.0</ele><time>2026-05-03T06:34:28.778Z</time></trkpt><trkpt lat="39.8304769" lon="8.754415"><ele>520.0</ele><time>2026-05-03T06:34:29.777Z</time></trkpt><trkpt lat="39.8305176" lon="8.7543355"><ele>520.0</ele><time>2026-05-03T06:34:30.777Z</time></trkpt><trkpt lat="39.8305803" lon="8.7542108"><ele>520.1666666666667</ele><time>2026-05-03T06:34:32.777Z</time></trkpt><trkpt lat="39.830629" lon="8.7541228"><ele>520.3333333333334</ele><time>2026-05-03T06:34:34.776Z</time></trkpt><trkpt lat="39.8306782" lon="8.754052"><ele>520.5</ele><time>2026-05-03T06:34:36.776Z</time></trkpt><trkpt lat="39.8307291" lon="8.7539713"><ele>520.6666666666666</ele><time>2026-05-03T06:34:39.779Z</time></trkpt><trkpt lat="39.8307919" lon="8.7538889"><ele>520.8333333333333</ele><time>2026-05-03T06:34:42.777Z</time></trkpt><trkpt lat="39.8308404" lon="8.7538298"><ele>521.0</ele><time>2026-05-03T06:34:44.776Z</time></trkpt><trkpt lat="39.8309037" lon="8.7537537"><ele>521.0</ele><time>2026-05-03T06:34:47.778Z</time></trkpt><trkpt lat="39.8309681" lon="8.753675"><ele>521.0</ele><time>2026-05-03T06:34:50.778Z</time></trkpt><trkpt lat="39.8310263" lon="8.7536023"><ele>521.0</ele><time>2026-05-03T06:34:53.777Z</time></trkpt><trkpt lat="39.8310749" lon="8.7535435"><ele>521.0</ele><time>2026-05-03T06:34:57.778Z</time></trkpt><trkpt lat="39.8311127" lon="8.7534621"><ele>521.0</ele><time>2026-05-03T06:35:02.778Z</time></trkpt><trkpt lat="39.8310655" lon="8.7535511"><ele>521.0</ele><time>2026-05-03T06:35:29.777Z</time></trkpt><trkpt lat="39.8310071" lon="8.7536073"><ele>521.0</ele><time>2026-05-03T06:35:30.778Z</time></trkpt><trkpt lat="39.830946" lon="8.7536784"><ele>521.0</ele><time>2026-05-03T06:35:31.778Z</time></trkpt><trkpt lat="39.8308836" lon="8.7537577"><ele>521.0</ele><time>2026-05-03T06:35:32.778Z</time></trkpt><trkpt lat="39.8308116" lon="8.7538538"><ele>521.0</ele><time>2026-05-03T06:35:33.778Z</time></trkpt><trkpt lat="39.8307338" lon="8.7539468"><ele>521.0</ele><time>2026-05-03T06:35:34.778Z</time></trkpt><trkpt lat="39.8306746" lon="8.7540315"><ele>521.0</ele><time>2026-05-03T06:35:35.777Z</time></trkpt><trkpt lat="39.8306222" lon="8.7541236"><ele>521.0</ele><time>2026-05-03T06:35:36.778Z</time></trkpt><trkpt lat="39.830567" lon="8.7542254"><ele>521.0</ele><time>2026-05-03T06:35:37.777Z</time></trkpt><trkpt lat="39.830523" lon="8.7543176"><ele>521.0</ele><time>2026-05-03T06:35:38.777Z</time></trkpt><trkpt lat="39.8304865" lon="8.7543897"><ele>521.0</ele><time>2026-05-03T06:35:39.777Z</time></trkpt><trkpt lat="39.8304502" lon="8.7544668"><ele>521.0</ele><time>2026-05-03T06:35:41.778Z</time></trkpt><trkpt lat="39.830399" lon="8.7545679"><ele>520.8</ele><time>2026-05-03T06:35:44.778Z</time></trkpt><trkpt lat="39.8303375" lon="8.7546288"><ele>520.6</ele><time>2026-05-03T06:35:46.782Z</time></trkpt><trkpt lat="39.8302579" lon="8.7546938"><ele>520.4</ele><time>2026-05-03T06:35:48.777Z</time></trkpt><trkpt lat="39.8301929" lon="8.7547809"><ele>520.2</ele><time>2026-05-03T06:35:50.778Z</time></trkpt><trkpt lat="39.8301459" lon="8.7548953"><ele>520.0</ele><time>2026-05-03T06:35:52.777Z</time></trkpt><trkpt lat="39.8301402" lon="8.7550259"><ele>520.0</ele><time>2026-05-03T06:35:54.778Z</time></trkpt><trkpt lat="39.8301963" lon="8.7551706"><ele>520.0</ele><time>2026-05-03T06:35:56.779Z</time></trkpt><trkpt lat="39.8302692" lon="8.755278"><ele>520.0</ele><time>2026-05-03T06:35:58.777Z</time></trkpt><trkpt lat="39.8303584" lon="8.7553346"><ele>520.0</ele><time>2026-05-03T06:36:00.777Z</time></trkpt><trkpt lat="39.8304421" lon="8.7553579"><ele>520.0</ele><time>2026-05-03T06:36:01.778Z</time></trkpt><trkpt lat="39.8305339" lon="8.7553863"><ele>521.8</ele><time>2026-05-03T06:36:02.777Z</time></trkpt><trkpt lat="39.8306328" lon="8.7554134"><ele>523.6</ele><time>2026-05-03T06:36:03.778Z</time></trkpt><trkpt lat="39.8307267" lon="8.7554363"><ele>525.4</ele><time>2026-05-03T06:36:04.777Z</time></trkpt><trkpt lat="39.8308194" lon="8.755448"><ele>527.2</ele><time>2026-05-03T06:36:05.777Z</time></trkpt><trkpt lat="39.8309143" lon="8.7554479"><ele>529.0</ele><time>2026-05-03T06:36:06.777Z</time></trkpt><trkpt lat="39.8310201" lon="8.7554393"><ele>529.0</ele><time>2026-05-03T06:36:07.778Z</time></trkpt><trkpt lat="39.8311282" lon="8.7554244"><ele>529.0</ele><time>2026-05-03T06:36:08.777Z</time></trkpt><trkpt lat="39.8312233" lon="8.7554091"><ele>529.0</ele><time>2026-05-03T06:36:09.776Z</time></trkpt><trkpt lat="39.8313124" lon="8.7553964"><ele>529.0</ele><time>2026-05-03T06:36:10.779Z</time></trkpt><trkpt lat="39.8313941" lon="8.755393"><ele>529.0</ele><time>2026-05-03T06:36:11.777Z</time></trkpt><trkpt lat="39.8315514" lon="8.7553675"><ele>529.0</ele><time>2026-05-03T06:36:13.776Z</time></trkpt><trkpt lat="39.8316344" lon="8.7553388"><ele>529.0</ele><time>2026-05-03T06:36:14.778Z</time></trkpt><trkpt lat="39.8317302" lon="8.7553057"><ele>529.0</ele><time>2026-05-03T06:36:15.777Z</time></trkpt><trkpt lat="39.8318342" lon="8.7552733"><ele>529.0</ele><time>2026-05-03T06:36:16.777Z</time></trkpt><trkpt lat="39.8319375" lon="8.7552542"><ele>529.0</ele><time>2026-05-03T06:36:17.777Z</time></trkpt><trkpt lat="39.832051" lon="8.7552445"><ele>529.0</ele><time>2026-05-03T06:36:18.778Z</time></trkpt><trkpt lat="39.8321658" lon="8.7552428"><ele>529.0</ele><time>2026-05-03T06:36:19.776Z</time></trkpt><trkpt lat="39.8322816" lon="8.7552418"><ele>529.0</ele><time>2026-05-03T06:36:20.778Z</time></trkpt><trkpt lat="39.8323914" lon="8.755249"><ele>529.0</ele><time>2026-05-03T06:36:21.777Z</time></trkpt><trkpt lat="39.8324976" lon="8.7552569"><ele>529.0</ele><time>2026-05-03T06:36:22.778Z</time></trkpt><trkpt lat="39.8325963" lon="8.7552567"><ele>530.2</ele><time>2026-05-03T06:36:23.778Z</time></trkpt><trkpt lat="39.8326953" lon="8.7552525"><ele>531.4</ele><time>2026-05-03T06:36:24.776Z</time></trkpt><trkpt lat="39.8327919" lon="8.7552346"><ele>532.6</ele><time>2026-05-03T06:36:25.777Z</time></trkpt><trkpt lat="39.8328812" lon="8.7552055"><ele>533.8</ele><time>2026-05-03T06:36:26.778Z</time></trkpt><trkpt lat="39.8329696" lon="8.7551722"><ele>535.0</ele><time>2026-05-03T06:36:27.778Z</time></trkpt><trkpt lat="39.83306" lon="8.7551403"><ele>532.8</ele><time>2026-05-03T06:36:28.776Z</time></trkpt><trkpt lat="39.8331534" lon="8.7551043"><ele>530.6</ele><time>2026-05-03T06:36:29.778Z</time></trkpt><trkpt lat="39.8332506" lon="8.7550625"><ele>528.4</ele><time>2026-05-03T06:36:30.777Z</time></trkpt><trkpt lat="39.8333519" lon="8.755016"><ele>526.2</ele><time>2026-05-03T06:36:31.777Z</time></trkpt><trkpt lat="39.8334481" lon="8.7549773"><ele>524.0</ele><time>2026-05-03T06:36:32.778Z</time></trkpt><trkpt lat="39.8335407" lon="8.7549355"><ele>524.0</ele><time>2026-05-03T06:36:33.778Z</time></trkpt><trkpt lat="39.8336164" lon="8.754897"><ele>524.0</ele><time>2026-05-03T06:36:34.776Z</time></trkpt><trkpt lat="39.8336823" lon="8.7548579"><ele>524.0</ele><time>2026-05-03T06:36:35.779Z</time></trkpt><trkpt lat="39.8337578" lon="8.7548135"><ele>524.0</ele><time>2026-05-03T06:36:36.778Z</time></trkpt><trkpt lat="39.8338413" lon="8.7547567"><ele>524.0</ele><time>2026-05-03T06:36:37.777Z</time></trkpt><trkpt lat="39.8339174" lon="8.7546953"><ele>524.0</ele><time>2026-05-03T06:36:38.777Z</time></trkpt><trkpt lat="39.83398" lon="8.7546425"><ele>524.0</ele><time>2026-05-03T06:36:39.777Z</time></trkpt><trkpt lat="39.8340368" lon="8.7545897"><ele>524.0</ele><time>2026-05-03T06:36:40.779Z</time></trkpt><trkpt lat="39.8340909" lon="8.7545375"><ele>524.0</ele><time>2026-05-03T06:36:41.776Z</time></trkpt><trkpt lat="39.8342218" lon="8.7544342"><ele>524.0</ele><time>2026-05-03T06:36:43.779Z</time></trkpt><trkpt lat="39.8343041" lon="8.754369"><ele>524.0</ele><time>2026-05-03T06:36:44.777Z</time></trkpt><trkpt lat="39.8343877" lon="8.7543095"><ele>521.1666666666666</ele><time>2026-05-03T06:36:45.779Z</time></trkpt><trkpt lat="39.8344592" lon="8.7542598"><ele>518.3333333333333</ele><time>2026-05-03T06:36:46.778Z</time></trkpt><trkpt lat="39.834539" lon="8.754196"><ele>515.5</ele><time>2026-05-03T06:36:47.779Z</time></trkpt><trkpt lat="39.834611" lon="8.754138"><ele>512.6666666666666</ele><time>2026-05-03T06:36:48.778Z</time></trkpt><trkpt lat="39.8346673" lon="8.754086"><ele>509.8333333333333</ele><time>2026-05-03T06:36:49.777Z</time></trkpt><trkpt lat="39.8347601" lon="8.7539929"><ele>507.0</ele><time>2026-05-03T06:36:51.777Z</time></trkpt><trkpt lat="39.8348433" lon="8.7539275"><ele>507.0</ele><time>2026-05-03T06:36:53.778Z</time></trkpt><trkpt lat="39.8349407" lon="8.753847"><ele>507.00000000000006</ele><time>2026-05-03T06:36:55.778Z</time></trkpt><trkpt lat="39.8350402" lon="8.7537825"><ele>507.00000000000006</ele><time>2026-05-03T06:36:57.779Z</time></trkpt><trkpt lat="39.8351422" lon="8.753737"><ele>507.0</ele><time>2026-05-03T06:36:59.777Z</time></trkpt><trkpt lat="39.8352386" lon="8.7536956"><ele>507.0</ele><time>2026-05-03T06:37:01.777Z</time></trkpt><trkpt lat="39.8353619" lon="8.7536633"><ele>509.0</ele><time>2026-05-03T06:37:03.776Z</time></trkpt><trkpt lat="39.8354309" lon="8.7536391"><ele>511.0</ele><time>2026-05-03T06:37:04.778Z</time></trkpt><trkpt lat="39.8354952" lon="8.7536149"><ele>513.0</ele><time>2026-05-03T06:37:05.778Z</time></trkpt><trkpt lat="39.8355651" lon="8.7535786"><ele>515.0</ele><time>2026-05-03T06:37:06.777Z</time></trkpt><trkpt lat="39.8356359" lon="8.7535279"><ele>517.0</ele><time>2026-05-03T06:37:07.779Z</time></trkpt><trkpt lat="39.8357092" lon="8.7534597"><ele>519.0</ele><time>2026-05-03T06:37:08.778Z</time></trkpt><trkpt lat="39.8357786" lon="8.7533866"><ele>517.6666666666666</ele><time>2026-05-03T06:37:09.777Z</time></trkpt><trkpt lat="39.835854" lon="8.7533256"><ele>516.3333333333334</ele><time>2026-05-03T06:37:10.777Z</time></trkpt><trkpt lat="39.8359036" lon="8.7532535"><ele>515.0</ele><time>2026-05-03T06:37:11.777Z</time></trkpt><trkpt lat="39.8359575" lon="8.7531822"><ele>513.6666666666667</ele><time>2026-05-03T06:37:12.779Z</time></trkpt><trkpt lat="39.836015" lon="8.7531137"><ele>512.3333333333334</ele><time>2026-05-03T06:37:13.777Z</time></trkpt><trkpt lat="39.8360693" lon="8.7530337"><ele>511.0</ele><time>2026-05-03T06:37:14.779Z</time></trkpt><trkpt lat="39.8361222" lon="8.752957"><ele>511.0</ele><time>2026-05-03T06:37:15.778Z</time></trkpt><trkpt lat="39.8361676" lon="8.7528911"><ele>511.0</ele><time>2026-05-03T06:37:16.777Z</time></trkpt><trkpt lat="39.8362389" lon="8.7527611"><ele>511.0</ele><time>2026-05-03T06:37:18.779Z</time></trkpt><trkpt lat="39.8362964" lon="8.7526394"><ele>511.0</ele><time>2026-05-03T06:37:20.777Z</time></trkpt><trkpt lat="39.8363454" lon="8.7525177"><ele>511.0</ele><time>2026-05-03T06:37:22.778Z</time></trkpt><trkpt lat="39.8363866" lon="8.7523812"><ele>507.00000000000006</ele><time>2026-05-03T06:37:24.777Z</time></trkpt><trkpt lat="39.8364163" lon="8.7522895"><ele>503.0</ele><time>2026-05-03T06:37:25.777Z</time></trkpt><trkpt lat="39.8364485" lon="8.7522138"><ele>499.0</ele><time>2026-05-03T06:37:26.778Z</time></trkpt><trkpt lat="39.8364856" lon="8.7521346"><ele>495.0</ele><time>2026-05-03T06:37:27.779Z</time></trkpt><trkpt lat="39.8365245" lon="8.7520527"><ele>491.00000000000006</ele><time>2026-05-03T06:37:28.778Z</time></trkpt><trkpt lat="39.8365726" lon="8.751916"><ele>487.0</ele><time>2026-05-03T06:37:30.777Z</time></trkpt><trkpt lat="39.8366224" lon="8.7517942"><ele>486.6</ele><time>2026-05-03T06:37:32.779Z</time></trkpt><trkpt lat="39.8366562" lon="8.7516803"><ele>486.20000000000005</ele><time>2026-05-03T06:37:34.777Z</time></trkpt><trkpt lat="39.8366896" lon="8.7515761"><ele>485.8</ele><time>2026-05-03T06:37:36.778Z</time></trkpt><trkpt lat="39.8367363" lon="8.7514846"><ele>485.4</ele><time>2026-05-03T06:37:38.779Z</time></trkpt><trkpt lat="39.8367977" lon="8.7513636"><ele>485.0</ele><time>2026-05-03T06:37:40.776Z</time></trkpt><trkpt lat="39.8368459" lon="8.7512495"><ele>484.99999999999994</ele><time>2026-05-03T06:37:42.777Z</time></trkpt><trkpt lat="39.8368999" lon="8.7511313"><ele>485.0</ele><time>2026-05-03T06:37:44.777Z</time></trkpt><trkpt lat="39.8369494" lon="8.7510668"><ele>485.0</ele><time>2026-05-03T06:37:45.777Z</time></trkpt><trkpt lat="39.8370104" lon="8.751"><ele>485.0</ele><time>2026-05-03T06:37:46.778Z</time></trkpt><trkpt lat="39.8370721" lon="8.7509348"><ele>484.99999999999994</ele><time>2026-05-03T06:37:47.779Z</time></trkpt><trkpt lat="39.8371375" lon="8.750876"><ele>485.0</ele><time>2026-05-03T06:37:48.779Z</time></trkpt><trkpt lat="39.8372075" lon="8.7508222"><ele>480.2</ele><time>2026-05-03T06:37:49.776Z</time></trkpt><trkpt lat="39.8372775" lon="8.7507669"><ele>475.4</ele><time>2026-05-03T06:37:50.777Z</time></trkpt><trkpt lat="39.8373513" lon="8.750713"><ele>470.6</ele><time>2026-05-03T06:37:51.776Z</time></trkpt><trkpt lat="39.8374315" lon="8.7506527"><ele>465.8</ele><time>2026-05-03T06:37:52.777Z</time></trkpt><trkpt lat="39.8375187" lon="8.7505928"><ele>461.0</ele><time>2026-05-03T06:37:53.776Z</time></trkpt><trkpt lat="39.8376034" lon="8.7505302"><ele>459.6</ele><time>2026-05-03T06:37:54.777Z</time></trkpt><trkpt lat="39.8376825" lon="8.7504685"><ele>458.20000000000005</ele><time>2026-05-03T06:37:55.777Z</time></trkpt><trkpt lat="39.8377506" lon="8.750396"><ele>456.79999999999995</ele><time>2026-05-03T06:37:56.779Z</time></trkpt><trkpt lat="39.8378175" lon="8.7503067"><ele>455.4</ele><time>2026-05-03T06:37:57.777Z</time></trkpt><trkpt lat="39.8379017" lon="8.7502088"><ele>454.0</ele><time>2026-05-03T06:37:58.779Z</time></trkpt><trkpt lat="39.8379862" lon="8.7501141"><ele>454.0</ele><time>2026-05-03T06:37:59.778Z</time></trkpt><trkpt lat="39.8380677" lon="8.7500141"><ele>454.0</ele><time>2026-05-03T06:38:00.779Z</time></trkpt><trkpt lat="39.8381402" lon="8.7499162"><ele>454.0</ele><time>2026-05-03T06:38:01.778Z</time></trkpt><trkpt lat="39.8382042" lon="8.7498286"><ele>454.0</ele><time>2026-05-03T06:38:02.776Z</time></trkpt><trkpt lat="39.8382621" lon="8.7497407"><ele>454.0</ele><time>2026-05-03T06:38:03.778Z</time></trkpt><trkpt lat="39.8383137" lon="8.7496554"><ele>454.00000000000006</ele><time>2026-05-03T06:38:04.779Z</time></trkpt><trkpt lat="39.8383652" lon="8.7495747"><ele>454.0</ele><time>2026-05-03T06:38:05.777Z</time></trkpt><trkpt lat="39.8384183" lon="8.7494875"><ele>454.0</ele><time>2026-05-03T06:38:06.778Z</time></trkpt><trkpt lat="39.8384672" lon="8.7493993"><ele>454.0</ele><time>2026-05-03T06:38:07.778Z</time></trkpt><trkpt lat="39.8385086" lon="8.749313"><ele>454.00000000000006</ele><time>2026-05-03T06:38:08.776Z</time></trkpt><trkpt lat="39.8385388" lon="8.7492311"><ele>454.0</ele><time>2026-05-03T06:38:09.777Z</time></trkpt><trkpt lat="39.8385695" lon="8.7491466"><ele>452.2</ele><time>2026-05-03T06:38:10.778Z</time></trkpt><trkpt lat="39.8386091" lon="8.749053"><ele>450.4</ele><time>2026-05-03T06:38:11.777Z</time></trkpt><trkpt lat="39.8386514" lon="8.748962"><ele>448.6</ele><time>2026-05-03T06:38:12.777Z</time></trkpt><trkpt lat="39.8386947" lon="8.7488922"><ele>446.8</ele><time>2026-05-03T06:38:13.777Z</time></trkpt><trkpt lat="39.8387727" lon="8.7487752"><ele>445.0</ele><time>2026-05-03T06:38:15.777Z</time></trkpt><trkpt lat="39.8388327" lon="8.7486673"><ele>443.2</ele><time>2026-05-03T06:38:17.779Z</time></trkpt><trkpt lat="39.8388729" lon="8.7485317"><ele>441.4</ele><time>2026-05-03T06:38:19.777Z</time></trkpt><trkpt lat="39.8389201" lon="8.7484044"><ele>439.6</ele><time>2026-05-03T06:38:21.776Z</time></trkpt><trkpt lat="39.8389848" lon="8.7483166"><ele>437.8</ele><time>2026-05-03T06:38:23.778Z</time></trkpt><trkpt lat="39.8390834" lon="8.7482366"><ele>436.0</ele><time>2026-05-03T06:38:25.778Z</time></trkpt><trkpt lat="39.8391846" lon="8.7482218"><ele>436.0</ele><time>2026-05-03T06:38:27.777Z</time></trkpt><trkpt lat="39.8392515" lon="8.7482406"><ele>436.0</ele><time>2026-05-03T06:38:28.779Z</time></trkpt><trkpt lat="39.8393154" lon="8.7482572"><ele>436.0</ele><time>2026-05-03T06:38:29.779Z</time></trkpt><trkpt lat="39.8393782" lon="8.7482686"><ele>436.0</ele><time>2026-05-03T06:38:30.777Z</time></trkpt><trkpt lat="39.8394458" lon="8.7482697"><ele>436.0</ele><time>2026-05-03T06:38:31.778Z</time></trkpt><trkpt lat="39.8395148" lon="8.7482659"><ele>436.0</ele><time>2026-05-03T06:38:32.779Z</time></trkpt><trkpt lat="39.8395903" lon="8.7482753"><ele>436.0</ele><time>2026-05-03T06:38:33.777Z</time></trkpt><trkpt lat="39.8396595" lon="8.7482947"><ele>435.00000000000006</ele><time>2026-05-03T06:38:34.778Z</time></trkpt><trkpt lat="39.8397387" lon="8.7483255"><ele>434.0</ele><time>2026-05-03T06:38:35.776Z</time></trkpt><trkpt lat="39.8398119" lon="8.74835"><ele>433.0</ele><time>2026-05-03T06:38:36.779Z</time></trkpt><trkpt lat="39.8399078" lon="8.7483825"><ele>432.0</ele><time>2026-05-03T06:38:38.778Z</time></trkpt><trkpt lat="39.8399923" lon="8.748376"><ele>431.00000000000006</ele><time>2026-05-03T06:38:41.778Z</time></trkpt><trkpt lat="39.8400376" lon="8.7482934"><ele>430.0</ele><time>2026-05-03T06:38:44.776Z</time></trkpt><trkpt lat="39.8400905" lon="8.7482016"><ele>428.50000000000006</ele><time>2026-05-03T06:38:47.777Z</time></trkpt><trkpt lat="39.8401649" lon="8.7481238"><ele>427.0</ele><time>2026-05-03T06:38:49.777Z</time></trkpt><trkpt lat="39.8402208" lon="8.7480775"><ele>425.5</ele><time>2026-05-03T06:38:50.778Z</time></trkpt><trkpt lat="39.8402789" lon="8.7480403"><ele>424.0</ele><time>2026-05-03T06:38:51.777Z</time></trkpt><trkpt lat="39.8403335" lon="8.7479982"><ele>422.50000000000006</ele><time>2026-05-03T06:38:52.778Z</time></trkpt><trkpt lat="39.8404267" lon="8.7479196"><ele>421.0</ele><time>2026-05-03T06:38:54.778Z</time></trkpt><trkpt lat="39.8404945" lon="8.7478274"><ele>420.0</ele><time>2026-05-03T06:38:56.777Z</time></trkpt><trkpt lat="39.8405578" lon="8.7476944"><ele>419.0</ele><time>2026-05-03T06:38:58.779Z</time></trkpt><trkpt lat="39.8406159" lon="8.7475797"><ele>418.0</ele><time>2026-05-03T06:39:00.777Z</time></trkpt><trkpt lat="39.8406792" lon="8.7475072"><ele>417.0</ele><time>2026-05-03T06:39:02.779Z</time></trkpt><trkpt lat="39.8407595" lon="8.7474769"><ele>416.0</ele><time>2026-05-03T06:39:04.777Z</time></trkpt><trkpt lat="39.8408789" lon="8.7474504"><ele>415.99999999999994</ele><time>2026-05-03T06:39:06.776Z</time></trkpt><trkpt lat="39.8409413" lon="8.7474372"><ele>416.0</ele><time>2026-05-03T06:39:07.78Z</time></trkpt><trkpt lat="39.8410094" lon="8.7474273"><ele>416.0</ele><time>2026-05-03T06:39:08.778Z</time></trkpt><trkpt lat="39.8410876" lon="8.7474094"><ele>416.0</ele><time>2026-05-03T06:39:09.778Z</time></trkpt><trkpt lat="39.8411792" lon="8.7473856"><ele>415.99999999999994</ele><time>2026-05-03T06:39:10.778Z</time></trkpt><trkpt lat="39.8412635" lon="8.747365"><ele>416.0</ele><time>2026-05-03T06:39:11.778Z</time></trkpt><trkpt lat="39.8413421" lon="8.7473612"><ele>414.3333333333333</ele><time>2026-05-03T06:39:12.777Z</time></trkpt><trkpt lat="39.8414153" lon="8.7473593"><ele>412.66666666666663</ele><time>2026-05-03T06:39:13.778Z</time></trkpt><trkpt lat="39.8414894" lon="8.747357"><ele>411.0</ele><time>2026-05-03T06:39:14.777Z</time></trkpt><trkpt lat="39.8415613" lon="8.7473421"><ele>409.33333333333337</ele><time>2026-05-03T06:39:15.777Z</time></trkpt><trkpt lat="39.8416247" lon="8.7473133"><ele>407.6666666666667</ele><time>2026-05-03T06:39:16.778Z</time></trkpt><trkpt lat="39.8417385" lon="8.74726"><ele>406.0</ele><time>2026-05-03T06:39:18.778Z</time></trkpt><trkpt lat="39.8418018" lon="8.7472471"><ele>404.20000000000005</ele><time>2026-05-03T06:39:19.778Z</time></trkpt><trkpt lat="39.8419233" lon="8.7472093"><ele>402.40000000000003</ele><time>2026-05-03T06:39:21.778Z</time></trkpt><trkpt lat="39.842053" lon="8.747146"><ele>400.6</ele><time>2026-05-03T06:39:23.779Z</time></trkpt><trkpt lat="39.8421342" lon="8.7471101"><ele>398.8</ele><time>2026-05-03T06:39:24.778Z</time></trkpt><trkpt lat="39.8422133" lon="8.747084"><ele>397.0</ele><time>2026-05-03T06:39:25.778Z</time></trkpt><trkpt lat="39.8422777" lon="8.747062"><ele>397.0</ele><time>2026-05-03T06:39:26.777Z</time></trkpt><trkpt lat="39.8423902" lon="8.7470301"><ele>397.0</ele><time>2026-05-03T06:39:28.778Z</time></trkpt><trkpt lat="39.8424934" lon="8.7469857"><ele>397.0</ele><time>2026-05-03T06:39:30.778Z</time></trkpt><trkpt lat="39.8425978" lon="8.7469323"><ele>397.0</ele><time>2026-05-03T06:39:32.779Z</time></trkpt><trkpt lat="39.842684" lon="8.7469118"><ele>397.0</ele><time>2026-05-03T06:39:34.777Z</time></trkpt><trkpt lat="39.8427879" lon="8.7468842"><ele>394.83333333333337</ele><time>2026-05-03T06:39:36.777Z</time></trkpt><trkpt lat="39.8428954" lon="8.7468182"><ele>392.6666666666667</ele><time>2026-05-03T06:39:38.777Z</time></trkpt><trkpt lat="39.8429577" lon="8.7467905"><ele>390.5</ele><time>2026-05-03T06:39:39.778Z</time></trkpt><trkpt lat="39.8430264" lon="8.7467674"><ele>388.33333333333337</ele><time>2026-05-03T06:39:40.777Z</time></trkpt><trkpt lat="39.8430896" lon="8.7467462"><ele>386.1666666666667</ele><time>2026-05-03T06:39:41.778Z</time></trkpt><trkpt lat="39.8431575" lon="8.7467239"><ele>384.0</ele><time>2026-05-03T06:39:42.779Z</time></trkpt><trkpt lat="39.8432311" lon="8.7466984"><ele>383.99999999999994</ele><time>2026-05-03T06:39:43.777Z</time></trkpt><trkpt lat="39.8433001" lon="8.7466692"><ele>384.0</ele><time>2026-05-03T06:39:44.777Z</time></trkpt><trkpt lat="39.8433658" lon="8.7466368"><ele>384.0</ele><time>2026-05-03T06:39:45.778Z</time></trkpt><trkpt lat="39.8434312" lon="8.7466141"><ele>384.0</ele><time>2026-05-03T06:39:46.777Z</time></trkpt><trkpt lat="39.8435005" lon="8.7465909"><ele>384.0</ele><time>2026-05-03T06:39:47.779Z</time></trkpt><trkpt lat="39.8435755" lon="8.7465554"><ele>383.99999999999994</ele><time>2026-05-03T06:39:48.777Z</time></trkpt><trkpt lat="39.8436381" lon="8.74651"><ele>384.0</ele><time>2026-05-03T06:39:49.776Z</time></trkpt><trkpt lat="39.8437454" lon="8.7464331"><ele>382.5</ele><time>2026-05-03T06:39:51.777Z</time></trkpt><trkpt lat="39.8438648" lon="8.7463793"><ele>381.0</ele><time>2026-05-03T06:39:53.778Z</time></trkpt><trkpt lat="39.8439244" lon="8.7463488"><ele>379.5</ele><time>2026-05-03T06:39:54.778Z</time></trkpt><trkpt lat="39.8439903" lon="8.7463228"><ele>378.0</ele><time>2026-05-03T06:39:55.777Z</time></trkpt><trkpt lat="39.8440601" lon="8.7462955"><ele>376.5</ele><time>2026-05-03T06:39:56.778Z</time></trkpt><trkpt lat="39.8441325" lon="8.7462629"><ele>375.0</ele><time>2026-05-03T06:39:57.779Z</time></trkpt><trkpt lat="39.8441948" lon="8.7462394"><ele>373.6666666666667</ele><time>2026-05-03T06:39:58.777Z</time></trkpt><trkpt lat="39.8443113" lon="8.7461965"><ele>372.3333333333333</ele><time>2026-05-03T06:40:00.776Z</time></trkpt><trkpt lat="39.8443894" lon="8.7461851"><ele>371.0</ele><time>2026-05-03T06:40:01.778Z</time></trkpt><trkpt lat="39.8444635" lon="8.7461689"><ele>369.66666666666663</ele><time>2026-05-03T06:40:02.778Z</time></trkpt><trkpt lat="39.8445485" lon="8.7461569"><ele>368.3333333333333</ele><time>2026-05-03T06:40:03.779Z</time></trkpt><trkpt lat="39.8446319" lon="8.7461395"><ele>367.0</ele><time>2026-05-03T06:40:04.778Z</time></trkpt><trkpt lat="39.8447043" lon="8.7461271"><ele>367.0</ele><time>2026-05-03T06:40:05.778Z</time></trkpt><trkpt lat="39.8447729" lon="8.7461228"><ele>367.0</ele><time>2026-05-03T06:40:06.776Z</time></trkpt><trkpt lat="39.8448379" lon="8.746102"><ele>367.0</ele><time>2026-05-03T06:40:07.777Z</time></trkpt><trkpt lat="39.8448995" lon="8.7460714"><ele>367.0</ele><time>2026-05-03T06:40:08.779Z</time></trkpt><trkpt lat="39.8449612" lon="8.7460495"><ele>367.0</ele><time>2026-05-03T06:40:09.776Z</time></trkpt><trkpt lat="39.8450999" lon="8.7460365"><ele>367.0</ele><time>2026-05-03T06:40:11.778Z</time></trkpt><trkpt lat="39.8451816" lon="8.7460387"><ele>364.3333333333333</ele><time>2026-05-03T06:40:12.779Z</time></trkpt><trkpt lat="39.8452753" lon="8.7460317"><ele>361.66666666666663</ele><time>2026-05-03T06:40:13.777Z</time></trkpt><trkpt lat="39.8453679" lon="8.7460201"><ele>359.0</ele><time>2026-05-03T06:40:14.778Z</time></trkpt><trkpt lat="39.8454575" lon="8.7459907"><ele>356.3333333333333</ele><time>2026-05-03T06:40:15.778Z</time></trkpt><trkpt lat="39.8455387" lon="8.7459581"><ele>353.6666666666667</ele><time>2026-05-03T06:40:16.777Z</time></trkpt><trkpt lat="39.8456198" lon="8.7459319"><ele>351.0</ele><time>2026-05-03T06:40:17.778Z</time></trkpt><trkpt lat="39.8457018" lon="8.7459066"><ele>351.0</ele><time>2026-05-03T06:40:18.778Z</time></trkpt><trkpt lat="39.845774" lon="8.7458773"><ele>351.0</ele><time>2026-05-03T06:40:19.778Z</time></trkpt><trkpt lat="39.8458472" lon="8.745854"><ele>351.0</ele><time>2026-05-03T06:40:20.777Z</time></trkpt><trkpt lat="39.8459207" lon="8.7458316"><ele>351.0</ele><time>2026-05-03T06:40:21.776Z</time></trkpt><trkpt lat="39.8459966" lon="8.7458158"><ele>351.0</ele><time>2026-05-03T06:40:22.777Z</time></trkpt><trkpt lat="39.8460874" lon="8.7458003"><ele>351.0</ele><time>2026-05-03T06:40:23.779Z</time></trkpt><trkpt lat="39.8461855" lon="8.7457843"><ele>349.8</ele><time>2026-05-03T06:40:24.777Z</time></trkpt><trkpt lat="39.846285" lon="8.7457639"><ele>348.6</ele><time>2026-05-03T06:40:25.778Z</time></trkpt><trkpt lat="39.8463807" lon="8.7457441"><ele>347.4</ele><time>2026-05-03T06:40:26.777Z</time></trkpt><trkpt lat="39.846473" lon="8.7457278"><ele>346.2</ele><time>2026-05-03T06:40:27.778Z</time></trkpt><trkpt lat="39.8465666" lon="8.7457103"><ele>345.0</ele><time>2026-05-03T06:40:28.777Z</time></trkpt><trkpt lat="39.8466584" lon="8.7456908"><ele>345.0</ele><time>2026-05-03T06:40:29.776Z</time></trkpt><trkpt lat="39.8467588" lon="8.7456626"><ele>345.0</ele><time>2026-05-03T06:40:30.778Z</time></trkpt><trkpt lat="39.8468535" lon="8.7456332"><ele>345.0</ele><time>2026-05-03T06:40:31.778Z</time></trkpt><trkpt lat="39.8469402" lon="8.7456047"><ele>345.0</ele><time>2026-05-03T06:40:32.778Z</time></trkpt><trkpt lat="39.8470143" lon="8.7455743"><ele>345.0</ele><time>2026-05-03T06:40:33.776Z</time></trkpt><trkpt lat="39.847086" lon="8.7455443"><ele>345.0</ele><time>2026-05-03T06:40:34.778Z</time></trkpt><trkpt lat="39.8471634" lon="8.7455153"><ele>343.5</ele><time>2026-05-03T06:40:35.779Z</time></trkpt><trkpt lat="39.8472415" lon="8.7454857"><ele>342.0</ele><time>2026-05-03T06:40:36.778Z</time></trkpt><trkpt lat="39.8473289" lon="8.7454521"><ele>340.5</ele><time>2026-05-03T06:40:37.777Z</time></trkpt><trkpt lat="39.8474139" lon="8.7454241"><ele>339.0</ele><time>2026-05-03T06:40:38.778Z</time></trkpt><trkpt lat="39.847505" lon="8.7453986"><ele>337.5</ele><time>2026-05-03T06:40:39.777Z</time></trkpt><trkpt lat="39.8475887" lon="8.745376"><ele>336.0</ele><time>2026-05-03T06:40:40.777Z</time></trkpt><trkpt lat="39.8476687" lon="8.7453518"><ele>333.8333333333333</ele><time>2026-05-03T06:40:41.778Z</time></trkpt><trkpt lat="39.8477398" lon="8.7453264"><ele>331.6666666666667</ele><time>2026-05-03T06:40:42.779Z</time></trkpt><trkpt lat="39.8478211" lon="8.7453004"><ele>329.5</ele><time>2026-05-03T06:40:43.779Z</time></trkpt><trkpt lat="39.847904" lon="8.7452727"><ele>327.33333333333337</ele><time>2026-05-03T06:40:44.778Z</time></trkpt><trkpt lat="39.8479834" lon="8.7452525"><ele>325.1666666666667</ele><time>2026-05-03T06:40:45.778Z</time></trkpt><trkpt lat="39.8480576" lon="8.7452346"><ele>323.0</ele><time>2026-05-03T06:40:46.778Z</time></trkpt><trkpt lat="39.8481336" lon="8.7452315"><ele>323.0</ele><time>2026-05-03T06:40:47.778Z</time></trkpt><trkpt lat="39.8482126" lon="8.7452169"><ele>323.0</ele><time>2026-05-03T06:40:48.777Z</time></trkpt><trkpt lat="39.848289" lon="8.7452103"><ele>323.0</ele><time>2026-05-03T06:40:49.777Z</time></trkpt><trkpt lat="39.848366" lon="8.7452122"><ele>323.0</ele><time>2026-05-03T06:40:50.779Z</time></trkpt><trkpt lat="39.8484472" lon="8.745231"><ele>323.0</ele><time>2026-05-03T06:40:51.776Z</time></trkpt><trkpt lat="39.8485271" lon="8.745238"><ele>323.0</ele><time>2026-05-03T06:40:52.779Z</time></trkpt><trkpt lat="39.8486075" lon="8.745222"><ele>320.5714285714286</ele><time>2026-05-03T06:40:53.778Z</time></trkpt><trkpt lat="39.8486768" lon="8.7451859"><ele>318.14285714285717</ele><time>2026-05-03T06:40:54.776Z</time></trkpt><trkpt lat="39.8487318" lon="8.7451301"><ele>315.7142857142857</ele><time>2026-05-03T06:40:55.778Z</time></trkpt><trkpt lat="39.8487865" lon="8.7450716"><ele>313.28571428571433</ele><time>2026-05-03T06:40:56.778Z</time></trkpt><trkpt lat="39.8488471" lon="8.7450198"><ele>310.8571428571429</ele><time>2026-05-03T06:40:57.777Z</time></trkpt><trkpt lat="39.8489093" lon="8.7449778"><ele>308.42857142857144</ele><time>2026-05-03T06:40:58.777Z</time></trkpt><trkpt lat="39.8489721" lon="8.7449518"><ele>306.0</ele><time>2026-05-03T06:40:59.777Z</time></trkpt><trkpt lat="39.8490435" lon="8.7449426"><ele>306.0</ele><time>2026-05-03T06:41:00.776Z</time></trkpt><trkpt lat="39.8491077" lon="8.744954"><ele>306.0</ele><time>2026-05-03T06:41:01.779Z</time></trkpt><trkpt lat="39.8491816" lon="8.7449774"><ele>306.0</ele><time>2026-05-03T06:41:02.779Z</time></trkpt><trkpt lat="39.8492621" lon="8.7450189"><ele>306.0</ele><time>2026-05-03T06:41:03.779Z</time></trkpt><trkpt lat="39.8493401" lon="8.7450745"><ele>306.0</ele><time>2026-05-03T06:41:04.779Z</time></trkpt><trkpt lat="39.8494058" lon="8.7451342"><ele>306.0</ele><time>2026-05-03T06:41:05.779Z</time></trkpt><trkpt lat="39.8494681" lon="8.745214"><ele>304.5</ele><time>2026-05-03T06:41:06.777Z</time></trkpt><trkpt lat="39.8495368" lon="8.7452951"><ele>303.0</ele><time>2026-05-03T06:41:07.778Z</time></trkpt><trkpt lat="39.8496041" lon="8.745362"><ele>301.5</ele><time>2026-05-03T06:41:08.777Z</time></trkpt><trkpt lat="39.8496725" lon="8.7454225"><ele>300.0</ele><time>2026-05-03T06:41:09.778Z</time></trkpt><trkpt lat="39.8497275" lon="8.7454832"><ele>298.5</ele><time>2026-05-03T06:41:10.777Z</time></trkpt><trkpt lat="39.8497879" lon="8.7455439"><ele>297.0</ele><time>2026-05-03T06:41:11.778Z</time></trkpt><trkpt lat="39.849844" lon="8.7456031"><ele>297.0</ele><time>2026-05-03T06:41:12.778Z</time></trkpt><trkpt lat="39.8499048" lon="8.7456627"><ele>297.0</ele><time>2026-05-03T06:41:13.778Z</time></trkpt><trkpt lat="39.8499678" lon="8.7457247"><ele>297.0</ele><time>2026-05-03T06:41:14.778Z</time></trkpt><trkpt lat="39.8500403" lon="8.7457973"><ele>297.0</ele><time>2026-05-03T06:41:15.779Z</time></trkpt><trkpt lat="39.8501076" lon="8.7458642"><ele>297.0</ele><time>2026-05-03T06:41:16.777Z</time></trkpt><trkpt lat="39.8501747" lon="8.7459269"><ele>297.0</ele><time>2026-05-03T06:41:17.777Z</time></trkpt><trkpt lat="39.8502499" lon="8.74598"><ele>295.0</ele><time>2026-05-03T06:41:18.778Z</time></trkpt><trkpt lat="39.8503218" lon="8.7460502"><ele>293.0</ele><time>2026-05-03T06:41:19.776Z</time></trkpt><trkpt lat="39.8503879" lon="8.7461238"><ele>291.0</ele><time>2026-05-03T06:41:20.777Z</time></trkpt><trkpt lat="39.8504375" lon="8.7461978"><ele>289.0</ele><time>2026-05-03T06:41:21.777Z</time></trkpt><trkpt lat="39.8504875" lon="8.7462492"><ele>287.0</ele><time>2026-05-03T06:41:22.778Z</time></trkpt><trkpt lat="39.850593" lon="8.7462697"><ele>285.0</ele><time>2026-05-03T06:41:24.777Z</time></trkpt><trkpt lat="39.8506738" lon="8.7461957"><ele>285.0</ele><time>2026-05-03T06:41:26.778Z</time></trkpt><trkpt lat="39.8507619" lon="8.7460874"><ele>285.0</ele><time>2026-05-03T06:41:28.777Z</time></trkpt><trkpt lat="39.850824" lon="8.7460475"><ele>285.0</ele><time>2026-05-03T06:41:29.778Z</time></trkpt><trkpt lat="39.8508916" lon="8.7460102"><ele>285.0</ele><time>2026-05-03T06:41:30.778Z</time></trkpt><trkpt lat="39.8510134" lon="8.7459701"><ele>285.0</ele><time>2026-05-03T06:41:32.778Z</time></trkpt><trkpt lat="39.8510855" lon="8.7459343"><ele>283.1666666666667</ele><time>2026-05-03T06:41:33.777Z</time></trkpt><trkpt lat="39.8511443" lon="8.7458838"><ele>281.3333333333333</ele><time>2026-05-03T06:41:34.778Z</time></trkpt><trkpt lat="39.8512097" lon="8.7458189"><ele>279.5</ele><time>2026-05-03T06:41:35.778Z</time></trkpt><trkpt lat="39.8512768" lon="8.7457706"><ele>277.66666666666663</ele><time>2026-05-03T06:41:36.779Z</time></trkpt><trkpt lat="39.8513471" lon="8.7457156"><ele>275.8333333333333</ele><time>2026-05-03T06:41:37.777Z</time></trkpt><trkpt lat="39.8514206" lon="8.7456919"><ele>274.0</ele><time>2026-05-03T06:41:38.778Z</time></trkpt><trkpt lat="39.851505" lon="8.745666"><ele>274.0</ele><time>2026-05-03T06:41:39.778Z</time></trkpt><trkpt lat="39.8516033" lon="8.745643"><ele>274.0</ele><time>2026-05-03T06:41:40.777Z</time></trkpt><trkpt lat="39.8517001" lon="8.7456297"><ele>274.0</ele><time>2026-05-03T06:41:41.778Z</time></trkpt><trkpt lat="39.8517826" lon="8.7456364"><ele>274.0</ele><time>2026-05-03T06:41:42.776Z</time></trkpt><trkpt lat="39.8518535" lon="8.7456533"><ele>274.0</ele><time>2026-05-03T06:41:43.778Z</time></trkpt><trkpt lat="39.8519187" lon="8.7456729"><ele>274.0</ele><time>2026-05-03T06:41:44.778Z</time></trkpt><trkpt lat="39.8519966" lon="8.7456734"><ele>272.0</ele><time>2026-05-03T06:41:45.777Z</time></trkpt><trkpt lat="39.8520786" lon="8.745655"><ele>270.0</ele><time>2026-05-03T06:41:46.778Z</time></trkpt><trkpt lat="39.8521581" lon="8.7456146"><ele>268.0</ele><time>2026-05-03T06:41:47.778Z</time></trkpt><trkpt lat="39.8522303" lon="8.7455563"><ele>266.0</ele><time>2026-05-03T06:41:48.777Z</time></trkpt><trkpt lat="39.8523041" lon="8.7455015"><ele>264.0</ele><time>2026-05-03T06:41:49.778Z</time></trkpt><trkpt lat="39.8523796" lon="8.7454552"><ele>262.0</ele><time>2026-05-03T06:41:50.778Z</time></trkpt><trkpt lat="39.8524634" lon="8.7454092"><ele>262.0</ele><time>2026-05-03T06:41:51.777Z</time></trkpt><trkpt lat="39.8525503" lon="8.7453665"><ele>262.0</ele><time>2026-05-03T06:41:52.778Z</time></trkpt><trkpt lat="39.8526366" lon="8.7453294"><ele>262.0</ele><time>2026-05-03T06:41:53.778Z</time></trkpt><trkpt lat="39.8527252" lon="8.7453038"><ele>262.0</ele><time>2026-05-03T06:41:54.779Z</time></trkpt><trkpt lat="39.8528148" lon="8.7452959"><ele>262.0</ele><time>2026-05-03T06:41:55.778Z</time></trkpt><trkpt lat="39.8528979" lon="8.7452971"><ele>262.0</ele><time>2026-05-03T06:41:56.777Z</time></trkpt><trkpt lat="39.8529694" lon="8.7453072"><ele>260.6</ele><time>2026-05-03T06:41:57.778Z</time></trkpt><trkpt lat="39.8530405" lon="8.7453199"><ele>259.2</ele><time>2026-05-03T06:41:58.777Z</time></trkpt><trkpt lat="39.8531168" lon="8.7453338"><ele>257.8</ele><time>2026-05-03T06:41:59.778Z</time></trkpt><trkpt lat="39.8531971" lon="8.7453452"><ele>256.4</ele><time>2026-05-03T06:42:00.777Z</time></trkpt><trkpt lat="39.8533614" lon="8.7453658"><ele>255.0</ele><time>2026-05-03T06:42:02.779Z</time></trkpt><trkpt lat="39.8534385" lon="8.7453887"><ele>253.33333333333334</ele><time>2026-05-03T06:42:03.782Z</time></trkpt><trkpt lat="39.8535031" lon="8.7454285"><ele>251.66666666666669</ele><time>2026-05-03T06:42:04.777Z</time></trkpt><trkpt lat="39.8535612" lon="8.7454841"><ele>250.0</ele><time>2026-05-03T06:42:05.778Z</time></trkpt><trkpt lat="39.8536183" lon="8.7455392"><ele>248.33333333333334</ele><time>2026-05-03T06:42:06.778Z</time></trkpt><trkpt lat="39.8536802" lon="8.7455902"><ele>246.66666666666669</ele><time>2026-05-03T06:42:07.778Z</time></trkpt><trkpt lat="39.8537591" lon="8.7456268"><ele>245.0</ele><time>2026-05-03T06:42:08.779Z</time></trkpt><trkpt lat="39.8538441" lon="8.7456714"><ele>245.0</ele><time>2026-05-03T06:42:09.778Z</time></trkpt><trkpt lat="39.8539453" lon="8.745708"><ele>245.0</ele><time>2026-05-03T06:42:10.777Z</time></trkpt><trkpt lat="39.854057" lon="8.7457522"><ele>245.0</ele><time>2026-05-03T06:42:11.777Z</time></trkpt><trkpt lat="39.8541682" lon="8.7458056"><ele>245.0</ele><time>2026-05-03T06:42:12.777Z</time></trkpt><trkpt lat="39.8542682" lon="8.7458455"><ele>245.0</ele><time>2026-05-03T06:42:13.778Z</time></trkpt><trkpt lat="39.8543596" lon="8.7458764"><ele>244.16666666666669</ele><time>2026-05-03T06:42:14.778Z</time></trkpt><trkpt lat="39.8544378" lon="8.7459"><ele>243.33333333333334</ele><time>2026-05-03T06:42:15.779Z</time></trkpt><trkpt lat="39.8545149" lon="8.745917"><ele>242.5</ele><time>2026-05-03T06:42:16.779Z</time></trkpt><trkpt lat="39.8545949" lon="8.7459115"><ele>241.66666666666669</ele><time>2026-05-03T06:42:17.778Z</time></trkpt><trkpt lat="39.8546737" lon="8.7459094"><ele>240.83333333333334</ele><time>2026-05-03T06:42:18.776Z</time></trkpt><trkpt lat="39.8547588" lon="8.7459062"><ele>240.0</ele><time>2026-05-03T06:42:19.777Z</time></trkpt><trkpt lat="39.8548453" lon="8.7458995"><ele>240.0</ele><time>2026-05-03T06:42:20.778Z</time></trkpt><trkpt lat="39.8549265" lon="8.7459"><ele>240.0</ele><time>2026-05-03T06:42:21.779Z</time></trkpt><trkpt lat="39.8550176" lon="8.7459042"><ele>240.0</ele><time>2026-05-03T06:42:22.777Z</time></trkpt><trkpt lat="39.8551139" lon="8.7459125"><ele>240.0</ele><time>2026-05-03T06:42:23.779Z</time></trkpt><trkpt lat="39.8551993" lon="8.7459236"><ele>240.0</ele><time>2026-05-03T06:42:24.776Z</time></trkpt><trkpt lat="39.8552768" lon="8.7459451"><ele>240.0</ele><time>2026-05-03T06:42:25.777Z</time></trkpt><trkpt lat="39.8553558" lon="8.7459604"><ele>239.0</ele><time>2026-05-03T06:42:26.779Z</time></trkpt><trkpt lat="39.8554368" lon="8.7459625"><ele>238.0</ele><time>2026-05-03T06:42:27.777Z</time></trkpt><trkpt lat="39.8555158" lon="8.7459425"><ele>237.0</ele><time>2026-05-03T06:42:28.778Z</time></trkpt><trkpt lat="39.8555844" lon="8.7459095"><ele>236.0</ele><time>2026-05-03T06:42:29.777Z</time></trkpt><trkpt lat="39.8556531" lon="8.7458633"><ele>235.0</ele><time>2026-05-03T06:42:30.778Z</time></trkpt><trkpt lat="39.8557185" lon="8.7458209"><ele>234.0</ele><time>2026-05-03T06:42:31.778Z</time></trkpt><trkpt lat="39.8557838" lon="8.7457859"><ele>234.0</ele><time>2026-05-03T06:42:32.777Z</time></trkpt><trkpt lat="39.8558434" lon="8.7457554"><ele>234.0</ele><time>2026-05-03T06:42:33.779Z</time></trkpt><trkpt lat="39.8559517" lon="8.7456869"><ele>234.0</ele><time>2026-05-03T06:42:35.777Z</time></trkpt><trkpt lat="39.8560618" lon="8.7456523"><ele>234.0</ele><time>2026-05-03T06:42:37.778Z</time></trkpt><trkpt lat="39.8561278" lon="8.7456398"><ele>234.0</ele><time>2026-05-03T06:42:38.778Z</time></trkpt><trkpt lat="39.8561949" lon="8.7456194"><ele>234.0</ele><time>2026-05-03T06:42:39.778Z</time></trkpt><trkpt lat="39.8562578" lon="8.7456"><ele>232.39999999999998</ele><time>2026-05-03T06:42:40.778Z</time></trkpt><trkpt lat="39.8563656" lon="8.745525"><ele>230.79999999999998</ele><time>2026-05-03T06:42:42.778Z</time></trkpt><trkpt lat="39.8564488" lon="8.7454267"><ele>229.20000000000002</ele><time>2026-05-03T06:42:44.778Z</time></trkpt><trkpt lat="39.856499" lon="8.7453107"><ele>227.60000000000002</ele><time>2026-05-03T06:42:46.777Z</time></trkpt><trkpt lat="39.856521" lon="8.7451986"><ele>226.0</ele><time>2026-05-03T06:42:48.777Z</time></trkpt><trkpt lat="39.8565091" lon="8.7451055"><ele>223.49999999999997</ele><time>2026-05-03T06:42:50.777Z</time></trkpt><trkpt lat="39.856465" lon="8.7450429"><ele>221.0</ele><time>2026-05-03T06:42:52.778Z</time></trkpt><trkpt lat="39.8563898" lon="8.7449854"><ele>218.5</ele><time>2026-05-03T06:42:54.777Z</time></trkpt><trkpt lat="39.8563331" lon="8.7449417"><ele>216.0</ele><time>2026-05-03T06:42:55.777Z</time></trkpt><trkpt lat="39.8562628" lon="8.744905"><ele>213.49999999999997</ele><time>2026-05-03T06:42:56.778Z</time></trkpt><trkpt lat="39.8561963" lon="8.7448718"><ele>211.0</ele><time>2026-05-03T06:42:57.778Z</time></trkpt><trkpt lat="39.8561154" lon="8.7448408"><ele>210.99999999999997</ele><time>2026-05-03T06:42:58.779Z</time></trkpt><trkpt lat="39.8560343" lon="8.7448035"><ele>211.0</ele><time>2026-05-03T06:42:59.778Z</time></trkpt><trkpt lat="39.8559635" lon="8.7447586"><ele>211.0</ele><time>2026-05-03T06:43:00.778Z</time></trkpt><trkpt lat="39.8559004" lon="8.7447083"><ele>211.0</ele><time>2026-05-03T06:43:01.778Z</time></trkpt><trkpt lat="39.8558364" lon="8.7446509"><ele>210.99999999999997</ele><time>2026-05-03T06:43:02.779Z</time></trkpt><trkpt lat="39.8557724" lon="8.7446134"><ele>211.0</ele><time>2026-05-03T06:43:03.778Z</time></trkpt><trkpt lat="39.8557071" lon="8.7445784"><ele>212.60000000000002</ele><time>2026-05-03T06:43:04.779Z</time></trkpt><trkpt lat="39.8556382" lon="8.7445471"><ele>214.2</ele><time>2026-05-03T06:43:05.777Z</time></trkpt><trkpt lat="39.8555758" lon="8.7445154"><ele>215.79999999999998</ele><time>2026-05-03T06:43:06.778Z</time></trkpt><trkpt lat="39.8554724" lon="8.7444355"><ele>217.39999999999998</ele><time>2026-05-03T06:43:08.776Z</time></trkpt><trkpt lat="39.8554127" lon="8.7443065"><ele>219.0</ele><time>2026-05-03T06:43:10.778Z</time></trkpt><trkpt lat="39.8553303" lon="8.7441816"><ele>215.39999999999998</ele><time>2026-05-03T06:43:12.778Z</time></trkpt><trkpt lat="39.8552866" lon="8.7441133"><ele>211.79999999999998</ele><time>2026-05-03T06:43:13.779Z</time></trkpt><trkpt lat="39.8552669" lon="8.7439638"><ele>208.2</ele><time>2026-05-03T06:43:15.778Z</time></trkpt><trkpt lat="39.8553342" lon="8.743874"><ele>204.60000000000002</ele><time>2026-05-03T06:43:17.776Z</time></trkpt><trkpt lat="39.8554087" lon="8.7438578"><ele>201.0</ele><time>2026-05-03T06:43:18.777Z</time></trkpt><trkpt lat="39.8555051" lon="8.7438516"><ele>201.0</ele><time>2026-05-03T06:43:19.778Z</time></trkpt><trkpt lat="39.8555858" lon="8.7438525"><ele>201.0</ele><time>2026-05-03T06:43:20.78Z</time></trkpt><trkpt lat="39.8556675" lon="8.7438645"><ele>201.0</ele><time>2026-05-03T06:43:21.777Z</time></trkpt><trkpt lat="39.8557431" lon="8.7438935"><ele>201.0</ele><time>2026-05-03T06:43:22.778Z</time></trkpt><trkpt lat="39.8558081" lon="8.7439306"><ele>201.0</ele><time>2026-05-03T06:43:23.776Z</time></trkpt><trkpt lat="39.8558691" lon="8.7439795"><ele>201.0</ele><time>2026-05-03T06:43:24.779Z</time></trkpt><trkpt lat="39.8559284" lon="8.7440185"><ele>199.66666666666666</ele><time>2026-05-03T06:43:25.778Z</time></trkpt><trkpt lat="39.8560554" lon="8.7440079"><ele>198.33333333333331</ele><time>2026-05-03T06:43:27.777Z</time></trkpt><trkpt lat="39.8561231" lon="8.743968"><ele>197.0</ele><time>2026-05-03T06:43:28.778Z</time></trkpt><trkpt lat="39.8561943" lon="8.7439267"><ele>195.66666666666666</ele><time>2026-05-03T06:43:29.777Z</time></trkpt><trkpt lat="39.85628" lon="8.7439345"><ele>194.33333333333331</ele><time>2026-05-03T06:43:30.777Z</time></trkpt><trkpt lat="39.8563625" lon="8.7439385"><ele>193.0</ele><time>2026-05-03T06:43:31.776Z</time></trkpt><trkpt lat="39.8564477" lon="8.7439507"><ele>192.99999999999997</ele><time>2026-05-03T06:43:32.779Z</time></trkpt><trkpt lat="39.8565168" lon="8.7439806"><ele>193.0</ele><time>2026-05-03T06:43:33.778Z</time></trkpt><trkpt lat="39.8565834" lon="8.7440329"><ele>193.0</ele><time>2026-05-03T06:43:34.778Z</time></trkpt><trkpt lat="39.8566597" lon="8.7441005"><ele>193.0</ele><time>2026-05-03T06:43:35.777Z</time></trkpt><trkpt lat="39.8567388" lon="8.7441715"><ele>192.99999999999997</ele><time>2026-05-03T06:43:36.778Z</time></trkpt><trkpt lat="39.8568348" lon="8.7442356"><ele>193.0</ele><time>2026-05-03T06:43:37.777Z</time></trkpt><trkpt lat="39.8569304" lon="8.7442707"><ele>192.4</ele><time>2026-05-03T06:43:38.778Z</time></trkpt><trkpt lat="39.8570231" lon="8.7442908"><ele>191.8</ele><time>2026-05-03T06:43:39.778Z</time></trkpt><trkpt lat="39.8571361" lon="8.7443215"><ele>191.2</ele><time>2026-05-03T06:43:40.78Z</time></trkpt><trkpt lat="39.8572433" lon="8.744356"><ele>190.6</ele><time>2026-05-03T06:43:41.777Z</time></trkpt><trkpt lat="39.8573347" lon="8.7444025"><ele>190.0</ele><time>2026-05-03T06:43:42.777Z</time></trkpt><trkpt lat="39.8574199" lon="8.7444625"><ele>190.0</ele><time>2026-05-03T06:43:43.778Z</time></trkpt><trkpt lat="39.85751" lon="8.74454"><ele>190.0</ele><time>2026-05-03T06:43:44.779Z</time></trkpt><trkpt lat="39.8576098" lon="8.7446366"><ele>190.0</ele><time>2026-05-03T06:43:45.778Z</time></trkpt><trkpt lat="39.8576921" lon="8.7447183"><ele>190.0</ele><time>2026-05-03T06:43:46.778Z</time></trkpt><trkpt lat="39.8577821" lon="8.7447935"><ele>190.0</ele><time>2026-05-03T06:43:47.777Z</time></trkpt><trkpt lat="39.8578724" lon="8.7448392"><ele>187.0</ele><time>2026-05-03T06:43:48.778Z</time></trkpt><trkpt lat="39.8579629" lon="8.7448705"><ele>184.0</ele><time>2026-05-03T06:43:49.777Z</time></trkpt><trkpt lat="39.8580756" lon="8.7448837"><ele>181.0</ele><time>2026-05-03T06:43:50.779Z</time></trkpt><trkpt lat="39.8581721" lon="8.7448874"><ele>178.0</ele><time>2026-05-03T06:43:51.778Z</time></trkpt><trkpt lat="39.8582874" lon="8.7449009"><ele>175.0</ele><time>2026-05-03T06:43:52.779Z</time></trkpt><trkpt lat="39.8583735" lon="8.7449127"><ele>173.6</ele><time>2026-05-03T06:43:53.779Z</time></trkpt><trkpt lat="39.8584722" lon="8.7449308"><ele>172.2</ele><time>2026-05-03T06:43:54.778Z</time></trkpt><trkpt lat="39.8585687" lon="8.7449554"><ele>170.8</ele><time>2026-05-03T06:43:55.779Z</time></trkpt><trkpt lat="39.8586573" lon="8.7449993"><ele>169.4</ele><time>2026-05-03T06:43:56.777Z</time></trkpt><trkpt lat="39.8587527" lon="8.7450667"><ele>168.0</ele><time>2026-05-03T06:43:57.779Z</time></trkpt><trkpt lat="39.8588517" lon="8.7451514"><ele>167.0</ele><time>2026-05-03T06:43:58.777Z</time></trkpt><trkpt lat="39.8589525" lon="8.7452395"><ele>166.0</ele><time>2026-05-03T06:43:59.779Z</time></trkpt><trkpt lat="39.8590593" lon="8.7453269"><ele>165.0</ele><time>2026-05-03T06:44:00.776Z</time></trkpt><trkpt lat="39.8591698" lon="8.7454047"><ele>164.0</ele><time>2026-05-03T06:44:01.777Z</time></trkpt><trkpt lat="39.8592768" lon="8.7454676"><ele>161.25</ele><time>2026-05-03T06:44:02.777Z</time></trkpt><trkpt lat="39.8593736" lon="8.7455243"><ele>158.5</ele><time>2026-05-03T06:44:03.778Z</time></trkpt><trkpt lat="39.8594555" lon="8.745602"><ele>155.75</ele><time>2026-05-03T06:44:04.778Z</time></trkpt><trkpt lat="39.8595394" lon="8.7457092"><ele>153.0</ele><time>2026-05-03T06:44:05.777Z</time></trkpt><trkpt lat="39.8596169" lon="8.7458458"><ele>153.0</ele><time>2026-05-03T06:44:06.778Z</time></trkpt><trkpt lat="39.8596947" lon="8.7459687"><ele>153.0</ele><time>2026-05-03T06:44:07.778Z</time></trkpt><trkpt lat="39.8597611" lon="8.7460705"><ele>153.0</ele><time>2026-05-03T06:44:08.778Z</time></trkpt><trkpt lat="39.8598072" lon="8.746148"><ele>153.0</ele><time>2026-05-03T06:44:09.777Z</time></trkpt><trkpt lat="39.8598337" lon="8.7462957"><ele>153.0</ele><time>2026-05-03T06:44:11.778Z</time></trkpt><trkpt lat="39.8598077" lon="8.7463742"><ele>152.33333333333334</ele><time>2026-05-03T06:44:12.777Z</time></trkpt><trkpt lat="39.8597438" lon="8.7464608"><ele>151.66666666666666</ele><time>2026-05-03T06:44:13.777Z</time></trkpt><trkpt lat="39.8596852" lon="8.7465531"><ele>151.0</ele><time>2026-05-03T06:44:14.777Z</time></trkpt><trkpt lat="39.8596432" lon="8.7466542"><ele>150.33333333333331</ele><time>2026-05-03T06:44:15.778Z</time></trkpt><trkpt lat="39.8596232" lon="8.7467522"><ele>149.66666666666666</ele><time>2026-05-03T06:44:16.778Z</time></trkpt><trkpt lat="39.8596278" lon="8.7468406"><ele>149.0</ele><time>2026-05-03T06:44:17.776Z</time></trkpt><trkpt lat="39.8597139" lon="8.7469696"><ele>147.0</ele><time>2026-05-03T06:44:19.778Z</time></trkpt><trkpt lat="39.8598039" lon="8.7470149"><ele>145.0</ele><time>2026-05-03T06:44:20.778Z</time></trkpt><trkpt lat="39.8599161" lon="8.7470639"><ele>143.0</ele><time>2026-05-03T06:44:21.777Z</time></trkpt><trkpt lat="39.8600362" lon="8.7471356"><ele>141.0</ele><time>2026-05-03T06:44:22.777Z</time></trkpt><trkpt lat="39.8601695" lon="8.7472267"><ele>141.0</ele><time>2026-05-03T06:44:23.777Z</time></trkpt><trkpt lat="39.8603167" lon="8.747334"><ele>141.0</ele><time>2026-05-03T06:44:24.777Z</time></trkpt><trkpt lat="39.8604627" lon="8.747447"><ele>141.0</ele><time>2026-05-03T06:44:25.778Z</time></trkpt><trkpt lat="39.8606062" lon="8.7475607"><ele>141.0</ele><time>2026-05-03T06:44:26.778Z</time></trkpt><trkpt lat="39.8607345" lon="8.7476742"><ele>141.0</ele><time>2026-05-03T06:44:27.778Z</time></trkpt><trkpt lat="39.8608572" lon="8.7478084"><ele>141.0</ele><time>2026-05-03T06:44:28.779Z</time></trkpt><trkpt lat="39.8609799" lon="8.7479522"><ele>141.66666666666666</ele><time>2026-05-03T06:44:29.778Z</time></trkpt><trkpt lat="39.8611241" lon="8.7481031"><ele>142.33333333333331</ele><time>2026-05-03T06:44:30.777Z</time></trkpt><trkpt lat="39.8612781" lon="8.7482446"><ele>143.0</ele><time>2026-05-03T06:44:31.777Z</time></trkpt><trkpt lat="39.8614385" lon="8.7483782"><ele>143.0</ele><time>2026-05-03T06:44:32.777Z</time></trkpt><trkpt lat="39.8615965" lon="8.7485023"><ele>143.0</ele><time>2026-05-03T06:44:33.778Z</time></trkpt><trkpt lat="39.8617483" lon="8.7486242"><ele>143.0</ele><time>2026-05-03T06:44:34.779Z</time></trkpt><trkpt lat="39.8618981" lon="8.7487449"><ele>142.0</ele><time>2026-05-03T06:44:35.778Z</time></trkpt><trkpt lat="39.8620418" lon="8.7488653"><ele>141.0</ele><time>2026-05-03T06:44:36.778Z</time></trkpt><trkpt lat="39.8621923" lon="8.7489824"><ele>140.0</ele><time>2026-05-03T06:44:37.778Z</time></trkpt><trkpt lat="39.8623439" lon="8.7491009"><ele>140.0</ele><time>2026-05-03T06:44:38.778Z</time></trkpt><trkpt lat="39.8625012" lon="8.7492166"><ele>140.0</ele><time>2026-05-03T06:44:39.778Z</time></trkpt><trkpt lat="39.8626614" lon="8.7493319"><ele>140.0</ele><time>2026-05-03T06:44:40.778Z</time></trkpt><trkpt lat="39.8628188" lon="8.7494388"><ele>137.0</ele><time>2026-05-03T06:44:41.778Z</time></trkpt><trkpt lat="39.8629737" lon="8.7495498"><ele>134.0</ele><time>2026-05-03T06:44:42.777Z</time></trkpt><trkpt lat="39.863128" lon="8.7496575"><ele>131.0</ele><time>2026-05-03T06:44:43.779Z</time></trkpt><trkpt lat="39.8632835" lon="8.7497671"><ele>131.0</ele><time>2026-05-03T06:44:44.778Z</time></trkpt><trkpt lat="39.8634423" lon="8.7498786"><ele>131.0</ele><time>2026-05-03T06:44:45.777Z</time></trkpt><trkpt lat="39.8635939" lon="8.7499782"><ele>131.0</ele><time>2026-05-03T06:44:46.778Z</time></trkpt><trkpt lat="39.8637495" lon="8.7500678"><ele>129.66666666666666</ele><time>2026-05-03T06:44:47.778Z</time></trkpt><trkpt lat="39.8639082" lon="8.7501569"><ele>128.33333333333334</ele><time>2026-05-03T06:44:48.779Z</time></trkpt><trkpt lat="39.8640725" lon="8.7502411"><ele>127.0</ele><time>2026-05-03T06:44:49.778Z</time></trkpt><trkpt lat="39.8642345" lon="8.7503157"><ele>127.66666666666667</ele><time>2026-05-03T06:44:50.779Z</time></trkpt><trkpt lat="39.8644063" lon="8.750401"><ele>128.33333333333334</ele><time>2026-05-03T06:44:51.778Z</time></trkpt><trkpt lat="39.8645783" lon="8.7504837"><ele>129.0</ele><time>2026-05-03T06:44:52.779Z</time></trkpt><trkpt lat="39.8647424" lon="8.7505655"><ele>129.0</ele><time>2026-05-03T06:44:53.778Z</time></trkpt><trkpt lat="39.8649116" lon="8.7506408"><ele>129.0</ele><time>2026-05-03T06:44:54.777Z</time></trkpt><trkpt lat="39.8650744" lon="8.750721"><ele>129.0</ele><time>2026-05-03T06:44:55.778Z</time></trkpt><trkpt lat="39.8652319" lon="8.7507963"><ele>128.66666666666666</ele><time>2026-05-03T06:44:56.777Z</time></trkpt><trkpt lat="39.8653825" lon="8.7508709"><ele>128.33333333333331</ele><time>2026-05-03T06:44:57.779Z</time></trkpt><trkpt lat="39.8655325" lon="8.7509437"><ele>128.0</ele><time>2026-05-03T06:44:58.778Z</time></trkpt><trkpt lat="39.865687" lon="8.7510161"><ele>128.33333333333331</ele><time>2026-05-03T06:44:59.779Z</time></trkpt><trkpt lat="39.8658363" lon="8.7510856"><ele>128.66666666666666</ele><time>2026-05-03T06:45:00.778Z</time></trkpt><trkpt lat="39.8659872" lon="8.7511589"><ele>129.0</ele><time>2026-05-03T06:45:01.779Z</time></trkpt><trkpt lat="39.8661363" lon="8.7512368"><ele>129.0</ele><time>2026-05-03T06:45:02.779Z</time></trkpt><trkpt lat="39.8662872" lon="8.7513133"><ele>129.0</ele><time>2026-05-03T06:45:03.778Z</time></trkpt><trkpt lat="39.8664212" lon="8.7513851"><ele>129.0</ele><time>2026-05-03T06:45:04.777Z</time></trkpt><trkpt lat="39.8665414" lon="8.7514718"><ele>129.0</ele><time>2026-05-03T06:45:05.777Z</time></trkpt><trkpt lat="39.866648" lon="8.7515885"><ele>129.0</ele><time>2026-05-03T06:45:06.778Z</time></trkpt><trkpt lat="39.8667395" lon="8.7517275"><ele>129.0</ele><time>2026-05-03T06:45:07.777Z</time></trkpt><trkpt lat="39.8668286" lon="8.7518749"><ele>129.0</ele><time>2026-05-03T06:45:08.777Z</time></trkpt><trkpt lat="39.8669202" lon="8.7520301"><ele>129.0</ele><time>2026-05-03T06:45:09.777Z</time></trkpt><trkpt lat="39.8670121" lon="8.7521905"><ele>131.66666666666666</ele><time>2026-05-03T06:45:10.778Z</time></trkpt><trkpt lat="39.8671093" lon="8.7523567"><ele>134.33333333333331</ele><time>2026-05-03T06:45:11.779Z</time></trkpt><trkpt lat="39.8672174" lon="8.752513"><ele>137.0</ele><time>2026-05-03T06:45:12.779Z</time></trkpt><trkpt lat="39.8673331" lon="8.7526609"><ele>137.0</ele><time>2026-05-03T06:45:13.777Z</time></trkpt><trkpt lat="39.8674623" lon="8.7527948"><ele>137.0</ele><time>2026-05-03T06:45:14.777Z</time></trkpt><trkpt lat="39.8675961" lon="8.752924"><ele>137.0</ele><time>2026-05-03T06:45:15.778Z</time></trkpt><trkpt lat="39.867733" lon="8.7530475"><ele>139.0</ele><time>2026-05-03T06:45:16.778Z</time></trkpt><trkpt lat="39.8678719" lon="8.7531606"><ele>141.0</ele><time>2026-05-03T06:45:17.777Z</time></trkpt><trkpt lat="39.8680089" lon="8.753271"><ele>143.0</ele><time>2026-05-03T06:45:18.778Z</time></trkpt><trkpt lat="39.8681433" lon="8.7533831"><ele>143.0</ele><time>2026-05-03T06:45:19.779Z</time></trkpt><trkpt lat="39.8682732" lon="8.7534836"><ele>143.0</ele><time>2026-05-03T06:45:20.779Z</time></trkpt><trkpt lat="39.8683848" lon="8.7535725"><ele>143.0</ele><time>2026-05-03T06:45:21.779Z</time></trkpt><trkpt lat="39.8684688" lon="8.7536571"><ele>143.0</ele><time>2026-05-03T06:45:22.777Z</time></trkpt><trkpt lat="39.8685252" lon="8.7537482"><ele>143.4</ele><time>2026-05-03T06:45:23.777Z</time></trkpt><trkpt lat="39.8685527" lon="8.7538455"><ele>143.8</ele><time>2026-05-03T06:45:24.778Z</time></trkpt><trkpt lat="39.8685416" lon="8.7539568"><ele>144.2</ele><time>2026-05-03T06:45:25.778Z</time></trkpt><trkpt lat="39.8685083" lon="8.7540752"><ele>144.6</ele><time>2026-05-03T06:45:26.778Z</time></trkpt><trkpt lat="39.8684627" lon="8.754207"><ele>145.0</ele><time>2026-05-03T06:45:27.778Z</time></trkpt><trkpt lat="39.8684064" lon="8.7543443"><ele>147.0</ele><time>2026-05-03T06:45:28.778Z</time></trkpt><trkpt lat="39.8683558" lon="8.7544816"><ele>149.0</ele><time>2026-05-03T06:45:29.778Z</time></trkpt><trkpt lat="39.868312" lon="8.7546359"><ele>151.0</ele><time>2026-05-03T06:45:30.778Z</time></trkpt><trkpt lat="39.8682649" lon="8.7547661"><ele>153.0</ele><time>2026-05-03T06:45:31.779Z</time></trkpt><trkpt lat="39.8682202" lon="8.754882"><ele>153.0</ele><time>2026-05-03T06:45:32.779Z</time></trkpt><trkpt lat="39.8681881" lon="8.7549789"><ele>153.0</ele><time>2026-05-03T06:45:33.777Z</time></trkpt><trkpt lat="39.8681635" lon="8.7550749"><ele>153.0</ele><time>2026-05-03T06:45:34.778Z</time></trkpt><trkpt lat="39.8681616" lon="8.7551766"><ele>153.0</ele><time>2026-05-03T06:45:35.778Z</time></trkpt><trkpt lat="39.8681877" lon="8.7552806"><ele>153.0</ele><time>2026-05-03T06:45:36.777Z</time></trkpt><trkpt lat="39.8682467" lon="8.7553601"><ele>153.0</ele><time>2026-05-03T06:45:37.777Z</time></trkpt><trkpt lat="39.8683201" lon="8.7553926"><ele>156.0</ele><time>2026-05-03T06:45:38.778Z</time></trkpt><trkpt lat="39.868411" lon="8.7553888"><ele>159.0</ele><time>2026-05-03T06:45:39.779Z</time></trkpt><trkpt lat="39.8685109" lon="8.7553566"><ele>162.0</ele><time>2026-05-03T06:45:40.777Z</time></trkpt><trkpt lat="39.868616" lon="8.7553243"><ele>165.0</ele><time>2026-05-03T06:45:41.779Z</time></trkpt><trkpt lat="39.8687269" lon="8.7552887"><ele>168.0</ele><time>2026-05-03T06:45:42.777Z</time></trkpt><trkpt lat="39.8688405" lon="8.7552565"><ele>171.75</ele><time>2026-05-03T06:45:43.777Z</time></trkpt><trkpt lat="39.8689523" lon="8.7552319"><ele>175.5</ele><time>2026-05-03T06:45:44.778Z</time></trkpt><trkpt lat="39.8690721" lon="8.7552155"><ele>179.25</ele><time>2026-05-03T06:45:45.777Z</time></trkpt><trkpt lat="39.8691956" lon="8.7552116"><ele>183.0</ele><time>2026-05-03T06:45:46.778Z</time></trkpt><trkpt lat="39.8693268" lon="8.7552202"><ele>185.0</ele><time>2026-05-03T06:45:47.776Z</time></trkpt><trkpt lat="39.8694602" lon="8.7552261"><ele>187.0</ele><time>2026-05-03T06:45:48.779Z</time></trkpt><trkpt lat="39.8695991" lon="8.7552269"><ele>189.0</ele><time>2026-05-03T06:45:49.778Z</time></trkpt><trkpt lat="39.8697359" lon="8.7552279"><ele>191.0</ele><time>2026-05-03T06:45:50.777Z</time></trkpt><trkpt lat="39.8698754" lon="8.7552285"><ele>191.0</ele><time>2026-05-03T06:45:51.778Z</time></trkpt><trkpt lat="39.8700176" lon="8.7552285"><ele>191.0</ele><time>2026-05-03T06:45:52.778Z</time></trkpt><trkpt lat="39.8701584" lon="8.755233"><ele>191.0</ele><time>2026-05-03T06:45:53.778Z</time></trkpt><trkpt lat="39.8703023" lon="8.7552392"><ele>191.0</ele><time>2026-05-03T06:45:54.778Z</time></trkpt><trkpt lat="39.8704514" lon="8.7552567"><ele>191.33333333333331</ele><time>2026-05-03T06:45:55.778Z</time></trkpt><trkpt lat="39.870604" lon="8.7552792"><ele>191.66666666666666</ele><time>2026-05-03T06:45:56.779Z</time></trkpt><trkpt lat="39.8707587" lon="8.7553055"><ele>192.0</ele><time>2026-05-03T06:45:57.776Z</time></trkpt><trkpt lat="39.8709085" lon="8.7553286"><ele>193.33333333333331</ele><time>2026-05-03T06:45:58.779Z</time></trkpt><trkpt lat="39.8710656" lon="8.7553442"><ele>194.66666666666666</ele><time>2026-05-03T06:45:59.777Z</time></trkpt><trkpt lat="39.8712268" lon="8.7553595"><ele>196.0</ele><time>2026-05-03T06:46:00.777Z</time></trkpt><trkpt lat="39.8713885" lon="8.7553786"><ele>196.0</ele><time>2026-05-03T06:46:01.778Z</time></trkpt><trkpt lat="39.8715468" lon="8.7554038"><ele>196.0</ele><time>2026-05-03T06:46:02.778Z</time></trkpt><trkpt lat="39.8717068" lon="8.7554352"><ele>196.0</ele><time>2026-05-03T06:46:03.777Z</time></trkpt><trkpt lat="39.8718672" lon="8.7554608"><ele>196.33333333333331</ele><time>2026-05-03T06:46:04.777Z</time></trkpt><trkpt lat="39.8720244" lon="8.7554814"><ele>196.66666666666669</ele><time>2026-05-03T06:46:05.777Z</time></trkpt><trkpt lat="39.8721845" lon="8.7555037"><ele>197.0</ele><time>2026-05-03T06:46:06.778Z</time></trkpt><trkpt lat="39.8723439" lon="8.7555237"><ele>197.0</ele><time>2026-05-03T06:46:07.778Z</time></trkpt><trkpt lat="39.8724999" lon="8.7555415"><ele>197.0</ele><time>2026-05-03T06:46:08.777Z</time></trkpt><trkpt lat="39.8726467" lon="8.7555681"><ele>197.0</ele><time>2026-05-03T06:46:09.779Z</time></trkpt><trkpt lat="39.8727814" lon="8.7556197"><ele>197.0</ele><time>2026-05-03T06:46:10.778Z</time></trkpt><trkpt lat="39.872905" lon="8.7556972"><ele>199.75</ele><time>2026-05-03T06:46:11.777Z</time></trkpt><trkpt lat="39.8730146" lon="8.7557992"><ele>202.5</ele><time>2026-05-03T06:46:12.777Z</time></trkpt><trkpt lat="39.8731225" lon="8.7559052"><ele>205.25</ele><time>2026-05-03T06:46:13.778Z</time></trkpt><trkpt lat="39.8732382" lon="8.7560098"><ele>208.0</ele><time>2026-05-03T06:46:14.778Z</time></trkpt><trkpt lat="39.8733601" lon="8.7561012"><ele>207.75</ele><time>2026-05-03T06:46:15.779Z</time></trkpt><trkpt lat="39.8734867" lon="8.756182"><ele>207.5</ele><time>2026-05-03T06:46:16.778Z</time></trkpt><trkpt lat="39.8736071" lon="8.7562562"><ele>207.25</ele><time>2026-05-03T06:46:17.778Z</time></trkpt><trkpt lat="39.8737097" lon="8.7563455"><ele>207.0</ele><time>2026-05-03T06:46:18.778Z</time></trkpt><trkpt lat="39.8738009" lon="8.7564252"><ele>207.0</ele><time>2026-05-03T06:46:19.778Z</time></trkpt><trkpt lat="39.8738939" lon="8.7564736"><ele>207.0</ele><time>2026-05-03T06:46:20.778Z</time></trkpt><trkpt lat="39.873988" lon="8.7564907"><ele>207.0</ele><time>2026-05-03T06:46:21.776Z</time></trkpt><trkpt lat="39.8740898" lon="8.7564865"><ele>207.0</ele><time>2026-05-03T06:46:22.777Z</time></trkpt><trkpt lat="39.8741981" lon="8.7564733"><ele>207.0</ele><time>2026-05-03T06:46:23.778Z</time></trkpt><trkpt lat="39.8743167" lon="8.7564605"><ele>203.25</ele><time>2026-05-03T06:46:24.777Z</time></trkpt><trkpt lat="39.8744433" lon="8.7564338"><ele>199.5</ele><time>2026-05-03T06:46:25.777Z</time></trkpt><trkpt lat="39.8745776" lon="8.7564086"><ele>195.75</ele><time>2026-05-03T06:46:26.778Z</time></trkpt><trkpt lat="39.8747086" lon="8.7563817"><ele>192.0</ele><time>2026-05-03T06:46:27.779Z</time></trkpt><trkpt lat="39.874838" lon="8.756361"><ele>192.0</ele><time>2026-05-03T06:46:28.778Z</time></trkpt><trkpt lat="39.8749671" lon="8.7563474"><ele>192.0</ele><time>2026-05-03T06:46:29.777Z</time></trkpt><trkpt lat="39.8750933" lon="8.7563428"><ele>192.0</ele><time>2026-05-03T06:46:30.778Z</time></trkpt><trkpt lat="39.8752114" lon="8.7563477"><ele>192.0</ele><time>2026-05-03T06:46:31.778Z</time></trkpt><trkpt lat="39.8753335" lon="8.7563728"><ele>190.25</ele><time>2026-05-03T06:46:32.778Z</time></trkpt><trkpt lat="39.8754504" lon="8.7564091"><ele>188.5</ele><time>2026-05-03T06:46:33.777Z</time></trkpt><trkpt lat="39.8755606" lon="8.7564609"><ele>186.75</ele><time>2026-05-03T06:46:34.778Z</time></trkpt><trkpt lat="39.8756699" lon="8.7564978"><ele>185.0</ele><time>2026-05-03T06:46:35.777Z</time></trkpt><trkpt lat="39.87578" lon="8.7565186"><ele>185.0</ele><time>2026-05-03T06:46:36.778Z</time></trkpt><trkpt lat="39.8758842" lon="8.7565125"><ele>185.0</ele><time>2026-05-03T06:46:37.777Z</time></trkpt><trkpt lat="39.8759855" lon="8.7564786"><ele>185.0</ele><time>2026-05-03T06:46:38.778Z</time></trkpt><trkpt lat="39.8760778" lon="8.7564142"><ele>185.0</ele><time>2026-05-03T06:46:39.776Z</time></trkpt><trkpt lat="39.8761633" lon="8.7563262"><ele>185.0</ele><time>2026-05-03T06:46:40.778Z</time></trkpt><trkpt lat="39.8762461" lon="8.7562171"><ele>186.25</ele><time>2026-05-03T06:46:41.777Z</time></trkpt><trkpt lat="39.8763346" lon="8.7560946"><ele>187.5</ele><time>2026-05-03T06:46:42.779Z</time></trkpt><trkpt lat="39.8764295" lon="8.7559669"><ele>188.75</ele><time>2026-05-03T06:46:43.779Z</time></trkpt><trkpt lat="39.8765232" lon="8.7558395"><ele>190.0</ele><time>2026-05-03T06:46:44.777Z</time></trkpt><trkpt lat="39.8766232" lon="8.7557126"><ele>190.0</ele><time>2026-05-03T06:46:45.778Z</time></trkpt><trkpt lat="39.8767255" lon="8.7556004"><ele>190.0</ele><time>2026-05-03T06:46:46.779Z</time></trkpt><trkpt lat="39.8768348" lon="8.7555157"><ele>190.0</ele><time>2026-05-03T06:46:47.778Z</time></trkpt><trkpt lat="39.8769564" lon="8.7554439"><ele>190.0</ele><time>2026-05-03T06:46:48.779Z</time></trkpt><trkpt lat="39.8770819" lon="8.7553764"><ele>190.0</ele><time>2026-05-03T06:46:49.776Z</time></trkpt><trkpt lat="39.8772163" lon="8.7553091"><ele>190.0</ele><time>2026-05-03T06:46:50.777Z</time></trkpt><trkpt lat="39.8773588" lon="8.7552457"><ele>190.0</ele><time>2026-05-03T06:46:51.776Z</time></trkpt><trkpt lat="39.8775005" lon="8.7551791"><ele>190.0</ele><time>2026-05-03T06:46:52.778Z</time></trkpt><trkpt lat="39.8776398" lon="8.7551139"><ele>187.25</ele><time>2026-05-03T06:46:53.777Z</time></trkpt><trkpt lat="39.8777711" lon="8.755047"><ele>184.5</ele><time>2026-05-03T06:46:54.778Z</time></trkpt><trkpt lat="39.8778925" lon="8.7549901"><ele>181.75</ele><time>2026-05-03T06:46:55.778Z</time></trkpt><trkpt lat="39.8780148" lon="8.7549444"><ele>179.0</ele><time>2026-05-03T06:46:56.778Z</time></trkpt><trkpt lat="39.8781454" lon="8.7549055"><ele>179.0</ele><time>2026-05-03T06:46:57.778Z</time></trkpt><trkpt lat="39.878277" lon="8.7548709"><ele>179.0</ele><time>2026-05-03T06:46:58.777Z</time></trkpt><trkpt lat="39.8784047" lon="8.7548484"><ele>179.0</ele><time>2026-05-03T06:46:59.778Z</time></trkpt><trkpt lat="39.8785302" lon="8.7548495"><ele>179.0</ele><time>2026-05-03T06:47:00.778Z</time></trkpt><trkpt lat="39.8786561" lon="8.7548647"><ele>177.0</ele><time>2026-05-03T06:47:01.778Z</time></trkpt><trkpt lat="39.8787791" lon="8.7548869"><ele>175.0</ele><time>2026-05-03T06:47:02.777Z</time></trkpt><trkpt lat="39.8789073" lon="8.7549155"><ele>173.0</ele><time>2026-05-03T06:47:03.777Z</time></trkpt><trkpt lat="39.8790333" lon="8.7549476"><ele>171.0</ele><time>2026-05-03T06:47:04.776Z</time></trkpt><trkpt lat="39.879166" lon="8.754985"><ele>168.75</ele><time>2026-05-03T06:47:05.776Z</time></trkpt><trkpt lat="39.8792979" lon="8.7550305"><ele>166.5</ele><time>2026-05-03T06:47:06.777Z</time></trkpt><trkpt lat="39.8794338" lon="8.7550871"><ele>164.25</ele><time>2026-05-03T06:47:07.779Z</time></trkpt><trkpt lat="39.8795688" lon="8.7551364"><ele>162.0</ele><time>2026-05-03T06:47:08.776Z</time></trkpt><trkpt lat="39.8797046" lon="8.7551829"><ele>163.0</ele><time>2026-05-03T06:47:09.778Z</time></trkpt><trkpt lat="39.8798315" lon="8.7552228"><ele>164.0</ele><time>2026-05-03T06:47:10.777Z</time></trkpt><trkpt lat="39.8799591" lon="8.7552615"><ele>165.0</ele><time>2026-05-03T06:47:11.778Z</time></trkpt><trkpt lat="39.8800819" lon="8.7552875"><ele>166.0</ele><time>2026-05-03T06:47:12.779Z</time></trkpt><trkpt lat="39.8802027" lon="8.7553161"><ele>163.8</ele><time>2026-05-03T06:47:13.777Z</time></trkpt><trkpt lat="39.8803114" lon="8.7553578"><ele>161.60000000000002</ele><time>2026-05-03T06:47:14.777Z</time></trkpt><trkpt lat="39.8803977" lon="8.7554246"><ele>159.4</ele><time>2026-05-03T06:47:15.778Z</time></trkpt><trkpt lat="39.8804753" lon="8.75551"><ele>157.2</ele><time>2026-05-03T06:47:16.778Z</time></trkpt><trkpt lat="39.8805278" lon="8.7556248"><ele>155.0</ele><time>2026-05-03T06:47:17.778Z</time></trkpt><trkpt lat="39.880574" lon="8.7557742"><ele>155.0</ele><time>2026-05-03T06:47:18.778Z</time></trkpt><trkpt lat="39.8806289" lon="8.7559223"><ele>155.0</ele><time>2026-05-03T06:47:19.779Z</time></trkpt><trkpt lat="39.8806841" lon="8.756076"><ele>155.0</ele><time>2026-05-03T06:47:20.777Z</time></trkpt><trkpt lat="39.8807464" lon="8.7562411"><ele>155.0</ele><time>2026-05-03T06:47:21.778Z</time></trkpt><trkpt lat="39.8808073" lon="8.7563954"><ele>154.5</ele><time>2026-05-03T06:47:22.779Z</time></trkpt><trkpt lat="39.880863" lon="8.7565554"><ele>154.0</ele><time>2026-05-03T06:47:23.778Z</time></trkpt><trkpt lat="39.8809218" lon="8.7567089"><ele>153.5</ele><time>2026-05-03T06:47:24.779Z</time></trkpt><trkpt lat="39.8809831" lon="8.7568593"><ele>153.0</ele><time>2026-05-03T06:47:25.778Z</time></trkpt><trkpt lat="39.8810433" lon="8.7570034"><ele>153.0</ele><time>2026-05-03T06:47:26.778Z</time></trkpt><trkpt lat="39.8810965" lon="8.7571403"><ele>153.0</ele><time>2026-05-03T06:47:27.777Z</time></trkpt><trkpt lat="39.8811564" lon="8.7572648"><ele>153.0</ele><time>2026-05-03T06:47:28.779Z</time></trkpt><trkpt lat="39.8812195" lon="8.7573651"><ele>153.0</ele><time>2026-05-03T06:47:29.778Z</time></trkpt><trkpt lat="39.8812946" lon="8.7574364"><ele>153.0</ele><time>2026-05-03T06:47:30.777Z</time></trkpt><trkpt lat="39.8813825" lon="8.7574684"><ele>153.0</ele><time>2026-05-03T06:47:31.777Z</time></trkpt><trkpt lat="39.8814807" lon="8.7574719"><ele>153.0</ele><time>2026-05-03T06:47:32.778Z</time></trkpt><trkpt lat="39.8815775" lon="8.7574586"><ele>153.0</ele><time>2026-05-03T06:47:33.778Z</time></trkpt><trkpt lat="39.8816845" lon="8.7574555"><ele>153.0</ele><time>2026-05-03T06:47:34.778Z</time></trkpt><trkpt lat="39.8817977" lon="8.7574536"><ele>153.0</ele><time>2026-05-03T06:47:35.778Z</time></trkpt><trkpt lat="39.8819126" lon="8.7574546"><ele>149.5</ele><time>2026-05-03T06:47:36.778Z</time></trkpt><trkpt lat="39.8820337" lon="8.7574699"><ele>146.0</ele><time>2026-05-03T06:47:37.778Z</time></trkpt><trkpt lat="39.8821578" lon="8.757499"><ele>142.5</ele><time>2026-05-03T06:47:38.778Z</time></trkpt><trkpt lat="39.8822771" lon="8.7575415"><ele>139.0</ele><time>2026-05-03T06:47:39.779Z</time></trkpt><trkpt lat="39.8823891" lon="8.757606"><ele>139.0</ele><time>2026-05-03T06:47:40.777Z</time></trkpt><trkpt lat="39.882495" lon="8.7576882"><ele>139.0</ele><time>2026-05-03T06:47:41.778Z</time></trkpt><trkpt lat="39.8825881" lon="8.7577814"><ele>139.0</ele><time>2026-05-03T06:47:42.779Z</time></trkpt><trkpt lat="39.8826684" lon="8.7578879"><ele>139.0</ele><time>2026-05-03T06:47:43.778Z</time></trkpt><trkpt lat="39.8827469" lon="8.7579949"><ele>136.75</ele><time>2026-05-03T06:47:44.777Z</time></trkpt><trkpt lat="39.8828313" lon="8.7580979"><ele>134.5</ele><time>2026-05-03T06:47:45.778Z</time></trkpt><trkpt lat="39.882924" lon="8.7581818"><ele>132.25</ele><time>2026-05-03T06:47:46.778Z</time></trkpt><trkpt lat="39.883023" lon="8.7582448"><ele>130.0</ele><time>2026-05-03T06:47:47.778Z</time></trkpt><trkpt lat="39.8831297" lon="8.7582985"><ele>130.0</ele><time>2026-05-03T06:47:48.776Z</time></trkpt><trkpt lat="39.8832393" lon="8.758343"><ele>130.0</ele><time>2026-05-03T06:47:49.777Z</time></trkpt><trkpt lat="39.8833548" lon="8.7583894"><ele>130.0</ele><time>2026-05-03T06:47:50.778Z</time></trkpt><trkpt lat="39.8834738" lon="8.7584346"><ele>130.0</ele><time>2026-05-03T06:47:51.778Z</time></trkpt><trkpt lat="39.8835913" lon="8.7584849"><ele>129.5</ele><time>2026-05-03T06:47:52.778Z</time></trkpt><trkpt lat="39.8837105" lon="8.7585357"><ele>129.0</ele><time>2026-05-03T06:47:53.778Z</time></trkpt><trkpt lat="39.8838302" lon="8.7585932"><ele>128.5</ele><time>2026-05-03T06:47:54.776Z</time></trkpt><trkpt lat="39.8839453" lon="8.7586556"><ele>128.0</ele><time>2026-05-03T06:47:55.776Z</time></trkpt><trkpt lat="39.8840574" lon="8.758739"><ele>128.0</ele><time>2026-05-03T06:47:56.778Z</time></trkpt><trkpt lat="39.8841531" lon="8.7588423"><ele>128.0</ele><time>2026-05-03T06:47:57.778Z</time></trkpt><trkpt lat="39.8842277" lon="8.7589574"><ele>128.0</ele><time>2026-05-03T06:47:58.778Z</time></trkpt><trkpt lat="39.8842894" lon="8.7590679"><ele>128.0</ele><time>2026-05-03T06:47:59.777Z</time></trkpt><trkpt lat="39.8843406" lon="8.7591603"><ele>128.0</ele><time>2026-05-03T06:48:00.778Z</time></trkpt><trkpt lat="39.8843801" lon="8.7592628"><ele>127.60000000000001</ele><time>2026-05-03T06:48:01.778Z</time></trkpt><trkpt lat="39.8844066" lon="8.7593824"><ele>127.20000000000002</ele><time>2026-05-03T06:48:02.777Z</time></trkpt><trkpt lat="39.884418" lon="8.759514"><ele>126.8</ele><time>2026-05-03T06:48:03.777Z</time></trkpt><trkpt lat="39.884425" lon="8.7596562"><ele>126.4</ele><time>2026-05-03T06:48:04.779Z</time></trkpt><trkpt lat="39.8844354" lon="8.7598134"><ele>126.0</ele><time>2026-05-03T06:48:05.776Z</time></trkpt><trkpt lat="39.8844473" lon="8.7599779"><ele>126.0</ele><time>2026-05-03T06:48:06.779Z</time></trkpt><trkpt lat="39.8844594" lon="8.7601463"><ele>126.0</ele><time>2026-05-03T06:48:07.778Z</time></trkpt><trkpt lat="39.8844728" lon="8.7603294"><ele>126.0</ele><time>2026-05-03T06:48:08.776Z</time></trkpt><trkpt lat="39.8844791" lon="8.7605176"><ele>126.0</ele><time>2026-05-03T06:48:09.778Z</time></trkpt><trkpt lat="39.8844797" lon="8.7607134"><ele>125.25</ele><time>2026-05-03T06:48:10.779Z</time></trkpt><trkpt lat="39.8844845" lon="8.7609068"><ele>124.5</ele><time>2026-05-03T06:48:11.779Z</time></trkpt><trkpt lat="39.8845096" lon="8.7610917"><ele>123.75</ele><time>2026-05-03T06:48:12.777Z</time></trkpt><trkpt lat="39.8845562" lon="8.7612625"><ele>123.0</ele><time>2026-05-03T06:48:13.779Z</time></trkpt><trkpt lat="39.8846181" lon="8.7614219"><ele>122.5</ele><time>2026-05-03T06:48:14.777Z</time></trkpt><trkpt lat="39.8846915" lon="8.7615816"><ele>122.0</ele><time>2026-05-03T06:48:15.778Z</time></trkpt><trkpt lat="39.8847751" lon="8.76174"><ele>121.5</ele><time>2026-05-03T06:48:16.777Z</time></trkpt><trkpt lat="39.8848671" lon="8.7618907"><ele>121.0</ele><time>2026-05-03T06:48:17.778Z</time></trkpt><trkpt lat="39.8849658" lon="8.7620401"><ele>120.75</ele><time>2026-05-03T06:48:18.779Z</time></trkpt><trkpt lat="39.8850727" lon="8.7621869"><ele>120.5</ele><time>2026-05-03T06:48:19.779Z</time></trkpt><trkpt lat="39.8851716" lon="8.7623332"><ele>120.25</ele><time>2026-05-03T06:48:20.777Z</time></trkpt><trkpt lat="39.8852658" lon="8.7624665"><ele>120.0</ele><time>2026-05-03T06:48:21.777Z</time></trkpt><trkpt lat="39.8853537" lon="8.7626005"><ele>119.5</ele><time>2026-05-03T06:48:22.776Z</time></trkpt><trkpt lat="39.8854216" lon="8.7627367"><ele>119.0</ele><time>2026-05-03T06:48:23.778Z</time></trkpt><trkpt lat="39.8854661" lon="8.7628858"><ele>118.5</ele><time>2026-05-03T06:48:24.779Z</time></trkpt><trkpt lat="39.8854964" lon="8.7630514"><ele>118.0</ele><time>2026-05-03T06:48:25.777Z</time></trkpt><trkpt lat="39.8855183" lon="8.763231"><ele>118.0</ele><time>2026-05-03T06:48:26.777Z</time></trkpt><trkpt lat="39.8855352" lon="8.7634242"><ele>118.0</ele><time>2026-05-03T06:48:27.777Z</time></trkpt><trkpt lat="39.8855527" lon="8.7636284"><ele>118.0</ele><time>2026-05-03T06:48:28.778Z</time></trkpt><trkpt lat="39.8855635" lon="8.7638353"><ele>117.33333333333334</ele><time>2026-05-03T06:48:29.777Z</time></trkpt><trkpt lat="39.8855776" lon="8.7640501"><ele>116.66666666666666</ele><time>2026-05-03T06:48:30.778Z</time></trkpt><trkpt lat="39.8855961" lon="8.7642603"><ele>116.0</ele><time>2026-05-03T06:48:31.777Z</time></trkpt><trkpt lat="39.8856111" lon="8.7644688"><ele>115.33333333333333</ele><time>2026-05-03T06:48:32.778Z</time></trkpt><trkpt lat="39.8856226" lon="8.7646835"><ele>114.66666666666666</ele><time>2026-05-03T06:48:33.777Z</time></trkpt><trkpt lat="39.8856381" lon="8.7648961"><ele>114.0</ele><time>2026-05-03T06:48:34.777Z</time></trkpt><trkpt lat="39.8856554" lon="8.7651041"><ele>112.66666666666666</ele><time>2026-05-03T06:48:35.777Z</time></trkpt><trkpt lat="39.8856697" lon="8.7653114"><ele>111.33333333333333</ele><time>2026-05-03T06:48:36.779Z</time></trkpt><trkpt lat="39.885676" lon="8.7655181"><ele>110.0</ele><time>2026-05-03T06:48:37.778Z</time></trkpt><trkpt lat="39.8856763" lon="8.7657311"><ele>110.0</ele><time>2026-05-03T06:48:38.776Z</time></trkpt><trkpt lat="39.8856729" lon="8.7659415"><ele>110.0</ele><time>2026-05-03T06:48:39.777Z</time></trkpt><trkpt lat="39.8856594" lon="8.7661483"><ele>110.0</ele><time>2026-05-03T06:48:40.777Z</time></trkpt><trkpt lat="39.8856411" lon="8.7663568"><ele>110.33333333333333</ele><time>2026-05-03T06:48:41.779Z</time></trkpt><trkpt lat="39.8856181" lon="8.7665656"><ele>110.66666666666666</ele><time>2026-05-03T06:48:42.778Z</time></trkpt><trkpt lat="39.8855986" lon="8.7667728"><ele>111.0</ele><time>2026-05-03T06:48:43.779Z</time></trkpt><trkpt lat="39.8855811" lon="8.766979"><ele>110.33333333333334</ele><time>2026-05-03T06:48:44.778Z</time></trkpt><trkpt lat="39.8855707" lon="8.7671816"><ele>109.66666666666667</ele><time>2026-05-03T06:48:45.779Z</time></trkpt><trkpt lat="39.8855666" lon="8.7673821"><ele>109.0</ele><time>2026-05-03T06:48:46.778Z</time></trkpt><trkpt lat="39.8855713" lon="8.7675784"><ele>107.0</ele><time>2026-05-03T06:48:47.777Z</time></trkpt><trkpt lat="39.8855859" lon="8.7677733"><ele>105.0</ele><time>2026-05-03T06:48:48.777Z</time></trkpt><trkpt lat="39.8855982" lon="8.7679644"><ele>103.0</ele><time>2026-05-03T06:48:49.777Z</time></trkpt><trkpt lat="39.8856102" lon="8.7681514"><ele>101.0</ele><time>2026-05-03T06:48:50.777Z</time></trkpt><trkpt lat="39.8856239" lon="8.7683307"><ele>101.0</ele><time>2026-05-03T06:48:51.778Z</time></trkpt><trkpt lat="39.8856542" lon="8.7685163"><ele>101.0</ele><time>2026-05-03T06:48:52.777Z</time></trkpt><trkpt lat="39.8857099" lon="8.7686867"><ele>101.0</ele><time>2026-05-03T06:48:53.779Z</time></trkpt><trkpt lat="39.8857729" lon="8.7688418"><ele>101.0</ele><time>2026-05-03T06:48:54.778Z</time></trkpt><trkpt lat="39.8858327" lon="8.7689879"><ele>100.0</ele><time>2026-05-03T06:48:55.777Z</time></trkpt><trkpt lat="39.8858735" lon="8.7691452"><ele>99.0</ele><time>2026-05-03T06:48:56.776Z</time></trkpt><trkpt lat="39.8858915" lon="8.7693053"><ele>98.0</ele><time>2026-05-03T06:48:57.779Z</time></trkpt><trkpt lat="39.8858931" lon="8.7694509"><ele>97.0</ele><time>2026-05-03T06:48:58.779Z</time></trkpt><trkpt lat="39.8858941" lon="8.7695869"><ele>97.19999999999999</ele><time>2026-05-03T06:48:59.777Z</time></trkpt><trkpt lat="39.8859127" lon="8.7697178"><ele>97.4</ele><time>2026-05-03T06:49:00.778Z</time></trkpt><trkpt lat="39.8859392" lon="8.7698532"><ele>97.6</ele><time>2026-05-03T06:49:01.779Z</time></trkpt><trkpt lat="39.8859667" lon="8.7699841"><ele>97.80000000000001</ele><time>2026-05-03T06:49:02.779Z</time></trkpt><trkpt lat="39.8859875" lon="8.7701327"><ele>98.0</ele><time>2026-05-03T06:49:03.777Z</time></trkpt><trkpt lat="39.8859983" lon="8.7702884"><ele>96.25</ele><time>2026-05-03T06:49:04.778Z</time></trkpt><trkpt lat="39.8859956" lon="8.7704589"><ele>94.5</ele><time>2026-05-03T06:49:05.777Z</time></trkpt><trkpt lat="39.8860015" lon="8.7706405"><ele>92.75</ele><time>2026-05-03T06:49:06.778Z</time></trkpt><trkpt lat="39.8860202" lon="8.7708195"><ele>91.0</ele><time>2026-05-03T06:49:07.778Z</time></trkpt><trkpt lat="39.8860503" lon="8.7709857"><ele>89.0</ele><time>2026-05-03T06:49:08.778Z</time></trkpt><trkpt lat="39.8860834" lon="8.7711446"><ele>87.0</ele><time>2026-05-03T06:49:09.779Z</time></trkpt><trkpt lat="39.8861246" lon="8.771287"><ele>85.0</ele><time>2026-05-03T06:49:10.779Z</time></trkpt><trkpt lat="39.8861698" lon="8.7714188"><ele>83.0</ele><time>2026-05-03T06:49:11.778Z</time></trkpt><trkpt lat="39.8862242" lon="8.7715348"><ele>83.0</ele><time>2026-05-03T06:49:12.779Z</time></trkpt><trkpt lat="39.8863026" lon="8.7716398"><ele>83.0</ele><time>2026-05-03T06:49:13.778Z</time></trkpt><trkpt lat="39.8863862" lon="8.7717354"><ele>83.0</ele><time>2026-05-03T06:49:14.777Z</time></trkpt><trkpt lat="39.8864774" lon="8.7718258"><ele>83.0</ele><time>2026-05-03T06:49:15.778Z</time></trkpt><trkpt lat="39.8865697" lon="8.7719039"><ele>83.0</ele><time>2026-05-03T06:49:16.778Z</time></trkpt><trkpt lat="39.8866645" lon="8.771978"><ele>82.75</ele><time>2026-05-03T06:49:17.776Z</time></trkpt><trkpt lat="39.8867667" lon="8.7720618"><ele>82.5</ele><time>2026-05-03T06:49:18.777Z</time></trkpt><trkpt lat="39.8868626" lon="8.7721486"><ele>82.25</ele><time>2026-05-03T06:49:19.779Z</time></trkpt><trkpt lat="39.8869458" lon="8.7722384"><ele>82.0</ele><time>2026-05-03T06:49:20.779Z</time></trkpt><trkpt lat="39.8870247" lon="8.7723422"><ele>82.0</ele><time>2026-05-03T06:49:21.778Z</time></trkpt><trkpt lat="39.8870875" lon="8.7724621"><ele>82.0</ele><time>2026-05-03T06:49:22.777Z</time></trkpt><trkpt lat="39.8871356" lon="8.7725896"><ele>82.0</ele><time>2026-05-03T06:49:23.777Z</time></trkpt><trkpt lat="39.8871893" lon="8.772718"><ele>82.0</ele><time>2026-05-03T06:49:24.779Z</time></trkpt><trkpt lat="39.8872398" lon="8.7728574"><ele>80.75</ele><time>2026-05-03T06:49:25.777Z</time></trkpt><trkpt lat="39.8872994" lon="8.7730001"><ele>79.5</ele><time>2026-05-03T06:49:26.779Z</time></trkpt><trkpt lat="39.8873667" lon="8.7731427"><ele>78.25</ele><time>2026-05-03T06:49:27.777Z</time></trkpt><trkpt lat="39.8874393" lon="8.7732851"><ele>77.0</ele><time>2026-05-03T06:49:28.778Z</time></trkpt><trkpt lat="39.8875281" lon="8.7734209"><ele>76.75</ele><time>2026-05-03T06:49:29.777Z</time></trkpt><trkpt lat="39.887621" lon="8.7735502"><ele>76.5</ele><time>2026-05-03T06:49:30.778Z</time></trkpt><trkpt lat="39.8877192" lon="8.7736757"><ele>76.25</ele><time>2026-05-03T06:49:31.778Z</time></trkpt><trkpt lat="39.8878134" lon="8.7738029"><ele>76.0</ele><time>2026-05-03T06:49:32.779Z</time></trkpt><trkpt lat="39.8879089" lon="8.7739364"><ele>76.0</ele><time>2026-05-03T06:49:33.776Z</time></trkpt><trkpt lat="39.8879995" lon="8.7740732"><ele>76.0</ele><time>2026-05-03T06:49:34.778Z</time></trkpt><trkpt lat="39.8880972" lon="8.7742185"><ele>76.0</ele><time>2026-05-03T06:49:35.777Z</time></trkpt><trkpt lat="39.8881819" lon="8.774362"><ele>76.0</ele><time>2026-05-03T06:49:36.779Z</time></trkpt><trkpt lat="39.8883341" lon="8.7746708"><ele>75.25</ele><time>2026-05-03T06:49:38.778Z</time></trkpt><trkpt lat="39.8884" lon="8.7748343"><ele>74.5</ele><time>2026-05-03T06:49:39.778Z</time></trkpt><trkpt lat="39.8884509" lon="8.7749945"><ele>73.75</ele><time>2026-05-03T06:49:40.779Z</time></trkpt><trkpt lat="39.8884846" lon="8.7751553"><ele>73.0</ele><time>2026-05-03T06:49:41.778Z</time></trkpt><trkpt lat="39.8885029" lon="8.7753172"><ele>71.75</ele><time>2026-05-03T06:49:42.779Z</time></trkpt><trkpt lat="39.8885084" lon="8.7754896"><ele>70.5</ele><time>2026-05-03T06:49:43.776Z</time></trkpt><trkpt lat="39.8885068" lon="8.775659"><ele>69.25</ele><time>2026-05-03T06:49:44.777Z</time></trkpt><trkpt lat="39.8885024" lon="8.7758086"><ele>68.0</ele><time>2026-05-03T06:49:45.778Z</time></trkpt><trkpt lat="39.8885" lon="8.7759235"><ele>68.0</ele><time>2026-05-03T06:49:46.777Z</time></trkpt><trkpt lat="39.8885081" lon="8.7760079"><ele>68.0</ele><time>2026-05-03T06:49:47.777Z</time></trkpt><trkpt lat="39.8885537" lon="8.7761317"><ele>68.0</ele><time>2026-05-03T06:49:49.778Z</time></trkpt><trkpt lat="39.888624" lon="8.7762241"><ele>68.0</ele><time>2026-05-03T06:49:51.777Z</time></trkpt><trkpt lat="39.8886656" lon="8.7763211"><ele>68.0</ele><time>2026-05-03T06:49:53.776Z</time></trkpt><trkpt lat="39.8886783" lon="8.7764649"><ele>68.0</ele><time>2026-05-03T06:49:55.778Z</time></trkpt><trkpt lat="39.8886747" lon="8.7765604"><ele>68.0</ele><time>2026-05-03T06:49:56.778Z</time></trkpt><trkpt lat="39.8886758" lon="8.776662"><ele>68.0</ele><time>2026-05-03T06:49:57.778Z</time></trkpt><trkpt lat="39.8886771" lon="8.7767583"><ele>68.0</ele><time>2026-05-03T06:49:58.777Z</time></trkpt><trkpt lat="39.8886804" lon="8.7768449"><ele>68.0</ele><time>2026-05-03T06:49:59.776Z</time></trkpt><trkpt lat="39.8886638" lon="8.7769651"><ele>68.0</ele><time>2026-05-03T06:50:01.778Z</time></trkpt><trkpt lat="39.8886077" lon="8.7770569"><ele>68.0</ele><time>2026-05-03T06:50:03.777Z</time></trkpt><trkpt lat="39.8885499" lon="8.777105"><ele>68.0</ele><time>2026-05-03T06:50:04.777Z</time></trkpt><trkpt lat="39.8884772" lon="8.7771599"><ele>68.0</ele><time>2026-05-03T06:50:05.779Z</time></trkpt><trkpt lat="39.8884074" lon="8.7772246"><ele>68.0</ele><time>2026-05-03T06:50:06.777Z</time></trkpt><trkpt lat="39.8883441" lon="8.7773077"><ele>68.0</ele><time>2026-05-03T06:50:07.777Z</time></trkpt><trkpt lat="39.8882938" lon="8.7773991"><ele>68.0</ele><time>2026-05-03T06:50:08.778Z</time></trkpt><trkpt lat="39.888266" lon="8.7774883"><ele>68.33333333333334</ele><time>2026-05-03T06:50:09.779Z</time></trkpt><trkpt lat="39.888261" lon="8.7776306"><ele>68.66666666666667</ele><time>2026-05-03T06:50:11.778Z</time></trkpt><trkpt lat="39.8882385" lon="8.7777206"><ele>69.0</ele><time>2026-05-03T06:50:13.777Z</time></trkpt><trkpt lat="39.8882005" lon="8.7777916"><ele>69.33333333333333</ele><time>2026-05-03T06:50:16.778Z</time></trkpt><trkpt lat="39.8881343" lon="8.7778059"><ele>69.66666666666666</ele><time>2026-05-03T06:55:24.778Z</time></trkpt><trkpt lat="39.8881204" lon="8.7778878"><ele>70.0</ele><time>2026-05-03T06:59:06.777Z</time></trkpt><trkpt lat="39.888076" lon="8.7779908"><ele>70.0</ele><time>2026-05-03T06:59:08.776Z</time></trkpt><trkpt lat="39.8879837" lon="8.7780684"><ele>70.0</ele><time>2026-05-03T06:59:10.778Z</time></trkpt><trkpt lat="39.8879287" lon="8.7781214"><ele>70.0</ele><time>2026-05-03T06:59:11.778Z</time></trkpt><trkpt lat="39.8878688" lon="8.7781952"><ele>70.0</ele><time>2026-05-03T06:59:12.778Z</time></trkpt><trkpt lat="39.8878106" lon="8.7782717"><ele>70.0</ele><time>2026-05-03T06:59:13.777Z</time></trkpt><trkpt lat="39.8877627" lon="8.7783798"><ele>70.0</ele><time>2026-05-03T06:59:14.777Z</time></trkpt><trkpt lat="39.8877058" lon="8.7784826"><ele>69.8</ele><time>2026-05-03T06:59:15.778Z</time></trkpt><trkpt lat="39.8876305" lon="8.7785723"><ele>69.6</ele><time>2026-05-03T06:59:16.776Z</time></trkpt><trkpt lat="39.8875415" lon="8.7786366"><ele>69.4</ele><time>2026-05-03T06:59:17.778Z</time></trkpt><trkpt lat="39.8874401" lon="8.7786767"><ele>69.2</ele><time>2026-05-03T06:59:18.778Z</time></trkpt><trkpt lat="39.8873302" lon="8.7786917"><ele>69.0</ele><time>2026-05-03T06:59:19.778Z</time></trkpt><trkpt lat="39.887214" lon="8.7786926"><ele>70.75</ele><time>2026-05-03T06:59:20.778Z</time></trkpt><trkpt lat="39.8870916" lon="8.7786887"><ele>72.5</ele><time>2026-05-03T06:59:21.778Z</time></trkpt><trkpt lat="39.8869724" lon="8.7786807"><ele>74.25</ele><time>2026-05-03T06:59:22.777Z</time></trkpt><trkpt lat="39.8868487" lon="8.7786707"><ele>76.0</ele><time>2026-05-03T06:59:23.778Z</time></trkpt><trkpt lat="39.8867328" lon="8.7786697"><ele>77.19999999999999</ele><time>2026-05-03T06:59:24.776Z</time></trkpt><trkpt lat="39.8866101" lon="8.7786854"><ele>78.39999999999999</ele><time>2026-05-03T06:59:25.777Z</time></trkpt><trkpt lat="39.8865095" lon="8.7787"><ele>79.6</ele><time>2026-05-03T06:59:26.778Z</time></trkpt><trkpt lat="39.8864193" lon="8.778701"><ele>80.8</ele><time>2026-05-03T06:59:27.778Z</time></trkpt><trkpt lat="39.8863266" lon="8.7787058"><ele>82.0</ele><time>2026-05-03T06:59:28.777Z</time></trkpt><trkpt lat="39.8862299" lon="8.7787176"><ele>82.0</ele><time>2026-05-03T06:59:29.78Z</time></trkpt><trkpt lat="39.8861069" lon="8.7787216"><ele>82.0</ele><time>2026-05-03T06:59:30.778Z</time></trkpt><trkpt lat="39.8859907" lon="8.7787247"><ele>82.0</ele><time>2026-05-03T06:59:31.776Z</time></trkpt><trkpt lat="39.8858678" lon="8.7787239"><ele>82.0</ele><time>2026-05-03T06:59:32.778Z</time></trkpt><trkpt lat="39.8857514" lon="8.7787333"><ele>82.5</ele><time>2026-05-03T06:59:33.778Z</time></trkpt><trkpt lat="39.8856349" lon="8.7787677"><ele>83.0</ele><time>2026-05-03T06:59:34.778Z</time></trkpt><trkpt lat="39.8855157" lon="8.7788327"><ele>83.5</ele><time>2026-05-03T06:59:35.779Z</time></trkpt><trkpt lat="39.885412" lon="8.7789196"><ele>84.0</ele><time>2026-05-03T06:59:36.777Z</time></trkpt><trkpt lat="39.885306" lon="8.7790073"><ele>84.0</ele><time>2026-05-03T06:59:37.777Z</time></trkpt><trkpt lat="39.8852113" lon="8.7790937"><ele>84.0</ele><time>2026-05-03T06:59:38.776Z</time></trkpt><trkpt lat="39.8851214" lon="8.7791709"><ele>84.0</ele><time>2026-05-03T06:59:39.777Z</time></trkpt><trkpt lat="39.8850319" lon="8.77925"><ele>84.0</ele><time>2026-05-03T06:59:40.778Z</time></trkpt><trkpt lat="39.8849409" lon="8.7793358"><ele>84.0</ele><time>2026-05-03T06:59:41.778Z</time></trkpt><trkpt lat="39.8848533" lon="8.7794451"><ele>84.5</ele><time>2026-05-03T06:59:42.779Z</time></trkpt><trkpt lat="39.8847745" lon="8.7795733"><ele>85.0</ele><time>2026-05-03T06:59:43.778Z</time></trkpt><trkpt lat="39.8847042" lon="8.7797061"><ele>85.5</ele><time>2026-05-03T06:59:44.778Z</time></trkpt><trkpt lat="39.8846361" lon="8.7798481"><ele>86.0</ele><time>2026-05-03T06:59:45.778Z</time></trkpt><trkpt lat="39.8845709" lon="8.7799889"><ele>86.0</ele><time>2026-05-03T06:59:46.778Z</time></trkpt><trkpt lat="39.8845263" lon="8.78015"><ele>86.0</ele><time>2026-05-03T06:59:47.777Z</time></trkpt><trkpt lat="39.884491" lon="8.7803117"><ele>86.0</ele><time>2026-05-03T06:59:48.777Z</time></trkpt><trkpt lat="39.884472" lon="8.7804916"><ele>86.0</ele><time>2026-05-03T06:59:49.779Z</time></trkpt><trkpt lat="39.8844547" lon="8.7806818"><ele>85.75</ele><time>2026-05-03T06:59:50.778Z</time></trkpt><trkpt lat="39.8844355" lon="8.7808692"><ele>85.5</ele><time>2026-05-03T06:59:51.778Z</time></trkpt><trkpt lat="39.8844137" lon="8.7810569"><ele>85.25</ele><time>2026-05-03T06:59:52.777Z</time></trkpt><trkpt lat="39.8843853" lon="8.7812373"><ele>85.0</ele><time>2026-05-03T06:59:53.778Z</time></trkpt><trkpt lat="39.8843517" lon="8.7814074"><ele>85.0</ele><time>2026-05-03T06:59:54.777Z</time></trkpt><trkpt lat="39.8842935" lon="8.7815553"><ele>85.0</ele><time>2026-05-03T06:59:55.776Z</time></trkpt><trkpt lat="39.8842069" lon="8.7816973"><ele>85.0</ele><time>2026-05-03T06:59:56.778Z</time></trkpt><trkpt lat="39.8840993" lon="8.7818324"><ele>85.0</ele><time>2026-05-03T06:59:57.776Z</time></trkpt><trkpt lat="39.8839822" lon="8.7819757"><ele>85.66666666666666</ele><time>2026-05-03T06:59:58.777Z</time></trkpt><trkpt lat="39.8838577" lon="8.7821267"><ele>86.33333333333333</ele><time>2026-05-03T06:59:59.779Z</time></trkpt><trkpt lat="39.8837257" lon="8.7822895"><ele>87.0</ele><time>2026-05-03T07:00:00.777Z</time></trkpt><trkpt lat="39.8835932" lon="8.782457"><ele>87.0</ele><time>2026-05-03T07:00:01.777Z</time></trkpt><trkpt lat="39.8834568" lon="8.7826242"><ele>87.0</ele><time>2026-05-03T07:00:02.776Z</time></trkpt><trkpt lat="39.8833257" lon="8.7827878"><ele>87.0</ele><time>2026-05-03T07:00:03.777Z</time></trkpt><trkpt lat="39.8831973" lon="8.7829415"><ele>87.66666666666667</ele><time>2026-05-03T07:00:04.778Z</time></trkpt><trkpt lat="39.8830865" lon="8.7830891"><ele>88.33333333333334</ele><time>2026-05-03T07:00:05.776Z</time></trkpt><trkpt lat="39.8829797" lon="8.7832242"><ele>89.0</ele><time>2026-05-03T07:00:06.778Z</time></trkpt><trkpt lat="39.8828762" lon="8.7833553"><ele>89.0</ele><time>2026-05-03T07:00:07.778Z</time></trkpt><trkpt lat="39.8827751" lon="8.78349"><ele>89.0</ele><time>2026-05-03T07:00:08.778Z</time></trkpt><trkpt lat="39.8826778" lon="8.7836287"><ele>89.0</ele><time>2026-05-03T07:00:09.778Z</time></trkpt><trkpt lat="39.8825827" lon="8.7837817"><ele>89.0</ele><time>2026-05-03T07:00:10.778Z</time></trkpt><trkpt lat="39.8824966" lon="8.7839387"><ele>89.0</ele><time>2026-05-03T07:00:11.778Z</time></trkpt><trkpt lat="39.8824201" lon="8.7840786"><ele>89.0</ele><time>2026-05-03T07:00:12.777Z</time></trkpt><trkpt lat="39.8823528" lon="8.7842007"><ele>89.0</ele><time>2026-05-03T07:00:13.778Z</time></trkpt><trkpt lat="39.8823066" lon="8.7842869"><ele>89.0</ele><time>2026-05-03T07:00:14.779Z</time></trkpt><trkpt lat="39.8822628" lon="8.7843801"><ele>89.0</ele><time>2026-05-03T07:00:16.777Z</time></trkpt><trkpt lat="39.8822231" lon="8.7844451"><ele>89.0</ele><time>2026-05-03T07:00:22.778Z</time></trkpt><trkpt lat="39.8823037" lon="8.7844021"><ele>89.0</ele><time>2026-05-03T07:00:25.777Z</time></trkpt><trkpt lat="39.8823474" lon="8.784325"><ele>89.0</ele><time>2026-05-03T07:00:26.778Z</time></trkpt><trkpt lat="39.8823961" lon="8.7842208"><ele>89.0</ele><time>2026-05-03T07:00:27.777Z</time></trkpt><trkpt lat="39.8824593" lon="8.7840943"><ele>89.0</ele><time>2026-05-03T07:00:28.776Z</time></trkpt><trkpt lat="39.8825409" lon="8.7839408"><ele>89.0</ele><time>2026-05-03T07:00:29.777Z</time></trkpt><trkpt lat="39.8826305" lon="8.7837592"><ele>89.0</ele><time>2026-05-03T07:00:30.776Z</time></trkpt><trkpt lat="39.8827383" lon="8.7835751"><ele>89.0</ele><time>2026-05-03T07:00:31.777Z</time></trkpt><trkpt lat="39.882863" lon="8.7833985"><ele>89.0</ele><time>2026-05-03T07:00:32.779Z</time></trkpt><trkpt lat="39.8829903" lon="8.783227"><ele>89.0</ele><time>2026-05-03T07:00:33.777Z</time></trkpt><trkpt lat="39.8831138" lon="8.7830676"><ele>89.0</ele><time>2026-05-03T07:00:34.777Z</time></trkpt><trkpt lat="39.8832274" lon="8.7829201"><ele>89.0</ele><time>2026-05-03T07:00:35.778Z</time></trkpt><trkpt lat="39.883323" lon="8.7828051"><ele>89.0</ele><time>2026-05-03T07:00:36.776Z</time></trkpt><trkpt lat="39.8834022" lon="8.7827139"><ele>89.0</ele><time>2026-05-03T07:00:37.777Z</time></trkpt><trkpt lat="39.8834613" lon="8.7826578"><ele>89.0</ele><time>2026-05-03T07:00:38.777Z</time></trkpt><trkpt lat="39.883528" lon="8.782717"><ele>89.0</ele><time>2026-05-03T07:00:41.779Z</time></trkpt><trkpt lat="39.8835226" lon="8.7828026"><ele>89.0</ele><time>2026-05-03T07:00:42.777Z</time></trkpt><trkpt lat="39.8835116" lon="8.7829261"><ele>89.0</ele><time>2026-05-03T07:00:43.778Z</time></trkpt><trkpt lat="39.8834898" lon="8.7830687"><ele>89.0</ele><time>2026-05-03T07:00:44.778Z</time></trkpt><trkpt lat="39.8834534" lon="8.7832394"><ele>89.0</ele><time>2026-05-03T07:00:45.778Z</time></trkpt><trkpt lat="39.8834022" lon="8.7834123"><ele>88.0</ele><time>2026-05-03T07:00:46.776Z</time></trkpt><trkpt lat="39.8833328" lon="8.7836029"><ele>87.0</ele><time>2026-05-03T07:00:47.778Z</time></trkpt><trkpt lat="39.8832691" lon="8.7838109"><ele>86.0</ele><time>2026-05-03T07:00:48.776Z</time></trkpt><trkpt lat="39.8832098" lon="8.7840312"><ele>86.0</ele><time>2026-05-03T07:00:49.776Z</time></trkpt><trkpt lat="39.8831569" lon="8.7842611"><ele>86.0</ele><time>2026-05-03T07:00:50.777Z</time></trkpt><trkpt lat="39.8831082" lon="8.7845008"><ele>86.0</ele><time>2026-05-03T07:00:51.777Z</time></trkpt><trkpt lat="39.8830633" lon="8.7847397"><ele>85.66666666666667</ele><time>2026-05-03T07:00:52.779Z</time></trkpt><trkpt lat="39.8830102" lon="8.7849831"><ele>85.33333333333333</ele><time>2026-05-03T07:00:53.778Z</time></trkpt><trkpt lat="39.8829687" lon="8.785231"><ele>85.0</ele><time>2026-05-03T07:00:54.778Z</time></trkpt><trkpt lat="39.8829303" lon="8.7854852"><ele>83.66666666666666</ele><time>2026-05-03T07:00:55.777Z</time></trkpt><trkpt lat="39.8828991" lon="8.7857428"><ele>82.33333333333333</ele><time>2026-05-03T07:00:56.777Z</time></trkpt><trkpt lat="39.8828616" lon="8.7860007"><ele>81.0</ele><time>2026-05-03T07:00:57.777Z</time></trkpt><trkpt lat="39.8828235" lon="8.7862501"><ele>80.66666666666667</ele><time>2026-05-03T07:00:58.779Z</time></trkpt><trkpt lat="39.8827838" lon="8.7864746"><ele>80.33333333333334</ele><time>2026-05-03T07:00:59.779Z</time></trkpt><trkpt lat="39.8827452" lon="8.7866687"><ele>80.0</ele><time>2026-05-03T07:01:00.777Z</time></trkpt><trkpt lat="39.8827212" lon="8.7868588"><ele>79.66666666666667</ele><time>2026-05-03T07:01:01.778Z</time></trkpt><trkpt lat="39.8827003" lon="8.7870549"><ele>79.33333333333333</ele><time>2026-05-03T07:01:02.778Z</time></trkpt><trkpt lat="39.8826862" lon="8.787254"><ele>79.0</ele><time>2026-05-03T07:01:03.776Z</time></trkpt><trkpt lat="39.8826799" lon="8.7874525"><ele>79.0</ele><time>2026-05-03T07:01:04.779Z</time></trkpt><trkpt lat="39.8826793" lon="8.7876613"><ele>79.0</ele><time>2026-05-03T07:01:05.777Z</time></trkpt><trkpt lat="39.8826737" lon="8.7878682"><ele>79.0</ele><time>2026-05-03T07:01:06.778Z</time></trkpt><trkpt lat="39.8826617" lon="8.7880356"><ele>79.0</ele><time>2026-05-03T07:01:07.777Z</time></trkpt><trkpt lat="39.8826438" lon="8.7881726"><ele>79.0</ele><time>2026-05-03T07:01:08.777Z</time></trkpt><trkpt lat="39.8826248" lon="8.7882885"><ele>79.0</ele><time>2026-05-03T07:01:09.777Z</time></trkpt><trkpt lat="39.882608" lon="8.7883832"><ele>79.0</ele><time>2026-05-03T07:01:10.778Z</time></trkpt><trkpt lat="39.882575" lon="8.7885117"><ele>79.0</ele><time>2026-05-03T07:01:12.777Z</time></trkpt><trkpt lat="39.882616" lon="8.7884194"><ele>79.0</ele><time>2026-05-03T07:01:24.779Z</time></trkpt><trkpt lat="39.8826358" lon="8.7883205"><ele>79.0</ele><time>2026-05-03T07:01:25.778Z</time></trkpt><trkpt lat="39.8826611" lon="8.7881946"><ele>79.0</ele><time>2026-05-03T07:01:26.777Z</time></trkpt><trkpt lat="39.8826748" lon="8.7880502"><ele>79.0</ele><time>2026-05-03T07:01:27.778Z</time></trkpt><trkpt lat="39.8826874" lon="8.7878887"><ele>79.0</ele><time>2026-05-03T07:01:28.778Z</time></trkpt><trkpt lat="39.8826921" lon="8.787713"><ele>79.0</ele><time>2026-05-03T07:01:29.777Z</time></trkpt><trkpt lat="39.8826942" lon="8.7875309"><ele>79.0</ele><time>2026-05-03T07:01:30.778Z</time></trkpt><trkpt lat="39.8827014" lon="8.787342"><ele>79.0</ele><time>2026-05-03T07:01:31.777Z</time></trkpt><trkpt lat="39.882711" lon="8.7871422"><ele>79.0</ele><time>2026-05-03T07:01:32.777Z</time></trkpt><trkpt lat="39.8827282" lon="8.7869284"><ele>79.33333333333333</ele><time>2026-05-03T07:01:33.778Z</time></trkpt><trkpt lat="39.8827582" lon="8.7867034"><ele>79.66666666666667</ele><time>2026-05-03T07:01:34.779Z</time></trkpt><trkpt lat="39.8828001" lon="8.7864707"><ele>80.0</ele><time>2026-05-03T07:01:35.777Z</time></trkpt><trkpt lat="39.8828386" lon="8.786227"><ele>80.25</ele><time>2026-05-03T07:01:36.778Z</time></trkpt><trkpt lat="39.8828732" lon="8.7860055"><ele>80.5</ele><time>2026-05-03T07:01:37.778Z</time></trkpt><trkpt lat="39.8828969" lon="8.785822"><ele>80.75</ele><time>2026-05-03T07:01:38.778Z</time></trkpt><trkpt lat="39.88292" lon="8.7856632"><ele>81.0</ele><time>2026-05-03T07:01:39.778Z</time></trkpt><trkpt lat="39.8829368" lon="8.7855696"><ele>81.0</ele><time>2026-05-03T07:01:40.778Z</time></trkpt><trkpt lat="39.8829192" lon="8.7854521"><ele>81.0</ele><time>2026-05-03T07:01:42.778Z</time></trkpt><trkpt lat="39.8828557" lon="8.7854439"><ele>81.0</ele><time>2026-05-03T07:01:44.778Z</time></trkpt><trkpt lat="39.8828119" lon="8.7855468"><ele>81.0</ele><time>2026-05-03T07:01:46.779Z</time></trkpt><trkpt lat="39.8827777" lon="8.7856503"><ele>81.0</ele><time>2026-05-03T07:01:47.778Z</time></trkpt><trkpt lat="39.8827324" lon="8.7857592"><ele>81.0</ele><time>2026-05-03T07:01:48.778Z</time></trkpt><trkpt lat="39.8826736" lon="8.785884"><ele>80.75</ele><time>2026-05-03T07:01:49.777Z</time></trkpt><trkpt lat="39.8826074" lon="8.7860183"><ele>80.5</ele><time>2026-05-03T07:01:50.779Z</time></trkpt><trkpt lat="39.8825442" lon="8.7861596"><ele>80.25</ele><time>2026-05-03T07:01:51.778Z</time></trkpt><trkpt lat="39.8824851" lon="8.7863091"><ele>80.0</ele><time>2026-05-03T07:01:52.777Z</time></trkpt><trkpt lat="39.882433" lon="8.7864679"><ele>80.75</ele><time>2026-05-03T07:01:53.778Z</time></trkpt><trkpt lat="39.8823861" lon="8.7866442"><ele>81.5</ele><time>2026-05-03T07:01:54.777Z</time></trkpt><trkpt lat="39.882342" lon="8.7868353"><ele>82.25</ele><time>2026-05-03T07:01:55.778Z</time></trkpt><trkpt lat="39.8822886" lon="8.7870199"><ele>83.0</ele><time>2026-05-03T07:01:56.777Z</time></trkpt><trkpt lat="39.8822416" lon="8.7871946"><ele>83.0</ele><time>2026-05-03T07:01:57.777Z</time></trkpt><trkpt lat="39.8821935" lon="8.787359"><ele>83.0</ele><time>2026-05-03T07:01:58.777Z</time></trkpt><trkpt lat="39.8821552" lon="8.7875009"><ele>83.0</ele><time>2026-05-03T07:01:59.777Z</time></trkpt><trkpt lat="39.8821217" lon="8.7876169"><ele>83.0</ele><time>2026-05-03T07:02:00.777Z</time></trkpt><trkpt lat="39.8820905" lon="8.7877226"><ele>83.0</ele><time>2026-05-03T07:02:01.778Z</time></trkpt><trkpt lat="39.882055" lon="8.7878164"><ele>83.16666666666667</ele><time>2026-05-03T07:02:02.776Z</time></trkpt><trkpt lat="39.8820145" lon="8.7879053"><ele>83.33333333333334</ele><time>2026-05-03T07:02:03.778Z</time></trkpt><trkpt lat="39.8819711" lon="8.7879962"><ele>83.5</ele><time>2026-05-03T07:02:04.777Z</time></trkpt><trkpt lat="39.881924" lon="8.7880848"><ele>83.66666666666667</ele><time>2026-05-03T07:02:05.778Z</time></trkpt><trkpt lat="39.8818758" lon="8.788175"><ele>83.83333333333333</ele><time>2026-05-03T07:02:06.778Z</time></trkpt><trkpt lat="39.8818116" lon="8.7882786"><ele>84.0</ele><time>2026-05-03T07:02:07.777Z</time></trkpt><trkpt lat="39.8817386" lon="8.7883895"><ele>83.6</ele><time>2026-05-03T07:02:08.778Z</time></trkpt><trkpt lat="39.8816661" lon="8.7885132"><ele>83.2</ele><time>2026-05-03T07:02:09.778Z</time></trkpt><trkpt lat="39.8815972" lon="8.7886326"><ele>82.8</ele><time>2026-05-03T07:02:10.777Z</time></trkpt><trkpt lat="39.8815342" lon="8.7887465"><ele>82.39999999999999</ele><time>2026-05-03T07:02:11.777Z</time></trkpt><trkpt lat="39.8814659" lon="8.7888512"><ele>82.0</ele><time>2026-05-03T07:02:12.777Z</time></trkpt><trkpt lat="39.8813952" lon="8.7889338"><ele>82.0</ele><time>2026-05-03T07:02:13.778Z</time></trkpt><trkpt lat="39.8813183" lon="8.7890095"><ele>82.0</ele><time>2026-05-03T07:02:14.777Z</time></trkpt><trkpt lat="39.881232" lon="8.7890834"><ele>82.0</ele><time>2026-05-03T07:02:15.777Z</time></trkpt><trkpt lat="39.8811367" lon="8.7891635"><ele>82.0</ele><time>2026-05-03T07:02:16.778Z</time></trkpt><trkpt lat="39.8810357" lon="8.7892548"><ele>82.0</ele><time>2026-05-03T07:02:17.778Z</time></trkpt><trkpt lat="39.8809465" lon="8.789359"><ele>82.39999999999999</ele><time>2026-05-03T07:02:18.778Z</time></trkpt><trkpt lat="39.8808715" lon="8.7894639"><ele>82.8</ele><time>2026-05-03T07:02:19.779Z</time></trkpt><trkpt lat="39.8808097" lon="8.7895767"><ele>83.2</ele><time>2026-05-03T07:02:20.777Z</time></trkpt><trkpt lat="39.8807593" lon="8.7896922"><ele>83.6</ele><time>2026-05-03T07:02:21.778Z</time></trkpt><trkpt lat="39.8807113" lon="8.7898159"><ele>84.0</ele><time>2026-05-03T07:02:22.778Z</time></trkpt><trkpt lat="39.8806611" lon="8.7899445"><ele>84.0</ele><time>2026-05-03T07:02:23.776Z</time></trkpt><trkpt lat="39.8806054" lon="8.7900811"><ele>84.0</ele><time>2026-05-03T07:02:24.779Z</time></trkpt><trkpt lat="39.8805573" lon="8.7902231"><ele>84.0</ele><time>2026-05-03T07:02:25.777Z</time></trkpt><trkpt lat="39.8805105" lon="8.7903705"><ele>84.0</ele><time>2026-05-03T07:02:26.777Z</time></trkpt><trkpt lat="39.8804601" lon="8.7905126"><ele>83.6</ele><time>2026-05-03T07:02:27.776Z</time></trkpt><trkpt lat="39.8804101" lon="8.7906363"><ele>83.2</ele><time>2026-05-03T07:02:28.777Z</time></trkpt><trkpt lat="39.8803531" lon="8.7907475"><ele>82.8</ele><time>2026-05-03T07:02:29.778Z</time></trkpt><trkpt lat="39.8802882" lon="8.7908495"><ele>82.39999999999999</ele><time>2026-05-03T07:02:30.777Z</time></trkpt><trkpt lat="39.8802261" lon="8.7909356"><ele>82.0</ele><time>2026-05-03T07:02:31.777Z</time></trkpt><trkpt lat="39.8801523" lon="8.791012"><ele>82.0</ele><time>2026-05-03T07:02:32.778Z</time></trkpt><trkpt lat="39.880068" lon="8.7910804"><ele>82.0</ele><time>2026-05-03T07:02:33.777Z</time></trkpt><trkpt lat="39.8799726" lon="8.791155"><ele>82.0</ele><time>2026-05-03T07:02:34.778Z</time></trkpt><trkpt lat="39.879879" lon="8.7912304"><ele>82.0</ele><time>2026-05-03T07:02:35.777Z</time></trkpt><trkpt lat="39.8797764" lon="8.7913016"><ele>82.0</ele><time>2026-05-03T07:02:36.777Z</time></trkpt><trkpt lat="39.8796694" lon="8.7913689"><ele>82.0</ele><time>2026-05-03T07:02:37.777Z</time></trkpt><trkpt lat="39.879565" lon="8.791443"><ele>82.0</ele><time>2026-05-03T07:02:38.778Z</time></trkpt><trkpt lat="39.8794603" lon="8.7915267"><ele>82.0</ele><time>2026-05-03T07:02:39.777Z</time></trkpt><trkpt lat="39.8793609" lon="8.7916129"><ele>82.0</ele><time>2026-05-03T07:02:40.779Z</time></trkpt><trkpt lat="39.8792626" lon="8.7917145"><ele>82.25</ele><time>2026-05-03T07:02:41.778Z</time></trkpt><trkpt lat="39.8791621" lon="8.7918324"><ele>82.5</ele><time>2026-05-03T07:02:42.778Z</time></trkpt><trkpt lat="39.8790623" lon="8.791957"><ele>82.75</ele><time>2026-05-03T07:02:43.777Z</time></trkpt><trkpt lat="39.8789605" lon="8.7920781"><ele>83.0</ele><time>2026-05-03T07:02:44.777Z</time></trkpt><trkpt lat="39.878863" lon="8.7921963"><ele>83.0</ele><time>2026-05-03T07:02:45.778Z</time></trkpt><trkpt lat="39.8787691" lon="8.7923125"><ele>83.0</ele><time>2026-05-03T07:02:46.777Z</time></trkpt><trkpt lat="39.8786753" lon="8.792426"><ele>83.0</ele><time>2026-05-03T07:02:47.777Z</time></trkpt><trkpt lat="39.8785894" lon="8.7925349"><ele>83.0</ele><time>2026-05-03T07:02:48.779Z</time></trkpt><trkpt lat="39.8785072" lon="8.792631"><ele>83.0</ele><time>2026-05-03T07:02:49.778Z</time></trkpt><trkpt lat="39.8784361" lon="8.7927212"><ele>83.0</ele><time>2026-05-03T07:02:50.777Z</time></trkpt><trkpt lat="39.8783756" lon="8.7927938"><ele>83.0</ele><time>2026-05-03T07:02:51.777Z</time></trkpt><trkpt lat="39.8783178" lon="8.7928545"><ele>83.0</ele><time>2026-05-03T07:02:52.777Z</time></trkpt><trkpt lat="39.8782431" lon="8.7929281"><ele>83.0</ele><time>2026-05-03T07:02:54.784Z</time></trkpt><trkpt lat="39.8781915" lon="8.7929787"><ele>83.0</ele><time>2026-05-03T07:03:00.779Z</time></trkpt><trkpt lat="39.8781076" lon="8.7930103"><ele>83.0</ele><time>2026-05-03T07:03:07.778Z</time></trkpt><trkpt lat="39.8779767" lon="8.7930521"><ele>83.0</ele><time>2026-05-03T07:03:09.778Z</time></trkpt><trkpt lat="39.8779061" lon="8.7930759"><ele>83.0</ele><time>2026-05-03T07:03:10.778Z</time></trkpt><trkpt lat="39.8778284" lon="8.7931105"><ele>83.0</ele><time>2026-05-03T07:03:11.779Z</time></trkpt><trkpt lat="39.8777365" lon="8.79315"><ele>83.0</ele><time>2026-05-03T07:03:12.778Z</time></trkpt><trkpt lat="39.8776403" lon="8.7931953"><ele>83.16666666666667</ele><time>2026-05-03T07:03:13.778Z</time></trkpt><trkpt lat="39.8775487" lon="8.7932321"><ele>83.33333333333334</ele><time>2026-05-03T07:03:14.777Z</time></trkpt><trkpt lat="39.8774706" lon="8.793274"><ele>83.5</ele><time>2026-05-03T07:03:15.778Z</time></trkpt><trkpt lat="39.8773743" lon="8.7933447"><ele>83.66666666666667</ele><time>2026-05-03T07:03:17.778Z</time></trkpt><trkpt lat="39.8773301" lon="8.7934072"><ele>83.83333333333333</ele><time>2026-05-03T07:03:20.776Z</time></trkpt><trkpt lat="39.8773186" lon="8.7935055"><ele>84.0</ele><time>2026-05-03T07:03:24.779Z</time></trkpt><trkpt lat="39.8773029" lon="8.7936232"><ele>84.0</ele><time>2026-05-03T07:03:26.778Z</time></trkpt><trkpt lat="39.8772513" lon="8.7937823"><ele>84.0</ele><time>2026-05-03T07:03:28.778Z</time></trkpt><trkpt lat="39.8772143" lon="8.7938742"><ele>84.0</ele><time>2026-05-03T07:03:29.777Z</time></trkpt><trkpt lat="39.8771717" lon="8.7939589"><ele>84.0</ele><time>2026-05-03T07:03:30.778Z</time></trkpt><trkpt lat="39.8771235" lon="8.7940343"><ele>84.0</ele><time>2026-05-03T07:03:31.777Z</time></trkpt><trkpt lat="39.8770828" lon="8.7941003"><ele>84.0</ele><time>2026-05-03T07:03:32.779Z</time></trkpt><trkpt lat="39.8770651" lon="8.7942317"><ele>84.4</ele><time>2026-05-03T07:03:34.778Z</time></trkpt><trkpt lat="39.8771184" lon="8.7943748"><ele>84.80000000000001</ele><time>2026-05-03T07:03:36.777Z</time></trkpt><trkpt lat="39.8771646" lon="8.7944472"><ele>85.19999999999999</ele><time>2026-05-03T07:03:37.778Z</time></trkpt><trkpt lat="39.8772142" lon="8.7945183"><ele>85.6</ele><time>2026-05-03T07:03:38.778Z</time></trkpt><trkpt lat="39.8772562" lon="8.7945905"><ele>86.0</ele><time>2026-05-03T07:03:39.777Z</time></trkpt><trkpt lat="39.8772873" lon="8.7947391"><ele>86.0</ele><time>2026-05-03T07:03:41.779Z</time></trkpt><trkpt lat="39.8772932" lon="8.7948383"><ele>86.0</ele><time>2026-05-03T07:03:42.777Z</time></trkpt><trkpt lat="39.8772906" lon="8.7949454"><ele>86.0</ele><time>2026-05-03T07:03:43.776Z</time></trkpt><trkpt lat="39.877278" lon="8.7950645"><ele>86.0</ele><time>2026-05-03T07:03:44.777Z</time></trkpt><trkpt lat="39.8772638" lon="8.7951999"><ele>86.0</ele><time>2026-05-03T07:03:45.778Z</time></trkpt><trkpt lat="39.8772483" lon="8.7953491"><ele>86.25</ele><time>2026-05-03T07:03:46.777Z</time></trkpt><trkpt lat="39.8772239" lon="8.7955206"><ele>86.5</ele><time>2026-05-03T07:03:47.777Z</time></trkpt><trkpt lat="39.877206" lon="8.7957042"><ele>86.75</ele><time>2026-05-03T07:03:48.777Z</time></trkpt><trkpt lat="39.8771881" lon="8.7958921"><ele>87.0</ele><time>2026-05-03T07:03:49.778Z</time></trkpt><trkpt lat="39.8771761" lon="8.7960543"><ele>87.19999999999999</ele><time>2026-05-03T07:03:50.779Z</time></trkpt><trkpt lat="39.8771647" lon="8.7962058"><ele>87.4</ele><time>2026-05-03T07:03:51.776Z</time></trkpt><trkpt lat="39.8771514" lon="8.796345"><ele>87.6</ele><time>2026-05-03T07:03:52.778Z</time></trkpt><trkpt lat="39.8771392" lon="8.7964617"><ele>87.80000000000001</ele><time>2026-05-03T07:03:53.778Z</time></trkpt><trkpt lat="39.8771233" lon="8.7965546"><ele>88.0</ele><time>2026-05-03T07:03:54.778Z</time></trkpt><trkpt lat="39.877098" lon="8.7966341"><ele>88.0</ele><time>2026-05-03T07:03:55.778Z</time></trkpt><trkpt lat="39.8770611" lon="8.7967022"><ele>88.0</ele><time>2026-05-03T07:03:56.777Z</time></trkpt><trkpt lat="39.8769592" lon="8.796801"><ele>88.0</ele><time>2026-05-03T07:03:58.778Z</time></trkpt><trkpt lat="39.8768893" lon="8.7968911"><ele>88.0</ele><time>2026-05-03T07:04:00.777Z</time></trkpt><trkpt lat="39.8768869" lon="8.7970048"><ele>88.0</ele><time>2026-05-03T07:04:03.776Z</time></trkpt><trkpt lat="39.8768952" lon="8.7971143"><ele>88.0</ele><time>2026-05-03T07:04:05.779Z</time></trkpt><trkpt lat="39.876919" lon="8.7972113"><ele>88.0</ele><time>2026-05-03T07:04:07.777Z</time></trkpt><trkpt lat="39.8769551" lon="8.7973401"><ele>88.0</ele><time>2026-05-03T07:04:09.778Z</time></trkpt><trkpt lat="39.8769637" lon="8.7974676"><ele>88.0</ele><time>2026-05-03T07:04:11.778Z</time></trkpt><trkpt lat="39.8769372" lon="8.7976002"><ele>88.0</ele><time>2026-05-03T07:04:13.776Z</time></trkpt><trkpt lat="39.8768826" lon="8.7977305"><ele>88.16666666666666</ele><time>2026-05-03T07:04:15.778Z</time></trkpt><trkpt lat="39.8768567" lon="8.7978601"><ele>88.33333333333333</ele><time>2026-05-03T07:04:17.777Z</time></trkpt><trkpt lat="39.8768653" lon="8.7979676"><ele>88.5</ele><time>2026-05-03T07:04:19.777Z</time></trkpt><trkpt lat="39.8769132" lon="8.7980534"><ele>88.66666666666667</ele><time>2026-05-03T07:04:22.777Z</time></trkpt><trkpt lat="39.8770018" lon="8.7980725"><ele>88.83333333333334</ele><time>2026-05-03T07:04:24.777Z</time></trkpt><trkpt lat="39.8770698" lon="8.798076"><ele>89.0</ele><time>2026-05-03T07:04:25.777Z</time></trkpt><trkpt lat="39.8771549" lon="8.7980838"><ele>89.0</ele><time>2026-05-03T07:04:26.776Z</time></trkpt><trkpt lat="39.8772561" lon="8.7980915"><ele>89.0</ele><time>2026-05-03T07:04:27.777Z</time></trkpt><trkpt lat="39.8773725" lon="8.7981038"><ele>89.0</ele><time>2026-05-03T07:04:28.778Z</time></trkpt><trkpt lat="39.8774747" lon="8.7981144"><ele>89.0</ele><time>2026-05-03T07:04:29.776Z</time></trkpt><trkpt lat="39.8775665" lon="8.7981287"><ele>89.0</ele><time>2026-05-03T07:04:30.777Z</time></trkpt><trkpt lat="39.8776528" lon="8.7981367"><ele>90.0</ele><time>2026-05-03T07:04:31.778Z</time></trkpt><trkpt lat="39.8777212" lon="8.7981416"><ele>91.0</ele><time>2026-05-03T07:04:32.777Z</time></trkpt><trkpt lat="39.8777913" lon="8.7981424"><ele>92.0</ele><time>2026-05-03T07:04:33.779Z</time></trkpt><trkpt lat="39.8778659" lon="8.7981513"><ele>93.0</ele><time>2026-05-03T07:04:34.777Z</time></trkpt><trkpt lat="39.8779762" lon="8.7981589"><ele>94.0</ele><time>2026-05-03T07:04:36.776Z</time></trkpt><trkpt lat="39.8780526" lon="8.7981507"><ele>95.0</ele><time>2026-05-03T07:04:38.778Z</time></trkpt><trkpt lat="39.8781333" lon="8.7981048"><ele>95.0</ele><time>2026-05-03T07:04:40.778Z</time></trkpt><trkpt lat="39.8782405" lon="8.7980015"><ele>95.0</ele><time>2026-05-03T07:04:42.778Z</time></trkpt><trkpt lat="39.8783099" lon="8.7979243"><ele>95.0</ele><time>2026-05-03T07:04:43.778Z</time></trkpt><trkpt lat="39.878384" lon="8.7978362"><ele>95.0</ele><time>2026-05-03T07:04:44.779Z</time></trkpt><trkpt lat="39.8784609" lon="8.7977335"><ele>95.0</ele><time>2026-05-03T07:04:45.778Z</time></trkpt><trkpt lat="39.8785343" lon="8.7976253"><ele>96.0</ele><time>2026-05-03T07:04:46.777Z</time></trkpt><trkpt lat="39.878599" lon="8.7975314"><ele>97.0</ele><time>2026-05-03T07:04:47.779Z</time></trkpt><trkpt lat="39.8786494" lon="8.7974629"><ele>98.0</ele><time>2026-05-03T07:04:48.778Z</time></trkpt><trkpt lat="39.8787256" lon="8.7974151"><ele>99.0</ele><time>2026-05-03T07:04:50.776Z</time></trkpt><trkpt lat="39.8787458" lon="8.7975315"><ele>99.99999999999999</ele><time>2026-05-03T07:04:53.779Z</time></trkpt><trkpt lat="39.8787215" lon="8.7976331"><ele>101.0</ele><time>2026-05-03T07:04:54.778Z</time></trkpt><trkpt lat="39.8786924" lon="8.7977631"><ele>101.25</ele><time>2026-05-03T07:04:55.777Z</time></trkpt><trkpt lat="39.8786599" lon="8.7979205"><ele>101.5</ele><time>2026-05-03T07:04:56.777Z</time></trkpt><trkpt lat="39.8786203" lon="8.7980931"><ele>101.75</ele><time>2026-05-03T07:04:57.777Z</time></trkpt><trkpt lat="39.8785819" lon="8.7982807"><ele>102.0</ele><time>2026-05-03T07:04:58.777Z</time></trkpt><trkpt lat="39.878543" lon="8.7984832"><ele>102.33333333333334</ele><time>2026-05-03T07:04:59.777Z</time></trkpt><trkpt lat="39.8785045" lon="8.7987022"><ele>102.66666666666667</ele><time>2026-05-03T07:05:00.778Z</time></trkpt><trkpt lat="39.8784619" lon="8.7989276"><ele>103.0</ele><time>2026-05-03T07:05:01.777Z</time></trkpt><trkpt lat="39.8784176" lon="8.7991572"><ele>101.33333333333334</ele><time>2026-05-03T07:05:02.777Z</time></trkpt><trkpt lat="39.8783729" lon="8.7994007"><ele>99.66666666666666</ele><time>2026-05-03T07:05:03.777Z</time></trkpt><trkpt lat="39.8783241" lon="8.7996503"><ele>98.0</ele><time>2026-05-03T07:05:04.778Z</time></trkpt><trkpt lat="39.8782774" lon="8.7999014"><ele>98.0</ele><time>2026-05-03T07:05:05.777Z</time></trkpt><trkpt lat="39.8782326" lon="8.8001602"><ele>98.0</ele><time>2026-05-03T07:05:06.778Z</time></trkpt><trkpt lat="39.8781865" lon="8.8004153"><ele>98.0</ele><time>2026-05-03T07:05:07.778Z</time></trkpt><trkpt lat="39.8781351" lon="8.8006613"><ele>98.66666666666666</ele><time>2026-05-03T07:05:08.778Z</time></trkpt><trkpt lat="39.8780869" lon="8.8008957"><ele>99.33333333333334</ele><time>2026-05-03T07:05:09.777Z</time></trkpt><trkpt lat="39.8780364" lon="8.8011193"><ele>100.0</ele><time>2026-05-03T07:05:10.777Z</time></trkpt><trkpt lat="39.877987" lon="8.8013365"><ele>101.66666666666667</ele><time>2026-05-03T07:05:11.777Z</time></trkpt><trkpt lat="39.8779282" lon="8.8015612"><ele>103.33333333333334</ele><time>2026-05-03T07:05:12.776Z</time></trkpt><trkpt lat="39.8778652" lon="8.8017839"><ele>105.0</ele><time>2026-05-03T07:05:13.777Z</time></trkpt><trkpt lat="39.8777931" lon="8.8020078"><ele>105.66666666666666</ele><time>2026-05-03T07:05:14.778Z</time></trkpt><trkpt lat="39.8777237" lon="8.8022385"><ele>106.33333333333333</ele><time>2026-05-03T07:05:15.776Z</time></trkpt><trkpt lat="39.8776489" lon="8.802461"><ele>107.0</ele><time>2026-05-03T07:05:16.778Z</time></trkpt><trkpt lat="39.8775814" lon="8.8026687"><ele>107.0</ele><time>2026-05-03T07:05:17.778Z</time></trkpt><trkpt lat="39.877516" lon="8.8028659"><ele>107.0</ele><time>2026-05-03T07:05:18.779Z</time></trkpt><trkpt lat="39.8774635" lon="8.8030536"><ele>107.0</ele><time>2026-05-03T07:05:19.778Z</time></trkpt><trkpt lat="39.8774181" lon="8.8032467"><ele>107.0</ele><time>2026-05-03T07:05:20.776Z</time></trkpt><trkpt lat="39.8773858" lon="8.8034523"><ele>107.0</ele><time>2026-05-03T07:05:21.777Z</time></trkpt><trkpt lat="39.8773658" lon="8.8036624"><ele>107.0</ele><time>2026-05-03T07:05:22.777Z</time></trkpt><trkpt lat="39.8773555" lon="8.8038811"><ele>108.0</ele><time>2026-05-03T07:05:23.778Z</time></trkpt><trkpt lat="39.8773513" lon="8.8041058"><ele>109.0</ele><time>2026-05-03T07:05:24.777Z</time></trkpt><trkpt lat="39.8773447" lon="8.8043367"><ele>110.0</ele><time>2026-05-03T07:05:25.777Z</time></trkpt><trkpt lat="39.877342" lon="8.8045682"><ele>110.0</ele><time>2026-05-03T07:05:26.776Z</time></trkpt><trkpt lat="39.8773536" lon="8.8047993"><ele>110.0</ele><time>2026-05-03T07:05:27.777Z</time></trkpt><trkpt lat="39.8773676" lon="8.8050382"><ele>110.0</ele><time>2026-05-03T07:05:28.776Z</time></trkpt><trkpt lat="39.8773886" lon="8.8052822"><ele>110.0</ele><time>2026-05-03T07:05:29.777Z</time></trkpt><trkpt lat="39.8774161" lon="8.8055316"><ele>110.0</ele><time>2026-05-03T07:05:30.778Z</time></trkpt><trkpt lat="39.8774495" lon="8.8057894"><ele>110.0</ele><time>2026-05-03T07:05:31.777Z</time></trkpt><trkpt lat="39.8774864" lon="8.8060394"><ele>110.0</ele><time>2026-05-03T07:05:32.777Z</time></trkpt><trkpt lat="39.8775168" lon="8.8062797"><ele>110.0</ele><time>2026-05-03T07:05:33.777Z</time></trkpt><trkpt lat="39.8775407" lon="8.8065056"><ele>110.0</ele><time>2026-05-03T07:05:34.777Z</time></trkpt><trkpt lat="39.8775784" lon="8.8067248"><ele>111.66666666666666</ele><time>2026-05-03T07:05:35.777Z</time></trkpt><trkpt lat="39.8776216" lon="8.8069519"><ele>113.33333333333334</ele><time>2026-05-03T07:05:36.778Z</time></trkpt><trkpt lat="39.8776696" lon="8.8071802"><ele>115.0</ele><time>2026-05-03T07:05:37.778Z</time></trkpt><trkpt lat="39.8777285" lon="8.807413"><ele>115.0</ele><time>2026-05-03T07:05:38.778Z</time></trkpt><trkpt lat="39.8777873" lon="8.8076419"><ele>115.0</ele><time>2026-05-03T07:05:39.777Z</time></trkpt><trkpt lat="39.8778479" lon="8.8078707"><ele>115.0</ele><time>2026-05-03T07:05:40.778Z</time></trkpt><trkpt lat="39.8779069" lon="8.8080959"><ele>115.33333333333334</ele><time>2026-05-03T07:05:41.777Z</time></trkpt><trkpt lat="39.8779655" lon="8.8083011"><ele>115.66666666666666</ele><time>2026-05-03T07:05:42.777Z</time></trkpt><trkpt lat="39.8780181" lon="8.8084965"><ele>116.0</ele><time>2026-05-03T07:05:43.778Z</time></trkpt><trkpt lat="39.8780634" lon="8.8086778"><ele>116.25</ele><time>2026-05-03T07:05:44.776Z</time></trkpt><trkpt lat="39.8780905" lon="8.8088466"><ele>116.5</ele><time>2026-05-03T07:05:45.776Z</time></trkpt><trkpt lat="39.8781067" lon="8.8090026"><ele>116.75</ele><time>2026-05-03T07:05:46.778Z</time></trkpt><trkpt lat="39.8781092" lon="8.8091471"><ele>117.0</ele><time>2026-05-03T07:05:47.777Z</time></trkpt><trkpt lat="39.8781107" lon="8.8092716"><ele>117.0</ele><time>2026-05-03T07:05:48.777Z</time></trkpt><trkpt lat="39.8780827" lon="8.8094067"><ele>117.0</ele><time>2026-05-03T07:05:49.777Z</time></trkpt><trkpt lat="39.8780564" lon="8.8095587"><ele>117.0</ele><time>2026-05-03T07:05:50.779Z</time></trkpt><trkpt lat="39.8780223" lon="8.8097226"><ele>117.0</ele><time>2026-05-03T07:05:51.778Z</time></trkpt><trkpt lat="39.8779813" lon="8.8099"><ele>117.0</ele><time>2026-05-03T07:05:52.776Z</time></trkpt><trkpt lat="39.8779371" lon="8.8100927"><ele>117.0</ele><time>2026-05-03T07:05:53.779Z</time></trkpt><trkpt lat="39.8778972" lon="8.8102922"><ele>117.0</ele><time>2026-05-03T07:05:54.777Z</time></trkpt><trkpt lat="39.8778558" lon="8.8105032"><ele>118.0</ele><time>2026-05-03T07:05:55.777Z</time></trkpt><trkpt lat="39.8778108" lon="8.8107077"><ele>119.0</ele><time>2026-05-03T07:05:56.777Z</time></trkpt><trkpt lat="39.8777625" lon="8.8109184"><ele>120.0</ele><time>2026-05-03T07:05:57.777Z</time></trkpt><trkpt lat="39.8777168" lon="8.8111279"><ele>122.33333333333334</ele><time>2026-05-03T07:05:58.777Z</time></trkpt><trkpt lat="39.8776695" lon="8.8113439"><ele>124.66666666666667</ele><time>2026-05-03T07:05:59.776Z</time></trkpt><trkpt lat="39.8776233" lon="8.8115553"><ele>127.0</ele><time>2026-05-03T07:06:00.778Z</time></trkpt><trkpt lat="39.8775788" lon="8.8117651"><ele>124.0</ele><time>2026-05-03T07:06:01.779Z</time></trkpt><trkpt lat="39.8775401" lon="8.8119575"><ele>121.0</ele><time>2026-05-03T07:06:02.777Z</time></trkpt><trkpt lat="39.8774944" lon="8.812138"><ele>118.0</ele><time>2026-05-03T07:06:03.776Z</time></trkpt><trkpt lat="39.8774396" lon="8.8122866"><ele>115.0</ele><time>2026-05-03T07:06:04.777Z</time></trkpt><trkpt lat="39.8773661" lon="8.8124176"><ele>115.0</ele><time>2026-05-03T07:06:05.778Z</time></trkpt><trkpt lat="39.877266" lon="8.8125428"><ele>115.0</ele><time>2026-05-03T07:06:06.777Z</time></trkpt><trkpt lat="39.8771487" lon="8.8126574"><ele>115.0</ele><time>2026-05-03T07:06:07.778Z</time></trkpt><trkpt lat="39.8770238" lon="8.8127651"><ele>115.0</ele><time>2026-05-03T07:06:08.779Z</time></trkpt><trkpt lat="39.8769045" lon="8.8128874"><ele>115.0</ele><time>2026-05-03T07:06:09.778Z</time></trkpt><trkpt lat="39.8768" lon="8.8130377"><ele>115.0</ele><time>2026-05-03T07:06:10.778Z</time></trkpt><trkpt lat="39.8767174" lon="8.8132078"><ele>115.0</ele><time>2026-05-03T07:06:11.779Z</time></trkpt><trkpt lat="39.8766526" lon="8.8133974"><ele>116.33333333333334</ele><time>2026-05-03T07:06:12.777Z</time></trkpt><trkpt lat="39.8765795" lon="8.813608"><ele>117.66666666666666</ele><time>2026-05-03T07:06:13.778Z</time></trkpt><trkpt lat="39.8765144" lon="8.8138254"><ele>119.0</ele><time>2026-05-03T07:06:14.778Z</time></trkpt><trkpt lat="39.8764453" lon="8.8140286"><ele>119.0</ele><time>2026-05-03T07:06:15.776Z</time></trkpt><trkpt lat="39.8763866" lon="8.8142193"><ele>119.0</ele><time>2026-05-03T07:06:16.777Z</time></trkpt><trkpt lat="39.8763501" lon="8.814399"><ele>119.0</ele><time>2026-05-03T07:06:17.777Z</time></trkpt><trkpt lat="39.876342" lon="8.8145751"><ele>119.0</ele><time>2026-05-03T07:06:18.778Z</time></trkpt><trkpt lat="39.8763624" lon="8.8147582"><ele>119.66666666666666</ele><time>2026-05-03T07:06:19.777Z</time></trkpt><trkpt lat="39.8763899" lon="8.8149571"><ele>120.33333333333334</ele><time>2026-05-03T07:06:20.776Z</time></trkpt><trkpt lat="39.8764174" lon="8.8151665"><ele>121.0</ele><time>2026-05-03T07:06:21.778Z</time></trkpt><trkpt lat="39.8764281" lon="8.8153641"><ele>121.66666666666667</ele><time>2026-05-03T07:06:22.778Z</time></trkpt><trkpt lat="39.8764194" lon="8.8155736"><ele>122.33333333333334</ele><time>2026-05-03T07:06:23.776Z</time></trkpt><trkpt lat="39.8763946" lon="8.8157862"><ele>123.0</ele><time>2026-05-03T07:06:24.779Z</time></trkpt><trkpt lat="39.8763359" lon="8.8159996"><ele>123.0</ele><time>2026-05-03T07:06:25.778Z</time></trkpt><trkpt lat="39.8762938" lon="8.816198"><ele>123.0</ele><time>2026-05-03T07:06:26.777Z</time></trkpt><trkpt lat="39.8762626" lon="8.8163867"><ele>123.0</ele><time>2026-05-03T07:06:27.777Z</time></trkpt><trkpt lat="39.8762513" lon="8.8165577"><ele>123.0</ele><time>2026-05-03T07:06:28.777Z</time></trkpt><trkpt lat="39.876275" lon="8.8167237"><ele>123.33333333333334</ele><time>2026-05-03T07:06:29.779Z</time></trkpt><trkpt lat="39.8763288" lon="8.8168932"><ele>123.66666666666667</ele><time>2026-05-03T07:06:30.777Z</time></trkpt><trkpt lat="39.8764077" lon="8.817064"><ele>124.0</ele><time>2026-05-03T07:06:31.777Z</time></trkpt><trkpt lat="39.8765109" lon="8.8172391"><ele>124.0</ele><time>2026-05-03T07:06:32.777Z</time></trkpt><trkpt lat="39.8766101" lon="8.8174097"><ele>124.0</ele><time>2026-05-03T07:06:33.778Z</time></trkpt><trkpt lat="39.8766939" lon="8.8175697"><ele>124.0</ele><time>2026-05-03T07:06:34.777Z</time></trkpt><trkpt lat="39.8767684" lon="8.8177185"><ele>124.0</ele><time>2026-05-03T07:06:35.776Z</time></trkpt><trkpt lat="39.876808" lon="8.8178649"><ele>124.25</ele><time>2026-05-03T07:06:36.778Z</time></trkpt><trkpt lat="39.8768177" lon="8.817997"><ele>124.5</ele><time>2026-05-03T07:06:37.777Z</time></trkpt><trkpt lat="39.8767854" lon="8.8181303"><ele>124.75</ele><time>2026-05-03T07:06:38.776Z</time></trkpt><trkpt lat="39.8767174" lon="8.81827"><ele>125.0</ele><time>2026-05-03T07:06:39.777Z</time></trkpt><trkpt lat="39.8766215" lon="8.8184082"><ele>127.66666666666666</ele><time>2026-05-03T07:06:40.778Z</time></trkpt><trkpt lat="39.8765164" lon="8.818547"><ele>130.33333333333334</ele><time>2026-05-03T07:06:41.777Z</time></trkpt><trkpt lat="39.8763855" lon="8.8187057"><ele>133.0</ele><time>2026-05-03T07:06:42.776Z</time></trkpt><trkpt lat="39.8762583" lon="8.8188612"><ele>133.0</ele><time>2026-05-03T07:06:43.777Z</time></trkpt><trkpt lat="39.876125" lon="8.8190253"><ele>133.0</ele><time>2026-05-03T07:06:44.778Z</time></trkpt><trkpt lat="39.8759876" lon="8.819198"><ele>133.0</ele><time>2026-05-03T07:06:45.778Z</time></trkpt><trkpt lat="39.8758445" lon="8.8193739"><ele>134.33333333333334</ele><time>2026-05-03T07:06:46.779Z</time></trkpt><trkpt lat="39.8756954" lon="8.8195523"><ele>135.66666666666666</ele><time>2026-05-03T07:06:47.779Z</time></trkpt><trkpt lat="39.8755507" lon="8.8197239"><ele>137.0</ele><time>2026-05-03T07:06:48.777Z</time></trkpt><trkpt lat="39.8754198" lon="8.819889"><ele>137.0</ele><time>2026-05-03T07:06:49.777Z</time></trkpt><trkpt lat="39.8752916" lon="8.8200509"><ele>137.0</ele><time>2026-05-03T07:06:50.778Z</time></trkpt><trkpt lat="39.875173" lon="8.8202147"><ele>137.0</ele><time>2026-05-03T07:06:51.778Z</time></trkpt><trkpt lat="39.8750777" lon="8.8203855"><ele>136.5</ele><time>2026-05-03T07:06:52.779Z</time></trkpt><trkpt lat="39.875012" lon="8.8205464"><ele>136.0</ele><time>2026-05-03T07:06:53.777Z</time></trkpt><trkpt lat="39.8749656" lon="8.8207199"><ele>135.5</ele><time>2026-05-03T07:06:54.778Z</time></trkpt><trkpt lat="39.8749504" lon="8.8209018"><ele>135.0</ele><time>2026-05-03T07:06:55.779Z</time></trkpt><trkpt lat="39.8749499" lon="8.8210922"><ele>135.0</ele><time>2026-05-03T07:06:56.778Z</time></trkpt><trkpt lat="39.875001" lon="8.8212481"><ele>135.0</ele><time>2026-05-03T07:06:57.778Z</time></trkpt><trkpt lat="39.8750638" lon="8.8214047"><ele>135.0</ele><time>2026-05-03T07:06:58.778Z</time></trkpt><trkpt lat="39.8751427" lon="8.8215586"><ele>135.0</ele><time>2026-05-03T07:06:59.777Z</time></trkpt><trkpt lat="39.8752457" lon="8.8216993"><ele>135.0</ele><time>2026-05-03T07:07:00.777Z</time></trkpt><trkpt lat="39.875371" lon="8.8218293"><ele>135.0</ele><time>2026-05-03T07:07:01.776Z</time></trkpt><trkpt lat="39.875514" lon="8.8219376"><ele>135.0</ele><time>2026-05-03T07:07:02.777Z</time></trkpt><trkpt lat="39.8756648" lon="8.8220275"><ele>135.0</ele><time>2026-05-03T07:07:03.778Z</time></trkpt><trkpt lat="39.8758106" lon="8.8221261"><ele>135.0</ele><time>2026-05-03T07:07:04.778Z</time></trkpt><trkpt lat="39.8759341" lon="8.8222446"><ele>135.0</ele><time>2026-05-03T07:07:05.779Z</time></trkpt><trkpt lat="39.8760388" lon="8.822385"><ele>136.33333333333334</ele><time>2026-05-03T07:07:06.777Z</time></trkpt><trkpt lat="39.8761368" lon="8.8225386"><ele>137.66666666666669</ele><time>2026-05-03T07:07:07.779Z</time></trkpt><trkpt lat="39.8762231" lon="8.8227259"><ele>139.0</ele><time>2026-05-03T07:07:08.778Z</time></trkpt><trkpt lat="39.8762987" lon="8.8228953"><ele>139.0</ele><time>2026-05-03T07:07:09.778Z</time></trkpt><trkpt lat="39.8763626" lon="8.8230334"><ele>139.0</ele><time>2026-05-03T07:07:10.777Z</time></trkpt><trkpt lat="39.8764118" lon="8.8231381"><ele>139.0</ele><time>2026-05-03T07:07:11.777Z</time></trkpt><trkpt lat="39.8764608" lon="8.8232463"><ele>139.0</ele><time>2026-05-03T07:07:13.779Z</time></trkpt><trkpt lat="39.876421" lon="8.8231378"><ele>139.0</ele><time>2026-05-03T07:07:24.779Z</time></trkpt><trkpt lat="39.8763794" lon="8.8230659"><ele>139.0</ele><time>2026-05-03T07:07:25.777Z</time></trkpt><trkpt lat="39.8763212" lon="8.8229543"><ele>139.0</ele><time>2026-05-03T07:07:26.777Z</time></trkpt><trkpt lat="39.8762575" lon="8.8228254"><ele>139.0</ele><time>2026-05-03T07:07:27.778Z</time></trkpt><trkpt lat="39.8761843" lon="8.8226808"><ele>139.0</ele><time>2026-05-03T07:07:28.778Z</time></trkpt><trkpt lat="39.8761032" lon="8.8225195"><ele>138.0</ele><time>2026-05-03T07:07:29.776Z</time></trkpt><trkpt lat="39.8760138" lon="8.8223636"><ele>137.0</ele><time>2026-05-03T07:07:30.778Z</time></trkpt><trkpt lat="39.8759139" lon="8.8222274"><ele>136.0</ele><time>2026-05-03T07:07:31.778Z</time></trkpt><trkpt lat="39.8757992" lon="8.8221201"><ele>135.0</ele><time>2026-05-03T07:07:32.778Z</time></trkpt><trkpt lat="39.8756745" lon="8.8220341"><ele>135.0</ele><time>2026-05-03T07:07:33.778Z</time></trkpt><trkpt lat="39.8755594" lon="8.8219575"><ele>135.0</ele><time>2026-05-03T07:07:34.777Z</time></trkpt><trkpt lat="39.875462" lon="8.8218951"><ele>135.0</ele><time>2026-05-03T07:07:35.779Z</time></trkpt><trkpt lat="39.8753975" lon="8.8218476"><ele>135.0</ele><time>2026-05-03T07:07:36.779Z</time></trkpt><trkpt lat="39.8753479" lon="8.8218999"><ele>135.0</ele><time>2026-05-03T07:07:41.777Z</time></trkpt><trkpt lat="39.8753902" lon="8.8220075"><ele>135.0</ele><time>2026-05-03T07:07:45.778Z</time></trkpt><trkpt lat="39.8754332" lon="8.822079"><ele>135.0</ele><time>2026-05-03T07:07:47.776Z</time></trkpt><trkpt lat="39.8754742" lon="8.8221795"><ele>135.0</ele><time>2026-05-03T07:07:50.776Z</time></trkpt><trkpt lat="39.875501" lon="8.8222538"><ele>135.0</ele><time>2026-05-03T07:08:00.777Z</time></trkpt><trkpt lat="39.8755645" lon="8.8223378"><ele>135.0</ele><time>2026-05-03T07:08:14.776Z</time></trkpt><trkpt lat="39.8756371" lon="8.822382"><ele>135.0</ele><time>2026-05-03T07:08:16.778Z</time></trkpt><trkpt lat="39.8756815" lon="8.822447"><ele>135.0</ele><time>2026-05-03T07:08:18.777Z</time></trkpt><trkpt lat="39.8756797" lon="8.8225696"><ele>135.0</ele><time>2026-05-03T07:08:20.777Z</time></trkpt><trkpt lat="39.8756507" lon="8.8226576"><ele>135.0</ele><time>2026-05-03T07:08:21.778Z</time></trkpt><trkpt lat="39.8756241" lon="8.8227491"><ele>135.0</ele><time>2026-05-03T07:08:22.777Z</time></trkpt><trkpt lat="39.8755942" lon="8.8228393"><ele>135.0</ele><time>2026-05-03T07:08:23.778Z</time></trkpt><trkpt lat="39.8755531" lon="8.8229599"><ele>135.0</ele><time>2026-05-03T07:08:25.776Z</time></trkpt><trkpt lat="39.8755432" lon="8.8230448"><ele>135.66666666666666</ele><time>2026-05-03T07:08:27.777Z</time></trkpt><trkpt lat="39.8755344" lon="8.8231637"><ele>136.33333333333334</ele><time>2026-05-03T07:08:30.779Z</time></trkpt><trkpt lat="39.8754708" lon="8.8232722"><ele>137.0</ele><time>2026-05-03T07:08:32.777Z</time></trkpt><trkpt lat="39.8754399" lon="8.8233814"><ele>137.66666666666669</ele><time>2026-05-03T07:08:34.777Z</time></trkpt><trkpt lat="39.8754575" lon="8.8234882"><ele>138.33333333333334</ele><time>2026-05-03T07:08:36.778Z</time></trkpt><trkpt lat="39.8755158" lon="8.8235251"><ele>139.0</ele><time>2026-05-03T07:08:38.778Z</time></trkpt><trkpt lat="39.8755815" lon="8.8235011"><ele>139.0</ele><time>2026-05-03T07:08:40.777Z</time></trkpt><trkpt lat="39.8756762" lon="8.8234415"><ele>139.0</ele><time>2026-05-03T07:08:43.778Z</time></trkpt><trkpt lat="39.8757473" lon="8.8234596"><ele>139.0</ele><time>2026-05-03T07:08:45.776Z</time></trkpt><trkpt lat="39.8757717" lon="8.8235763"><ele>139.0</ele><time>2026-05-03T07:08:47.778Z</time></trkpt><trkpt lat="39.8757858" lon="8.8237515"><ele>139.0</ele><time>2026-05-03T07:08:49.777Z</time></trkpt><trkpt lat="39.8758035" lon="8.8238389"><ele>140.14285714285714</ele><time>2026-05-03T07:08:50.777Z</time></trkpt><trkpt lat="39.8758311" lon="8.8239288"><ele>141.28571428571428</ele><time>2026-05-03T07:08:51.778Z</time></trkpt><trkpt lat="39.8758483" lon="8.8240118"><ele>142.42857142857144</ele><time>2026-05-03T07:08:52.777Z</time></trkpt><trkpt lat="39.8758618" lon="8.8240986"><ele>143.57142857142856</ele><time>2026-05-03T07:08:53.777Z</time></trkpt><trkpt lat="39.8758772" lon="8.8241865"><ele>144.71428571428572</ele><time>2026-05-03T07:08:54.776Z</time></trkpt><trkpt lat="39.8759001" lon="8.8242786"><ele>145.85714285714286</ele><time>2026-05-03T07:08:55.776Z</time></trkpt><trkpt lat="39.8759242" lon="8.8243778"><ele>147.0</ele><time>2026-05-03T07:08:56.778Z</time></trkpt><trkpt lat="39.8759521" lon="8.8244766"><ele>147.16666666666666</ele><time>2026-05-03T07:08:57.778Z</time></trkpt><trkpt lat="39.8759808" lon="8.8245625"><ele>147.33333333333334</ele><time>2026-05-03T07:08:58.777Z</time></trkpt><trkpt lat="39.8760173" lon="8.8246311"><ele>147.5</ele><time>2026-05-03T07:08:59.777Z</time></trkpt><trkpt lat="39.8760589" lon="8.8246938"><ele>147.66666666666669</ele><time>2026-05-03T07:09:00.778Z</time></trkpt><trkpt lat="39.8760969" lon="8.8248282"><ele>147.83333333333334</ele><time>2026-05-03T07:09:02.777Z</time></trkpt><trkpt lat="39.8761024" lon="8.8249812"><ele>148.0</ele><time>2026-05-03T07:09:04.777Z</time></trkpt><trkpt lat="39.8761205" lon="8.8251389"><ele>150.16666666666669</ele><time>2026-05-03T07:09:06.777Z</time></trkpt><trkpt lat="39.8761368" lon="8.8253079"><ele>152.33333333333334</ele><time>2026-05-03T07:09:08.777Z</time></trkpt><trkpt lat="39.876145" lon="8.8254069"><ele>154.5</ele><time>2026-05-03T07:09:09.779Z</time></trkpt><trkpt lat="39.876153" lon="8.8255051"><ele>156.66666666666666</ele><time>2026-05-03T07:09:10.778Z</time></trkpt><trkpt lat="39.8761642" lon="8.8256028"><ele>158.83333333333331</ele><time>2026-05-03T07:09:11.778Z</time></trkpt><trkpt lat="39.8761712" lon="8.8257014"><ele>161.0</ele><time>2026-05-03T07:09:12.778Z</time></trkpt><trkpt lat="39.8761753" lon="8.8258068"><ele>161.0</ele><time>2026-05-03T07:09:13.778Z</time></trkpt><trkpt lat="39.8761771" lon="8.8259138"><ele>161.0</ele><time>2026-05-03T07:09:14.776Z</time></trkpt><trkpt lat="39.8761756" lon="8.8260202"><ele>161.0</ele><time>2026-05-03T07:09:15.777Z</time></trkpt><trkpt lat="39.876175" lon="8.8261212"><ele>161.0</ele><time>2026-05-03T07:09:16.779Z</time></trkpt><trkpt lat="39.8761753" lon="8.8262149"><ele>161.0</ele><time>2026-05-03T07:09:17.778Z</time></trkpt><trkpt lat="39.8761746" lon="8.8263024"><ele>161.0</ele><time>2026-05-03T07:09:18.777Z</time></trkpt><trkpt lat="39.8761542" lon="8.8264179"><ele>162.4</ele><time>2026-05-03T07:09:20.777Z</time></trkpt><trkpt lat="39.8760975" lon="8.8264895"><ele>163.8</ele><time>2026-05-03T07:09:22.778Z</time></trkpt><trkpt lat="39.8760304" lon="8.8266015"><ele>165.20000000000002</ele><time>2026-05-03T07:09:24.776Z</time></trkpt><trkpt lat="39.8759703" lon="8.8267478"><ele>166.60000000000002</ele><time>2026-05-03T07:09:26.777Z</time></trkpt><trkpt lat="39.8759238" lon="8.8268754"><ele>168.0</ele><time>2026-05-03T07:09:28.777Z</time></trkpt><trkpt lat="39.8758643" lon="8.8270349"><ele>169.42857142857142</ele><time>2026-05-03T07:09:30.777Z</time></trkpt><trkpt lat="39.8758282" lon="8.8271353"><ele>170.85714285714286</ele><time>2026-05-03T07:09:31.778Z</time></trkpt><trkpt lat="39.8757945" lon="8.827233"><ele>172.28571428571428</ele><time>2026-05-03T07:09:32.777Z</time></trkpt><trkpt lat="39.8757636" lon="8.8273139"><ele>173.71428571428572</ele><time>2026-05-03T07:09:33.779Z</time></trkpt><trkpt lat="39.8757291" lon="8.8273906"><ele>175.14285714285714</ele><time>2026-05-03T07:09:34.777Z</time></trkpt><trkpt lat="39.8756932" lon="8.8274622"><ele>176.57142857142856</ele><time>2026-05-03T07:09:35.777Z</time></trkpt><trkpt lat="39.875651" lon="8.8275345"><ele>178.0</ele><time>2026-05-03T07:09:36.777Z</time></trkpt><trkpt lat="39.8755583" lon="8.8276597"><ele>178.8</ele><time>2026-05-03T07:09:38.777Z</time></trkpt><trkpt lat="39.8754911" lon="8.8277222"><ele>179.60000000000002</ele><time>2026-05-03T07:09:39.776Z</time></trkpt><trkpt lat="39.8754286" lon="8.8277817"><ele>180.39999999999998</ele><time>2026-05-03T07:09:40.777Z</time></trkpt><trkpt lat="39.8753633" lon="8.8278327"><ele>181.2</ele><time>2026-05-03T07:09:41.779Z</time></trkpt><trkpt lat="39.8752688" lon="8.827901"><ele>182.0</ele><time>2026-05-03T07:09:43.778Z</time></trkpt><trkpt lat="39.8751597" lon="8.8279458"><ele>183.5</ele><time>2026-05-03T07:09:45.778Z</time></trkpt><trkpt lat="39.8750858" lon="8.8279714"><ele>185.0</ele><time>2026-05-03T07:09:46.779Z</time></trkpt><trkpt lat="39.8750151" lon="8.8279938"><ele>186.5</ele><time>2026-05-03T07:09:47.777Z</time></trkpt><trkpt lat="39.8749481" lon="8.828028"><ele>188.0</ele><time>2026-05-03T07:09:48.777Z</time></trkpt><trkpt lat="39.8748521" lon="8.828086"><ele>189.5</ele><time>2026-05-03T07:09:50.779Z</time></trkpt><trkpt lat="39.8747478" lon="8.8281603"><ele>191.0</ele><time>2026-05-03T07:09:52.777Z</time></trkpt><trkpt lat="39.8746663" lon="8.8282306"><ele>191.0</ele><time>2026-05-03T07:09:54.778Z</time></trkpt><trkpt lat="39.8745879" lon="8.8282734"><ele>191.0</ele><time>2026-05-03T07:09:57.778Z</time></trkpt><trkpt lat="39.8745298" lon="8.8282209"><ele>191.0</ele><time>2026-05-03T07:09:59.777Z</time></trkpt><trkpt lat="39.8745051" lon="8.8281286"><ele>191.0</ele><time>2026-05-03T07:10:01.777Z</time></trkpt><trkpt lat="39.8744698" lon="8.8280355"><ele>191.0</ele><time>2026-05-03T07:10:03.777Z</time></trkpt><trkpt lat="39.8744113" lon="8.8279619"><ele>191.0</ele><time>2026-05-03T07:10:06.776Z</time></trkpt><trkpt lat="39.8743311" lon="8.8278931"><ele>193.8</ele><time>2026-05-03T07:10:08.777Z</time></trkpt><trkpt lat="39.8742377" lon="8.8278169"><ele>196.60000000000002</ele><time>2026-05-03T07:10:10.777Z</time></trkpt><trkpt lat="39.8741395" lon="8.8277456"><ele>199.4</ele><time>2026-05-03T07:10:12.776Z</time></trkpt><trkpt lat="39.8740531" lon="8.8276869"><ele>202.2</ele><time>2026-05-03T07:10:14.778Z</time></trkpt><trkpt lat="39.873966" lon="8.8276257"><ele>205.0</ele><time>2026-05-03T07:10:16.778Z</time></trkpt><trkpt lat="39.8738897" lon="8.8275721"><ele>205.99999999999997</ele><time>2026-05-03T07:10:18.777Z</time></trkpt><trkpt lat="39.8738527" lon="8.8274603"><ele>207.0</ele><time>2026-05-03T07:10:21.777Z</time></trkpt><trkpt lat="39.8738377" lon="8.827366"><ele>208.0</ele><time>2026-05-03T07:10:23.778Z</time></trkpt><trkpt lat="39.8737797" lon="8.8273158"><ele>209.0</ele><time>2026-05-03T07:10:25.778Z</time></trkpt><trkpt lat="39.8736872" lon="8.8273274"><ele>209.99999999999997</ele><time>2026-05-03T07:10:27.776Z</time></trkpt><trkpt lat="39.8736073" lon="8.8273273"><ele>211.0</ele><time>2026-05-03T07:10:30.776Z</time></trkpt><trkpt lat="39.8735368" lon="8.8273214"><ele>210.99999999999997</ele><time>2026-05-03T07:10:32.777Z</time></trkpt><trkpt lat="39.8734691" lon="8.8273069"><ele>211.0</ele><time>2026-05-03T07:10:34.776Z</time></trkpt><trkpt lat="39.8734019" lon="8.8273006"><ele>211.0</ele><time>2026-05-03T07:10:37.777Z</time></trkpt><trkpt lat="39.8733185" lon="8.8273057"><ele>211.0</ele><time>2026-05-03T07:10:39.778Z</time></trkpt><trkpt lat="39.8732314" lon="8.8273061"><ele>210.99999999999997</ele><time>2026-05-03T07:10:41.778Z</time></trkpt><trkpt lat="39.8731283" lon="8.8273064"><ele>211.0</ele><time>2026-05-03T07:10:43.777Z</time></trkpt><trkpt lat="39.8730262" lon="8.82731"><ele>212.60000000000002</ele><time>2026-05-03T07:10:45.779Z</time></trkpt><trkpt lat="39.8729298" lon="8.8273148"><ele>214.2</ele><time>2026-05-03T07:10:47.777Z</time></trkpt><trkpt lat="39.8728396" lon="8.8273134"><ele>215.79999999999998</ele><time>2026-05-03T07:10:49.777Z</time></trkpt><trkpt lat="39.8727513" lon="8.82732"><ele>217.39999999999998</ele><time>2026-05-03T07:10:51.778Z</time></trkpt><trkpt lat="39.8726701" lon="8.8273223"><ele>219.0</ele><time>2026-05-03T07:10:53.777Z</time></trkpt><trkpt lat="39.872573" lon="8.8273252"><ele>219.0</ele><time>2026-05-03T07:10:55.777Z</time></trkpt><trkpt lat="39.8724813" lon="8.8273371"><ele>219.0</ele><time>2026-05-03T07:10:57.779Z</time></trkpt><trkpt lat="39.872392" lon="8.8273379"><ele>219.0</ele><time>2026-05-03T07:10:59.776Z</time></trkpt><trkpt lat="39.8722938" lon="8.8273403"><ele>219.0</ele><time>2026-05-03T07:11:01.778Z</time></trkpt><trkpt lat="39.872206" lon="8.8273702"><ele>219.0</ele><time>2026-05-03T07:11:03.777Z</time></trkpt><trkpt lat="39.8721364" lon="8.8274037"><ele>219.0</ele><time>2026-05-03T07:11:05.777Z</time></trkpt><trkpt lat="39.8720563" lon="8.8274313"><ele>219.0</ele><time>2026-05-03T07:11:07.777Z</time></trkpt><trkpt lat="39.87194" lon="8.8274265"><ele>219.0</ele><time>2026-05-03T07:11:09.776Z</time></trkpt><trkpt lat="39.8718734" lon="8.827412"><ele>219.0</ele><time>2026-05-03T07:11:10.777Z</time></trkpt><trkpt lat="39.8718058" lon="8.82739"><ele>219.0</ele><time>2026-05-03T07:11:11.777Z</time></trkpt><trkpt lat="39.8717352" lon="8.8273565"><ele>219.0</ele><time>2026-05-03T07:11:12.777Z</time></trkpt><trkpt lat="39.8716669" lon="8.8273213"><ele>219.0</ele><time>2026-05-03T07:11:13.777Z</time></trkpt><trkpt lat="39.871605" lon="8.8272827"><ele>218.57142857142858</ele><time>2026-05-03T07:11:14.778Z</time></trkpt><trkpt lat="39.8715421" lon="8.8272565"><ele>218.14285714285714</ele><time>2026-05-03T07:11:15.777Z</time></trkpt><trkpt lat="39.8714757" lon="8.8272285"><ele>217.71428571428572</ele><time>2026-05-03T07:11:16.777Z</time></trkpt><trkpt lat="39.8714036" lon="8.827193"><ele>217.28571428571428</ele><time>2026-05-03T07:11:17.777Z</time></trkpt><trkpt lat="39.8713329" lon="8.8271548"><ele>216.85714285714283</ele><time>2026-05-03T07:11:18.778Z</time></trkpt><trkpt lat="39.8712632" lon="8.8271161"><ele>216.42857142857142</ele><time>2026-05-03T07:11:19.778Z</time></trkpt><trkpt lat="39.8711957" lon="8.8270848"><ele>216.0</ele><time>2026-05-03T07:11:20.779Z</time></trkpt><trkpt lat="39.8711262" lon="8.8270598"><ele>216.0</ele><time>2026-05-03T07:11:21.777Z</time></trkpt><trkpt lat="39.8710611" lon="8.8270293"><ele>216.0</ele><time>2026-05-03T07:11:22.777Z</time></trkpt><trkpt lat="39.8709404" lon="8.8269638"><ele>216.0</ele><time>2026-05-03T07:11:24.777Z</time></trkpt><trkpt lat="39.8708799" lon="8.8269346"><ele>216.0</ele><time>2026-05-03T07:11:25.777Z</time></trkpt><trkpt lat="39.8708153" lon="8.8269016"><ele>216.0</ele><time>2026-05-03T07:11:26.778Z</time></trkpt><trkpt lat="39.8707498" lon="8.8268709"><ele>216.0</ele><time>2026-05-03T07:11:27.776Z</time></trkpt><trkpt lat="39.8706912" lon="8.8268383"><ele>216.5</ele><time>2026-05-03T07:11:28.779Z</time></trkpt><trkpt lat="39.8705933" lon="8.8267969"><ele>217.0</ele><time>2026-05-03T07:11:30.777Z</time></trkpt><trkpt lat="39.8705225" lon="8.8267618"><ele>217.5</ele><time>2026-05-03T07:11:32.776Z</time></trkpt><trkpt lat="39.8704713" lon="8.8267074"><ele>218.0</ele><time>2026-05-03T07:11:34.777Z</time></trkpt><trkpt lat="39.8704169" lon="8.8266383"><ele>218.5</ele><time>2026-05-03T07:11:36.777Z</time></trkpt><trkpt lat="39.8703638" lon="8.8265805"><ele>219.0</ele><time>2026-05-03T07:11:38.777Z</time></trkpt><trkpt lat="39.8702797" lon="8.8265151"><ele>219.0</ele><time>2026-05-03T07:11:40.776Z</time></trkpt><trkpt lat="39.8701935" lon="8.8264582"><ele>219.0</ele><time>2026-05-03T07:11:42.776Z</time></trkpt><trkpt lat="39.8701323" lon="8.826424"><ele>219.0</ele><time>2026-05-03T07:11:44.776Z</time></trkpt><trkpt lat="39.8700412" lon="8.8264503"><ele>219.0</ele><time>2026-05-03T07:11:47.778Z</time></trkpt><trkpt lat="39.8699783" lon="8.8265689"><ele>219.0</ele><time>2026-05-03T07:11:49.778Z</time></trkpt><trkpt lat="39.8699557" lon="8.826649"><ele>219.0</ele><time>2026-05-03T07:11:50.777Z</time></trkpt><trkpt lat="39.8699332" lon="8.8267531"><ele>219.66666666666666</ele><time>2026-05-03T07:11:51.777Z</time></trkpt><trkpt lat="39.8699103" lon="8.826856"><ele>220.33333333333331</ele><time>2026-05-03T07:11:52.777Z</time></trkpt><trkpt lat="39.8698905" lon="8.8269611"><ele>221.0</ele><time>2026-05-03T07:11:53.778Z</time></trkpt><trkpt lat="39.8698706" lon="8.8270634"><ele>221.66666666666666</ele><time>2026-05-03T07:11:54.778Z</time></trkpt><trkpt lat="39.86985" lon="8.8271636"><ele>222.33333333333331</ele><time>2026-05-03T07:11:55.777Z</time></trkpt><trkpt lat="39.8698049" lon="8.8272592"><ele>223.0</ele><time>2026-05-03T07:11:56.776Z</time></trkpt><trkpt lat="39.8697697" lon="8.8273406"><ele>223.0</ele><time>2026-05-03T07:11:57.776Z</time></trkpt><trkpt lat="39.8697224" lon="8.8274413"><ele>223.0</ele><time>2026-05-03T07:11:59.776Z</time></trkpt><trkpt lat="39.8696782" lon="8.8275681"><ele>223.0</ele><time>2026-05-03T07:12:01.777Z</time></trkpt><trkpt lat="39.8696243" lon="8.8277053"><ele>223.0</ele><time>2026-05-03T07:12:03.777Z</time></trkpt><trkpt lat="39.8695967" lon="8.8278494"><ele>223.0</ele><time>2026-05-03T07:12:05.776Z</time></trkpt><trkpt lat="39.8695565" lon="8.8279886"><ele>223.0</ele><time>2026-05-03T07:12:07.778Z</time></trkpt><trkpt lat="39.8695107" lon="8.8281196"><ele>223.0</ele><time>2026-05-03T07:12:09.776Z</time></trkpt><trkpt lat="39.869486" lon="8.828216"><ele>223.0</ele><time>2026-05-03T07:12:11.778Z</time></trkpt><trkpt lat="39.8694838" lon="8.8283132"><ele>223.0</ele><time>2026-05-03T07:12:13.777Z</time></trkpt><trkpt lat="39.8694891" lon="8.8284461"><ele>223.0</ele><time>2026-05-03T07:12:15.777Z</time></trkpt><trkpt lat="39.8694476" lon="8.8285711"><ele>222.99999999999997</ele><time>2026-05-03T07:12:17.778Z</time></trkpt><trkpt lat="39.8694059" lon="8.8286645"><ele>223.0</ele><time>2026-05-03T07:12:18.777Z</time></trkpt><trkpt lat="39.8693665" lon="8.8287669"><ele>223.0</ele><time>2026-05-03T07:12:19.778Z</time></trkpt><trkpt lat="39.8693251" lon="8.8288677"><ele>223.0</ele><time>2026-05-03T07:12:20.777Z</time></trkpt><trkpt lat="39.8692905" lon="8.8289825"><ele>222.99999999999997</ele><time>2026-05-03T07:12:21.778Z</time></trkpt><trkpt lat="39.8692512" lon="8.8290819"><ele>223.0</ele><time>2026-05-03T07:12:22.777Z</time></trkpt><trkpt lat="39.8692158" lon="8.8291746"><ele>222.83333333333331</ele><time>2026-05-03T07:12:23.777Z</time></trkpt><trkpt lat="39.8691809" lon="8.8292511"><ele>222.66666666666666</ele><time>2026-05-03T07:12:24.777Z</time></trkpt><trkpt lat="39.8691484" lon="8.8293362"><ele>222.5</ele><time>2026-05-03T07:12:25.777Z</time></trkpt><trkpt lat="39.8691191" lon="8.8294363"><ele>222.33333333333331</ele><time>2026-05-03T07:12:26.778Z</time></trkpt><trkpt lat="39.8690807" lon="8.8295405"><ele>222.16666666666666</ele><time>2026-05-03T07:12:27.778Z</time></trkpt><trkpt lat="39.8690441" lon="8.8296463"><ele>222.0</ele><time>2026-05-03T07:12:28.776Z</time></trkpt><trkpt lat="39.8690096" lon="8.8297577"><ele>222.5</ele><time>2026-05-03T07:12:29.778Z</time></trkpt><trkpt lat="39.86898" lon="8.8298781"><ele>223.0</ele><time>2026-05-03T07:12:30.777Z</time></trkpt><trkpt lat="39.8689437" lon="8.8299718"><ele>223.5</ele><time>2026-05-03T07:12:31.776Z</time></trkpt><trkpt lat="39.8689195" lon="8.8300651"><ele>224.0</ele><time>2026-05-03T07:12:32.777Z</time></trkpt><trkpt lat="39.8688895" lon="8.830163"><ele>224.5</ele><time>2026-05-03T07:12:33.777Z</time></trkpt><trkpt lat="39.8688593" lon="8.830248"><ele>225.0</ele><time>2026-05-03T07:12:34.778Z</time></trkpt><trkpt lat="39.8687919" lon="8.8303912"><ele>225.42857142857144</ele><time>2026-05-03T07:12:36.776Z</time></trkpt><trkpt lat="39.8687585" lon="8.8304724"><ele>225.85714285714286</ele><time>2026-05-03T07:12:37.778Z</time></trkpt><trkpt lat="39.8687314" lon="8.8305604"><ele>226.28571428571428</ele><time>2026-05-03T07:12:38.778Z</time></trkpt><trkpt lat="39.8687013" lon="8.8306506"><ele>226.71428571428572</ele><time>2026-05-03T07:12:39.776Z</time></trkpt><trkpt lat="39.8686757" lon="8.8307341"><ele>227.1428571428571</ele><time>2026-05-03T07:12:40.777Z</time></trkpt><trkpt lat="39.8686478" lon="8.8308171"><ele>227.57142857142856</ele><time>2026-05-03T07:12:41.777Z</time></trkpt><trkpt lat="39.8686147" lon="8.8309067"><ele>228.0</ele><time>2026-05-03T07:12:42.779Z</time></trkpt><trkpt lat="39.8685807" lon="8.8309922"><ele>228.42857142857142</ele><time>2026-05-03T07:12:43.779Z</time></trkpt><trkpt lat="39.8685569" lon="8.8310813"><ele>228.85714285714283</ele><time>2026-05-03T07:12:44.778Z</time></trkpt><trkpt lat="39.8685287" lon="8.8311679"><ele>229.28571428571428</ele><time>2026-05-03T07:12:45.777Z</time></trkpt><trkpt lat="39.8685085" lon="8.8312512"><ele>229.71428571428572</ele><time>2026-05-03T07:12:46.779Z</time></trkpt><trkpt lat="39.8684862" lon="8.8313328"><ele>230.14285714285714</ele><time>2026-05-03T07:12:47.778Z</time></trkpt><trkpt lat="39.8684638" lon="8.8314157"><ele>230.57142857142856</ele><time>2026-05-03T07:12:48.777Z</time></trkpt><trkpt lat="39.8684339" lon="8.8315042"><ele>231.0</ele><time>2026-05-03T07:12:49.777Z</time></trkpt><trkpt lat="39.8684072" lon="8.8315884"><ele>231.0</ele><time>2026-05-03T07:12:50.777Z</time></trkpt><trkpt lat="39.8683853" lon="8.831677"><ele>231.0</ele><time>2026-05-03T07:12:51.778Z</time></trkpt><trkpt lat="39.868362" lon="8.831758"><ele>231.0</ele><time>2026-05-03T07:12:52.777Z</time></trkpt><trkpt lat="39.8683315" lon="8.831913"><ele>231.0</ele><time>2026-05-03T07:12:54.777Z</time></trkpt><trkpt lat="39.8683074" lon="8.8320337"><ele>231.0</ele><time>2026-05-03T07:12:56.777Z</time></trkpt><trkpt lat="39.8682345" lon="8.8320963"><ele>231.0</ele><time>2026-05-03T07:12:59.776Z</time></trkpt><trkpt lat="39.8681753" lon="8.8320638"><ele>230.33333333333334</ele><time>2026-05-03T07:13:01.778Z</time></trkpt><trkpt lat="39.8681096" lon="8.8320063"><ele>229.66666666666669</ele><time>2026-05-03T07:13:04.776Z</time></trkpt><trkpt lat="39.8681874" lon="8.8320703"><ele>229.0</ele><time>2026-05-03T07:14:41.777Z</time></trkpt><trkpt lat="39.8682522" lon="8.8321128"><ele>228.33333333333334</ele><time>2026-05-03T07:14:43.777Z</time></trkpt><trkpt lat="39.8683071" lon="8.8321724"><ele>227.66666666666669</ele><time>2026-05-03T07:14:45.778Z</time></trkpt><trkpt lat="39.8683529" lon="8.8322344"><ele>227.0</ele><time>2026-05-03T07:14:47.777Z</time></trkpt><trkpt lat="39.8684269" lon="8.8322986"><ele>227.50000000000003</ele><time>2026-05-03T07:14:50.776Z</time></trkpt><trkpt lat="39.8684839" lon="8.8323381"><ele>228.0</ele><time>2026-05-03T07:14:53.778Z</time></trkpt><trkpt lat="39.8685841" lon="8.8323856"><ele>228.5</ele><time>2026-05-03T07:14:56.777Z</time></trkpt><trkpt lat="39.8686747" lon="8.832426"><ele>229.0</ele><time>2026-05-03T07:14:58.777Z</time></trkpt><trkpt lat="39.8687621" lon="8.8324683"><ele>229.50000000000003</ele><time>2026-05-03T07:15:00.777Z</time></trkpt><trkpt lat="39.8688361" lon="8.8325132"><ele>230.0</ele><time>2026-05-03T07:15:03.778Z</time></trkpt><trkpt lat="39.8689103" lon="8.8325913"><ele>227.8</ele><time>2026-05-03T07:15:07.778Z</time></trkpt><trkpt lat="39.8689816" lon="8.8326449"><ele>225.6</ele><time>2026-05-03T07:15:09.778Z</time></trkpt><trkpt lat="39.8690581" lon="8.8327112"><ele>223.39999999999998</ele><time>2026-05-03T07:15:11.777Z</time></trkpt><trkpt lat="39.8691495" lon="8.8327953"><ele>221.2</ele><time>2026-05-03T07:15:13.777Z</time></trkpt><trkpt lat="39.869235" lon="8.8328658"><ele>219.0</ele><time>2026-05-03T07:15:15.776Z</time></trkpt><trkpt lat="39.8693181" lon="8.8329238"><ele>219.0</ele><time>2026-05-03T07:15:17.778Z</time></trkpt><trkpt lat="39.8694042" lon="8.832977"><ele>219.0</ele><time>2026-05-03T07:15:19.778Z</time></trkpt><trkpt lat="39.8694643" lon="8.8330175"><ele>219.0</ele><time>2026-05-03T07:15:21.777Z</time></trkpt><trkpt lat="39.869529" lon="8.8330373"><ele>219.0</ele><time>2026-05-03T07:15:24.777Z</time></trkpt><trkpt lat="39.8696118" lon="8.8330489"><ele>219.0</ele><time>2026-05-03T07:15:28.778Z</time></trkpt><trkpt lat="39.8696833" lon="8.8330419"><ele>219.0</ele><time>2026-05-03T07:15:30.779Z</time></trkpt><trkpt lat="39.8697674" lon="8.8330452"><ele>219.0</ele><time>2026-05-03T07:15:32.778Z</time></trkpt><trkpt lat="39.8698319" lon="8.8330497"><ele>219.0</ele><time>2026-05-03T07:15:34.778Z</time></trkpt><trkpt lat="39.8699188" lon="8.8330369"><ele>219.0</ele><time>2026-05-03T07:15:42.777Z</time></trkpt><trkpt lat="39.8699973" lon="8.833019"><ele>219.0</ele><time>2026-05-03T07:15:44.776Z</time></trkpt><trkpt lat="39.8700625" lon="8.8330041"><ele>219.0</ele><time>2026-05-03T07:15:46.777Z</time></trkpt><trkpt lat="39.8701274" lon="8.8329817"><ele>219.0</ele><time>2026-05-03T07:15:48.777Z</time></trkpt><trkpt lat="39.8701773" lon="8.8329048"><ele>219.0</ele><time>2026-05-03T07:15:52.778Z</time></trkpt><trkpt lat="39.8702085" lon="8.8328329"><ele>219.0</ele><time>2026-05-03T07:16:26.777Z</time></trkpt><trkpt lat="39.870152" lon="8.8329115"><ele>219.0</ele><time>2026-05-03T07:16:41.777Z</time></trkpt><trkpt lat="39.870082" lon="8.8329806"><ele>219.0</ele><time>2026-05-03T07:16:44.777Z</time></trkpt><trkpt lat="39.8700217" lon="8.833005"><ele>219.0</ele><time>2026-05-03T07:16:46.777Z</time></trkpt><trkpt lat="39.8699211" lon="8.8330311"><ele>219.0</ele><time>2026-05-03T07:16:48.778Z</time></trkpt><trkpt lat="39.8698129" lon="8.8330595"><ele>219.0</ele><time>2026-05-03T07:16:50.777Z</time></trkpt><trkpt lat="39.8697347" lon="8.8330631"><ele>219.0</ele><time>2026-05-03T07:16:52.777Z</time></trkpt><trkpt lat="39.869669" lon="8.8330576"><ele>219.0</ele><time>2026-05-03T07:16:54.777Z</time></trkpt><trkpt lat="39.8695837" lon="8.83305"><ele>219.0</ele><time>2026-05-03T07:16:56.776Z</time></trkpt><trkpt lat="39.8695097" lon="8.8330491"><ele>219.0</ele><time>2026-05-03T07:16:58.777Z</time></trkpt><trkpt lat="39.8694447" lon="8.8330175"><ele>219.0</ele><time>2026-05-03T07:17:00.777Z</time></trkpt><trkpt lat="39.8693747" lon="8.8329729"><ele>219.0</ele><time>2026-05-03T07:17:02.778Z</time></trkpt><trkpt lat="39.8692891" lon="8.8329287"><ele>218.66666666666666</ele><time>2026-05-03T07:17:04.777Z</time></trkpt><trkpt lat="39.8692206" lon="8.832883"><ele>218.33333333333331</ele><time>2026-05-03T07:17:06.778Z</time></trkpt><trkpt lat="39.8691569" lon="8.8328197"><ele>218.0</ele><time>2026-05-03T07:17:08.776Z</time></trkpt><trkpt lat="39.8691051" lon="8.8327602"><ele>217.66666666666666</ele><time>2026-05-03T07:17:10.776Z</time></trkpt><trkpt lat="39.8690247" lon="8.8326768"><ele>217.33333333333331</ele><time>2026-05-03T07:17:12.776Z</time></trkpt><trkpt lat="39.868963" lon="8.8326322"><ele>217.0</ele><time>2026-05-03T07:17:13.776Z</time></trkpt><trkpt lat="39.8688711" lon="8.8325861"><ele>216.99999999999997</ele><time>2026-05-03T07:17:15.777Z</time></trkpt><trkpt lat="39.8687902" lon="8.8326485"><ele>217.0</ele><time>2026-05-03T07:17:18.777Z</time></trkpt><trkpt lat="39.868719" lon="8.8326846"><ele>217.0</ele><time>2026-05-03T07:17:20.776Z</time></trkpt><trkpt lat="39.8686014" lon="8.8327123"><ele>217.0</ele><time>2026-05-03T07:17:22.778Z</time></trkpt><trkpt lat="39.8685328" lon="8.8327208"><ele>216.99999999999997</ele><time>2026-05-03T07:17:23.776Z</time></trkpt><trkpt lat="39.8684547" lon="8.8327365"><ele>217.0</ele><time>2026-05-03T07:17:24.777Z</time></trkpt><trkpt lat="39.8683851" lon="8.8327532"><ele>216.16666666666666</ele><time>2026-05-03T07:17:25.777Z</time></trkpt><trkpt lat="39.8683156" lon="8.8327713"><ele>215.33333333333331</ele><time>2026-05-03T07:17:26.778Z</time></trkpt><trkpt lat="39.8682419" lon="8.8328018"><ele>214.5</ele><time>2026-05-03T07:17:27.777Z</time></trkpt><trkpt lat="39.8681704" lon="8.8328287"><ele>213.66666666666669</ele><time>2026-05-03T07:17:28.778Z</time></trkpt><trkpt lat="39.8680667" lon="8.8328567"><ele>212.83333333333334</ele><time>2026-05-03T07:17:30.778Z</time></trkpt><trkpt lat="39.868019" lon="8.8329239"><ele>212.0</ele><time>2026-05-03T07:17:32.777Z</time></trkpt><trkpt lat="39.8680491" lon="8.8330068"><ele>212.0</ele><time>2026-05-03T07:17:34.778Z</time></trkpt><trkpt lat="39.868162" lon="8.833073"><ele>212.0</ele><time>2026-05-03T07:17:36.777Z</time></trkpt><trkpt lat="39.868217" lon="8.8331206"><ele>212.0</ele><time>2026-05-03T07:17:37.778Z</time></trkpt><trkpt lat="39.8682749" lon="8.8331776"><ele>212.0</ele><time>2026-05-03T07:17:38.776Z</time></trkpt><trkpt lat="39.8683477" lon="8.8332886"><ele>212.0</ele><time>2026-05-03T07:17:40.777Z</time></trkpt><trkpt lat="39.8683942" lon="8.8334139"><ele>210.50000000000003</ele><time>2026-05-03T07:17:42.777Z</time></trkpt><trkpt lat="39.8684556" lon="8.8335624"><ele>209.0</ele><time>2026-05-03T07:17:44.777Z</time></trkpt><trkpt lat="39.8684969" lon="8.8336502"><ele>207.5</ele><time>2026-05-03T07:17:45.775Z</time></trkpt><trkpt lat="39.8685351" lon="8.8337455"><ele>206.0</ele><time>2026-05-03T07:17:46.777Z</time></trkpt><trkpt lat="39.868569" lon="8.8338362"><ele>204.50000000000003</ele><time>2026-05-03T07:17:47.775Z</time></trkpt><trkpt lat="39.8686012" lon="8.8339131"><ele>203.0</ele><time>2026-05-03T07:17:48.777Z</time></trkpt><trkpt lat="39.8686399" lon="8.8339865"><ele>203.00000000000003</ele><time>2026-05-03T07:17:49.777Z</time></trkpt><trkpt lat="39.8686919" lon="8.8340497"><ele>203.0</ele><time>2026-05-03T07:17:50.777Z</time></trkpt><trkpt lat="39.8687518" lon="8.8340922"><ele>203.0</ele><time>2026-05-03T07:17:51.777Z</time></trkpt><trkpt lat="39.8688277" lon="8.8341245"><ele>203.0</ele><time>2026-05-03T07:17:52.777Z</time></trkpt><trkpt lat="39.868903" lon="8.8341486"><ele>203.00000000000003</ele><time>2026-05-03T07:17:53.778Z</time></trkpt><trkpt lat="39.8689705" lon="8.834177"><ele>203.0</ele><time>2026-05-03T07:17:54.777Z</time></trkpt><trkpt lat="39.8690784" lon="8.8342253"><ele>203.0</ele><time>2026-05-03T07:17:56.776Z</time></trkpt><trkpt lat="39.8691817" lon="8.834265"><ele>203.0</ele><time>2026-05-03T07:17:58.777Z</time></trkpt><trkpt lat="39.8692849" lon="8.8343141"><ele>203.0</ele><time>2026-05-03T07:18:00.777Z</time></trkpt><trkpt lat="39.8693684" lon="8.8344083"><ele>203.0</ele><time>2026-05-03T07:18:02.776Z</time></trkpt><trkpt lat="39.8693813" lon="8.8345311"><ele>203.0</ele><time>2026-05-03T07:18:04.776Z</time></trkpt><trkpt lat="39.869373" lon="8.8346501"><ele>200.2</ele><time>2026-05-03T07:18:06.777Z</time></trkpt><trkpt lat="39.8694191" lon="8.8347772"><ele>197.4</ele><time>2026-05-03T07:18:08.777Z</time></trkpt><trkpt lat="39.8695071" lon="8.8348403"><ele>194.6</ele><time>2026-05-03T07:18:10.777Z</time></trkpt><trkpt lat="39.8695959" lon="8.8349058"><ele>191.79999999999998</ele><time>2026-05-03T07:18:12.776Z</time></trkpt><trkpt lat="39.8696276" lon="8.8349917"><ele>189.0</ele><time>2026-05-03T07:18:14.776Z</time></trkpt><trkpt lat="39.8695657" lon="8.835112"><ele>190.2</ele><time>2026-05-03T07:18:16.776Z</time></trkpt><trkpt lat="39.8694948" lon="8.8351908"><ele>191.39999999999998</ele><time>2026-05-03T07:18:17.778Z</time></trkpt><trkpt lat="39.8694274" lon="8.8352662"><ele>192.6</ele><time>2026-05-03T07:18:18.777Z</time></trkpt><trkpt lat="39.8693489" lon="8.8353571"><ele>193.8</ele><time>2026-05-03T07:18:19.776Z</time></trkpt><trkpt lat="39.8692722" lon="8.8354375"><ele>195.0</ele><time>2026-05-03T07:18:20.777Z</time></trkpt><trkpt lat="39.8692011" lon="8.8355255"><ele>196.0</ele><time>2026-05-03T07:18:21.778Z</time></trkpt><trkpt lat="39.869161" lon="8.835613"><ele>197.0</ele><time>2026-05-03T07:18:22.777Z</time></trkpt><trkpt lat="39.869141" lon="8.8357157"><ele>198.0</ele><time>2026-05-03T07:18:23.776Z</time></trkpt><trkpt lat="39.8691521" lon="8.8358333"><ele>199.0</ele><time>2026-05-03T07:18:24.778Z</time></trkpt><trkpt lat="39.8691906" lon="8.8359542"><ele>200.0</ele><time>2026-05-03T07:18:25.778Z</time></trkpt><trkpt lat="39.8692496" lon="8.8360786"><ele>200.8</ele><time>2026-05-03T07:18:26.776Z</time></trkpt><trkpt lat="39.8693229" lon="8.836189"><ele>201.6</ele><time>2026-05-03T07:18:27.777Z</time></trkpt><trkpt lat="39.869405" lon="8.836298"><ele>202.39999999999998</ele><time>2026-05-03T07:18:28.777Z</time></trkpt><trkpt lat="39.8694789" lon="8.8363884"><ele>203.2</ele><time>2026-05-03T07:18:29.777Z</time></trkpt><trkpt lat="39.8695495" lon="8.8364772"><ele>204.0</ele><time>2026-05-03T07:18:30.777Z</time></trkpt><trkpt lat="39.869615" lon="8.8365901"><ele>204.0</ele><time>2026-05-03T07:18:31.777Z</time></trkpt><trkpt lat="39.8696953" lon="8.8366976"><ele>204.0</ele><time>2026-05-03T07:18:32.776Z</time></trkpt><trkpt lat="39.8697713" lon="8.8368128"><ele>204.0</ele><time>2026-05-03T07:18:33.776Z</time></trkpt><trkpt lat="39.8698208" lon="8.8369424"><ele>204.0</ele><time>2026-05-03T07:18:34.778Z</time></trkpt><trkpt lat="39.8698581" lon="8.8370746"><ele>206.5</ele><time>2026-05-03T07:18:35.776Z</time></trkpt><trkpt lat="39.8698929" lon="8.8372179"><ele>209.0</ele><time>2026-05-03T07:18:36.778Z</time></trkpt><trkpt lat="39.8699217" lon="8.8373693"><ele>211.5</ele><time>2026-05-03T07:18:37.776Z</time></trkpt><trkpt lat="39.8699433" lon="8.8375292"><ele>214.0</ele><time>2026-05-03T07:18:38.776Z</time></trkpt><trkpt lat="39.8699431" lon="8.8376928"><ele>215.5</ele><time>2026-05-03T07:18:39.777Z</time></trkpt><trkpt lat="39.8699319" lon="8.8378608"><ele>217.0</ele><time>2026-05-03T07:18:40.777Z</time></trkpt><trkpt lat="39.8699092" lon="8.8380372"><ele>218.5</ele><time>2026-05-03T07:18:41.777Z</time></trkpt><trkpt lat="39.8698794" lon="8.8382207"><ele>220.0</ele><time>2026-05-03T07:18:42.778Z</time></trkpt><trkpt lat="39.8698561" lon="8.8384026"><ele>220.5</ele><time>2026-05-03T07:18:43.777Z</time></trkpt><trkpt lat="39.8698319" lon="8.8385822"><ele>221.0</ele><time>2026-05-03T07:18:44.778Z</time></trkpt><trkpt lat="39.8698104" lon="8.8387483"><ele>221.5</ele><time>2026-05-03T07:18:45.778Z</time></trkpt><trkpt lat="39.8697775" lon="8.8389035"><ele>222.0</ele><time>2026-05-03T07:18:46.776Z</time></trkpt><trkpt lat="39.8697224" lon="8.8390336"><ele>222.0</ele><time>2026-05-03T07:18:47.777Z</time></trkpt><trkpt lat="39.8696483" lon="8.8391546"><ele>222.0</ele><time>2026-05-03T07:18:48.777Z</time></trkpt><trkpt lat="39.8695515" lon="8.8392658"><ele>222.0</ele><time>2026-05-03T07:18:49.776Z</time></trkpt><trkpt lat="39.8694452" lon="8.8393811"><ele>222.0</ele><time>2026-05-03T07:18:50.776Z</time></trkpt><trkpt lat="39.8693302" lon="8.8395014"><ele>220.66666666666669</ele><time>2026-05-03T07:18:51.777Z</time></trkpt><trkpt lat="39.8692072" lon="8.8396342"><ele>219.33333333333334</ele><time>2026-05-03T07:18:52.778Z</time></trkpt><trkpt lat="39.8690921" lon="8.8397613"><ele>218.0</ele><time>2026-05-03T07:18:53.777Z</time></trkpt><trkpt lat="39.8689917" lon="8.8398876"><ele>218.0</ele><time>2026-05-03T07:18:54.778Z</time></trkpt><trkpt lat="39.8689291" lon="8.8400326"><ele>218.0</ele><time>2026-05-03T07:18:55.776Z</time></trkpt><trkpt lat="39.8688717" lon="8.8402096"><ele>218.0</ele><time>2026-05-03T07:18:56.776Z</time></trkpt><trkpt lat="39.8688168" lon="8.8403906"><ele>218.0</ele><time>2026-05-03T07:18:57.776Z</time></trkpt><trkpt lat="39.8687498" lon="8.8405419"><ele>216.2</ele><time>2026-05-03T07:18:58.778Z</time></trkpt><trkpt lat="39.8686898" lon="8.840691"><ele>214.4</ele><time>2026-05-03T07:18:59.778Z</time></trkpt><trkpt lat="39.8686658" lon="8.8407941"><ele>212.6</ele><time>2026-05-03T07:19:00.777Z</time></trkpt><trkpt lat="39.8686472" lon="8.8409067"><ele>210.79999999999998</ele><time>2026-05-03T07:19:01.777Z</time></trkpt><trkpt lat="39.8686991" lon="8.8410155"><ele>209.0</ele><time>2026-05-03T07:19:02.776Z</time></trkpt><trkpt lat="39.8687597" lon="8.8411345"><ele>208.39999999999998</ele><time>2026-05-03T07:19:03.777Z</time></trkpt><trkpt lat="39.8688279" lon="8.8412717"><ele>207.8</ele><time>2026-05-03T07:19:04.777Z</time></trkpt><trkpt lat="39.8688863" lon="8.8413977"><ele>207.2</ele><time>2026-05-03T07:19:05.776Z</time></trkpt><trkpt lat="39.8689252" lon="8.841524"><ele>206.60000000000002</ele><time>2026-05-03T07:19:06.777Z</time></trkpt><trkpt lat="39.8689391" lon="8.8416451"><ele>206.0</ele><time>2026-05-03T07:19:07.778Z</time></trkpt><trkpt lat="39.8689238" lon="8.841773"><ele>204.0</ele><time>2026-05-03T07:19:08.775Z</time></trkpt><trkpt lat="39.8688834" lon="8.841898"><ele>202.0</ele><time>2026-05-03T07:19:09.777Z</time></trkpt><trkpt lat="39.8688134" lon="8.8420406"><ele>200.0</ele><time>2026-05-03T07:19:10.777Z</time></trkpt><trkpt lat="39.8687292" lon="8.8422099"><ele>198.0</ele><time>2026-05-03T07:19:11.778Z</time></trkpt><trkpt lat="39.8686567" lon="8.8423787"><ele>198.0</ele><time>2026-05-03T07:19:12.776Z</time></trkpt><trkpt lat="39.8686001" lon="8.8425446"><ele>198.0</ele><time>2026-05-03T07:19:13.776Z</time></trkpt><trkpt lat="39.8685613" lon="8.8427157"><ele>198.0</ele><time>2026-05-03T07:19:14.777Z</time></trkpt><trkpt lat="39.8685403" lon="8.8428854"><ele>198.0</ele><time>2026-05-03T07:19:15.777Z</time></trkpt><trkpt lat="39.868526" lon="8.8430424"><ele>199.0</ele><time>2026-05-03T07:19:16.777Z</time></trkpt><trkpt lat="39.8684985" lon="8.8431802"><ele>200.0</ele><time>2026-05-03T07:19:17.776Z</time></trkpt><trkpt lat="39.8684474" lon="8.8433288"><ele>201.0</ele><time>2026-05-03T07:19:18.777Z</time></trkpt><trkpt lat="39.8683741" lon="8.8434883"><ele>202.0</ele><time>2026-05-03T07:19:19.778Z</time></trkpt><trkpt lat="39.868291" lon="8.8436559"><ele>203.0</ele><time>2026-05-03T07:19:20.778Z</time></trkpt><trkpt lat="39.8681993" lon="8.8438351"><ele>204.0</ele><time>2026-05-03T07:19:21.778Z</time></trkpt><trkpt lat="39.8681156" lon="8.8440235"><ele>205.0</ele><time>2026-05-03T07:19:22.776Z</time></trkpt><trkpt lat="39.8680247" lon="8.8442125"><ele>207.33333333333331</ele><time>2026-05-03T07:19:23.777Z</time></trkpt><trkpt lat="39.8679421" lon="8.8444106"><ele>209.66666666666669</ele><time>2026-05-03T07:19:24.776Z</time></trkpt><trkpt lat="39.8678638" lon="8.8446018"><ele>212.0</ele><time>2026-05-03T07:19:25.777Z</time></trkpt><trkpt lat="39.8677963" lon="8.8447792"><ele>212.0</ele><time>2026-05-03T07:19:26.778Z</time></trkpt><trkpt lat="39.8677524" lon="8.8449452"><ele>212.0</ele><time>2026-05-03T07:19:27.778Z</time></trkpt><trkpt lat="39.8677337" lon="8.8451002"><ele>212.0</ele><time>2026-05-03T07:19:28.775Z</time></trkpt><trkpt lat="39.8677332" lon="8.8452664"><ele>212.0</ele><time>2026-05-03T07:19:29.777Z</time></trkpt><trkpt lat="39.8677456" lon="8.8454461"><ele>213.66666666666669</ele><time>2026-05-03T07:19:30.776Z</time></trkpt><trkpt lat="39.8677615" lon="8.8456348"><ele>215.33333333333331</ele><time>2026-05-03T07:19:31.777Z</time></trkpt><trkpt lat="39.8677799" lon="8.8458407"><ele>217.0</ele><time>2026-05-03T07:19:32.776Z</time></trkpt><trkpt lat="39.8677936" lon="8.8460624"><ele>217.66666666666666</ele><time>2026-05-03T07:19:33.778Z</time></trkpt><trkpt lat="39.8678065" lon="8.8462875"><ele>218.33333333333331</ele><time>2026-05-03T07:19:34.777Z</time></trkpt><trkpt lat="39.867822" lon="8.8465229"><ele>219.0</ele><time>2026-05-03T07:19:35.778Z</time></trkpt><trkpt lat="39.8678442" lon="8.8467587"><ele>219.5</ele><time>2026-05-03T07:19:36.782Z</time></trkpt><trkpt lat="39.8678602" lon="8.8469689"><ele>220.0</ele><time>2026-05-03T07:19:37.777Z</time></trkpt><trkpt lat="39.8678699" lon="8.8471484"><ele>220.5</ele><time>2026-05-03T07:19:38.777Z</time></trkpt><trkpt lat="39.8678601" lon="8.8473156"><ele>221.0</ele><time>2026-05-03T07:19:39.777Z</time></trkpt><trkpt lat="39.8678306" lon="8.8474976"><ele>223.66666666666669</ele><time>2026-05-03T07:19:40.776Z</time></trkpt><trkpt lat="39.8677925" lon="8.8476853"><ele>226.33333333333331</ele><time>2026-05-03T07:19:41.78Z</time></trkpt><trkpt lat="39.8677499" lon="8.8478922"><ele>229.0</ele><time>2026-05-03T07:19:42.778Z</time></trkpt><trkpt lat="39.8677146" lon="8.8481093"><ele>229.0</ele><time>2026-05-03T07:19:43.776Z</time></trkpt><trkpt lat="39.8676945" lon="8.8483316"><ele>229.0</ele><time>2026-05-03T07:19:44.776Z</time></trkpt><trkpt lat="39.8676754" lon="8.8485415"><ele>229.0</ele><time>2026-05-03T07:19:45.778Z</time></trkpt><trkpt lat="39.867655" lon="8.8487388"><ele>228.5</ele><time>2026-05-03T07:19:46.776Z</time></trkpt><trkpt lat="39.8676211" lon="8.8489269"><ele>228.0</ele><time>2026-05-03T07:19:47.776Z</time></trkpt><trkpt lat="39.867584" lon="8.8491069"><ele>227.5</ele><time>2026-05-03T07:19:48.776Z</time></trkpt><trkpt lat="39.8675447" lon="8.8492804"><ele>227.0</ele><time>2026-05-03T07:19:49.778Z</time></trkpt><trkpt lat="39.8675039" lon="8.8494352"><ele>227.0</ele><time>2026-05-03T07:19:50.778Z</time></trkpt><trkpt lat="39.8674677" lon="8.8495766"><ele>227.0</ele><time>2026-05-03T07:19:51.776Z</time></trkpt><trkpt lat="39.867437" lon="8.8496995"><ele>227.0</ele><time>2026-05-03T07:19:52.778Z</time></trkpt><trkpt lat="39.8674013" lon="8.8498304"><ele>227.0</ele><time>2026-05-03T07:19:53.776Z</time></trkpt><trkpt lat="39.8673686" lon="8.8499727"><ele>227.0</ele><time>2026-05-03T07:19:54.778Z</time></trkpt><trkpt lat="39.8673229" lon="8.8501296"><ele>229.0</ele><time>2026-05-03T07:19:55.776Z</time></trkpt><trkpt lat="39.8672682" lon="8.8502834"><ele>231.0</ele><time>2026-05-03T07:19:56.777Z</time></trkpt><trkpt lat="39.8671886" lon="8.8504342"><ele>233.0</ele><time>2026-05-03T07:19:57.776Z</time></trkpt><trkpt lat="39.8671023" lon="8.8505758"><ele>235.0</ele><time>2026-05-03T07:19:58.777Z</time></trkpt><trkpt lat="39.8670077" lon="8.8507251"><ele>235.0</ele><time>2026-05-03T07:19:59.778Z</time></trkpt><trkpt lat="39.866923" lon="8.8508865"><ele>235.0</ele><time>2026-05-03T07:20:00.776Z</time></trkpt><trkpt lat="39.8668472" lon="8.8510635"><ele>235.0</ele><time>2026-05-03T07:20:01.778Z</time></trkpt><trkpt lat="39.8667793" lon="8.8512464"><ele>235.25</ele><time>2026-05-03T07:20:02.778Z</time></trkpt><trkpt lat="39.8667285" lon="8.8514286"><ele>235.5</ele><time>2026-05-03T07:20:03.776Z</time></trkpt><trkpt lat="39.8666839" lon="8.8516161"><ele>235.75</ele><time>2026-05-03T07:20:04.776Z</time></trkpt><trkpt lat="39.8666486" lon="8.8518003"><ele>236.0</ele><time>2026-05-03T07:20:05.778Z</time></trkpt><trkpt lat="39.8666129" lon="8.8519894"><ele>237.5</ele><time>2026-05-03T07:20:06.777Z</time></trkpt><trkpt lat="39.8665633" lon="8.8521665"><ele>239.0</ele><time>2026-05-03T07:20:07.776Z</time></trkpt><trkpt lat="39.8665039" lon="8.8523365"><ele>240.5</ele><time>2026-05-03T07:20:08.778Z</time></trkpt><trkpt lat="39.8664343" lon="8.8525084"><ele>242.0</ele><time>2026-05-03T07:20:09.777Z</time></trkpt><trkpt lat="39.8663526" lon="8.8526772"><ele>243.75</ele><time>2026-05-03T07:20:10.776Z</time></trkpt><trkpt lat="39.8662665" lon="8.8528289"><ele>245.5</ele><time>2026-05-03T07:20:11.776Z</time></trkpt><trkpt lat="39.8661651" lon="8.8529558"><ele>247.25</ele><time>2026-05-03T07:20:12.776Z</time></trkpt><trkpt lat="39.8660402" lon="8.8530704"><ele>249.0</ele><time>2026-05-03T07:20:13.778Z</time></trkpt><trkpt lat="39.865913" lon="8.853184"><ele>249.0</ele><time>2026-05-03T07:20:14.777Z</time></trkpt><trkpt lat="39.8657819" lon="8.8532966"><ele>249.0</ele><time>2026-05-03T07:20:15.777Z</time></trkpt><trkpt lat="39.865647" lon="8.8534151"><ele>249.0</ele><time>2026-05-03T07:20:16.777Z</time></trkpt><trkpt lat="39.8655168" lon="8.8535245"><ele>254.66666666666669</ele><time>2026-05-03T07:20:17.776Z</time></trkpt><trkpt lat="39.8653911" lon="8.8536371"><ele>260.33333333333337</ele><time>2026-05-03T07:20:18.778Z</time></trkpt><trkpt lat="39.8652636" lon="8.8537451"><ele>266.0</ele><time>2026-05-03T07:20:19.777Z</time></trkpt><trkpt lat="39.865144" lon="8.8538534"><ele>261.0</ele><time>2026-05-03T07:20:20.776Z</time></trkpt><trkpt lat="39.8650304" lon="8.8539756"><ele>256.0</ele><time>2026-05-03T07:20:21.778Z</time></trkpt><trkpt lat="39.8649189" lon="8.854114"><ele>251.0</ele><time>2026-05-03T07:20:22.778Z</time></trkpt><trkpt lat="39.8648141" lon="8.8542651"><ele>252.66666666666669</ele><time>2026-05-03T07:20:23.778Z</time></trkpt><trkpt lat="39.8647112" lon="8.85443"><ele>254.33333333333331</ele><time>2026-05-03T07:20:24.776Z</time></trkpt><trkpt lat="39.864605" lon="8.8545966"><ele>256.0</ele><time>2026-05-03T07:20:25.777Z</time></trkpt><trkpt lat="39.8645057" lon="8.8547655"><ele>256.0</ele><time>2026-05-03T07:20:26.775Z</time></trkpt><trkpt lat="39.8644268" lon="8.854942"><ele>256.0</ele><time>2026-05-03T07:20:27.776Z</time></trkpt><trkpt lat="39.8643522" lon="8.8551234"><ele>256.0</ele><time>2026-05-03T07:20:28.776Z</time></trkpt><trkpt lat="39.8642732" lon="8.855307"><ele>257.3333333333333</ele><time>2026-05-03T07:20:29.778Z</time></trkpt><trkpt lat="39.8641957" lon="8.8554908"><ele>258.6666666666667</ele><time>2026-05-03T07:20:30.777Z</time></trkpt><trkpt lat="39.8641173" lon="8.8556763"><ele>260.0</ele><time>2026-05-03T07:20:31.778Z</time></trkpt><trkpt lat="39.8640425" lon="8.8558424"><ele>261.25</ele><time>2026-05-03T07:20:32.777Z</time></trkpt><trkpt lat="39.8639625" lon="8.8559811"><ele>262.5</ele><time>2026-05-03T07:20:33.778Z</time></trkpt><trkpt lat="39.8638729" lon="8.856105"><ele>263.75</ele><time>2026-05-03T07:20:34.777Z</time></trkpt><trkpt lat="39.863769" lon="8.8562085"><ele>265.0</ele><time>2026-05-03T07:20:35.778Z</time></trkpt><trkpt lat="39.8636807" lon="8.856298"><ele>265.0</ele><time>2026-05-03T07:20:36.776Z</time></trkpt><trkpt lat="39.8636303" lon="8.8564013"><ele>265.0</ele><time>2026-05-03T07:20:37.777Z</time></trkpt><trkpt lat="39.863603" lon="8.8565278"><ele>265.0</ele><time>2026-05-03T07:20:38.777Z</time></trkpt><trkpt lat="39.8635886" lon="8.8566695"><ele>265.0</ele><time>2026-05-03T07:20:39.778Z</time></trkpt><trkpt lat="39.8635842" lon="8.8568273"><ele>265.0</ele><time>2026-05-03T07:20:40.777Z</time></trkpt><trkpt lat="39.8635757" lon="8.8569886"><ele>265.6</ele><time>2026-05-03T07:20:41.775Z</time></trkpt><trkpt lat="39.8635532" lon="8.8571448"><ele>266.2</ele><time>2026-05-03T07:20:42.778Z</time></trkpt><trkpt lat="39.8635258" lon="8.8572794"><ele>266.8</ele><time>2026-05-03T07:20:43.777Z</time></trkpt><trkpt lat="39.8634973" lon="8.857377"><ele>267.4</ele><time>2026-05-03T07:20:44.777Z</time></trkpt><trkpt lat="39.8634276" lon="8.8574199"><ele>268.0</ele><time>2026-05-03T07:20:46.776Z</time></trkpt><trkpt lat="39.8633763" lon="8.8573006"><ele>268.0</ele><time>2026-05-03T07:20:48.775Z</time></trkpt><trkpt lat="39.863358" lon="8.8571798"><ele>268.0</ele><time>2026-05-03T07:20:49.776Z</time></trkpt><trkpt lat="39.8633334" lon="8.8570428"><ele>268.0</ele><time>2026-05-03T07:20:50.777Z</time></trkpt><trkpt lat="39.8632978" lon="8.8568863"><ele>268.0</ele><time>2026-05-03T07:20:51.776Z</time></trkpt><trkpt lat="39.8632528" lon="8.8567274"><ele>267.2</ele><time>2026-05-03T07:20:52.776Z</time></trkpt><trkpt lat="39.8632228" lon="8.8565903"><ele>266.4</ele><time>2026-05-03T07:20:53.776Z</time></trkpt><trkpt lat="39.8632279" lon="8.8564651"><ele>265.59999999999997</ele><time>2026-05-03T07:20:54.777Z</time></trkpt><trkpt lat="39.8632718" lon="8.8563387"><ele>264.8</ele><time>2026-05-03T07:20:55.778Z</time></trkpt><trkpt lat="39.8633349" lon="8.8562022"><ele>264.0</ele><time>2026-05-03T07:20:56.778Z</time></trkpt><trkpt lat="39.8634049" lon="8.8560463"><ele>263.0</ele><time>2026-05-03T07:20:57.778Z</time></trkpt><trkpt lat="39.8634877" lon="8.8558846"><ele>262.0</ele><time>2026-05-03T07:20:58.776Z</time></trkpt><trkpt lat="39.8635633" lon="8.8557311"><ele>261.0</ele><time>2026-05-03T07:20:59.775Z</time></trkpt><trkpt lat="39.8636257" lon="8.8556023"><ele>260.0</ele><time>2026-05-03T07:21:00.777Z</time></trkpt><trkpt lat="39.8636451" lon="8.8554468"><ele>260.0</ele><time>2026-05-03T07:21:01.778Z</time></trkpt><trkpt lat="39.8636511" lon="8.8552805"><ele>260.0</ele><time>2026-05-03T07:21:02.777Z</time></trkpt><trkpt lat="39.8636179" lon="8.8551039"><ele>260.0</ele><time>2026-05-03T07:21:03.777Z</time></trkpt><trkpt lat="39.8635659" lon="8.8549312"><ele>260.0</ele><time>2026-05-03T07:21:04.777Z</time></trkpt><trkpt lat="39.8634895" lon="8.8547821"><ele>263.5</ele><time>2026-05-03T07:21:05.777Z</time></trkpt><trkpt lat="39.8633875" lon="8.8546585"><ele>267.0</ele><time>2026-05-03T07:21:06.778Z</time></trkpt><trkpt lat="39.8632611" lon="8.8545705"><ele>270.5</ele><time>2026-05-03T07:21:07.776Z</time></trkpt><trkpt lat="39.8631128" lon="8.8545038"><ele>274.0</ele><time>2026-05-03T07:21:08.775Z</time></trkpt><trkpt lat="39.8629603" lon="8.8544395"><ele>274.0</ele><time>2026-05-03T07:21:09.777Z</time></trkpt><trkpt lat="39.8628053" lon="8.8543612"><ele>274.0</ele><time>2026-05-03T07:21:10.778Z</time></trkpt><trkpt lat="39.8626501" lon="8.854259"><ele>274.0</ele><time>2026-05-03T07:21:11.775Z</time></trkpt><trkpt lat="39.8624896" lon="8.8541391"><ele>275.3333333333333</ele><time>2026-05-03T07:21:12.778Z</time></trkpt><trkpt lat="39.8623229" lon="8.8540294"><ele>276.6666666666667</ele><time>2026-05-03T07:21:13.777Z</time></trkpt><trkpt lat="39.8621505" lon="8.8539407"><ele>278.0</ele><time>2026-05-03T07:21:14.776Z</time></trkpt><trkpt lat="39.8619675" lon="8.8538696"><ele>280.6666666666667</ele><time>2026-05-03T07:21:15.775Z</time></trkpt><trkpt lat="39.8617809" lon="8.8538067"><ele>283.3333333333333</ele><time>2026-05-03T07:21:16.777Z</time></trkpt><trkpt lat="39.8615975" lon="8.853733"><ele>286.0</ele><time>2026-05-03T07:21:17.777Z</time></trkpt><trkpt lat="39.8614241" lon="8.8536481"><ele>286.0</ele><time>2026-05-03T07:21:18.778Z</time></trkpt><trkpt lat="39.8612473" lon="8.8535525"><ele>286.0</ele><time>2026-05-03T07:21:19.776Z</time></trkpt><trkpt lat="39.8610663" lon="8.8534457"><ele>286.0</ele><time>2026-05-03T07:21:20.777Z</time></trkpt><trkpt lat="39.8608848" lon="8.8533344"><ele>285.3333333333333</ele><time>2026-05-03T07:21:21.777Z</time></trkpt><trkpt lat="39.8607041" lon="8.8532202"><ele>284.6666666666667</ele><time>2026-05-03T07:21:22.777Z</time></trkpt><trkpt lat="39.8605262" lon="8.8531041"><ele>284.0</ele><time>2026-05-03T07:21:23.775Z</time></trkpt><trkpt lat="39.8603487" lon="8.852991"><ele>284.0</ele><time>2026-05-03T07:21:24.775Z</time></trkpt><trkpt lat="39.8601713" lon="8.8528782"><ele>284.0</ele><time>2026-05-03T07:21:25.777Z</time></trkpt><trkpt lat="39.8599974" lon="8.8527762"><ele>284.0</ele><time>2026-05-03T07:21:26.776Z</time></trkpt><trkpt lat="39.8598255" lon="8.852683"><ele>284.33333333333337</ele><time>2026-05-03T07:21:27.776Z</time></trkpt><trkpt lat="39.8596498" lon="8.8526143"><ele>284.6666666666667</ele><time>2026-05-03T07:21:28.775Z</time></trkpt><trkpt lat="39.8594741" lon="8.852577"><ele>285.0</ele><time>2026-05-03T07:21:29.778Z</time></trkpt><trkpt lat="39.8592942" lon="8.8525652"><ele>284.0</ele><time>2026-05-03T07:21:30.777Z</time></trkpt><trkpt lat="39.8591074" lon="8.8525626"><ele>283.0</ele><time>2026-05-03T07:21:31.778Z</time></trkpt><trkpt lat="39.8589225" lon="8.852558"><ele>282.0</ele><time>2026-05-03T07:21:32.777Z</time></trkpt><trkpt lat="39.858748" lon="8.8525462"><ele>282.0</ele><time>2026-05-03T07:21:33.777Z</time></trkpt><trkpt lat="39.8585825" lon="8.8525322"><ele>282.0</ele><time>2026-05-03T07:21:34.776Z</time></trkpt><trkpt lat="39.858421" lon="8.8525097"><ele>282.0</ele><time>2026-05-03T07:21:35.776Z</time></trkpt><trkpt lat="39.8582573" lon="8.8524859"><ele>280.6666666666667</ele><time>2026-05-03T07:21:36.776Z</time></trkpt><trkpt lat="39.8580982" lon="8.8524372"><ele>279.33333333333337</ele><time>2026-05-03T07:21:37.776Z</time></trkpt><trkpt lat="39.8579508" lon="8.8523897"><ele>278.0</ele><time>2026-05-03T07:21:38.778Z</time></trkpt><trkpt lat="39.8578184" lon="8.8523412"><ele>278.0</ele><time>2026-05-03T07:21:39.777Z</time></trkpt><trkpt lat="39.8576925" lon="8.8522884"><ele>278.0</ele><time>2026-05-03T07:21:40.778Z</time></trkpt><trkpt lat="39.8575936" lon="8.8522078"><ele>278.0</ele><time>2026-05-03T07:21:41.777Z</time></trkpt><trkpt lat="39.8575189" lon="8.8520884"><ele>278.0</ele><time>2026-05-03T07:21:42.777Z</time></trkpt><trkpt lat="39.8574632" lon="8.8519539"><ele>279.0</ele><time>2026-05-03T07:21:43.776Z</time></trkpt><trkpt lat="39.8574327" lon="8.8518005"><ele>280.0</ele><time>2026-05-03T07:21:44.777Z</time></trkpt><trkpt lat="39.8574317" lon="8.8516412"><ele>281.0</ele><time>2026-05-03T07:21:45.777Z</time></trkpt><trkpt lat="39.8574464" lon="8.8514803"><ele>282.0</ele><time>2026-05-03T07:21:46.778Z</time></trkpt><trkpt lat="39.8574489" lon="8.8513129"><ele>277.6666666666667</ele><time>2026-05-03T07:21:47.776Z</time></trkpt><trkpt lat="39.8574313" lon="8.8511275"><ele>273.33333333333337</ele><time>2026-05-03T07:21:48.776Z</time></trkpt><trkpt lat="39.8573943" lon="8.8509169"><ele>269.0</ele><time>2026-05-03T07:21:49.778Z</time></trkpt><trkpt lat="39.8573462" lon="8.8506893"><ele>267.0</ele><time>2026-05-03T07:21:50.778Z</time></trkpt><trkpt lat="39.8573016" lon="8.8504518"><ele>265.0</ele><time>2026-05-03T07:21:51.778Z</time></trkpt><trkpt lat="39.8572579" lon="8.850204"><ele>263.0</ele><time>2026-05-03T07:21:52.777Z</time></trkpt><trkpt lat="39.8572141" lon="8.8499533"><ele>260.33333333333337</ele><time>2026-05-03T07:21:53.777Z</time></trkpt><trkpt lat="39.8571728" lon="8.8497104"><ele>257.6666666666667</ele><time>2026-05-03T07:21:54.777Z</time></trkpt><trkpt lat="39.8571289" lon="8.8494832"><ele>255.0</ele><time>2026-05-03T07:21:55.777Z</time></trkpt><trkpt lat="39.8570729" lon="8.8492749"><ele>256.0</ele><time>2026-05-03T07:21:56.778Z</time></trkpt><trkpt lat="39.8569931" lon="8.8490922"><ele>257.0</ele><time>2026-05-03T07:21:57.778Z</time></trkpt><trkpt lat="39.8568823" lon="8.8489363"><ele>258.0</ele><time>2026-05-03T07:21:58.776Z</time></trkpt><trkpt lat="39.8567579" lon="8.848817"><ele>258.0</ele><time>2026-05-03T07:21:59.778Z</time></trkpt><trkpt lat="39.8566188" lon="8.8487357"><ele>258.0</ele><time>2026-05-03T07:22:00.777Z</time></trkpt><trkpt lat="39.8564687" lon="8.8486958"><ele>258.0</ele><time>2026-05-03T07:22:01.778Z</time></trkpt><trkpt lat="39.8563101" lon="8.8486885"><ele>258.0</ele><time>2026-05-03T07:22:02.778Z</time></trkpt><trkpt lat="39.8561473" lon="8.8487084"><ele>258.0</ele><time>2026-05-03T07:22:03.776Z</time></trkpt><trkpt lat="39.8559788" lon="8.8487376"><ele>258.0</ele><time>2026-05-03T07:22:04.777Z</time></trkpt><trkpt lat="39.8558068" lon="8.8487655"><ele>260.0</ele><time>2026-05-03T07:22:05.777Z</time></trkpt><trkpt lat="39.8556329" lon="8.8487938"><ele>262.0</ele><time>2026-05-03T07:22:06.777Z</time></trkpt><trkpt lat="39.8554546" lon="8.8488144"><ele>264.0</ele><time>2026-05-03T07:22:07.777Z</time></trkpt><trkpt lat="39.855276" lon="8.8488354"><ele>262.6666666666667</ele><time>2026-05-03T07:22:08.777Z</time></trkpt><trkpt lat="39.8550927" lon="8.8488523"><ele>261.33333333333337</ele><time>2026-05-03T07:22:09.777Z</time></trkpt><trkpt lat="39.8549121" lon="8.8488733"><ele>260.0</ele><time>2026-05-03T07:22:10.778Z</time></trkpt><trkpt lat="39.854737" lon="8.8489068"><ele>260.0</ele><time>2026-05-03T07:22:11.778Z</time></trkpt><trkpt lat="39.8545741" lon="8.8489714"><ele>260.0</ele><time>2026-05-03T07:22:12.777Z</time></trkpt><trkpt lat="39.8544326" lon="8.8490709"><ele>260.0</ele><time>2026-05-03T07:22:13.777Z</time></trkpt><trkpt lat="39.8543104" lon="8.8491802"><ele>261.5</ele><time>2026-05-03T07:22:14.777Z</time></trkpt><trkpt lat="39.8542013" lon="8.8492615"><ele>263.0</ele><time>2026-05-03T07:22:15.778Z</time></trkpt><trkpt lat="39.8540876" lon="8.8493046"><ele>264.5</ele><time>2026-05-03T07:22:16.778Z</time></trkpt><trkpt lat="39.8539691" lon="8.8493056"><ele>266.0</ele><time>2026-05-03T07:22:17.777Z</time></trkpt><trkpt lat="39.8538635" lon="8.8492645"><ele>263.40000000000003</ele><time>2026-05-03T07:22:18.776Z</time></trkpt><trkpt lat="39.853769" lon="8.8491918"><ele>260.8</ele><time>2026-05-03T07:22:19.777Z</time></trkpt><trkpt lat="39.8537432" lon="8.8490618"><ele>258.20000000000005</ele><time>2026-05-03T07:22:20.778Z</time></trkpt><trkpt lat="39.8537327" lon="8.8489293"><ele>255.60000000000002</ele><time>2026-05-03T07:22:21.777Z</time></trkpt><trkpt lat="39.8537648" lon="8.8487862"><ele>253.0</ele><time>2026-05-03T07:22:22.777Z</time></trkpt><trkpt lat="39.8538075" lon="8.8486718"><ele>253.0</ele><time>2026-05-03T07:22:23.778Z</time></trkpt><trkpt lat="39.8538709" lon="8.8485824"><ele>253.0</ele><time>2026-05-03T07:22:24.776Z</time></trkpt><trkpt lat="39.853952" lon="8.8485195"><ele>253.0</ele><time>2026-05-03T07:22:25.775Z</time></trkpt><trkpt lat="39.8540563" lon="8.8484763"><ele>253.0</ele><time>2026-05-03T07:22:26.775Z</time></trkpt><trkpt lat="39.8541901" lon="8.8484567"><ele>253.0</ele><time>2026-05-03T07:22:27.775Z</time></trkpt><trkpt lat="39.85434" lon="8.8484627"><ele>255.33333333333331</ele><time>2026-05-03T07:22:28.778Z</time></trkpt><trkpt lat="39.854495" lon="8.8484734"><ele>257.6666666666667</ele><time>2026-05-03T07:22:29.776Z</time></trkpt><trkpt lat="39.8546624" lon="8.8484748"><ele>260.0</ele><time>2026-05-03T07:22:30.778Z</time></trkpt><trkpt lat="39.854829" lon="8.8484553"><ele>254.33333333333334</ele><time>2026-05-03T07:22:31.778Z</time></trkpt><trkpt lat="39.8550041" lon="8.8484046"><ele>248.66666666666669</ele><time>2026-05-03T07:22:32.776Z</time></trkpt><trkpt lat="39.8551792" lon="8.8483349"><ele>243.0</ele><time>2026-05-03T07:22:33.776Z</time></trkpt><trkpt lat="39.8553529" lon="8.8482551"><ele>243.0</ele><time>2026-05-03T07:22:34.777Z</time></trkpt><trkpt lat="39.8555297" lon="8.8481762"><ele>243.0</ele><time>2026-05-03T07:22:35.777Z</time></trkpt><trkpt lat="39.85571" lon="8.8480984"><ele>243.0</ele><time>2026-05-03T07:22:36.777Z</time></trkpt><trkpt lat="39.8558959" lon="8.8480158"><ele>243.0</ele><time>2026-05-03T07:22:37.776Z</time></trkpt><trkpt lat="39.8560834" lon="8.8479359"><ele>243.0</ele><time>2026-05-03T07:22:38.776Z</time></trkpt><trkpt lat="39.8562659" lon="8.8478542"><ele>243.0</ele><time>2026-05-03T07:22:39.778Z</time></trkpt><trkpt lat="39.8564383" lon="8.8477784"><ele>243.0</ele><time>2026-05-03T07:22:40.776Z</time></trkpt><trkpt lat="39.8566075" lon="8.8477054"><ele>243.0</ele><time>2026-05-03T07:22:41.777Z</time></trkpt><trkpt lat="39.8567701" lon="8.8476337"><ele>243.0</ele><time>2026-05-03T07:22:42.777Z</time></trkpt><trkpt lat="39.856926" lon="8.8475491"><ele>242.33333333333331</ele><time>2026-05-03T07:22:43.778Z</time></trkpt><trkpt lat="39.8570571" lon="8.8474378"><ele>241.66666666666666</ele><time>2026-05-03T07:22:44.778Z</time></trkpt><trkpt lat="39.8571669" lon="8.8472892"><ele>241.0</ele><time>2026-05-03T07:22:45.778Z</time></trkpt><trkpt lat="39.8572434" lon="8.8471076"><ele>241.0</ele><time>2026-05-03T07:22:46.777Z</time></trkpt><trkpt lat="39.8572927" lon="8.8469007"><ele>241.0</ele><time>2026-05-03T07:22:47.777Z</time></trkpt><trkpt lat="39.8573188" lon="8.8466785"><ele>241.0</ele><time>2026-05-03T07:22:48.777Z</time></trkpt><trkpt lat="39.8573434" lon="8.8464556"><ele>242.0</ele><time>2026-05-03T07:22:49.776Z</time></trkpt><trkpt lat="39.857397" lon="8.8462343"><ele>243.0</ele><time>2026-05-03T07:22:50.776Z</time></trkpt><trkpt lat="39.8574843" lon="8.8460281"><ele>244.0</ele><time>2026-05-03T07:22:51.777Z</time></trkpt><trkpt lat="39.8575764" lon="8.84582"><ele>250.33333333333331</ele><time>2026-05-03T07:22:52.776Z</time></trkpt><trkpt lat="39.8576533" lon="8.845599"><ele>256.6666666666667</ele><time>2026-05-03T07:22:53.778Z</time></trkpt><trkpt lat="39.8577087" lon="8.845365"><ele>263.0</ele><time>2026-05-03T07:22:54.778Z</time></trkpt><trkpt lat="39.8577457" lon="8.8451185"><ele>263.0</ele><time>2026-05-03T07:22:55.777Z</time></trkpt><trkpt lat="39.8577728" lon="8.8448651"><ele>263.0</ele><time>2026-05-03T07:22:56.778Z</time></trkpt><trkpt lat="39.8577985" lon="8.8446103"><ele>263.0</ele><time>2026-05-03T07:22:57.777Z</time></trkpt><trkpt lat="39.8578324" lon="8.8443573"><ele>261.6666666666667</ele><time>2026-05-03T07:22:58.778Z</time></trkpt><trkpt lat="39.8578911" lon="8.8441169"><ele>260.3333333333333</ele><time>2026-05-03T07:22:59.778Z</time></trkpt><trkpt lat="39.8579397" lon="8.8438834"><ele>259.0</ele><time>2026-05-03T07:23:00.778Z</time></trkpt><trkpt lat="39.8579782" lon="8.8436648"><ele>259.0</ele><time>2026-05-03T07:23:01.776Z</time></trkpt><trkpt lat="39.8579849" lon="8.8434556"><ele>259.0</ele><time>2026-05-03T07:23:02.777Z</time></trkpt><trkpt lat="39.8579577" lon="8.843251"><ele>259.0</ele><time>2026-05-03T07:23:03.776Z</time></trkpt><trkpt lat="39.8578923" lon="8.843057"><ele>259.0</ele><time>2026-05-03T07:23:04.777Z</time></trkpt><trkpt lat="39.8578019" lon="8.8428674"><ele>259.0</ele><time>2026-05-03T07:23:05.776Z</time></trkpt><trkpt lat="39.8577102" lon="8.842676"><ele>259.0</ele><time>2026-05-03T07:23:06.776Z</time></trkpt><trkpt lat="39.8576119" lon="8.8424794"><ele>250.33333333333331</ele><time>2026-05-03T07:23:07.777Z</time></trkpt><trkpt lat="39.8575089" lon="8.8422813"><ele>241.66666666666669</ele><time>2026-05-03T07:23:08.777Z</time></trkpt><trkpt lat="39.8573876" lon="8.8420881"><ele>233.0</ele><time>2026-05-03T07:23:09.777Z</time></trkpt><trkpt lat="39.857262" lon="8.8419055"><ele>239.33333333333334</ele><time>2026-05-03T07:23:10.776Z</time></trkpt><trkpt lat="39.8571267" lon="8.8417266"><ele>245.66666666666669</ele><time>2026-05-03T07:23:11.778Z</time></trkpt><trkpt lat="39.8569966" lon="8.8415511"><ele>252.0</ele><time>2026-05-03T07:23:12.778Z</time></trkpt><trkpt lat="39.8568644" lon="8.8413715"><ele>247.33333333333331</ele><time>2026-05-03T07:23:13.778Z</time></trkpt><trkpt lat="39.8567352" lon="8.8411932"><ele>242.66666666666666</ele><time>2026-05-03T07:23:14.775Z</time></trkpt><trkpt lat="39.8566106" lon="8.8410252"><ele>238.0</ele><time>2026-05-03T07:23:15.777Z</time></trkpt><trkpt lat="39.856503" lon="8.8408579"><ele>238.0</ele><time>2026-05-03T07:23:16.777Z</time></trkpt><trkpt lat="39.8564171" lon="8.8406641"><ele>238.0</ele><time>2026-05-03T07:23:17.776Z</time></trkpt><trkpt lat="39.8563752" lon="8.8404582"><ele>238.0</ele><time>2026-05-03T07:23:18.778Z</time></trkpt><trkpt lat="39.8563736" lon="8.8402483"><ele>238.0</ele><time>2026-05-03T07:23:19.777Z</time></trkpt><trkpt lat="39.8564119" lon="8.8400485"><ele>238.0</ele><time>2026-05-03T07:23:20.775Z</time></trkpt><trkpt lat="39.8564769" lon="8.8398586"><ele>238.0</ele><time>2026-05-03T07:23:21.777Z</time></trkpt><trkpt lat="39.8565628" lon="8.8396749"><ele>238.0</ele><time>2026-05-03T07:23:22.777Z</time></trkpt><trkpt lat="39.8566438" lon="8.8394877"><ele>238.0</ele><time>2026-05-03T07:23:23.777Z</time></trkpt><trkpt lat="39.8567207" lon="8.8392989"><ele>238.0</ele><time>2026-05-03T07:23:24.776Z</time></trkpt><trkpt lat="39.8567826" lon="8.8391166"><ele>239.66666666666666</ele><time>2026-05-03T07:23:25.776Z</time></trkpt><trkpt lat="39.8568128" lon="8.8389201"><ele>241.33333333333331</ele><time>2026-05-03T07:23:26.778Z</time></trkpt><trkpt lat="39.8568163" lon="8.8387196"><ele>243.0</ele><time>2026-05-03T07:23:27.777Z</time></trkpt><trkpt lat="39.8567929" lon="8.8385118"><ele>237.33333333333331</ele><time>2026-05-03T07:23:28.777Z</time></trkpt><trkpt lat="39.8567504" lon="8.8382907"><ele>231.66666666666666</ele><time>2026-05-03T07:23:29.778Z</time></trkpt><trkpt lat="39.8566981" lon="8.8380675"><ele>226.0</ele><time>2026-05-03T07:23:30.777Z</time></trkpt><trkpt lat="39.8566458" lon="8.8378305"><ele>226.0</ele><time>2026-05-03T07:23:31.776Z</time></trkpt><trkpt lat="39.856593" lon="8.8375861"><ele>226.0</ele><time>2026-05-03T07:23:32.778Z</time></trkpt><trkpt lat="39.8565414" lon="8.8373388"><ele>226.0</ele><time>2026-05-03T07:23:33.777Z</time></trkpt><trkpt lat="39.8564862" lon="8.8370916"><ele>226.0</ele><time>2026-05-03T07:23:34.777Z</time></trkpt><trkpt lat="39.8564312" lon="8.8368449"><ele>226.0</ele><time>2026-05-03T07:23:35.776Z</time></trkpt><trkpt lat="39.8563715" lon="8.8365986"><ele>226.0</ele><time>2026-05-03T07:23:36.779Z</time></trkpt><trkpt lat="39.8562991" lon="8.8363644"><ele>226.66666666666666</ele><time>2026-05-03T07:23:37.776Z</time></trkpt><trkpt lat="39.8562045" lon="8.8361475"><ele>227.33333333333331</ele><time>2026-05-03T07:23:38.777Z</time></trkpt><trkpt lat="39.8560975" lon="8.8359479"><ele>228.0</ele><time>2026-05-03T07:23:39.777Z</time></trkpt><trkpt lat="39.8559895" lon="8.8357523"><ele>224.33333333333331</ele><time>2026-05-03T07:23:40.777Z</time></trkpt><trkpt lat="39.8558874" lon="8.8355652"><ele>220.66666666666666</ele><time>2026-05-03T07:23:41.777Z</time></trkpt><trkpt lat="39.8558022" lon="8.8353773"><ele>217.0</ele><time>2026-05-03T07:23:42.777Z</time></trkpt><trkpt lat="39.8557375" lon="8.8351809"><ele>219.0</ele><time>2026-05-03T07:23:43.778Z</time></trkpt><trkpt lat="39.8557012" lon="8.8349723"><ele>221.0</ele><time>2026-05-03T07:23:44.776Z</time></trkpt><trkpt lat="39.8556879" lon="8.834746"><ele>223.0</ele><time>2026-05-03T07:23:45.778Z</time></trkpt><trkpt lat="39.8556872" lon="8.8345149"><ele>222.33333333333331</ele><time>2026-05-03T07:23:46.778Z</time></trkpt><trkpt lat="39.8556951" lon="8.8342753"><ele>221.66666666666669</ele><time>2026-05-03T07:23:47.778Z</time></trkpt><trkpt lat="39.8557014" lon="8.834038"><ele>221.0</ele><time>2026-05-03T07:23:48.777Z</time></trkpt><trkpt lat="39.8557109" lon="8.833808"><ele>221.0</ele><time>2026-05-03T07:23:49.776Z</time></trkpt><trkpt lat="39.855723" lon="8.8335885"><ele>221.0</ele><time>2026-05-03T07:23:50.777Z</time></trkpt><trkpt lat="39.8557551" lon="8.8333754"><ele>221.0</ele><time>2026-05-03T07:23:51.778Z</time></trkpt><trkpt lat="39.855787" lon="8.8331826"><ele>219.0</ele><time>2026-05-03T07:23:52.777Z</time></trkpt><trkpt lat="39.855837" lon="8.833011"><ele>217.0</ele><time>2026-05-03T07:23:53.778Z</time></trkpt><trkpt lat="39.8558722" lon="8.8328416"><ele>215.0</ele><time>2026-05-03T07:23:54.777Z</time></trkpt><trkpt lat="39.8558806" lon="8.8326727"><ele>213.0</ele><time>2026-05-03T07:23:55.776Z</time></trkpt><trkpt lat="39.8558516" lon="8.8324981"><ele>212.0</ele><time>2026-05-03T07:23:56.777Z</time></trkpt><trkpt lat="39.85579" lon="8.8323271"><ele>211.0</ele><time>2026-05-03T07:23:57.776Z</time></trkpt><trkpt lat="39.8557069" lon="8.8321426"><ele>210.0</ele><time>2026-05-03T07:23:58.777Z</time></trkpt><trkpt lat="39.8556119" lon="8.8319502"><ele>214.66666666666669</ele><time>2026-05-03T07:23:59.776Z</time></trkpt><trkpt lat="39.855517" lon="8.8317518"><ele>219.33333333333334</ele><time>2026-05-03T07:24:00.776Z</time></trkpt><trkpt lat="39.8554206" lon="8.8315498"><ele>224.0</ele><time>2026-05-03T07:24:01.776Z</time></trkpt><trkpt lat="39.8553189" lon="8.8313441"><ele>224.0</ele><time>2026-05-03T07:24:02.776Z</time></trkpt><trkpt lat="39.8552244" lon="8.831134"><ele>224.0</ele><time>2026-05-03T07:24:03.776Z</time></trkpt><trkpt lat="39.8551382" lon="8.8309116"><ele>224.0</ele><time>2026-05-03T07:24:04.777Z</time></trkpt><trkpt lat="39.8550495" lon="8.8306972"><ele>222.0</ele><time>2026-05-03T07:24:05.776Z</time></trkpt><trkpt lat="39.8549603" lon="8.8304829"><ele>220.0</ele><time>2026-05-03T07:24:06.778Z</time></trkpt><trkpt lat="39.8548762" lon="8.8302767"><ele>218.0</ele><time>2026-05-03T07:24:07.777Z</time></trkpt><trkpt lat="39.8547853" lon="8.8300625"><ele>218.0</ele><time>2026-05-03T07:24:08.776Z</time></trkpt><trkpt lat="39.8546949" lon="8.8298479"><ele>218.0</ele><time>2026-05-03T07:24:09.776Z</time></trkpt><trkpt lat="39.8546045" lon="8.8296279"><ele>218.0</ele><time>2026-05-03T07:24:10.777Z</time></trkpt><trkpt lat="39.8545353" lon="8.8294066"><ele>220.0</ele><time>2026-05-03T07:24:11.777Z</time></trkpt><trkpt lat="39.8544962" lon="8.8291674"><ele>222.0</ele><time>2026-05-03T07:24:12.777Z</time></trkpt><trkpt lat="39.8544714" lon="8.8289152"><ele>224.0</ele><time>2026-05-03T07:24:13.777Z</time></trkpt><trkpt lat="39.8544423" lon="8.8286712"><ele>221.66666666666669</ele><time>2026-05-03T07:24:14.776Z</time></trkpt><trkpt lat="39.8544199" lon="8.8284453"><ele>219.33333333333331</ele><time>2026-05-03T07:24:15.778Z</time></trkpt><trkpt lat="39.8544226" lon="8.8282352"><ele>217.0</ele><time>2026-05-03T07:24:16.777Z</time></trkpt><trkpt lat="39.854459" lon="8.8280364"><ele>217.0</ele><time>2026-05-03T07:24:17.778Z</time></trkpt><trkpt lat="39.8545322" lon="8.8278509"><ele>217.0</ele><time>2026-05-03T07:24:18.777Z</time></trkpt><trkpt lat="39.8546259" lon="8.8276735"><ele>217.0</ele><time>2026-05-03T07:24:19.777Z</time></trkpt><trkpt lat="39.8547147" lon="8.8275184"><ele>213.75</ele><time>2026-05-03T07:24:20.778Z</time></trkpt><trkpt lat="39.8547925" lon="8.827355"><ele>210.5</ele><time>2026-05-03T07:24:21.776Z</time></trkpt><trkpt lat="39.8548274" lon="8.8271842"><ele>207.25</ele><time>2026-05-03T07:24:22.778Z</time></trkpt><trkpt lat="39.8548355" lon="8.8270151"><ele>204.0</ele><time>2026-05-03T07:24:23.777Z</time></trkpt><trkpt lat="39.8548066" lon="8.8268429"><ele>205.0</ele><time>2026-05-03T07:24:24.778Z</time></trkpt><trkpt lat="39.8547468" lon="8.8266695"><ele>206.0</ele><time>2026-05-03T07:24:25.776Z</time></trkpt><trkpt lat="39.8546708" lon="8.826487"><ele>207.0</ele><time>2026-05-03T07:24:26.776Z</time></trkpt><trkpt lat="39.8545854" lon="8.8262993"><ele>207.0</ele><time>2026-05-03T07:24:27.776Z</time></trkpt><trkpt lat="39.8544893" lon="8.8261231"><ele>207.0</ele><time>2026-05-03T07:24:28.777Z</time></trkpt><trkpt lat="39.8543834" lon="8.8259765"><ele>207.0</ele><time>2026-05-03T07:24:29.777Z</time></trkpt><trkpt lat="39.8542899" lon="8.8258721"><ele>207.0</ele><time>2026-05-03T07:24:30.777Z</time></trkpt><trkpt lat="39.8542152" lon="8.8258048"><ele>207.0</ele><time>2026-05-03T07:24:31.776Z</time></trkpt><trkpt lat="39.8541328" lon="8.8257499"><ele>207.0</ele><time>2026-05-03T07:24:33.777Z</time></trkpt><trkpt lat="39.8541559" lon="8.8258449"><ele>207.0</ele><time>2026-05-03T07:24:38.777Z</time></trkpt><trkpt lat="39.8542385" lon="8.8259102"><ele>207.0</ele><time>2026-05-03T07:25:07.777Z</time></trkpt><trkpt lat="39.8542707" lon="8.8259877"><ele>207.0</ele><time>2026-05-03T07:25:08.776Z</time></trkpt><trkpt lat="39.8543054" lon="8.8260811"><ele>207.0</ele><time>2026-05-03T07:25:09.777Z</time></trkpt><trkpt lat="39.8543392" lon="8.8261936"><ele>207.0</ele><time>2026-05-03T07:25:10.778Z</time></trkpt><trkpt lat="39.8543785" lon="8.8263034"><ele>207.0</ele><time>2026-05-03T07:25:11.776Z</time></trkpt><trkpt lat="39.8544102" lon="8.8264162"><ele>207.0</ele><time>2026-05-03T07:25:12.777Z</time></trkpt><trkpt lat="39.8544309" lon="8.8265213"><ele>207.0</ele><time>2026-05-03T07:25:13.777Z</time></trkpt><trkpt lat="39.8544437" lon="8.8266142"><ele>207.0</ele><time>2026-05-03T07:25:14.776Z</time></trkpt><trkpt lat="39.8544536" lon="8.8266967"><ele>207.0</ele><time>2026-05-03T07:25:15.777Z</time></trkpt><trkpt lat="39.8544619" lon="8.8268449"><ele>206.39999999999998</ele><time>2026-05-03T07:25:17.778Z</time></trkpt><trkpt lat="39.8544317" lon="8.8269569"><ele>205.79999999999998</ele><time>2026-05-03T07:25:19.777Z</time></trkpt><trkpt lat="39.8543632" lon="8.8270447"><ele>205.2</ele><time>2026-05-03T07:25:21.778Z</time></trkpt><trkpt lat="39.8542729" lon="8.8271324"><ele>204.6</ele><time>2026-05-03T07:25:23.776Z</time></trkpt><trkpt lat="39.8542037" lon="8.8272572"><ele>204.0</ele><time>2026-05-03T07:25:25.777Z</time></trkpt><trkpt lat="39.8541601" lon="8.8273954"><ele>201.6</ele><time>2026-05-03T07:25:27.777Z</time></trkpt><trkpt lat="39.8540967" lon="8.8275372"><ele>199.2</ele><time>2026-05-03T07:25:29.777Z</time></trkpt><trkpt lat="39.8540599" lon="8.8276045"><ele>196.79999999999998</ele><time>2026-05-03T07:25:30.777Z</time></trkpt><trkpt lat="39.8540198" lon="8.8277162"><ele>194.39999999999998</ele><time>2026-05-03T07:25:32.778Z</time></trkpt><trkpt lat="39.8540079" lon="8.8278383"><ele>192.0</ele><time>2026-05-03T07:25:34.778Z</time></trkpt><trkpt lat="39.8540135" lon="8.8279875"><ele>192.0</ele><time>2026-05-03T07:25:36.778Z</time></trkpt><trkpt lat="39.8540347" lon="8.8281174"><ele>192.0</ele><time>2026-05-03T07:25:38.777Z</time></trkpt><trkpt lat="39.8540628" lon="8.8282015"><ele>192.0</ele><time>2026-05-03T07:25:40.776Z</time></trkpt><trkpt lat="39.8540869" lon="8.8283005"><ele>192.0</ele><time>2026-05-03T07:25:59.776Z</time></trkpt><trkpt lat="39.8541142" lon="8.8284494"><ele>192.0</ele><time>2026-05-03T07:26:01.777Z</time></trkpt><trkpt lat="39.8541195" lon="8.8285544"><ele>191.99999999999997</ele><time>2026-05-03T07:26:02.778Z</time></trkpt><trkpt lat="39.854123" lon="8.8286491"><ele>192.0</ele><time>2026-05-03T07:26:03.778Z</time></trkpt><trkpt lat="39.854117" lon="8.8287504"><ele>192.0</ele><time>2026-05-03T07:26:04.776Z</time></trkpt><trkpt lat="39.8541115" lon="8.8288454"><ele>192.0</ele><time>2026-05-03T07:26:05.777Z</time></trkpt><trkpt lat="39.8541107" lon="8.8289389"><ele>192.0</ele><time>2026-05-03T07:26:06.776Z</time></trkpt><trkpt lat="39.854112" lon="8.8290322"><ele>191.99999999999997</ele><time>2026-05-03T07:26:07.777Z</time></trkpt><trkpt lat="39.8541221" lon="8.8291241"><ele>192.0</ele><time>2026-05-03T07:26:08.776Z</time></trkpt><trkpt lat="39.8541377" lon="8.8292209"><ele>191.66666666666666</ele><time>2026-05-03T07:26:09.776Z</time></trkpt><trkpt lat="39.8541644" lon="8.8293144"><ele>191.33333333333334</ele><time>2026-05-03T07:26:10.777Z</time></trkpt><trkpt lat="39.8541841" lon="8.8294107"><ele>191.0</ele><time>2026-05-03T07:26:11.776Z</time></trkpt><trkpt lat="39.8541926" lon="8.8295014"><ele>190.66666666666669</ele><time>2026-05-03T07:26:12.778Z</time></trkpt><trkpt lat="39.8541784" lon="8.8295913"><ele>190.33333333333334</ele><time>2026-05-03T07:26:13.777Z</time></trkpt><trkpt lat="39.8541693" lon="8.8296794"><ele>190.0</ele><time>2026-05-03T07:26:14.777Z</time></trkpt><trkpt lat="39.8541983" lon="8.8298169"><ele>190.0</ele><time>2026-05-03T07:26:16.776Z</time></trkpt><trkpt lat="39.8542311" lon="8.8298975"><ele>190.0</ele><time>2026-05-03T07:26:17.776Z</time></trkpt><trkpt lat="39.854266" lon="8.829986"><ele>190.0</ele><time>2026-05-03T07:26:18.777Z</time></trkpt><trkpt lat="39.8542872" lon="8.8300909"><ele>190.0</ele><time>2026-05-03T07:26:19.776Z</time></trkpt><trkpt lat="39.8543619" lon="8.8302417"><ele>190.0</ele><time>2026-05-03T07:26:21.777Z</time></trkpt><trkpt lat="39.8544067" lon="8.8303277"><ele>190.0</ele><time>2026-05-03T07:26:22.777Z</time></trkpt><trkpt lat="39.8544585" lon="8.8304203"><ele>192.8</ele><time>2026-05-03T07:26:23.778Z</time></trkpt><trkpt lat="39.8545102" lon="8.8305148"><ele>195.6</ele><time>2026-05-03T07:26:24.777Z</time></trkpt><trkpt lat="39.8545637" lon="8.83061"><ele>198.39999999999998</ele><time>2026-05-03T07:26:25.775Z</time></trkpt><trkpt lat="39.8546145" lon="8.8307081"><ele>201.2</ele><time>2026-05-03T07:26:26.776Z</time></trkpt><trkpt lat="39.8546686" lon="8.8308092"><ele>204.0</ele><time>2026-05-03T07:26:27.777Z</time></trkpt><trkpt lat="39.8547221" lon="8.8308992"><ele>202.66666666666666</ele><time>2026-05-03T07:26:28.777Z</time></trkpt><trkpt lat="39.8547592" lon="8.8309965"><ele>201.33333333333331</ele><time>2026-05-03T07:26:29.775Z</time></trkpt><trkpt lat="39.8547722" lon="8.8310912"><ele>200.0</ele><time>2026-05-03T07:26:30.777Z</time></trkpt><trkpt lat="39.8547701" lon="8.8311916"><ele>198.66666666666666</ele><time>2026-05-03T07:26:31.776Z</time></trkpt><trkpt lat="39.8547668" lon="8.8312932"><ele>197.33333333333331</ele><time>2026-05-03T07:26:32.777Z</time></trkpt><trkpt lat="39.8547631" lon="8.8314031"><ele>196.0</ele><time>2026-05-03T07:26:33.778Z</time></trkpt><trkpt lat="39.8547702" lon="8.8315093"><ele>195.99999999999997</ele><time>2026-05-03T07:26:34.777Z</time></trkpt><trkpt lat="39.8547879" lon="8.8316125"><ele>196.0</ele><time>2026-05-03T07:26:35.777Z</time></trkpt><trkpt lat="39.8548203" lon="8.8317212"><ele>196.0</ele><time>2026-05-03T07:26:36.777Z</time></trkpt><trkpt lat="39.8548566" lon="8.831822"><ele>196.0</ele><time>2026-05-03T07:26:37.776Z</time></trkpt><trkpt lat="39.8549073" lon="8.8319123"><ele>195.99999999999997</ele><time>2026-05-03T07:26:38.777Z</time></trkpt><trkpt lat="39.854965" lon="8.8319854"><ele>196.0</ele><time>2026-05-03T07:26:39.777Z</time></trkpt><trkpt lat="39.8550281" lon="8.8320421"><ele>195.99999999999997</ele><time>2026-05-03T07:26:40.777Z</time></trkpt><trkpt lat="39.8550811" lon="8.8320957"><ele>196.0</ele><time>2026-05-03T07:26:41.776Z</time></trkpt><trkpt lat="39.8551421" lon="8.8322216"><ele>196.0</ele><time>2026-05-03T07:26:43.776Z</time></trkpt><trkpt lat="39.8551554" lon="8.8323188"><ele>196.0</ele><time>2026-05-03T07:26:44.776Z</time></trkpt><trkpt lat="39.8551651" lon="8.8324267"><ele>195.99999999999997</ele><time>2026-05-03T07:26:45.777Z</time></trkpt><trkpt lat="39.855168" lon="8.8325357"><ele>196.0</ele><time>2026-05-03T07:26:46.776Z</time></trkpt><trkpt lat="39.855176" lon="8.8326507"><ele>196.33333333333331</ele><time>2026-05-03T07:26:47.776Z</time></trkpt><trkpt lat="39.8552001" lon="8.8327595"><ele>196.66666666666666</ele><time>2026-05-03T07:26:48.776Z</time></trkpt><trkpt lat="39.8552091" lon="8.832869"><ele>197.0</ele><time>2026-05-03T07:26:49.778Z</time></trkpt><trkpt lat="39.8552213" lon="8.832972"><ele>197.33333333333331</ele><time>2026-05-03T07:26:50.777Z</time></trkpt><trkpt lat="39.8552113" lon="8.8330685"><ele>197.66666666666666</ele><time>2026-05-03T07:26:51.777Z</time></trkpt><trkpt lat="39.8551825" lon="8.8331417"><ele>198.0</ele><time>2026-05-03T07:26:52.777Z</time></trkpt><trkpt lat="39.8551016" lon="8.8332008"><ele>198.0</ele><time>2026-05-03T07:26:54.778Z</time></trkpt><trkpt lat="39.8550034" lon="8.8332457"><ele>198.0</ele><time>2026-05-03T07:26:56.775Z</time></trkpt><trkpt lat="39.8549208" lon="8.8333647"><ele>198.0</ele><time>2026-05-03T07:26:58.776Z</time></trkpt><trkpt lat="39.8548706" lon="8.8334413"><ele>198.0</ele><time>2026-05-03T07:26:59.775Z</time></trkpt><trkpt lat="39.854816" lon="8.8335176"><ele>198.0</ele><time>2026-05-03T07:27:00.775Z</time></trkpt><trkpt lat="39.8547612" lon="8.8335884"><ele>198.2</ele><time>2026-05-03T07:27:01.776Z</time></trkpt><trkpt lat="39.8547133" lon="8.8336519"><ele>198.4</ele><time>2026-05-03T07:27:02.776Z</time></trkpt><trkpt lat="39.8546458" lon="8.8337473"><ele>198.6</ele><time>2026-05-03T07:27:04.775Z</time></trkpt><trkpt lat="39.854617" lon="8.8338658"><ele>198.79999999999998</ele><time>2026-05-03T07:27:06.776Z</time></trkpt><trkpt lat="39.8546228" lon="8.8340003"><ele>199.0</ele><time>2026-05-03T07:27:24.778Z</time></trkpt><trkpt lat="39.8545939" lon="8.8341672"><ele>198.99999999999997</ele><time>2026-05-03T07:27:26.777Z</time></trkpt><trkpt lat="39.854582" lon="8.8342755"><ele>199.0</ele><time>2026-05-03T07:27:27.777Z</time></trkpt><trkpt lat="39.8545674" lon="8.8343786"><ele>199.0</ele><time>2026-05-03T07:27:28.777Z</time></trkpt><trkpt lat="39.8545523" lon="8.834486"><ele>199.0</ele><time>2026-05-03T07:27:29.776Z</time></trkpt><trkpt lat="39.8545388" lon="8.8345955"><ele>198.99999999999997</ele><time>2026-05-03T07:27:30.778Z</time></trkpt><trkpt lat="39.8545381" lon="8.8347034"><ele>199.0</ele><time>2026-05-03T07:27:31.777Z</time></trkpt><trkpt lat="39.8545338" lon="8.8348006"><ele>199.16666666666666</ele><time>2026-05-03T07:27:32.776Z</time></trkpt><trkpt lat="39.8545331" lon="8.834893"><ele>199.33333333333331</ele><time>2026-05-03T07:27:33.776Z</time></trkpt><trkpt lat="39.8545302" lon="8.8350631"><ele>199.5</ele><time>2026-05-03T07:27:35.777Z</time></trkpt><trkpt lat="39.8545326" lon="8.8351466"><ele>199.66666666666669</ele><time>2026-05-03T07:27:36.775Z</time></trkpt><trkpt lat="39.8545324" lon="8.8352347"><ele>199.83333333333334</ele><time>2026-05-03T07:27:37.777Z</time></trkpt><trkpt lat="39.8545286" lon="8.8353168"><ele>200.0</ele><time>2026-05-03T07:27:38.777Z</time></trkpt><trkpt lat="39.8545164" lon="8.8354049"><ele>200.00000000000003</ele><time>2026-05-03T07:27:39.776Z</time></trkpt><trkpt lat="39.8545103" lon="8.8355152"><ele>200.0</ele><time>2026-05-03T07:27:40.777Z</time></trkpt><trkpt lat="39.8544959" lon="8.8356229"><ele>200.0</ele><time>2026-05-03T07:27:41.776Z</time></trkpt><trkpt lat="39.8544828" lon="8.83572"><ele>200.0</ele><time>2026-05-03T07:27:42.775Z</time></trkpt><trkpt lat="39.854483" lon="8.8358046"><ele>200.00000000000003</ele><time>2026-05-03T07:27:43.777Z</time></trkpt><trkpt lat="39.8544877" lon="8.8359239"><ele>200.0</ele><time>2026-05-03T07:27:44.776Z</time></trkpt><trkpt lat="39.8544858" lon="8.836032"><ele>200.8</ele><time>2026-05-03T07:27:45.776Z</time></trkpt><trkpt lat="39.8544813" lon="8.8361309"><ele>201.6</ele><time>2026-05-03T07:27:46.776Z</time></trkpt><trkpt lat="39.8544301" lon="8.8362563"><ele>202.39999999999998</ele><time>2026-05-03T07:27:48.776Z</time></trkpt><trkpt lat="39.8543488" lon="8.8362829"><ele>203.2</ele><time>2026-05-03T07:27:50.778Z</time></trkpt><trkpt lat="39.8542408" lon="8.836222"><ele>204.0</ele><time>2026-05-03T07:27:52.776Z</time></trkpt><trkpt lat="39.8541723" lon="8.8361879"><ele>204.79999999999998</ele><time>2026-05-03T07:27:53.775Z</time></trkpt><trkpt lat="39.8541045" lon="8.8361436"><ele>205.6</ele><time>2026-05-03T07:27:54.776Z</time></trkpt><trkpt lat="39.8540347" lon="8.8361078"><ele>206.4</ele><time>2026-05-03T07:27:55.777Z</time></trkpt><trkpt lat="39.8539281" lon="8.8360661"><ele>207.2</ele><time>2026-05-03T07:27:57.777Z</time></trkpt><trkpt lat="39.8538181" lon="8.8360217"><ele>208.0</ele><time>2026-05-03T07:27:59.775Z</time></trkpt><trkpt lat="39.8537046" lon="8.8359668"><ele>208.60000000000002</ele><time>2026-05-03T07:28:01.776Z</time></trkpt><trkpt lat="39.8535926" lon="8.835885"><ele>209.20000000000002</ele><time>2026-05-03T07:28:03.777Z</time></trkpt><trkpt lat="39.8534725" lon="8.8358309"><ele>209.8</ele><time>2026-05-03T07:28:05.778Z</time></trkpt><trkpt lat="39.8533972" lon="8.8358179"><ele>210.4</ele><time>2026-05-03T07:28:06.778Z</time></trkpt><trkpt lat="39.8533188" lon="8.8358044"><ele>211.0</ele><time>2026-05-03T07:28:07.777Z</time></trkpt><trkpt lat="39.8532443" lon="8.8357969"><ele>213.16666666666666</ele><time>2026-05-03T07:28:08.777Z</time></trkpt><trkpt lat="39.8531747" lon="8.8357938"><ele>215.33333333333331</ele><time>2026-05-03T07:28:09.777Z</time></trkpt><trkpt lat="39.8530989" lon="8.8357967"><ele>217.5</ele><time>2026-05-03T07:28:10.777Z</time></trkpt><trkpt lat="39.8530196" lon="8.8357996"><ele>219.66666666666669</ele><time>2026-05-03T07:28:11.778Z</time></trkpt><trkpt lat="39.8529421" lon="8.8358007"><ele>221.83333333333334</ele><time>2026-05-03T07:28:12.778Z</time></trkpt><trkpt lat="39.8528668" lon="8.8358059"><ele>224.0</ele><time>2026-05-03T07:28:13.776Z</time></trkpt><trkpt lat="39.8527829" lon="8.8358016"><ele>224.00000000000003</ele><time>2026-05-03T07:28:14.778Z</time></trkpt><trkpt lat="39.8527086" lon="8.8358026"><ele>224.0</ele><time>2026-05-03T07:28:15.776Z</time></trkpt><trkpt lat="39.8526199" lon="8.835777"><ele>224.0</ele><time>2026-05-03T07:28:16.777Z</time></trkpt><trkpt lat="39.8525351" lon="8.8357667"><ele>224.0</ele><time>2026-05-03T07:28:17.778Z</time></trkpt><trkpt lat="39.8524716" lon="8.8357444"><ele>224.00000000000003</ele><time>2026-05-03T07:28:18.777Z</time></trkpt><trkpt lat="39.8523984" lon="8.8357357"><ele>224.0</ele><time>2026-05-03T07:28:19.776Z</time></trkpt><trkpt lat="39.8522934" lon="8.8357215"><ele>225.39999999999998</ele><time>2026-05-03T07:28:21.777Z</time></trkpt><trkpt lat="39.8522302" lon="8.8357021"><ele>226.79999999999998</ele><time>2026-05-03T07:28:22.777Z</time></trkpt><trkpt lat="39.8521381" lon="8.8356471"><ele>228.20000000000002</ele><time>2026-05-03T07:28:24.777Z</time></trkpt><trkpt lat="39.8520895" lon="8.8355874"><ele>229.60000000000002</ele><time>2026-05-03T07:28:25.778Z</time></trkpt><trkpt lat="39.8519985" lon="8.8354794"><ele>231.0</ele><time>2026-05-03T07:28:27.776Z</time></trkpt><trkpt lat="39.8519299" lon="8.8353649"><ele>231.0</ele><time>2026-05-03T07:28:29.775Z</time></trkpt><trkpt lat="39.8518594" lon="8.8352619"><ele>231.0</ele><time>2026-05-03T07:28:31.777Z</time></trkpt><trkpt lat="39.8518107" lon="8.8352078"><ele>231.0</ele><time>2026-05-03T07:28:32.777Z</time></trkpt><trkpt lat="39.851749" lon="8.8351498"><ele>231.0</ele><time>2026-05-03T07:28:33.776Z</time></trkpt><trkpt lat="39.8516802" lon="8.8350973"><ele>231.0</ele><time>2026-05-03T07:28:34.777Z</time></trkpt><trkpt lat="39.8516122" lon="8.8350642"><ele>231.0</ele><time>2026-05-03T07:28:35.777Z</time></trkpt><trkpt lat="39.8515007" lon="8.8350241"><ele>232.66666666666666</ele><time>2026-05-03T07:28:37.775Z</time></trkpt><trkpt lat="39.8513735" lon="8.8350017"><ele>234.33333333333331</ele><time>2026-05-03T07:28:39.776Z</time></trkpt><trkpt lat="39.8513047" lon="8.8349936"><ele>236.0</ele><time>2026-05-03T07:28:40.776Z</time></trkpt><trkpt lat="39.8512331" lon="8.8349706"><ele>237.66666666666666</ele><time>2026-05-03T07:28:41.778Z</time></trkpt><trkpt lat="39.851162" lon="8.834962"><ele>239.33333333333331</ele><time>2026-05-03T07:28:42.775Z</time></trkpt><trkpt lat="39.8510965" lon="8.8349568"><ele>241.0</ele><time>2026-05-03T07:28:43.777Z</time></trkpt><trkpt lat="39.8510333" lon="8.8349434"><ele>241.0</ele><time>2026-05-03T07:28:44.776Z</time></trkpt><trkpt lat="39.8509244" lon="8.8349113"><ele>241.00000000000003</ele><time>2026-05-03T07:28:46.775Z</time></trkpt><trkpt lat="39.8508265" lon="8.8348863"><ele>241.00000000000003</ele><time>2026-05-03T07:28:48.776Z</time></trkpt><trkpt lat="39.8507371" lon="8.8348522"><ele>241.0</ele><time>2026-05-03T07:28:50.775Z</time></trkpt><trkpt lat="39.8506586" lon="8.83483"><ele>241.0</ele><time>2026-05-03T07:28:52.776Z</time></trkpt><trkpt lat="39.8505946" lon="8.8347975"><ele>240.99999999999997</ele><time>2026-05-03T07:28:55.777Z</time></trkpt><trkpt lat="39.8505346" lon="8.8347616"><ele>241.0</ele><time>2026-05-03T07:28:59.776Z</time></trkpt><trkpt lat="39.8504535" lon="8.8347356"><ele>241.0</ele><time>2026-05-03T07:29:01.777Z</time></trkpt><trkpt lat="39.8503869" lon="8.834686"><ele>241.0</ele><time>2026-05-03T07:29:03.776Z</time></trkpt><trkpt lat="39.8503185" lon="8.8346481"><ele>240.99999999999997</ele><time>2026-05-03T07:29:05.776Z</time></trkpt><trkpt lat="39.8502462" lon="8.8345996"><ele>241.0</ele><time>2026-05-03T07:29:07.776Z</time></trkpt><trkpt lat="39.8501601" lon="8.8345424"><ele>242.0</ele><time>2026-05-03T07:29:09.777Z</time></trkpt><trkpt lat="39.8500604" lon="8.8344724"><ele>243.00000000000003</ele><time>2026-05-03T07:29:11.777Z</time></trkpt><trkpt lat="39.8499593" lon="8.8344106"><ele>244.00000000000003</ele><time>2026-05-03T07:29:13.777Z</time></trkpt><trkpt lat="39.8498679" lon="8.8343544"><ele>245.0</ele><time>2026-05-03T07:29:15.776Z</time></trkpt><trkpt lat="39.8497644" lon="8.8342929"><ele>246.0</ele><time>2026-05-03T07:29:17.775Z</time></trkpt><trkpt lat="39.8496265" lon="8.8342082"><ele>246.0</ele><time>2026-05-03T07:29:20.777Z</time></trkpt><trkpt lat="39.8495475" lon="8.8341516"><ele>246.0</ele><time>2026-05-03T07:29:22.776Z</time></trkpt><trkpt lat="39.8494717" lon="8.8340991"><ele>246.0</ele><time>2026-05-03T07:29:24.775Z</time></trkpt><trkpt lat="39.8493938" lon="8.8340428"><ele>246.0</ele><time>2026-05-03T07:29:26.777Z</time></trkpt><trkpt lat="39.8493229" lon="8.8340113"><ele>246.0</ele><time>2026-05-03T07:29:28.776Z</time></trkpt><trkpt lat="39.8492237" lon="8.8339849"><ele>246.0</ele><time>2026-05-03T07:29:31.776Z</time></trkpt><trkpt lat="39.8491444" lon="8.8339713"><ele>246.8</ele><time>2026-05-03T07:29:33.775Z</time></trkpt><trkpt lat="39.849066" lon="8.8339621"><ele>247.60000000000002</ele><time>2026-05-03T07:29:35.777Z</time></trkpt><trkpt lat="39.8489828" lon="8.8339449"><ele>248.4</ele><time>2026-05-03T07:29:37.776Z</time></trkpt><trkpt lat="39.8488842" lon="8.8339338"><ele>249.2</ele><time>2026-05-03T07:29:39.776Z</time></trkpt><trkpt lat="39.8487813" lon="8.8339198"><ele>250.0</ele><time>2026-05-03T07:29:41.776Z</time></trkpt><trkpt lat="39.848675" lon="8.8338969"><ele>250.0</ele><time>2026-05-03T07:29:43.775Z</time></trkpt><trkpt lat="39.8486126" lon="8.8338808"><ele>250.0</ele><time>2026-05-03T07:29:44.776Z</time></trkpt><trkpt lat="39.8484914" lon="8.8338635"><ele>250.0</ele><time>2026-05-03T07:29:46.777Z</time></trkpt><trkpt lat="39.8483718" lon="8.8338388"><ele>250.0</ele><time>2026-05-03T07:29:48.775Z</time></trkpt><trkpt lat="39.8482589" lon="8.8338349"><ele>250.0</ele><time>2026-05-03T07:29:50.778Z</time></trkpt><trkpt lat="39.8481429" lon="8.8338251"><ele>250.71428571428572</ele><time>2026-05-03T07:29:52.776Z</time></trkpt><trkpt lat="39.8480795" lon="8.8338161"><ele>251.42857142857144</ele><time>2026-05-03T07:29:53.777Z</time></trkpt><trkpt lat="39.8480147" lon="8.8338013"><ele>252.14285714285717</ele><time>2026-05-03T07:29:54.776Z</time></trkpt><trkpt lat="39.8479441" lon="8.8337947"><ele>252.85714285714286</ele><time>2026-05-03T07:29:55.777Z</time></trkpt><trkpt lat="39.8478762" lon="8.8337863"><ele>253.5714285714286</ele><time>2026-05-03T07:29:56.777Z</time></trkpt><trkpt lat="39.8478115" lon="8.8337777"><ele>254.2857142857143</ele><time>2026-05-03T07:29:57.777Z</time></trkpt><trkpt lat="39.8477474" lon="8.8337726"><ele>255.0</ele><time>2026-05-03T07:29:58.777Z</time></trkpt><trkpt lat="39.8476807" lon="8.8337668"><ele>256.0</ele><time>2026-05-03T07:29:59.775Z</time></trkpt><trkpt lat="39.8476149" lon="8.833761"><ele>257.0</ele><time>2026-05-03T07:30:00.776Z</time></trkpt><trkpt lat="39.8475412" lon="8.8337565"><ele>258.0</ele><time>2026-05-03T07:30:01.776Z</time></trkpt><trkpt lat="39.8474673" lon="8.8337497"><ele>259.0</ele><time>2026-05-03T07:30:02.776Z</time></trkpt><trkpt lat="39.8473953" lon="8.8337427"><ele>260.0</ele><time>2026-05-03T07:30:03.776Z</time></trkpt><trkpt lat="39.8473191" lon="8.8337358"><ele>261.0</ele><time>2026-05-03T07:30:04.776Z</time></trkpt><trkpt lat="39.8472464" lon="8.8337256"><ele>262.0</ele><time>2026-05-03T07:30:05.777Z</time></trkpt><trkpt lat="39.8471782" lon="8.8337103"><ele>262.0</ele><time>2026-05-03T07:30:06.777Z</time></trkpt><trkpt lat="39.847115" lon="8.8336987"><ele>262.0</ele><time>2026-05-03T07:30:07.776Z</time></trkpt><trkpt lat="39.846997" lon="8.8336604"><ele>262.0</ele><time>2026-05-03T07:30:09.776Z</time></trkpt><trkpt lat="39.8468867" lon="8.8336218"><ele>262.0</ele><time>2026-05-03T07:30:11.777Z</time></trkpt><trkpt lat="39.8467822" lon="8.8335769"><ele>262.0</ele><time>2026-05-03T07:30:13.777Z</time></trkpt><trkpt lat="39.846713" lon="8.83356"><ele>263.8</ele><time>2026-05-03T07:30:14.776Z</time></trkpt><trkpt lat="39.8466415" lon="8.833551"><ele>265.6</ele><time>2026-05-03T07:30:15.775Z</time></trkpt><trkpt lat="39.8465423" lon="8.833584"><ele>267.40000000000003</ele><time>2026-05-03T07:30:17.775Z</time></trkpt><trkpt lat="39.8464323" lon="8.833625"><ele>269.2</ele><time>2026-05-03T07:30:19.776Z</time></trkpt><trkpt lat="39.8463246" lon="8.8337046"><ele>271.0</ele><time>2026-05-03T07:30:21.776Z</time></trkpt><trkpt lat="39.8462196" lon="8.8337975"><ele>271.0</ele><time>2026-05-03T07:30:23.777Z</time></trkpt><trkpt lat="39.8461185" lon="8.8338749"><ele>271.0</ele><time>2026-05-03T07:30:25.776Z</time></trkpt><trkpt lat="39.8460612" lon="8.8339125"><ele>271.0</ele><time>2026-05-03T07:30:26.776Z</time></trkpt><trkpt lat="39.8459535" lon="8.8339905"><ele>271.0</ele><time>2026-05-03T07:30:28.776Z</time></trkpt><trkpt lat="39.8459" lon="8.834035"><ele>271.0</ele><time>2026-05-03T07:30:29.776Z</time></trkpt><trkpt lat="39.8458374" lon="8.8340879"><ele>271.0</ele><time>2026-05-03T07:30:30.775Z</time></trkpt><trkpt lat="39.8457784" lon="8.8341247"><ele>272.6</ele><time>2026-05-03T07:30:31.775Z</time></trkpt><trkpt lat="39.8456762" lon="8.8341992"><ele>274.20000000000005</ele><time>2026-05-03T07:30:33.776Z</time></trkpt><trkpt lat="39.8455665" lon="8.8342412"><ele>275.79999999999995</ele><time>2026-05-03T07:30:35.775Z</time></trkpt><trkpt lat="39.84546" lon="8.8342857"><ele>277.4</ele><time>2026-05-03T07:30:37.776Z</time></trkpt><trkpt lat="39.8453593" lon="8.8343126"><ele>279.0</ele><time>2026-05-03T07:30:39.776Z</time></trkpt><trkpt lat="39.8452787" lon="8.8343306"><ele>280.1428571428571</ele><time>2026-05-03T07:30:41.776Z</time></trkpt><trkpt lat="39.845217" lon="8.834349"><ele>281.2857142857143</ele><time>2026-05-03T07:30:42.777Z</time></trkpt><trkpt lat="39.8451541" lon="8.8343702"><ele>282.42857142857144</ele><time>2026-05-03T07:30:43.776Z</time></trkpt><trkpt lat="39.8450819" lon="8.8343796"><ele>283.57142857142856</ele><time>2026-05-03T07:30:44.775Z</time></trkpt><trkpt lat="39.8450117" lon="8.8343885"><ele>284.7142857142857</ele><time>2026-05-03T07:30:45.776Z</time></trkpt><trkpt lat="39.8449401" lon="8.8344014"><ele>285.85714285714283</ele><time>2026-05-03T07:30:46.777Z</time></trkpt><trkpt lat="39.8448666" lon="8.8344217"><ele>287.0</ele><time>2026-05-03T07:30:47.777Z</time></trkpt><trkpt lat="39.8448" lon="8.834457"><ele>288.83333333333337</ele><time>2026-05-03T07:30:48.777Z</time></trkpt><trkpt lat="39.8447332" lon="8.8344859"><ele>290.6666666666667</ele><time>2026-05-03T07:30:49.776Z</time></trkpt><trkpt lat="39.8446198" lon="8.8345506"><ele>292.5</ele><time>2026-05-03T07:30:51.777Z</time></trkpt><trkpt lat="39.8445597" lon="8.8345882"><ele>294.3333333333333</ele><time>2026-05-03T07:30:52.777Z</time></trkpt><trkpt lat="39.8444982" lon="8.8346265"><ele>296.16666666666663</ele><time>2026-05-03T07:30:53.777Z</time></trkpt><trkpt lat="39.8444344" lon="8.8346778"><ele>298.0</ele><time>2026-05-03T07:30:54.776Z</time></trkpt><trkpt lat="39.8443725" lon="8.8347216"><ele>298.0</ele><time>2026-05-03T07:30:55.775Z</time></trkpt><trkpt lat="39.844303" lon="8.8347661"><ele>298.0</ele><time>2026-05-03T07:30:56.776Z</time></trkpt><trkpt lat="39.8442344" lon="8.8348152"><ele>298.0</ele><time>2026-05-03T07:30:57.775Z</time></trkpt><trkpt lat="39.8441669" lon="8.8348614"><ele>298.0</ele><time>2026-05-03T07:30:58.776Z</time></trkpt><trkpt lat="39.8441205" lon="8.8349318"><ele>298.0</ele><time>2026-05-03T07:30:59.775Z</time></trkpt><trkpt lat="39.8440669" lon="8.8349976"><ele>298.0</ele><time>2026-05-03T07:31:00.776Z</time></trkpt><trkpt lat="39.844004" lon="8.8350628"><ele>299.0</ele><time>2026-05-03T07:31:01.775Z</time></trkpt><trkpt lat="39.8439557" lon="8.8351176"><ele>300.0</ele><time>2026-05-03T07:31:02.777Z</time></trkpt><trkpt lat="39.8439005" lon="8.835166"><ele>301.0</ele><time>2026-05-03T07:31:03.776Z</time></trkpt><trkpt lat="39.8438364" lon="8.8352106"><ele>302.0</ele><time>2026-05-03T07:31:04.776Z</time></trkpt><trkpt lat="39.843768" lon="8.8352602"><ele>303.0</ele><time>2026-05-03T07:31:05.776Z</time></trkpt><trkpt lat="39.8437074" lon="8.8353007"><ele>304.0</ele><time>2026-05-03T07:31:06.776Z</time></trkpt><trkpt lat="39.8436394" lon="8.8353451"><ele>305.0</ele><time>2026-05-03T07:31:07.776Z</time></trkpt><trkpt lat="39.8435767" lon="8.8353777"><ele>306.14285714285717</ele><time>2026-05-03T07:31:08.776Z</time></trkpt><trkpt lat="39.8435145" lon="8.835409"><ele>307.2857142857143</ele><time>2026-05-03T07:31:09.777Z</time></trkpt><trkpt lat="39.8434485" lon="8.8354406"><ele>308.42857142857144</ele><time>2026-05-03T07:31:10.777Z</time></trkpt><trkpt lat="39.8433774" lon="8.8354728"><ele>309.57142857142856</ele><time>2026-05-03T07:31:11.776Z</time></trkpt><trkpt lat="39.8433043" lon="8.8355019"><ele>310.7142857142857</ele><time>2026-05-03T07:31:12.775Z</time></trkpt><trkpt lat="39.8432244" lon="8.8355288"><ele>311.85714285714283</ele><time>2026-05-03T07:31:13.777Z</time></trkpt><trkpt lat="39.8431595" lon="8.8355458"><ele>313.0</ele><time>2026-05-03T07:31:14.775Z</time></trkpt><trkpt lat="39.8430972" lon="8.8355755"><ele>314.0</ele><time>2026-05-03T07:31:15.775Z</time></trkpt><trkpt lat="39.8430267" lon="8.8356059"><ele>315.0</ele><time>2026-05-03T07:31:16.776Z</time></trkpt><trkpt lat="39.8429547" lon="8.8356363"><ele>316.0</ele><time>2026-05-03T07:31:17.776Z</time></trkpt><trkpt lat="39.8428817" lon="8.8356563"><ele>317.0</ele><time>2026-05-03T07:31:18.776Z</time></trkpt><trkpt lat="39.8428067" lon="8.8356769"><ele>318.0</ele><time>2026-05-03T07:31:19.776Z</time></trkpt><trkpt lat="39.8427384" lon="8.8356985"><ele>319.0</ele><time>2026-05-03T07:31:20.776Z</time></trkpt><trkpt lat="39.8426665" lon="8.8357316"><ele>320.0</ele><time>2026-05-03T07:31:21.776Z</time></trkpt><trkpt lat="39.8426004" lon="8.8357502"><ele>320.83333333333337</ele><time>2026-05-03T07:31:22.775Z</time></trkpt><trkpt lat="39.8424859" lon="8.8358114"><ele>321.6666666666667</ele><time>2026-05-03T07:31:24.775Z</time></trkpt><trkpt lat="39.8424242" lon="8.8358412"><ele>322.5</ele><time>2026-05-03T07:31:25.777Z</time></trkpt><trkpt lat="39.8423635" lon="8.8358682"><ele>323.3333333333333</ele><time>2026-05-03T07:31:26.775Z</time></trkpt><trkpt lat="39.842297" lon="8.8358987"><ele>324.16666666666663</ele><time>2026-05-03T07:31:27.777Z</time></trkpt><trkpt lat="39.8422343" lon="8.8359213"><ele>325.0</ele><time>2026-05-03T07:31:28.775Z</time></trkpt><trkpt lat="39.8421661" lon="8.8359573"><ele>325.4285714285714</ele><time>2026-05-03T07:31:29.777Z</time></trkpt><trkpt lat="39.8420958" lon="8.8359879"><ele>325.8571428571429</ele><time>2026-05-03T07:31:30.776Z</time></trkpt><trkpt lat="39.8420142" lon="8.8360047"><ele>326.2857142857143</ele><time>2026-05-03T07:31:31.775Z</time></trkpt><trkpt lat="39.8419367" lon="8.8360194"><ele>326.71428571428567</ele><time>2026-05-03T07:31:32.776Z</time></trkpt><trkpt lat="39.8418695" lon="8.8360246"><ele>327.1428571428571</ele><time>2026-05-03T07:31:33.777Z</time></trkpt><trkpt lat="39.8417992" lon="8.8360259"><ele>327.57142857142856</ele><time>2026-05-03T07:31:34.777Z</time></trkpt><trkpt lat="39.8417335" lon="8.8360259"><ele>328.0</ele><time>2026-05-03T07:31:35.776Z</time></trkpt><trkpt lat="39.8416162" lon="8.8360252"><ele>328.0</ele><time>2026-05-03T07:31:37.775Z</time></trkpt><trkpt lat="39.8415524" lon="8.8360197"><ele>328.0</ele><time>2026-05-03T07:31:38.777Z</time></trkpt><trkpt lat="39.8414319" lon="8.836001"><ele>328.0</ele><time>2026-05-03T07:31:40.776Z</time></trkpt><trkpt lat="39.8413578" lon="8.8359907"><ele>328.0</ele><time>2026-05-03T07:31:41.776Z</time></trkpt><trkpt lat="39.8412856" lon="8.8359842"><ele>328.0</ele><time>2026-05-03T07:31:42.777Z</time></trkpt><trkpt lat="39.8412111" lon="8.8359822"><ele>328.0</ele><time>2026-05-03T07:31:43.776Z</time></trkpt><trkpt lat="39.8411322" lon="8.8359847"><ele>327.99999999999994</ele><time>2026-05-03T07:31:44.78Z</time></trkpt><trkpt lat="39.8410495" lon="8.8359908"><ele>328.0</ele><time>2026-05-03T07:31:45.777Z</time></trkpt><trkpt lat="39.8409668" lon="8.8359956"><ele>328.0</ele><time>2026-05-03T07:31:46.775Z</time></trkpt><trkpt lat="39.8408947" lon="8.8359976"><ele>328.0</ele><time>2026-05-03T07:31:47.776Z</time></trkpt><trkpt lat="39.8408303" lon="8.8359823"><ele>328.0</ele><time>2026-05-03T07:31:48.777Z</time></trkpt><trkpt lat="39.8407668" lon="8.8359574"><ele>327.99999999999994</ele><time>2026-05-03T07:31:49.776Z</time></trkpt><trkpt lat="39.840706" lon="8.835934"><ele>328.0</ele><time>2026-05-03T07:31:50.774Z</time></trkpt><trkpt lat="39.8406423" lon="8.835927"><ele>329.3333333333333</ele><time>2026-05-03T07:31:51.777Z</time></trkpt><trkpt lat="39.8405693" lon="8.8359374"><ele>330.66666666666663</ele><time>2026-05-03T07:31:52.776Z</time></trkpt><trkpt lat="39.8404875" lon="8.835948"><ele>332.0</ele><time>2026-05-03T07:31:53.776Z</time></trkpt><trkpt lat="39.8404036" lon="8.8359555"><ele>333.3333333333333</ele><time>2026-05-03T07:31:54.776Z</time></trkpt><trkpt lat="39.8403297" lon="8.835961"><ele>334.6666666666667</ele><time>2026-05-03T07:31:55.775Z</time></trkpt><trkpt lat="39.8402568" lon="8.835962"><ele>336.0</ele><time>2026-05-03T07:31:56.776Z</time></trkpt><trkpt lat="39.8401799" lon="8.8359539"><ele>335.20000000000005</ele><time>2026-05-03T07:31:57.777Z</time></trkpt><trkpt lat="39.8400996" lon="8.8359293"><ele>334.40000000000003</ele><time>2026-05-03T07:31:58.776Z</time></trkpt><trkpt lat="39.8400121" lon="8.8358803"><ele>333.6</ele><time>2026-05-03T07:31:59.776Z</time></trkpt><trkpt lat="39.8399242" lon="8.8358189"><ele>332.8</ele><time>2026-05-03T07:32:00.775Z</time></trkpt><trkpt lat="39.8398228" lon="8.8357746"><ele>332.0</ele><time>2026-05-03T07:32:01.775Z</time></trkpt><trkpt lat="39.8397138" lon="8.8357567"><ele>332.0</ele><time>2026-05-03T07:32:02.774Z</time></trkpt><trkpt lat="39.8396024" lon="8.835753"><ele>332.0</ele><time>2026-05-03T07:32:03.776Z</time></trkpt><trkpt lat="39.83949" lon="8.8357504"><ele>332.0</ele><time>2026-05-03T07:32:04.777Z</time></trkpt><trkpt lat="39.8393701" lon="8.8357425"><ele>332.0</ele><time>2026-05-03T07:32:05.777Z</time></trkpt><trkpt lat="39.8392433" lon="8.8357472"><ele>331.5</ele><time>2026-05-03T07:32:06.776Z</time></trkpt><trkpt lat="39.8391184" lon="8.8357569"><ele>331.0</ele><time>2026-05-03T07:32:07.777Z</time></trkpt><trkpt lat="39.8389984" lon="8.8357946"><ele>330.5</ele><time>2026-05-03T07:32:08.775Z</time></trkpt><trkpt lat="39.8388752" lon="8.8358394"><ele>330.0</ele><time>2026-05-03T07:32:09.776Z</time></trkpt><trkpt lat="39.8387479" lon="8.8358776"><ele>330.0</ele><time>2026-05-03T07:32:10.777Z</time></trkpt><trkpt lat="39.8386229" lon="8.835906"><ele>330.0</ele><time>2026-05-03T07:32:11.777Z</time></trkpt><trkpt lat="39.8385051" lon="8.8359444"><ele>330.0</ele><time>2026-05-03T07:32:12.776Z</time></trkpt><trkpt lat="39.8383783" lon="8.8360027"><ele>330.0</ele><time>2026-05-03T07:32:13.777Z</time></trkpt><trkpt lat="39.8382542" lon="8.8360727"><ele>329.0</ele><time>2026-05-03T07:32:14.777Z</time></trkpt><trkpt lat="39.8381513" lon="8.8361473"><ele>328.0</ele><time>2026-05-03T07:32:15.777Z</time></trkpt><trkpt lat="39.8380523" lon="8.8362227"><ele>327.0</ele><time>2026-05-03T07:32:16.776Z</time></trkpt><trkpt lat="39.8379612" lon="8.8362986"><ele>326.0</ele><time>2026-05-03T07:32:17.777Z</time></trkpt><trkpt lat="39.837859" lon="8.8363677"><ele>326.0</ele><time>2026-05-03T07:32:18.776Z</time></trkpt><trkpt lat="39.8377451" lon="8.8364409"><ele>326.0</ele><time>2026-05-03T07:32:19.776Z</time></trkpt><trkpt lat="39.8376261" lon="8.8365101"><ele>326.0</ele><time>2026-05-03T07:32:20.775Z</time></trkpt><trkpt lat="39.8375141" lon="8.8365756"><ele>326.0</ele><time>2026-05-03T07:32:21.775Z</time></trkpt><trkpt lat="39.8374067" lon="8.8366306"><ele>326.20000000000005</ele><time>2026-05-03T07:32:22.775Z</time></trkpt><trkpt lat="39.8373015" lon="8.8366846"><ele>326.40000000000003</ele><time>2026-05-03T07:32:23.776Z</time></trkpt><trkpt lat="39.8372063" lon="8.8367443"><ele>326.6</ele><time>2026-05-03T07:32:24.777Z</time></trkpt><trkpt lat="39.8371071" lon="8.8368149"><ele>326.8</ele><time>2026-05-03T07:32:25.775Z</time></trkpt><trkpt lat="39.8370098" lon="8.8368958"><ele>327.0</ele><time>2026-05-03T07:32:26.775Z</time></trkpt><trkpt lat="39.8369045" lon="8.8369826"><ele>327.25</ele><time>2026-05-03T07:32:27.775Z</time></trkpt><trkpt lat="39.8367937" lon="8.8370676"><ele>327.5</ele><time>2026-05-03T07:32:28.775Z</time></trkpt><trkpt lat="39.8366759" lon="8.8371421"><ele>327.75</ele><time>2026-05-03T07:32:29.776Z</time></trkpt><trkpt lat="39.836555" lon="8.8371933"><ele>328.0</ele><time>2026-05-03T07:32:30.775Z</time></trkpt><trkpt lat="39.8364324" lon="8.8372357"><ele>328.0</ele><time>2026-05-03T07:32:31.776Z</time></trkpt><trkpt lat="39.8363046" lon="8.837251"><ele>328.0</ele><time>2026-05-03T07:32:32.776Z</time></trkpt><trkpt lat="39.8361757" lon="8.8372448"><ele>328.0</ele><time>2026-05-03T07:32:33.777Z</time></trkpt><trkpt lat="39.8360489" lon="8.8372308"><ele>328.0</ele><time>2026-05-03T07:32:34.776Z</time></trkpt><trkpt lat="39.835917" lon="8.8372279"><ele>329.25</ele><time>2026-05-03T07:32:35.775Z</time></trkpt><trkpt lat="39.8357844" lon="8.8372364"><ele>330.5</ele><time>2026-05-03T07:32:36.776Z</time></trkpt><trkpt lat="39.8356403" lon="8.8372761"><ele>331.75</ele><time>2026-05-03T07:32:37.776Z</time></trkpt><trkpt lat="39.8354943" lon="8.8373156"><ele>333.0</ele><time>2026-05-03T07:32:38.776Z</time></trkpt><trkpt lat="39.8353454" lon="8.8373596"><ele>333.0</ele><time>2026-05-03T07:32:39.776Z</time></trkpt><trkpt lat="39.8351974" lon="8.837395"><ele>333.0</ele><time>2026-05-03T07:32:40.776Z</time></trkpt><trkpt lat="39.8350502" lon="8.8374221"><ele>333.0</ele><time>2026-05-03T07:32:41.777Z</time></trkpt><trkpt lat="39.8349082" lon="8.8374469"><ele>333.0</ele><time>2026-05-03T07:32:42.776Z</time></trkpt><trkpt lat="39.8347647" lon="8.8374579"><ele>333.5</ele><time>2026-05-03T07:32:43.775Z</time></trkpt><trkpt lat="39.834625" lon="8.8374543"><ele>334.0</ele><time>2026-05-03T07:32:44.776Z</time></trkpt><trkpt lat="39.8344784" lon="8.8374561"><ele>334.5</ele><time>2026-05-03T07:32:45.775Z</time></trkpt><trkpt lat="39.8343337" lon="8.8374648"><ele>335.0</ele><time>2026-05-03T07:32:46.777Z</time></trkpt><trkpt lat="39.8341871" lon="8.8374731"><ele>335.75</ele><time>2026-05-03T07:32:47.777Z</time></trkpt><trkpt lat="39.8340449" lon="8.8374678"><ele>336.5</ele><time>2026-05-03T07:32:48.775Z</time></trkpt><trkpt lat="39.8339105" lon="8.8374715"><ele>337.25</ele><time>2026-05-03T07:32:49.775Z</time></trkpt><trkpt lat="39.8337809" lon="8.8374904"><ele>338.0</ele><time>2026-05-03T07:32:50.777Z</time></trkpt><trkpt lat="39.833651" lon="8.8375267"><ele>338.0</ele><time>2026-05-03T07:32:51.774Z</time></trkpt><trkpt lat="39.8335257" lon="8.8375705"><ele>338.0</ele><time>2026-05-03T07:32:52.776Z</time></trkpt><trkpt lat="39.8334042" lon="8.8376299"><ele>338.0</ele><time>2026-05-03T07:32:53.776Z</time></trkpt><trkpt lat="39.8332988" lon="8.8377076"><ele>338.0</ele><time>2026-05-03T07:32:54.776Z</time></trkpt><trkpt lat="39.8332029" lon="8.8377737"><ele>338.79999999999995</ele><time>2026-05-03T07:32:55.775Z</time></trkpt><trkpt lat="39.8331128" lon="8.837798"><ele>339.6</ele><time>2026-05-03T07:32:56.775Z</time></trkpt><trkpt lat="39.8330069" lon="8.8377825"><ele>340.4</ele><time>2026-05-03T07:32:57.776Z</time></trkpt><trkpt lat="39.8328927" lon="8.8377438"><ele>341.20000000000005</ele><time>2026-05-03T07:32:58.775Z</time></trkpt><trkpt lat="39.8327663" lon="8.8376984"><ele>342.0</ele><time>2026-05-03T07:32:59.777Z</time></trkpt><trkpt lat="39.8326336" lon="8.837653"><ele>341.75</ele><time>2026-05-03T07:33:00.775Z</time></trkpt><trkpt lat="39.8325003" lon="8.8376058"><ele>341.5</ele><time>2026-05-03T07:33:01.777Z</time></trkpt><trkpt lat="39.832369" lon="8.8375625"><ele>341.25</ele><time>2026-05-03T07:33:02.776Z</time></trkpt><trkpt lat="39.8322283" lon="8.837508"><ele>341.0</ele><time>2026-05-03T07:33:03.776Z</time></trkpt><trkpt lat="39.8320936" lon="8.8374477"><ele>341.0</ele><time>2026-05-03T07:33:04.777Z</time></trkpt><trkpt lat="39.8319533" lon="8.8373893"><ele>341.0</ele><time>2026-05-03T07:33:05.775Z</time></trkpt><trkpt lat="39.8318169" lon="8.8373286"><ele>341.0</ele><time>2026-05-03T07:33:06.776Z</time></trkpt><trkpt lat="39.8316787" lon="8.8372764"><ele>341.0</ele><time>2026-05-03T07:33:07.776Z</time></trkpt><trkpt lat="39.8315483" lon="8.837232"><ele>341.5</ele><time>2026-05-03T07:33:08.777Z</time></trkpt><trkpt lat="39.8314167" lon="8.8371844"><ele>342.0</ele><time>2026-05-03T07:33:09.774Z</time></trkpt><trkpt lat="39.8312865" lon="8.837149"><ele>342.5</ele><time>2026-05-03T07:33:10.775Z</time></trkpt><trkpt lat="39.8311484" lon="8.8370965"><ele>343.0</ele><time>2026-05-03T07:33:11.776Z</time></trkpt><trkpt lat="39.8310131" lon="8.8370485"><ele>342.25</ele><time>2026-05-03T07:33:12.775Z</time></trkpt><trkpt lat="39.8308793" lon="8.8370172"><ele>341.5</ele><time>2026-05-03T07:33:13.776Z</time></trkpt><trkpt lat="39.83074" lon="8.8370073"><ele>340.75</ele><time>2026-05-03T07:33:14.776Z</time></trkpt><trkpt lat="39.8305983" lon="8.8370022"><ele>340.0</ele><time>2026-05-03T07:33:15.776Z</time></trkpt><trkpt lat="39.8304527" lon="8.8370024"><ele>340.0</ele><time>2026-05-03T07:33:16.776Z</time></trkpt><trkpt lat="39.8303075" lon="8.8370049"><ele>340.0</ele><time>2026-05-03T07:33:17.775Z</time></trkpt><trkpt lat="39.8301628" lon="8.8370046"><ele>340.0</ele><time>2026-05-03T07:33:18.777Z</time></trkpt><trkpt lat="39.830029" lon="8.8370153"><ele>340.0</ele><time>2026-05-03T07:33:19.777Z</time></trkpt><trkpt lat="39.8299028" lon="8.8370406"><ele>340.0</ele><time>2026-05-03T07:33:20.776Z</time></trkpt><trkpt lat="39.8297893" lon="8.8370777"><ele>340.0</ele><time>2026-05-03T07:33:21.775Z</time></trkpt><trkpt lat="39.8296791" lon="8.8371201"><ele>340.0</ele><time>2026-05-03T07:33:22.776Z</time></trkpt><trkpt lat="39.8295787" lon="8.8371677"><ele>340.0</ele><time>2026-05-03T07:33:23.776Z</time></trkpt><trkpt lat="39.829484" lon="8.837246"><ele>340.0</ele><time>2026-05-03T07:33:24.775Z</time></trkpt><trkpt lat="39.8293853" lon="8.8373337"><ele>340.0</ele><time>2026-05-03T07:33:25.777Z</time></trkpt><trkpt lat="39.8292863" lon="8.8374377"><ele>340.0</ele><time>2026-05-03T07:33:26.776Z</time></trkpt><trkpt lat="39.829184" lon="8.8375191"><ele>340.0</ele><time>2026-05-03T07:33:27.777Z</time></trkpt><trkpt lat="39.8290621" lon="8.8375993"><ele>339.0</ele><time>2026-05-03T07:33:28.777Z</time></trkpt><trkpt lat="39.8289349" lon="8.8376538"><ele>338.0</ele><time>2026-05-03T07:33:29.775Z</time></trkpt><trkpt lat="39.8288112" lon="8.8376963"><ele>337.0</ele><time>2026-05-03T07:33:30.777Z</time></trkpt><trkpt lat="39.8287047" lon="8.8377318"><ele>336.0</ele><time>2026-05-03T07:33:31.776Z</time></trkpt><trkpt lat="39.828615" lon="8.837761"><ele>336.0</ele><time>2026-05-03T07:33:32.776Z</time></trkpt><trkpt lat="39.8285091" lon="8.8377845"><ele>336.0</ele><time>2026-05-03T07:33:34.777Z</time></trkpt><trkpt lat="39.8284384" lon="8.8377869"><ele>336.0</ele><time>2026-05-03T07:33:35.775Z</time></trkpt><trkpt lat="39.8283648" lon="8.8377846"><ele>336.0</ele><time>2026-05-03T07:33:36.775Z</time></trkpt><trkpt lat="39.8282635" lon="8.8377927"><ele>336.0</ele><time>2026-05-03T07:33:38.775Z</time></trkpt><trkpt lat="39.8281965" lon="8.8377904"><ele>336.0</ele><time>2026-05-03T07:33:41.776Z</time></trkpt><trkpt lat="39.8281216" lon="8.837812"><ele>335.4</ele><time>2026-05-03T07:33:48.776Z</time></trkpt><trkpt lat="39.8279922" lon="8.8378604"><ele>334.8</ele><time>2026-05-03T07:33:50.776Z</time></trkpt><trkpt lat="39.827926" lon="8.8379141"><ele>334.2</ele><time>2026-05-03T07:33:51.776Z</time></trkpt><trkpt lat="39.8278539" lon="8.8379694"><ele>333.59999999999997</ele><time>2026-05-03T07:33:52.777Z</time></trkpt><trkpt lat="39.8277784" lon="8.8380261"><ele>333.0</ele><time>2026-05-03T07:33:53.776Z</time></trkpt><trkpt lat="39.8277009" lon="8.8380781"><ele>332.79999999999995</ele><time>2026-05-03T07:33:54.776Z</time></trkpt><trkpt lat="39.8276143" lon="8.8381405"><ele>332.6</ele><time>2026-05-03T07:33:55.774Z</time></trkpt><trkpt lat="39.8275209" lon="8.8382037"><ele>332.4</ele><time>2026-05-03T07:33:56.776Z</time></trkpt><trkpt lat="39.8274297" lon="8.838261"><ele>332.20000000000005</ele><time>2026-05-03T07:33:57.776Z</time></trkpt><trkpt lat="39.8273364" lon="8.8383067"><ele>332.0</ele><time>2026-05-03T07:33:58.775Z</time></trkpt><trkpt lat="39.8272366" lon="8.8383541"><ele>332.0</ele><time>2026-05-03T07:33:59.776Z</time></trkpt><trkpt lat="39.8271351" lon="8.8383935"><ele>332.0</ele><time>2026-05-03T07:34:00.776Z</time></trkpt><trkpt lat="39.8270342" lon="8.8384385"><ele>332.0</ele><time>2026-05-03T07:34:01.776Z</time></trkpt><trkpt lat="39.8269341" lon="8.8384872"><ele>332.0</ele><time>2026-05-03T07:34:02.775Z</time></trkpt><trkpt lat="39.8268269" lon="8.8385361"><ele>332.0</ele><time>2026-05-03T07:34:03.777Z</time></trkpt><trkpt lat="39.8267042" lon="8.8385872"><ele>331.20000000000005</ele><time>2026-05-03T07:34:04.776Z</time></trkpt><trkpt lat="39.8265976" lon="8.8386306"><ele>330.4</ele><time>2026-05-03T07:34:05.775Z</time></trkpt><trkpt lat="39.8264933" lon="8.8386706"><ele>329.6</ele><time>2026-05-03T07:34:06.776Z</time></trkpt><trkpt lat="39.8263832" lon="8.8387106"><ele>328.79999999999995</ele><time>2026-05-03T07:34:07.776Z</time></trkpt><trkpt lat="39.826285" lon="8.8387455"><ele>328.0</ele><time>2026-05-03T07:34:08.776Z</time></trkpt><trkpt lat="39.8262008" lon="8.8387827"><ele>328.0</ele><time>2026-05-03T07:34:09.776Z</time></trkpt><trkpt lat="39.8261295" lon="8.8388275"><ele>328.0</ele><time>2026-05-03T07:34:10.775Z</time></trkpt><trkpt lat="39.8260644" lon="8.8388628"><ele>328.0</ele><time>2026-05-03T07:34:11.776Z</time></trkpt><trkpt lat="39.8260004" lon="8.8389076"><ele>328.0</ele><time>2026-05-03T07:34:12.775Z</time></trkpt><trkpt lat="39.825935" lon="8.8389617"><ele>328.0</ele><time>2026-05-03T07:34:13.776Z</time></trkpt><trkpt lat="39.8258616" lon="8.8390184"><ele>328.0</ele><time>2026-05-03T07:34:14.776Z</time></trkpt><trkpt lat="39.8257935" lon="8.839069"><ele>328.0</ele><time>2026-05-03T07:34:15.777Z</time></trkpt><trkpt lat="39.8257193" lon="8.8391165"><ele>328.0</ele><time>2026-05-03T07:34:16.776Z</time></trkpt><trkpt lat="39.8256398" lon="8.8391677"><ele>328.0</ele><time>2026-05-03T07:34:17.777Z</time></trkpt><trkpt lat="39.8255597" lon="8.839216"><ele>328.0</ele><time>2026-05-03T07:34:18.776Z</time></trkpt><trkpt lat="39.8254708" lon="8.8392685"><ele>328.0</ele><time>2026-05-03T07:34:19.776Z</time></trkpt><trkpt lat="39.8253809" lon="8.8393121"><ele>327.2</ele><time>2026-05-03T07:34:20.776Z</time></trkpt><trkpt lat="39.8253045" lon="8.8393444"><ele>326.4</ele><time>2026-05-03T07:34:21.776Z</time></trkpt><trkpt lat="39.8252245" lon="8.8393831"><ele>325.59999999999997</ele><time>2026-05-03T07:34:22.776Z</time></trkpt><trkpt lat="39.8251365" lon="8.8394288"><ele>324.79999999999995</ele><time>2026-05-03T07:34:23.777Z</time></trkpt><trkpt lat="39.8250441" lon="8.8394803"><ele>324.0</ele><time>2026-05-03T07:34:24.776Z</time></trkpt><trkpt lat="39.824954" lon="8.8395315"><ele>323.3333333333333</ele><time>2026-05-03T07:34:25.776Z</time></trkpt><trkpt lat="39.8248773" lon="8.8395735"><ele>322.6666666666667</ele><time>2026-05-03T07:34:26.776Z</time></trkpt><trkpt lat="39.8248047" lon="8.8396085"><ele>322.0</ele><time>2026-05-03T07:34:27.776Z</time></trkpt><trkpt lat="39.8246848" lon="8.8396606"><ele>321.33333333333337</ele><time>2026-05-03T07:34:29.776Z</time></trkpt><trkpt lat="39.8246142" lon="8.839698"><ele>320.6666666666667</ele><time>2026-05-03T07:34:30.776Z</time></trkpt><trkpt lat="39.8245444" lon="8.8397375"><ele>320.0</ele><time>2026-05-03T07:34:31.776Z</time></trkpt><trkpt lat="39.8244841" lon="8.839778"><ele>320.0</ele><time>2026-05-03T07:34:32.777Z</time></trkpt><trkpt lat="39.8244283" lon="8.8398197"><ele>320.0</ele><time>2026-05-03T07:34:33.776Z</time></trkpt><trkpt lat="39.8243651" lon="8.8398712"><ele>320.0</ele><time>2026-05-03T07:34:34.777Z</time></trkpt><trkpt lat="39.8242822" lon="8.8399849"><ele>320.0</ele><time>2026-05-03T07:34:36.776Z</time></trkpt><trkpt lat="39.824197" lon="8.8400615"><ele>320.0</ele><time>2026-05-03T07:34:38.776Z</time></trkpt><trkpt lat="39.8241373" lon="8.8400905"><ele>320.0</ele><time>2026-05-03T07:34:39.776Z</time></trkpt><trkpt lat="39.8240342" lon="8.8401463"><ele>318.83333333333337</ele><time>2026-05-03T07:34:41.775Z</time></trkpt><trkpt lat="39.8239297" lon="8.840217"><ele>317.6666666666667</ele><time>2026-05-03T07:34:43.776Z</time></trkpt><trkpt lat="39.8238599" lon="8.8402634"><ele>316.5</ele><time>2026-05-03T07:34:44.776Z</time></trkpt><trkpt lat="39.8237964" lon="8.8403146"><ele>315.3333333333333</ele><time>2026-05-03T07:34:45.776Z</time></trkpt><trkpt lat="39.8237364" lon="8.8403676"><ele>314.16666666666663</ele><time>2026-05-03T07:34:46.777Z</time></trkpt><trkpt lat="39.8236758" lon="8.8404207"><ele>313.0</ele><time>2026-05-03T07:34:47.776Z</time></trkpt><trkpt lat="39.8236134" lon="8.8404741"><ele>313.0</ele><time>2026-05-03T07:34:48.775Z</time></trkpt><trkpt lat="39.8235533" lon="8.840528"><ele>313.0</ele><time>2026-05-03T07:34:49.777Z</time></trkpt><trkpt lat="39.8234952" lon="8.8405885"><ele>313.0</ele><time>2026-05-03T07:34:50.776Z</time></trkpt><trkpt lat="39.8234427" lon="8.8406393"><ele>313.0</ele><time>2026-05-03T07:34:51.777Z</time></trkpt><trkpt lat="39.8233573" lon="8.8407361"><ele>313.0</ele><time>2026-05-03T07:34:53.776Z</time></trkpt><trkpt lat="39.8232636" lon="8.8408388"><ele>313.0</ele><time>2026-05-03T07:34:55.775Z</time></trkpt><trkpt lat="39.8232117" lon="8.8408944"><ele>311.0</ele><time>2026-05-03T07:34:56.777Z</time></trkpt><trkpt lat="39.8231195" lon="8.8410106"><ele>309.0</ele><time>2026-05-03T07:34:58.775Z</time></trkpt><trkpt lat="39.8230358" lon="8.8411045"><ele>307.0</ele><time>2026-05-03T07:35:00.776Z</time></trkpt><trkpt lat="39.8229496" lon="8.8411915"><ele>305.0</ele><time>2026-05-03T07:35:02.776Z</time></trkpt><trkpt lat="39.8228688" lon="8.8413058"><ele>305.0</ele><time>2026-05-03T07:35:04.776Z</time></trkpt><trkpt lat="39.8227852" lon="8.8413887"><ele>305.0</ele><time>2026-05-03T07:35:06.775Z</time></trkpt><trkpt lat="39.8227373" lon="8.8414448"><ele>305.0</ele><time>2026-05-03T07:35:07.776Z</time></trkpt><trkpt lat="39.8226562" lon="8.8415215"><ele>305.0</ele><time>2026-05-03T07:35:09.777Z</time></trkpt><trkpt lat="39.8225847" lon="8.8416244"><ele>305.0</ele><time>2026-05-03T07:35:11.776Z</time></trkpt><trkpt lat="39.8225275" lon="8.8416937"><ele>304.2</ele><time>2026-05-03T07:35:12.777Z</time></trkpt><trkpt lat="39.8224755" lon="8.8417586"><ele>303.4</ele><time>2026-05-03T07:35:13.776Z</time></trkpt><trkpt lat="39.8223841" lon="8.8418803"><ele>302.6</ele><time>2026-05-03T07:35:15.777Z</time></trkpt><trkpt lat="39.8223321" lon="8.8419559"><ele>301.8</ele><time>2026-05-03T07:35:16.777Z</time></trkpt><trkpt lat="39.8222492" lon="8.8420676"><ele>301.0</ele><time>2026-05-03T07:35:18.776Z</time></trkpt><trkpt lat="39.8222051" lon="8.8421266"><ele>300.0</ele><time>2026-05-03T07:35:19.776Z</time></trkpt><trkpt lat="39.8221235" lon="8.8422378"><ele>299.0</ele><time>2026-05-03T07:35:21.776Z</time></trkpt><trkpt lat="39.8220002" lon="8.8423889"><ele>298.0</ele><time>2026-05-03T07:35:24.777Z</time></trkpt><trkpt lat="39.8219179" lon="8.842482"><ele>297.0</ele><time>2026-05-03T07:35:26.775Z</time></trkpt><trkpt lat="39.821787" lon="8.842617"><ele>295.8</ele><time>2026-05-03T07:35:29.776Z</time></trkpt><trkpt lat="39.8216831" lon="8.8427001"><ele>294.6</ele><time>2026-05-03T07:35:31.777Z</time></trkpt><trkpt lat="39.8216251" lon="8.8427451"><ele>293.40000000000003</ele><time>2026-05-03T07:35:32.775Z</time></trkpt><trkpt lat="39.8215287" lon="8.8428321"><ele>292.2</ele><time>2026-05-03T07:35:34.776Z</time></trkpt><trkpt lat="39.8214762" lon="8.8428845"><ele>291.0</ele><time>2026-05-03T07:35:35.777Z</time></trkpt><trkpt lat="39.8213877" lon="8.8429887"><ele>291.0</ele><time>2026-05-03T07:35:37.777Z</time></trkpt><trkpt lat="39.8212887" lon="8.8430759"><ele>291.0</ele><time>2026-05-03T07:35:39.775Z</time></trkpt><trkpt lat="39.8212314" lon="8.8431214"><ele>291.0</ele><time>2026-05-03T07:35:40.776Z</time></trkpt><trkpt lat="39.8211331" lon="8.8432033"><ele>291.0</ele><time>2026-05-03T07:35:42.777Z</time></trkpt><trkpt lat="39.8210493" lon="8.8432803"><ele>291.0</ele><time>2026-05-03T07:35:44.776Z</time></trkpt><trkpt lat="39.8209912" lon="8.8433459"><ele>291.0</ele><time>2026-05-03T07:35:46.777Z</time></trkpt><trkpt lat="39.8210547" lon="8.8433679"><ele>291.0</ele><time>2026-05-03T07:47:21.775Z</time></trkpt><trkpt lat="39.8209846" lon="8.843347"><ele>291.0</ele><time>2026-05-03T07:47:25.776Z</time></trkpt><trkpt lat="39.8209125" lon="8.8434131"><ele>291.0</ele><time>2026-05-03T07:47:27.773Z</time></trkpt><trkpt lat="39.8208508" lon="8.8434788"><ele>291.0</ele><time>2026-05-03T07:47:29.773Z</time></trkpt><trkpt lat="39.8207841" lon="8.8435421"><ele>291.0</ele><time>2026-05-03T07:47:31.774Z</time></trkpt><trkpt lat="39.8207195" lon="8.8435981"><ele>289.7142857142857</ele><time>2026-05-03T07:47:33.773Z</time></trkpt><trkpt lat="39.8206639" lon="8.8436702"><ele>288.4285714285714</ele><time>2026-05-03T07:47:35.774Z</time></trkpt><trkpt lat="39.8205991" lon="8.8437277"><ele>287.1428571428571</ele><time>2026-05-03T07:47:37.774Z</time></trkpt><trkpt lat="39.8205374" lon="8.8437648"><ele>285.85714285714283</ele><time>2026-05-03T07:47:39.773Z</time></trkpt><trkpt lat="39.8204793" lon="8.8438144"><ele>284.57142857142856</ele><time>2026-05-03T07:47:41.774Z</time></trkpt><trkpt lat="39.8204215" lon="8.8438599"><ele>283.2857142857143</ele><time>2026-05-03T07:47:43.773Z</time></trkpt><trkpt lat="39.8203541" lon="8.8439005"><ele>282.0</ele><time>2026-05-03T07:47:45.733Z</time></trkpt><trkpt lat="39.8202616" lon="8.843983"><ele>282.0</ele><time>2026-05-03T07:47:47.774Z</time></trkpt><trkpt lat="39.8201778" lon="8.8440736"><ele>282.0</ele><time>2026-05-03T07:47:49.773Z</time></trkpt><trkpt lat="39.8200819" lon="8.8441592"><ele>282.0</ele><time>2026-05-03T07:47:51.773Z</time></trkpt><trkpt lat="39.8200242" lon="8.8442119"><ele>282.0</ele><time>2026-05-03T07:47:52.774Z</time></trkpt><trkpt lat="39.8199622" lon="8.844269"><ele>282.0</ele><time>2026-05-03T07:47:53.775Z</time></trkpt><trkpt lat="39.8199063" lon="8.8443185"><ele>282.0</ele><time>2026-05-03T07:47:54.773Z</time></trkpt><trkpt lat="39.8198229" lon="8.8443895"><ele>281.0</ele><time>2026-05-03T07:47:56.775Z</time></trkpt><trkpt lat="39.81974" lon="8.8444537"><ele>280.0</ele><time>2026-05-03T07:47:58.774Z</time></trkpt><trkpt lat="39.8196615" lon="8.8445184"><ele>279.0</ele><time>2026-05-03T07:48:00.774Z</time></trkpt><trkpt lat="39.8195933" lon="8.8445715"><ele>278.0</ele><time>2026-05-03T07:48:02.774Z</time></trkpt><trkpt lat="39.8195305" lon="8.8446391"><ele>277.0</ele><time>2026-05-03T07:48:04.775Z</time></trkpt><trkpt lat="39.819462" lon="8.8447111"><ele>276.0</ele><time>2026-05-03T07:48:06.774Z</time></trkpt><trkpt lat="39.8193834" lon="8.8447846"><ele>275.8</ele><time>2026-05-03T07:48:08.774Z</time></trkpt><trkpt lat="39.8193013" lon="8.8448505"><ele>275.6</ele><time>2026-05-03T07:48:10.774Z</time></trkpt><trkpt lat="39.8192168" lon="8.844914"><ele>275.4</ele><time>2026-05-03T07:48:12.775Z</time></trkpt><trkpt lat="39.819124" lon="8.8450026"><ele>275.2</ele><time>2026-05-03T07:48:14.774Z</time></trkpt><trkpt lat="39.819036" lon="8.8450898"><ele>275.0</ele><time>2026-05-03T07:48:16.774Z</time></trkpt><trkpt lat="39.8189545" lon="8.8451757"><ele>274.5</ele><time>2026-05-03T07:48:18.774Z</time></trkpt><trkpt lat="39.8188694" lon="8.845243"><ele>274.0</ele><time>2026-05-03T07:48:20.773Z</time></trkpt><trkpt lat="39.8187671" lon="8.8453264"><ele>273.5</ele><time>2026-05-03T07:48:22.773Z</time></trkpt><trkpt lat="39.8187075" lon="8.8453655"><ele>273.0</ele><time>2026-05-03T07:48:23.774Z</time></trkpt><trkpt lat="39.8186516" lon="8.8454061"><ele>272.5</ele><time>2026-05-03T07:48:24.775Z</time></trkpt><trkpt lat="39.8185976" lon="8.8454575"><ele>272.0</ele><time>2026-05-03T07:48:25.775Z</time></trkpt><trkpt lat="39.8185377" lon="8.8455219"><ele>271.83333333333337</ele><time>2026-05-03T07:48:26.774Z</time></trkpt><trkpt lat="39.8184829" lon="8.8455706"><ele>271.6666666666667</ele><time>2026-05-03T07:48:27.773Z</time></trkpt><trkpt lat="39.8183719" lon="8.8456456"><ele>271.5</ele><time>2026-05-03T07:48:29.773Z</time></trkpt><trkpt lat="39.8183116" lon="8.8456917"><ele>271.3333333333333</ele><time>2026-05-03T07:48:30.774Z</time></trkpt><trkpt lat="39.8182505" lon="8.8457413"><ele>271.16666666666663</ele><time>2026-05-03T07:48:31.774Z</time></trkpt><trkpt lat="39.8181918" lon="8.845799"><ele>271.0</ele><time>2026-05-03T07:48:32.773Z</time></trkpt><trkpt lat="39.8181318" lon="8.8458741"><ele>271.0</ele><time>2026-05-03T07:48:33.775Z</time></trkpt><trkpt lat="39.8180728" lon="8.8459406"><ele>271.0</ele><time>2026-05-03T07:48:34.774Z</time></trkpt><trkpt lat="39.8180165" lon="8.846024"><ele>271.0</ele><time>2026-05-03T07:48:35.774Z</time></trkpt><trkpt lat="39.8179656" lon="8.8460985"><ele>271.0</ele><time>2026-05-03T07:48:36.774Z</time></trkpt><trkpt lat="39.8178726" lon="8.8462009"><ele>271.0</ele><time>2026-05-03T07:48:38.774Z</time></trkpt><trkpt lat="39.8178158" lon="8.8462607"><ele>271.0</ele><time>2026-05-03T07:48:39.774Z</time></trkpt><trkpt lat="39.817757" lon="8.8463248"><ele>270.66666666666663</ele><time>2026-05-03T07:48:40.774Z</time></trkpt><trkpt lat="39.8176935" lon="8.8463865"><ele>270.3333333333333</ele><time>2026-05-03T07:48:41.774Z</time></trkpt><trkpt lat="39.817634" lon="8.8464592"><ele>270.0</ele><time>2026-05-03T07:48:42.774Z</time></trkpt><trkpt lat="39.8175722" lon="8.846542"><ele>269.6666666666667</ele><time>2026-05-03T07:48:43.774Z</time></trkpt><trkpt lat="39.8175074" lon="8.8466208"><ele>269.33333333333337</ele><time>2026-05-03T07:48:44.774Z</time></trkpt><trkpt lat="39.817443" lon="8.8466911"><ele>269.0</ele><time>2026-05-03T07:48:45.774Z</time></trkpt><trkpt lat="39.8173842" lon="8.8467699"><ele>268.7142857142857</ele><time>2026-05-03T07:48:46.774Z</time></trkpt><trkpt lat="39.8173264" lon="8.8468509"><ele>268.42857142857144</ele><time>2026-05-03T07:48:47.775Z</time></trkpt><trkpt lat="39.817276" lon="8.8469176"><ele>268.14285714285717</ele><time>2026-05-03T07:48:48.774Z</time></trkpt><trkpt lat="39.8172248" lon="8.8469893"><ele>267.8571428571429</ele><time>2026-05-03T07:48:49.773Z</time></trkpt><trkpt lat="39.8171858" lon="8.847067"><ele>267.57142857142856</ele><time>2026-05-03T07:48:50.774Z</time></trkpt><trkpt lat="39.8171466" lon="8.8471448"><ele>267.28571428571433</ele><time>2026-05-03T07:48:51.775Z</time></trkpt><trkpt lat="39.8171071" lon="8.8472206"><ele>267.0</ele><time>2026-05-03T07:48:52.775Z</time></trkpt><trkpt lat="39.8170646" lon="8.8472875"><ele>267.00000000000006</ele><time>2026-05-03T07:48:53.773Z</time></trkpt><trkpt lat="39.8170152" lon="8.8473555"><ele>267.0</ele><time>2026-05-03T07:48:54.774Z</time></trkpt><trkpt lat="39.8169581" lon="8.8474305"><ele>267.0</ele><time>2026-05-03T07:48:55.773Z</time></trkpt><trkpt lat="39.816901" lon="8.8475062"><ele>267.0</ele><time>2026-05-03T07:48:56.775Z</time></trkpt><trkpt lat="39.8168435" lon="8.8475875"><ele>267.0</ele><time>2026-05-03T07:48:57.775Z</time></trkpt><trkpt lat="39.8167986" lon="8.8476463"><ele>267.00000000000006</ele><time>2026-05-03T07:48:58.776Z</time></trkpt><trkpt lat="39.8167494" lon="8.8476996"><ele>267.0</ele><time>2026-05-03T07:48:59.775Z</time></trkpt><trkpt lat="39.8166865" lon="8.8477438"><ele>266.5</ele><time>2026-05-03T07:49:00.774Z</time></trkpt><trkpt lat="39.8166206" lon="8.8477772"><ele>266.0</ele><time>2026-05-03T07:49:01.775Z</time></trkpt><trkpt lat="39.816548" lon="8.8478041"><ele>265.5</ele><time>2026-05-03T07:49:02.774Z</time></trkpt><trkpt lat="39.8164638" lon="8.84783"><ele>265.0</ele><time>2026-05-03T07:49:03.774Z</time></trkpt><trkpt lat="39.8163818" lon="8.8478554"><ele>264.5</ele><time>2026-05-03T07:49:04.774Z</time></trkpt><trkpt lat="39.8163004" lon="8.8478882"><ele>264.0</ele><time>2026-05-03T07:49:05.773Z</time></trkpt><trkpt lat="39.8162181" lon="8.8479144"><ele>264.0</ele><time>2026-05-03T07:49:06.773Z</time></trkpt><trkpt lat="39.8161302" lon="8.8479422"><ele>264.0</ele><time>2026-05-03T07:49:07.773Z</time></trkpt><trkpt lat="39.8160365" lon="8.8479797"><ele>264.0</ele><time>2026-05-03T07:49:08.775Z</time></trkpt><trkpt lat="39.8159435" lon="8.8480185"><ele>264.0</ele><time>2026-05-03T07:49:09.773Z</time></trkpt><trkpt lat="39.8158525" lon="8.8480626"><ele>264.0</ele><time>2026-05-03T07:49:10.773Z</time></trkpt><trkpt lat="39.8157655" lon="8.8481098"><ele>263.6666666666667</ele><time>2026-05-03T07:49:11.775Z</time></trkpt><trkpt lat="39.8156738" lon="8.8481623"><ele>263.3333333333333</ele><time>2026-05-03T07:49:12.773Z</time></trkpt><trkpt lat="39.8155847" lon="8.8482144"><ele>263.0</ele><time>2026-05-03T07:49:13.774Z</time></trkpt><trkpt lat="39.8155001" lon="8.8482563"><ele>262.66666666666663</ele><time>2026-05-03T07:49:14.774Z</time></trkpt><trkpt lat="39.8154248" lon="8.8482855"><ele>262.3333333333333</ele><time>2026-05-03T07:49:15.775Z</time></trkpt><trkpt lat="39.8153596" lon="8.8483167"><ele>262.0</ele><time>2026-05-03T07:49:16.774Z</time></trkpt><trkpt lat="39.8152721" lon="8.8484162"><ele>261.5</ele><time>2026-05-03T07:49:18.774Z</time></trkpt><trkpt lat="39.8152584" lon="8.8485571"><ele>261.0</ele><time>2026-05-03T07:49:20.773Z</time></trkpt><trkpt lat="39.815275" lon="8.8486369"><ele>260.5</ele><time>2026-05-03T07:49:21.774Z</time></trkpt><trkpt lat="39.8153002" lon="8.8487192"><ele>260.0</ele><time>2026-05-03T07:49:22.775Z</time></trkpt><trkpt lat="39.8153435" lon="8.8488065"><ele>259.5</ele><time>2026-05-03T07:49:23.775Z</time></trkpt><trkpt lat="39.8154003" lon="8.8488935"><ele>259.0</ele><time>2026-05-03T07:49:24.773Z</time></trkpt><trkpt lat="39.815477" lon="8.848984"><ele>259.0</ele><time>2026-05-03T07:49:25.775Z</time></trkpt><trkpt lat="39.8155498" lon="8.8490901"><ele>259.0</ele><time>2026-05-03T07:49:26.774Z</time></trkpt><trkpt lat="39.8156179" lon="8.8491902"><ele>259.0</ele><time>2026-05-03T07:49:27.774Z</time></trkpt><trkpt lat="39.8156764" lon="8.849281"><ele>259.0</ele><time>2026-05-03T07:49:28.774Z</time></trkpt><trkpt lat="39.8157311" lon="8.8493572"><ele>259.0</ele><time>2026-05-03T07:49:29.775Z</time></trkpt><trkpt lat="39.8157833" lon="8.8494145"><ele>258.59999999999997</ele><time>2026-05-03T07:49:30.775Z</time></trkpt><trkpt lat="39.8158215" lon="8.8495491"><ele>258.2</ele><time>2026-05-03T07:49:32.774Z</time></trkpt><trkpt lat="39.8157765" lon="8.8496958"><ele>257.79999999999995</ele><time>2026-05-03T07:49:34.776Z</time></trkpt><trkpt lat="39.8157242" lon="8.8497453"><ele>257.4</ele><time>2026-05-03T07:49:35.773Z</time></trkpt><trkpt lat="39.8156466" lon="8.8497787"><ele>257.0</ele><time>2026-05-03T07:49:36.775Z</time></trkpt><trkpt lat="39.8155444" lon="8.8497918"><ele>257.0</ele><time>2026-05-03T07:49:37.775Z</time></trkpt><trkpt lat="39.8154279" lon="8.8497982"><ele>257.0</ele><time>2026-05-03T07:49:38.773Z</time></trkpt><trkpt lat="39.8152994" lon="8.8498006"><ele>257.0</ele><time>2026-05-03T07:49:39.775Z</time></trkpt><trkpt lat="39.815155" lon="8.8498045"><ele>257.0</ele><time>2026-05-03T07:49:40.774Z</time></trkpt><trkpt lat="39.8149963" lon="8.8498007"><ele>256.6666666666667</ele><time>2026-05-03T07:49:41.775Z</time></trkpt><trkpt lat="39.8148361" lon="8.8498"><ele>256.3333333333333</ele><time>2026-05-03T07:49:42.773Z</time></trkpt><trkpt lat="39.8146576" lon="8.8497984"><ele>256.0</ele><time>2026-05-03T07:49:43.774Z</time></trkpt><trkpt lat="39.814477" lon="8.8497937"><ele>256.3333333333333</ele><time>2026-05-03T07:49:44.773Z</time></trkpt><trkpt lat="39.8142961" lon="8.8497919"><ele>256.6666666666667</ele><time>2026-05-03T07:49:45.774Z</time></trkpt><trkpt lat="39.8141019" lon="8.8497867"><ele>257.0</ele><time>2026-05-03T07:49:46.774Z</time></trkpt><trkpt lat="39.8139057" lon="8.8497814"><ele>257.0</ele><time>2026-05-03T07:49:47.774Z</time></trkpt><trkpt lat="39.8137094" lon="8.8497751"><ele>257.0</ele><time>2026-05-03T07:49:48.774Z</time></trkpt><trkpt lat="39.8135057" lon="8.8497718"><ele>257.0</ele><time>2026-05-03T07:49:49.773Z</time></trkpt><trkpt lat="39.8132929" lon="8.8497677"><ele>255.66666666666669</ele><time>2026-05-03T07:49:50.774Z</time></trkpt><trkpt lat="39.8130745" lon="8.8497658"><ele>254.33333333333331</ele><time>2026-05-03T07:49:51.774Z</time></trkpt><trkpt lat="39.8128666" lon="8.8497597"><ele>253.0</ele><time>2026-05-03T07:49:52.774Z</time></trkpt><trkpt lat="39.8126671" lon="8.8497473"><ele>252.66666666666666</ele><time>2026-05-03T07:49:53.775Z</time></trkpt><trkpt lat="39.8124811" lon="8.8497395"><ele>252.33333333333331</ele><time>2026-05-03T07:49:54.774Z</time></trkpt><trkpt lat="39.8123053" lon="8.8497371"><ele>252.0</ele><time>2026-05-03T07:49:55.774Z</time></trkpt><trkpt lat="39.8121426" lon="8.8497382"><ele>252.0</ele><time>2026-05-03T07:49:56.775Z</time></trkpt><trkpt lat="39.8120044" lon="8.8497919"><ele>252.0</ele><time>2026-05-03T07:49:57.774Z</time></trkpt><trkpt lat="39.8118719" lon="8.8498708"><ele>252.0</ele><time>2026-05-03T07:49:58.773Z</time></trkpt><trkpt lat="39.8117456" lon="8.8499842"><ele>252.0</ele><time>2026-05-03T07:49:59.774Z</time></trkpt><trkpt lat="39.811639" lon="8.8501204"><ele>252.0</ele><time>2026-05-03T07:50:00.774Z</time></trkpt><trkpt lat="39.8115412" lon="8.8502721"><ele>252.0</ele><time>2026-05-03T07:50:01.774Z</time></trkpt><trkpt lat="39.8114397" lon="8.8504317"><ele>252.0</ele><time>2026-05-03T07:50:02.774Z</time></trkpt><trkpt lat="39.8113372" lon="8.8505938"><ele>252.0</ele><time>2026-05-03T07:50:03.773Z</time></trkpt><trkpt lat="39.8112289" lon="8.8507471"><ele>252.0</ele><time>2026-05-03T07:50:04.775Z</time></trkpt><trkpt lat="39.8111114" lon="8.8508768"><ele>252.0</ele><time>2026-05-03T07:50:05.774Z</time></trkpt><trkpt lat="39.8109982" lon="8.8509844"><ele>252.5</ele><time>2026-05-03T07:50:06.775Z</time></trkpt><trkpt lat="39.8108847" lon="8.8510732"><ele>253.0</ele><time>2026-05-03T07:50:07.773Z</time></trkpt><trkpt lat="39.8107522" lon="8.8511092"><ele>253.5</ele><time>2026-05-03T07:50:08.774Z</time></trkpt><trkpt lat="39.8106138" lon="8.851135"><ele>254.0</ele><time>2026-05-03T07:50:09.774Z</time></trkpt><trkpt lat="39.8104695" lon="8.8511482"><ele>254.0</ele><time>2026-05-03T07:50:10.774Z</time></trkpt><trkpt lat="39.8103149" lon="8.8511284"><ele>254.0</ele><time>2026-05-03T07:50:11.773Z</time></trkpt><trkpt lat="39.8101645" lon="8.8510997"><ele>254.0</ele><time>2026-05-03T07:50:12.775Z</time></trkpt><trkpt lat="39.8100066" lon="8.8510685"><ele>255.0</ele><time>2026-05-03T07:50:13.775Z</time></trkpt><trkpt lat="39.8098576" lon="8.8510338"><ele>256.0</ele><time>2026-05-03T07:50:14.775Z</time></trkpt><trkpt lat="39.8097203" lon="8.8510197"><ele>257.0</ele><time>2026-05-03T07:50:15.774Z</time></trkpt><trkpt lat="39.8095953" lon="8.8510376"><ele>258.0</ele><time>2026-05-03T07:50:16.775Z</time></trkpt><trkpt lat="39.8094686" lon="8.8510754"><ele>258.0</ele><time>2026-05-03T07:50:17.774Z</time></trkpt><trkpt lat="39.8093451" lon="8.8511353"><ele>258.0</ele><time>2026-05-03T07:50:18.773Z</time></trkpt><trkpt lat="39.8092163" lon="8.85119"><ele>258.0</ele><time>2026-05-03T07:50:19.772Z</time></trkpt><trkpt lat="39.8090816" lon="8.8512353"><ele>258.0</ele><time>2026-05-03T07:50:20.774Z</time></trkpt><trkpt lat="39.8089558" lon="8.8512866"><ele>259.25</ele><time>2026-05-03T07:50:21.775Z</time></trkpt><trkpt lat="39.8088385" lon="8.8513339"><ele>260.5</ele><time>2026-05-03T07:50:22.775Z</time></trkpt><trkpt lat="39.8087255" lon="8.8513704"><ele>261.75</ele><time>2026-05-03T07:50:23.774Z</time></trkpt><trkpt lat="39.8086131" lon="8.8514247"><ele>263.0</ele><time>2026-05-03T07:50:24.774Z</time></trkpt><trkpt lat="39.8085111" lon="8.8514977"><ele>263.6</ele><time>2026-05-03T07:50:25.775Z</time></trkpt><trkpt lat="39.8084197" lon="8.8516051"><ele>264.20000000000005</ele><time>2026-05-03T07:50:26.772Z</time></trkpt><trkpt lat="39.8083431" lon="8.8517233"><ele>264.8</ele><time>2026-05-03T07:50:27.773Z</time></trkpt><trkpt lat="39.8082925" lon="8.8518465"><ele>265.40000000000003</ele><time>2026-05-03T07:50:28.774Z</time></trkpt><trkpt lat="39.8082609" lon="8.8519676"><ele>266.0</ele><time>2026-05-03T07:50:29.775Z</time></trkpt><trkpt lat="39.8082808" lon="8.8521114"><ele>266.0</ele><time>2026-05-03T07:50:30.775Z</time></trkpt><trkpt lat="39.8082963" lon="8.8522411"><ele>266.0</ele><time>2026-05-03T07:50:31.777Z</time></trkpt><trkpt lat="39.8083039" lon="8.8523752"><ele>266.0</ele><time>2026-05-03T07:50:32.774Z</time></trkpt><trkpt lat="39.8082879" lon="8.8525067"><ele>266.0</ele><time>2026-05-03T07:50:33.774Z</time></trkpt><trkpt lat="39.8082536" lon="8.8526211"><ele>266.0</ele><time>2026-05-03T07:50:34.774Z</time></trkpt><trkpt lat="39.8081993" lon="8.8527088"><ele>264.40000000000003</ele><time>2026-05-03T07:50:35.773Z</time></trkpt><trkpt lat="39.8081118" lon="8.8527638"><ele>262.8</ele><time>2026-05-03T07:50:36.774Z</time></trkpt><trkpt lat="39.8080241" lon="8.8528158"><ele>261.20000000000005</ele><time>2026-05-03T07:50:37.774Z</time></trkpt><trkpt lat="39.8079274" lon="8.8528555"><ele>259.6</ele><time>2026-05-03T07:50:38.775Z</time></trkpt><trkpt lat="39.8078221" lon="8.8528931"><ele>258.0</ele><time>2026-05-03T07:50:39.775Z</time></trkpt><trkpt lat="39.8077068" lon="8.8529196"><ele>258.4</ele><time>2026-05-03T07:50:40.775Z</time></trkpt><trkpt lat="39.8075995" lon="8.8529328"><ele>258.8</ele><time>2026-05-03T07:50:41.773Z</time></trkpt><trkpt lat="39.8074961" lon="8.8529096"><ele>259.2</ele><time>2026-05-03T07:50:42.775Z</time></trkpt><trkpt lat="39.8073957" lon="8.8528517"><ele>259.6</ele><time>2026-05-03T07:50:43.774Z</time></trkpt><trkpt lat="39.8072992" lon="8.8527778"><ele>260.0</ele><time>2026-05-03T07:50:44.775Z</time></trkpt><trkpt lat="39.8071888" lon="8.8527015"><ele>260.0</ele><time>2026-05-03T07:50:45.774Z</time></trkpt><trkpt lat="39.8070744" lon="8.8526312"><ele>260.0</ele><time>2026-05-03T07:50:46.774Z</time></trkpt><trkpt lat="39.8069524" lon="8.85259"><ele>260.0</ele><time>2026-05-03T07:50:47.775Z</time></trkpt><trkpt lat="39.8068256" lon="8.8525655"><ele>260.0</ele><time>2026-05-03T07:50:48.773Z</time></trkpt><trkpt lat="39.8066968" lon="8.8525656"><ele>260.33333333333337</ele><time>2026-05-03T07:50:49.775Z</time></trkpt><trkpt lat="39.8065544" lon="8.8525843"><ele>260.6666666666667</ele><time>2026-05-03T07:50:50.774Z</time></trkpt><trkpt lat="39.8064028" lon="8.8526086"><ele>261.0</ele><time>2026-05-03T07:50:51.775Z</time></trkpt><trkpt lat="39.8062442" lon="8.8526354"><ele>261.0</ele><time>2026-05-03T07:50:52.773Z</time></trkpt><trkpt lat="39.8060775" lon="8.8526737"><ele>261.0</ele><time>2026-05-03T07:50:53.772Z</time></trkpt><trkpt lat="39.8059018" lon="8.8527082"><ele>261.0</ele><time>2026-05-03T07:50:54.774Z</time></trkpt><trkpt lat="39.8057207" lon="8.8527456"><ele>261.0</ele><time>2026-05-03T07:50:55.774Z</time></trkpt><trkpt lat="39.8055464" lon="8.8527808"><ele>261.0</ele><time>2026-05-03T07:50:56.775Z</time></trkpt><trkpt lat="39.8053648" lon="8.8528225"><ele>261.0</ele><time>2026-05-03T07:50:57.774Z</time></trkpt><trkpt lat="39.8051815" lon="8.8528608"><ele>262.0</ele><time>2026-05-03T07:50:58.774Z</time></trkpt><trkpt lat="39.804994" lon="8.8528953"><ele>263.0</ele><time>2026-05-03T07:50:59.772Z</time></trkpt><trkpt lat="39.8048117" lon="8.8529355"><ele>264.0</ele><time>2026-05-03T07:51:00.775Z</time></trkpt><trkpt lat="39.8046295" lon="8.8529802"><ele>264.0</ele><time>2026-05-03T07:51:01.773Z</time></trkpt><trkpt lat="39.8044519" lon="8.8530168"><ele>264.0</ele><time>2026-05-03T07:51:02.775Z</time></trkpt><trkpt lat="39.804279" lon="8.8530545"><ele>264.0</ele><time>2026-05-03T07:51:03.775Z</time></trkpt><trkpt lat="39.8040995" lon="8.8530928"><ele>263.3333333333333</ele><time>2026-05-03T07:51:04.774Z</time></trkpt><trkpt lat="39.8039252" lon="8.8531315"><ele>262.66666666666663</ele><time>2026-05-03T07:51:05.775Z</time></trkpt><trkpt lat="39.8037468" lon="8.8531711"><ele>262.0</ele><time>2026-05-03T07:51:06.775Z</time></trkpt><trkpt lat="39.8035744" lon="8.8532071"><ele>260.66666666666663</ele><time>2026-05-03T07:51:07.772Z</time></trkpt><trkpt lat="39.803402" lon="8.8532464"><ele>259.3333333333333</ele><time>2026-05-03T07:51:08.774Z</time></trkpt><trkpt lat="39.8032301" lon="8.8532809"><ele>258.0</ele><time>2026-05-03T07:51:09.774Z</time></trkpt><trkpt lat="39.8030625" lon="8.8533164"><ele>258.0</ele><time>2026-05-03T07:51:10.775Z</time></trkpt><trkpt lat="39.8029004" lon="8.8533524"><ele>258.0</ele><time>2026-05-03T07:51:11.775Z</time></trkpt><trkpt lat="39.8027351" lon="8.8533854"><ele>258.0</ele><time>2026-05-03T07:51:12.775Z</time></trkpt><trkpt lat="39.8025694" lon="8.8534254"><ele>256.0</ele><time>2026-05-03T07:51:13.774Z</time></trkpt><trkpt lat="39.8024023" lon="8.8534608"><ele>254.0</ele><time>2026-05-03T07:51:14.774Z</time></trkpt><trkpt lat="39.8022343" lon="8.8534946"><ele>252.0</ele><time>2026-05-03T07:51:15.774Z</time></trkpt><trkpt lat="39.8020698" lon="8.8535287"><ele>252.0</ele><time>2026-05-03T07:51:16.775Z</time></trkpt><trkpt lat="39.8019069" lon="8.8535643"><ele>252.0</ele><time>2026-05-03T07:51:17.774Z</time></trkpt><trkpt lat="39.8017513" lon="8.8535996"><ele>252.0</ele><time>2026-05-03T07:51:18.775Z</time></trkpt><trkpt lat="39.8016098" lon="8.853637"><ele>251.25</ele><time>2026-05-03T07:51:19.774Z</time></trkpt><trkpt lat="39.8014743" lon="8.8536708"><ele>250.5</ele><time>2026-05-03T07:51:20.775Z</time></trkpt><trkpt lat="39.80135" lon="8.8536958"><ele>249.75</ele><time>2026-05-03T07:51:21.774Z</time></trkpt><trkpt lat="39.8012376" lon="8.8537053"><ele>249.0</ele><time>2026-05-03T07:51:22.775Z</time></trkpt><trkpt lat="39.8011308" lon="8.8537019"><ele>249.0</ele><time>2026-05-03T07:51:23.774Z</time></trkpt><trkpt lat="39.8010213" lon="8.8536672"><ele>249.0</ele><time>2026-05-03T07:51:24.773Z</time></trkpt><trkpt lat="39.8009121" lon="8.8535897"><ele>249.0</ele><time>2026-05-03T07:51:25.775Z</time></trkpt><trkpt lat="39.8008112" lon="8.853475"><ele>249.0</ele><time>2026-05-03T07:51:26.775Z</time></trkpt><trkpt lat="39.8007114" lon="8.8533286"><ele>248.0</ele><time>2026-05-03T07:51:27.774Z</time></trkpt><trkpt lat="39.8006131" lon="8.8531743"><ele>247.0</ele><time>2026-05-03T07:51:28.773Z</time></trkpt><trkpt lat="39.800518" lon="8.8530088"><ele>246.0</ele><time>2026-05-03T07:51:29.774Z</time></trkpt><trkpt lat="39.8004087" lon="8.8528234"><ele>246.0</ele><time>2026-05-03T07:51:30.773Z</time></trkpt><trkpt lat="39.8002954" lon="8.8526337"><ele>246.0</ele><time>2026-05-03T07:51:31.774Z</time></trkpt><trkpt lat="39.8001911" lon="8.8524459"><ele>246.0</ele><time>2026-05-03T07:51:32.774Z</time></trkpt><trkpt lat="39.800081" lon="8.8522566"><ele>246.0</ele><time>2026-05-03T07:51:33.774Z</time></trkpt><trkpt lat="39.7999837" lon="8.8520828"><ele>246.0</ele><time>2026-05-03T07:51:34.774Z</time></trkpt><trkpt lat="39.7998898" lon="8.8519259"><ele>246.0</ele><time>2026-05-03T07:51:35.772Z</time></trkpt><trkpt lat="39.7998053" lon="8.8517819"><ele>247.0</ele><time>2026-05-03T07:51:36.775Z</time></trkpt><trkpt lat="39.799729" lon="8.8516506"><ele>248.00000000000003</ele><time>2026-05-03T07:51:37.775Z</time></trkpt><trkpt lat="39.7996628" lon="8.8515376"><ele>249.00000000000003</ele><time>2026-05-03T07:51:38.774Z</time></trkpt><trkpt lat="39.7996043" lon="8.8514448"><ele>250.0</ele><time>2026-05-03T07:51:39.774Z</time></trkpt><trkpt lat="39.7995599" lon="8.8513713"><ele>251.0</ele><time>2026-05-03T07:51:40.774Z</time></trkpt><trkpt lat="39.7995486" lon="8.8512642"><ele>251.0</ele><time>2026-05-03T07:51:42.775Z</time></trkpt><trkpt lat="39.7996286" lon="8.8511646"><ele>251.00000000000003</ele><time>2026-05-03T07:51:44.774Z</time></trkpt><trkpt lat="39.7997181" lon="8.8511109"><ele>251.00000000000003</ele><time>2026-05-03T07:51:45.772Z</time></trkpt><trkpt lat="39.7998175" lon="8.8510518"><ele>251.0</ele><time>2026-05-03T07:51:46.774Z</time></trkpt><trkpt lat="39.7999341" lon="8.8509961"><ele>251.0</ele><time>2026-05-03T07:51:47.775Z</time></trkpt><trkpt lat="39.800066" lon="8.8509304"><ele>253.66666666666669</ele><time>2026-05-03T07:51:48.774Z</time></trkpt><trkpt lat="39.8002129" lon="8.8508573"><ele>256.3333333333333</ele><time>2026-05-03T07:51:49.773Z</time></trkpt><trkpt lat="39.8003639" lon="8.8507712"><ele>259.0</ele><time>2026-05-03T07:51:50.774Z</time></trkpt><trkpt lat="39.8005157" lon="8.8506954"><ele>259.0</ele><time>2026-05-03T07:51:51.773Z</time></trkpt><trkpt lat="39.8006686" lon="8.8506181"><ele>259.0</ele><time>2026-05-03T07:51:52.774Z</time></trkpt><trkpt lat="39.8008176" lon="8.8505341"><ele>259.0</ele><time>2026-05-03T07:51:53.775Z</time></trkpt><trkpt lat="39.8009713" lon="8.8504567"><ele>260.0</ele><time>2026-05-03T07:51:54.775Z</time></trkpt><trkpt lat="39.8011089" lon="8.8503824"><ele>261.0</ele><time>2026-05-03T07:51:55.773Z</time></trkpt><trkpt lat="39.8012396" lon="8.8502996"><ele>262.0</ele><time>2026-05-03T07:51:56.774Z</time></trkpt><trkpt lat="39.8013746" lon="8.8502293"><ele>263.0</ele><time>2026-05-03T07:51:57.774Z</time></trkpt><trkpt lat="39.801511" lon="8.8501976"><ele>263.0</ele><time>2026-05-03T07:51:58.774Z</time></trkpt><trkpt lat="39.80165" lon="8.8501909"><ele>263.0</ele><time>2026-05-03T07:51:59.774Z</time></trkpt><trkpt lat="39.8017868" lon="8.8502049"><ele>263.0</ele><time>2026-05-03T07:52:00.773Z</time></trkpt><trkpt lat="39.8019366" lon="8.8502299"><ele>263.0</ele><time>2026-05-03T07:52:01.774Z</time></trkpt><trkpt lat="39.8020694" lon="8.8502407"><ele>263.25</ele><time>2026-05-03T07:52:02.774Z</time></trkpt><trkpt lat="39.8021838" lon="8.8502295"><ele>263.5</ele><time>2026-05-03T07:52:03.774Z</time></trkpt><trkpt lat="39.8022914" lon="8.8501995"><ele>263.75</ele><time>2026-05-03T07:52:04.772Z</time></trkpt><trkpt lat="39.8024036" lon="8.8501486"><ele>264.0</ele><time>2026-05-03T07:52:05.774Z</time></trkpt><trkpt lat="39.8025215" lon="8.8500971"><ele>265.0</ele><time>2026-05-03T07:52:06.774Z</time></trkpt><trkpt lat="39.8026447" lon="8.8500473"><ele>266.0</ele><time>2026-05-03T07:52:07.772Z</time></trkpt><trkpt lat="39.802782" lon="8.8499944"><ele>267.0</ele><time>2026-05-03T07:52:08.774Z</time></trkpt><trkpt lat="39.8029301" lon="8.8499344"><ele>268.0</ele><time>2026-05-03T07:52:09.774Z</time></trkpt><trkpt lat="39.8030874" lon="8.8498754"><ele>269.66666666666663</ele><time>2026-05-03T07:52:10.775Z</time></trkpt><trkpt lat="39.8032387" lon="8.849816"><ele>271.3333333333333</ele><time>2026-05-03T07:52:11.774Z</time></trkpt><trkpt lat="39.8033924" lon="8.8497492"><ele>273.0</ele><time>2026-05-03T07:52:12.774Z</time></trkpt><trkpt lat="39.8035464" lon="8.8496759"><ele>274.3333333333333</ele><time>2026-05-03T07:52:13.775Z</time></trkpt><trkpt lat="39.8037051" lon="8.8496327"><ele>275.66666666666663</ele><time>2026-05-03T07:52:14.773Z</time></trkpt><trkpt lat="39.8038618" lon="8.8495969"><ele>277.0</ele><time>2026-05-03T07:52:15.773Z</time></trkpt><trkpt lat="39.8040031" lon="8.8495605"><ele>277.0</ele><time>2026-05-03T07:52:16.775Z</time></trkpt><trkpt lat="39.8041116" lon="8.8495119"><ele>277.0</ele><time>2026-05-03T07:52:17.774Z</time></trkpt><trkpt lat="39.8041862" lon="8.84945"><ele>277.0</ele><time>2026-05-03T07:52:18.774Z</time></trkpt><trkpt lat="39.8042412" lon="8.8493574"><ele>277.0</ele><time>2026-05-03T07:52:19.774Z</time></trkpt><trkpt lat="39.8042886" lon="8.8492408"><ele>277.0</ele><time>2026-05-03T07:52:20.774Z</time></trkpt><trkpt lat="39.804337" lon="8.8491117"><ele>278.5</ele><time>2026-05-03T07:52:21.774Z</time></trkpt><trkpt lat="39.8043977" lon="8.8489679"><ele>280.0</ele><time>2026-05-03T07:52:22.774Z</time></trkpt><trkpt lat="39.8044823" lon="8.8488429"><ele>281.5</ele><time>2026-05-03T07:52:23.773Z</time></trkpt><trkpt lat="39.8045896" lon="8.8487165"><ele>283.0</ele><time>2026-05-03T07:52:24.775Z</time></trkpt><trkpt lat="39.8047049" lon="8.848584"><ele>283.5</ele><time>2026-05-03T07:52:25.774Z</time></trkpt><trkpt lat="39.8048196" lon="8.8484515"><ele>284.0</ele><time>2026-05-03T07:52:26.774Z</time></trkpt><trkpt lat="39.8049305" lon="8.8483158"><ele>284.5</ele><time>2026-05-03T07:52:27.774Z</time></trkpt><trkpt lat="39.8050339" lon="8.8481929"><ele>285.0</ele><time>2026-05-03T07:52:28.773Z</time></trkpt><trkpt lat="39.8051183" lon="8.8480962"><ele>285.0</ele><time>2026-05-03T07:52:29.775Z</time></trkpt><trkpt lat="39.8051862" lon="8.8480097"><ele>285.0</ele><time>2026-05-03T07:52:30.773Z</time></trkpt><trkpt lat="39.8052322" lon="8.8479231"><ele>285.0</ele><time>2026-05-03T07:52:31.773Z</time></trkpt><trkpt lat="39.8052637" lon="8.8478156"><ele>285.0</ele><time>2026-05-03T07:52:32.773Z</time></trkpt><trkpt lat="39.8052844" lon="8.8476851"><ele>285.0</ele><time>2026-05-03T07:52:33.774Z</time></trkpt><trkpt lat="39.8052988" lon="8.8475318"><ele>285.0</ele><time>2026-05-03T07:52:34.773Z</time></trkpt><trkpt lat="39.8053049" lon="8.8473654"><ele>285.0</ele><time>2026-05-03T07:52:35.774Z</time></trkpt><trkpt lat="39.8053058" lon="8.8471818"><ele>285.0</ele><time>2026-05-03T07:52:36.774Z</time></trkpt><trkpt lat="39.8053073" lon="8.8469857"><ele>285.0</ele><time>2026-05-03T07:52:37.774Z</time></trkpt><trkpt lat="39.8053069" lon="8.8467919"><ele>285.0</ele><time>2026-05-03T07:52:38.774Z</time></trkpt><trkpt lat="39.8053142" lon="8.8465925"><ele>285.0</ele><time>2026-05-03T07:52:39.772Z</time></trkpt><trkpt lat="39.8053351" lon="8.8463881"><ele>285.0</ele><time>2026-05-03T07:52:40.773Z</time></trkpt><trkpt lat="39.8053581" lon="8.8461777"><ele>285.0</ele><time>2026-05-03T07:52:41.773Z</time></trkpt><trkpt lat="39.8053831" lon="8.8459662"><ele>285.0</ele><time>2026-05-03T07:52:42.775Z</time></trkpt><trkpt lat="39.8053943" lon="8.8457584"><ele>285.0</ele><time>2026-05-03T07:52:43.773Z</time></trkpt><trkpt lat="39.8054007" lon="8.8455687"><ele>286.25</ele><time>2026-05-03T07:52:44.772Z</time></trkpt><trkpt lat="39.8054086" lon="8.845394"><ele>287.5</ele><time>2026-05-03T07:52:45.774Z</time></trkpt><trkpt lat="39.8054172" lon="8.8452213"><ele>288.75</ele><time>2026-05-03T07:52:46.775Z</time></trkpt><trkpt lat="39.8054337" lon="8.845054"><ele>290.0</ele><time>2026-05-03T07:52:47.774Z</time></trkpt><trkpt lat="39.805451" lon="8.8448987"><ele>290.0</ele><time>2026-05-03T07:52:48.774Z</time></trkpt><trkpt lat="39.8054925" lon="8.8447526"><ele>290.0</ele><time>2026-05-03T07:52:49.775Z</time></trkpt><trkpt lat="39.805538" lon="8.8446165"><ele>290.0</ele><time>2026-05-03T07:52:50.774Z</time></trkpt><trkpt lat="39.8055926" lon="8.844485"><ele>290.0</ele><time>2026-05-03T07:52:51.774Z</time></trkpt><trkpt lat="39.8056318" lon="8.8443479"><ele>289.8</ele><time>2026-05-03T07:52:52.774Z</time></trkpt><trkpt lat="39.8056651" lon="8.844211"><ele>289.6</ele><time>2026-05-03T07:52:53.773Z</time></trkpt><trkpt lat="39.8056949" lon="8.844072"><ele>289.4</ele><time>2026-05-03T07:52:54.775Z</time></trkpt><trkpt lat="39.8057245" lon="8.8439355"><ele>289.2</ele><time>2026-05-03T07:52:55.774Z</time></trkpt><trkpt lat="39.8057637" lon="8.8438067"><ele>289.0</ele><time>2026-05-03T07:52:56.773Z</time></trkpt><trkpt lat="39.8058093" lon="8.843701"><ele>289.0</ele><time>2026-05-03T07:52:57.773Z</time></trkpt><trkpt lat="39.8059412" lon="8.8435522"><ele>289.0</ele><time>2026-05-03T07:52:59.774Z</time></trkpt><trkpt lat="39.8060307" lon="8.8434973"><ele>289.0</ele><time>2026-05-03T07:53:00.773Z</time></trkpt><trkpt lat="39.8061253" lon="8.8434451"><ele>289.0</ele><time>2026-05-03T07:53:01.775Z</time></trkpt><trkpt lat="39.8062205" lon="8.8433796"><ele>289.5</ele><time>2026-05-03T07:53:02.775Z</time></trkpt><trkpt lat="39.8063113" lon="8.8432904"><ele>290.0</ele><time>2026-05-03T07:53:03.774Z</time></trkpt><trkpt lat="39.8063865" lon="8.8431808"><ele>290.5</ele><time>2026-05-03T07:53:04.774Z</time></trkpt><trkpt lat="39.8064507" lon="8.8430588"><ele>291.0</ele><time>2026-05-03T07:53:05.774Z</time></trkpt><trkpt lat="39.8065071" lon="8.8429255"><ele>291.0</ele><time>2026-05-03T07:53:06.774Z</time></trkpt><trkpt lat="39.8065515" lon="8.8427839"><ele>291.0</ele><time>2026-05-03T07:53:07.774Z</time></trkpt><trkpt lat="39.8065854" lon="8.8426444"><ele>291.0</ele><time>2026-05-03T07:53:08.773Z</time></trkpt><trkpt lat="39.8066098" lon="8.8425186"><ele>291.0</ele><time>2026-05-03T07:53:09.773Z</time></trkpt><trkpt lat="39.806636" lon="8.8423983"><ele>291.0</ele><time>2026-05-03T07:53:10.774Z</time></trkpt><trkpt lat="39.8066761" lon="8.8423181"><ele>291.6</ele><time>2026-05-03T07:53:11.774Z</time></trkpt><trkpt lat="39.806735" lon="8.8422526"><ele>292.20000000000005</ele><time>2026-05-03T07:53:12.774Z</time></trkpt><trkpt lat="39.8068938" lon="8.842154"><ele>292.79999999999995</ele><time>2026-05-03T07:53:14.775Z</time></trkpt><trkpt lat="39.8069777" lon="8.8421149"><ele>293.4</ele><time>2026-05-03T07:53:15.774Z</time></trkpt><trkpt lat="39.8070529" lon="8.8420667"><ele>294.0</ele><time>2026-05-03T07:53:16.773Z</time></trkpt><trkpt lat="39.8071177" lon="8.8419942"><ele>294.0</ele><time>2026-05-03T07:53:17.775Z</time></trkpt><trkpt lat="39.8071697" lon="8.8418973"><ele>294.0</ele><time>2026-05-03T07:53:18.775Z</time></trkpt><trkpt lat="39.8072027" lon="8.8417849"><ele>294.0</ele><time>2026-05-03T07:53:19.773Z</time></trkpt><trkpt lat="39.8072231" lon="8.8416599"><ele>294.0</ele><time>2026-05-03T07:53:20.774Z</time></trkpt><trkpt lat="39.8072252" lon="8.8415347"><ele>294.0</ele><time>2026-05-03T07:53:21.773Z</time></trkpt><trkpt lat="39.8072066" lon="8.8414113"><ele>295.0</ele><time>2026-05-03T07:53:22.775Z</time></trkpt><trkpt lat="39.8071739" lon="8.8412821"><ele>296.0</ele><time>2026-05-03T07:53:23.773Z</time></trkpt><trkpt lat="39.8071351" lon="8.8411466"><ele>297.0</ele><time>2026-05-03T07:53:24.774Z</time></trkpt><trkpt lat="39.807092" lon="8.8410138"><ele>298.0</ele><time>2026-05-03T07:53:25.773Z</time></trkpt><trkpt lat="39.8070565" lon="8.8408705"><ele>299.0</ele><time>2026-05-03T07:53:26.775Z</time></trkpt><trkpt lat="39.8070244" lon="8.8407209"><ele>299.0</ele><time>2026-05-03T07:53:27.773Z</time></trkpt><trkpt lat="39.8070023" lon="8.8405726"><ele>299.0</ele><time>2026-05-03T07:53:28.773Z</time></trkpt><trkpt lat="39.8069875" lon="8.8404217"><ele>299.0</ele><time>2026-05-03T07:53:29.772Z</time></trkpt><trkpt lat="39.8069754" lon="8.8402677"><ele>299.0</ele><time>2026-05-03T07:53:30.775Z</time></trkpt><trkpt lat="39.8069803" lon="8.8401124"><ele>298.75</ele><time>2026-05-03T07:53:31.775Z</time></trkpt><trkpt lat="39.8069927" lon="8.8399531"><ele>298.5</ele><time>2026-05-03T07:53:32.775Z</time></trkpt><trkpt lat="39.8070096" lon="8.8397877"><ele>298.25</ele><time>2026-05-03T07:53:33.774Z</time></trkpt><trkpt lat="39.8070317" lon="8.8396163"><ele>298.0</ele><time>2026-05-03T07:53:34.775Z</time></trkpt><trkpt lat="39.8070561" lon="8.8394524"><ele>298.5</ele><time>2026-05-03T07:53:35.772Z</time></trkpt><trkpt lat="39.8070794" lon="8.839291"><ele>299.0</ele><time>2026-05-03T07:53:36.772Z</time></trkpt><trkpt lat="39.8071017" lon="8.8391385"><ele>299.5</ele><time>2026-05-03T07:53:37.774Z</time></trkpt><trkpt lat="39.8071237" lon="8.8389903"><ele>300.0</ele><time>2026-05-03T07:53:38.773Z</time></trkpt><trkpt lat="39.8071464" lon="8.8388431"><ele>300.0</ele><time>2026-05-03T07:53:39.773Z</time></trkpt><trkpt lat="39.8071762" lon="8.8386927"><ele>300.0</ele><time>2026-05-03T07:53:40.774Z</time></trkpt><trkpt lat="39.8072109" lon="8.8385468"><ele>300.0</ele><time>2026-05-03T07:53:41.772Z</time></trkpt><trkpt lat="39.8072491" lon="8.8384027"><ele>300.0</ele><time>2026-05-03T07:53:42.773Z</time></trkpt><trkpt lat="39.8072983" lon="8.8382562"><ele>299.75</ele><time>2026-05-03T07:53:43.774Z</time></trkpt><trkpt lat="39.807355" lon="8.8381146"><ele>299.5</ele><time>2026-05-03T07:53:44.774Z</time></trkpt><trkpt lat="39.8074155" lon="8.8379808"><ele>299.25</ele><time>2026-05-03T07:53:45.775Z</time></trkpt><trkpt lat="39.8074694" lon="8.8378429"><ele>299.0</ele><time>2026-05-03T07:53:46.774Z</time></trkpt><trkpt lat="39.8075214" lon="8.8377057"><ele>299.5</ele><time>2026-05-03T07:53:47.774Z</time></trkpt><trkpt lat="39.8075721" lon="8.8375649"><ele>300.0</ele><time>2026-05-03T07:53:48.773Z</time></trkpt><trkpt lat="39.8076078" lon="8.8374191"><ele>300.5</ele><time>2026-05-03T07:53:49.775Z</time></trkpt><trkpt lat="39.8076339" lon="8.8372737"><ele>301.0</ele><time>2026-05-03T07:53:50.774Z</time></trkpt><trkpt lat="39.8076496" lon="8.8371205"><ele>302.25</ele><time>2026-05-03T07:53:51.774Z</time></trkpt><trkpt lat="39.8076631" lon="8.8369675"><ele>303.5</ele><time>2026-05-03T07:53:52.775Z</time></trkpt><trkpt lat="39.8076842" lon="8.8368205"><ele>304.75</ele><time>2026-05-03T07:53:53.774Z</time></trkpt><trkpt lat="39.8077212" lon="8.8366732"><ele>306.0</ele><time>2026-05-03T07:53:54.774Z</time></trkpt><trkpt lat="39.8077687" lon="8.8365312"><ele>306.75</ele><time>2026-05-03T07:53:55.774Z</time></trkpt><trkpt lat="39.8078241" lon="8.836388"><ele>307.5</ele><time>2026-05-03T07:53:56.775Z</time></trkpt><trkpt lat="39.8078825" lon="8.8362458"><ele>308.25</ele><time>2026-05-03T07:53:57.773Z</time></trkpt><trkpt lat="39.8079503" lon="8.8360952"><ele>309.0</ele><time>2026-05-03T07:53:58.773Z</time></trkpt><trkpt lat="39.8080174" lon="8.8359483"><ele>309.75</ele><time>2026-05-03T07:53:59.775Z</time></trkpt><trkpt lat="39.808084" lon="8.8357971"><ele>310.5</ele><time>2026-05-03T07:54:00.772Z</time></trkpt><trkpt lat="39.8081494" lon="8.8356517"><ele>311.25</ele><time>2026-05-03T07:54:01.773Z</time></trkpt><trkpt lat="39.808222" lon="8.8355181"><ele>312.0</ele><time>2026-05-03T07:54:02.773Z</time></trkpt><trkpt lat="39.8083059" lon="8.8353916"><ele>312.0</ele><time>2026-05-03T07:54:03.774Z</time></trkpt><trkpt lat="39.8083923" lon="8.8352749"><ele>312.0</ele><time>2026-05-03T07:54:04.773Z</time></trkpt><trkpt lat="39.8084771" lon="8.8351581"><ele>312.0</ele><time>2026-05-03T07:54:05.775Z</time></trkpt><trkpt lat="39.8085466" lon="8.8350317"><ele>312.0</ele><time>2026-05-03T07:54:06.775Z</time></trkpt><trkpt lat="39.8085969" lon="8.8348934"><ele>315.0</ele><time>2026-05-03T07:54:07.774Z</time></trkpt><trkpt lat="39.8086324" lon="8.8347424"><ele>318.0</ele><time>2026-05-03T07:54:08.775Z</time></trkpt><trkpt lat="39.8086627" lon="8.8345837"><ele>321.0</ele><time>2026-05-03T07:54:09.773Z</time></trkpt><trkpt lat="39.8086921" lon="8.8344226"><ele>324.0</ele><time>2026-05-03T07:54:10.772Z</time></trkpt><trkpt lat="39.8087239" lon="8.8342518"><ele>326.0</ele><time>2026-05-03T07:54:11.772Z</time></trkpt><trkpt lat="39.808762" lon="8.8340878"><ele>328.0</ele><time>2026-05-03T07:54:12.775Z</time></trkpt><trkpt lat="39.8088034" lon="8.8339268"><ele>330.0</ele><time>2026-05-03T07:54:13.775Z</time></trkpt><trkpt lat="39.8088531" lon="8.8337708"><ele>332.0</ele><time>2026-05-03T07:54:14.773Z</time></trkpt><trkpt lat="39.8089091" lon="8.8336236"><ele>332.0</ele><time>2026-05-03T07:54:15.774Z</time></trkpt><trkpt lat="39.8089709" lon="8.8334797"><ele>332.0</ele><time>2026-05-03T07:54:16.774Z</time></trkpt><trkpt lat="39.8090413" lon="8.8333481"><ele>332.0</ele><time>2026-05-03T07:54:17.774Z</time></trkpt><trkpt lat="39.8091235" lon="8.8332275"><ele>332.0</ele><time>2026-05-03T07:54:18.775Z</time></trkpt><trkpt lat="39.8092132" lon="8.833118"><ele>334.25</ele><time>2026-05-03T07:54:19.775Z</time></trkpt><trkpt lat="39.8093124" lon="8.8330135"><ele>336.5</ele><time>2026-05-03T07:54:20.774Z</time></trkpt><trkpt lat="39.8094117" lon="8.8329193"><ele>338.75</ele><time>2026-05-03T07:54:21.773Z</time></trkpt><trkpt lat="39.8095055" lon="8.8328229"><ele>341.0</ele><time>2026-05-03T07:54:22.774Z</time></trkpt><trkpt lat="39.8096003" lon="8.8327208"><ele>342.5</ele><time>2026-05-03T07:54:23.774Z</time></trkpt><trkpt lat="39.8096865" lon="8.832616"><ele>344.0</ele><time>2026-05-03T07:54:24.774Z</time></trkpt><trkpt lat="39.809751" lon="8.8325185"><ele>345.5</ele><time>2026-05-03T07:54:25.774Z</time></trkpt><trkpt lat="39.8098114" lon="8.8324433"><ele>347.0</ele><time>2026-05-03T07:54:26.774Z</time></trkpt><trkpt lat="39.8098729" lon="8.832391"><ele>348.5</ele><time>2026-05-03T07:54:27.774Z</time></trkpt><trkpt lat="39.809944" lon="8.8323581"><ele>350.0</ele><time>2026-05-03T07:54:28.774Z</time></trkpt><trkpt lat="39.8100313" lon="8.8323431"><ele>350.0</ele><time>2026-05-03T07:54:29.773Z</time></trkpt><trkpt lat="39.8101335" lon="8.832333"><ele>350.0</ele><time>2026-05-03T07:54:30.775Z</time></trkpt><trkpt lat="39.8102406" lon="8.8323248"><ele>350.0</ele><time>2026-05-03T07:54:31.774Z</time></trkpt><trkpt lat="39.8103623" lon="8.8323036"><ele>350.0</ele><time>2026-05-03T07:54:32.774Z</time></trkpt><trkpt lat="39.8104751" lon="8.8322833"><ele>350.0</ele><time>2026-05-03T07:54:33.773Z</time></trkpt><trkpt lat="39.8105917" lon="8.8322581"><ele>350.0</ele><time>2026-05-03T07:54:34.775Z</time></trkpt><trkpt lat="39.81072" lon="8.8322322"><ele>350.0</ele><time>2026-05-03T07:54:35.774Z</time></trkpt><trkpt lat="39.8108443" lon="8.8322027"><ele>350.0</ele><time>2026-05-03T07:54:36.773Z</time></trkpt><trkpt lat="39.8109607" lon="8.8321788"><ele>350.0</ele><time>2026-05-03T07:54:37.773Z</time></trkpt><trkpt lat="39.8110751" lon="8.8321565"><ele>351.8</ele><time>2026-05-03T07:54:38.774Z</time></trkpt><trkpt lat="39.8111874" lon="8.832142"><ele>353.6</ele><time>2026-05-03T07:54:39.773Z</time></trkpt><trkpt lat="39.811289" lon="8.8321637"><ele>355.4</ele><time>2026-05-03T07:54:40.774Z</time></trkpt><trkpt lat="39.8113937" lon="8.832195"><ele>357.2</ele><time>2026-05-03T07:54:41.774Z</time></trkpt><trkpt lat="39.8114995" lon="8.8322382"><ele>359.0</ele><time>2026-05-03T07:54:42.773Z</time></trkpt><trkpt lat="39.8116017" lon="8.8322747"><ele>359.0</ele><time>2026-05-03T07:54:43.773Z</time></trkpt><trkpt lat="39.8116921" lon="8.8323071"><ele>359.0</ele><time>2026-05-03T07:54:44.774Z</time></trkpt><trkpt lat="39.8117652" lon="8.8323202"><ele>359.0</ele><time>2026-05-03T07:54:45.773Z</time></trkpt><trkpt lat="39.8118697" lon="8.832307"><ele>359.0</ele><time>2026-05-03T07:54:47.774Z</time></trkpt><trkpt lat="39.8119494" lon="8.8322438"><ele>359.0</ele><time>2026-05-03T07:54:49.773Z</time></trkpt><trkpt lat="39.8119955" lon="8.8321199"><ele>360.33333333333337</ele><time>2026-05-03T07:54:51.773Z</time></trkpt><trkpt lat="39.8120083" lon="8.831956"><ele>361.6666666666667</ele><time>2026-05-03T07:54:53.774Z</time></trkpt><trkpt lat="39.8119977" lon="8.8318624"><ele>363.0</ele><time>2026-05-03T07:54:54.774Z</time></trkpt><trkpt lat="39.8119864" lon="8.8317585"><ele>364.3333333333333</ele><time>2026-05-03T07:54:55.774Z</time></trkpt><trkpt lat="39.8119677" lon="8.8316623"><ele>365.66666666666663</ele><time>2026-05-03T07:54:56.774Z</time></trkpt><trkpt lat="39.8119425" lon="8.8315703"><ele>367.0</ele><time>2026-05-03T07:54:57.774Z</time></trkpt><trkpt lat="39.8119178" lon="8.8314765"><ele>367.0</ele><time>2026-05-03T07:54:58.775Z</time></trkpt><trkpt lat="39.8118971" lon="8.8313763"><ele>367.0</ele><time>2026-05-03T07:54:59.774Z</time></trkpt><trkpt lat="39.811885" lon="8.8312682"><ele>367.0</ele><time>2026-05-03T07:55:00.775Z</time></trkpt><trkpt lat="39.8118812" lon="8.8311433"><ele>367.0</ele><time>2026-05-03T07:55:01.773Z</time></trkpt><trkpt lat="39.8118967" lon="8.8310168"><ele>367.0</ele><time>2026-05-03T07:55:02.773Z</time></trkpt><trkpt lat="39.8119238" lon="8.8308941"><ele>367.20000000000005</ele><time>2026-05-03T07:55:03.775Z</time></trkpt><trkpt lat="39.8119639" lon="8.8307775"><ele>367.4</ele><time>2026-05-03T07:55:04.774Z</time></trkpt><trkpt lat="39.8120218" lon="8.8306715"><ele>367.6</ele><time>2026-05-03T07:55:05.774Z</time></trkpt><trkpt lat="39.8120792" lon="8.8305571"><ele>367.79999999999995</ele><time>2026-05-03T07:55:06.774Z</time></trkpt><trkpt lat="39.812139" lon="8.830448"><ele>368.0</ele><time>2026-05-03T07:55:07.775Z</time></trkpt><trkpt lat="39.8121948" lon="8.8303449"><ele>368.0</ele><time>2026-05-03T07:55:08.774Z</time></trkpt><trkpt lat="39.8122496" lon="8.8302423"><ele>368.0</ele><time>2026-05-03T07:55:09.775Z</time></trkpt><trkpt lat="39.8123079" lon="8.8301436"><ele>368.0</ele><time>2026-05-03T07:55:10.774Z</time></trkpt><trkpt lat="39.8123611" lon="8.8300544"><ele>368.0</ele><time>2026-05-03T07:55:11.775Z</time></trkpt><trkpt lat="39.812431" lon="8.8299713"><ele>368.0</ele><time>2026-05-03T07:55:12.774Z</time></trkpt><trkpt lat="39.8125079" lon="8.8298918"><ele>367.4</ele><time>2026-05-03T07:55:13.775Z</time></trkpt><trkpt lat="39.8125879" lon="8.8298163"><ele>366.79999999999995</ele><time>2026-05-03T07:55:14.774Z</time></trkpt><trkpt lat="39.8126715" lon="8.8297438"><ele>366.2</ele><time>2026-05-03T07:55:15.775Z</time></trkpt><trkpt lat="39.8127494" lon="8.8296752"><ele>365.6</ele><time>2026-05-03T07:55:16.773Z</time></trkpt><trkpt lat="39.8128261" lon="8.8296044"><ele>365.0</ele><time>2026-05-03T07:55:17.775Z</time></trkpt><trkpt lat="39.812907" lon="8.8295267"><ele>365.0</ele><time>2026-05-03T07:55:18.774Z</time></trkpt><trkpt lat="39.8129929" lon="8.8294415"><ele>365.0</ele><time>2026-05-03T07:55:19.774Z</time></trkpt><trkpt lat="39.8130725" lon="8.8293592"><ele>365.0</ele><time>2026-05-03T07:55:20.772Z</time></trkpt><trkpt lat="39.8131526" lon="8.8292778"><ele>365.0</ele><time>2026-05-03T07:55:21.774Z</time></trkpt><trkpt lat="39.8132351" lon="8.8291948"><ele>365.0</ele><time>2026-05-03T07:55:22.773Z</time></trkpt><trkpt lat="39.8133232" lon="8.8291182"><ele>371.0</ele><time>2026-05-03T07:55:23.774Z</time></trkpt><trkpt lat="39.8134121" lon="8.8290401"><ele>377.0</ele><time>2026-05-03T07:55:24.775Z</time></trkpt><trkpt lat="39.8135077" lon="8.8289516"><ele>383.0</ele><time>2026-05-03T07:55:25.775Z</time></trkpt><trkpt lat="39.8136033" lon="8.8288686"><ele>389.0</ele><time>2026-05-03T07:55:26.773Z</time></trkpt><trkpt lat="39.8137015" lon="8.8287858"><ele>389.0</ele><time>2026-05-03T07:55:27.774Z</time></trkpt><trkpt lat="39.8138007" lon="8.8287067"><ele>389.0</ele><time>2026-05-03T07:55:28.774Z</time></trkpt><trkpt lat="39.8139057" lon="8.8286271"><ele>389.0</ele><time>2026-05-03T07:55:29.773Z</time></trkpt><trkpt lat="39.8140021" lon="8.8285501"><ele>389.0</ele><time>2026-05-03T07:55:30.773Z</time></trkpt><trkpt lat="39.8141011" lon="8.828466"><ele>391.2</ele><time>2026-05-03T07:55:31.774Z</time></trkpt><trkpt lat="39.8141881" lon="8.8283908"><ele>393.4</ele><time>2026-05-03T07:55:32.773Z</time></trkpt><trkpt lat="39.8142788" lon="8.8283222"><ele>395.6</ele><time>2026-05-03T07:55:33.773Z</time></trkpt><trkpt lat="39.8143718" lon="8.8282429"><ele>397.8</ele><time>2026-05-03T07:55:34.773Z</time></trkpt><trkpt lat="39.8144624" lon="8.828168"><ele>400.0</ele><time>2026-05-03T07:55:35.774Z</time></trkpt><trkpt lat="39.8145545" lon="8.8280953"><ele>401.4</ele><time>2026-05-03T07:55:36.773Z</time></trkpt><trkpt lat="39.8146519" lon="8.8280305"><ele>402.8</ele><time>2026-05-03T07:55:37.773Z</time></trkpt><trkpt lat="39.8147507" lon="8.8279764"><ele>404.20000000000005</ele><time>2026-05-03T07:55:38.774Z</time></trkpt><trkpt lat="39.8148543" lon="8.8279239"><ele>405.6</ele><time>2026-05-03T07:55:39.772Z</time></trkpt><trkpt lat="39.814959" lon="8.8278737"><ele>407.0</ele><time>2026-05-03T07:55:40.773Z</time></trkpt><trkpt lat="39.8150561" lon="8.8278258"><ele>405.20000000000005</ele><time>2026-05-03T07:55:41.774Z</time></trkpt><trkpt lat="39.8151562" lon="8.8277886"><ele>403.4</ele><time>2026-05-03T07:55:42.773Z</time></trkpt><trkpt lat="39.8152638" lon="8.8277602"><ele>401.6</ele><time>2026-05-03T07:55:43.774Z</time></trkpt><trkpt lat="39.8153711" lon="8.8277447"><ele>399.79999999999995</ele><time>2026-05-03T07:55:44.774Z</time></trkpt><trkpt lat="39.8154853" lon="8.827735"><ele>398.0</ele><time>2026-05-03T07:55:45.774Z</time></trkpt><trkpt lat="39.8156013" lon="8.8277239"><ele>397.99999999999994</ele><time>2026-05-03T07:55:46.774Z</time></trkpt><trkpt lat="39.8157003" lon="8.8277134"><ele>398.0</ele><time>2026-05-03T07:55:47.774Z</time></trkpt><trkpt lat="39.8157908" lon="8.8276885"><ele>398.0</ele><time>2026-05-03T07:55:48.773Z</time></trkpt><trkpt lat="39.8158753" lon="8.8276412"><ele>398.0</ele><time>2026-05-03T07:55:49.774Z</time></trkpt><trkpt lat="39.8159393" lon="8.8275728"><ele>397.99999999999994</ele><time>2026-05-03T07:55:50.774Z</time></trkpt><trkpt lat="39.815981" lon="8.8274801"><ele>398.0</ele><time>2026-05-03T07:55:51.774Z</time></trkpt><trkpt lat="39.8160072" lon="8.827374"><ele>401.59999999999997</ele><time>2026-05-03T07:55:52.773Z</time></trkpt><trkpt lat="39.8160222" lon="8.8272509"><ele>405.2</ele><time>2026-05-03T07:55:53.773Z</time></trkpt><trkpt lat="39.8160415" lon="8.8271275"><ele>408.8</ele><time>2026-05-03T07:55:54.774Z</time></trkpt><trkpt lat="39.8160785" lon="8.8269953"><ele>412.4</ele><time>2026-05-03T07:55:55.774Z</time></trkpt><trkpt lat="39.8161199" lon="8.8268698"><ele>416.0</ele><time>2026-05-03T07:55:56.772Z</time></trkpt><trkpt lat="39.8161703" lon="8.8267301"><ele>417.0</ele><time>2026-05-03T07:55:57.774Z</time></trkpt><trkpt lat="39.8162246" lon="8.8265905"><ele>418.0</ele><time>2026-05-03T07:55:58.775Z</time></trkpt><trkpt lat="39.8162841" lon="8.8264622"><ele>419.0</ele><time>2026-05-03T07:55:59.775Z</time></trkpt><trkpt lat="39.8163309" lon="8.8263519"><ele>420.0</ele><time>2026-05-03T07:56:00.773Z</time></trkpt><trkpt lat="39.8163836" lon="8.8262418"><ele>421.0</ele><time>2026-05-03T07:56:01.773Z</time></trkpt><trkpt lat="39.8164497" lon="8.8261446"><ele>421.0</ele><time>2026-05-03T07:56:02.773Z</time></trkpt><trkpt lat="39.8165222" lon="8.8260542"><ele>421.0</ele><time>2026-05-03T07:56:03.772Z</time></trkpt><trkpt lat="39.8166079" lon="8.8259653"><ele>421.0</ele><time>2026-05-03T07:56:04.772Z</time></trkpt><trkpt lat="39.8167096" lon="8.8258798"><ele>421.0</ele><time>2026-05-03T07:56:05.775Z</time></trkpt><trkpt lat="39.8168134" lon="8.8257919"><ele>420.0</ele><time>2026-05-03T07:56:06.774Z</time></trkpt><trkpt lat="39.8169177" lon="8.8257047"><ele>419.0</ele><time>2026-05-03T07:56:07.774Z</time></trkpt><trkpt lat="39.8170268" lon="8.8256074"><ele>418.0</ele><time>2026-05-03T07:56:08.775Z</time></trkpt><trkpt lat="39.8171325" lon="8.8255124"><ele>417.0</ele><time>2026-05-03T07:56:09.774Z</time></trkpt><trkpt lat="39.8172333" lon="8.8254149"><ele>417.0</ele><time>2026-05-03T07:56:10.773Z</time></trkpt><trkpt lat="39.8173317" lon="8.8253111"><ele>417.0</ele><time>2026-05-03T07:56:11.773Z</time></trkpt><trkpt lat="39.8174284" lon="8.8252075"><ele>417.0</ele><time>2026-05-03T07:56:12.773Z</time></trkpt><trkpt lat="39.8175242" lon="8.8251168"><ele>417.0</ele><time>2026-05-03T07:56:13.773Z</time></trkpt><trkpt lat="39.8176206" lon="8.8250384"><ele>417.25</ele><time>2026-05-03T07:56:14.773Z</time></trkpt><trkpt lat="39.8177201" lon="8.8249586"><ele>417.5</ele><time>2026-05-03T07:56:15.772Z</time></trkpt><trkpt lat="39.8178134" lon="8.8248669"><ele>417.75</ele><time>2026-05-03T07:56:16.773Z</time></trkpt><trkpt lat="39.8178966" lon="8.8247679"><ele>418.0</ele><time>2026-05-03T07:56:17.774Z</time></trkpt><trkpt lat="39.8179733" lon="8.8246584"><ele>418.0</ele><time>2026-05-03T07:56:18.774Z</time></trkpt><trkpt lat="39.818048" lon="8.8245494"><ele>418.0</ele><time>2026-05-03T07:56:19.774Z</time></trkpt><trkpt lat="39.8181128" lon="8.8244505"><ele>418.0</ele><time>2026-05-03T07:56:20.773Z</time></trkpt><trkpt lat="39.8181692" lon="8.8243736"><ele>418.0</ele><time>2026-05-03T07:56:21.774Z</time></trkpt><trkpt lat="39.8182378" lon="8.8242957"><ele>418.0</ele><time>2026-05-03T07:56:23.774Z</time></trkpt><trkpt lat="39.8182981" lon="8.8242317"><ele>418.2</ele><time>2026-05-03T07:56:26.773Z</time></trkpt><trkpt lat="39.8183963" lon="8.8241353"><ele>418.4</ele><time>2026-05-03T07:56:31.775Z</time></trkpt><trkpt lat="39.8184569" lon="8.8240606"><ele>418.59999999999997</ele><time>2026-05-03T07:56:32.775Z</time></trkpt><trkpt lat="39.818517" lon="8.8239675"><ele>418.79999999999995</ele><time>2026-05-03T07:56:33.774Z</time></trkpt><trkpt lat="39.8185833" lon="8.8238696"><ele>419.0</ele><time>2026-05-03T07:56:34.775Z</time></trkpt><trkpt lat="39.8186469" lon="8.8237685"><ele>418.99999999999994</ele><time>2026-05-03T07:56:35.773Z</time></trkpt><trkpt lat="39.8187111" lon="8.8236763"><ele>419.0</ele><time>2026-05-03T07:56:36.774Z</time></trkpt><trkpt lat="39.8187787" lon="8.8235992"><ele>419.0</ele><time>2026-05-03T07:56:37.774Z</time></trkpt><trkpt lat="39.8188524" lon="8.8235423"><ele>419.0</ele><time>2026-05-03T07:56:38.773Z</time></trkpt><trkpt lat="39.8189322" lon="8.8234954"><ele>418.99999999999994</ele><time>2026-05-03T07:56:39.774Z</time></trkpt><trkpt lat="39.8190069" lon="8.8234487"><ele>419.0</ele><time>2026-05-03T07:56:40.773Z</time></trkpt><trkpt lat="39.8190724" lon="8.8234122"><ele>420.99999999999994</ele><time>2026-05-03T07:56:41.772Z</time></trkpt><trkpt lat="39.8191408" lon="8.8233578"><ele>423.0</ele><time>2026-05-03T07:56:43.774Z</time></trkpt><trkpt lat="39.819121" lon="8.8232704"><ele>425.0</ele><time>2026-05-03T07:56:46.773Z</time></trkpt><trkpt lat="39.819065" lon="8.8232269"><ele>427.0</ele><time>2026-05-03T07:56:47.775Z</time></trkpt><trkpt lat="39.8189709" lon="8.8231806"><ele>428.99999999999994</ele><time>2026-05-03T07:56:49.774Z</time></trkpt><trkpt lat="39.8189033" lon="8.8231452"><ele>431.0</ele><time>2026-05-03T07:56:53.774Z</time></trkpt><trkpt lat="39.8187896" lon="8.8231044"><ele>431.0</ele><time>2026-05-03T07:57:09.774Z</time></trkpt><trkpt lat="39.8186789" lon="8.823064"><ele>431.0</ele><time>2026-05-03T07:57:11.774Z</time></trkpt><trkpt lat="39.8185814" lon="8.8230244"><ele>431.0</ele><time>2026-05-03T07:57:13.773Z</time></trkpt><trkpt lat="39.818477" lon="8.8229694"><ele>431.0</ele><time>2026-05-03T07:57:15.773Z</time></trkpt><trkpt lat="39.8183535" lon="8.822919"><ele>431.49999999999994</ele><time>2026-05-03T07:57:17.774Z</time></trkpt><trkpt lat="39.8182945" lon="8.8228899"><ele>432.0</ele><time>2026-05-03T07:57:18.774Z</time></trkpt><trkpt lat="39.8181819" lon="8.8228304"><ele>432.5</ele><time>2026-05-03T07:57:20.773Z</time></trkpt><trkpt lat="39.8180708" lon="8.8227704"><ele>433.0</ele><time>2026-05-03T07:57:22.774Z</time></trkpt><trkpt lat="39.8180114" lon="8.8227318"><ele>433.49999999999994</ele><time>2026-05-03T07:57:23.775Z</time></trkpt><trkpt lat="39.8179435" lon="8.8226874"><ele>434.0</ele><time>2026-05-03T07:57:24.774Z</time></trkpt><trkpt lat="39.8178819" lon="8.8226379"><ele>433.99999999999994</ele><time>2026-05-03T07:57:25.772Z</time></trkpt><trkpt lat="39.8178281" lon="8.8225734"><ele>434.0</ele><time>2026-05-03T07:57:26.773Z</time></trkpt><trkpt lat="39.8177728" lon="8.8225034"><ele>434.0</ele><time>2026-05-03T07:57:27.774Z</time></trkpt><trkpt lat="39.8177139" lon="8.8224398"><ele>434.0</ele><time>2026-05-03T07:57:28.773Z</time></trkpt><trkpt lat="39.8176463" lon="8.8223716"><ele>433.99999999999994</ele><time>2026-05-03T07:57:29.773Z</time></trkpt><trkpt lat="39.8175847" lon="8.822305"><ele>434.0</ele><time>2026-05-03T07:57:30.773Z</time></trkpt><trkpt lat="39.8175227" lon="8.8222313"><ele>433.79999999999995</ele><time>2026-05-03T07:57:31.773Z</time></trkpt><trkpt lat="39.8174561" lon="8.8221455"><ele>433.59999999999997</ele><time>2026-05-03T07:57:32.773Z</time></trkpt><trkpt lat="39.8174037" lon="8.8220557"><ele>433.4</ele><time>2026-05-03T07:57:33.773Z</time></trkpt><trkpt lat="39.817361" lon="8.8219585"><ele>433.2</ele><time>2026-05-03T07:57:34.773Z</time></trkpt><trkpt lat="39.8173271" lon="8.8218529"><ele>433.0</ele><time>2026-05-03T07:57:35.775Z</time></trkpt><trkpt lat="39.8172853" lon="8.8217354"><ele>433.0</ele><time>2026-05-03T07:57:36.773Z</time></trkpt><trkpt lat="39.8172532" lon="8.8216078"><ele>432.99999999999994</ele><time>2026-05-03T07:57:37.773Z</time></trkpt><trkpt lat="39.8172236" lon="8.8214785"><ele>432.99999999999994</ele><time>2026-05-03T07:57:38.773Z</time></trkpt><trkpt lat="39.8171986" lon="8.821341"><ele>433.0</ele><time>2026-05-03T07:57:39.775Z</time></trkpt><trkpt lat="39.8171688" lon="8.8212009"><ele>433.0</ele><time>2026-05-03T07:57:40.775Z</time></trkpt><trkpt lat="39.8171417" lon="8.8210703"><ele>433.0</ele><time>2026-05-03T07:57:41.774Z</time></trkpt><trkpt lat="39.8170989" lon="8.8209452"><ele>432.99999999999994</ele><time>2026-05-03T07:57:42.773Z</time></trkpt><trkpt lat="39.8170675" lon="8.8208158"><ele>432.99999999999994</ele><time>2026-05-03T07:57:43.775Z</time></trkpt><trkpt lat="39.8170372" lon="8.8206904"><ele>433.0</ele><time>2026-05-03T07:57:44.774Z</time></trkpt><trkpt lat="39.8170156" lon="8.8205805"><ele>433.0</ele><time>2026-05-03T07:57:45.772Z</time></trkpt><trkpt lat="39.8169932" lon="8.8204605"><ele>433.00000000000006</ele><time>2026-05-03T07:57:46.774Z</time></trkpt><trkpt lat="39.8169721" lon="8.8203584"><ele>433.0</ele><time>2026-05-03T07:57:47.774Z</time></trkpt><trkpt lat="39.8169419" lon="8.8202497"><ele>433.0</ele><time>2026-05-03T07:57:48.775Z</time></trkpt><trkpt lat="39.8169144" lon="8.8201374"><ele>433.0</ele><time>2026-05-03T07:57:49.773Z</time></trkpt><trkpt lat="39.8168901" lon="8.8200134"><ele>433.00000000000006</ele><time>2026-05-03T07:57:50.773Z</time></trkpt><trkpt lat="39.8168671" lon="8.8199072"><ele>433.0</ele><time>2026-05-03T07:57:51.774Z</time></trkpt><trkpt lat="39.8168352" lon="8.8197917"><ele>432.59999999999997</ele><time>2026-05-03T07:57:52.773Z</time></trkpt><trkpt lat="39.816804" lon="8.8196692"><ele>432.19999999999993</ele><time>2026-05-03T07:57:53.773Z</time></trkpt><trkpt lat="39.8167748" lon="8.8195466"><ele>431.8</ele><time>2026-05-03T07:57:54.772Z</time></trkpt><trkpt lat="39.8167508" lon="8.8194245"><ele>431.4</ele><time>2026-05-03T07:57:55.773Z</time></trkpt><trkpt lat="39.8167303" lon="8.8193049"><ele>431.0</ele><time>2026-05-03T07:57:56.773Z</time></trkpt><trkpt lat="39.8167177" lon="8.8191963"><ele>430.66666666666663</ele><time>2026-05-03T07:57:57.774Z</time></trkpt><trkpt lat="39.8167011" lon="8.819095"><ele>430.3333333333333</ele><time>2026-05-03T07:57:58.773Z</time></trkpt><trkpt lat="39.8166825" lon="8.818991"><ele>430.0</ele><time>2026-05-03T07:57:59.773Z</time></trkpt><trkpt lat="39.8166689" lon="8.8188848"><ele>429.66666666666663</ele><time>2026-05-03T07:58:00.772Z</time></trkpt><trkpt lat="39.8166606" lon="8.8187943"><ele>429.3333333333333</ele><time>2026-05-03T07:58:01.775Z</time></trkpt><trkpt lat="39.8166594" lon="8.8187046"><ele>429.0</ele><time>2026-05-03T07:58:02.774Z</time></trkpt><trkpt lat="39.816666" lon="8.8186177"><ele>428.2</ele><time>2026-05-03T07:58:03.773Z</time></trkpt><trkpt lat="39.8167235" lon="8.8184643"><ele>427.4</ele><time>2026-05-03T07:58:05.774Z</time></trkpt><trkpt lat="39.8167972" lon="8.8183645"><ele>426.6</ele><time>2026-05-03T07:58:06.773Z</time></trkpt><trkpt lat="39.8168522" lon="8.8182776"><ele>425.8</ele><time>2026-05-03T07:58:07.773Z</time></trkpt><trkpt lat="39.8168969" lon="8.8181873"><ele>425.0</ele><time>2026-05-03T07:58:08.773Z</time></trkpt><trkpt lat="39.8169192" lon="8.8180997"><ele>426.3333333333333</ele><time>2026-05-03T07:58:09.773Z</time></trkpt><trkpt lat="39.8169247" lon="8.8179974"><ele>427.66666666666663</ele><time>2026-05-03T07:58:10.773Z</time></trkpt><trkpt lat="39.8169398" lon="8.8178895"><ele>429.0</ele><time>2026-05-03T07:58:11.773Z</time></trkpt><trkpt lat="39.8169613" lon="8.817776"><ele>430.33333333333337</ele><time>2026-05-03T07:58:12.773Z</time></trkpt><trkpt lat="39.8169716" lon="8.817656"><ele>431.6666666666667</ele><time>2026-05-03T07:58:13.773Z</time></trkpt><trkpt lat="39.8169825" lon="8.8175352"><ele>433.0</ele><time>2026-05-03T07:58:14.774Z</time></trkpt><trkpt lat="39.8169804" lon="8.8174299"><ele>433.0</ele><time>2026-05-03T07:58:15.775Z</time></trkpt><trkpt lat="39.816997" lon="8.8172573"><ele>432.99999999999994</ele><time>2026-05-03T07:58:17.773Z</time></trkpt><trkpt lat="39.8170142" lon="8.8171551"><ele>432.99999999999994</ele><time>2026-05-03T07:58:18.774Z</time></trkpt><trkpt lat="39.8170431" lon="8.8170278"><ele>433.0</ele><time>2026-05-03T07:58:19.774Z</time></trkpt><trkpt lat="39.817069" lon="8.8168938"><ele>433.0</ele><time>2026-05-03T07:58:20.773Z</time></trkpt><trkpt lat="39.8170899" lon="8.8167559"><ele>432.59999999999997</ele><time>2026-05-03T07:58:21.772Z</time></trkpt><trkpt lat="39.8171021" lon="8.8166259"><ele>432.19999999999993</ele><time>2026-05-03T07:58:22.773Z</time></trkpt><trkpt lat="39.81711" lon="8.8164905"><ele>431.8</ele><time>2026-05-03T07:58:23.775Z</time></trkpt><trkpt lat="39.817126" lon="8.8163599"><ele>431.4</ele><time>2026-05-03T07:58:24.774Z</time></trkpt><trkpt lat="39.8171442" lon="8.8162254"><ele>431.0</ele><time>2026-05-03T07:58:25.774Z</time></trkpt><trkpt lat="39.8171542" lon="8.816089"><ele>431.20000000000005</ele><time>2026-05-03T07:58:26.772Z</time></trkpt><trkpt lat="39.8171625" lon="8.8159568"><ele>431.40000000000003</ele><time>2026-05-03T07:58:27.774Z</time></trkpt><trkpt lat="39.8171521" lon="8.8158207"><ele>431.6</ele><time>2026-05-03T07:58:28.774Z</time></trkpt><trkpt lat="39.8171403" lon="8.8156834"><ele>431.8</ele><time>2026-05-03T07:58:29.774Z</time></trkpt><trkpt lat="39.817133" lon="8.8155476"><ele>432.0</ele><time>2026-05-03T07:58:30.772Z</time></trkpt><trkpt lat="39.8171328" lon="8.8154178"><ele>432.0</ele><time>2026-05-03T07:58:31.772Z</time></trkpt><trkpt lat="39.8171325" lon="8.8152978"><ele>432.00000000000006</ele><time>2026-05-03T07:58:32.774Z</time></trkpt><trkpt lat="39.817131" lon="8.8151822"><ele>432.00000000000006</ele><time>2026-05-03T07:58:33.775Z</time></trkpt><trkpt lat="39.8171299" lon="8.8150746"><ele>432.0</ele><time>2026-05-03T07:58:34.772Z</time></trkpt><trkpt lat="39.8171413" lon="8.8149515"><ele>432.0</ele><time>2026-05-03T07:58:35.773Z</time></trkpt><trkpt lat="39.8171517" lon="8.8148158"><ele>432.0</ele><time>2026-05-03T07:58:36.774Z</time></trkpt><trkpt lat="39.8171577" lon="8.8146824"><ele>432.00000000000006</ele><time>2026-05-03T07:58:37.772Z</time></trkpt><trkpt lat="39.8171707" lon="8.8145405"><ele>432.00000000000006</ele><time>2026-05-03T07:58:38.773Z</time></trkpt><trkpt lat="39.8171772" lon="8.8143886"><ele>432.0</ele><time>2026-05-03T07:58:39.773Z</time></trkpt><trkpt lat="39.8171848" lon="8.8142359"><ele>432.0</ele><time>2026-05-03T07:58:40.775Z</time></trkpt><trkpt lat="39.817199" lon="8.8140825"><ele>431.5</ele><time>2026-05-03T07:58:41.773Z</time></trkpt><trkpt lat="39.8172105" lon="8.813927"><ele>431.0</ele><time>2026-05-03T07:58:42.773Z</time></trkpt><trkpt lat="39.817223" lon="8.8137692"><ele>430.5</ele><time>2026-05-03T07:58:43.773Z</time></trkpt><trkpt lat="39.8172278" lon="8.8136252"><ele>430.0</ele><time>2026-05-03T07:58:44.773Z</time></trkpt><trkpt lat="39.8172365" lon="8.8134839"><ele>430.0</ele><time>2026-05-03T07:58:45.774Z</time></trkpt><trkpt lat="39.8172445" lon="8.8133433"><ele>430.0</ele><time>2026-05-03T07:58:46.775Z</time></trkpt><trkpt lat="39.8172477" lon="8.8131969"><ele>430.0</ele><time>2026-05-03T07:58:47.773Z</time></trkpt><trkpt lat="39.8172479" lon="8.8130511"><ele>430.0</ele><time>2026-05-03T07:58:48.772Z</time></trkpt><trkpt lat="39.8172526" lon="8.8129057"><ele>430.0</ele><time>2026-05-03T07:58:49.773Z</time></trkpt><trkpt lat="39.817254" lon="8.8127738"><ele>430.25</ele><time>2026-05-03T07:58:50.774Z</time></trkpt><trkpt lat="39.8172564" lon="8.8126357"><ele>430.5</ele><time>2026-05-03T07:58:51.774Z</time></trkpt><trkpt lat="39.8172529" lon="8.8124865"><ele>430.75</ele><time>2026-05-03T07:58:52.773Z</time></trkpt><trkpt lat="39.81725" lon="8.8123327"><ele>431.0</ele><time>2026-05-03T07:58:53.774Z</time></trkpt><trkpt lat="39.817253" lon="8.812173"><ele>431.0</ele><time>2026-05-03T07:58:54.774Z</time></trkpt><trkpt lat="39.8172547" lon="8.8120142"><ele>431.0</ele><time>2026-05-03T07:58:55.774Z</time></trkpt><trkpt lat="39.8172603" lon="8.8118553"><ele>431.0</ele><time>2026-05-03T07:58:56.774Z</time></trkpt><trkpt lat="39.8172672" lon="8.8117041"><ele>431.0</ele><time>2026-05-03T07:58:57.774Z</time></trkpt><trkpt lat="39.8172803" lon="8.8115636"><ele>430.75</ele><time>2026-05-03T07:58:58.773Z</time></trkpt><trkpt lat="39.8172924" lon="8.8114144"><ele>430.5</ele><time>2026-05-03T07:58:59.772Z</time></trkpt><trkpt lat="39.8173071" lon="8.8112622"><ele>430.25</ele><time>2026-05-03T07:59:00.774Z</time></trkpt><trkpt lat="39.8173257" lon="8.8111116"><ele>430.0</ele><time>2026-05-03T07:59:01.772Z</time></trkpt><trkpt lat="39.8173336" lon="8.810959"><ele>430.5</ele><time>2026-05-03T07:59:02.773Z</time></trkpt><trkpt lat="39.8173447" lon="8.8108041"><ele>431.0</ele><time>2026-05-03T07:59:03.773Z</time></trkpt><trkpt lat="39.8173579" lon="8.8106567"><ele>431.5</ele><time>2026-05-03T07:59:04.775Z</time></trkpt><trkpt lat="39.8173733" lon="8.8105043"><ele>432.0</ele><time>2026-05-03T07:59:05.773Z</time></trkpt><trkpt lat="39.8174007" lon="8.8103751"><ele>432.0</ele><time>2026-05-03T07:59:06.773Z</time></trkpt><trkpt lat="39.8174382" lon="8.8102431"><ele>432.00000000000006</ele><time>2026-05-03T07:59:07.774Z</time></trkpt><trkpt lat="39.8174685" lon="8.8101181"><ele>432.00000000000006</ele><time>2026-05-03T07:59:08.775Z</time></trkpt><trkpt lat="39.8174901" lon="8.8099921"><ele>432.0</ele><time>2026-05-03T07:59:09.774Z</time></trkpt><trkpt lat="39.8175123" lon="8.8098747"><ele>432.0</ele><time>2026-05-03T07:59:10.773Z</time></trkpt><trkpt lat="39.8175293" lon="8.8097691"><ele>432.0</ele><time>2026-05-03T07:59:11.774Z</time></trkpt><trkpt lat="39.817537" lon="8.8096731"><ele>432.00000000000006</ele><time>2026-05-03T07:59:12.773Z</time></trkpt><trkpt lat="39.8175015" lon="8.8095073"><ele>432.00000000000006</ele><time>2026-05-03T07:59:14.772Z</time></trkpt><trkpt lat="39.8174454" lon="8.8094266"><ele>432.0</ele><time>2026-05-03T07:59:15.774Z</time></trkpt><trkpt lat="39.8173762" lon="8.8093476"><ele>432.0</ele><time>2026-05-03T07:59:16.772Z</time></trkpt><trkpt lat="39.8173194" lon="8.8092695"><ele>432.0</ele><time>2026-05-03T07:59:17.774Z</time></trkpt><trkpt lat="39.817271" lon="8.8091906"><ele>432.0</ele><time>2026-05-03T07:59:18.774Z</time></trkpt><trkpt lat="39.8172353" lon="8.8091046"><ele>432.0</ele><time>2026-05-03T07:59:19.773Z</time></trkpt><trkpt lat="39.8172122" lon="8.8090097"><ele>432.0</ele><time>2026-05-03T07:59:20.773Z</time></trkpt><trkpt lat="39.8172017" lon="8.8089105"><ele>432.0</ele><time>2026-05-03T07:59:21.774Z</time></trkpt><trkpt lat="39.8171998" lon="8.8087932"><ele>432.0</ele><time>2026-05-03T07:59:22.774Z</time></trkpt><trkpt lat="39.8172065" lon="8.8086705"><ele>432.0</ele><time>2026-05-03T07:59:23.774Z</time></trkpt><trkpt lat="39.8172201" lon="8.8085381"><ele>432.00000000000006</ele><time>2026-05-03T07:59:24.773Z</time></trkpt><trkpt lat="39.8172321" lon="8.8083982"><ele>432.00000000000006</ele><time>2026-05-03T07:59:25.773Z</time></trkpt><trkpt lat="39.8172402" lon="8.8082557"><ele>432.0</ele><time>2026-05-03T07:59:26.773Z</time></trkpt><trkpt lat="39.8172529" lon="8.8081159"><ele>432.0</ele><time>2026-05-03T07:59:27.773Z</time></trkpt><trkpt lat="39.8172657" lon="8.8079628"><ele>432.25</ele><time>2026-05-03T07:59:28.773Z</time></trkpt><trkpt lat="39.8172788" lon="8.8078132"><ele>432.5</ele><time>2026-05-03T07:59:29.774Z</time></trkpt><trkpt lat="39.8172916" lon="8.8076655"><ele>432.75</ele><time>2026-05-03T07:59:30.773Z</time></trkpt><trkpt lat="39.817304" lon="8.8075183"><ele>433.0</ele><time>2026-05-03T07:59:31.774Z</time></trkpt><trkpt lat="39.8173166" lon="8.8073767"><ele>433.59999999999997</ele><time>2026-05-03T07:59:32.773Z</time></trkpt><trkpt lat="39.8173271" lon="8.8072352"><ele>434.19999999999993</ele><time>2026-05-03T07:59:33.774Z</time></trkpt><trkpt lat="39.8173372" lon="8.8071006"><ele>434.8</ele><time>2026-05-03T07:59:34.773Z</time></trkpt><trkpt lat="39.8173397" lon="8.806983"><ele>435.4</ele><time>2026-05-03T07:59:35.773Z</time></trkpt><trkpt lat="39.8173359" lon="8.8068659"><ele>436.0</ele><time>2026-05-03T07:59:36.774Z</time></trkpt><trkpt lat="39.8173328" lon="8.8067576"><ele>437.6</ele><time>2026-05-03T07:59:37.773Z</time></trkpt><trkpt lat="39.8173149" lon="8.806646"><ele>439.20000000000005</ele><time>2026-05-03T07:59:38.773Z</time></trkpt><trkpt lat="39.8172921" lon="8.8065253"><ele>440.79999999999995</ele><time>2026-05-03T07:59:39.774Z</time></trkpt><trkpt lat="39.8172765" lon="8.8064059"><ele>442.4</ele><time>2026-05-03T07:59:40.774Z</time></trkpt><trkpt lat="39.8172555" lon="8.8062872"><ele>444.0</ele><time>2026-05-03T07:59:41.775Z</time></trkpt><trkpt lat="39.8172328" lon="8.8061626"><ele>444.0</ele><time>2026-05-03T07:59:42.774Z</time></trkpt><trkpt lat="39.8172106" lon="8.806048"><ele>444.0</ele><time>2026-05-03T07:59:43.773Z</time></trkpt><trkpt lat="39.8171885" lon="8.8059231"><ele>444.0</ele><time>2026-05-03T07:59:44.774Z</time></trkpt><trkpt lat="39.8171736" lon="8.8057992"><ele>444.0</ele><time>2026-05-03T07:59:45.772Z</time></trkpt><trkpt lat="39.8171603" lon="8.8056658"><ele>444.0</ele><time>2026-05-03T07:59:46.773Z</time></trkpt><trkpt lat="39.8171539" lon="8.8055372"><ele>445.79999999999995</ele><time>2026-05-03T07:59:47.774Z</time></trkpt><trkpt lat="39.8171565" lon="8.8054023"><ele>447.59999999999997</ele><time>2026-05-03T07:59:48.774Z</time></trkpt><trkpt lat="39.8171592" lon="8.8052679"><ele>449.4</ele><time>2026-05-03T07:59:49.773Z</time></trkpt><trkpt lat="39.8171617" lon="8.8051467"><ele>451.2</ele><time>2026-05-03T07:59:50.773Z</time></trkpt><trkpt lat="39.8171707" lon="8.8050408"><ele>453.0</ele><time>2026-05-03T07:59:51.774Z</time></trkpt><trkpt lat="39.8171848" lon="8.804914"><ele>454.0</ele><time>2026-05-03T07:59:52.774Z</time></trkpt><trkpt lat="39.8172048" lon="8.8047932"><ele>454.99999999999994</ele><time>2026-05-03T07:59:53.775Z</time></trkpt><trkpt lat="39.8172324" lon="8.8046639"><ele>455.99999999999994</ele><time>2026-05-03T07:59:54.777Z</time></trkpt><trkpt lat="39.8172591" lon="8.8045336"><ele>457.0</ele><time>2026-05-03T07:59:55.773Z</time></trkpt><trkpt lat="39.8172855" lon="8.8044094"><ele>458.0</ele><time>2026-05-03T07:59:56.774Z</time></trkpt><trkpt lat="39.8173173" lon="8.8042815"><ele>458.4</ele><time>2026-05-03T07:59:57.774Z</time></trkpt><trkpt lat="39.8173497" lon="8.8041524"><ele>458.79999999999995</ele><time>2026-05-03T07:59:58.773Z</time></trkpt><trkpt lat="39.8173827" lon="8.8040381"><ele>459.2</ele><time>2026-05-03T07:59:59.774Z</time></trkpt><trkpt lat="39.8174124" lon="8.8039146"><ele>459.6</ele><time>2026-05-03T08:00:00.774Z</time></trkpt><trkpt lat="39.817444" lon="8.8037902"><ele>460.0</ele><time>2026-05-03T08:00:01.772Z</time></trkpt><trkpt lat="39.8174782" lon="8.8036586"><ele>460.0</ele><time>2026-05-03T08:00:02.774Z</time></trkpt><trkpt lat="39.8175194" lon="8.8035267"><ele>460.0</ele><time>2026-05-03T08:00:03.774Z</time></trkpt><trkpt lat="39.8175528" lon="8.8034107"><ele>460.0</ele><time>2026-05-03T08:00:04.773Z</time></trkpt><trkpt lat="39.8175876" lon="8.8032853"><ele>460.0</ele><time>2026-05-03T08:00:05.774Z</time></trkpt><trkpt lat="39.8176134" lon="8.8031794"><ele>460.0</ele><time>2026-05-03T08:00:06.774Z</time></trkpt><trkpt lat="39.8176217" lon="8.803069"><ele>460.2</ele><time>2026-05-03T08:00:07.772Z</time></trkpt><trkpt lat="39.8176147" lon="8.8029616"><ele>460.4</ele><time>2026-05-03T08:00:08.775Z</time></trkpt><trkpt lat="39.8176057" lon="8.8028462"><ele>460.6</ele><time>2026-05-03T08:00:09.773Z</time></trkpt><trkpt lat="39.8176005" lon="8.8027205"><ele>460.8</ele><time>2026-05-03T08:00:10.774Z</time></trkpt><trkpt lat="39.8176075" lon="8.8025969"><ele>461.0</ele><time>2026-05-03T08:00:11.774Z</time></trkpt><trkpt lat="39.8176089" lon="8.8024704"><ele>461.0</ele><time>2026-05-03T08:00:12.775Z</time></trkpt><trkpt lat="39.8176208" lon="8.8023605"><ele>461.0</ele><time>2026-05-03T08:00:13.774Z</time></trkpt><trkpt lat="39.8176395" lon="8.8022445"><ele>461.0</ele><time>2026-05-03T08:00:14.774Z</time></trkpt><trkpt lat="39.8176606" lon="8.8021282"><ele>461.0</ele><time>2026-05-03T08:00:15.772Z</time></trkpt><trkpt lat="39.8176847" lon="8.801998"><ele>461.0</ele><time>2026-05-03T08:00:16.773Z</time></trkpt><trkpt lat="39.8177076" lon="8.8018577"><ele>462.6</ele><time>2026-05-03T08:00:17.772Z</time></trkpt><trkpt lat="39.817723" lon="8.80173"><ele>464.20000000000005</ele><time>2026-05-03T08:00:18.775Z</time></trkpt><trkpt lat="39.8177303" lon="8.8016014"><ele>465.79999999999995</ele><time>2026-05-03T08:00:19.773Z</time></trkpt><trkpt lat="39.8177382" lon="8.8014706"><ele>467.4</ele><time>2026-05-03T08:00:20.774Z</time></trkpt><trkpt lat="39.8177461" lon="8.8013443"><ele>469.0</ele><time>2026-05-03T08:00:21.775Z</time></trkpt><trkpt lat="39.8177537" lon="8.801219"><ele>469.0</ele><time>2026-05-03T08:00:22.772Z</time></trkpt><trkpt lat="39.8177584" lon="8.8010952"><ele>469.0</ele><time>2026-05-03T08:00:23.773Z</time></trkpt><trkpt lat="39.8177522" lon="8.8009712"><ele>469.0</ele><time>2026-05-03T08:00:24.775Z</time></trkpt><trkpt lat="39.8177333" lon="8.800845"><ele>469.0</ele><time>2026-05-03T08:00:25.774Z</time></trkpt><trkpt lat="39.8177054" lon="8.8007257"><ele>469.0</ele><time>2026-05-03T08:00:26.773Z</time></trkpt><trkpt lat="39.8176805" lon="8.8006003"><ele>469.2</ele><time>2026-05-03T08:00:27.774Z</time></trkpt><trkpt lat="39.8176672" lon="8.8004942"><ele>469.4</ele><time>2026-05-03T08:00:28.774Z</time></trkpt><trkpt lat="39.8176597" lon="8.8003685"><ele>469.6</ele><time>2026-05-03T08:00:29.773Z</time></trkpt><trkpt lat="39.8176635" lon="8.8002347"><ele>469.8</ele><time>2026-05-03T08:00:30.772Z</time></trkpt><trkpt lat="39.8176718" lon="8.8000993"><ele>470.0</ele><time>2026-05-03T08:00:31.775Z</time></trkpt><trkpt lat="39.8176801" lon="8.7999573"><ele>470.6</ele><time>2026-05-03T08:00:32.773Z</time></trkpt><trkpt lat="39.8176826" lon="8.7998193"><ele>471.2</ele><time>2026-05-03T08:00:33.773Z</time></trkpt><trkpt lat="39.8176824" lon="8.7996776"><ele>471.79999999999995</ele><time>2026-05-03T08:00:34.773Z</time></trkpt><trkpt lat="39.8176778" lon="8.7995319"><ele>472.4</ele><time>2026-05-03T08:00:35.774Z</time></trkpt><trkpt lat="39.8176716" lon="8.7993849"><ele>473.0</ele><time>2026-05-03T08:00:36.774Z</time></trkpt><trkpt lat="39.8176685" lon="8.7992358"><ele>473.79999999999995</ele><time>2026-05-03T08:00:37.774Z</time></trkpt><trkpt lat="39.8176608" lon="8.7991031"><ele>474.59999999999997</ele><time>2026-05-03T08:00:38.773Z</time></trkpt><trkpt lat="39.8176489" lon="8.7989771"><ele>475.40000000000003</ele><time>2026-05-03T08:00:39.773Z</time></trkpt><trkpt lat="39.8176306" lon="8.7988562"><ele>476.20000000000005</ele><time>2026-05-03T08:00:40.772Z</time></trkpt><trkpt lat="39.817597" lon="8.7987413"><ele>477.0</ele><time>2026-05-03T08:00:41.774Z</time></trkpt><trkpt lat="39.8175523" lon="8.7986122"><ele>475.8</ele><time>2026-05-03T08:00:42.773Z</time></trkpt><trkpt lat="39.8175017" lon="8.7984954"><ele>474.6</ele><time>2026-05-03T08:00:43.773Z</time></trkpt><trkpt lat="39.8174596" lon="8.7983881"><ele>473.40000000000003</ele><time>2026-05-03T08:00:44.775Z</time></trkpt><trkpt lat="39.8174124" lon="8.7982727"><ele>472.20000000000005</ele><time>2026-05-03T08:00:45.773Z</time></trkpt><trkpt lat="39.8173637" lon="8.7981501"><ele>471.0</ele><time>2026-05-03T08:00:46.774Z</time></trkpt><trkpt lat="39.8173099" lon="8.7980273"><ele>471.0</ele><time>2026-05-03T08:00:47.773Z</time></trkpt><trkpt lat="39.8172597" lon="8.7979052"><ele>471.0</ele><time>2026-05-03T08:00:48.773Z</time></trkpt><trkpt lat="39.8172053" lon="8.7977814"><ele>471.0</ele><time>2026-05-03T08:00:49.774Z</time></trkpt><trkpt lat="39.8171627" lon="8.7976612"><ele>471.0</ele><time>2026-05-03T08:00:50.775Z</time></trkpt><trkpt lat="39.817126" lon="8.7975277"><ele>471.0</ele><time>2026-05-03T08:00:51.773Z</time></trkpt><trkpt lat="39.8170997" lon="8.7974028"><ele>472.20000000000005</ele><time>2026-05-03T08:00:52.773Z</time></trkpt><trkpt lat="39.8170835" lon="8.7972857"><ele>473.40000000000003</ele><time>2026-05-03T08:00:53.772Z</time></trkpt><trkpt lat="39.817069" lon="8.7971639"><ele>474.6</ele><time>2026-05-03T08:00:54.772Z</time></trkpt><trkpt lat="39.81704" lon="8.7970423"><ele>475.8</ele><time>2026-05-03T08:00:55.772Z</time></trkpt><trkpt lat="39.8170213" lon="8.7969277"><ele>477.0</ele><time>2026-05-03T08:00:56.774Z</time></trkpt><trkpt lat="39.8170036" lon="8.7968152"><ele>477.6</ele><time>2026-05-03T08:00:57.772Z</time></trkpt><trkpt lat="39.8170075" lon="8.7966958"><ele>478.20000000000005</ele><time>2026-05-03T08:00:58.773Z</time></trkpt><trkpt lat="39.8170038" lon="8.796567"><ele>478.8</ele><time>2026-05-03T08:00:59.773Z</time></trkpt><trkpt lat="39.8169999" lon="8.7964428"><ele>479.4</ele><time>2026-05-03T08:01:00.773Z</time></trkpt><trkpt lat="39.8169987" lon="8.796298"><ele>480.0</ele><time>2026-05-03T08:01:01.774Z</time></trkpt><trkpt lat="39.8169997" lon="8.7961563"><ele>480.0</ele><time>2026-05-03T08:01:02.773Z</time></trkpt><trkpt lat="39.8169944" lon="8.7960289"><ele>480.0</ele><time>2026-05-03T08:01:03.772Z</time></trkpt><trkpt lat="39.8169786" lon="8.7959098"><ele>480.0</ele><time>2026-05-03T08:01:04.774Z</time></trkpt><trkpt lat="39.8169378" lon="8.7957971"><ele>480.0</ele><time>2026-05-03T08:01:05.774Z</time></trkpt><trkpt lat="39.8168913" lon="8.795694"><ele>480.0</ele><time>2026-05-03T08:01:06.775Z</time></trkpt><trkpt lat="39.8168553" lon="8.7956164"><ele>480.0</ele><time>2026-05-03T08:01:07.773Z</time></trkpt><trkpt lat="39.8168175" lon="8.7955486"><ele>479.6666666666667</ele><time>2026-05-03T08:01:08.773Z</time></trkpt><trkpt lat="39.8167648" lon="8.7954965"><ele>479.33333333333337</ele><time>2026-05-03T08:01:09.774Z</time></trkpt><trkpt lat="39.8167081" lon="8.7954519"><ele>479.0</ele><time>2026-05-03T08:01:10.772Z</time></trkpt><trkpt lat="39.8166162" lon="8.7953749"><ele>478.6666666666667</ele><time>2026-05-03T08:01:12.772Z</time></trkpt><trkpt lat="39.8165298" lon="8.7953037"><ele>478.33333333333337</ele><time>2026-05-03T08:01:14.774Z</time></trkpt><trkpt lat="39.816445" lon="8.7952245"><ele>478.0</ele><time>2026-05-03T08:01:16.774Z</time></trkpt><trkpt lat="39.81636" lon="8.795138"><ele>478.00000000000006</ele><time>2026-05-03T08:01:18.775Z</time></trkpt><trkpt lat="39.8163032" lon="8.7950656"><ele>478.0</ele><time>2026-05-03T08:01:20.774Z</time></trkpt><trkpt lat="39.8162755" lon="8.7949919"><ele>478.00000000000006</ele><time>2026-05-03T08:01:23.774Z</time></trkpt><trkpt lat="39.8162124" lon="8.7950079"><ele>478.00000000000006</ele><time>2026-05-03T08:01:27.774Z</time></trkpt><trkpt lat="39.816278" lon="8.7950945"><ele>478.0</ele><time>2026-05-03T08:01:30.774Z</time></trkpt><trkpt lat="39.8163405" lon="8.7951343"><ele>478.00000000000006</ele><time>2026-05-03T08:01:32.774Z</time></trkpt><trkpt lat="39.8164108" lon="8.795182"><ele>478.00000000000006</ele><time>2026-05-03T08:01:34.773Z</time></trkpt><trkpt lat="39.8164835" lon="8.7952571"><ele>479.0</ele><time>2026-05-03T08:01:36.773Z</time></trkpt><trkpt lat="39.8165755" lon="8.7953309"><ele>479.99999999999994</ele><time>2026-05-03T08:01:38.773Z</time></trkpt><trkpt lat="39.8166719" lon="8.7954132"><ele>480.99999999999994</ele><time>2026-05-03T08:01:40.774Z</time></trkpt><trkpt lat="39.816755" lon="8.7954698"><ele>482.0</ele><time>2026-05-03T08:01:42.775Z</time></trkpt><trkpt lat="39.8168243" lon="8.7954763"><ele>483.0</ele><time>2026-05-03T08:01:44.773Z</time></trkpt><trkpt lat="39.8169189" lon="8.7954498"><ele>483.0</ele><time>2026-05-03T08:02:12.773Z</time></trkpt><trkpt lat="39.8170518" lon="8.7954327"><ele>483.0</ele><time>2026-05-03T08:02:14.774Z</time></trkpt><trkpt lat="39.817115" lon="8.7954277"><ele>483.0</ele><time>2026-05-03T08:02:15.774Z</time></trkpt><trkpt lat="39.8171803" lon="8.7954194"><ele>483.0</ele><time>2026-05-03T08:02:16.773Z</time></trkpt><trkpt lat="39.8172465" lon="8.7954121"><ele>483.0</ele><time>2026-05-03T08:02:17.774Z</time></trkpt><trkpt lat="39.8173472" lon="8.795398"><ele>483.0</ele><time>2026-05-03T08:02:19.773Z</time></trkpt><trkpt lat="39.8174186" lon="8.7953835"><ele>483.0</ele><time>2026-05-03T08:02:21.774Z</time></trkpt><trkpt lat="39.8174971" lon="8.7953796"><ele>483.0</ele><time>2026-05-03T08:02:23.772Z</time></trkpt><trkpt lat="39.817603" lon="8.7953564"><ele>483.0</ele><time>2026-05-03T08:02:25.773Z</time></trkpt><trkpt lat="39.817667" lon="8.7953436"><ele>483.0</ele><time>2026-05-03T08:02:26.773Z</time></trkpt><trkpt lat="39.817797" lon="8.7953243"><ele>483.0</ele><time>2026-05-03T08:02:28.774Z</time></trkpt><trkpt lat="39.817864" lon="8.7953133"><ele>483.0</ele><time>2026-05-03T08:02:29.775Z</time></trkpt><trkpt lat="39.8179351" lon="8.7953041"><ele>483.57142857142856</ele><time>2026-05-03T08:02:30.774Z</time></trkpt><trkpt lat="39.8180068" lon="8.7952938"><ele>484.1428571428571</ele><time>2026-05-03T08:02:31.773Z</time></trkpt><trkpt lat="39.8180758" lon="8.795281"><ele>484.7142857142857</ele><time>2026-05-03T08:02:32.773Z</time></trkpt><trkpt lat="39.818143" lon="8.7952677"><ele>485.2857142857143</ele><time>2026-05-03T08:02:33.774Z</time></trkpt><trkpt lat="39.8182201" lon="8.7952605"><ele>485.85714285714283</ele><time>2026-05-03T08:02:34.773Z</time></trkpt><trkpt lat="39.8182926" lon="8.7952481"><ele>486.42857142857144</ele><time>2026-05-03T08:02:35.773Z</time></trkpt><trkpt lat="39.8183678" lon="8.7952393"><ele>487.0</ele><time>2026-05-03T08:02:36.773Z</time></trkpt><trkpt lat="39.8184411" lon="8.7952259"><ele>487.57142857142856</ele><time>2026-05-03T08:02:37.773Z</time></trkpt><trkpt lat="39.8185111" lon="8.7952166"><ele>488.1428571428571</ele><time>2026-05-03T08:02:38.773Z</time></trkpt><trkpt lat="39.8185819" lon="8.7952079"><ele>488.71428571428567</ele><time>2026-05-03T08:02:39.774Z</time></trkpt><trkpt lat="39.8186585" lon="8.7951938"><ele>489.2857142857143</ele><time>2026-05-03T08:02:40.773Z</time></trkpt><trkpt lat="39.8187267" lon="8.7951867"><ele>489.8571428571428</ele><time>2026-05-03T08:02:41.773Z</time></trkpt><trkpt lat="39.8187993" lon="8.7951729"><ele>490.4285714285714</ele><time>2026-05-03T08:02:42.773Z</time></trkpt><trkpt lat="39.8188751" lon="8.7951578"><ele>491.0</ele><time>2026-05-03T08:02:43.773Z</time></trkpt><trkpt lat="39.8189504" lon="8.7951454"><ele>491.16666666666663</ele><time>2026-05-03T08:02:44.774Z</time></trkpt><trkpt lat="39.8190316" lon="8.7951391"><ele>491.3333333333333</ele><time>2026-05-03T08:02:45.775Z</time></trkpt><trkpt lat="39.8191093" lon="8.795127"><ele>491.5</ele><time>2026-05-03T08:02:46.774Z</time></trkpt><trkpt lat="39.8191869" lon="8.795116"><ele>491.66666666666663</ele><time>2026-05-03T08:02:47.774Z</time></trkpt><trkpt lat="39.8192604" lon="8.7951048"><ele>491.8333333333333</ele><time>2026-05-03T08:02:48.772Z</time></trkpt><trkpt lat="39.8193345" lon="8.7950886"><ele>492.0</ele><time>2026-05-03T08:02:49.773Z</time></trkpt><trkpt lat="39.8194174" lon="8.7950762"><ele>492.3333333333333</ele><time>2026-05-03T08:02:50.775Z</time></trkpt><trkpt lat="39.8195006" lon="8.7950675"><ele>492.66666666666663</ele><time>2026-05-03T08:02:51.773Z</time></trkpt><trkpt lat="39.8195874" lon="8.7950627"><ele>493.0</ele><time>2026-05-03T08:02:52.775Z</time></trkpt><trkpt lat="39.8196735" lon="8.7950496"><ele>493.3333333333333</ele><time>2026-05-03T08:02:53.772Z</time></trkpt><trkpt lat="39.819766" lon="8.7950379"><ele>493.66666666666663</ele><time>2026-05-03T08:02:54.772Z</time></trkpt><trkpt lat="39.8198625" lon="8.7950272"><ele>494.0</ele><time>2026-05-03T08:02:55.772Z</time></trkpt><trkpt lat="39.8199579" lon="8.795012"><ele>494.0</ele><time>2026-05-03T08:02:56.774Z</time></trkpt><trkpt lat="39.8200473" lon="8.7949982"><ele>494.0</ele><time>2026-05-03T08:02:57.773Z</time></trkpt><trkpt lat="39.820141" lon="8.7949815"><ele>494.0</ele><time>2026-05-03T08:02:58.773Z</time></trkpt><trkpt lat="39.8202318" lon="8.7949697"><ele>494.0</ele><time>2026-05-03T08:02:59.774Z</time></trkpt><trkpt lat="39.8203255" lon="8.7949571"><ele>494.0</ele><time>2026-05-03T08:03:00.774Z</time></trkpt><trkpt lat="39.8204269" lon="8.7949439"><ele>493.8333333333333</ele><time>2026-05-03T08:03:01.774Z</time></trkpt><trkpt lat="39.8205228" lon="8.7949321"><ele>493.66666666666663</ele><time>2026-05-03T08:03:02.774Z</time></trkpt><trkpt lat="39.820617" lon="8.7949184"><ele>493.5</ele><time>2026-05-03T08:03:03.773Z</time></trkpt><trkpt lat="39.8207036" lon="8.794903"><ele>493.33333333333337</ele><time>2026-05-03T08:03:04.774Z</time></trkpt><trkpt lat="39.8207876" lon="8.7948918"><ele>493.1666666666667</ele><time>2026-05-03T08:03:05.774Z</time></trkpt><trkpt lat="39.8208669" lon="8.7948884"><ele>493.0</ele><time>2026-05-03T08:03:06.772Z</time></trkpt><trkpt lat="39.820961" lon="8.794882"><ele>492.0</ele><time>2026-05-03T08:03:07.773Z</time></trkpt><trkpt lat="39.8210516" lon="8.7948757"><ele>490.99999999999994</ele><time>2026-05-03T08:03:08.774Z</time></trkpt><trkpt lat="39.8211536" lon="8.7948686"><ele>489.99999999999994</ele><time>2026-05-03T08:03:09.773Z</time></trkpt><trkpt lat="39.8212468" lon="8.7948631"><ele>489.0</ele><time>2026-05-03T08:03:10.773Z</time></trkpt><trkpt lat="39.821331" lon="8.7948537"><ele>488.0</ele><time>2026-05-03T08:03:11.773Z</time></trkpt><trkpt lat="39.8214136" lon="8.7948457"><ele>487.99999999999994</ele><time>2026-05-03T08:03:12.774Z</time></trkpt><trkpt lat="39.8214993" lon="8.7948366"><ele>488.0</ele><time>2026-05-03T08:03:13.774Z</time></trkpt><trkpt lat="39.8215719" lon="8.7948259"><ele>488.0</ele><time>2026-05-03T08:03:14.773Z</time></trkpt><trkpt lat="39.8216532" lon="8.794811"><ele>488.0</ele><time>2026-05-03T08:03:15.773Z</time></trkpt><trkpt lat="39.8217323" lon="8.7947983"><ele>487.99999999999994</ele><time>2026-05-03T08:03:16.773Z</time></trkpt><trkpt lat="39.8218265" lon="8.7947918"><ele>488.0</ele><time>2026-05-03T08:03:17.775Z</time></trkpt><trkpt lat="39.8219283" lon="8.7947855"><ele>486.79999999999995</ele><time>2026-05-03T08:03:18.773Z</time></trkpt><trkpt lat="39.8220341" lon="8.794779"><ele>485.59999999999997</ele><time>2026-05-03T08:03:19.773Z</time></trkpt><trkpt lat="39.8221299" lon="8.7947676"><ele>484.40000000000003</ele><time>2026-05-03T08:03:20.774Z</time></trkpt><trkpt lat="39.8222185" lon="8.794755"><ele>483.20000000000005</ele><time>2026-05-03T08:03:21.773Z</time></trkpt><trkpt lat="39.8223108" lon="8.7947499"><ele>482.0</ele><time>2026-05-03T08:03:22.772Z</time></trkpt><trkpt lat="39.8224097" lon="8.7947419"><ele>482.0</ele><time>2026-05-03T08:03:23.773Z</time></trkpt><trkpt lat="39.8225087" lon="8.7947331"><ele>482.00000000000006</ele><time>2026-05-03T08:03:24.773Z</time></trkpt><trkpt lat="39.8226052" lon="8.7947204"><ele>482.00000000000006</ele><time>2026-05-03T08:03:25.774Z</time></trkpt><trkpt lat="39.8226982" lon="8.7947039"><ele>482.0</ele><time>2026-05-03T08:03:26.773Z</time></trkpt><trkpt lat="39.8227888" lon="8.7946897"><ele>482.0</ele><time>2026-05-03T08:03:27.772Z</time></trkpt><trkpt lat="39.8228818" lon="8.7946753"><ele>480.8</ele><time>2026-05-03T08:03:28.772Z</time></trkpt><trkpt lat="39.8229808" lon="8.7946587"><ele>479.6</ele><time>2026-05-03T08:03:29.773Z</time></trkpt><trkpt lat="39.8230807" lon="8.7946451"><ele>478.40000000000003</ele><time>2026-05-03T08:03:30.773Z</time></trkpt><trkpt lat="39.8231731" lon="8.7946343"><ele>477.20000000000005</ele><time>2026-05-03T08:03:31.773Z</time></trkpt><trkpt lat="39.8232596" lon="8.7946289"><ele>476.0</ele><time>2026-05-03T08:03:32.774Z</time></trkpt><trkpt lat="39.8233426" lon="8.7946246"><ele>475.99999999999994</ele><time>2026-05-03T08:03:33.773Z</time></trkpt><trkpt lat="39.8234252" lon="8.7946095"><ele>476.0</ele><time>2026-05-03T08:03:34.773Z</time></trkpt><trkpt lat="39.8235038" lon="8.7945922"><ele>476.0</ele><time>2026-05-03T08:03:35.774Z</time></trkpt><trkpt lat="39.8235957" lon="8.7945721"><ele>476.0</ele><time>2026-05-03T08:03:36.774Z</time></trkpt><trkpt lat="39.8236862" lon="8.794555"><ele>475.99999999999994</ele><time>2026-05-03T08:03:37.774Z</time></trkpt><trkpt lat="39.8237707" lon="8.794544"><ele>476.0</ele><time>2026-05-03T08:03:38.774Z</time></trkpt><trkpt lat="39.8238566" lon="8.7945325"><ele>474.6</ele><time>2026-05-03T08:03:39.773Z</time></trkpt><trkpt lat="39.8239381" lon="8.7945146"><ele>473.20000000000005</ele><time>2026-05-03T08:03:40.773Z</time></trkpt><trkpt lat="39.8240362" lon="8.7945032"><ele>471.79999999999995</ele><time>2026-05-03T08:03:41.773Z</time></trkpt><trkpt lat="39.8241264" lon="8.794493"><ele>470.4</ele><time>2026-05-03T08:03:42.773Z</time></trkpt><trkpt lat="39.8242176" lon="8.7944842"><ele>469.0</ele><time>2026-05-03T08:03:43.773Z</time></trkpt><trkpt lat="39.8243078" lon="8.7944723"><ele>468.00000000000006</ele><time>2026-05-03T08:03:44.774Z</time></trkpt><trkpt lat="39.8243952" lon="8.7944673"><ele>467.0</ele><time>2026-05-03T08:03:45.773Z</time></trkpt><trkpt lat="39.8244812" lon="8.7944559"><ele>466.0</ele><time>2026-05-03T08:03:46.772Z</time></trkpt><trkpt lat="39.8245689" lon="8.7944432"><ele>465.0</ele><time>2026-05-03T08:03:47.773Z</time></trkpt><trkpt lat="39.8246549" lon="8.7944327"><ele>464.00000000000006</ele><time>2026-05-03T08:03:48.774Z</time></trkpt><trkpt lat="39.8247424" lon="8.7944231"><ele>463.0</ele><time>2026-05-03T08:03:49.775Z</time></trkpt><trkpt lat="39.8248337" lon="8.7944108"><ele>463.00000000000006</ele><time>2026-05-03T08:03:50.774Z</time></trkpt><trkpt lat="39.8249209" lon="8.7943947"><ele>463.0</ele><time>2026-05-03T08:03:51.773Z</time></trkpt><trkpt lat="39.825006" lon="8.7943826"><ele>463.0</ele><time>2026-05-03T08:03:52.772Z</time></trkpt><trkpt lat="39.8250873" lon="8.7943691"><ele>463.0</ele><time>2026-05-03T08:03:53.773Z</time></trkpt><trkpt lat="39.8251527" lon="8.7943542"><ele>463.00000000000006</ele><time>2026-05-03T08:03:54.774Z</time></trkpt><trkpt lat="39.8252172" lon="8.7943448"><ele>463.0</ele><time>2026-05-03T08:03:55.774Z</time></trkpt><trkpt lat="39.8253078" lon="8.7942835"><ele>462.83333333333337</ele><time>2026-05-03T08:03:57.774Z</time></trkpt><trkpt lat="39.8253399" lon="8.7941818"><ele>462.6666666666667</ele><time>2026-05-03T08:03:59.773Z</time></trkpt><trkpt lat="39.8253138" lon="8.7940576"><ele>462.5</ele><time>2026-05-03T08:04:01.773Z</time></trkpt><trkpt lat="39.8252833" lon="8.7939764"><ele>462.33333333333337</ele><time>2026-05-03T08:04:02.774Z</time></trkpt><trkpt lat="39.8252533" lon="8.7938785"><ele>462.1666666666667</ele><time>2026-05-03T08:04:03.774Z</time></trkpt><trkpt lat="39.825227" lon="8.7937849"><ele>462.0</ele><time>2026-05-03T08:04:04.774Z</time></trkpt><trkpt lat="39.8251976" lon="8.7936888"><ele>462.0</ele><time>2026-05-03T08:04:05.774Z</time></trkpt><trkpt lat="39.8251637" lon="8.7935841"><ele>462.00000000000006</ele><time>2026-05-03T08:04:06.774Z</time></trkpt><trkpt lat="39.8251366" lon="8.7934738"><ele>462.00000000000006</ele><time>2026-05-03T08:04:07.772Z</time></trkpt><trkpt lat="39.8251031" lon="8.7933627"><ele>462.0</ele><time>2026-05-03T08:04:08.773Z</time></trkpt><trkpt lat="39.8250652" lon="8.7932498"><ele>462.0</ele><time>2026-05-03T08:04:09.772Z</time></trkpt><trkpt lat="39.8250309" lon="8.7931278"><ele>463.0</ele><time>2026-05-03T08:04:10.772Z</time></trkpt><trkpt lat="39.8249984" lon="8.7930067"><ele>464.00000000000006</ele><time>2026-05-03T08:04:11.774Z</time></trkpt><trkpt lat="39.8249637" lon="8.7928921"><ele>465.00000000000006</ele><time>2026-05-03T08:04:12.774Z</time></trkpt><trkpt lat="39.8249362" lon="8.7927776"><ele>466.0</ele><time>2026-05-03T08:04:13.773Z</time></trkpt><trkpt lat="39.824909" lon="8.7926671"><ele>467.0</ele><time>2026-05-03T08:04:14.772Z</time></trkpt><trkpt lat="39.8248763" lon="8.7925547"><ele>467.20000000000005</ele><time>2026-05-03T08:04:15.773Z</time></trkpt><trkpt lat="39.8248446" lon="8.792441"><ele>467.40000000000003</ele><time>2026-05-03T08:04:16.772Z</time></trkpt><trkpt lat="39.8248143" lon="8.7923257"><ele>467.59999999999997</ele><time>2026-05-03T08:04:17.773Z</time></trkpt><trkpt lat="39.8247757" lon="8.7922143"><ele>467.79999999999995</ele><time>2026-05-03T08:04:18.773Z</time></trkpt><trkpt lat="39.8247409" lon="8.7921094"><ele>468.0</ele><time>2026-05-03T08:04:19.773Z</time></trkpt><trkpt lat="39.8247083" lon="8.7920029"><ele>468.0</ele><time>2026-05-03T08:04:20.772Z</time></trkpt><trkpt lat="39.8246831" lon="8.7919073"><ele>468.0</ele><time>2026-05-03T08:04:21.772Z</time></trkpt><trkpt lat="39.8246616" lon="8.7918155"><ele>468.0</ele><time>2026-05-03T08:04:22.774Z</time></trkpt><trkpt lat="39.8246343" lon="8.7917162"><ele>468.0</ele><time>2026-05-03T08:04:23.774Z</time></trkpt><trkpt lat="39.8246053" lon="8.7916262"><ele>468.0</ele><time>2026-05-03T08:04:24.772Z</time></trkpt><trkpt lat="39.8245781" lon="8.7915273"><ele>468.0</ele><time>2026-05-03T08:04:25.774Z</time></trkpt><trkpt lat="39.8245504" lon="8.7914346"><ele>468.3333333333333</ele><time>2026-05-03T08:04:26.773Z</time></trkpt><trkpt lat="39.8245186" lon="8.7913268"><ele>468.66666666666663</ele><time>2026-05-03T08:04:27.773Z</time></trkpt><trkpt lat="39.824486" lon="8.79122"><ele>469.0</ele><time>2026-05-03T08:04:28.773Z</time></trkpt><trkpt lat="39.8244541" lon="8.7911121"><ele>469.3333333333333</ele><time>2026-05-03T08:04:29.773Z</time></trkpt><trkpt lat="39.8244173" lon="8.7910115"><ele>469.66666666666663</ele><time>2026-05-03T08:04:30.775Z</time></trkpt><trkpt lat="39.8243766" lon="8.7909078"><ele>470.0</ele><time>2026-05-03T08:04:31.773Z</time></trkpt><trkpt lat="39.824354" lon="8.7908042"><ele>470.4</ele><time>2026-05-03T08:04:32.773Z</time></trkpt><trkpt lat="39.8243206" lon="8.7906848"><ele>470.8</ele><time>2026-05-03T08:04:33.772Z</time></trkpt><trkpt lat="39.8242913" lon="8.7905789"><ele>471.20000000000005</ele><time>2026-05-03T08:04:34.773Z</time></trkpt><trkpt lat="39.8242503" lon="8.7904703"><ele>471.6</ele><time>2026-05-03T08:04:35.774Z</time></trkpt><trkpt lat="39.8242238" lon="8.7903723"><ele>472.0</ele><time>2026-05-03T08:04:36.772Z</time></trkpt><trkpt lat="39.8241697" lon="8.7901551"><ele>472.6666666666667</ele><time>2026-05-03T08:04:38.774Z</time></trkpt><trkpt lat="39.8241493" lon="8.7900405"><ele>473.33333333333337</ele><time>2026-05-03T08:04:39.773Z</time></trkpt><trkpt lat="39.8241488" lon="8.7899447"><ele>474.0</ele><time>2026-05-03T08:04:40.774Z</time></trkpt><trkpt lat="39.824148" lon="8.7898339"><ele>474.66666666666663</ele><time>2026-05-03T08:04:41.774Z</time></trkpt><trkpt lat="39.8241501" lon="8.7897263"><ele>475.3333333333333</ele><time>2026-05-03T08:04:42.773Z</time></trkpt><trkpt lat="39.8241532" lon="8.7896227"><ele>476.0</ele><time>2026-05-03T08:04:43.773Z</time></trkpt><trkpt lat="39.8241619" lon="8.7895188"><ele>476.0</ele><time>2026-05-03T08:04:44.773Z</time></trkpt><trkpt lat="39.8241644" lon="8.7894064"><ele>476.0</ele><time>2026-05-03T08:04:45.773Z</time></trkpt><trkpt lat="39.8241674" lon="8.7892904"><ele>476.0</ele><time>2026-05-03T08:04:46.772Z</time></trkpt><trkpt lat="39.8241638" lon="8.7891654"><ele>476.0</ele><time>2026-05-03T08:04:47.772Z</time></trkpt><trkpt lat="39.8241601" lon="8.7890388"><ele>476.0</ele><time>2026-05-03T08:04:48.773Z</time></trkpt><trkpt lat="39.8241608" lon="8.7889183"><ele>476.20000000000005</ele><time>2026-05-03T08:04:49.773Z</time></trkpt><trkpt lat="39.8241669" lon="8.7888044"><ele>476.40000000000003</ele><time>2026-05-03T08:04:50.773Z</time></trkpt><trkpt lat="39.8241672" lon="8.7886894"><ele>476.6</ele><time>2026-05-03T08:04:51.774Z</time></trkpt><trkpt lat="39.8241693" lon="8.7885602"><ele>476.8</ele><time>2026-05-03T08:04:52.773Z</time></trkpt><trkpt lat="39.8241722" lon="8.7884363"><ele>477.0</ele><time>2026-05-03T08:04:53.772Z</time></trkpt><trkpt lat="39.8241724" lon="8.7883136"><ele>477.1666666666667</ele><time>2026-05-03T08:04:54.773Z</time></trkpt><trkpt lat="39.8241716" lon="8.7882089"><ele>477.33333333333337</ele><time>2026-05-03T08:04:55.773Z</time></trkpt><trkpt lat="39.8241719" lon="8.7881081"><ele>477.5</ele><time>2026-05-03T08:04:56.774Z</time></trkpt><trkpt lat="39.8241725" lon="8.7880072"><ele>477.6666666666667</ele><time>2026-05-03T08:04:57.774Z</time></trkpt><trkpt lat="39.8241804" lon="8.7879126"><ele>477.83333333333337</ele><time>2026-05-03T08:04:58.773Z</time></trkpt><trkpt lat="39.8241865" lon="8.7877311"><ele>478.0</ele><time>2026-05-03T08:05:00.773Z</time></trkpt><trkpt lat="39.824187" lon="8.7876222"><ele>478.00000000000006</ele><time>2026-05-03T08:05:01.772Z</time></trkpt><trkpt lat="39.8241854" lon="8.7875196"><ele>478.0</ele><time>2026-05-03T08:05:02.772Z</time></trkpt><trkpt lat="39.8241778" lon="8.7874087"><ele>478.0</ele><time>2026-05-03T08:05:03.773Z</time></trkpt><trkpt lat="39.8241684" lon="8.7872971"><ele>478.0</ele><time>2026-05-03T08:05:04.773Z</time></trkpt><trkpt lat="39.82416" lon="8.7871812"><ele>478.00000000000006</ele><time>2026-05-03T08:05:05.773Z</time></trkpt><trkpt lat="39.8241516" lon="8.7870642"><ele>478.0</ele><time>2026-05-03T08:05:06.773Z</time></trkpt><trkpt lat="39.8241444" lon="8.7869547"><ele>477.50000000000006</ele><time>2026-05-03T08:05:07.772Z</time></trkpt><trkpt lat="39.8241465" lon="8.7868435"><ele>477.0</ele><time>2026-05-03T08:05:08.772Z</time></trkpt><trkpt lat="39.8241409" lon="8.7867449"><ele>476.5</ele><time>2026-05-03T08:05:09.773Z</time></trkpt><trkpt lat="39.8241323" lon="8.7866459"><ele>476.0</ele><time>2026-05-03T08:05:10.773Z</time></trkpt><trkpt lat="39.8241276" lon="8.786538"><ele>475.50000000000006</ele><time>2026-05-03T08:05:11.774Z</time></trkpt><trkpt lat="39.8241156" lon="8.7864273"><ele>475.0</ele><time>2026-05-03T08:05:12.774Z</time></trkpt><trkpt lat="39.8241134" lon="8.7863238"><ele>475.00000000000006</ele><time>2026-05-03T08:05:13.773Z</time></trkpt><trkpt lat="39.8241108" lon="8.7862311"><ele>475.0</ele><time>2026-05-03T08:05:14.772Z</time></trkpt><trkpt lat="39.8241038" lon="8.7861431"><ele>475.0</ele><time>2026-05-03T08:05:15.774Z</time></trkpt><trkpt lat="39.824091" lon="8.7860604"><ele>475.0</ele><time>2026-05-03T08:05:16.774Z</time></trkpt><trkpt lat="39.8240881" lon="8.7858892"><ele>475.00000000000006</ele><time>2026-05-03T08:05:18.775Z</time></trkpt><trkpt lat="39.8240831" lon="8.7857708"><ele>475.0</ele><time>2026-05-03T08:05:19.773Z</time></trkpt><trkpt lat="39.8240776" lon="8.7856503"><ele>475.0</ele><time>2026-05-03T08:05:20.773Z</time></trkpt><trkpt lat="39.8240689" lon="8.7855216"><ele>475.0</ele><time>2026-05-03T08:05:21.773Z</time></trkpt><trkpt lat="39.8240621" lon="8.785404"><ele>475.0</ele><time>2026-05-03T08:05:22.774Z</time></trkpt><trkpt lat="39.8240534" lon="8.7852916"><ele>475.0</ele><time>2026-05-03T08:05:23.772Z</time></trkpt><trkpt lat="39.8240478" lon="8.7851757"><ele>475.0</ele><time>2026-05-03T08:05:24.775Z</time></trkpt><trkpt lat="39.8240402" lon="8.7850477"><ele>475.1666666666667</ele><time>2026-05-03T08:05:25.773Z</time></trkpt><trkpt lat="39.8240349" lon="8.7849266"><ele>475.33333333333337</ele><time>2026-05-03T08:05:26.773Z</time></trkpt><trkpt lat="39.8240324" lon="8.7848219"><ele>475.5</ele><time>2026-05-03T08:05:27.772Z</time></trkpt><trkpt lat="39.8240241" lon="8.7847036"><ele>475.66666666666663</ele><time>2026-05-03T08:05:28.772Z</time></trkpt><trkpt lat="39.8240164" lon="8.7845944"><ele>475.8333333333333</ele><time>2026-05-03T08:05:29.773Z</time></trkpt><trkpt lat="39.8240068" lon="8.784484"><ele>476.0</ele><time>2026-05-03T08:05:30.774Z</time></trkpt><trkpt lat="39.8240053" lon="8.7843645"><ele>476.20000000000005</ele><time>2026-05-03T08:05:31.774Z</time></trkpt><trkpt lat="39.8239968" lon="8.7842394"><ele>476.40000000000003</ele><time>2026-05-03T08:05:32.773Z</time></trkpt><trkpt lat="39.8239858" lon="8.7841132"><ele>476.6</ele><time>2026-05-03T08:05:33.773Z</time></trkpt><trkpt lat="39.8239799" lon="8.7839837"><ele>476.8</ele><time>2026-05-03T08:05:34.773Z</time></trkpt><trkpt lat="39.8239768" lon="8.7838685"><ele>477.0</ele><time>2026-05-03T08:05:35.773Z</time></trkpt><trkpt lat="39.8239666" lon="8.7837635"><ele>477.0</ele><time>2026-05-03T08:05:36.772Z</time></trkpt><trkpt lat="39.8239482" lon="8.7836811"><ele>477.0</ele><time>2026-05-03T08:05:37.773Z</time></trkpt><trkpt lat="39.8239152" lon="8.7835918"><ele>477.0</ele><time>2026-05-03T08:05:38.773Z</time></trkpt><trkpt lat="39.8238663" lon="8.783502"><ele>477.0</ele><time>2026-05-03T08:05:39.773Z</time></trkpt><trkpt lat="39.8238152" lon="8.7833974"><ele>477.0</ele><time>2026-05-03T08:05:40.774Z</time></trkpt><trkpt lat="39.8237626" lon="8.7832907"><ele>477.0</ele><time>2026-05-03T08:05:41.773Z</time></trkpt><trkpt lat="39.8237058" lon="8.7831942"><ele>477.6</ele><time>2026-05-03T08:05:42.773Z</time></trkpt><trkpt lat="39.8236395" lon="8.7831117"><ele>478.20000000000005</ele><time>2026-05-03T08:05:43.773Z</time></trkpt><trkpt lat="39.8235593" lon="8.783033"><ele>478.8</ele><time>2026-05-03T08:05:44.774Z</time></trkpt><trkpt lat="39.8234586" lon="8.7829634"><ele>479.4</ele><time>2026-05-03T08:05:45.773Z</time></trkpt><trkpt lat="39.8233552" lon="8.7828913"><ele>480.0</ele><time>2026-05-03T08:05:46.773Z</time></trkpt><trkpt lat="39.8232438" lon="8.7828211"><ele>480.25</ele><time>2026-05-03T08:05:47.773Z</time></trkpt><trkpt lat="39.8231144" lon="8.7827946"><ele>480.5</ele><time>2026-05-03T08:05:48.774Z</time></trkpt><trkpt lat="39.8229819" lon="8.7827661"><ele>480.75</ele><time>2026-05-03T08:05:49.774Z</time></trkpt><trkpt lat="39.8228526" lon="8.7827394"><ele>481.0</ele><time>2026-05-03T08:05:50.772Z</time></trkpt><trkpt lat="39.8227364" lon="8.7827218"><ele>481.6</ele><time>2026-05-03T08:05:51.773Z</time></trkpt><trkpt lat="39.8226282" lon="8.7826961"><ele>482.20000000000005</ele><time>2026-05-03T08:05:52.774Z</time></trkpt><trkpt lat="39.8225367" lon="8.7826629"><ele>482.79999999999995</ele><time>2026-05-03T08:05:53.773Z</time></trkpt><trkpt lat="39.8224574" lon="8.7826296"><ele>483.4</ele><time>2026-05-03T08:05:54.772Z</time></trkpt><trkpt lat="39.822393" lon="8.7826254"><ele>484.0</ele><time>2026-05-03T08:05:55.774Z</time></trkpt><trkpt lat="39.822293" lon="8.7826938"><ele>484.0</ele><time>2026-05-03T08:05:57.774Z</time></trkpt><trkpt lat="39.8222378" lon="8.7827813"><ele>484.0</ele><time>2026-05-03T08:05:58.772Z</time></trkpt><trkpt lat="39.8221681" lon="8.7828811"><ele>484.0</ele><time>2026-05-03T08:05:59.773Z</time></trkpt><trkpt lat="39.8220877" lon="8.7829892"><ele>484.0</ele><time>2026-05-03T08:06:00.773Z</time></trkpt><trkpt lat="39.8219964" lon="8.7831167"><ele>484.0</ele><time>2026-05-03T08:06:01.772Z</time></trkpt><trkpt lat="39.8219019" lon="8.7832605"><ele>485.0</ele><time>2026-05-03T08:06:02.773Z</time></trkpt><trkpt lat="39.821807" lon="8.7834111"><ele>486.0</ele><time>2026-05-03T08:06:03.774Z</time></trkpt><trkpt lat="39.8217181" lon="8.7835611"><ele>487.0</ele><time>2026-05-03T08:06:04.773Z</time></trkpt><trkpt lat="39.8216373" lon="8.7837095"><ele>488.0</ele><time>2026-05-03T08:06:05.774Z</time></trkpt><trkpt lat="39.8215613" lon="8.7838579"><ele>488.0</ele><time>2026-05-03T08:06:06.773Z</time></trkpt><trkpt lat="39.8214804" lon="8.7839992"><ele>488.0</ele><time>2026-05-03T08:06:07.773Z</time></trkpt><trkpt lat="39.8213863" lon="8.7841439"><ele>488.0</ele><time>2026-05-03T08:06:08.774Z</time></trkpt><trkpt lat="39.8212818" lon="8.7843023"><ele>488.0</ele><time>2026-05-03T08:06:09.773Z</time></trkpt><trkpt lat="39.8211724" lon="8.7844601"><ele>487.5</ele><time>2026-05-03T08:06:10.773Z</time></trkpt><trkpt lat="39.8210729" lon="8.7846038"><ele>487.0</ele><time>2026-05-03T08:06:11.773Z</time></trkpt><trkpt lat="39.8209849" lon="8.7847246"><ele>486.5</ele><time>2026-05-03T08:06:12.774Z</time></trkpt><trkpt lat="39.8209015" lon="8.7848338"><ele>486.0</ele><time>2026-05-03T08:06:13.772Z</time></trkpt><trkpt lat="39.8208167" lon="8.7849538"><ele>486.6</ele><time>2026-05-03T08:06:14.773Z</time></trkpt><trkpt lat="39.8207439" lon="8.7850561"><ele>487.20000000000005</ele><time>2026-05-03T08:06:15.773Z</time></trkpt><trkpt lat="39.8206818" lon="8.7851478"><ele>487.79999999999995</ele><time>2026-05-03T08:06:16.773Z</time></trkpt><trkpt lat="39.820627" lon="8.7852231"><ele>488.4</ele><time>2026-05-03T08:06:17.774Z</time></trkpt><trkpt lat="39.8205321" lon="8.7852917"><ele>489.0</ele><time>2026-05-03T08:06:19.773Z</time></trkpt><trkpt lat="39.8204727" lon="8.7852494"><ele>489.2</ele><time>2026-05-03T08:06:21.774Z</time></trkpt><trkpt lat="39.8204325" lon="8.785092"><ele>489.4</ele><time>2026-05-03T08:06:23.773Z</time></trkpt><trkpt lat="39.8204251" lon="8.7849792"><ele>489.6</ele><time>2026-05-03T08:06:24.773Z</time></trkpt><trkpt lat="39.8204309" lon="8.784852"><ele>489.8</ele><time>2026-05-03T08:06:25.773Z</time></trkpt><trkpt lat="39.8204438" lon="8.7847033"><ele>490.0</ele><time>2026-05-03T08:06:26.774Z</time></trkpt><trkpt lat="39.8204633" lon="8.7845445"><ele>490.0</ele><time>2026-05-03T08:06:27.773Z</time></trkpt><trkpt lat="39.8204835" lon="8.7844048"><ele>490.0</ele><time>2026-05-03T08:06:28.772Z</time></trkpt><trkpt lat="39.8204928" lon="8.7842509"><ele>490.0</ele><time>2026-05-03T08:06:29.773Z</time></trkpt><trkpt lat="39.8204969" lon="8.7840868"><ele>490.0</ele><time>2026-05-03T08:06:30.773Z</time></trkpt><trkpt lat="39.8204944" lon="8.7839271"><ele>490.2</ele><time>2026-05-03T08:06:31.773Z</time></trkpt><trkpt lat="39.8204869" lon="8.7837896"><ele>490.4</ele><time>2026-05-03T08:06:32.774Z</time></trkpt><trkpt lat="39.8204739" lon="8.7836564"><ele>490.6</ele><time>2026-05-03T08:06:33.774Z</time></trkpt><trkpt lat="39.8204591" lon="8.7835224"><ele>490.8</ele><time>2026-05-03T08:06:34.774Z</time></trkpt><trkpt lat="39.8204328" lon="8.7833944"><ele>491.0</ele><time>2026-05-03T08:06:35.772Z</time></trkpt><trkpt lat="39.8203999" lon="8.7832689"><ele>491.20000000000005</ele><time>2026-05-03T08:06:36.773Z</time></trkpt><trkpt lat="39.8203562" lon="8.783157"><ele>491.40000000000003</ele><time>2026-05-03T08:06:37.773Z</time></trkpt><trkpt lat="39.8203003" lon="8.7830437"><ele>491.6</ele><time>2026-05-03T08:06:38.773Z</time></trkpt><trkpt lat="39.8202432" lon="8.7829465"><ele>491.8</ele><time>2026-05-03T08:06:39.773Z</time></trkpt><trkpt lat="39.8201724" lon="8.7828707"><ele>492.0</ele><time>2026-05-03T08:06:40.773Z</time></trkpt><trkpt lat="39.8201025" lon="8.7828227"><ele>493.0</ele><time>2026-05-03T08:06:41.773Z</time></trkpt><trkpt lat="39.8200325" lon="8.7827936"><ele>494.00000000000006</ele><time>2026-05-03T08:06:42.774Z</time></trkpt><trkpt lat="39.819924" lon="8.7827098"><ele>495.00000000000006</ele><time>2026-05-03T08:06:44.773Z</time></trkpt><trkpt lat="39.8198202" lon="8.7825659"><ele>496.0</ele><time>2026-05-03T08:06:46.773Z</time></trkpt><trkpt lat="39.8197579" lon="8.7824717"><ele>497.0</ele><time>2026-05-03T08:06:47.774Z</time></trkpt><trkpt lat="39.8197038" lon="8.7823872"><ele>497.40000000000003</ele><time>2026-05-03T08:06:48.774Z</time></trkpt><trkpt lat="39.8196515" lon="8.7823053"><ele>497.80000000000007</ele><time>2026-05-03T08:06:49.773Z</time></trkpt><trkpt lat="39.8195722" lon="8.7822011"><ele>498.2</ele><time>2026-05-03T08:06:51.773Z</time></trkpt><trkpt lat="39.819525" lon="8.7821401"><ele>498.6</ele><time>2026-05-03T08:06:53.774Z</time></trkpt><trkpt lat="39.8194576" lon="8.7820731"><ele>499.0</ele><time>2026-05-03T08:08:23.773Z</time></trkpt><trkpt lat="39.819345" lon="8.7819678"><ele>499.83333333333337</ele><time>2026-05-03T08:08:25.773Z</time></trkpt><trkpt lat="39.8192746" lon="8.7819044"><ele>500.6666666666667</ele><time>2026-05-03T08:08:26.774Z</time></trkpt><trkpt lat="39.8191994" lon="8.781831"><ele>501.5</ele><time>2026-05-03T08:08:27.774Z</time></trkpt><trkpt lat="39.8191369" lon="8.7817663"><ele>502.33333333333337</ele><time>2026-05-03T08:08:28.772Z</time></trkpt><trkpt lat="39.819079" lon="8.7816945"><ele>503.1666666666667</ele><time>2026-05-03T08:08:29.773Z</time></trkpt><trkpt lat="39.819017" lon="8.7816187"><ele>504.0</ele><time>2026-05-03T08:08:30.774Z</time></trkpt><trkpt lat="39.8189495" lon="8.7815585"><ele>504.7142857142857</ele><time>2026-05-03T08:08:31.772Z</time></trkpt><trkpt lat="39.8188783" lon="8.781504"><ele>505.42857142857144</ele><time>2026-05-03T08:08:32.772Z</time></trkpt><trkpt lat="39.8188148" lon="8.7814701"><ele>506.1428571428571</ele><time>2026-05-03T08:08:33.773Z</time></trkpt><trkpt lat="39.8187427" lon="8.7814421"><ele>506.85714285714283</ele><time>2026-05-03T08:08:34.772Z</time></trkpt><trkpt lat="39.8186795" lon="8.7814168"><ele>507.57142857142856</ele><time>2026-05-03T08:08:35.772Z</time></trkpt><trkpt lat="39.8186244" lon="8.7813727"><ele>508.2857142857142</ele><time>2026-05-03T08:08:36.773Z</time></trkpt><trkpt lat="39.8185691" lon="8.7813195"><ele>508.99999999999994</ele><time>2026-05-03T08:08:37.774Z</time></trkpt><trkpt lat="39.8185085" lon="8.7812641"><ele>509.99999999999994</ele><time>2026-05-03T08:08:38.773Z</time></trkpt><trkpt lat="39.8184352" lon="8.781213"><ele>511.0</ele><time>2026-05-03T08:08:39.773Z</time></trkpt><trkpt lat="39.8183642" lon="8.7811625"><ele>512.0</ele><time>2026-05-03T08:08:40.772Z</time></trkpt><trkpt lat="39.8182928" lon="8.7811155"><ele>513.0</ele><time>2026-05-03T08:08:41.772Z</time></trkpt><trkpt lat="39.8182099" lon="8.7810627"><ele>514.0</ele><time>2026-05-03T08:08:42.774Z</time></trkpt><trkpt lat="39.8181245" lon="8.7810015"><ele>515.0</ele><time>2026-05-03T08:08:43.773Z</time></trkpt><trkpt lat="39.8180252" lon="8.7809575"><ele>515.6</ele><time>2026-05-03T08:08:44.773Z</time></trkpt><trkpt lat="39.8179117" lon="8.7809201"><ele>516.2</ele><time>2026-05-03T08:08:45.773Z</time></trkpt><trkpt lat="39.8178009" lon="8.7808939"><ele>516.8</ele><time>2026-05-03T08:08:46.772Z</time></trkpt><trkpt lat="39.8176876" lon="8.7808696"><ele>517.4</ele><time>2026-05-03T08:08:47.772Z</time></trkpt><trkpt lat="39.8175912" lon="8.7808601"><ele>518.0</ele><time>2026-05-03T08:08:48.773Z</time></trkpt><trkpt lat="39.8174891" lon="8.7808598"><ele>518.6</ele><time>2026-05-03T08:08:49.774Z</time></trkpt><trkpt lat="39.8173881" lon="8.7808468"><ele>519.1999999999999</ele><time>2026-05-03T08:08:50.773Z</time></trkpt><trkpt lat="39.8172882" lon="8.7808209"><ele>519.8</ele><time>2026-05-03T08:08:51.773Z</time></trkpt><trkpt lat="39.8171791" lon="8.7807862"><ele>520.4</ele><time>2026-05-03T08:08:52.774Z</time></trkpt><trkpt lat="39.8170668" lon="8.7807502"><ele>521.0</ele><time>2026-05-03T08:08:53.773Z</time></trkpt><trkpt lat="39.8169685" lon="8.7807022"><ele>521.0</ele><time>2026-05-03T08:08:54.772Z</time></trkpt><trkpt lat="39.8168735" lon="8.7806545"><ele>521.0</ele><time>2026-05-03T08:08:55.773Z</time></trkpt><trkpt lat="39.816787" lon="8.7806115"><ele>521.0</ele><time>2026-05-03T08:08:56.774Z</time></trkpt><trkpt lat="39.8167045" lon="8.7805657"><ele>521.0</ele><time>2026-05-03T08:08:57.772Z</time></trkpt><trkpt lat="39.8166384" lon="8.7805118"><ele>521.0</ele><time>2026-05-03T08:08:58.772Z</time></trkpt><trkpt lat="39.8165734" lon="8.7804436"><ele>521.0</ele><time>2026-05-03T08:08:59.772Z</time></trkpt><trkpt lat="39.8165154" lon="8.7803571"><ele>521.3333333333333</ele><time>2026-05-03T08:09:00.773Z</time></trkpt><trkpt lat="39.8164682" lon="8.7802689"><ele>521.6666666666666</ele><time>2026-05-03T08:09:01.773Z</time></trkpt><trkpt lat="39.8164321" lon="8.780163"><ele>522.0</ele><time>2026-05-03T08:09:02.773Z</time></trkpt><trkpt lat="39.8164002" lon="8.7800486"><ele>522.3333333333334</ele><time>2026-05-03T08:09:03.773Z</time></trkpt><trkpt lat="39.8163774" lon="8.7799251"><ele>522.6666666666667</ele><time>2026-05-03T08:09:04.773Z</time></trkpt><trkpt lat="39.8163598" lon="8.779816"><ele>523.0</ele><time>2026-05-03T08:09:05.772Z</time></trkpt><trkpt lat="39.8163484" lon="8.7797063"><ele>524.0</ele><time>2026-05-03T08:09:06.773Z</time></trkpt><trkpt lat="39.8163383" lon="8.7796027"><ele>525.0</ele><time>2026-05-03T08:09:07.772Z</time></trkpt><trkpt lat="39.8163249" lon="8.7794802"><ele>526.0</ele><time>2026-05-03T08:09:08.773Z</time></trkpt><trkpt lat="39.8163015" lon="8.7793577"><ele>527.0</ele><time>2026-05-03T08:09:09.773Z</time></trkpt><trkpt lat="39.8162851" lon="8.7792483"><ele>528.0</ele><time>2026-05-03T08:09:10.774Z</time></trkpt><trkpt lat="39.8162629" lon="8.7791269"><ele>529.4</ele><time>2026-05-03T08:09:11.772Z</time></trkpt><trkpt lat="39.8162461" lon="8.7790152"><ele>530.8</ele><time>2026-05-03T08:09:12.772Z</time></trkpt><trkpt lat="39.8162313" lon="8.7788965"><ele>532.2</ele><time>2026-05-03T08:09:13.774Z</time></trkpt><trkpt lat="39.8162164" lon="8.7787707"><ele>533.6</ele><time>2026-05-03T08:09:14.774Z</time></trkpt><trkpt lat="39.8162004" lon="8.7786567"><ele>535.0</ele><time>2026-05-03T08:09:15.774Z</time></trkpt><trkpt lat="39.8161736" lon="8.7785442"><ele>536.2</ele><time>2026-05-03T08:09:16.774Z</time></trkpt><trkpt lat="39.8161633" lon="8.7784235"><ele>537.4</ele><time>2026-05-03T08:09:17.773Z</time></trkpt><trkpt lat="39.8161551" lon="8.7783077"><ele>538.6</ele><time>2026-05-03T08:09:18.773Z</time></trkpt><trkpt lat="39.8161446" lon="8.7781921"><ele>539.8</ele><time>2026-05-03T08:09:19.773Z</time></trkpt><trkpt lat="39.8161332" lon="8.7780612"><ele>541.0</ele><time>2026-05-03T08:09:20.773Z</time></trkpt><trkpt lat="39.8161216" lon="8.7779251"><ele>541.0</ele><time>2026-05-03T08:09:21.772Z</time></trkpt><trkpt lat="39.8161082" lon="8.77779"><ele>541.0</ele><time>2026-05-03T08:09:22.773Z</time></trkpt><trkpt lat="39.8161" lon="8.7776582"><ele>541.0</ele><time>2026-05-03T08:09:23.774Z</time></trkpt><trkpt lat="39.8160876" lon="8.7775184"><ele>541.0</ele><time>2026-05-03T08:09:24.774Z</time></trkpt><trkpt lat="39.8160722" lon="8.777383"><ele>541.0</ele><time>2026-05-03T08:09:25.772Z</time></trkpt><trkpt lat="39.816054" lon="8.7772396"><ele>542.5</ele><time>2026-05-03T08:09:26.772Z</time></trkpt><trkpt lat="39.8160428" lon="8.7770952"><ele>544.0</ele><time>2026-05-03T08:09:27.773Z</time></trkpt><trkpt lat="39.8160409" lon="8.7769552"><ele>545.5</ele><time>2026-05-03T08:09:28.774Z</time></trkpt><trkpt lat="39.8160481" lon="8.7768083"><ele>547.0</ele><time>2026-05-03T08:09:29.774Z</time></trkpt><trkpt lat="39.8160562" lon="8.7766547"><ele>549.25</ele><time>2026-05-03T08:09:30.773Z</time></trkpt><trkpt lat="39.8160603" lon="8.7765093"><ele>551.5</ele><time>2026-05-03T08:09:31.772Z</time></trkpt><trkpt lat="39.816062" lon="8.776356"><ele>553.75</ele><time>2026-05-03T08:09:32.774Z</time></trkpt><trkpt lat="39.8160595" lon="8.7762094"><ele>556.0</ele><time>2026-05-03T08:09:33.772Z</time></trkpt><trkpt lat="39.816058" lon="8.7760499"><ele>558.0</ele><time>2026-05-03T08:09:34.774Z</time></trkpt><trkpt lat="39.8160603" lon="8.7758888"><ele>560.0</ele><time>2026-05-03T08:09:35.774Z</time></trkpt><trkpt lat="39.8160627" lon="8.7757203"><ele>562.0</ele><time>2026-05-03T08:09:36.773Z</time></trkpt><trkpt lat="39.8160636" lon="8.7755381"><ele>564.0</ele><time>2026-05-03T08:09:37.773Z</time></trkpt><trkpt lat="39.8160619" lon="8.7753645"><ele>564.0</ele><time>2026-05-03T08:09:38.773Z</time></trkpt><trkpt lat="39.8160652" lon="8.7751874"><ele>564.0</ele><time>2026-05-03T08:09:39.774Z</time></trkpt><trkpt lat="39.8160737" lon="8.7750052"><ele>564.0</ele><time>2026-05-03T08:09:40.772Z</time></trkpt><trkpt lat="39.8160761" lon="8.7748232"><ele>564.0</ele><time>2026-05-03T08:09:41.773Z</time></trkpt><trkpt lat="39.8160768" lon="8.7746404"><ele>565.5</ele><time>2026-05-03T08:09:42.772Z</time></trkpt><trkpt lat="39.8160753" lon="8.7744547"><ele>567.0</ele><time>2026-05-03T08:09:43.773Z</time></trkpt><trkpt lat="39.8160782" lon="8.7742794"><ele>568.5</ele><time>2026-05-03T08:09:44.774Z</time></trkpt><trkpt lat="39.8160811" lon="8.7741054"><ele>570.0</ele><time>2026-05-03T08:09:45.773Z</time></trkpt><trkpt lat="39.8160847" lon="8.7739383"><ele>571.5</ele><time>2026-05-03T08:09:46.773Z</time></trkpt><trkpt lat="39.8160795" lon="8.7737695"><ele>573.0</ele><time>2026-05-03T08:09:47.774Z</time></trkpt><trkpt lat="39.8160821" lon="8.7736093"><ele>574.5</ele><time>2026-05-03T08:09:48.773Z</time></trkpt><trkpt lat="39.8160817" lon="8.7734458"><ele>576.0</ele><time>2026-05-03T08:09:49.773Z</time></trkpt><trkpt lat="39.8160847" lon="8.7732874"><ele>577.0</ele><time>2026-05-03T08:09:50.774Z</time></trkpt><trkpt lat="39.8160817" lon="8.7731241"><ele>578.0</ele><time>2026-05-03T08:09:51.772Z</time></trkpt><trkpt lat="39.8160855" lon="8.7729684"><ele>579.0</ele><time>2026-05-03T08:09:52.774Z</time></trkpt><trkpt lat="39.8160888" lon="8.7728078"><ele>580.0</ele><time>2026-05-03T08:09:53.774Z</time></trkpt><trkpt lat="39.8160903" lon="8.7726495"><ele>581.25</ele><time>2026-05-03T08:09:54.774Z</time></trkpt><trkpt lat="39.8160982" lon="8.7724877"><ele>582.5</ele><time>2026-05-03T08:09:55.774Z</time></trkpt><trkpt lat="39.8161031" lon="8.7723229"><ele>583.75</ele><time>2026-05-03T08:09:56.772Z</time></trkpt><trkpt lat="39.8161056" lon="8.7721499"><ele>585.0</ele><time>2026-05-03T08:09:57.771Z</time></trkpt><trkpt lat="39.8161053" lon="8.7719677"><ele>586.5</ele><time>2026-05-03T08:09:58.773Z</time></trkpt><trkpt lat="39.8161062" lon="8.7717845"><ele>588.0</ele><time>2026-05-03T08:09:59.773Z</time></trkpt><trkpt lat="39.8161047" lon="8.7715995"><ele>589.5</ele><time>2026-05-03T08:10:00.773Z</time></trkpt><trkpt lat="39.8161059" lon="8.7714097"><ele>591.0</ele><time>2026-05-03T08:10:01.772Z</time></trkpt><trkpt lat="39.8161077" lon="8.7712126"><ele>591.0</ele><time>2026-05-03T08:10:02.772Z</time></trkpt><trkpt lat="39.816113" lon="8.7710289"><ele>591.0</ele><time>2026-05-03T08:10:03.773Z</time></trkpt><trkpt lat="39.8161185" lon="8.7708413"><ele>591.0</ele><time>2026-05-03T08:10:04.773Z</time></trkpt><trkpt lat="39.8161207" lon="8.7706564"><ele>591.0</ele><time>2026-05-03T08:10:05.773Z</time></trkpt><trkpt lat="39.8161229" lon="8.7704723"><ele>592.25</ele><time>2026-05-03T08:10:06.774Z</time></trkpt><trkpt lat="39.8161231" lon="8.7702892"><ele>593.5</ele><time>2026-05-03T08:10:07.773Z</time></trkpt><trkpt lat="39.8161275" lon="8.7701136"><ele>594.75</ele><time>2026-05-03T08:10:08.773Z</time></trkpt><trkpt lat="39.8161313" lon="8.7699331"><ele>596.0</ele><time>2026-05-03T08:10:09.773Z</time></trkpt><trkpt lat="39.8161338" lon="8.7697525"><ele>597.25</ele><time>2026-05-03T08:10:10.774Z</time></trkpt><trkpt lat="39.8161298" lon="8.7695759"><ele>598.5</ele><time>2026-05-03T08:10:11.772Z</time></trkpt><trkpt lat="39.81613" lon="8.7694003"><ele>599.75</ele><time>2026-05-03T08:10:12.773Z</time></trkpt><trkpt lat="39.816136" lon="8.7692232"><ele>601.0</ele><time>2026-05-03T08:10:13.774Z</time></trkpt><trkpt lat="39.8161412" lon="8.7690553"><ele>602.0</ele><time>2026-05-03T08:10:14.772Z</time></trkpt><trkpt lat="39.8161412" lon="8.7688864"><ele>603.0</ele><time>2026-05-03T08:10:15.773Z</time></trkpt><trkpt lat="39.8161451" lon="8.7687286"><ele>604.0</ele><time>2026-05-03T08:10:16.772Z</time></trkpt><trkpt lat="39.8161463" lon="8.7685881"><ele>605.0</ele><time>2026-05-03T08:10:17.774Z</time></trkpt><trkpt lat="39.816146" lon="8.7684657"><ele>605.5</ele><time>2026-05-03T08:10:18.772Z</time></trkpt><trkpt lat="39.8161408" lon="8.7683681"><ele>606.0</ele><time>2026-05-03T08:10:19.774Z</time></trkpt><trkpt lat="39.8161216" lon="8.7682862"><ele>606.5</ele><time>2026-05-03T08:10:20.773Z</time></trkpt><trkpt lat="39.8160877" lon="8.7682078"><ele>607.0</ele><time>2026-05-03T08:10:21.773Z</time></trkpt><trkpt lat="39.8160361" lon="8.7680978"><ele>607.5</ele><time>2026-05-03T08:10:22.773Z</time></trkpt><trkpt lat="39.815988" lon="8.7679802"><ele>608.0</ele><time>2026-05-03T08:10:23.772Z</time></trkpt><trkpt lat="39.8159347" lon="8.7678365"><ele>611.25</ele><time>2026-05-03T08:10:24.774Z</time></trkpt><trkpt lat="39.8158816" lon="8.7676917"><ele>614.5</ele><time>2026-05-03T08:10:25.774Z</time></trkpt><trkpt lat="39.8158302" lon="8.7675298"><ele>617.75</ele><time>2026-05-03T08:10:26.774Z</time></trkpt><trkpt lat="39.8157824" lon="8.7673463"><ele>621.0</ele><time>2026-05-03T08:10:27.771Z</time></trkpt><trkpt lat="39.8157305" lon="8.7671362"><ele>621.0</ele><time>2026-05-03T08:10:28.773Z</time></trkpt><trkpt lat="39.8156757" lon="8.7669511"><ele>621.0</ele><time>2026-05-03T08:10:29.773Z</time></trkpt><trkpt lat="39.8156198" lon="8.7667923"><ele>621.0</ele><time>2026-05-03T08:10:30.773Z</time></trkpt><trkpt lat="39.8155679" lon="8.7666524"><ele>621.0</ele><time>2026-05-03T08:10:31.774Z</time></trkpt><trkpt lat="39.8155219" lon="8.766549"><ele>621.0</ele><time>2026-05-03T08:10:32.772Z</time></trkpt><trkpt lat="39.8154731" lon="8.7664664"><ele>621.0</ele><time>2026-05-03T08:10:33.773Z</time></trkpt><trkpt lat="39.8154059" lon="8.7664157"><ele>621.0</ele><time>2026-05-03T08:10:34.773Z</time></trkpt><trkpt lat="39.8153269" lon="8.7663901"><ele>621.0</ele><time>2026-05-03T08:10:35.773Z</time></trkpt><trkpt lat="39.8152096" lon="8.7663867"><ele>621.0</ele><time>2026-05-03T08:10:36.773Z</time></trkpt><trkpt lat="39.8150729" lon="8.7663892"><ele>621.0</ele><time>2026-05-03T08:10:37.773Z</time></trkpt><trkpt lat="39.8149248" lon="8.7664076"><ele>621.0</ele><time>2026-05-03T08:10:38.772Z</time></trkpt><trkpt lat="39.8147919" lon="8.7664363"><ele>621.0</ele><time>2026-05-03T08:10:39.773Z</time></trkpt><trkpt lat="39.8146541" lon="8.7664868"><ele>621.0</ele><time>2026-05-03T08:10:40.773Z</time></trkpt><trkpt lat="39.8145396" lon="8.7665313"><ele>621.0</ele><time>2026-05-03T08:10:41.773Z</time></trkpt><trkpt lat="39.814446" lon="8.766564"><ele>621.0</ele><time>2026-05-03T08:10:42.773Z</time></trkpt><trkpt lat="39.8143522" lon="8.7665827"><ele>621.0</ele><time>2026-05-03T08:10:43.772Z</time></trkpt><trkpt lat="39.8142661" lon="8.7665856"><ele>621.0</ele><time>2026-05-03T08:10:44.773Z</time></trkpt><trkpt lat="39.8141888" lon="8.7665664"><ele>621.0</ele><time>2026-05-03T08:10:45.773Z</time></trkpt><trkpt lat="39.8141039" lon="8.7665451"><ele>621.0</ele><time>2026-05-03T08:10:46.774Z</time></trkpt><trkpt lat="39.8140049" lon="8.7665333"><ele>620.75</ele><time>2026-05-03T08:10:47.773Z</time></trkpt><trkpt lat="39.8138844" lon="8.7665169"><ele>620.5</ele><time>2026-05-03T08:10:48.773Z</time></trkpt><trkpt lat="39.8137669" lon="8.7664955"><ele>620.25</ele><time>2026-05-03T08:10:49.773Z</time></trkpt><trkpt lat="39.813635" lon="8.7664744"><ele>620.0</ele><time>2026-05-03T08:10:50.774Z</time></trkpt><trkpt lat="39.8135263" lon="8.7664584"><ele>618.8</ele><time>2026-05-03T08:10:51.773Z</time></trkpt><trkpt lat="39.8134265" lon="8.7664367"><ele>617.6</ele><time>2026-05-03T08:10:52.774Z</time></trkpt><trkpt lat="39.8133601" lon="8.7663834"><ele>616.4</ele><time>2026-05-03T08:10:53.774Z</time></trkpt><trkpt lat="39.8133004" lon="8.7663001"><ele>615.2</ele><time>2026-05-03T08:10:54.772Z</time></trkpt><trkpt lat="39.8132313" lon="8.7661853"><ele>614.0</ele><time>2026-05-03T08:10:55.774Z</time></trkpt><trkpt lat="39.8131574" lon="8.7660831"><ele>615.4</ele><time>2026-05-03T08:10:56.773Z</time></trkpt><trkpt lat="39.8130681" lon="8.7660028"><ele>616.8</ele><time>2026-05-03T08:10:57.773Z</time></trkpt><trkpt lat="39.8129668" lon="8.7659406"><ele>618.2</ele><time>2026-05-03T08:10:58.773Z</time></trkpt><trkpt lat="39.8128579" lon="8.7658851"><ele>619.6</ele><time>2026-05-03T08:10:59.773Z</time></trkpt><trkpt lat="39.8127595" lon="8.7658473"><ele>621.0</ele><time>2026-05-03T08:11:00.773Z</time></trkpt><trkpt lat="39.8126745" lon="8.7658422"><ele>619.8</ele><time>2026-05-03T08:11:01.772Z</time></trkpt><trkpt lat="39.8126149" lon="8.7658758"><ele>618.6</ele><time>2026-05-03T08:11:02.773Z</time></trkpt><trkpt lat="39.8125928" lon="8.7660242"><ele>617.4</ele><time>2026-05-03T08:11:04.772Z</time></trkpt><trkpt lat="39.8126119" lon="8.7661336"><ele>616.2</ele><time>2026-05-03T08:11:05.774Z</time></trkpt><trkpt lat="39.8126552" lon="8.7662835"><ele>615.0</ele><time>2026-05-03T08:11:06.772Z</time></trkpt><trkpt lat="39.8127088" lon="8.7664278"><ele>614.75</ele><time>2026-05-03T08:11:07.773Z</time></trkpt><trkpt lat="39.8127944" lon="8.7665644"><ele>614.5</ele><time>2026-05-03T08:11:08.774Z</time></trkpt><trkpt lat="39.8128808" lon="8.7666833"><ele>614.25</ele><time>2026-05-03T08:11:09.772Z</time></trkpt><trkpt lat="39.8129557" lon="8.7667826"><ele>614.0</ele><time>2026-05-03T08:11:10.773Z</time></trkpt><trkpt lat="39.813003" lon="8.7668745"><ele>612.6</ele><time>2026-05-03T08:11:11.772Z</time></trkpt><trkpt lat="39.8130276" lon="8.7669645"><ele>611.2</ele><time>2026-05-03T08:11:12.772Z</time></trkpt><trkpt lat="39.8129861" lon="8.7670663"><ele>609.8000000000001</ele><time>2026-05-03T08:11:13.774Z</time></trkpt><trkpt lat="39.8129495" lon="8.7671819"><ele>608.4</ele><time>2026-05-03T08:11:14.772Z</time></trkpt><trkpt lat="39.8128817" lon="8.7673246"><ele>607.0</ele><time>2026-05-03T08:11:15.774Z</time></trkpt><trkpt lat="39.8128222" lon="8.7674543"><ele>607.0</ele><time>2026-05-03T08:11:16.771Z</time></trkpt><trkpt lat="39.8127471" lon="8.7675591"><ele>607.0</ele><time>2026-05-03T08:11:17.774Z</time></trkpt><trkpt lat="39.8126553" lon="8.7676239"><ele>607.0</ele><time>2026-05-03T08:11:18.773Z</time></trkpt><trkpt lat="39.8125453" lon="8.7676512"><ele>607.0</ele><time>2026-05-03T08:11:19.773Z</time></trkpt><trkpt lat="39.812434" lon="8.7676746"><ele>607.0</ele><time>2026-05-03T08:11:20.773Z</time></trkpt><trkpt lat="39.8123054" lon="8.7676866"><ele>602.8000000000001</ele><time>2026-05-03T08:11:21.773Z</time></trkpt><trkpt lat="39.8121884" lon="8.767701"><ele>598.6</ele><time>2026-05-03T08:11:22.774Z</time></trkpt><trkpt lat="39.8120779" lon="8.7677226"><ele>594.4000000000001</ele><time>2026-05-03T08:11:23.773Z</time></trkpt><trkpt lat="39.8119822" lon="8.7677548"><ele>590.2</ele><time>2026-05-03T08:11:24.773Z</time></trkpt><trkpt lat="39.8118966" lon="8.7677979"><ele>586.0</ele><time>2026-05-03T08:11:25.772Z</time></trkpt><trkpt lat="39.8118124" lon="8.7678384"><ele>585.5</ele><time>2026-05-03T08:11:26.773Z</time></trkpt><trkpt lat="39.8117258" lon="8.7678901"><ele>585.0</ele><time>2026-05-03T08:11:27.772Z</time></trkpt><trkpt lat="39.8116431" lon="8.7679394"><ele>584.5</ele><time>2026-05-03T08:11:28.774Z</time></trkpt><trkpt lat="39.811558" lon="8.7679921"><ele>584.0</ele><time>2026-05-03T08:11:29.774Z</time></trkpt><trkpt lat="39.8114804" lon="8.7680163"><ele>583.5</ele><time>2026-05-03T08:11:30.772Z</time></trkpt><trkpt lat="39.8114116" lon="8.7680171"><ele>583.0</ele><time>2026-05-03T08:11:31.774Z</time></trkpt><trkpt lat="39.8113134" lon="8.767969"><ele>583.0</ele><time>2026-05-03T08:11:33.773Z</time></trkpt><trkpt lat="39.8112581" lon="8.7679112"><ele>583.0</ele><time>2026-05-03T08:11:34.773Z</time></trkpt><trkpt lat="39.8111976" lon="8.7678559"><ele>583.0</ele><time>2026-05-03T08:11:35.771Z</time></trkpt><trkpt lat="39.8111254" lon="8.7678089"><ele>583.0</ele><time>2026-05-03T08:11:36.773Z</time></trkpt><trkpt lat="39.8110472" lon="8.7677809"><ele>583.0</ele><time>2026-05-03T08:11:37.772Z</time></trkpt><trkpt lat="39.8109578" lon="8.7677663"><ele>583.0</ele><time>2026-05-03T08:11:38.773Z</time></trkpt><trkpt lat="39.8108677" lon="8.7677491"><ele>583.2857142857143</ele><time>2026-05-03T08:11:39.773Z</time></trkpt><trkpt lat="39.8107897" lon="8.7677336"><ele>583.5714285714286</ele><time>2026-05-03T08:11:40.771Z</time></trkpt><trkpt lat="39.8107216" lon="8.7677151"><ele>583.8571428571429</ele><time>2026-05-03T08:11:41.773Z</time></trkpt><trkpt lat="39.8106612" lon="8.7676871"><ele>584.1428571428571</ele><time>2026-05-03T08:11:42.772Z</time></trkpt><trkpt lat="39.810599" lon="8.7676399"><ele>584.4285714285714</ele><time>2026-05-03T08:11:43.773Z</time></trkpt><trkpt lat="39.8105406" lon="8.7675847"><ele>584.7142857142858</ele><time>2026-05-03T08:11:44.773Z</time></trkpt><trkpt lat="39.8104734" lon="8.7675027"><ele>585.0</ele><time>2026-05-03T08:11:45.774Z</time></trkpt><trkpt lat="39.8104127" lon="8.7674134"><ele>586.2</ele><time>2026-05-03T08:11:46.773Z</time></trkpt><trkpt lat="39.8103532" lon="8.7673202"><ele>587.4</ele><time>2026-05-03T08:11:47.774Z</time></trkpt><trkpt lat="39.8103006" lon="8.7672207"><ele>588.6</ele><time>2026-05-03T08:11:48.773Z</time></trkpt><trkpt lat="39.8102461" lon="8.7671026"><ele>589.8</ele><time>2026-05-03T08:11:49.773Z</time></trkpt><trkpt lat="39.8101973" lon="8.766974"><ele>591.0</ele><time>2026-05-03T08:11:50.774Z</time></trkpt><trkpt lat="39.8101572" lon="8.7668412"><ele>592.0</ele><time>2026-05-03T08:11:51.772Z</time></trkpt><trkpt lat="39.8101214" lon="8.7667137"><ele>593.0</ele><time>2026-05-03T08:11:52.774Z</time></trkpt><trkpt lat="39.8100867" lon="8.7665834"><ele>594.0</ele><time>2026-05-03T08:11:53.773Z</time></trkpt><trkpt lat="39.8100603" lon="8.7664597"><ele>595.0</ele><time>2026-05-03T08:11:54.774Z</time></trkpt><trkpt lat="39.8100363" lon="8.766327"><ele>596.0</ele><time>2026-05-03T08:11:55.774Z</time></trkpt><trkpt lat="39.810018" lon="8.7661842"><ele>596.0</ele><time>2026-05-03T08:11:56.772Z</time></trkpt><trkpt lat="39.8100129" lon="8.7660435"><ele>596.0</ele><time>2026-05-03T08:11:57.773Z</time></trkpt><trkpt lat="39.8100202" lon="8.7659019"><ele>596.0</ele><time>2026-05-03T08:11:58.773Z</time></trkpt><trkpt lat="39.8100256" lon="8.7657751"><ele>596.0</ele><time>2026-05-03T08:11:59.772Z</time></trkpt><trkpt lat="39.8100105" lon="8.7656473"><ele>596.0</ele><time>2026-05-03T08:12:00.773Z</time></trkpt><trkpt lat="39.8099992" lon="8.7655129"><ele>597.4</ele><time>2026-05-03T08:12:01.773Z</time></trkpt><trkpt lat="39.8099934" lon="8.7653718"><ele>598.8</ele><time>2026-05-03T08:12:02.773Z</time></trkpt><trkpt lat="39.8099762" lon="8.7652286"><ele>600.1999999999999</ele><time>2026-05-03T08:12:03.771Z</time></trkpt><trkpt lat="39.8099569" lon="8.7650921"><ele>601.6</ele><time>2026-05-03T08:12:04.773Z</time></trkpt><trkpt lat="39.8099448" lon="8.7649435"><ele>603.0</ele><time>2026-05-03T08:12:05.774Z</time></trkpt><trkpt lat="39.8099284" lon="8.7648079"><ele>604.8</ele><time>2026-05-03T08:12:06.773Z</time></trkpt><trkpt lat="39.8098985" lon="8.7646757"><ele>606.5999999999999</ele><time>2026-05-03T08:12:07.772Z</time></trkpt><trkpt lat="39.8098518" lon="8.7645622"><ele>608.4000000000001</ele><time>2026-05-03T08:12:08.773Z</time></trkpt><trkpt lat="39.8097965" lon="8.7644395"><ele>610.2</ele><time>2026-05-03T08:12:09.772Z</time></trkpt><trkpt lat="39.8097441" lon="8.7642959"><ele>612.0</ele><time>2026-05-03T08:12:10.774Z</time></trkpt><trkpt lat="39.8097081" lon="8.7641465"><ele>615.25</ele><time>2026-05-03T08:12:11.773Z</time></trkpt><trkpt lat="39.8096748" lon="8.763988"><ele>618.5</ele><time>2026-05-03T08:12:12.773Z</time></trkpt><trkpt lat="39.8096425" lon="8.7638295"><ele>621.75</ele><time>2026-05-03T08:12:13.773Z</time></trkpt><trkpt lat="39.8095872" lon="8.7637073"><ele>625.0</ele><time>2026-05-03T08:12:14.773Z</time></trkpt><trkpt lat="39.8095336" lon="8.7635891"><ele>624.5</ele><time>2026-05-03T08:12:15.774Z</time></trkpt><trkpt lat="39.8094609" lon="8.7634745"><ele>624.0</ele><time>2026-05-03T08:12:16.773Z</time></trkpt><trkpt lat="39.809373" lon="8.7633772"><ele>623.5</ele><time>2026-05-03T08:12:17.774Z</time></trkpt><trkpt lat="39.8092835" lon="8.7632871"><ele>623.0</ele><time>2026-05-03T08:12:18.773Z</time></trkpt><trkpt lat="39.8092025" lon="8.7631821"><ele>623.0</ele><time>2026-05-03T08:12:19.773Z</time></trkpt><trkpt lat="39.8091294" lon="8.7630675"><ele>623.0</ele><time>2026-05-03T08:12:20.773Z</time></trkpt><trkpt lat="39.8090745" lon="8.7629443"><ele>623.0</ele><time>2026-05-03T08:12:21.774Z</time></trkpt><trkpt lat="39.8090096" lon="8.7628134"><ele>623.0</ele><time>2026-05-03T08:12:22.772Z</time></trkpt><trkpt lat="39.8089653" lon="8.762674"><ele>628.0</ele><time>2026-05-03T08:12:23.771Z</time></trkpt><trkpt lat="39.8089406" lon="8.7625334"><ele>633.0</ele><time>2026-05-03T08:12:24.772Z</time></trkpt><trkpt lat="39.808926" lon="8.7623788"><ele>638.0</ele><time>2026-05-03T08:12:25.774Z</time></trkpt><trkpt lat="39.8089194" lon="8.7622323"><ele>643.0</ele><time>2026-05-03T08:12:26.774Z</time></trkpt><trkpt lat="39.8088783" lon="8.7621032"><ele>643.0</ele><time>2026-05-03T08:12:27.773Z</time></trkpt><trkpt lat="39.8088168" lon="8.761959"><ele>643.0</ele><time>2026-05-03T08:12:28.774Z</time></trkpt><trkpt lat="39.8087462" lon="8.7618234"><ele>643.0</ele><time>2026-05-03T08:12:29.773Z</time></trkpt><trkpt lat="39.808681" lon="8.7616895"><ele>643.0</ele><time>2026-05-03T08:12:30.773Z</time></trkpt><trkpt lat="39.8086002" lon="8.7615744"><ele>641.6</ele><time>2026-05-03T08:12:31.774Z</time></trkpt><trkpt lat="39.8085263" lon="8.7614598"><ele>640.1999999999999</ele><time>2026-05-03T08:12:32.773Z</time></trkpt><trkpt lat="39.8084522" lon="8.7613541"><ele>638.8</ele><time>2026-05-03T08:12:33.772Z</time></trkpt><trkpt lat="39.808381" lon="8.7612462"><ele>637.4</ele><time>2026-05-03T08:12:34.774Z</time></trkpt><trkpt lat="39.8083244" lon="8.7611411"><ele>636.0</ele><time>2026-05-03T08:12:35.774Z</time></trkpt><trkpt lat="39.8082787" lon="8.7610037"><ele>640.25</ele><time>2026-05-03T08:12:36.772Z</time></trkpt><trkpt lat="39.8082228" lon="8.7608814"><ele>644.5</ele><time>2026-05-03T08:12:37.773Z</time></trkpt><trkpt lat="39.8081594" lon="8.7607628"><ele>648.75</ele><time>2026-05-03T08:12:38.773Z</time></trkpt><trkpt lat="39.8080839" lon="8.7606475"><ele>653.0</ele><time>2026-05-03T08:12:39.774Z</time></trkpt><trkpt lat="39.8079893" lon="8.7605507"><ele>653.0</ele><time>2026-05-03T08:12:40.772Z</time></trkpt><trkpt lat="39.8079183" lon="8.7604356"><ele>653.0</ele><time>2026-05-03T08:12:41.773Z</time></trkpt><trkpt lat="39.8078562" lon="8.7603237"><ele>653.0</ele><time>2026-05-03T08:12:42.772Z</time></trkpt><trkpt lat="39.8078159" lon="8.7602061"><ele>653.0</ele><time>2026-05-03T08:12:43.774Z</time></trkpt><trkpt lat="39.8077748" lon="8.7600817"><ele>653.0</ele><time>2026-05-03T08:12:44.773Z</time></trkpt><trkpt lat="39.8077445" lon="8.7599482"><ele>652.25</ele><time>2026-05-03T08:12:45.773Z</time></trkpt><trkpt lat="39.8077102" lon="8.7598073"><ele>651.5</ele><time>2026-05-03T08:12:46.773Z</time></trkpt><trkpt lat="39.8076723" lon="8.759666"><ele>650.75</ele><time>2026-05-03T08:12:47.772Z</time></trkpt><trkpt lat="39.8076351" lon="8.7595233"><ele>650.0</ele><time>2026-05-03T08:12:48.774Z</time></trkpt><trkpt lat="39.8075991" lon="8.7593903"><ele>652.0</ele><time>2026-05-03T08:12:49.774Z</time></trkpt><trkpt lat="39.8075695" lon="8.7592547"><ele>654.0</ele><time>2026-05-03T08:12:50.773Z</time></trkpt><trkpt lat="39.8075437" lon="8.7591279"><ele>656.0</ele><time>2026-05-03T08:12:51.772Z</time></trkpt><trkpt lat="39.8074979" lon="8.758979"><ele>658.0</ele><time>2026-05-03T08:12:52.773Z</time></trkpt><trkpt lat="39.8074555" lon="8.7588299"><ele>658.0</ele><time>2026-05-03T08:12:53.774Z</time></trkpt><trkpt lat="39.8074058" lon="8.7586723"><ele>658.0</ele><time>2026-05-03T08:12:54.772Z</time></trkpt><trkpt lat="39.8073605" lon="8.7585092"><ele>658.0</ele><time>2026-05-03T08:12:55.774Z</time></trkpt><trkpt lat="39.8073146" lon="8.7583338"><ele>658.0</ele><time>2026-05-03T08:12:56.774Z</time></trkpt><trkpt lat="39.8072698" lon="8.7581494"><ele>660.0</ele><time>2026-05-03T08:12:57.772Z</time></trkpt><trkpt lat="39.8072243" lon="8.7579609"><ele>662.0</ele><time>2026-05-03T08:12:58.773Z</time></trkpt><trkpt lat="39.8071802" lon="8.7577737"><ele>664.0</ele><time>2026-05-03T08:12:59.773Z</time></trkpt><trkpt lat="39.8071355" lon="8.7575938"><ele>666.0</ele><time>2026-05-03T08:13:00.773Z</time></trkpt><trkpt lat="39.8070868" lon="8.7574125"><ele>669.6666666666666</ele><time>2026-05-03T08:13:01.772Z</time></trkpt><trkpt lat="39.807039" lon="8.757227"><ele>673.3333333333333</ele><time>2026-05-03T08:13:02.772Z</time></trkpt><trkpt lat="39.8069957" lon="8.7570404"><ele>677.0</ele><time>2026-05-03T08:13:03.773Z</time></trkpt><trkpt lat="39.8069509" lon="8.7568526"><ele>678.75</ele><time>2026-05-03T08:13:04.772Z</time></trkpt><trkpt lat="39.8069083" lon="8.7566696"><ele>680.5</ele><time>2026-05-03T08:13:05.772Z</time></trkpt><trkpt lat="39.80687" lon="8.7564894"><ele>682.25</ele><time>2026-05-03T08:13:06.773Z</time></trkpt><trkpt lat="39.8068248" lon="8.7563135"><ele>684.0</ele><time>2026-05-03T08:13:07.772Z</time></trkpt><trkpt lat="39.8067786" lon="8.75614"><ele>685.5</ele><time>2026-05-03T08:13:08.773Z</time></trkpt><trkpt lat="39.8067243" lon="8.7559718"><ele>687.0</ele><time>2026-05-03T08:13:09.774Z</time></trkpt><trkpt lat="39.8066593" lon="8.755819"><ele>688.5</ele><time>2026-05-03T08:13:10.773Z</time></trkpt><trkpt lat="39.8066115" lon="8.7556869"><ele>690.0</ele><time>2026-05-03T08:13:11.773Z</time></trkpt><trkpt lat="39.8065675" lon="8.7555909"><ele>690.0</ele><time>2026-05-03T08:13:12.774Z</time></trkpt><trkpt lat="39.8065334" lon="8.7555053"><ele>690.0</ele><time>2026-05-03T08:13:13.772Z</time></trkpt><trkpt lat="39.8064819" lon="8.755376"><ele>690.0</ele><time>2026-05-03T08:13:15.774Z</time></trkpt><trkpt lat="39.8064297" lon="8.7552299"><ele>690.0</ele><time>2026-05-03T08:13:17.773Z</time></trkpt><trkpt lat="39.8064004" lon="8.7551297"><ele>690.0</ele><time>2026-05-03T08:13:18.772Z</time></trkpt><trkpt lat="39.8063714" lon="8.7550149"><ele>692.0</ele><time>2026-05-03T08:13:19.773Z</time></trkpt><trkpt lat="39.8063321" lon="8.7548968"><ele>694.0</ele><time>2026-05-03T08:13:20.773Z</time></trkpt><trkpt lat="39.8062853" lon="8.7547674"><ele>696.0</ele><time>2026-05-03T08:13:21.773Z</time></trkpt><trkpt lat="39.8062337" lon="8.7546276"><ele>698.0</ele><time>2026-05-03T08:13:22.772Z</time></trkpt><trkpt lat="39.8061734" lon="8.7544834"><ele>698.25</ele><time>2026-05-03T08:13:23.772Z</time></trkpt><trkpt lat="39.8061204" lon="8.7543249"><ele>698.5</ele><time>2026-05-03T08:13:24.774Z</time></trkpt><trkpt lat="39.8060699" lon="8.7541665"><ele>698.75</ele><time>2026-05-03T08:13:25.773Z</time></trkpt><trkpt lat="39.8060133" lon="8.7540026"><ele>699.0</ele><time>2026-05-03T08:13:26.773Z</time></trkpt><trkpt lat="39.8059603" lon="8.753841"><ele>699.0</ele><time>2026-05-03T08:13:27.772Z</time></trkpt><trkpt lat="39.8059028" lon="8.7536853"><ele>699.0</ele><time>2026-05-03T08:13:28.772Z</time></trkpt><trkpt lat="39.8058474" lon="8.7535296"><ele>699.0</ele><time>2026-05-03T08:13:29.774Z</time></trkpt><trkpt lat="39.805789" lon="8.7533694"><ele>699.0</ele><time>2026-05-03T08:13:30.774Z</time></trkpt><trkpt lat="39.8057334" lon="8.7532158"><ele>699.75</ele><time>2026-05-03T08:13:31.773Z</time></trkpt><trkpt lat="39.8056744" lon="8.7530631"><ele>700.5</ele><time>2026-05-03T08:13:32.773Z</time></trkpt><trkpt lat="39.8056128" lon="8.7529107"><ele>701.25</ele><time>2026-05-03T08:13:33.774Z</time></trkpt><trkpt lat="39.8055579" lon="8.7527563"><ele>702.0</ele><time>2026-05-03T08:13:34.774Z</time></trkpt><trkpt lat="39.8054981" lon="8.7526002"><ele>702.5</ele><time>2026-05-03T08:13:35.774Z</time></trkpt><trkpt lat="39.805438" lon="8.7524449"><ele>703.0</ele><time>2026-05-03T08:13:36.772Z</time></trkpt><trkpt lat="39.8053786" lon="8.7522887"><ele>703.5</ele><time>2026-05-03T08:13:37.773Z</time></trkpt><trkpt lat="39.8053219" lon="8.7521365"><ele>704.0</ele><time>2026-05-03T08:13:38.772Z</time></trkpt><trkpt lat="39.805269" lon="8.7519935"><ele>705.0</ele><time>2026-05-03T08:13:39.774Z</time></trkpt><trkpt lat="39.8052174" lon="8.7518518"><ele>706.0</ele><time>2026-05-03T08:13:40.773Z</time></trkpt><trkpt lat="39.8051635" lon="8.7517114"><ele>707.0</ele><time>2026-05-03T08:13:41.772Z</time></trkpt><trkpt lat="39.8051037" lon="8.7515683"><ele>708.0</ele><time>2026-05-03T08:13:42.773Z</time></trkpt><trkpt lat="39.8050316" lon="8.7514278"><ele>710.0</ele><time>2026-05-03T08:13:43.772Z</time></trkpt><trkpt lat="39.8049442" lon="8.7512975"><ele>712.0</ele><time>2026-05-03T08:13:44.773Z</time></trkpt><trkpt lat="39.8048532" lon="8.7511742"><ele>714.0</ele><time>2026-05-03T08:13:45.773Z</time></trkpt><trkpt lat="39.8047647" lon="8.7510512"><ele>716.0</ele><time>2026-05-03T08:13:46.772Z</time></trkpt><trkpt lat="39.8046756" lon="8.7509371"><ele>717.5</ele><time>2026-05-03T08:13:47.772Z</time></trkpt><trkpt lat="39.8045977" lon="8.7508212"><ele>719.0</ele><time>2026-05-03T08:13:48.773Z</time></trkpt><trkpt lat="39.8045218" lon="8.7506914"><ele>720.5</ele><time>2026-05-03T08:13:49.773Z</time></trkpt><trkpt lat="39.8044571" lon="8.7505562"><ele>722.0</ele><time>2026-05-03T08:13:50.773Z</time></trkpt><trkpt lat="39.8043947" lon="8.7504045"><ele>722.0</ele><time>2026-05-03T08:13:51.772Z</time></trkpt><trkpt lat="39.8043607" lon="8.7502484"><ele>722.0</ele><time>2026-05-03T08:13:52.772Z</time></trkpt><trkpt lat="39.8043297" lon="8.7501177"><ele>722.0</ele><time>2026-05-03T08:13:53.771Z</time></trkpt><trkpt lat="39.8043046" lon="8.7499946"><ele>722.0</ele><time>2026-05-03T08:13:54.772Z</time></trkpt><trkpt lat="39.8042869" lon="8.749876"><ele>722.0</ele><time>2026-05-03T08:13:55.772Z</time></trkpt><trkpt lat="39.8042693" lon="8.749756"><ele>723.4000000000001</ele><time>2026-05-03T08:13:56.774Z</time></trkpt><trkpt lat="39.8042578" lon="8.7496213"><ele>724.8000000000001</ele><time>2026-05-03T08:13:57.772Z</time></trkpt><trkpt lat="39.8042439" lon="8.7494801"><ele>726.2</ele><time>2026-05-03T08:13:58.772Z</time></trkpt><trkpt lat="39.8042349" lon="8.7493447"><ele>727.6</ele><time>2026-05-03T08:13:59.772Z</time></trkpt><trkpt lat="39.80423" lon="8.749212"><ele>729.0</ele><time>2026-05-03T08:14:00.774Z</time></trkpt><trkpt lat="39.8042267" lon="8.7490977"><ele>729.1428571428572</ele><time>2026-05-03T08:14:01.773Z</time></trkpt><trkpt lat="39.8042187" lon="8.7490053"><ele>729.2857142857142</ele><time>2026-05-03T08:14:02.774Z</time></trkpt><trkpt lat="39.8041996" lon="8.7489194"><ele>729.4285714285714</ele><time>2026-05-03T08:14:03.774Z</time></trkpt><trkpt lat="39.8041745" lon="8.7488366"><ele>729.5714285714287</ele><time>2026-05-03T08:14:04.774Z</time></trkpt><trkpt lat="39.8041433" lon="8.7487513"><ele>729.7142857142858</ele><time>2026-05-03T08:14:05.772Z</time></trkpt><trkpt lat="39.804107" lon="8.7486784"><ele>729.8571428571429</ele><time>2026-05-03T08:14:06.771Z</time></trkpt><trkpt lat="39.8040358" lon="8.7485971"><ele>730.0</ele><time>2026-05-03T08:14:08.772Z</time></trkpt><trkpt lat="39.8039416" lon="8.7486008"><ele>730.0</ele><time>2026-05-03T08:14:10.773Z</time></trkpt><trkpt lat="39.8038815" lon="8.7486257"><ele>730.0</ele><time>2026-05-03T08:14:11.773Z</time></trkpt><trkpt lat="39.803816" lon="8.7486318"><ele>730.0</ele><time>2026-05-03T08:14:12.772Z</time></trkpt><trkpt lat="39.803736" lon="8.7487122"><ele>730.0</ele><time>2026-05-03T08:14:14.774Z</time></trkpt><trkpt lat="39.8036916" lon="8.7487843"><ele>730.0</ele><time>2026-05-03T08:14:15.772Z</time></trkpt><trkpt lat="39.8036182" lon="8.7488616"><ele>730.0</ele><time>2026-05-03T08:14:16.773Z</time></trkpt><trkpt lat="39.8035297" lon="8.7489346"><ele>731.3333333333334</ele><time>2026-05-03T08:14:17.773Z</time></trkpt><trkpt lat="39.8034679" lon="8.7490191"><ele>732.6666666666667</ele><time>2026-05-03T08:14:18.772Z</time></trkpt><trkpt lat="39.803406" lon="8.7491062"><ele>734.0</ele><time>2026-05-03T08:14:19.773Z</time></trkpt><trkpt lat="39.8033588" lon="8.7492051"><ele>735.3333333333334</ele><time>2026-05-03T08:14:20.774Z</time></trkpt><trkpt lat="39.8033252" lon="8.7493002"><ele>736.6666666666666</ele><time>2026-05-03T08:14:21.773Z</time></trkpt><trkpt lat="39.8032981" lon="8.7494004"><ele>738.0</ele><time>2026-05-03T08:14:22.773Z</time></trkpt><trkpt lat="39.8032561" lon="8.7494772"><ele>738.4</ele><time>2026-05-03T08:14:23.773Z</time></trkpt><trkpt lat="39.8031341" lon="8.7495521"><ele>738.8</ele><time>2026-05-03T08:14:25.772Z</time></trkpt><trkpt lat="39.803053" lon="8.7495711"><ele>739.2</ele><time>2026-05-03T08:14:26.772Z</time></trkpt><trkpt lat="39.8029706" lon="8.7495629"><ele>739.6</ele><time>2026-05-03T08:14:27.772Z</time></trkpt><trkpt lat="39.8028669" lon="8.7495601"><ele>740.0</ele><time>2026-05-03T08:14:28.774Z</time></trkpt><trkpt lat="39.8027663" lon="8.7495725"><ele>740.2</ele><time>2026-05-03T08:14:29.773Z</time></trkpt><trkpt lat="39.8026638" lon="8.7496088"><ele>740.4</ele><time>2026-05-03T08:14:30.772Z</time></trkpt><trkpt lat="39.8025597" lon="8.7496595"><ele>740.5999999999999</ele><time>2026-05-03T08:14:31.772Z</time></trkpt><trkpt lat="39.8024624" lon="8.7497295"><ele>740.8</ele><time>2026-05-03T08:14:32.772Z</time></trkpt><trkpt lat="39.8023758" lon="8.7497962"><ele>741.0</ele><time>2026-05-03T08:14:33.772Z</time></trkpt><trkpt lat="39.8023084" lon="8.749866"><ele>741.0</ele><time>2026-05-03T08:14:34.772Z</time></trkpt><trkpt lat="39.8022449" lon="8.7499314"><ele>741.0</ele><time>2026-05-03T08:14:35.773Z</time></trkpt><trkpt lat="39.8021896" lon="8.7499991"><ele>741.0</ele><time>2026-05-03T08:14:36.772Z</time></trkpt><trkpt lat="39.8021302" lon="8.7500769"><ele>741.0</ele><time>2026-05-03T08:14:37.772Z</time></trkpt><trkpt lat="39.8020774" lon="8.7501493"><ele>741.0</ele><time>2026-05-03T08:14:38.772Z</time></trkpt><trkpt lat="39.802027" lon="8.7502187"><ele>741.0</ele><time>2026-05-03T08:14:39.772Z</time></trkpt><trkpt lat="39.8019344" lon="8.7503129"><ele>741.4</ele><time>2026-05-03T08:14:41.774Z</time></trkpt><trkpt lat="39.8018339" lon="8.7504152"><ele>741.8</ele><time>2026-05-03T08:14:43.773Z</time></trkpt><trkpt lat="39.801797" lon="8.7504953"><ele>742.1999999999999</ele><time>2026-05-03T08:14:44.773Z</time></trkpt><trkpt lat="39.8017514" lon="8.7505959"><ele>742.5999999999999</ele><time>2026-05-03T08:14:45.773Z</time></trkpt><trkpt lat="39.8017093" lon="8.7507141"><ele>743.0</ele><time>2026-05-03T08:14:46.774Z</time></trkpt><trkpt lat="39.8016633" lon="8.7508422"><ele>743.0</ele><time>2026-05-03T08:14:47.773Z</time></trkpt><trkpt lat="39.8016119" lon="8.7509702"><ele>743.0</ele><time>2026-05-03T08:14:48.773Z</time></trkpt><trkpt lat="39.8015468" lon="8.7511054"><ele>743.0</ele><time>2026-05-03T08:14:49.772Z</time></trkpt><trkpt lat="39.8014607" lon="8.751238"><ele>743.0</ele><time>2026-05-03T08:14:50.773Z</time></trkpt><trkpt lat="39.8013707" lon="8.7513664"><ele>743.0</ele><time>2026-05-03T08:14:51.772Z</time></trkpt><trkpt lat="39.8012711" lon="8.7514774"><ele>743.0</ele><time>2026-05-03T08:14:52.772Z</time></trkpt><trkpt lat="39.801168" lon="8.7515862"><ele>743.0</ele><time>2026-05-03T08:14:53.772Z</time></trkpt><trkpt lat="39.8010539" lon="8.751683"><ele>743.0</ele><time>2026-05-03T08:14:54.774Z</time></trkpt><trkpt lat="39.800936" lon="8.7517743"><ele>743.0</ele><time>2026-05-03T08:14:55.773Z</time></trkpt><trkpt lat="39.8008103" lon="8.751856"><ele>743.0</ele><time>2026-05-03T08:14:56.773Z</time></trkpt><trkpt lat="39.80067" lon="8.751932"><ele>743.0</ele><time>2026-05-03T08:14:57.773Z</time></trkpt><trkpt lat="39.800539" lon="8.7520021"><ele>743.0</ele><time>2026-05-03T08:14:58.773Z</time></trkpt><trkpt lat="39.8003972" lon="8.7520759"><ele>743.0</ele><time>2026-05-03T08:14:59.772Z</time></trkpt><trkpt lat="39.8002483" lon="8.7521515"><ele>743.0</ele><time>2026-05-03T08:15:00.773Z</time></trkpt><trkpt lat="39.8000921" lon="8.7522302"><ele>743.0</ele><time>2026-05-03T08:15:01.774Z</time></trkpt><trkpt lat="39.7999341" lon="8.7523061"><ele>743.0</ele><time>2026-05-03T08:15:02.773Z</time></trkpt><trkpt lat="39.7997792" lon="8.7523846"><ele>743.0</ele><time>2026-05-03T08:15:03.772Z</time></trkpt><trkpt lat="39.7996261" lon="8.7524641"><ele>743.0</ele><time>2026-05-03T08:15:04.774Z</time></trkpt><trkpt lat="39.7994777" lon="8.752537"><ele>744.3333333333333</ele><time>2026-05-03T08:15:05.773Z</time></trkpt><trkpt lat="39.7993284" lon="8.7526057"><ele>745.6666666666666</ele><time>2026-05-03T08:15:06.773Z</time></trkpt><trkpt lat="39.7991799" lon="8.7526723"><ele>747.0</ele><time>2026-05-03T08:15:07.773Z</time></trkpt><trkpt lat="39.7990269" lon="8.7527331"><ele>747.0</ele><time>2026-05-03T08:15:08.773Z</time></trkpt><trkpt lat="39.7988691" lon="8.7527847"><ele>747.0</ele><time>2026-05-03T08:15:09.773Z</time></trkpt><trkpt lat="39.7987116" lon="8.7528338"><ele>747.0</ele><time>2026-05-03T08:15:10.772Z</time></trkpt><trkpt lat="39.7985488" lon="8.7528801"><ele>747.3333333333334</ele><time>2026-05-03T08:15:11.774Z</time></trkpt><trkpt lat="39.7983809" lon="8.752931"><ele>747.6666666666667</ele><time>2026-05-03T08:15:12.773Z</time></trkpt><trkpt lat="39.7982232" lon="8.752981"><ele>748.0</ele><time>2026-05-03T08:15:13.773Z</time></trkpt><trkpt lat="39.7980711" lon="8.7530341"><ele>748.0</ele><time>2026-05-03T08:15:14.772Z</time></trkpt><trkpt lat="39.7979212" lon="8.7530817"><ele>748.0</ele><time>2026-05-03T08:15:15.772Z</time></trkpt><trkpt lat="39.7977712" lon="8.7531268"><ele>748.0</ele><time>2026-05-03T08:15:16.773Z</time></trkpt><trkpt lat="39.7976376" lon="8.7531698"><ele>748.0</ele><time>2026-05-03T08:15:17.773Z</time></trkpt><trkpt lat="39.797518" lon="8.7532313"><ele>747.75</ele><time>2026-05-03T08:15:18.774Z</time></trkpt><trkpt lat="39.7974071" lon="8.7533146"><ele>747.5</ele><time>2026-05-03T08:15:19.774Z</time></trkpt><trkpt lat="39.7973106" lon="8.7534076"><ele>747.25</ele><time>2026-05-03T08:15:20.773Z</time></trkpt><trkpt lat="39.7972113" lon="8.7534925"><ele>747.0</ele><time>2026-05-03T08:15:21.771Z</time></trkpt><trkpt lat="39.7970918" lon="8.7535361"><ele>747.25</ele><time>2026-05-03T08:15:22.773Z</time></trkpt><trkpt lat="39.7969704" lon="8.7535789"><ele>747.5</ele><time>2026-05-03T08:15:23.773Z</time></trkpt><trkpt lat="39.7968514" lon="8.7536083"><ele>747.75</ele><time>2026-05-03T08:15:24.773Z</time></trkpt><trkpt lat="39.7967445" lon="8.7536363"><ele>748.0</ele><time>2026-05-03T08:15:25.773Z</time></trkpt><trkpt lat="39.7966422" lon="8.7536655"><ele>747.1666666666667</ele><time>2026-05-03T08:15:26.771Z</time></trkpt><trkpt lat="39.7965629" lon="8.7536893"><ele>746.3333333333334</ele><time>2026-05-03T08:15:27.773Z</time></trkpt><trkpt lat="39.7964901" lon="8.7537131"><ele>745.5</ele><time>2026-05-03T08:15:28.773Z</time></trkpt><trkpt lat="39.7964068" lon="8.7536946"><ele>744.6666666666666</ele><time>2026-05-03T08:15:30.772Z</time></trkpt><trkpt lat="39.7963721" lon="8.75362"><ele>743.8333333333333</ele><time>2026-05-03T08:15:32.772Z</time></trkpt><trkpt lat="39.7963607" lon="8.7534499"><ele>743.0</ele><time>2026-05-03T08:15:34.772Z</time></trkpt><trkpt lat="39.7963647" lon="8.7533401"><ele>742.8</ele><time>2026-05-03T08:15:35.773Z</time></trkpt><trkpt lat="39.7963635" lon="8.7532134"><ele>742.5999999999999</ele><time>2026-05-03T08:15:36.772Z</time></trkpt><trkpt lat="39.7963584" lon="8.7530791"><ele>742.4000000000001</ele><time>2026-05-03T08:15:37.772Z</time></trkpt><trkpt lat="39.7963498" lon="8.7529336"><ele>742.2</ele><time>2026-05-03T08:15:38.772Z</time></trkpt><trkpt lat="39.7963428" lon="8.7527877"><ele>742.0</ele><time>2026-05-03T08:15:39.772Z</time></trkpt><trkpt lat="39.7963341" lon="8.7526395"><ele>742.5</ele><time>2026-05-03T08:15:40.772Z</time></trkpt><trkpt lat="39.7963218" lon="8.752496"><ele>743.0</ele><time>2026-05-03T08:15:41.773Z</time></trkpt><trkpt lat="39.7963076" lon="8.7523458"><ele>743.5</ele><time>2026-05-03T08:15:42.772Z</time></trkpt><trkpt lat="39.7963013" lon="8.7521943"><ele>744.0</ele><time>2026-05-03T08:15:43.772Z</time></trkpt><trkpt lat="39.7962894" lon="8.7520432"><ele>744.0</ele><time>2026-05-03T08:15:44.772Z</time></trkpt><trkpt lat="39.7962767" lon="8.7518882"><ele>744.0</ele><time>2026-05-03T08:15:45.773Z</time></trkpt><trkpt lat="39.7962629" lon="8.7517271"><ele>744.0</ele><time>2026-05-03T08:15:46.772Z</time></trkpt><trkpt lat="39.7962465" lon="8.7515599"><ele>744.0</ele><time>2026-05-03T08:15:47.771Z</time></trkpt><trkpt lat="39.7962329" lon="8.7513919"><ele>744.5</ele><time>2026-05-03T08:15:48.773Z</time></trkpt><trkpt lat="39.7962189" lon="8.75122"><ele>745.0</ele><time>2026-05-03T08:15:49.772Z</time></trkpt><trkpt lat="39.7962086" lon="8.7510445"><ele>745.5</ele><time>2026-05-03T08:15:50.772Z</time></trkpt><trkpt lat="39.7961951" lon="8.750866"><ele>746.0</ele><time>2026-05-03T08:15:51.771Z</time></trkpt><trkpt lat="39.796182" lon="8.7506867"><ele>746.25</ele><time>2026-05-03T08:15:52.773Z</time></trkpt><trkpt lat="39.7961639" lon="8.7505093"><ele>746.5</ele><time>2026-05-03T08:15:53.772Z</time></trkpt><trkpt lat="39.7961527" lon="8.7503381"><ele>746.75</ele><time>2026-05-03T08:15:54.774Z</time></trkpt><trkpt lat="39.7961433" lon="8.7501758"><ele>747.0</ele><time>2026-05-03T08:15:55.774Z</time></trkpt><trkpt lat="39.7961326" lon="8.7500228"><ele>747.25</ele><time>2026-05-03T08:15:56.773Z</time></trkpt><trkpt lat="39.7961185" lon="8.7498787"><ele>747.5</ele><time>2026-05-03T08:15:57.773Z</time></trkpt><trkpt lat="39.7961063" lon="8.7497281"><ele>747.75</ele><time>2026-05-03T08:15:58.774Z</time></trkpt><trkpt lat="39.7960976" lon="8.7495784"><ele>748.0</ele><time>2026-05-03T08:15:59.774Z</time></trkpt><trkpt lat="39.7960875" lon="8.7494313"><ele>748.75</ele><time>2026-05-03T08:16:00.773Z</time></trkpt><trkpt lat="39.7960775" lon="8.7492817"><ele>749.5</ele><time>2026-05-03T08:16:01.773Z</time></trkpt><trkpt lat="39.7960675" lon="8.7491267"><ele>750.25</ele><time>2026-05-03T08:16:02.772Z</time></trkpt><trkpt lat="39.7960548" lon="8.7489671"><ele>751.0</ele><time>2026-05-03T08:16:03.773Z</time></trkpt><trkpt lat="39.7960408" lon="8.7488041"><ele>751.0</ele><time>2026-05-03T08:16:04.772Z</time></trkpt><trkpt lat="39.796024" lon="8.7486429"><ele>751.0</ele><time>2026-05-03T08:16:05.773Z</time></trkpt><trkpt lat="39.7960025" lon="8.7484828"><ele>751.0</ele><time>2026-05-03T08:16:06.772Z</time></trkpt><trkpt lat="39.7959645" lon="8.7483328"><ele>751.0</ele><time>2026-05-03T08:16:07.774Z</time></trkpt><trkpt lat="39.7959148" lon="8.7481932"><ele>752.0</ele><time>2026-05-03T08:16:08.773Z</time></trkpt><trkpt lat="39.7958466" lon="8.7480662"><ele>753.0</ele><time>2026-05-03T08:16:09.772Z</time></trkpt><trkpt lat="39.7957632" lon="8.7479583"><ele>754.0</ele><time>2026-05-03T08:16:10.773Z</time></trkpt><trkpt lat="39.7956714" lon="8.7478639"><ele>755.0</ele><time>2026-05-03T08:16:11.773Z</time></trkpt><trkpt lat="39.7955731" lon="8.7477819"><ele>755.0</ele><time>2026-05-03T08:16:12.773Z</time></trkpt><trkpt lat="39.7954663" lon="8.7477148"><ele>755.0</ele><time>2026-05-03T08:16:13.772Z</time></trkpt><trkpt lat="39.7953558" lon="8.7476511"><ele>755.0</ele><time>2026-05-03T08:16:14.773Z</time></trkpt><trkpt lat="39.7952384" lon="8.7475882"><ele>755.0</ele><time>2026-05-03T08:16:15.773Z</time></trkpt><trkpt lat="39.7951207" lon="8.7475255"><ele>756.25</ele><time>2026-05-03T08:16:16.773Z</time></trkpt><trkpt lat="39.7950023" lon="8.7474655"><ele>757.5</ele><time>2026-05-03T08:16:17.773Z</time></trkpt><trkpt lat="39.7948831" lon="8.7474023"><ele>758.75</ele><time>2026-05-03T08:16:18.772Z</time></trkpt><trkpt lat="39.7947652" lon="8.747336"><ele>760.0</ele><time>2026-05-03T08:16:19.773Z</time></trkpt><trkpt lat="39.7946428" lon="8.7472724"><ele>760.0</ele><time>2026-05-03T08:16:20.774Z</time></trkpt><trkpt lat="39.7945147" lon="8.7472106"><ele>760.0</ele><time>2026-05-03T08:16:21.774Z</time></trkpt><trkpt lat="39.7943811" lon="8.7471486"><ele>760.0</ele><time>2026-05-03T08:16:22.773Z</time></trkpt><trkpt lat="39.7942471" lon="8.7470831"><ele>760.0</ele><time>2026-05-03T08:16:23.773Z</time></trkpt><trkpt lat="39.7941116" lon="8.747013"><ele>760.5</ele><time>2026-05-03T08:16:24.772Z</time></trkpt><trkpt lat="39.7939775" lon="8.7469506"><ele>761.0</ele><time>2026-05-03T08:16:25.772Z</time></trkpt><trkpt lat="39.7938454" lon="8.7468877"><ele>761.5</ele><time>2026-05-03T08:16:26.774Z</time></trkpt><trkpt lat="39.7937122" lon="8.7468182"><ele>762.0</ele><time>2026-05-03T08:16:27.772Z</time></trkpt><trkpt lat="39.7935779" lon="8.7467457"><ele>761.0</ele><time>2026-05-03T08:16:28.772Z</time></trkpt><trkpt lat="39.7934418" lon="8.7466751"><ele>760.0</ele><time>2026-05-03T08:16:29.773Z</time></trkpt><trkpt lat="39.7933049" lon="8.7466061"><ele>759.0</ele><time>2026-05-03T08:16:30.774Z</time></trkpt><trkpt lat="39.7931648" lon="8.7465376"><ele>758.0</ele><time>2026-05-03T08:16:31.772Z</time></trkpt><trkpt lat="39.7930206" lon="8.7464666"><ele>758.0</ele><time>2026-05-03T08:16:32.774Z</time></trkpt><trkpt lat="39.7928769" lon="8.7464001"><ele>758.0</ele><time>2026-05-03T08:16:33.772Z</time></trkpt><trkpt lat="39.7927387" lon="8.7463319"><ele>758.0</ele><time>2026-05-03T08:16:34.773Z</time></trkpt><trkpt lat="39.7926003" lon="8.7462656"><ele>758.0</ele><time>2026-05-03T08:16:35.773Z</time></trkpt><trkpt lat="39.7924632" lon="8.7462003"><ele>757.75</ele><time>2026-05-03T08:16:36.772Z</time></trkpt><trkpt lat="39.7923262" lon="8.7461383"><ele>757.5</ele><time>2026-05-03T08:16:37.773Z</time></trkpt><trkpt lat="39.7921916" lon="8.7460809"><ele>757.25</ele><time>2026-05-03T08:16:38.774Z</time></trkpt><trkpt lat="39.7920601" lon="8.7460202"><ele>757.0</ele><time>2026-05-03T08:16:39.771Z</time></trkpt><trkpt lat="39.7919281" lon="8.7459612"><ele>757.0</ele><time>2026-05-03T08:16:40.774Z</time></trkpt><trkpt lat="39.7917929" lon="8.7459105"><ele>757.0</ele><time>2026-05-03T08:16:41.773Z</time></trkpt><trkpt lat="39.7916546" lon="8.7458634"><ele>757.0</ele><time>2026-05-03T08:16:42.773Z</time></trkpt><trkpt lat="39.7915156" lon="8.7458197"><ele>757.0</ele><time>2026-05-03T08:16:43.772Z</time></trkpt><trkpt lat="39.7913762" lon="8.7457789"><ele>757.0</ele><time>2026-05-03T08:16:44.772Z</time></trkpt><trkpt lat="39.7912325" lon="8.745742"><ele>757.0</ele><time>2026-05-03T08:16:45.771Z</time></trkpt><trkpt lat="39.7910909" lon="8.745709"><ele>757.0</ele><time>2026-05-03T08:16:46.773Z</time></trkpt><trkpt lat="39.7909472" lon="8.7456816"><ele>757.0</ele><time>2026-05-03T08:16:47.772Z</time></trkpt><trkpt lat="39.7907983" lon="8.7456524"><ele>757.6666666666667</ele><time>2026-05-03T08:16:48.774Z</time></trkpt><trkpt lat="39.7906508" lon="8.7456199"><ele>758.3333333333334</ele><time>2026-05-03T08:16:49.774Z</time></trkpt><trkpt lat="39.7905037" lon="8.7455873"><ele>759.0</ele><time>2026-05-03T08:16:50.772Z</time></trkpt><trkpt lat="39.7903546" lon="8.7455543"><ele>759.0</ele><time>2026-05-03T08:16:51.772Z</time></trkpt><trkpt lat="39.7902085" lon="8.74552"><ele>759.0</ele><time>2026-05-03T08:16:52.771Z</time></trkpt><trkpt lat="39.7900649" lon="8.745486"><ele>759.0</ele><time>2026-05-03T08:16:53.773Z</time></trkpt><trkpt lat="39.789917" lon="8.7454555"><ele>759.0</ele><time>2026-05-03T08:16:54.772Z</time></trkpt><trkpt lat="39.7897684" lon="8.7454296"><ele>759.0</ele><time>2026-05-03T08:16:55.772Z</time></trkpt><trkpt lat="39.7896247" lon="8.7454045"><ele>759.0</ele><time>2026-05-03T08:16:56.772Z</time></trkpt><trkpt lat="39.7894758" lon="8.7453744"><ele>759.0</ele><time>2026-05-03T08:16:57.772Z</time></trkpt><trkpt lat="39.7891728" lon="8.7453081"><ele>759.0</ele><time>2026-05-03T08:16:59.773Z</time></trkpt><trkpt lat="39.7890222" lon="8.7452746"><ele>759.0</ele><time>2026-05-03T08:17:00.772Z</time></trkpt><trkpt lat="39.788883" lon="8.7452408"><ele>759.0</ele><time>2026-05-03T08:17:01.773Z</time></trkpt><trkpt lat="39.7887516" lon="8.745198"><ele>759.0</ele><time>2026-05-03T08:17:02.772Z</time></trkpt><trkpt lat="39.7886253" lon="8.7451471"><ele>760.5</ele><time>2026-05-03T08:17:03.774Z</time></trkpt><trkpt lat="39.788504" lon="8.7450813"><ele>762.0</ele><time>2026-05-03T08:17:04.773Z</time></trkpt><trkpt lat="39.7883839" lon="8.7450029"><ele>763.5</ele><time>2026-05-03T08:17:05.772Z</time></trkpt><trkpt lat="39.7882649" lon="8.744919"><ele>765.0</ele><time>2026-05-03T08:17:06.773Z</time></trkpt><trkpt lat="39.7881494" lon="8.7448298"><ele>765.0</ele><time>2026-05-03T08:17:07.773Z</time></trkpt><trkpt lat="39.7880381" lon="8.7447357"><ele>765.0</ele><time>2026-05-03T08:17:08.773Z</time></trkpt><trkpt lat="39.7879248" lon="8.7446383"><ele>765.0</ele><time>2026-05-03T08:17:09.772Z</time></trkpt><trkpt lat="39.7878062" lon="8.7445366"><ele>765.0</ele><time>2026-05-03T08:17:10.773Z</time></trkpt><trkpt lat="39.7876875" lon="8.7444387"><ele>766.25</ele><time>2026-05-03T08:17:11.774Z</time></trkpt><trkpt lat="39.7875782" lon="8.7443409"><ele>767.5</ele><time>2026-05-03T08:17:12.774Z</time></trkpt><trkpt lat="39.7874756" lon="8.7442397"><ele>768.75</ele><time>2026-05-03T08:17:13.773Z</time></trkpt><trkpt lat="39.7873678" lon="8.7441379"><ele>770.0</ele><time>2026-05-03T08:17:14.773Z</time></trkpt><trkpt lat="39.7872581" lon="8.7440371"><ele>770.0</ele><time>2026-05-03T08:17:15.773Z</time></trkpt><trkpt lat="39.7871497" lon="8.7439279"><ele>770.0</ele><time>2026-05-03T08:17:16.773Z</time></trkpt><trkpt lat="39.7870422" lon="8.7438156"><ele>770.0</ele><time>2026-05-03T08:17:17.771Z</time></trkpt><trkpt lat="39.7869353" lon="8.743705"><ele>770.0</ele><time>2026-05-03T08:17:18.773Z</time></trkpt><trkpt lat="39.7868354" lon="8.7435969"><ele>771.25</ele><time>2026-05-03T08:17:19.773Z</time></trkpt><trkpt lat="39.7867358" lon="8.7434892"><ele>772.5</ele><time>2026-05-03T08:17:20.774Z</time></trkpt><trkpt lat="39.7866385" lon="8.7433774"><ele>773.75</ele><time>2026-05-03T08:17:21.772Z</time></trkpt><trkpt lat="39.7865441" lon="8.7432594"><ele>775.0</ele><time>2026-05-03T08:17:22.771Z</time></trkpt><trkpt lat="39.7864567" lon="8.7431493"><ele>775.0</ele><time>2026-05-03T08:17:23.771Z</time></trkpt><trkpt lat="39.7863695" lon="8.743049"><ele>775.0</ele><time>2026-05-03T08:17:24.774Z</time></trkpt><trkpt lat="39.7862729" lon="8.7429674"><ele>775.0</ele><time>2026-05-03T08:17:25.772Z</time></trkpt><trkpt lat="39.7861592" lon="8.7429147"><ele>775.0</ele><time>2026-05-03T08:17:26.772Z</time></trkpt><trkpt lat="39.7860356" lon="8.7428764"><ele>775.25</ele><time>2026-05-03T08:17:27.772Z</time></trkpt><trkpt lat="39.7859072" lon="8.7428418"><ele>775.5</ele><time>2026-05-03T08:17:28.772Z</time></trkpt><trkpt lat="39.7857876" lon="8.7427886"><ele>775.75</ele><time>2026-05-03T08:17:29.772Z</time></trkpt><trkpt lat="39.7856737" lon="8.7427136"><ele>776.0</ele><time>2026-05-03T08:17:30.774Z</time></trkpt><trkpt lat="39.7855655" lon="8.7426314"><ele>777.5</ele><time>2026-05-03T08:17:31.772Z</time></trkpt><trkpt lat="39.7854486" lon="8.742552"><ele>779.0</ele><time>2026-05-03T08:17:32.773Z</time></trkpt><trkpt lat="39.7853209" lon="8.7424807"><ele>780.5</ele><time>2026-05-03T08:17:33.771Z</time></trkpt><trkpt lat="39.7851948" lon="8.7424231"><ele>782.0</ele><time>2026-05-03T08:17:34.773Z</time></trkpt><trkpt lat="39.785066" lon="8.7423706"><ele>782.0</ele><time>2026-05-03T08:17:35.772Z</time></trkpt><trkpt lat="39.7849302" lon="8.7423241"><ele>782.0</ele><time>2026-05-03T08:17:36.772Z</time></trkpt><trkpt lat="39.7847943" lon="8.7422834"><ele>782.0</ele><time>2026-05-03T08:17:37.773Z</time></trkpt><trkpt lat="39.7846581" lon="8.7422483"><ele>782.0</ele><time>2026-05-03T08:17:38.772Z</time></trkpt><trkpt lat="39.7845289" lon="8.742219"><ele>782.0</ele><time>2026-05-03T08:17:39.773Z</time></trkpt><trkpt lat="39.78441" lon="8.7422002"><ele>782.0</ele><time>2026-05-03T08:17:40.774Z</time></trkpt><trkpt lat="39.7842897" lon="8.7421969"><ele>782.0</ele><time>2026-05-03T08:17:41.773Z</time></trkpt><trkpt lat="39.7841679" lon="8.7422045"><ele>782.0</ele><time>2026-05-03T08:17:42.772Z</time></trkpt><trkpt lat="39.7840426" lon="8.7422121"><ele>781.75</ele><time>2026-05-03T08:17:43.773Z</time></trkpt><trkpt lat="39.7839078" lon="8.7422175"><ele>781.5</ele><time>2026-05-03T08:17:44.773Z</time></trkpt><trkpt lat="39.7837603" lon="8.7422151"><ele>781.25</ele><time>2026-05-03T08:17:45.774Z</time></trkpt><trkpt lat="39.7836058" lon="8.7422101"><ele>781.0</ele><time>2026-05-03T08:17:46.773Z</time></trkpt><trkpt lat="39.7834488" lon="8.7422089"><ele>780.5</ele><time>2026-05-03T08:17:47.773Z</time></trkpt><trkpt lat="39.7832974" lon="8.7422144"><ele>780.0</ele><time>2026-05-03T08:17:48.773Z</time></trkpt><trkpt lat="39.7831507" lon="8.742236"><ele>779.5</ele><time>2026-05-03T08:17:49.771Z</time></trkpt><trkpt lat="39.7830068" lon="8.742264"><ele>779.0</ele><time>2026-05-03T08:17:50.773Z</time></trkpt><trkpt lat="39.7828642" lon="8.7422898"><ele>779.0</ele><time>2026-05-03T08:17:51.773Z</time></trkpt><trkpt lat="39.7827235" lon="8.7423166"><ele>779.0</ele><time>2026-05-03T08:17:52.772Z</time></trkpt><trkpt lat="39.7825917" lon="8.7423499"><ele>779.0</ele><time>2026-05-03T08:17:53.773Z</time></trkpt><trkpt lat="39.7824723" lon="8.7423961"><ele>779.0</ele><time>2026-05-03T08:17:54.773Z</time></trkpt><trkpt lat="39.7823724" lon="8.7424501"><ele>779.25</ele><time>2026-05-03T08:17:55.773Z</time></trkpt><trkpt lat="39.7822759" lon="8.7425231"><ele>779.5</ele><time>2026-05-03T08:17:56.773Z</time></trkpt><trkpt lat="39.7821891" lon="8.7426201"><ele>779.75</ele><time>2026-05-03T08:17:57.774Z</time></trkpt><trkpt lat="39.7820993" lon="8.7427356"><ele>780.0</ele><time>2026-05-03T08:17:58.772Z</time></trkpt><trkpt lat="39.7820103" lon="8.7428606"><ele>779.5</ele><time>2026-05-03T08:17:59.773Z</time></trkpt><trkpt lat="39.7819172" lon="8.7429925"><ele>779.0</ele><time>2026-05-03T08:18:00.774Z</time></trkpt><trkpt lat="39.7818211" lon="8.7431251"><ele>778.5</ele><time>2026-05-03T08:18:01.772Z</time></trkpt><trkpt lat="39.7817235" lon="8.7432597"><ele>778.0</ele><time>2026-05-03T08:18:02.773Z</time></trkpt><trkpt lat="39.7816211" lon="8.7434"><ele>779.3333333333333</ele><time>2026-05-03T08:18:03.773Z</time></trkpt><trkpt lat="39.7815163" lon="8.7435487"><ele>780.6666666666667</ele><time>2026-05-03T08:18:04.774Z</time></trkpt><trkpt lat="39.7814118" lon="8.743699"><ele>782.0</ele><time>2026-05-03T08:18:05.772Z</time></trkpt><trkpt lat="39.7813154" lon="8.743845"><ele>782.0</ele><time>2026-05-03T08:18:06.772Z</time></trkpt><trkpt lat="39.7812247" lon="8.7439807"><ele>782.0</ele><time>2026-05-03T08:18:07.773Z</time></trkpt><trkpt lat="39.7811362" lon="8.7441094"><ele>782.0</ele><time>2026-05-03T08:18:08.773Z</time></trkpt><trkpt lat="39.781047" lon="8.7442367"><ele>782.0</ele><time>2026-05-03T08:18:09.771Z</time></trkpt><trkpt lat="39.7809567" lon="8.7443677"><ele>784.75</ele><time>2026-05-03T08:18:10.774Z</time></trkpt><trkpt lat="39.780868" lon="8.7444917"><ele>787.5</ele><time>2026-05-03T08:18:11.773Z</time></trkpt><trkpt lat="39.7807845" lon="8.74461"><ele>790.25</ele><time>2026-05-03T08:18:12.774Z</time></trkpt><trkpt lat="39.780707" lon="8.7447295"><ele>793.0</ele><time>2026-05-03T08:18:13.772Z</time></trkpt><trkpt lat="39.7806364" lon="8.7448301"><ele>793.0</ele><time>2026-05-03T08:18:14.773Z</time></trkpt><trkpt lat="39.7805663" lon="8.744928"><ele>793.0</ele><time>2026-05-03T08:18:15.772Z</time></trkpt><trkpt lat="39.7804989" lon="8.7450167"><ele>793.0</ele><time>2026-05-03T08:18:16.773Z</time></trkpt><trkpt lat="39.7804389" lon="8.7450982"><ele>793.0</ele><time>2026-05-03T08:18:17.773Z</time></trkpt><trkpt lat="39.7803812" lon="8.7451786"><ele>793.0</ele><time>2026-05-03T08:18:18.772Z</time></trkpt><trkpt lat="39.7803269" lon="8.7452611"><ele>793.2</ele><time>2026-05-03T08:18:19.774Z</time></trkpt><trkpt lat="39.780262" lon="8.7453517"><ele>793.4</ele><time>2026-05-03T08:18:20.773Z</time></trkpt><trkpt lat="39.7801923" lon="8.7454485"><ele>793.6</ele><time>2026-05-03T08:18:21.771Z</time></trkpt><trkpt lat="39.7801055" lon="8.7455533"><ele>793.8000000000001</ele><time>2026-05-03T08:18:22.772Z</time></trkpt><trkpt lat="39.780024" lon="8.7456717"><ele>794.0</ele><time>2026-05-03T08:18:23.771Z</time></trkpt><trkpt lat="39.77994" lon="8.7457869"><ele>795.0</ele><time>2026-05-03T08:18:24.773Z</time></trkpt><trkpt lat="39.7798578" lon="8.7458915"><ele>796.0</ele><time>2026-05-03T08:18:25.773Z</time></trkpt><trkpt lat="39.7797919" lon="8.7459831"><ele>797.0</ele><time>2026-05-03T08:18:26.774Z</time></trkpt><trkpt lat="39.779736" lon="8.7460558"><ele>798.0</ele><time>2026-05-03T08:18:27.773Z</time></trkpt><trkpt lat="39.7796805" lon="8.7461186"><ele>799.0</ele><time>2026-05-03T08:18:28.771Z</time></trkpt><trkpt lat="39.7795592" lon="8.7461714"><ele>799.1666666666666</ele><time>2026-05-03T08:18:30.772Z</time></trkpt><trkpt lat="39.7794786" lon="8.7461911"><ele>799.3333333333333</ele><time>2026-05-03T08:18:31.772Z</time></trkpt><trkpt lat="39.7793913" lon="8.7462091"><ele>799.5</ele><time>2026-05-03T08:18:32.772Z</time></trkpt><trkpt lat="39.7793066" lon="8.7462043"><ele>799.6666666666667</ele><time>2026-05-03T08:18:33.771Z</time></trkpt><trkpt lat="39.7792251" lon="8.7461918"><ele>799.8333333333334</ele><time>2026-05-03T08:18:34.773Z</time></trkpt><trkpt lat="39.7791441" lon="8.7461599"><ele>800.0</ele><time>2026-05-03T08:18:35.773Z</time></trkpt><trkpt lat="39.779069" lon="8.7461117"><ele>800.0000000000001</ele><time>2026-05-03T08:18:36.772Z</time></trkpt><trkpt lat="39.7790086" lon="8.7460554"><ele>800.0</ele><time>2026-05-03T08:18:37.774Z</time></trkpt><trkpt lat="39.7789501" lon="8.745997"><ele>800.0</ele><time>2026-05-03T08:18:38.774Z</time></trkpt><trkpt lat="39.7788824" lon="8.7459434"><ele>800.0</ele><time>2026-05-03T08:18:39.772Z</time></trkpt><trkpt lat="39.7788132" lon="8.7459013"><ele>800.0</ele><time>2026-05-03T08:18:40.773Z</time></trkpt><trkpt lat="39.7787456" lon="8.7458693"><ele>800.0000000000001</ele><time>2026-05-03T08:18:41.771Z</time></trkpt><trkpt lat="39.7786811" lon="8.7458351"><ele>800.0</ele><time>2026-05-03T08:18:42.772Z</time></trkpt><trkpt lat="39.7786231" lon="8.7458029"><ele>799.2</ele><time>2026-05-03T08:18:43.774Z</time></trkpt><trkpt lat="39.7785247" lon="8.745754"><ele>798.4</ele><time>2026-05-03T08:18:45.772Z</time></trkpt><trkpt lat="39.7784523" lon="8.7457702"><ele>797.5999999999999</ele><time>2026-05-03T08:18:47.774Z</time></trkpt><trkpt lat="39.7783694" lon="8.7458624"><ele>796.8</ele><time>2026-05-03T08:18:49.771Z</time></trkpt><trkpt lat="39.7782961" lon="8.7459708"><ele>796.0</ele><time>2026-05-03T08:18:51.773Z</time></trkpt><trkpt lat="39.7782421" lon="8.7460426"><ele>794.5999999999999</ele><time>2026-05-03T08:18:53.773Z</time></trkpt><trkpt lat="39.7781861" lon="8.7461246"><ele>793.2</ele><time>2026-05-03T08:19:07.774Z</time></trkpt><trkpt lat="39.7780843" lon="8.7462155"><ele>791.8</ele><time>2026-05-03T08:19:09.773Z</time></trkpt><trkpt lat="39.7780197" lon="8.7462502"><ele>790.4000000000001</ele><time>2026-05-03T08:19:10.773Z</time></trkpt><trkpt lat="39.7779125" lon="8.7463397"><ele>789.0</ele><time>2026-05-03T08:19:12.773Z</time></trkpt><trkpt lat="39.7778617" lon="8.7464049"><ele>789.0</ele><time>2026-05-03T08:19:13.772Z</time></trkpt><trkpt lat="39.7777663" lon="8.7464659"><ele>789.0</ele><time>2026-05-03T08:19:15.772Z</time></trkpt><trkpt lat="39.7776574" lon="8.7465066"><ele>789.0</ele><time>2026-05-03T08:19:17.772Z</time></trkpt><trkpt lat="39.7775861" lon="8.7465357"><ele>789.0</ele><time>2026-05-03T08:19:18.774Z</time></trkpt><trkpt lat="39.7774966" lon="8.7465791"><ele>789.0</ele><time>2026-05-03T08:19:19.773Z</time></trkpt><trkpt lat="39.7774095" lon="8.7466281"><ele>787.4000000000001</ele><time>2026-05-03T08:19:20.773Z</time></trkpt><trkpt lat="39.7773129" lon="8.7466964"><ele>785.8</ele><time>2026-05-03T08:19:21.773Z</time></trkpt><trkpt lat="39.7772264" lon="8.7467648"><ele>784.2</ele><time>2026-05-03T08:19:22.774Z</time></trkpt><trkpt lat="39.7771424" lon="8.7468509"><ele>782.5999999999999</ele><time>2026-05-03T08:19:23.773Z</time></trkpt><trkpt lat="39.7770709" lon="8.7469397"><ele>781.0</ele><time>2026-05-03T08:19:24.772Z</time></trkpt><trkpt lat="39.7770053" lon="8.747037"><ele>779.5999999999999</ele><time>2026-05-03T08:19:25.774Z</time></trkpt><trkpt lat="39.7769512" lon="8.7471167"><ele>778.2</ele><time>2026-05-03T08:19:26.774Z</time></trkpt><trkpt lat="39.7769003" lon="8.7471916"><ele>776.8</ele><time>2026-05-03T08:19:27.774Z</time></trkpt><trkpt lat="39.7768302" lon="8.7472794"><ele>775.4000000000001</ele><time>2026-05-03T08:19:29.773Z</time></trkpt><trkpt lat="39.7767557" lon="8.7473488"><ele>774.0</ele><time>2026-05-03T08:19:31.774Z</time></trkpt><trkpt lat="39.7766476" lon="8.7474201"><ele>774.0</ele><time>2026-05-03T08:19:33.772Z</time></trkpt><trkpt lat="39.776578" lon="8.747458"><ele>774.0</ele><time>2026-05-03T08:19:34.773Z</time></trkpt><trkpt lat="39.7764987" lon="8.747481"><ele>774.0</ele><time>2026-05-03T08:19:35.773Z</time></trkpt><trkpt lat="39.7764157" lon="8.7474998"><ele>774.0</ele><time>2026-05-03T08:19:36.773Z</time></trkpt><trkpt lat="39.7763362" lon="8.7475157"><ele>774.0</ele><time>2026-05-03T08:19:37.771Z</time></trkpt><trkpt lat="39.7762654" lon="8.7475316"><ele>774.0</ele><time>2026-05-03T08:19:38.773Z</time></trkpt><trkpt lat="39.7761952" lon="8.7475487"><ele>774.0</ele><time>2026-05-03T08:19:39.773Z</time></trkpt><trkpt lat="39.7761286" lon="8.7475836"><ele>774.0</ele><time>2026-05-03T08:19:40.772Z</time></trkpt><trkpt lat="39.776061" lon="8.7476088"><ele>774.0</ele><time>2026-05-03T08:19:41.772Z</time></trkpt><trkpt lat="39.7759915" lon="8.7476434"><ele>774.0</ele><time>2026-05-03T08:19:42.773Z</time></trkpt><trkpt lat="39.7759267" lon="8.7476526"><ele>774.0</ele><time>2026-05-03T08:19:43.773Z</time></trkpt><trkpt lat="39.7758583" lon="8.7476328"><ele>774.0</ele><time>2026-05-03T08:19:44.773Z</time></trkpt><trkpt lat="39.7757855" lon="8.7476023"><ele>774.0</ele><time>2026-05-03T08:19:45.774Z</time></trkpt><trkpt lat="39.7756978" lon="8.7475685"><ele>772.6</ele><time>2026-05-03T08:19:46.773Z</time></trkpt><trkpt lat="39.775611" lon="8.7475349"><ele>771.2</ele><time>2026-05-03T08:19:47.774Z</time></trkpt><trkpt lat="39.7755306" lon="8.7474914"><ele>769.8000000000001</ele><time>2026-05-03T08:19:48.774Z</time></trkpt><trkpt lat="39.7754426" lon="8.7474586"><ele>768.4000000000001</ele><time>2026-05-03T08:19:49.774Z</time></trkpt><trkpt lat="39.7753129" lon="8.7474507"><ele>767.0</ele><time>2026-05-03T08:19:51.772Z</time></trkpt><trkpt lat="39.7752312" lon="8.7474888"><ele>765.2</ele><time>2026-05-03T08:19:52.774Z</time></trkpt><trkpt lat="39.7751481" lon="8.7475368"><ele>763.4000000000001</ele><time>2026-05-03T08:19:53.774Z</time></trkpt><trkpt lat="39.7750701" lon="8.7475751"><ele>761.5999999999999</ele><time>2026-05-03T08:19:54.774Z</time></trkpt><trkpt lat="39.774959" lon="8.7476132"><ele>759.8</ele><time>2026-05-03T08:19:56.773Z</time></trkpt><trkpt lat="39.7748778" lon="8.7476447"><ele>758.0</ele><time>2026-05-03T08:19:58.773Z</time></trkpt><trkpt lat="39.7747784" lon="8.7477007"><ele>757.0</ele><time>2026-05-03T08:20:00.773Z</time></trkpt><trkpt lat="39.7746786" lon="8.7477729"><ele>756.0</ele><time>2026-05-03T08:20:02.772Z</time></trkpt><trkpt lat="39.7745814" lon="8.7478553"><ele>755.0</ele><time>2026-05-03T08:20:04.774Z</time></trkpt><trkpt lat="39.774529" lon="8.7479016"><ele>754.0</ele><time>2026-05-03T08:20:05.772Z</time></trkpt><trkpt lat="39.7744684" lon="8.7479582"><ele>753.0</ele><time>2026-05-03T08:20:06.771Z</time></trkpt><trkpt lat="39.7744011" lon="8.7480034"><ele>752.0</ele><time>2026-05-03T08:20:07.774Z</time></trkpt><trkpt lat="39.7743236" lon="8.748039"><ele>750.2</ele><time>2026-05-03T08:20:08.773Z</time></trkpt><trkpt lat="39.7742389" lon="8.7480626"><ele>748.4000000000001</ele><time>2026-05-03T08:20:09.78Z</time></trkpt><trkpt lat="39.7741413" lon="8.7480757"><ele>746.5999999999999</ele><time>2026-05-03T08:20:10.772Z</time></trkpt><trkpt lat="39.7740409" lon="8.7480877"><ele>744.8</ele><time>2026-05-03T08:20:11.772Z</time></trkpt><trkpt lat="39.7739287" lon="8.7480751"><ele>743.0</ele><time>2026-05-03T08:20:12.772Z</time></trkpt><trkpt lat="39.773826" lon="8.7480821"><ele>743.0</ele><time>2026-05-03T08:20:13.773Z</time></trkpt><trkpt lat="39.7737113" lon="8.7480946"><ele>743.0</ele><time>2026-05-03T08:20:14.772Z</time></trkpt><trkpt lat="39.7735941" lon="8.7481107"><ele>743.0</ele><time>2026-05-03T08:20:15.773Z</time></trkpt><trkpt lat="39.7734846" lon="8.7481295"><ele>743.0</ele><time>2026-05-03T08:20:16.772Z</time></trkpt><trkpt lat="39.7733718" lon="8.7481632"><ele>744.0</ele><time>2026-05-03T08:20:17.774Z</time></trkpt><trkpt lat="39.7732654" lon="8.7481955"><ele>745.0</ele><time>2026-05-03T08:20:18.772Z</time></trkpt><trkpt lat="39.7731545" lon="8.7482232"><ele>746.0</ele><time>2026-05-03T08:20:19.773Z</time></trkpt><trkpt lat="39.7730403" lon="8.7482421"><ele>747.0</ele><time>2026-05-03T08:20:20.772Z</time></trkpt><trkpt lat="39.772919" lon="8.7482514"><ele>747.0</ele><time>2026-05-03T08:20:21.773Z</time></trkpt><trkpt lat="39.7728009" lon="8.7482547"><ele>747.0</ele><time>2026-05-03T08:20:22.774Z</time></trkpt><trkpt lat="39.7726731" lon="8.7482701"><ele>747.0</ele><time>2026-05-03T08:20:23.774Z</time></trkpt><trkpt lat="39.7725542" lon="8.7482996"><ele>747.0</ele><time>2026-05-03T08:20:24.773Z</time></trkpt><trkpt lat="39.7724354" lon="8.7483388"><ele>747.5</ele><time>2026-05-03T08:20:25.772Z</time></trkpt><trkpt lat="39.7723269" lon="8.7483996"><ele>748.0</ele><time>2026-05-03T08:20:26.771Z</time></trkpt><trkpt lat="39.7722115" lon="8.7484446"><ele>748.5</ele><time>2026-05-03T08:20:27.774Z</time></trkpt><trkpt lat="39.7720991" lon="8.7484712"><ele>749.0</ele><time>2026-05-03T08:20:28.772Z</time></trkpt><trkpt lat="39.7719639" lon="8.7484959"><ele>748.75</ele><time>2026-05-03T08:20:29.773Z</time></trkpt><trkpt lat="39.7718243" lon="8.7485318"><ele>748.5</ele><time>2026-05-03T08:20:30.772Z</time></trkpt><trkpt lat="39.7716992" lon="8.748569"><ele>748.25</ele><time>2026-05-03T08:20:31.774Z</time></trkpt><trkpt lat="39.7715701" lon="8.7486159"><ele>748.0</ele><time>2026-05-03T08:20:32.772Z</time></trkpt><trkpt lat="39.7714478" lon="8.7486953"><ele>745.75</ele><time>2026-05-03T08:20:33.773Z</time></trkpt><trkpt lat="39.7713167" lon="8.7487792"><ele>743.5</ele><time>2026-05-03T08:20:34.772Z</time></trkpt><trkpt lat="39.7712043" lon="8.7488563"><ele>741.25</ele><time>2026-05-03T08:20:35.774Z</time></trkpt><trkpt lat="39.7710967" lon="8.7489338"><ele>739.0</ele><time>2026-05-03T08:20:36.774Z</time></trkpt><trkpt lat="39.7709904" lon="8.7490084"><ele>739.0</ele><time>2026-05-03T08:20:37.773Z</time></trkpt><trkpt lat="39.7708848" lon="8.7490891"><ele>739.0</ele><time>2026-05-03T08:20:38.772Z</time></trkpt><trkpt lat="39.7707797" lon="8.7491651"><ele>739.0</ele><time>2026-05-03T08:20:39.772Z</time></trkpt><trkpt lat="39.7706745" lon="8.749245"><ele>739.0</ele><time>2026-05-03T08:20:40.772Z</time></trkpt><trkpt lat="39.7705648" lon="8.7493177"><ele>737.4000000000001</ele><time>2026-05-03T08:20:41.771Z</time></trkpt><trkpt lat="39.770454" lon="8.7493841"><ele>735.8</ele><time>2026-05-03T08:20:42.774Z</time></trkpt><trkpt lat="39.7703577" lon="8.7494298"><ele>734.2</ele><time>2026-05-03T08:20:43.774Z</time></trkpt><trkpt lat="39.7702595" lon="8.7494846"><ele>732.5999999999999</ele><time>2026-05-03T08:20:44.774Z</time></trkpt><trkpt lat="39.7701722" lon="8.7495628"><ele>731.0</ele><time>2026-05-03T08:20:45.772Z</time></trkpt><trkpt lat="39.7700984" lon="8.7496739"><ele>731.0</ele><time>2026-05-03T08:20:46.771Z</time></trkpt><trkpt lat="39.7700346" lon="8.7498077"><ele>731.0</ele><time>2026-05-03T08:20:47.773Z</time></trkpt><trkpt lat="39.7699744" lon="8.749977"><ele>731.0</ele><time>2026-05-03T08:20:48.773Z</time></trkpt><trkpt lat="39.7699204" lon="8.750152"><ele>731.0</ele><time>2026-05-03T08:20:49.773Z</time></trkpt><trkpt lat="39.7698745" lon="8.7503253"><ele>728.5</ele><time>2026-05-03T08:20:50.771Z</time></trkpt><trkpt lat="39.769822" lon="8.7504947"><ele>726.0</ele><time>2026-05-03T08:20:51.774Z</time></trkpt><trkpt lat="39.7697693" lon="8.7506642"><ele>723.5</ele><time>2026-05-03T08:20:52.772Z</time></trkpt><trkpt lat="39.7697199" lon="8.7508355"><ele>721.0</ele><time>2026-05-03T08:20:53.774Z</time></trkpt><trkpt lat="39.7696763" lon="8.7510022"><ele>719.5</ele><time>2026-05-03T08:20:54.772Z</time></trkpt><trkpt lat="39.7696369" lon="8.7511661"><ele>718.0</ele><time>2026-05-03T08:20:55.773Z</time></trkpt><trkpt lat="39.7695926" lon="8.7513363"><ele>716.5</ele><time>2026-05-03T08:20:56.774Z</time></trkpt><trkpt lat="39.7695305" lon="8.751495"><ele>715.0</ele><time>2026-05-03T08:20:57.773Z</time></trkpt><trkpt lat="39.76946" lon="8.7516182"><ele>715.0</ele><time>2026-05-03T08:20:58.773Z</time></trkpt><trkpt lat="39.7693941" lon="8.7517124"><ele>715.0</ele><time>2026-05-03T08:20:59.772Z</time></trkpt><trkpt lat="39.769336" lon="8.751798"><ele>715.0</ele><time>2026-05-03T08:21:00.773Z</time></trkpt><trkpt lat="39.7692845" lon="8.7518658"><ele>715.0</ele><time>2026-05-03T08:21:01.773Z</time></trkpt><trkpt lat="39.7692174" lon="8.7519456"><ele>715.0</ele><time>2026-05-03T08:21:03.772Z</time></trkpt><trkpt lat="39.7691797" lon="8.7520176"><ele>715.0</ele><time>2026-05-03T08:29:23.773Z</time></trkpt><trkpt lat="39.7691124" lon="8.7521612"><ele>715.0</ele><time>2026-05-03T08:29:25.774Z</time></trkpt><trkpt lat="39.7690664" lon="8.752276"><ele>715.0</ele><time>2026-05-03T08:29:26.773Z</time></trkpt><trkpt lat="39.769025" lon="8.7523999"><ele>715.0</ele><time>2026-05-03T08:29:27.773Z</time></trkpt><trkpt lat="39.7689855" lon="8.7525482"><ele>715.0</ele><time>2026-05-03T08:29:28.773Z</time></trkpt><trkpt lat="39.7689601" lon="8.7526837"><ele>715.0</ele><time>2026-05-03T08:29:29.773Z</time></trkpt><trkpt lat="39.7689403" lon="8.7528198"><ele>713.6</ele><time>2026-05-03T08:29:30.772Z</time></trkpt><trkpt lat="39.768922" lon="8.7529507"><ele>712.2</ele><time>2026-05-03T08:29:31.772Z</time></trkpt><trkpt lat="39.7688915" lon="8.7530833"><ele>710.8</ele><time>2026-05-03T08:29:32.773Z</time></trkpt><trkpt lat="39.768851" lon="8.7532048"><ele>709.4</ele><time>2026-05-03T08:29:33.771Z</time></trkpt><trkpt lat="39.7688094" lon="8.7533089"><ele>708.0</ele><time>2026-05-03T08:29:34.773Z</time></trkpt><trkpt lat="39.768771" lon="8.7534059"><ele>708.0</ele><time>2026-05-03T08:29:35.773Z</time></trkpt><trkpt lat="39.7687527" lon="8.7535077"><ele>708.0</ele><time>2026-05-03T08:29:36.772Z</time></trkpt><trkpt lat="39.7687501" lon="8.7536198"><ele>708.0</ele><time>2026-05-03T08:29:37.774Z</time></trkpt><trkpt lat="39.7687675" lon="8.7537454"><ele>708.0</ele><time>2026-05-03T08:29:38.773Z</time></trkpt><trkpt lat="39.7688002" lon="8.7538771"><ele>708.0</ele><time>2026-05-03T08:29:39.771Z</time></trkpt><trkpt lat="39.7688317" lon="8.7540138"><ele>706.5999999999999</ele><time>2026-05-03T08:29:40.771Z</time></trkpt><trkpt lat="39.7688549" lon="8.7541355"><ele>705.1999999999999</ele><time>2026-05-03T08:29:41.771Z</time></trkpt><trkpt lat="39.7688744" lon="8.7542548"><ele>703.8</ele><time>2026-05-03T08:29:42.773Z</time></trkpt><trkpt lat="39.7689029" lon="8.7543682"><ele>702.4</ele><time>2026-05-03T08:29:43.774Z</time></trkpt><trkpt lat="39.7689546" lon="8.7544841"><ele>701.0</ele><time>2026-05-03T08:29:44.773Z</time></trkpt><trkpt lat="39.7690261" lon="8.7546015"><ele>699.5999999999999</ele><time>2026-05-03T08:29:45.772Z</time></trkpt><trkpt lat="39.7691071" lon="8.7547104"><ele>698.2</ele><time>2026-05-03T08:29:46.771Z</time></trkpt><trkpt lat="39.7691717" lon="8.7548185"><ele>696.8</ele><time>2026-05-03T08:29:47.773Z</time></trkpt><trkpt lat="39.76922" lon="8.7549467"><ele>695.4000000000001</ele><time>2026-05-03T08:29:48.772Z</time></trkpt><trkpt lat="39.7692608" lon="8.7550689"><ele>694.0</ele><time>2026-05-03T08:29:49.773Z</time></trkpt><trkpt lat="39.769301" lon="8.7552044"><ele>691.8000000000001</ele><time>2026-05-03T08:29:50.772Z</time></trkpt><trkpt lat="39.7693421" lon="8.7553425"><ele>689.6</ele><time>2026-05-03T08:29:51.773Z</time></trkpt><trkpt lat="39.7693921" lon="8.7554701"><ele>687.4</ele><time>2026-05-03T08:29:52.772Z</time></trkpt><trkpt lat="39.7694579" lon="8.7555725"><ele>685.2</ele><time>2026-05-03T08:29:53.774Z</time></trkpt><trkpt lat="39.7695421" lon="8.7556599"><ele>683.0</ele><time>2026-05-03T08:29:54.772Z</time></trkpt><trkpt lat="39.7696434" lon="8.7557261"><ele>683.0</ele><time>2026-05-03T08:29:55.773Z</time></trkpt><trkpt lat="39.7697472" lon="8.7557765"><ele>683.0</ele><time>2026-05-03T08:29:56.773Z</time></trkpt><trkpt lat="39.7698283" lon="8.755842"><ele>683.0</ele><time>2026-05-03T08:29:57.772Z</time></trkpt><trkpt lat="39.7698846" lon="8.7559238"><ele>683.0</ele><time>2026-05-03T08:29:58.773Z</time></trkpt><trkpt lat="39.7699148" lon="8.75603"><ele>683.0</ele><time>2026-05-03T08:29:59.773Z</time></trkpt><trkpt lat="39.7699235" lon="8.7561497"><ele>681.2</ele><time>2026-05-03T08:30:00.772Z</time></trkpt><trkpt lat="39.7699091" lon="8.7562721"><ele>679.4</ele><time>2026-05-03T08:30:01.772Z</time></trkpt><trkpt lat="39.7698689" lon="8.7563766"><ele>677.6</ele><time>2026-05-03T08:30:02.774Z</time></trkpt><trkpt lat="39.7698038" lon="8.7564839"><ele>675.8000000000001</ele><time>2026-05-03T08:30:03.772Z</time></trkpt><trkpt lat="39.7697231" lon="8.7565845"><ele>674.0</ele><time>2026-05-03T08:30:04.773Z</time></trkpt><trkpt lat="39.769636" lon="8.7566911"><ele>674.0</ele><time>2026-05-03T08:30:05.774Z</time></trkpt><trkpt lat="39.7695591" lon="8.7568136"><ele>674.0</ele><time>2026-05-03T08:30:06.772Z</time></trkpt><trkpt lat="39.7694943" lon="8.7569503"><ele>674.0</ele><time>2026-05-03T08:30:07.774Z</time></trkpt><trkpt lat="39.7694352" lon="8.7570973"><ele>674.0</ele><time>2026-05-03T08:30:08.772Z</time></trkpt><trkpt lat="39.7693817" lon="8.7572543"><ele>672.0</ele><time>2026-05-03T08:30:09.772Z</time></trkpt><trkpt lat="39.769329" lon="8.7574187"><ele>670.0</ele><time>2026-05-03T08:30:10.773Z</time></trkpt><trkpt lat="39.7692796" lon="8.7575806"><ele>668.0</ele><time>2026-05-03T08:30:11.772Z</time></trkpt><trkpt lat="39.7692286" lon="8.7577413"><ele>666.0</ele><time>2026-05-03T08:30:12.771Z</time></trkpt><trkpt lat="39.7691769" lon="8.7579004"><ele>663.5</ele><time>2026-05-03T08:30:13.774Z</time></trkpt><trkpt lat="39.7691252" lon="8.7580568"><ele>661.0</ele><time>2026-05-03T08:30:14.772Z</time></trkpt><trkpt lat="39.7690632" lon="8.7582204"><ele>658.5</ele><time>2026-05-03T08:30:15.771Z</time></trkpt><trkpt lat="39.7689943" lon="8.7583882"><ele>656.0</ele><time>2026-05-03T08:30:16.771Z</time></trkpt><trkpt lat="39.7689149" lon="8.7585473"><ele>655.75</ele><time>2026-05-03T08:30:17.772Z</time></trkpt><trkpt lat="39.7688226" lon="8.7586979"><ele>655.5</ele><time>2026-05-03T08:30:18.773Z</time></trkpt><trkpt lat="39.7687238" lon="8.7588346"><ele>655.25</ele><time>2026-05-03T08:30:19.773Z</time></trkpt><trkpt lat="39.7686293" lon="8.7589657"><ele>655.0</ele><time>2026-05-03T08:30:20.772Z</time></trkpt><trkpt lat="39.7685366" lon="8.7590985"><ele>653.0</ele><time>2026-05-03T08:30:21.774Z</time></trkpt><trkpt lat="39.7684373" lon="8.7592352"><ele>651.0</ele><time>2026-05-03T08:30:22.772Z</time></trkpt><trkpt lat="39.768336" lon="8.759367"><ele>649.0</ele><time>2026-05-03T08:30:23.771Z</time></trkpt><trkpt lat="39.7682363" lon="8.7594886"><ele>647.0</ele><time>2026-05-03T08:30:24.772Z</time></trkpt><trkpt lat="39.7681415" lon="8.7596067"><ele>647.0</ele><time>2026-05-03T08:30:25.772Z</time></trkpt><trkpt lat="39.7680483" lon="8.7597278"><ele>647.0</ele><time>2026-05-03T08:30:26.772Z</time></trkpt><trkpt lat="39.7679642" lon="8.7598625"><ele>647.0</ele><time>2026-05-03T08:30:27.773Z</time></trkpt><trkpt lat="39.7678868" lon="8.7600168"><ele>647.0</ele><time>2026-05-03T08:30:28.773Z</time></trkpt><trkpt lat="39.7678226" lon="8.7601742"><ele>646.5</ele><time>2026-05-03T08:30:29.772Z</time></trkpt><trkpt lat="39.7677656" lon="8.7603341"><ele>646.0</ele><time>2026-05-03T08:30:30.773Z</time></trkpt><trkpt lat="39.7677154" lon="8.7604848"><ele>645.5</ele><time>2026-05-03T08:30:31.773Z</time></trkpt><trkpt lat="39.7676661" lon="8.7606245"><ele>645.0</ele><time>2026-05-03T08:30:32.772Z</time></trkpt><trkpt lat="39.767614" lon="8.7607585"><ele>643.25</ele><time>2026-05-03T08:30:33.772Z</time></trkpt><trkpt lat="39.7675633" lon="8.7608822"><ele>641.5</ele><time>2026-05-03T08:30:34.772Z</time></trkpt><trkpt lat="39.76751" lon="8.7610158"><ele>639.75</ele><time>2026-05-03T08:30:35.773Z</time></trkpt><trkpt lat="39.7674538" lon="8.7611584"><ele>638.0</ele><time>2026-05-03T08:30:36.772Z</time></trkpt><trkpt lat="39.7674093" lon="8.7613027"><ele>637.75</ele><time>2026-05-03T08:30:37.772Z</time></trkpt><trkpt lat="39.7673655" lon="8.76145"><ele>637.5</ele><time>2026-05-03T08:30:38.772Z</time></trkpt><trkpt lat="39.7673339" lon="8.7615873"><ele>637.25</ele><time>2026-05-03T08:30:39.772Z</time></trkpt><trkpt lat="39.7673267" lon="8.7617319"><ele>637.0</ele><time>2026-05-03T08:30:40.773Z</time></trkpt><trkpt lat="39.7673475" lon="8.7618819"><ele>637.0</ele><time>2026-05-03T08:30:41.773Z</time></trkpt><trkpt lat="39.7673866" lon="8.7620318"><ele>637.0</ele><time>2026-05-03T08:30:42.772Z</time></trkpt><trkpt lat="39.7674257" lon="8.7621753"><ele>637.0</ele><time>2026-05-03T08:30:43.771Z</time></trkpt><trkpt lat="39.7674396" lon="8.7622922"><ele>637.0</ele><time>2026-05-03T08:30:44.773Z</time></trkpt><trkpt lat="39.7674263" lon="8.7623909"><ele>637.0</ele><time>2026-05-03T08:30:45.772Z</time></trkpt><trkpt lat="39.7673824" lon="8.7624664"><ele>637.0</ele><time>2026-05-03T08:30:46.774Z</time></trkpt><trkpt lat="39.7673034" lon="8.7625245"><ele>637.0</ele><time>2026-05-03T08:30:47.774Z</time></trkpt><trkpt lat="39.7671892" lon="8.7625787"><ele>637.0</ele><time>2026-05-03T08:30:48.774Z</time></trkpt><trkpt lat="39.7670568" lon="8.762637"><ele>637.0</ele><time>2026-05-03T08:30:49.773Z</time></trkpt><trkpt lat="39.7669009" lon="8.762705"><ele>634.3333333333334</ele><time>2026-05-03T08:30:50.774Z</time></trkpt><trkpt lat="39.7667388" lon="8.7627743"><ele>631.6666666666666</ele><time>2026-05-03T08:30:51.773Z</time></trkpt><trkpt lat="39.7665808" lon="8.7628471"><ele>629.0</ele><time>2026-05-03T08:30:52.773Z</time></trkpt><trkpt lat="39.7664261" lon="8.762917"><ele>629.0</ele><time>2026-05-03T08:30:53.773Z</time></trkpt><trkpt lat="39.7662797" lon="8.7629782"><ele>629.0</ele><time>2026-05-03T08:30:54.772Z</time></trkpt><trkpt lat="39.7661479" lon="8.7630163"><ele>629.0</ele><time>2026-05-03T08:30:55.772Z</time></trkpt><trkpt lat="39.7660311" lon="8.763015"><ele>629.0</ele><time>2026-05-03T08:30:56.772Z</time></trkpt><trkpt lat="39.7659175" lon="8.7629722"><ele>627.25</ele><time>2026-05-03T08:30:57.774Z</time></trkpt><trkpt lat="39.7658002" lon="8.7629034"><ele>625.5</ele><time>2026-05-03T08:30:58.773Z</time></trkpt><trkpt lat="39.7656694" lon="8.7628296"><ele>623.75</ele><time>2026-05-03T08:30:59.771Z</time></trkpt><trkpt lat="39.765528" lon="8.7627667"><ele>622.0</ele><time>2026-05-03T08:31:00.773Z</time></trkpt><trkpt lat="39.7653868" lon="8.7627187"><ele>622.75</ele><time>2026-05-03T08:31:01.774Z</time></trkpt><trkpt lat="39.765243" lon="8.7626764"><ele>623.5</ele><time>2026-05-03T08:31:02.772Z</time></trkpt><trkpt lat="39.7651065" lon="8.7626344"><ele>624.25</ele><time>2026-05-03T08:31:03.774Z</time></trkpt><trkpt lat="39.7649776" lon="8.7625925"><ele>625.0</ele><time>2026-05-03T08:31:04.773Z</time></trkpt><trkpt lat="39.764852" lon="8.7625512"><ele>623.0</ele><time>2026-05-03T08:31:05.774Z</time></trkpt><trkpt lat="39.7647272" lon="8.7625204"><ele>621.0</ele><time>2026-05-03T08:31:06.772Z</time></trkpt><trkpt lat="39.764599" lon="8.7625191"><ele>619.0</ele><time>2026-05-03T08:31:07.773Z</time></trkpt><trkpt lat="39.7644723" lon="8.7625406"><ele>617.0</ele><time>2026-05-03T08:31:08.772Z</time></trkpt><trkpt lat="39.7643485" lon="8.76257"><ele>615.75</ele><time>2026-05-03T08:31:09.773Z</time></trkpt><trkpt lat="39.7642287" lon="8.7625936"><ele>614.5</ele><time>2026-05-03T08:31:10.773Z</time></trkpt><trkpt lat="39.7641027" lon="8.7625943"><ele>613.25</ele><time>2026-05-03T08:31:11.774Z</time></trkpt><trkpt lat="39.7639829" lon="8.7625665"><ele>612.0</ele><time>2026-05-03T08:31:12.774Z</time></trkpt><trkpt lat="39.7638625" lon="8.762504"><ele>612.0</ele><time>2026-05-03T08:31:13.773Z</time></trkpt><trkpt lat="39.7637388" lon="8.7624237"><ele>612.0</ele><time>2026-05-03T08:31:14.772Z</time></trkpt><trkpt lat="39.7636159" lon="8.762334"><ele>612.0</ele><time>2026-05-03T08:31:15.773Z</time></trkpt><trkpt lat="39.7634916" lon="8.7622504"><ele>612.0</ele><time>2026-05-03T08:31:16.772Z</time></trkpt><trkpt lat="39.7633563" lon="8.7621827"><ele>609.3333333333334</ele><time>2026-05-03T08:31:17.771Z</time></trkpt><trkpt lat="39.7632131" lon="8.7621221"><ele>606.6666666666667</ele><time>2026-05-03T08:31:18.773Z</time></trkpt><trkpt lat="39.7630657" lon="8.7620681"><ele>604.0</ele><time>2026-05-03T08:31:19.774Z</time></trkpt><trkpt lat="39.7629128" lon="8.7620136"><ele>604.0</ele><time>2026-05-03T08:31:20.773Z</time></trkpt><trkpt lat="39.7627595" lon="8.7619613"><ele>604.0</ele><time>2026-05-03T08:31:21.772Z</time></trkpt><trkpt lat="39.7626114" lon="8.7619082"><ele>604.0</ele><time>2026-05-03T08:31:22.773Z</time></trkpt><trkpt lat="39.762463" lon="8.7618568"><ele>601.3333333333334</ele><time>2026-05-03T08:31:23.773Z</time></trkpt><trkpt lat="39.7623168" lon="8.7618034"><ele>598.6666666666666</ele><time>2026-05-03T08:31:24.772Z</time></trkpt><trkpt lat="39.7621683" lon="8.7617525"><ele>596.0</ele><time>2026-05-03T08:31:25.771Z</time></trkpt><trkpt lat="39.762021" lon="8.7617028"><ele>596.0</ele><time>2026-05-03T08:31:26.773Z</time></trkpt><trkpt lat="39.7618738" lon="8.7616492"><ele>596.0</ele><time>2026-05-03T08:31:27.772Z</time></trkpt><trkpt lat="39.7617319" lon="8.761597"><ele>596.0</ele><time>2026-05-03T08:31:28.772Z</time></trkpt><trkpt lat="39.7615973" lon="8.7615517"><ele>596.0</ele><time>2026-05-03T08:31:29.771Z</time></trkpt><trkpt lat="39.7614692" lon="8.7615071"><ele>595.0</ele><time>2026-05-03T08:31:30.773Z</time></trkpt><trkpt lat="39.7613514" lon="8.7614653"><ele>594.0</ele><time>2026-05-03T08:31:31.772Z</time></trkpt><trkpt lat="39.761238" lon="8.7614114"><ele>593.0</ele><time>2026-05-03T08:31:32.773Z</time></trkpt><trkpt lat="39.7611329" lon="8.7613505"><ele>592.0</ele><time>2026-05-03T08:31:33.772Z</time></trkpt><trkpt lat="39.7610327" lon="8.7612716"><ele>592.0</ele><time>2026-05-03T08:31:34.772Z</time></trkpt><trkpt lat="39.7609416" lon="8.7611862"><ele>592.0</ele><time>2026-05-03T08:31:35.773Z</time></trkpt><trkpt lat="39.7608509" lon="8.761084"><ele>592.0</ele><time>2026-05-03T08:31:36.772Z</time></trkpt><trkpt lat="39.7607642" lon="8.7609796"><ele>592.0</ele><time>2026-05-03T08:31:37.772Z</time></trkpt><trkpt lat="39.7606918" lon="8.7608723"><ele>590.6</ele><time>2026-05-03T08:31:38.772Z</time></trkpt><trkpt lat="39.7606259" lon="8.760783"><ele>589.2</ele><time>2026-05-03T08:31:39.773Z</time></trkpt><trkpt lat="39.7605734" lon="8.76071"><ele>587.8</ele><time>2026-05-03T08:31:40.772Z</time></trkpt><trkpt lat="39.7605337" lon="8.7605822"><ele>586.4</ele><time>2026-05-03T08:31:42.772Z</time></trkpt><trkpt lat="39.7606044" lon="8.7604975"><ele>585.0</ele><time>2026-05-03T08:31:44.773Z</time></trkpt><trkpt lat="39.7607032" lon="8.7604605"><ele>585.0</ele><time>2026-05-03T08:31:45.773Z</time></trkpt><trkpt lat="39.7608205" lon="8.7604167"><ele>585.0</ele><time>2026-05-03T08:31:46.772Z</time></trkpt><trkpt lat="39.7609526" lon="8.760363"><ele>585.0</ele><time>2026-05-03T08:31:47.771Z</time></trkpt><trkpt lat="39.7611" lon="8.7603016"><ele>585.0</ele><time>2026-05-03T08:31:48.771Z</time></trkpt><trkpt lat="39.7612508" lon="8.7602429"><ele>582.5</ele><time>2026-05-03T08:31:49.773Z</time></trkpt><trkpt lat="39.7613894" lon="8.7601822"><ele>580.0</ele><time>2026-05-03T08:31:50.772Z</time></trkpt><trkpt lat="39.7615247" lon="8.760132"><ele>577.5</ele><time>2026-05-03T08:31:51.773Z</time></trkpt><trkpt lat="39.7616379" lon="8.7600825"><ele>575.0</ele><time>2026-05-03T08:31:52.773Z</time></trkpt><trkpt lat="39.7617316" lon="8.7600361"><ele>575.0</ele><time>2026-05-03T08:31:53.772Z</time></trkpt><trkpt lat="39.7617992" lon="8.75998"><ele>575.0</ele><time>2026-05-03T08:31:54.772Z</time></trkpt><trkpt lat="39.7618436" lon="8.7599117"><ele>575.0</ele><time>2026-05-03T08:31:55.773Z</time></trkpt><trkpt lat="39.7618794" lon="8.7597625"><ele>575.0</ele><time>2026-05-03T08:31:57.773Z</time></trkpt><trkpt lat="39.7618801" lon="8.7596736"><ele>575.0</ele><time>2026-05-03T08:31:58.773Z</time></trkpt><trkpt lat="39.7618679" lon="8.7595762"><ele>575.0</ele><time>2026-05-03T08:31:59.772Z</time></trkpt><trkpt lat="39.7618487" lon="8.7594699"><ele>574.6</ele><time>2026-05-03T08:32:00.774Z</time></trkpt><trkpt lat="39.7618238" lon="8.7593497"><ele>574.2</ele><time>2026-05-03T08:32:01.774Z</time></trkpt><trkpt lat="39.761797" lon="8.7592271"><ele>573.8</ele><time>2026-05-03T08:32:02.773Z</time></trkpt><trkpt lat="39.7617651" lon="8.7590917"><ele>573.4</ele><time>2026-05-03T08:32:03.772Z</time></trkpt><trkpt lat="39.7617302" lon="8.75895"><ele>573.0</ele><time>2026-05-03T08:32:04.771Z</time></trkpt><trkpt lat="39.7616928" lon="8.758801"><ele>573.0</ele><time>2026-05-03T08:32:05.772Z</time></trkpt><trkpt lat="39.7616543" lon="8.7586389"><ele>573.0</ele><time>2026-05-03T08:32:06.772Z</time></trkpt><trkpt lat="39.7616167" lon="8.7584764"><ele>573.0</ele><time>2026-05-03T08:32:07.772Z</time></trkpt><trkpt lat="39.7615823" lon="8.7583221"><ele>573.0</ele><time>2026-05-03T08:32:08.772Z</time></trkpt><trkpt lat="39.7615464" lon="8.7582033"><ele>573.0</ele><time>2026-05-03T08:32:09.771Z</time></trkpt><trkpt lat="39.7614984" lon="8.7581093"><ele>573.0</ele><time>2026-05-03T08:32:10.772Z</time></trkpt><trkpt lat="39.7614327" lon="8.7580379"><ele>573.0</ele><time>2026-05-03T08:32:11.772Z</time></trkpt><trkpt lat="39.7613508" lon="8.7579698"><ele>573.0</ele><time>2026-05-03T08:32:12.773Z</time></trkpt><trkpt lat="39.7612519" lon="8.7578911"><ele>573.0</ele><time>2026-05-03T08:32:13.772Z</time></trkpt><trkpt lat="39.7611541" lon="8.7578271"><ele>573.0</ele><time>2026-05-03T08:32:14.771Z</time></trkpt><trkpt lat="39.7610477" lon="8.7577722"><ele>573.0</ele><time>2026-05-03T08:32:15.771Z</time></trkpt><trkpt lat="39.7609468" lon="8.7577386"><ele>573.0</ele><time>2026-05-03T08:32:16.771Z</time></trkpt><trkpt lat="39.7608566" lon="8.7576875"><ele>573.0</ele><time>2026-05-03T08:32:17.771Z</time></trkpt><trkpt lat="39.7607691" lon="8.757627"><ele>573.0</ele><time>2026-05-03T08:32:18.772Z</time></trkpt><trkpt lat="39.7606847" lon="8.7575413"><ele>573.0</ele><time>2026-05-03T08:32:19.771Z</time></trkpt><trkpt lat="39.7605933" lon="8.7574455"><ele>573.0</ele><time>2026-05-03T08:32:20.772Z</time></trkpt><trkpt lat="39.7604916" lon="8.7573405"><ele>573.0</ele><time>2026-05-03T08:32:21.772Z</time></trkpt><trkpt lat="39.7603794" lon="8.7572248"><ele>573.0</ele><time>2026-05-03T08:32:22.772Z</time></trkpt><trkpt lat="39.7602797" lon="8.7571228"><ele>572.5</ele><time>2026-05-03T08:32:23.771Z</time></trkpt><trkpt lat="39.7601935" lon="8.7570217"><ele>572.0</ele><time>2026-05-03T08:32:24.771Z</time></trkpt><trkpt lat="39.7601092" lon="8.7569025"><ele>571.5</ele><time>2026-05-03T08:32:25.773Z</time></trkpt><trkpt lat="39.7600248" lon="8.7567602"><ele>571.0</ele><time>2026-05-03T08:32:26.773Z</time></trkpt><trkpt lat="39.7599302" lon="8.7566003"><ele>571.0</ele><time>2026-05-03T08:32:27.773Z</time></trkpt><trkpt lat="39.7598324" lon="8.7564389"><ele>571.0</ele><time>2026-05-03T08:32:28.771Z</time></trkpt><trkpt lat="39.7597496" lon="8.7562839"><ele>571.0</ele><time>2026-05-03T08:32:29.772Z</time></trkpt><trkpt lat="39.759673" lon="8.7561477"><ele>571.0</ele><time>2026-05-03T08:32:30.773Z</time></trkpt><trkpt lat="39.7596054" lon="8.7560505"><ele>571.1666666666667</ele><time>2026-05-03T08:32:31.774Z</time></trkpt><trkpt lat="39.7595321" lon="8.7559883"><ele>571.3333333333334</ele><time>2026-05-03T08:32:32.773Z</time></trkpt><trkpt lat="39.7594547" lon="8.7559376"><ele>571.5</ele><time>2026-05-03T08:32:33.771Z</time></trkpt><trkpt lat="39.7593624" lon="8.7559157"><ele>571.6666666666666</ele><time>2026-05-03T08:32:34.772Z</time></trkpt><trkpt lat="39.7592809" lon="8.7559127"><ele>571.8333333333333</ele><time>2026-05-03T08:32:35.773Z</time></trkpt><trkpt lat="39.7592088" lon="8.7559315"><ele>572.0</ele><time>2026-05-03T08:32:36.772Z</time></trkpt><trkpt lat="39.7591349" lon="8.7559965"><ele>570.8000000000001</ele><time>2026-05-03T08:32:37.772Z</time></trkpt><trkpt lat="39.75907" lon="8.7560782"><ele>569.6</ele><time>2026-05-03T08:32:38.774Z</time></trkpt><trkpt lat="39.7589968" lon="8.7561601"><ele>568.4000000000001</ele><time>2026-05-03T08:32:39.772Z</time></trkpt><trkpt lat="39.7589184" lon="8.7562026"><ele>567.2</ele><time>2026-05-03T08:32:40.773Z</time></trkpt><trkpt lat="39.7588332" lon="8.7562471"><ele>566.0</ele><time>2026-05-03T08:32:41.772Z</time></trkpt><trkpt lat="39.7587175" lon="8.7562673"><ele>566.0</ele><time>2026-05-03T08:32:42.773Z</time></trkpt><trkpt lat="39.7586001" lon="8.7562944"><ele>566.0</ele><time>2026-05-03T08:32:43.771Z</time></trkpt><trkpt lat="39.758468" lon="8.7563292"><ele>566.0</ele><time>2026-05-03T08:32:44.771Z</time></trkpt><trkpt lat="39.7583275" lon="8.7563665"><ele>566.0</ele><time>2026-05-03T08:32:45.771Z</time></trkpt><trkpt lat="39.758185" lon="8.756404"><ele>566.0</ele><time>2026-05-03T08:32:46.771Z</time></trkpt><trkpt lat="39.7580465" lon="8.756429"><ele>566.0</ele><time>2026-05-03T08:32:47.772Z</time></trkpt><trkpt lat="39.7579284" lon="8.7564472"><ele>566.0</ele><time>2026-05-03T08:32:48.771Z</time></trkpt><trkpt lat="39.7578253" lon="8.7564661"><ele>566.0</ele><time>2026-05-03T08:32:49.773Z</time></trkpt><trkpt lat="39.7577457" lon="8.7564677"><ele>566.0</ele><time>2026-05-03T08:32:50.772Z</time></trkpt><trkpt lat="39.7576753" lon="8.7564457"><ele>566.5</ele><time>2026-05-03T08:32:51.772Z</time></trkpt><trkpt lat="39.7575905" lon="8.7563945"><ele>567.0</ele><time>2026-05-03T08:32:52.771Z</time></trkpt><trkpt lat="39.7574909" lon="8.7563126"><ele>567.5</ele><time>2026-05-03T08:32:53.771Z</time></trkpt><trkpt lat="39.7573868" lon="8.7562607"><ele>568.0</ele><time>2026-05-03T08:32:54.773Z</time></trkpt><trkpt lat="39.7572619" lon="8.7562244"><ele>568.0</ele><time>2026-05-03T08:32:55.773Z</time></trkpt><trkpt lat="39.7571117" lon="8.7562208"><ele>568.0</ele><time>2026-05-03T08:32:56.777Z</time></trkpt><trkpt lat="39.7569413" lon="8.7562247"><ele>568.0</ele><time>2026-05-03T08:32:57.772Z</time></trkpt><trkpt lat="39.7567877" lon="8.7562193"><ele>567.8333333333334</ele><time>2026-05-03T08:32:58.772Z</time></trkpt><trkpt lat="39.7566727" lon="8.7562069"><ele>567.6666666666667</ele><time>2026-05-03T08:32:59.771Z</time></trkpt><trkpt lat="39.756594" lon="8.756177"><ele>567.5</ele><time>2026-05-03T08:33:00.772Z</time></trkpt><trkpt lat="39.7565504" lon="8.7561036"><ele>567.3333333333334</ele><time>2026-05-03T08:33:01.771Z</time></trkpt><trkpt lat="39.756534" lon="8.7560107"><ele>567.1666666666666</ele><time>2026-05-03T08:33:02.771Z</time></trkpt><trkpt lat="39.7565573" lon="8.7558827"><ele>567.0</ele><time>2026-05-03T08:33:03.773Z</time></trkpt><trkpt lat="39.7565995" lon="8.7557385"><ele>567.0</ele><time>2026-05-03T08:33:04.772Z</time></trkpt><trkpt lat="39.7566476" lon="8.755562"><ele>567.0</ele><time>2026-05-03T08:33:05.772Z</time></trkpt><trkpt lat="39.7566637" lon="8.7553978"><ele>567.0</ele><time>2026-05-03T08:33:06.772Z</time></trkpt><trkpt lat="39.7566535" lon="8.755244"><ele>567.0</ele><time>2026-05-03T08:33:07.772Z</time></trkpt><trkpt lat="39.7566143" lon="8.7551153"><ele>566.0</ele><time>2026-05-03T08:33:08.771Z</time></trkpt><trkpt lat="39.7565441" lon="8.7549904"><ele>565.0</ele><time>2026-05-03T08:33:09.772Z</time></trkpt><trkpt lat="39.7564383" lon="8.7548627"><ele>564.0</ele><time>2026-05-03T08:33:10.774Z</time></trkpt><trkpt lat="39.7563101" lon="8.7547382"><ele>563.0</ele><time>2026-05-03T08:33:11.773Z</time></trkpt><trkpt lat="39.7561699" lon="8.754601"><ele>563.0</ele><time>2026-05-03T08:33:12.772Z</time></trkpt><trkpt lat="39.7560388" lon="8.7544819"><ele>563.0</ele><time>2026-05-03T08:33:13.773Z</time></trkpt><trkpt lat="39.7559091" lon="8.7543963"><ele>563.0</ele><time>2026-05-03T08:33:14.772Z</time></trkpt><trkpt lat="39.7557662" lon="8.7543509"><ele>564.0</ele><time>2026-05-03T08:33:15.773Z</time></trkpt><trkpt lat="39.7556161" lon="8.7543512"><ele>565.0</ele><time>2026-05-03T08:33:16.772Z</time></trkpt><trkpt lat="39.7554659" lon="8.7543733"><ele>566.0</ele><time>2026-05-03T08:33:17.773Z</time></trkpt><trkpt lat="39.755329" lon="8.7543679"><ele>567.0</ele><time>2026-05-03T08:33:18.774Z</time></trkpt><trkpt lat="39.7552145" lon="8.7543372"><ele>568.0</ele><time>2026-05-03T08:33:19.772Z</time></trkpt><trkpt lat="39.755112" lon="8.7542637"><ele>569.0</ele><time>2026-05-03T08:33:20.773Z</time></trkpt><trkpt lat="39.7550176" lon="8.754152"><ele>570.0</ele><time>2026-05-03T08:33:21.771Z</time></trkpt><trkpt lat="39.7549269" lon="8.7540149"><ele>571.0</ele><time>2026-05-03T08:33:22.772Z</time></trkpt><trkpt lat="39.7548139" lon="8.753875"><ele>571.0</ele><time>2026-05-03T08:33:23.772Z</time></trkpt><trkpt lat="39.7546898" lon="8.753766"><ele>571.0</ele><time>2026-05-03T08:33:24.773Z</time></trkpt><trkpt lat="39.7545562" lon="8.7536845"><ele>571.0</ele><time>2026-05-03T08:33:25.772Z</time></trkpt><trkpt lat="39.7544163" lon="8.7536443"><ele>571.0</ele><time>2026-05-03T08:33:26.774Z</time></trkpt><trkpt lat="39.754269" lon="8.7536528"><ele>573.75</ele><time>2026-05-03T08:33:27.772Z</time></trkpt><trkpt lat="39.7541131" lon="8.7536934"><ele>576.5</ele><time>2026-05-03T08:33:28.772Z</time></trkpt><trkpt lat="39.7539736" lon="8.7537257"><ele>579.25</ele><time>2026-05-03T08:33:29.773Z</time></trkpt><trkpt lat="39.7538429" lon="8.7537469"><ele>582.0</ele><time>2026-05-03T08:33:30.773Z</time></trkpt><trkpt lat="39.7537491" lon="8.7537173"><ele>582.0</ele><time>2026-05-03T08:33:31.773Z</time></trkpt><trkpt lat="39.7536748" lon="8.753676"><ele>582.0</ele><time>2026-05-03T08:33:32.773Z</time></trkpt><trkpt lat="39.7536163" lon="8.7535936"><ele>582.0</ele><time>2026-05-03T08:33:33.773Z</time></trkpt><trkpt lat="39.7535731" lon="8.7534903"><ele>582.0</ele><time>2026-05-03T08:33:34.772Z</time></trkpt><trkpt lat="39.7535858" lon="8.7533405"><ele>582.0</ele><time>2026-05-03T08:33:35.772Z</time></trkpt><trkpt lat="39.753625" lon="8.7531845"><ele>584.6666666666666</ele><time>2026-05-03T08:33:36.771Z</time></trkpt><trkpt lat="39.7536762" lon="8.7530087"><ele>587.3333333333333</ele><time>2026-05-03T08:33:37.772Z</time></trkpt><trkpt lat="39.7537344" lon="8.7528158"><ele>590.0</ele><time>2026-05-03T08:33:38.773Z</time></trkpt><trkpt lat="39.7537939" lon="8.7526195"><ele>591.0</ele><time>2026-05-03T08:33:39.773Z</time></trkpt><trkpt lat="39.7538363" lon="8.7524292"><ele>592.0</ele><time>2026-05-03T08:33:40.772Z</time></trkpt><trkpt lat="39.7538627" lon="8.7522467"><ele>593.0</ele><time>2026-05-03T08:33:41.773Z</time></trkpt><trkpt lat="39.7538921" lon="8.7520679"><ele>594.0</ele><time>2026-05-03T08:33:42.774Z</time></trkpt><trkpt lat="39.7539385" lon="8.7519015"><ele>594.5</ele><time>2026-05-03T08:33:43.772Z</time></trkpt><trkpt lat="39.7540116" lon="8.7517546"><ele>595.0</ele><time>2026-05-03T08:33:44.772Z</time></trkpt><trkpt lat="39.754111" lon="8.7516131"><ele>595.5</ele><time>2026-05-03T08:33:45.773Z</time></trkpt><trkpt lat="39.7542267" lon="8.7514713"><ele>596.0</ele><time>2026-05-03T08:33:46.774Z</time></trkpt><trkpt lat="39.7543445" lon="8.7513325"><ele>598.0</ele><time>2026-05-03T08:33:47.773Z</time></trkpt><trkpt lat="39.7544631" lon="8.7511945"><ele>600.0</ele><time>2026-05-03T08:33:48.774Z</time></trkpt><trkpt lat="39.7545805" lon="8.7510527"><ele>602.0</ele><time>2026-05-03T08:33:49.772Z</time></trkpt><trkpt lat="39.7546995" lon="8.7509115"><ele>602.3333333333333</ele><time>2026-05-03T08:33:50.773Z</time></trkpt><trkpt lat="39.7548183" lon="8.7507719"><ele>602.6666666666666</ele><time>2026-05-03T08:33:51.772Z</time></trkpt><trkpt lat="39.7549297" lon="8.7506233"><ele>603.0</ele><time>2026-05-03T08:33:52.771Z</time></trkpt><trkpt lat="39.7550366" lon="8.7504753"><ele>603.0</ele><time>2026-05-03T08:33:53.773Z</time></trkpt><trkpt lat="39.7551372" lon="8.7503412"><ele>603.0</ele><time>2026-05-03T08:33:54.772Z</time></trkpt><trkpt lat="39.7552232" lon="8.7502155"><ele>603.0</ele><time>2026-05-03T08:33:55.772Z</time></trkpt><trkpt lat="39.7552894" lon="8.7500891"><ele>603.0</ele><time>2026-05-03T08:33:56.773Z</time></trkpt><trkpt lat="39.7553258" lon="8.7499589"><ele>603.75</ele><time>2026-05-03T08:33:57.772Z</time></trkpt><trkpt lat="39.7553347" lon="8.7498161"><ele>604.5</ele><time>2026-05-03T08:33:58.773Z</time></trkpt><trkpt lat="39.7553156" lon="8.749669"><ele>605.25</ele><time>2026-05-03T08:33:59.773Z</time></trkpt><trkpt lat="39.7552861" lon="8.749517"><ele>606.0</ele><time>2026-05-03T08:34:00.772Z</time></trkpt><trkpt lat="39.7552637" lon="8.7493695"><ele>606.0</ele><time>2026-05-03T08:34:01.773Z</time></trkpt><trkpt lat="39.7552544" lon="8.7492236"><ele>606.0</ele><time>2026-05-03T08:34:02.773Z</time></trkpt><trkpt lat="39.7552859" lon="8.7490873"><ele>606.0</ele><time>2026-05-03T08:34:03.772Z</time></trkpt><trkpt lat="39.7553151" lon="8.7489812"><ele>606.0</ele><time>2026-05-03T08:34:04.771Z</time></trkpt><trkpt lat="39.755343" lon="8.748884"><ele>606.0</ele><time>2026-05-03T08:34:05.772Z</time></trkpt><trkpt lat="39.7553311" lon="8.7487937"><ele>606.0</ele><time>2026-05-03T08:34:07.772Z</time></trkpt><trkpt lat="39.7552641" lon="8.7487579"><ele>606.0</ele><time>2026-05-03T08:34:09.773Z</time></trkpt><trkpt lat="39.7551413" lon="8.7487807"><ele>606.0</ele><time>2026-05-03T08:34:11.773Z</time></trkpt><trkpt lat="39.7550545" lon="8.7488165"><ele>606.0</ele><time>2026-05-03T08:34:12.772Z</time></trkpt><trkpt lat="39.7549645" lon="8.7488449"><ele>606.0</ele><time>2026-05-03T08:34:13.772Z</time></trkpt><trkpt lat="39.7548527" lon="8.748875"><ele>604.8</ele><time>2026-05-03T08:34:14.773Z</time></trkpt><trkpt lat="39.7547385" lon="8.7489094"><ele>603.6</ele><time>2026-05-03T08:34:15.773Z</time></trkpt><trkpt lat="39.7546481" lon="8.7489484"><ele>602.4</ele><time>2026-05-03T08:34:16.771Z</time></trkpt><trkpt lat="39.7545603" lon="8.7489854"><ele>601.2</ele><time>2026-05-03T08:34:17.772Z</time></trkpt><trkpt lat="39.754475" lon="8.7490189"><ele>600.0</ele><time>2026-05-03T08:34:18.774Z</time></trkpt><trkpt lat="39.7543906" lon="8.7490409"><ele>598.8</ele><time>2026-05-03T08:34:19.771Z</time></trkpt><trkpt lat="39.754296" lon="8.7490567"><ele>597.6</ele><time>2026-05-03T08:34:20.773Z</time></trkpt><trkpt lat="39.7541955" lon="8.749075"><ele>596.4</ele><time>2026-05-03T08:34:21.772Z</time></trkpt><trkpt lat="39.7540814" lon="8.749089"><ele>595.2</ele><time>2026-05-03T08:34:22.772Z</time></trkpt><trkpt lat="39.7539723" lon="8.7491134"><ele>594.0</ele><time>2026-05-03T08:34:23.771Z</time></trkpt><trkpt lat="39.7538595" lon="8.7491306"><ele>594.0</ele><time>2026-05-03T08:34:24.772Z</time></trkpt><trkpt lat="39.7537496" lon="8.7491439"><ele>594.0</ele><time>2026-05-03T08:34:25.772Z</time></trkpt><trkpt lat="39.7536447" lon="8.7491531"><ele>594.0</ele><time>2026-05-03T08:34:26.773Z</time></trkpt><trkpt lat="39.7535429" lon="8.749165"><ele>594.0</ele><time>2026-05-03T08:34:27.772Z</time></trkpt><trkpt lat="39.7534394" lon="8.7491808"><ele>594.0</ele><time>2026-05-03T08:34:28.772Z</time></trkpt><trkpt lat="39.7533392" lon="8.7492043"><ele>592.6</ele><time>2026-05-03T08:34:29.773Z</time></trkpt><trkpt lat="39.7532375" lon="8.7492252"><ele>591.2</ele><time>2026-05-03T08:34:30.771Z</time></trkpt><trkpt lat="39.7531382" lon="8.7492594"><ele>589.8000000000001</ele><time>2026-05-03T08:34:31.774Z</time></trkpt><trkpt lat="39.753036" lon="8.7492962"><ele>588.4</ele><time>2026-05-03T08:34:32.772Z</time></trkpt><trkpt lat="39.7529332" lon="8.7493372"><ele>587.0</ele><time>2026-05-03T08:34:33.773Z</time></trkpt><trkpt lat="39.7528354" lon="8.7493779"><ele>587.0</ele><time>2026-05-03T08:34:34.773Z</time></trkpt><trkpt lat="39.7527299" lon="8.7494308"><ele>587.0</ele><time>2026-05-03T08:34:35.774Z</time></trkpt><trkpt lat="39.7526195" lon="8.7494835"><ele>587.0</ele><time>2026-05-03T08:34:36.773Z</time></trkpt><trkpt lat="39.7525086" lon="8.7495393"><ele>587.0</ele><time>2026-05-03T08:34:37.771Z</time></trkpt><trkpt lat="39.7523881" lon="8.749595"><ele>583.75</ele><time>2026-05-03T08:34:38.772Z</time></trkpt><trkpt lat="39.7522787" lon="8.7496514"><ele>580.5</ele><time>2026-05-03T08:34:39.772Z</time></trkpt><trkpt lat="39.7521688" lon="8.749713"><ele>577.25</ele><time>2026-05-03T08:34:40.772Z</time></trkpt><trkpt lat="39.7520545" lon="8.7497743"><ele>574.0</ele><time>2026-05-03T08:34:41.773Z</time></trkpt><trkpt lat="39.75194" lon="8.7498385"><ele>572.0</ele><time>2026-05-03T08:34:42.772Z</time></trkpt><trkpt lat="39.751827" lon="8.7498902"><ele>570.0</ele><time>2026-05-03T08:34:43.773Z</time></trkpt><trkpt lat="39.751713" lon="8.7499404"><ele>568.0</ele><time>2026-05-03T08:34:44.772Z</time></trkpt><trkpt lat="39.7515954" lon="8.749987"><ele>566.0</ele><time>2026-05-03T08:34:45.771Z</time></trkpt><trkpt lat="39.7514734" lon="8.7500464"><ele>566.0</ele><time>2026-05-03T08:34:46.773Z</time></trkpt><trkpt lat="39.7513541" lon="8.7501026"><ele>566.0</ele><time>2026-05-03T08:34:47.772Z</time></trkpt><trkpt lat="39.7512342" lon="8.750163"><ele>566.0</ele><time>2026-05-03T08:34:48.772Z</time></trkpt><trkpt lat="39.7511162" lon="8.7502212"><ele>566.0</ele><time>2026-05-03T08:34:49.772Z</time></trkpt><trkpt lat="39.750991" lon="8.750283"><ele>565.25</ele><time>2026-05-03T08:34:50.772Z</time></trkpt><trkpt lat="39.750869" lon="8.7503471"><ele>564.5</ele><time>2026-05-03T08:34:51.773Z</time></trkpt><trkpt lat="39.7507507" lon="8.7504093"><ele>563.75</ele><time>2026-05-03T08:34:52.772Z</time></trkpt><trkpt lat="39.7506333" lon="8.75048"><ele>563.0</ele><time>2026-05-03T08:34:53.772Z</time></trkpt><trkpt lat="39.7505144" lon="8.75055"><ele>563.0</ele><time>2026-05-03T08:34:54.772Z</time></trkpt><trkpt lat="39.7503868" lon="8.7506228"><ele>563.0</ele><time>2026-05-03T08:34:55.771Z</time></trkpt><trkpt lat="39.7502598" lon="8.7507007"><ele>563.0</ele><time>2026-05-03T08:34:56.772Z</time></trkpt><trkpt lat="39.7501345" lon="8.7507805"><ele>563.0</ele><time>2026-05-03T08:34:57.774Z</time></trkpt><trkpt lat="39.7500099" lon="8.7508617"><ele>562.25</ele><time>2026-05-03T08:34:58.773Z</time></trkpt><trkpt lat="39.7498821" lon="8.7509449"><ele>561.5</ele><time>2026-05-03T08:34:59.771Z</time></trkpt><trkpt lat="39.7497564" lon="8.751022"><ele>560.75</ele><time>2026-05-03T08:35:00.772Z</time></trkpt><trkpt lat="39.7496302" lon="8.7510949"><ele>560.0</ele><time>2026-05-03T08:35:01.771Z</time></trkpt><trkpt lat="39.7495039" lon="8.7511608"><ele>560.0</ele><time>2026-05-03T08:35:02.773Z</time></trkpt><trkpt lat="39.7493819" lon="8.7512207"><ele>560.0</ele><time>2026-05-03T08:35:03.771Z</time></trkpt><trkpt lat="39.7492658" lon="8.7512761"><ele>560.0</ele><time>2026-05-03T08:35:04.773Z</time></trkpt><trkpt lat="39.7491478" lon="8.7513326"><ele>560.0</ele><time>2026-05-03T08:35:05.772Z</time></trkpt><trkpt lat="39.7490356" lon="8.7514003"><ele>558.25</ele><time>2026-05-03T08:35:06.774Z</time></trkpt><trkpt lat="39.7489298" lon="8.7514849"><ele>556.5</ele><time>2026-05-03T08:35:07.772Z</time></trkpt><trkpt lat="39.7488237" lon="8.7515756"><ele>554.75</ele><time>2026-05-03T08:35:08.773Z</time></trkpt><trkpt lat="39.7487184" lon="8.7516614"><ele>553.0</ele><time>2026-05-03T08:35:09.772Z</time></trkpt><trkpt lat="39.7486094" lon="8.7517498"><ele>551.8</ele><time>2026-05-03T08:35:10.773Z</time></trkpt><trkpt lat="39.7485129" lon="8.751834"><ele>550.5999999999999</ele><time>2026-05-03T08:35:11.773Z</time></trkpt><trkpt lat="39.748427" lon="8.7519148"><ele>549.4000000000001</ele><time>2026-05-03T08:35:12.773Z</time></trkpt><trkpt lat="39.748348" lon="8.7519976"><ele>548.2</ele><time>2026-05-03T08:35:13.773Z</time></trkpt><trkpt lat="39.7482821" lon="8.7520797"><ele>547.0</ele><time>2026-05-03T08:35:14.772Z</time></trkpt><trkpt lat="39.7482202" lon="8.7521613"><ele>546.8333333333334</ele><time>2026-05-03T08:35:15.773Z</time></trkpt><trkpt lat="39.7481635" lon="8.7522262"><ele>546.6666666666667</ele><time>2026-05-03T08:35:16.772Z</time></trkpt><trkpt lat="39.7481015" lon="8.7522499"><ele>546.5</ele><time>2026-05-03T08:35:17.771Z</time></trkpt><trkpt lat="39.7480334" lon="8.7522496"><ele>546.3333333333334</ele><time>2026-05-03T08:35:18.772Z</time></trkpt><trkpt lat="39.7479672" lon="8.7522217"><ele>546.1666666666666</ele><time>2026-05-03T08:35:19.773Z</time></trkpt><trkpt lat="39.7479006" lon="8.752164"><ele>546.0</ele><time>2026-05-03T08:35:20.773Z</time></trkpt><trkpt lat="39.7478329" lon="8.7520813"><ele>546.0</ele><time>2026-05-03T08:35:21.772Z</time></trkpt><trkpt lat="39.7477595" lon="8.7519633"><ele>546.0</ele><time>2026-05-03T08:35:22.771Z</time></trkpt><trkpt lat="39.7476937" lon="8.7518211"><ele>546.0</ele><time>2026-05-03T08:35:23.772Z</time></trkpt><trkpt lat="39.7476326" lon="8.751702"><ele>546.0</ele><time>2026-05-03T08:35:24.773Z</time></trkpt><trkpt lat="39.7475623" lon="8.7516112"><ele>544.25</ele><time>2026-05-03T08:35:25.771Z</time></trkpt><trkpt lat="39.7474728" lon="8.751535"><ele>542.5</ele><time>2026-05-03T08:35:26.773Z</time></trkpt><trkpt lat="39.7473623" lon="8.7514699"><ele>540.75</ele><time>2026-05-03T08:35:27.772Z</time></trkpt><trkpt lat="39.7472381" lon="8.7514018"><ele>539.0</ele><time>2026-05-03T08:35:28.772Z</time></trkpt><trkpt lat="39.7471185" lon="8.7513532"><ele>539.0</ele><time>2026-05-03T08:35:29.771Z</time></trkpt><trkpt lat="39.7469974" lon="8.7512994"><ele>539.0</ele><time>2026-05-03T08:35:30.773Z</time></trkpt><trkpt lat="39.7468869" lon="8.7512314"><ele>539.0</ele><time>2026-05-03T08:35:31.771Z</time></trkpt><trkpt lat="39.7467908" lon="8.7511478"><ele>539.0</ele><time>2026-05-03T08:35:32.774Z</time></trkpt><trkpt lat="39.7466996" lon="8.751066"><ele>537.4</ele><time>2026-05-03T08:35:33.773Z</time></trkpt><trkpt lat="39.7466072" lon="8.7510043"><ele>535.8</ele><time>2026-05-03T08:35:34.772Z</time></trkpt><trkpt lat="39.7465104" lon="8.7509628"><ele>534.2</ele><time>2026-05-03T08:35:35.773Z</time></trkpt><trkpt lat="39.7464045" lon="8.7509323"><ele>532.6</ele><time>2026-05-03T08:35:36.773Z</time></trkpt><trkpt lat="39.7462902" lon="8.7509059"><ele>531.0</ele><time>2026-05-03T08:35:37.773Z</time></trkpt><trkpt lat="39.7461688" lon="8.7508791"><ele>529.25</ele><time>2026-05-03T08:35:38.773Z</time></trkpt><trkpt lat="39.7460423" lon="8.7508606"><ele>527.5</ele><time>2026-05-03T08:35:39.773Z</time></trkpt><trkpt lat="39.7459192" lon="8.7508563"><ele>525.75</ele><time>2026-05-03T08:35:40.771Z</time></trkpt><trkpt lat="39.7458086" lon="8.7508693"><ele>524.0</ele><time>2026-05-03T08:35:41.773Z</time></trkpt><trkpt lat="39.7457044" lon="8.7509043"><ele>524.0</ele><time>2026-05-03T08:35:42.773Z</time></trkpt><trkpt lat="39.745598" lon="8.7509675"><ele>524.0</ele><time>2026-05-03T08:35:43.773Z</time></trkpt><trkpt lat="39.7454824" lon="8.751051"><ele>524.0</ele><time>2026-05-03T08:35:44.772Z</time></trkpt><trkpt lat="39.745359" lon="8.7511381"><ele>524.0</ele><time>2026-05-03T08:35:45.773Z</time></trkpt><trkpt lat="39.7452374" lon="8.7512184"><ele>522.25</ele><time>2026-05-03T08:35:46.773Z</time></trkpt><trkpt lat="39.7451253" lon="8.7512806"><ele>520.5</ele><time>2026-05-03T08:35:47.772Z</time></trkpt><trkpt lat="39.7450162" lon="8.7513436"><ele>518.75</ele><time>2026-05-03T08:35:48.772Z</time></trkpt><trkpt lat="39.7449057" lon="8.7514099"><ele>517.0</ele><time>2026-05-03T08:35:49.773Z</time></trkpt><trkpt lat="39.7447972" lon="8.7514678"><ele>517.0</ele><time>2026-05-03T08:35:50.772Z</time></trkpt><trkpt lat="39.7446915" lon="8.7515033"><ele>517.0</ele><time>2026-05-03T08:35:51.773Z</time></trkpt><trkpt lat="39.7445822" lon="8.7515303"><ele>517.0</ele><time>2026-05-03T08:35:52.771Z</time></trkpt><trkpt lat="39.7444678" lon="8.7515709"><ele>517.0</ele><time>2026-05-03T08:35:53.772Z</time></trkpt><trkpt lat="39.7443556" lon="8.751627"><ele>516.5</ele><time>2026-05-03T08:35:54.773Z</time></trkpt><trkpt lat="39.7442426" lon="8.7517133"><ele>516.0</ele><time>2026-05-03T08:35:55.773Z</time></trkpt><trkpt lat="39.74413" lon="8.7518191"><ele>515.5</ele><time>2026-05-03T08:35:56.772Z</time></trkpt><trkpt lat="39.744014" lon="8.7519184"><ele>515.0</ele><time>2026-05-03T08:35:57.773Z</time></trkpt><trkpt lat="39.7438861" lon="8.7520067"><ele>514.0</ele><time>2026-05-03T08:35:58.773Z</time></trkpt><trkpt lat="39.743757" lon="8.7520941"><ele>513.0</ele><time>2026-05-03T08:35:59.772Z</time></trkpt><trkpt lat="39.7436429" lon="8.7521711"><ele>512.0</ele><time>2026-05-03T08:36:00.772Z</time></trkpt><trkpt lat="39.7435435" lon="8.7522425"><ele>511.0</ele><time>2026-05-03T08:36:01.773Z</time></trkpt><trkpt lat="39.7434602" lon="8.7523217"><ele>510.20000000000005</ele><time>2026-05-03T08:36:02.772Z</time></trkpt><trkpt lat="39.7433942" lon="8.7523885"><ele>509.40000000000003</ele><time>2026-05-03T08:36:03.772Z</time></trkpt><trkpt lat="39.7433087" lon="8.7524778"><ele>508.6</ele><time>2026-05-03T08:36:05.771Z</time></trkpt><trkpt lat="39.7432355" lon="8.7524753"><ele>507.8</ele><time>2026-05-03T08:36:08.772Z</time></trkpt><trkpt lat="39.743238" lon="8.7523844"><ele>507.0</ele><time>2026-05-03T08:36:10.771Z</time></trkpt><trkpt lat="39.7432768" lon="8.7522169"><ele>507.0</ele><time>2026-05-03T08:36:12.772Z</time></trkpt><trkpt lat="39.7433051" lon="8.7521044"><ele>507.00000000000006</ele><time>2026-05-03T08:36:13.773Z</time></trkpt><trkpt lat="39.7433352" lon="8.7519773"><ele>507.00000000000006</ele><time>2026-05-03T08:36:14.773Z</time></trkpt><trkpt lat="39.743369" lon="8.7518518"><ele>507.0</ele><time>2026-05-03T08:36:15.772Z</time></trkpt><trkpt lat="39.7433975" lon="8.7517451"><ele>507.0</ele><time>2026-05-03T08:36:16.772Z</time></trkpt><trkpt lat="39.7433801" lon="8.7516061"><ele>508.0</ele><time>2026-05-03T08:36:18.773Z</time></trkpt><trkpt lat="39.7432721" lon="8.751518"><ele>509.00000000000006</ele><time>2026-05-03T08:36:20.772Z</time></trkpt><trkpt lat="39.7431782" lon="8.7513987"><ele>510.00000000000006</ele><time>2026-05-03T08:36:22.772Z</time></trkpt><trkpt lat="39.7431369" lon="8.7513059"><ele>511.0</ele><time>2026-05-03T08:36:23.774Z</time></trkpt><trkpt lat="39.7431054" lon="8.7512212"><ele>512.0</ele><time>2026-05-03T08:36:24.772Z</time></trkpt><trkpt lat="39.7431032" lon="8.7511345"><ele>512.8000000000001</ele><time>2026-05-03T08:36:25.773Z</time></trkpt><trkpt lat="39.7431046" lon="8.7510266"><ele>513.6</ele><time>2026-05-03T08:36:26.774Z</time></trkpt><trkpt lat="39.7430889" lon="8.7508902"><ele>514.4000000000001</ele><time>2026-05-03T08:36:27.772Z</time></trkpt><trkpt lat="39.743062" lon="8.750737"><ele>515.2</ele><time>2026-05-03T08:36:28.773Z</time></trkpt><trkpt lat="39.7430356" lon="8.7505638"><ele>516.0</ele><time>2026-05-03T08:36:29.772Z</time></trkpt><trkpt lat="39.7430116" lon="8.7503835"><ele>516.0</ele><time>2026-05-03T08:36:30.772Z</time></trkpt><trkpt lat="39.7429776" lon="8.7502221"><ele>516.0</ele><time>2026-05-03T08:36:31.772Z</time></trkpt><trkpt lat="39.742926" lon="8.7500761"><ele>516.0</ele><time>2026-05-03T08:36:32.773Z</time></trkpt><trkpt lat="39.7428727" lon="8.7499435"><ele>516.0</ele><time>2026-05-03T08:36:33.773Z</time></trkpt><trkpt lat="39.74285" lon="8.7498608"><ele>516.0</ele><time>2026-05-03T08:36:34.772Z</time></trkpt><trkpt lat="39.7428782" lon="8.7497849"><ele>515.5</ele><time>2026-05-03T08:36:40.773Z</time></trkpt><trkpt lat="39.7429137" lon="8.7496994"><ele>515.0</ele><time>2026-05-03T08:36:42.773Z</time></trkpt><trkpt lat="39.7428957" lon="8.7495686"><ele>514.5</ele><time>2026-05-03T08:36:44.773Z</time></trkpt><trkpt lat="39.7428435" lon="8.749509"><ele>514.0</ele><time>2026-05-03T08:36:45.773Z</time></trkpt><trkpt lat="39.7427869" lon="8.7494608"><ele>513.5</ele><time>2026-05-03T08:36:46.771Z</time></trkpt><trkpt lat="39.7427224" lon="8.7494378"><ele>513.0</ele><time>2026-05-03T08:36:47.774Z</time></trkpt><trkpt lat="39.7426443" lon="8.7494354"><ele>512.6</ele><time>2026-05-03T08:36:48.772Z</time></trkpt><trkpt lat="39.7425389" lon="8.7494498"><ele>512.1999999999999</ele><time>2026-05-03T08:36:49.773Z</time></trkpt><trkpt lat="39.7424528" lon="8.749455"><ele>511.8</ele><time>2026-05-03T08:36:50.773Z</time></trkpt><trkpt lat="39.7423885" lon="8.7494447"><ele>511.4</ele><time>2026-05-03T08:36:51.773Z</time></trkpt><trkpt lat="39.7423231" lon="8.7493728"><ele>511.0</ele><time>2026-05-03T08:36:53.773Z</time></trkpt><trkpt lat="39.7422814" lon="8.7492371"><ele>510.0</ele><time>2026-05-03T08:36:55.773Z</time></trkpt><trkpt lat="39.7422313" lon="8.7491841"><ele>509.0</ele><time>2026-05-03T08:36:56.773Z</time></trkpt><trkpt lat="39.7421592" lon="8.7490852"><ele>508.0</ele><time>2026-05-03T08:36:58.773Z</time></trkpt><trkpt lat="39.7421078" lon="8.7489244"><ele>507.0</ele><time>2026-05-03T08:37:00.773Z</time></trkpt><trkpt lat="39.742087" lon="8.7488239"><ele>506.0</ele><time>2026-05-03T08:37:01.771Z</time></trkpt><trkpt lat="39.7420662" lon="8.7487252"><ele>506.0</ele><time>2026-05-03T08:37:02.773Z</time></trkpt><trkpt lat="39.7420818" lon="8.7486389"><ele>506.0</ele><time>2026-05-03T08:37:03.771Z</time></trkpt><trkpt lat="39.7421169" lon="8.748485"><ele>506.0</ele><time>2026-05-03T08:37:05.772Z</time></trkpt><trkpt lat="39.7421251" lon="8.7483303"><ele>506.0</ele><time>2026-05-03T08:37:07.774Z</time></trkpt><trkpt lat="39.7421681" lon="8.7481977"><ele>506.0</ele><time>2026-05-03T08:37:09.773Z</time></trkpt><trkpt lat="39.7422031" lon="8.7481272"><ele>504.4</ele><time>2026-05-03T08:37:10.772Z</time></trkpt><trkpt lat="39.7421966" lon="8.7479985"><ele>502.8</ele><time>2026-05-03T08:37:12.771Z</time></trkpt><trkpt lat="39.7421224" lon="8.7479075"><ele>501.19999999999993</ele><time>2026-05-03T08:37:14.772Z</time></trkpt><trkpt lat="39.74201" lon="8.7478671"><ele>499.59999999999997</ele><time>2026-05-03T08:37:16.774Z</time></trkpt><trkpt lat="39.7419383" lon="8.7478547"><ele>498.0</ele><time>2026-05-03T08:37:17.772Z</time></trkpt><trkpt lat="39.741852" lon="8.7478486"><ele>498.0</ele><time>2026-05-03T08:37:18.773Z</time></trkpt><trkpt lat="39.7417722" lon="8.7478326"><ele>498.0</ele><time>2026-05-03T08:37:19.771Z</time></trkpt><trkpt lat="39.7416977" lon="8.7477864"><ele>498.0</ele><time>2026-05-03T08:37:20.771Z</time></trkpt><trkpt lat="39.7416224" lon="8.7477246"><ele>498.0</ele><time>2026-05-03T08:37:21.771Z</time></trkpt><trkpt lat="39.7415451" lon="8.7476565"><ele>498.0</ele><time>2026-05-03T08:37:22.771Z</time></trkpt><trkpt lat="39.7414647" lon="8.7475773"><ele>498.0</ele><time>2026-05-03T08:37:23.774Z</time></trkpt><trkpt lat="39.7413969" lon="8.7474876"><ele>496.59999999999997</ele><time>2026-05-03T08:37:24.772Z</time></trkpt><trkpt lat="39.7413085" lon="8.7474082"><ele>495.19999999999993</ele><time>2026-05-03T08:37:25.772Z</time></trkpt><trkpt lat="39.7412281" lon="8.7473358"><ele>493.8</ele><time>2026-05-03T08:37:26.773Z</time></trkpt><trkpt lat="39.7411583" lon="8.7472623"><ele>492.4</ele><time>2026-05-03T08:37:27.774Z</time></trkpt><trkpt lat="39.7410943" lon="8.747183"><ele>491.0</ele><time>2026-05-03T08:37:28.772Z</time></trkpt><trkpt lat="39.7410326" lon="8.7470862"><ele>491.0</ele><time>2026-05-03T08:37:29.773Z</time></trkpt><trkpt lat="39.7409749" lon="8.7469982"><ele>491.0</ele><time>2026-05-03T08:37:30.773Z</time></trkpt><trkpt lat="39.7409168" lon="8.746924"><ele>491.0</ele><time>2026-05-03T08:37:31.772Z</time></trkpt><trkpt lat="39.7408272" lon="8.7468551"><ele>491.0</ele><time>2026-05-03T08:37:32.772Z</time></trkpt><trkpt lat="39.7407394" lon="8.7467882"><ele>491.0</ele><time>2026-05-03T08:37:33.772Z</time></trkpt><trkpt lat="39.740667" lon="8.7467405"><ele>489.6</ele><time>2026-05-03T08:37:34.772Z</time></trkpt><trkpt lat="39.7405726" lon="8.7466823"><ele>488.20000000000005</ele><time>2026-05-03T08:37:35.771Z</time></trkpt><trkpt lat="39.7404795" lon="8.7466327"><ele>486.79999999999995</ele><time>2026-05-03T08:37:36.773Z</time></trkpt><trkpt lat="39.7403754" lon="8.7465882"><ele>485.4</ele><time>2026-05-03T08:37:37.773Z</time></trkpt><trkpt lat="39.7402817" lon="8.7465294"><ele>484.0</ele><time>2026-05-03T08:37:38.772Z</time></trkpt><trkpt lat="39.740185" lon="8.7464684"><ele>483.2</ele><time>2026-05-03T08:37:39.772Z</time></trkpt><trkpt lat="39.7400871" lon="8.7464152"><ele>482.4</ele><time>2026-05-03T08:37:40.772Z</time></trkpt><trkpt lat="39.7399918" lon="8.7463747"><ele>481.6</ele><time>2026-05-03T08:37:41.773Z</time></trkpt><trkpt lat="39.7399037" lon="8.7463461"><ele>480.8</ele><time>2026-05-03T08:37:42.772Z</time></trkpt><trkpt lat="39.7398113" lon="8.746303"><ele>480.0</ele><time>2026-05-03T08:37:43.772Z</time></trkpt><trkpt lat="39.7397268" lon="8.7462395"><ele>480.0</ele><time>2026-05-03T08:37:44.772Z</time></trkpt><trkpt lat="39.7396354" lon="8.746169"><ele>480.0</ele><time>2026-05-03T08:37:45.771Z</time></trkpt><trkpt lat="39.7395454" lon="8.7461062"><ele>480.0</ele><time>2026-05-03T08:37:46.773Z</time></trkpt><trkpt lat="39.7394565" lon="8.7460468"><ele>480.0</ele><time>2026-05-03T08:37:47.772Z</time></trkpt><trkpt lat="39.7393678" lon="8.7460041"><ele>480.0</ele><time>2026-05-03T08:37:48.773Z</time></trkpt><trkpt lat="39.7392792" lon="8.7459989"><ele>478.6</ele><time>2026-05-03T08:37:49.775Z</time></trkpt><trkpt lat="39.7391878" lon="8.7459979"><ele>477.2</ele><time>2026-05-03T08:37:50.773Z</time></trkpt><trkpt lat="39.7390928" lon="8.7459935"><ele>475.79999999999995</ele><time>2026-05-03T08:37:51.773Z</time></trkpt><trkpt lat="39.7389947" lon="8.7460072"><ele>474.4</ele><time>2026-05-03T08:37:52.772Z</time></trkpt><trkpt lat="39.738893" lon="8.7460651"><ele>473.0</ele><time>2026-05-03T08:37:53.772Z</time></trkpt><trkpt lat="39.7387977" lon="8.7461105"><ele>472.99999999999994</ele><time>2026-05-03T08:37:54.773Z</time></trkpt><trkpt lat="39.7387071" lon="8.7461355"><ele>473.0</ele><time>2026-05-03T08:37:55.772Z</time></trkpt><trkpt lat="39.7386263" lon="8.7461574"><ele>473.0</ele><time>2026-05-03T08:37:56.771Z</time></trkpt><trkpt lat="39.7385518" lon="8.7461456"><ele>473.0</ele><time>2026-05-03T08:37:57.773Z</time></trkpt><trkpt lat="39.7384846" lon="8.746104"><ele>472.99999999999994</ele><time>2026-05-03T08:37:58.773Z</time></trkpt><trkpt lat="39.7384143" lon="8.7460457"><ele>473.0</ele><time>2026-05-03T08:37:59.772Z</time></trkpt><trkpt lat="39.7383517" lon="8.7459745"><ele>473.2</ele><time>2026-05-03T08:38:00.772Z</time></trkpt><trkpt lat="39.7382734" lon="8.7459065"><ele>473.4</ele><time>2026-05-03T08:38:01.772Z</time></trkpt><trkpt lat="39.7381792" lon="8.7458786"><ele>473.59999999999997</ele><time>2026-05-03T08:38:02.772Z</time></trkpt><trkpt lat="39.7380846" lon="8.7458454"><ele>473.79999999999995</ele><time>2026-05-03T08:38:03.772Z</time></trkpt><trkpt lat="39.7379824" lon="8.7458314"><ele>474.0</ele><time>2026-05-03T08:38:04.772Z</time></trkpt><trkpt lat="39.7378815" lon="8.7457977"><ele>474.0</ele><time>2026-05-03T08:38:05.771Z</time></trkpt><trkpt lat="39.7377972" lon="8.7457426"><ele>474.0</ele><time>2026-05-03T08:38:06.771Z</time></trkpt><trkpt lat="39.7377156" lon="8.7456902"><ele>474.0</ele><time>2026-05-03T08:38:07.773Z</time></trkpt><trkpt lat="39.7376429" lon="8.7456396"><ele>474.0</ele><time>2026-05-03T08:38:08.772Z</time></trkpt><trkpt lat="39.7375648" lon="8.7455785"><ele>474.0</ele><time>2026-05-03T08:38:09.772Z</time></trkpt><trkpt lat="39.7375029" lon="8.7455281"><ele>474.0</ele><time>2026-05-03T08:38:10.772Z</time></trkpt><trkpt lat="39.7374364" lon="8.7454725"><ele>473.4</ele><time>2026-05-03T08:38:11.773Z</time></trkpt><trkpt lat="39.7373803" lon="8.7453291"><ele>472.79999999999995</ele><time>2026-05-03T08:38:13.772Z</time></trkpt><trkpt lat="39.7373571" lon="8.7451501"><ele>472.20000000000005</ele><time>2026-05-03T08:38:15.771Z</time></trkpt><trkpt lat="39.7373525" lon="8.7450477"><ele>471.6</ele><time>2026-05-03T08:38:16.772Z</time></trkpt><trkpt lat="39.7373506" lon="8.7449383"><ele>471.0</ele><time>2026-05-03T08:38:17.777Z</time></trkpt><trkpt lat="39.7373514" lon="8.744843"><ele>472.8333333333333</ele><time>2026-05-03T08:38:18.774Z</time></trkpt><trkpt lat="39.7373269" lon="8.7447622"><ele>474.66666666666663</ele><time>2026-05-03T08:38:19.772Z</time></trkpt><trkpt lat="39.7372905" lon="8.7446835"><ele>476.5</ele><time>2026-05-03T08:38:20.772Z</time></trkpt><trkpt lat="39.7372456" lon="8.744596"><ele>478.3333333333333</ele><time>2026-05-03T08:38:21.772Z</time></trkpt><trkpt lat="39.7372182" lon="8.7444973"><ele>480.16666666666663</ele><time>2026-05-03T08:38:22.772Z</time></trkpt><trkpt lat="39.7371979" lon="8.7443831"><ele>482.0</ele><time>2026-05-03T08:38:23.773Z</time></trkpt><trkpt lat="39.7371922" lon="8.7442533"><ele>482.16666666666663</ele><time>2026-05-03T08:38:24.771Z</time></trkpt><trkpt lat="39.737193" lon="8.744138"><ele>482.3333333333333</ele><time>2026-05-03T08:38:25.773Z</time></trkpt><trkpt lat="39.7371988" lon="8.7440232"><ele>482.5</ele><time>2026-05-03T08:38:26.773Z</time></trkpt><trkpt lat="39.7371746" lon="8.7439397"><ele>482.66666666666663</ele><time>2026-05-03T08:38:27.772Z</time></trkpt><trkpt lat="39.7371425" lon="8.7438642"><ele>482.8333333333333</ele><time>2026-05-03T08:38:28.772Z</time></trkpt><trkpt lat="39.7370317" lon="8.7437826"><ele>483.0</ele><time>2026-05-03T08:38:30.772Z</time></trkpt><trkpt lat="39.7369564" lon="8.7437849"><ele>482.0</ele><time>2026-05-03T08:38:31.771Z</time></trkpt><trkpt lat="39.7368758" lon="8.7437923"><ele>480.99999999999994</ele><time>2026-05-03T08:38:32.773Z</time></trkpt><trkpt lat="39.7367613" lon="8.7437473"><ele>479.99999999999994</ele><time>2026-05-03T08:38:34.771Z</time></trkpt><trkpt lat="39.7367147" lon="8.7436104"><ele>479.0</ele><time>2026-05-03T08:38:36.774Z</time></trkpt><trkpt lat="39.7366714" lon="8.7434875"><ele>478.0</ele><time>2026-05-03T08:38:38.772Z</time></trkpt><trkpt lat="39.7365762" lon="8.7434191"><ele>477.4</ele><time>2026-05-03T08:38:40.771Z</time></trkpt><trkpt lat="39.7365058" lon="8.7433932"><ele>476.79999999999995</ele><time>2026-05-03T08:38:41.771Z</time></trkpt><trkpt lat="39.7363925" lon="8.7434014"><ele>476.2</ele><time>2026-05-03T08:38:42.771Z</time></trkpt><trkpt lat="39.7363075" lon="8.7434116"><ele>475.6</ele><time>2026-05-03T08:38:43.772Z</time></trkpt><trkpt lat="39.7362313" lon="8.743426"><ele>475.0</ele><time>2026-05-03T08:38:44.772Z</time></trkpt><trkpt lat="39.7361044" lon="8.7433873"><ele>474.00000000000006</ele><time>2026-05-03T08:38:46.773Z</time></trkpt><trkpt lat="39.7360317" lon="8.7433405"><ele>473.0</ele><time>2026-05-03T08:38:47.772Z</time></trkpt><trkpt lat="39.7359521" lon="8.7432799"><ele>472.0</ele><time>2026-05-03T08:38:48.771Z</time></trkpt><trkpt lat="39.7358699" lon="8.7432451"><ele>471.0</ele><time>2026-05-03T08:38:49.772Z</time></trkpt><trkpt lat="39.7357901" lon="8.743218"><ele>470.00000000000006</ele><time>2026-05-03T08:38:50.772Z</time></trkpt><trkpt lat="39.7357199" lon="8.7432175"><ele>469.0</ele><time>2026-05-03T08:38:51.773Z</time></trkpt><trkpt lat="39.7356526" lon="8.743208"><ele>469.0</ele><time>2026-05-03T08:38:52.773Z</time></trkpt><trkpt lat="39.7355885" lon="8.7431908"><ele>469.0</ele><time>2026-05-03T08:38:53.771Z</time></trkpt><trkpt lat="39.7354674" lon="8.7431404"><ele>469.0</ele><time>2026-05-03T08:38:55.773Z</time></trkpt><trkpt lat="39.7353332" lon="8.7431847"><ele>469.0</ele><time>2026-05-03T08:38:57.772Z</time></trkpt><trkpt lat="39.7352588" lon="8.7432099"><ele>469.0</ele><time>2026-05-03T08:38:58.771Z</time></trkpt><trkpt lat="39.735191" lon="8.7432223"><ele>468.50000000000006</ele><time>2026-05-03T08:38:59.772Z</time></trkpt><trkpt lat="39.7351129" lon="8.7431824"><ele>468.0</ele><time>2026-05-03T08:39:00.772Z</time></trkpt><trkpt lat="39.7350588" lon="8.7431403"><ele>467.5</ele><time>2026-05-03T08:39:01.773Z</time></trkpt><trkpt lat="39.7349968" lon="8.7430654"><ele>467.0</ele><time>2026-05-03T08:39:02.772Z</time></trkpt><trkpt lat="39.7349435" lon="8.7429838"><ele>466.50000000000006</ele><time>2026-05-03T08:39:03.771Z</time></trkpt><trkpt lat="39.7348717" lon="8.7429178"><ele>466.0</ele><time>2026-05-03T08:39:04.772Z</time></trkpt><trkpt lat="39.7347979" lon="8.7428682"><ele>466.0</ele><time>2026-05-03T08:39:05.773Z</time></trkpt><trkpt lat="39.7347177" lon="8.7428303"><ele>466.0</ele><time>2026-05-03T08:39:06.772Z</time></trkpt><trkpt lat="39.7346276" lon="8.7428009"><ele>466.0</ele><time>2026-05-03T08:39:07.773Z</time></trkpt><trkpt lat="39.7345428" lon="8.7427706"><ele>466.0</ele><time>2026-05-03T08:39:08.772Z</time></trkpt><trkpt lat="39.7344805" lon="8.7427528"><ele>466.0</ele><time>2026-05-03T08:39:09.773Z</time></trkpt><trkpt lat="39.7344009" lon="8.742619"><ele>463.83333333333337</ele><time>2026-05-03T08:39:11.773Z</time></trkpt><trkpt lat="39.7343601" lon="8.742502"><ele>461.6666666666667</ele><time>2026-05-03T08:39:12.772Z</time></trkpt><trkpt lat="39.73433" lon="8.7423887"><ele>459.5</ele><time>2026-05-03T08:39:13.772Z</time></trkpt><trkpt lat="39.7343145" lon="8.7422712"><ele>457.33333333333337</ele><time>2026-05-03T08:39:14.774Z</time></trkpt><trkpt lat="39.7342845" lon="8.7421689"><ele>455.1666666666667</ele><time>2026-05-03T08:39:15.773Z</time></trkpt><trkpt lat="39.7342525" lon="8.7420749"><ele>453.0</ele><time>2026-05-03T08:39:16.772Z</time></trkpt><trkpt lat="39.7342194" lon="8.7419857"><ele>453.0</ele><time>2026-05-03T08:39:17.774Z</time></trkpt><trkpt lat="39.7341739" lon="8.7418885"><ele>453.0</ele><time>2026-05-03T08:39:18.771Z</time></trkpt><trkpt lat="39.7341158" lon="8.741804"><ele>453.0</ele><time>2026-05-03T08:39:19.773Z</time></trkpt><trkpt lat="39.7340474" lon="8.7417312"><ele>453.0</ele><time>2026-05-03T08:39:20.772Z</time></trkpt><trkpt lat="39.733978" lon="8.7416632"><ele>453.0</ele><time>2026-05-03T08:39:21.771Z</time></trkpt><trkpt lat="39.7339153" lon="8.7416001"><ele>453.0</ele><time>2026-05-03T08:39:22.772Z</time></trkpt><trkpt lat="39.7338527" lon="8.7415522"><ele>451.4</ele><time>2026-05-03T08:39:23.773Z</time></trkpt><trkpt lat="39.7337509" lon="8.7415097"><ele>449.79999999999995</ele><time>2026-05-03T08:39:25.772Z</time></trkpt><trkpt lat="39.7336352" lon="8.7415146"><ele>448.2</ele><time>2026-05-03T08:39:27.772Z</time></trkpt><trkpt lat="39.733563" lon="8.741518"><ele>446.6</ele><time>2026-05-03T08:39:28.773Z</time></trkpt><trkpt lat="39.7334742" lon="8.741486"><ele>445.0</ele><time>2026-05-03T08:39:29.772Z</time></trkpt><trkpt lat="39.7333966" lon="8.7414544"><ele>443.6666666666667</ele><time>2026-05-03T08:39:30.772Z</time></trkpt><trkpt lat="39.7333195" lon="8.7413981"><ele>442.33333333333337</ele><time>2026-05-03T08:39:31.774Z</time></trkpt><trkpt lat="39.7332388" lon="8.7413464"><ele>441.0</ele><time>2026-05-03T08:39:32.772Z</time></trkpt><trkpt lat="39.7331634" lon="8.7412957"><ele>439.66666666666663</ele><time>2026-05-03T08:39:33.771Z</time></trkpt><trkpt lat="39.7330814" lon="8.7412442"><ele>438.3333333333333</ele><time>2026-05-03T08:39:34.772Z</time></trkpt><trkpt lat="39.7330004" lon="8.741195"><ele>437.0</ele><time>2026-05-03T08:39:35.772Z</time></trkpt><trkpt lat="39.73291" lon="8.7411449"><ele>437.0</ele><time>2026-05-03T08:39:36.773Z</time></trkpt><trkpt lat="39.732812" lon="8.7410861"><ele>437.00000000000006</ele><time>2026-05-03T08:39:37.773Z</time></trkpt><trkpt lat="39.7327105" lon="8.7410316"><ele>437.00000000000006</ele><time>2026-05-03T08:39:38.773Z</time></trkpt><trkpt lat="39.7326074" lon="8.740975"><ele>437.0</ele><time>2026-05-03T08:39:39.772Z</time></trkpt><trkpt lat="39.7325064" lon="8.7409287"><ele>437.0</ele><time>2026-05-03T08:39:40.772Z</time></trkpt><trkpt lat="39.7324096" lon="8.7408905"><ele>433.8</ele><time>2026-05-03T08:39:41.772Z</time></trkpt><trkpt lat="39.7323013" lon="8.7408574"><ele>430.6</ele><time>2026-05-03T08:39:42.771Z</time></trkpt><trkpt lat="39.732199" lon="8.7408156"><ele>427.40000000000003</ele><time>2026-05-03T08:39:43.773Z</time></trkpt><trkpt lat="39.7320942" lon="8.7407664"><ele>424.20000000000005</ele><time>2026-05-03T08:39:44.772Z</time></trkpt><trkpt lat="39.7319903" lon="8.7407252"><ele>421.0</ele><time>2026-05-03T08:39:45.772Z</time></trkpt><trkpt lat="39.7318822" lon="8.7406938"><ele>419.6</ele><time>2026-05-03T08:39:46.772Z</time></trkpt><trkpt lat="39.73177" lon="8.7406536"><ele>418.20000000000005</ele><time>2026-05-03T08:39:47.773Z</time></trkpt><trkpt lat="39.731672" lon="8.7406236"><ele>416.79999999999995</ele><time>2026-05-03T08:39:48.772Z</time></trkpt><trkpt lat="39.7315802" lon="8.7405945"><ele>415.4</ele><time>2026-05-03T08:39:49.772Z</time></trkpt><trkpt lat="39.7314825" lon="8.7405659"><ele>414.0</ele><time>2026-05-03T08:39:50.773Z</time></trkpt><trkpt lat="39.7313693" lon="8.7405405"><ele>414.0</ele><time>2026-05-03T08:39:51.773Z</time></trkpt><trkpt lat="39.7312711" lon="8.7405114"><ele>414.0</ele><time>2026-05-03T08:39:52.772Z</time></trkpt><trkpt lat="39.7311837" lon="8.7404766"><ele>414.0</ele><time>2026-05-03T08:39:53.772Z</time></trkpt><trkpt lat="39.7311114" lon="8.740432"><ele>414.0</ele><time>2026-05-03T08:39:54.773Z</time></trkpt><trkpt lat="39.7310256" lon="8.7403985"><ele>414.0</ele><time>2026-05-03T08:39:55.773Z</time></trkpt><trkpt lat="39.7309214" lon="8.7403764"><ele>413.75</ele><time>2026-05-03T08:39:56.772Z</time></trkpt><trkpt lat="39.7307938" lon="8.7403628"><ele>413.5</ele><time>2026-05-03T08:39:57.772Z</time></trkpt><trkpt lat="39.7306533" lon="8.7403385"><ele>413.25</ele><time>2026-05-03T08:39:58.771Z</time></trkpt><trkpt lat="39.7305292" lon="8.7403269"><ele>413.0</ele><time>2026-05-03T08:39:59.773Z</time></trkpt><trkpt lat="39.7304083" lon="8.7403271"><ele>413.0</ele><time>2026-05-03T08:40:00.772Z</time></trkpt><trkpt lat="39.7302985" lon="8.7403327"><ele>413.0</ele><time>2026-05-03T08:40:01.773Z</time></trkpt><trkpt lat="39.7301972" lon="8.7403206"><ele>413.0</ele><time>2026-05-03T08:40:02.773Z</time></trkpt><trkpt lat="39.7301167" lon="8.7402969"><ele>413.0</ele><time>2026-05-03T08:40:03.772Z</time></trkpt><trkpt lat="39.7300379" lon="8.7402527"><ele>413.0</ele><time>2026-05-03T08:40:04.773Z</time></trkpt><trkpt lat="39.7299484" lon="8.7401982"><ele>411.99999999999994</ele><time>2026-05-03T08:40:05.772Z</time></trkpt><trkpt lat="39.729864" lon="8.7401428"><ele>411.0</ele><time>2026-05-03T08:40:06.772Z</time></trkpt><trkpt lat="39.7297934" lon="8.7401198"><ele>410.0</ele><time>2026-05-03T08:40:07.772Z</time></trkpt><trkpt lat="39.7297132" lon="8.7401112"><ele>409.0</ele><time>2026-05-03T08:40:08.772Z</time></trkpt><trkpt lat="39.7296208" lon="8.7401318"><ele>407.99999999999994</ele><time>2026-05-03T08:40:09.773Z</time></trkpt><trkpt lat="39.7295207" lon="8.7401823"><ele>407.0</ele><time>2026-05-03T08:40:10.773Z</time></trkpt><trkpt lat="39.7294175" lon="8.7402361"><ele>406.0</ele><time>2026-05-03T08:40:11.773Z</time></trkpt><trkpt lat="39.729299" lon="8.7402953"><ele>405.0</ele><time>2026-05-03T08:40:12.771Z</time></trkpt><trkpt lat="39.7291837" lon="8.740354"><ele>404.0</ele><time>2026-05-03T08:40:13.773Z</time></trkpt><trkpt lat="39.7290596" lon="8.7404244"><ele>403.0</ele><time>2026-05-03T08:40:14.772Z</time></trkpt><trkpt lat="39.7289445" lon="8.7404808"><ele>403.00000000000006</ele><time>2026-05-03T08:40:15.772Z</time></trkpt><trkpt lat="39.7288457" lon="8.7405264"><ele>403.0</ele><time>2026-05-03T08:40:16.775Z</time></trkpt><trkpt lat="39.7287822" lon="8.7405581"><ele>403.0</ele><time>2026-05-03T08:40:17.772Z</time></trkpt><trkpt lat="39.728715" lon="8.7405588"><ele>403.0</ele><time>2026-05-03T08:40:18.772Z</time></trkpt><trkpt lat="39.7286241" lon="8.7405402"><ele>403.00000000000006</ele><time>2026-05-03T08:40:19.772Z</time></trkpt><trkpt lat="39.7285309" lon="8.7405349"><ele>403.0</ele><time>2026-05-03T08:40:20.772Z</time></trkpt><trkpt lat="39.7284404" lon="8.7405368"><ele>402.4</ele><time>2026-05-03T08:40:21.772Z</time></trkpt><trkpt lat="39.7283517" lon="8.7405515"><ele>401.79999999999995</ele><time>2026-05-03T08:40:22.772Z</time></trkpt><trkpt lat="39.7282661" lon="8.7405903"><ele>401.2</ele><time>2026-05-03T08:40:23.772Z</time></trkpt><trkpt lat="39.728182" lon="8.7406419"><ele>400.6</ele><time>2026-05-03T08:40:24.771Z</time></trkpt><trkpt lat="39.7280826" lon="8.7407201"><ele>400.0</ele><time>2026-05-03T08:40:25.772Z</time></trkpt><trkpt lat="39.727969" lon="8.7407894"><ele>400.0</ele><time>2026-05-03T08:40:26.772Z</time></trkpt><trkpt lat="39.7278431" lon="8.7408561"><ele>400.0</ele><time>2026-05-03T08:40:27.772Z</time></trkpt><trkpt lat="39.7277179" lon="8.7409249"><ele>400.0</ele><time>2026-05-03T08:40:28.772Z</time></trkpt><trkpt lat="39.7276083" lon="8.7409905"><ele>400.0</ele><time>2026-05-03T08:40:29.774Z</time></trkpt><trkpt lat="39.7275041" lon="8.7410551"><ele>400.5</ele><time>2026-05-03T08:40:30.773Z</time></trkpt><trkpt lat="39.7273898" lon="8.741133"><ele>401.0</ele><time>2026-05-03T08:40:31.772Z</time></trkpt><trkpt lat="39.7272767" lon="8.7412181"><ele>401.5</ele><time>2026-05-03T08:40:32.773Z</time></trkpt><trkpt lat="39.7271704" lon="8.7413145"><ele>402.0</ele><time>2026-05-03T08:40:33.773Z</time></trkpt><trkpt lat="39.7270728" lon="8.7414079"><ele>402.0</ele><time>2026-05-03T08:40:34.772Z</time></trkpt><trkpt lat="39.7269757" lon="8.7414968"><ele>402.0</ele><time>2026-05-03T08:40:35.773Z</time></trkpt><trkpt lat="39.7268603" lon="8.741587"><ele>402.0</ele><time>2026-05-03T08:40:36.771Z</time></trkpt><trkpt lat="39.7267365" lon="8.7416693"><ele>402.0</ele><time>2026-05-03T08:40:37.773Z</time></trkpt><trkpt lat="39.7266064" lon="8.7417479"><ele>402.0</ele><time>2026-05-03T08:40:38.772Z</time></trkpt><trkpt lat="39.7264792" lon="8.7418127"><ele>402.0</ele><time>2026-05-03T08:40:39.773Z</time></trkpt><trkpt lat="39.7263507" lon="8.7418725"><ele>402.0</ele><time>2026-05-03T08:40:40.772Z</time></trkpt><trkpt lat="39.7262271" lon="8.7419362"><ele>402.0</ele><time>2026-05-03T08:40:41.773Z</time></trkpt><trkpt lat="39.7261027" lon="8.741999"><ele>400.75</ele><time>2026-05-03T08:40:42.771Z</time></trkpt><trkpt lat="39.7259705" lon="8.7420668"><ele>399.5</ele><time>2026-05-03T08:40:43.772Z</time></trkpt><trkpt lat="39.725841" lon="8.7421347"><ele>398.25</ele><time>2026-05-03T08:40:44.772Z</time></trkpt><trkpt lat="39.7257103" lon="8.7422112"><ele>397.0</ele><time>2026-05-03T08:40:45.772Z</time></trkpt><trkpt lat="39.7255832" lon="8.7422753"><ele>397.0</ele><time>2026-05-03T08:40:46.772Z</time></trkpt><trkpt lat="39.7254442" lon="8.7423515"><ele>397.0</ele><time>2026-05-03T08:40:47.771Z</time></trkpt><trkpt lat="39.7253013" lon="8.742434"><ele>397.0</ele><time>2026-05-03T08:40:48.771Z</time></trkpt><trkpt lat="39.7251592" lon="8.7425096"><ele>396.25</ele><time>2026-05-03T08:40:49.772Z</time></trkpt><trkpt lat="39.72502" lon="8.7425824"><ele>395.5</ele><time>2026-05-03T08:40:50.772Z</time></trkpt><trkpt lat="39.7248975" lon="8.7426572"><ele>394.75</ele><time>2026-05-03T08:40:51.772Z</time></trkpt><trkpt lat="39.7247684" lon="8.7427233"><ele>394.0</ele><time>2026-05-03T08:40:52.773Z</time></trkpt><trkpt lat="39.7246359" lon="8.7427968"><ele>394.0</ele><time>2026-05-03T08:40:53.772Z</time></trkpt><trkpt lat="39.7245118" lon="8.7428672"><ele>394.0</ele><time>2026-05-03T08:40:54.771Z</time></trkpt><trkpt lat="39.7243902" lon="8.7429359"><ele>394.0</ele><time>2026-05-03T08:40:55.773Z</time></trkpt><trkpt lat="39.7242954" lon="8.742997"><ele>394.0</ele><time>2026-05-03T08:40:56.771Z</time></trkpt><trkpt lat="39.7242117" lon="8.743062"><ele>393.0</ele><time>2026-05-03T08:40:57.772Z</time></trkpt><trkpt lat="39.7241395" lon="8.7431392"><ele>392.0</ele><time>2026-05-03T08:40:58.772Z</time></trkpt><trkpt lat="39.7240689" lon="8.7432219"><ele>391.0</ele><time>2026-05-03T08:40:59.773Z</time></trkpt><trkpt lat="39.7240056" lon="8.7433094"><ele>390.0</ele><time>2026-05-03T08:41:00.772Z</time></trkpt><trkpt lat="39.7239548" lon="8.7434189"><ele>389.0</ele><time>2026-05-03T08:41:01.772Z</time></trkpt><trkpt lat="39.7239211" lon="8.7435582"><ele>388.79999999999995</ele><time>2026-05-03T08:41:02.771Z</time></trkpt><trkpt lat="39.7239005" lon="8.7436972"><ele>388.59999999999997</ele><time>2026-05-03T08:41:03.773Z</time></trkpt><trkpt lat="39.7238768" lon="8.743829"><ele>388.4</ele><time>2026-05-03T08:41:04.772Z</time></trkpt><trkpt lat="39.7238374" lon="8.7439382"><ele>388.2</ele><time>2026-05-03T08:41:05.773Z</time></trkpt><trkpt lat="39.7237857" lon="8.7440184"><ele>388.0</ele><time>2026-05-03T08:41:06.773Z</time></trkpt><trkpt lat="39.7237075" lon="8.7440809"><ele>388.0</ele><time>2026-05-03T08:41:07.771Z</time></trkpt><trkpt lat="39.7236104" lon="8.7441153"><ele>388.0</ele><time>2026-05-03T08:41:08.772Z</time></trkpt><trkpt lat="39.7235155" lon="8.7441498"><ele>388.0</ele><time>2026-05-03T08:41:09.773Z</time></trkpt><trkpt lat="39.7234382" lon="8.7442016"><ele>388.0</ele><time>2026-05-03T08:41:10.772Z</time></trkpt><trkpt lat="39.7233782" lon="8.7442794"><ele>388.0</ele><time>2026-05-03T08:41:11.772Z</time></trkpt><trkpt lat="39.7233228" lon="8.7444014"><ele>384.5</ele><time>2026-05-03T08:41:12.773Z</time></trkpt><trkpt lat="39.7232734" lon="8.7445523"><ele>381.0</ele><time>2026-05-03T08:41:13.771Z</time></trkpt><trkpt lat="39.7232263" lon="8.7447082"><ele>377.5</ele><time>2026-05-03T08:41:14.772Z</time></trkpt><trkpt lat="39.723167" lon="8.7448528"><ele>374.0</ele><time>2026-05-03T08:41:15.772Z</time></trkpt><trkpt lat="39.7230908" lon="8.745012"><ele>374.0</ele><time>2026-05-03T08:41:16.773Z</time></trkpt><trkpt lat="39.7230116" lon="8.745175"><ele>374.0</ele><time>2026-05-03T08:41:17.773Z</time></trkpt><trkpt lat="39.7229349" lon="8.7453311"><ele>374.0</ele><time>2026-05-03T08:41:18.773Z</time></trkpt><trkpt lat="39.7228706" lon="8.7454836"><ele>374.0</ele><time>2026-05-03T08:41:19.772Z</time></trkpt><trkpt lat="39.7228214" lon="8.7456208"><ele>374.6</ele><time>2026-05-03T08:41:20.772Z</time></trkpt><trkpt lat="39.7227848" lon="8.7457249"><ele>375.2</ele><time>2026-05-03T08:41:21.773Z</time></trkpt><trkpt lat="39.7227503" lon="8.7458009"><ele>375.8</ele><time>2026-05-03T08:41:22.773Z</time></trkpt><trkpt lat="39.7226802" lon="8.7458308"><ele>376.40000000000003</ele><time>2026-05-03T08:41:24.771Z</time></trkpt><trkpt lat="39.7226709" lon="8.7456544"><ele>377.0</ele><time>2026-05-03T08:41:26.772Z</time></trkpt><trkpt lat="39.7226721" lon="8.745504"><ele>372.20000000000005</ele><time>2026-05-03T08:41:27.771Z</time></trkpt><trkpt lat="39.7226581" lon="8.7453306"><ele>367.4</ele><time>2026-05-03T08:41:28.773Z</time></trkpt><trkpt lat="39.7226412" lon="8.7451685"><ele>362.6</ele><time>2026-05-03T08:41:29.771Z</time></trkpt><trkpt lat="39.7226283" lon="8.7450362"><ele>357.79999999999995</ele><time>2026-05-03T08:41:30.772Z</time></trkpt><trkpt lat="39.7226037" lon="8.744943"><ele>353.0</ele><time>2026-05-03T08:41:31.772Z</time></trkpt><trkpt lat="39.7225081" lon="8.7448691"><ele>353.0</ele><time>2026-05-03T08:41:33.772Z</time></trkpt><trkpt lat="39.7224439" lon="8.7449402"><ele>353.0</ele><time>2026-05-03T08:41:34.772Z</time></trkpt><trkpt lat="39.722398" lon="8.7450371"><ele>353.0</ele><time>2026-05-03T08:41:35.771Z</time></trkpt><trkpt lat="39.7223585" lon="8.7451459"><ele>353.0</ele><time>2026-05-03T08:41:36.773Z</time></trkpt><trkpt lat="39.7223632" lon="8.7453259"><ele>353.0</ele><time>2026-05-03T08:41:37.771Z</time></trkpt><trkpt lat="39.722352" lon="8.7455107"><ele>351.25</ele><time>2026-05-03T08:41:38.772Z</time></trkpt><trkpt lat="39.7223379" lon="8.7456906"><ele>349.5</ele><time>2026-05-03T08:41:39.773Z</time></trkpt><trkpt lat="39.7223316" lon="8.7458596"><ele>347.75</ele><time>2026-05-03T08:41:40.773Z</time></trkpt><trkpt lat="39.7223258" lon="8.7459981"><ele>346.0</ele><time>2026-05-03T08:41:41.772Z</time></trkpt><trkpt lat="39.7223139" lon="8.7461005"><ele>346.0</ele><time>2026-05-03T08:41:42.772Z</time></trkpt><trkpt lat="39.722251" lon="8.7461841"><ele>346.0</ele><time>2026-05-03T08:41:44.773Z</time></trkpt><trkpt lat="39.7222109" lon="8.7460965"><ele>346.0</ele><time>2026-05-03T08:41:46.773Z</time></trkpt><trkpt lat="39.7222118" lon="8.74597"><ele>346.0</ele><time>2026-05-03T08:41:47.772Z</time></trkpt><trkpt lat="39.7222173" lon="8.7458182"><ele>346.0</ele><time>2026-05-03T08:41:48.772Z</time></trkpt><trkpt lat="39.7222129" lon="8.7456931"><ele>346.0</ele><time>2026-05-03T08:41:49.772Z</time></trkpt><trkpt lat="39.7221941" lon="8.7456075"><ele>346.0</ele><time>2026-05-03T08:41:50.771Z</time></trkpt><trkpt lat="39.7221107" lon="8.7455778"><ele>346.0</ele><time>2026-05-03T08:41:52.772Z</time></trkpt><trkpt lat="39.722086" lon="8.7457029"><ele>346.0</ele><time>2026-05-03T08:41:54.772Z</time></trkpt><trkpt lat="39.7220959" lon="8.7458253"><ele>346.0</ele><time>2026-05-03T08:41:55.772Z</time></trkpt><trkpt lat="39.7220963" lon="8.7459544"><ele>346.0</ele><time>2026-05-03T08:41:56.771Z</time></trkpt><trkpt lat="39.7220881" lon="8.7460591"><ele>346.0</ele><time>2026-05-03T08:41:57.773Z</time></trkpt><trkpt lat="39.7220374" lon="8.7461821"><ele>346.0</ele><time>2026-05-03T08:41:59.772Z</time></trkpt><trkpt lat="39.7219635" lon="8.7460764"><ele>346.0</ele><time>2026-05-03T08:42:01.772Z</time></trkpt><trkpt lat="39.72195" lon="8.7459681"><ele>346.0</ele><time>2026-05-03T08:42:02.773Z</time></trkpt><trkpt lat="39.7219359" lon="8.745868"><ele>346.0</ele><time>2026-05-03T08:42:03.772Z</time></trkpt><trkpt lat="39.721865" lon="8.745778"><ele>339.40000000000003</ele><time>2026-05-03T08:42:05.772Z</time></trkpt><trkpt lat="39.7218016" lon="8.7458663"><ele>332.8</ele><time>2026-05-03T08:42:07.772Z</time></trkpt><trkpt lat="39.7218065" lon="8.7459902"><ele>326.20000000000005</ele><time>2026-05-03T08:42:08.772Z</time></trkpt><trkpt lat="39.7217916" lon="8.7460757"><ele>319.6</ele><time>2026-05-03T08:42:09.773Z</time></trkpt><trkpt lat="39.7217225" lon="8.7461371"><ele>313.0</ele><time>2026-05-03T08:42:11.773Z</time></trkpt><trkpt lat="39.7216668" lon="8.7460131"><ele>313.0</ele><time>2026-05-03T08:42:13.773Z</time></trkpt><trkpt lat="39.7215686" lon="8.7459422"><ele>313.0</ele><time>2026-05-03T08:42:15.772Z</time></trkpt><trkpt lat="39.7214782" lon="8.7460395"><ele>313.0</ele><time>2026-05-03T08:42:17.772Z</time></trkpt><trkpt lat="39.7214565" lon="8.7461204"><ele>313.0</ele><time>2026-05-03T08:42:18.772Z</time></trkpt><trkpt lat="39.7214322" lon="8.7462015"><ele>313.0</ele><time>2026-05-03T08:42:19.771Z</time></trkpt><trkpt lat="39.7213727" lon="8.7462327"><ele>313.0</ele><time>2026-05-03T08:42:20.771Z</time></trkpt><trkpt lat="39.7212852" lon="8.7462199"><ele>313.0</ele><time>2026-05-03T08:42:21.772Z</time></trkpt><trkpt lat="39.7211848" lon="8.7461968"><ele>313.0</ele><time>2026-05-03T08:42:22.773Z</time></trkpt><trkpt lat="39.7210596" lon="8.7461777"><ele>313.0</ele><time>2026-05-03T08:42:23.773Z</time></trkpt><trkpt lat="39.7209371" lon="8.7461686"><ele>313.0</ele><time>2026-05-03T08:42:24.772Z</time></trkpt><trkpt lat="39.7208146" lon="8.7461695"><ele>307.25</ele><time>2026-05-03T08:42:25.772Z</time></trkpt><trkpt lat="39.720702" lon="8.7462003"><ele>301.5</ele><time>2026-05-03T08:42:26.773Z</time></trkpt><trkpt lat="39.7205988" lon="8.7462597"><ele>295.75</ele><time>2026-05-03T08:42:27.771Z</time></trkpt><trkpt lat="39.7205032" lon="8.7463365"><ele>290.0</ele><time>2026-05-03T08:42:28.772Z</time></trkpt><trkpt lat="39.7204133" lon="8.7464289"><ele>290.0</ele><time>2026-05-03T08:42:29.773Z</time></trkpt><trkpt lat="39.7203355" lon="8.7465381"><ele>290.0</ele><time>2026-05-03T08:42:30.772Z</time></trkpt><trkpt lat="39.720266" lon="8.7466791"><ele>290.0</ele><time>2026-05-03T08:42:31.773Z</time></trkpt><trkpt lat="39.7201994" lon="8.7468424"><ele>290.0</ele><time>2026-05-03T08:42:32.772Z</time></trkpt><trkpt lat="39.7201422" lon="8.7470077"><ele>285.75</ele><time>2026-05-03T08:42:33.771Z</time></trkpt><trkpt lat="39.7200847" lon="8.7471758"><ele>281.5</ele><time>2026-05-03T08:42:34.77Z</time></trkpt><trkpt lat="39.7200326" lon="8.7473317"><ele>277.25</ele><time>2026-05-03T08:42:35.772Z</time></trkpt><trkpt lat="39.7199819" lon="8.7474917"><ele>273.0</ele><time>2026-05-03T08:42:36.773Z</time></trkpt><trkpt lat="39.7199468" lon="8.7476178"><ele>272.1666666666667</ele><time>2026-05-03T08:42:37.771Z</time></trkpt><trkpt lat="39.7199338" lon="8.747725"><ele>271.3333333333333</ele><time>2026-05-03T08:42:38.772Z</time></trkpt><trkpt lat="39.7199351" lon="8.7478249"><ele>270.5</ele><time>2026-05-03T08:42:39.773Z</time></trkpt><trkpt lat="39.719949" lon="8.7479322"><ele>269.66666666666663</ele><time>2026-05-03T08:42:40.771Z</time></trkpt><trkpt lat="39.7199675" lon="8.7480328"><ele>268.8333333333333</ele><time>2026-05-03T08:42:41.773Z</time></trkpt><trkpt lat="39.7199741" lon="8.7481242"><ele>268.0</ele><time>2026-05-03T08:42:42.771Z</time></trkpt><trkpt lat="39.7199586" lon="8.7482059"><ele>268.0</ele><time>2026-05-03T08:42:43.772Z</time></trkpt><trkpt lat="39.7199407" lon="8.7483113"><ele>268.0</ele><time>2026-05-03T08:42:44.773Z</time></trkpt><trkpt lat="39.7199251" lon="8.7484483"><ele>268.0</ele><time>2026-05-03T08:42:45.771Z</time></trkpt><trkpt lat="39.7199001" lon="8.7486174"><ele>268.0</ele><time>2026-05-03T08:42:46.772Z</time></trkpt><trkpt lat="39.7198723" lon="8.748795"><ele>266.0</ele><time>2026-05-03T08:42:47.773Z</time></trkpt><trkpt lat="39.7198391" lon="8.7489557"><ele>264.0</ele><time>2026-05-03T08:42:48.773Z</time></trkpt><trkpt lat="39.7198074" lon="8.7491019"><ele>262.0</ele><time>2026-05-03T08:42:49.773Z</time></trkpt><trkpt lat="39.7197646" lon="8.7492431"><ele>260.0</ele><time>2026-05-03T08:42:50.773Z</time></trkpt><trkpt lat="39.7197202" lon="8.7493869"><ele>257.0</ele><time>2026-05-03T08:42:51.772Z</time></trkpt><trkpt lat="39.719636" lon="8.7495361"><ele>254.0</ele><time>2026-05-03T08:42:52.773Z</time></trkpt><trkpt lat="39.7195414" lon="8.749694"><ele>251.0</ele><time>2026-05-03T08:42:53.772Z</time></trkpt><trkpt lat="39.7194341" lon="8.749851"><ele>250.66666666666669</ele><time>2026-05-03T08:42:54.772Z</time></trkpt><trkpt lat="39.7193221" lon="8.7500143"><ele>250.33333333333331</ele><time>2026-05-03T08:42:55.772Z</time></trkpt><trkpt lat="39.7192208" lon="8.7501764"><ele>250.0</ele><time>2026-05-03T08:42:56.772Z</time></trkpt><trkpt lat="39.7191314" lon="8.7503389"><ele>250.0</ele><time>2026-05-03T08:42:57.773Z</time></trkpt><trkpt lat="39.7190431" lon="8.7505087"><ele>250.0</ele><time>2026-05-03T08:42:58.771Z</time></trkpt><trkpt lat="39.7189682" lon="8.7506704"><ele>250.0</ele><time>2026-05-03T08:42:59.771Z</time></trkpt><trkpt lat="39.7188971" lon="8.7508076"><ele>250.0</ele><time>2026-05-03T08:43:00.773Z</time></trkpt><trkpt lat="39.7188112" lon="8.7509168"><ele>250.0</ele><time>2026-05-03T08:43:01.772Z</time></trkpt><trkpt lat="39.7187089" lon="8.750993"><ele>250.0</ele><time>2026-05-03T08:43:02.773Z</time></trkpt><trkpt lat="39.7185864" lon="8.7510329"><ele>250.0</ele><time>2026-05-03T08:43:03.772Z</time></trkpt><trkpt lat="39.7184496" lon="8.7510355"><ele>250.0</ele><time>2026-05-03T08:43:04.773Z</time></trkpt><trkpt lat="39.7183046" lon="8.7509867"><ele>250.66666666666666</ele><time>2026-05-03T08:43:05.772Z</time></trkpt><trkpt lat="39.718152" lon="8.7509164"><ele>251.33333333333331</ele><time>2026-05-03T08:43:06.773Z</time></trkpt><trkpt lat="39.7180086" lon="8.7508604"><ele>252.0</ele><time>2026-05-03T08:43:07.772Z</time></trkpt><trkpt lat="39.7178702" lon="8.7508225"><ele>251.0</ele><time>2026-05-03T08:43:08.773Z</time></trkpt><trkpt lat="39.7177247" lon="8.7508119"><ele>250.0</ele><time>2026-05-03T08:43:09.771Z</time></trkpt><trkpt lat="39.7175774" lon="8.7508382"><ele>249.0</ele><time>2026-05-03T08:43:10.772Z</time></trkpt><trkpt lat="39.7174248" lon="8.7509071"><ele>249.0</ele><time>2026-05-03T08:43:11.772Z</time></trkpt><trkpt lat="39.7172881" lon="8.7509783"><ele>249.0</ele><time>2026-05-03T08:43:12.771Z</time></trkpt><trkpt lat="39.7171532" lon="8.751038"><ele>249.0</ele><time>2026-05-03T08:43:13.772Z</time></trkpt><trkpt lat="39.7170005" lon="8.75105"><ele>249.0</ele><time>2026-05-03T08:43:14.771Z</time></trkpt><trkpt lat="39.7168424" lon="8.7510506"><ele>248.66666666666669</ele><time>2026-05-03T08:43:15.773Z</time></trkpt><trkpt lat="39.7166722" lon="8.7510421"><ele>248.33333333333334</ele><time>2026-05-03T08:43:16.77Z</time></trkpt><trkpt lat="39.7164911" lon="8.7510161"><ele>248.0</ele><time>2026-05-03T08:43:17.772Z</time></trkpt><trkpt lat="39.7163154" lon="8.7509805"><ele>248.0</ele><time>2026-05-03T08:43:18.773Z</time></trkpt><trkpt lat="39.7161407" lon="8.7509476"><ele>248.0</ele><time>2026-05-03T08:43:19.771Z</time></trkpt><trkpt lat="39.7159567" lon="8.7509357"><ele>248.0</ele><time>2026-05-03T08:43:20.773Z</time></trkpt><trkpt lat="39.715766" lon="8.7509322"><ele>244.33333333333334</ele><time>2026-05-03T08:43:21.772Z</time></trkpt><trkpt lat="39.715583" lon="8.7509259"><ele>240.66666666666669</ele><time>2026-05-03T08:43:22.773Z</time></trkpt><trkpt lat="39.7154103" lon="8.7509328"><ele>237.0</ele><time>2026-05-03T08:43:23.772Z</time></trkpt><trkpt lat="39.7152436" lon="8.750955"><ele>234.66666666666669</ele><time>2026-05-03T08:43:24.773Z</time></trkpt><trkpt lat="39.7150748" lon="8.7509935"><ele>232.33333333333334</ele><time>2026-05-03T08:43:25.771Z</time></trkpt><trkpt lat="39.7149004" lon="8.7510266"><ele>230.0</ele><time>2026-05-03T08:43:26.771Z</time></trkpt><trkpt lat="39.7147281" lon="8.7510496"><ele>224.66666666666669</ele><time>2026-05-03T08:43:27.772Z</time></trkpt><trkpt lat="39.7145538" lon="8.751076"><ele>219.33333333333331</ele><time>2026-05-03T08:43:28.773Z</time></trkpt><trkpt lat="39.7143737" lon="8.7511274"><ele>214.0</ele><time>2026-05-03T08:43:29.773Z</time></trkpt><trkpt lat="39.7141869" lon="8.7512002"><ele>211.0</ele><time>2026-05-03T08:43:30.773Z</time></trkpt><trkpt lat="39.7139991" lon="8.7512922"><ele>208.0</ele><time>2026-05-03T08:43:31.772Z</time></trkpt><trkpt lat="39.7138096" lon="8.7513825"><ele>205.0</ele><time>2026-05-03T08:43:32.772Z</time></trkpt><trkpt lat="39.7136334" lon="8.7514539"><ele>203.0</ele><time>2026-05-03T08:43:33.773Z</time></trkpt><trkpt lat="39.7134588" lon="8.7515129"><ele>201.0</ele><time>2026-05-03T08:43:34.773Z</time></trkpt><trkpt lat="39.7132913" lon="8.7515549"><ele>199.0</ele><time>2026-05-03T08:43:35.773Z</time></trkpt><trkpt lat="39.7131322" lon="8.7515722"><ele>199.0</ele><time>2026-05-03T08:43:36.772Z</time></trkpt><trkpt lat="39.7129633" lon="8.751599"><ele>199.0</ele><time>2026-05-03T08:43:37.771Z</time></trkpt><trkpt lat="39.7127883" lon="8.7516546"><ele>199.0</ele><time>2026-05-03T08:43:38.772Z</time></trkpt><trkpt lat="39.7126132" lon="8.7517191"><ele>198.66666666666666</ele><time>2026-05-03T08:43:39.771Z</time></trkpt><trkpt lat="39.7124448" lon="8.7517816"><ele>198.33333333333331</ele><time>2026-05-03T08:43:40.772Z</time></trkpt><trkpt lat="39.7122812" lon="8.751839"><ele>198.0</ele><time>2026-05-03T08:43:41.771Z</time></trkpt><trkpt lat="39.7121227" lon="8.7518852"><ele>198.0</ele><time>2026-05-03T08:43:42.772Z</time></trkpt><trkpt lat="39.71198" lon="8.751925"><ele>198.0</ele><time>2026-05-03T08:43:43.773Z</time></trkpt><trkpt lat="39.7118694" lon="8.7519852"><ele>198.0</ele><time>2026-05-03T08:43:44.772Z</time></trkpt><trkpt lat="39.7117635" lon="8.7520726"><ele>198.0</ele><time>2026-05-03T08:43:45.773Z</time></trkpt><trkpt lat="39.7116516" lon="8.7521956"><ele>194.33333333333334</ele><time>2026-05-03T08:43:46.772Z</time></trkpt><trkpt lat="39.7115333" lon="8.7523436"><ele>190.66666666666669</ele><time>2026-05-03T08:43:47.772Z</time></trkpt><trkpt lat="39.7113931" lon="8.752504"><ele>187.0</ele><time>2026-05-03T08:43:48.772Z</time></trkpt><trkpt lat="39.7112435" lon="8.752664"><ele>189.0</ele><time>2026-05-03T08:43:49.772Z</time></trkpt><trkpt lat="39.7110825" lon="8.7528362"><ele>191.0</ele><time>2026-05-03T08:43:50.772Z</time></trkpt><trkpt lat="39.7109192" lon="8.7529923"><ele>193.0</ele><time>2026-05-03T08:43:51.772Z</time></trkpt><trkpt lat="39.7107651" lon="8.7531105"><ele>193.0</ele><time>2026-05-03T08:43:52.772Z</time></trkpt><trkpt lat="39.7106062" lon="8.7532283"><ele>193.0</ele><time>2026-05-03T08:43:53.772Z</time></trkpt><trkpt lat="39.7104535" lon="8.7533563"><ele>193.0</ele><time>2026-05-03T08:43:54.772Z</time></trkpt><trkpt lat="39.7103122" lon="8.7535328"><ele>196.66666666666666</ele><time>2026-05-03T08:43:55.772Z</time></trkpt><trkpt lat="39.7101738" lon="8.7537178"><ele>200.33333333333331</ele><time>2026-05-03T08:43:56.772Z</time></trkpt><trkpt lat="39.7100436" lon="8.7539227"><ele>204.0</ele><time>2026-05-03T08:43:57.771Z</time></trkpt><trkpt lat="39.709936" lon="8.7541244"><ele>204.0</ele><time>2026-05-03T08:43:58.77Z</time></trkpt><trkpt lat="39.7098472" lon="8.7543075"><ele>204.0</ele><time>2026-05-03T08:43:59.773Z</time></trkpt><trkpt lat="39.7097722" lon="8.7544713"><ele>204.0</ele><time>2026-05-03T08:44:00.77Z</time></trkpt><trkpt lat="39.7097141" lon="8.7546093"><ele>204.0</ele><time>2026-05-03T08:44:01.772Z</time></trkpt><trkpt lat="39.7096632" lon="8.7547122"><ele>204.85714285714286</ele><time>2026-05-03T08:44:02.772Z</time></trkpt><trkpt lat="39.7096174" lon="8.7547858"><ele>205.71428571428572</ele><time>2026-05-03T08:44:03.773Z</time></trkpt><trkpt lat="39.7095778" lon="8.754851"><ele>206.57142857142856</ele><time>2026-05-03T08:44:04.772Z</time></trkpt><trkpt lat="39.7095334" lon="8.7549165"><ele>207.42857142857144</ele><time>2026-05-03T08:44:05.772Z</time></trkpt><trkpt lat="39.7094774" lon="8.7549791"><ele>208.28571428571428</ele><time>2026-05-03T08:44:06.773Z</time></trkpt><trkpt lat="39.7094232" lon="8.755031"><ele>209.14285714285714</ele><time>2026-05-03T08:44:07.772Z</time></trkpt><trkpt lat="39.7093537" lon="8.7550655"><ele>210.0</ele><time>2026-05-03T08:44:08.772Z</time></trkpt><trkpt lat="39.7092622" lon="8.7550941"><ele>210.0</ele><time>2026-05-03T08:44:09.771Z</time></trkpt><trkpt lat="39.7091326" lon="8.7551221"><ele>210.0</ele><time>2026-05-03T08:44:10.772Z</time></trkpt><trkpt lat="39.7090029" lon="8.7551705"><ele>210.0</ele><time>2026-05-03T08:44:11.772Z</time></trkpt><trkpt lat="39.7088626" lon="8.7552523"><ele>210.0</ele><time>2026-05-03T08:44:12.771Z</time></trkpt><trkpt lat="39.7087156" lon="8.7553707"><ele>206.66666666666669</ele><time>2026-05-03T08:44:13.772Z</time></trkpt><trkpt lat="39.7085701" lon="8.7555041"><ele>203.33333333333334</ele><time>2026-05-03T08:44:14.771Z</time></trkpt><trkpt lat="39.7084179" lon="8.7556272"><ele>200.0</ele><time>2026-05-03T08:44:15.772Z</time></trkpt><trkpt lat="39.7082491" lon="8.7557147"><ele>200.0</ele><time>2026-05-03T08:44:16.773Z</time></trkpt><trkpt lat="39.708074" lon="8.7557616"><ele>200.0</ele><time>2026-05-03T08:44:17.771Z</time></trkpt><trkpt lat="39.7078891" lon="8.7557679"><ele>200.0</ele><time>2026-05-03T08:44:18.773Z</time></trkpt><trkpt lat="39.7076919" lon="8.7557342"><ele>197.66666666666669</ele><time>2026-05-03T08:44:19.773Z</time></trkpt><trkpt lat="39.7074881" lon="8.7556784"><ele>195.33333333333331</ele><time>2026-05-03T08:44:20.771Z</time></trkpt><trkpt lat="39.7073095" lon="8.7556087"><ele>193.0</ele><time>2026-05-03T08:44:21.772Z</time></trkpt><trkpt lat="39.7071428" lon="8.7555363"><ele>193.0</ele><time>2026-05-03T08:44:22.772Z</time></trkpt><trkpt lat="39.7070109" lon="8.7554362"><ele>193.0</ele><time>2026-05-03T08:44:23.772Z</time></trkpt><trkpt lat="39.7069052" lon="8.7552587"><ele>193.0</ele><time>2026-05-03T08:44:24.773Z</time></trkpt><trkpt lat="39.7067996" lon="8.7550809"><ele>192.0</ele><time>2026-05-03T08:44:25.77Z</time></trkpt><trkpt lat="39.7067056" lon="8.7548715"><ele>191.0</ele><time>2026-05-03T08:44:26.773Z</time></trkpt><trkpt lat="39.7066352" lon="8.75467"><ele>190.0</ele><time>2026-05-03T08:44:27.773Z</time></trkpt><trkpt lat="39.706584" lon="8.7544739"><ele>191.0</ele><time>2026-05-03T08:44:28.772Z</time></trkpt><trkpt lat="39.7065331" lon="8.7543033"><ele>192.0</ele><time>2026-05-03T08:44:29.772Z</time></trkpt><trkpt lat="39.7064624" lon="8.754161"><ele>193.0</ele><time>2026-05-03T08:44:30.772Z</time></trkpt><trkpt lat="39.7063574" lon="8.7540957"><ele>194.0</ele><time>2026-05-03T08:44:31.771Z</time></trkpt><trkpt lat="39.7062513" lon="8.7540452"><ele>194.0</ele><time>2026-05-03T08:44:32.772Z</time></trkpt><trkpt lat="39.7061096" lon="8.7540935"><ele>194.0</ele><time>2026-05-03T08:44:33.773Z</time></trkpt><trkpt lat="39.7059578" lon="8.7541289"><ele>194.0</ele><time>2026-05-03T08:44:34.773Z</time></trkpt><trkpt lat="39.7057924" lon="8.7541571"><ele>190.33333333333334</ele><time>2026-05-03T08:44:35.772Z</time></trkpt><trkpt lat="39.7056175" lon="8.7541866"><ele>186.66666666666669</ele><time>2026-05-03T08:44:36.772Z</time></trkpt><trkpt lat="39.7054361" lon="8.7542119"><ele>183.0</ele><time>2026-05-03T08:44:37.773Z</time></trkpt><trkpt lat="39.7052453" lon="8.7542237"><ele>181.66666666666666</ele><time>2026-05-03T08:44:38.773Z</time></trkpt><trkpt lat="39.7050419" lon="8.7542295"><ele>180.33333333333331</ele><time>2026-05-03T08:44:39.772Z</time></trkpt><trkpt lat="39.7048306" lon="8.7542215"><ele>179.0</ele><time>2026-05-03T08:44:40.773Z</time></trkpt><trkpt lat="39.7046109" lon="8.7542086"><ele>177.5</ele><time>2026-05-03T08:44:41.772Z</time></trkpt><trkpt lat="39.7043793" lon="8.7541933"><ele>176.0</ele><time>2026-05-03T08:44:42.773Z</time></trkpt><trkpt lat="39.7041408" lon="8.7541786"><ele>176.0</ele><time>2026-05-03T08:44:43.772Z</time></trkpt><trkpt lat="39.7039002" lon="8.7541663"><ele>176.0</ele><time>2026-05-03T08:44:44.772Z</time></trkpt><trkpt lat="39.7036606" lon="8.7541386"><ele>175.0</ele><time>2026-05-03T08:44:45.772Z</time></trkpt><trkpt lat="39.703422" lon="8.7540907"><ele>174.0</ele><time>2026-05-03T08:44:46.771Z</time></trkpt><trkpt lat="39.7031848" lon="8.7540325"><ele>174.0</ele><time>2026-05-03T08:44:47.772Z</time></trkpt><trkpt lat="39.7029621" lon="8.7539721"><ele>174.0</ele><time>2026-05-03T08:44:48.772Z</time></trkpt><trkpt lat="39.7027656" lon="8.7539177"><ele>174.0</ele><time>2026-05-03T08:44:49.772Z</time></trkpt><trkpt lat="39.7025946" lon="8.753868"><ele>173.0</ele><time>2026-05-03T08:44:50.772Z</time></trkpt><trkpt lat="39.7024479" lon="8.7538283"><ele>172.0</ele><time>2026-05-03T08:44:51.771Z</time></trkpt><trkpt lat="39.7023159" lon="8.7537822"><ele>171.0</ele><time>2026-05-03T08:44:52.773Z</time></trkpt><trkpt lat="39.7022104" lon="8.7537028"><ele>170.0</ele><time>2026-05-03T08:44:53.771Z</time></trkpt><trkpt lat="39.7021295" lon="8.7535955"><ele>169.4</ele><time>2026-05-03T08:44:54.772Z</time></trkpt><trkpt lat="39.7020832" lon="8.753472"><ele>168.8</ele><time>2026-05-03T08:44:55.771Z</time></trkpt><trkpt lat="39.7020811" lon="8.7533534"><ele>168.2</ele><time>2026-05-03T08:44:56.773Z</time></trkpt><trkpt lat="39.7021121" lon="8.753247"><ele>167.6</ele><time>2026-05-03T08:44:57.773Z</time></trkpt><trkpt lat="39.702189" lon="8.7531528"><ele>167.0</ele><time>2026-05-03T08:44:58.773Z</time></trkpt><trkpt lat="39.702301" lon="8.7530583"><ele>167.0</ele><time>2026-05-03T08:44:59.772Z</time></trkpt><trkpt lat="39.7024305" lon="8.7529722"><ele>167.0</ele><time>2026-05-03T08:45:00.772Z</time></trkpt><trkpt lat="39.7025817" lon="8.7528729"><ele>167.0</ele><time>2026-05-03T08:45:01.772Z</time></trkpt><trkpt lat="39.7027478" lon="8.7527602"><ele>164.66666666666666</ele><time>2026-05-03T08:45:02.772Z</time></trkpt><trkpt lat="39.7029234" lon="8.752647"><ele>162.33333333333334</ele><time>2026-05-03T08:45:03.772Z</time></trkpt><trkpt lat="39.7030954" lon="8.7525432"><ele>160.0</ele><time>2026-05-03T08:45:04.772Z</time></trkpt><trkpt lat="39.7032574" lon="8.7524472"><ele>160.0</ele><time>2026-05-03T08:45:05.772Z</time></trkpt><trkpt lat="39.7034098" lon="8.7523563"><ele>160.0</ele><time>2026-05-03T08:45:06.772Z</time></trkpt><trkpt lat="39.7035376" lon="8.752252"><ele>160.0</ele><time>2026-05-03T08:45:07.772Z</time></trkpt><trkpt lat="39.7036338" lon="8.7521252"><ele>160.5</ele><time>2026-05-03T08:45:08.772Z</time></trkpt><trkpt lat="39.7036949" lon="8.7519825"><ele>161.0</ele><time>2026-05-03T08:45:09.771Z</time></trkpt><trkpt lat="39.7037235" lon="8.7518169"><ele>161.5</ele><time>2026-05-03T08:45:10.772Z</time></trkpt><trkpt lat="39.7037173" lon="8.7516465"><ele>162.0</ele><time>2026-05-03T08:45:11.771Z</time></trkpt><trkpt lat="39.7036717" lon="8.7514577"><ele>162.0</ele><time>2026-05-03T08:45:12.772Z</time></trkpt><trkpt lat="39.7035863" lon="8.7512663"><ele>162.0</ele><time>2026-05-03T08:45:13.772Z</time></trkpt><trkpt lat="39.7034824" lon="8.7510713"><ele>162.0</ele><time>2026-05-03T08:45:14.772Z</time></trkpt><trkpt lat="39.7033499" lon="8.7508846"><ele>159.66666666666666</ele><time>2026-05-03T08:45:15.773Z</time></trkpt><trkpt lat="39.7032114" lon="8.7507177"><ele>157.33333333333331</ele><time>2026-05-03T08:45:16.771Z</time></trkpt><trkpt lat="39.7030746" lon="8.7505649"><ele>155.0</ele><time>2026-05-03T08:45:17.772Z</time></trkpt><trkpt lat="39.7029411" lon="8.7504189"><ele>155.0</ele><time>2026-05-03T08:45:18.772Z</time></trkpt><trkpt lat="39.7028151" lon="8.7502836"><ele>155.0</ele><time>2026-05-03T08:45:19.772Z</time></trkpt><trkpt lat="39.7026942" lon="8.7501416"><ele>155.0</ele><time>2026-05-03T08:45:20.772Z</time></trkpt><trkpt lat="39.7025866" lon="8.7499779"><ele>151.33333333333331</ele><time>2026-05-03T08:45:21.771Z</time></trkpt><trkpt lat="39.7024997" lon="8.7497882"><ele>147.66666666666666</ele><time>2026-05-03T08:45:22.77Z</time></trkpt><trkpt lat="39.7024416" lon="8.7495873"><ele>144.0</ele><time>2026-05-03T08:45:23.773Z</time></trkpt><trkpt lat="39.7023801" lon="8.7493957"><ele>145.0</ele><time>2026-05-03T08:45:24.771Z</time></trkpt><trkpt lat="39.7022951" lon="8.749217"><ele>146.0</ele><time>2026-05-03T08:45:25.772Z</time></trkpt><trkpt lat="39.7021761" lon="8.7490378"><ele>147.0</ele><time>2026-05-03T08:45:26.772Z</time></trkpt><trkpt lat="39.7020219" lon="8.7488529"><ele>141.5</ele><time>2026-05-03T08:45:27.772Z</time></trkpt><trkpt lat="39.7018623" lon="8.7486555"><ele>136.0</ele><time>2026-05-03T08:45:28.773Z</time></trkpt><trkpt lat="39.701703" lon="8.7484354"><ele>136.0</ele><time>2026-05-03T08:45:29.772Z</time></trkpt><trkpt lat="39.7015484" lon="8.7481897"><ele>136.0</ele><time>2026-05-03T08:45:30.772Z</time></trkpt><trkpt lat="39.7014001" lon="8.7479245"><ele>138.5</ele><time>2026-05-03T08:45:31.771Z</time></trkpt><trkpt lat="39.7012524" lon="8.7476502"><ele>141.0</ele><time>2026-05-03T08:45:32.773Z</time></trkpt><trkpt lat="39.7011031" lon="8.7473673"><ele>134.5</ele><time>2026-05-03T08:45:33.771Z</time></trkpt><trkpt lat="39.7009538" lon="8.7470936"><ele>128.0</ele><time>2026-05-03T08:45:34.772Z</time></trkpt><trkpt lat="39.7008119" lon="8.7468295"><ele>128.0</ele><time>2026-05-03T08:45:35.772Z</time></trkpt><trkpt lat="39.7006783" lon="8.7465758"><ele>128.0</ele><time>2026-05-03T08:45:36.772Z</time></trkpt><trkpt lat="39.7005571" lon="8.7463378"><ele>128.0</ele><time>2026-05-03T08:45:37.773Z</time></trkpt><trkpt lat="39.7004508" lon="8.7461056"><ele>128.0</ele><time>2026-05-03T08:45:38.773Z</time></trkpt><trkpt lat="39.7003709" lon="8.7458601"><ele>128.0</ele><time>2026-05-03T08:45:39.772Z</time></trkpt><trkpt lat="39.7003198" lon="8.7456079"><ele>128.66666666666666</ele><time>2026-05-03T08:45:40.773Z</time></trkpt><trkpt lat="39.7002939" lon="8.745343"><ele>129.33333333333334</ele><time>2026-05-03T08:45:41.773Z</time></trkpt><trkpt lat="39.7002918" lon="8.7450693"><ele>130.0</ele><time>2026-05-03T08:45:42.771Z</time></trkpt><trkpt lat="39.7003115" lon="8.7447911"><ele>130.0</ele><time>2026-05-03T08:45:43.772Z</time></trkpt><trkpt lat="39.7003525" lon="8.7445241"><ele>130.0</ele><time>2026-05-03T08:45:44.771Z</time></trkpt><trkpt lat="39.7004163" lon="8.7442668"><ele>130.0</ele><time>2026-05-03T08:45:45.771Z</time></trkpt><trkpt lat="39.7005115" lon="8.7440348"><ele>126.0</ele><time>2026-05-03T08:45:46.772Z</time></trkpt><trkpt lat="39.7006266" lon="8.7438237"><ele>122.0</ele><time>2026-05-03T08:45:47.772Z</time></trkpt><trkpt lat="39.7007423" lon="8.7436293"><ele>118.0</ele><time>2026-05-03T08:45:48.772Z</time></trkpt><trkpt lat="39.7008379" lon="8.7434417"><ele>114.0</ele><time>2026-05-03T08:45:49.772Z</time></trkpt><trkpt lat="39.7009029" lon="8.7432463"><ele>110.0</ele><time>2026-05-03T08:45:50.772Z</time></trkpt><trkpt lat="39.700929" lon="8.7430339"><ele>106.0</ele><time>2026-05-03T08:45:51.773Z</time></trkpt><trkpt lat="39.7009215" lon="8.7427988"><ele>104.0</ele><time>2026-05-03T08:45:52.772Z</time></trkpt><trkpt lat="39.7008905" lon="8.7425376"><ele>102.0</ele><time>2026-05-03T08:45:53.772Z</time></trkpt><trkpt lat="39.7008557" lon="8.7422625"><ele>100.0</ele><time>2026-05-03T08:45:54.773Z</time></trkpt><trkpt lat="39.7008112" lon="8.7419609"><ele>98.0</ele><time>2026-05-03T08:45:55.773Z</time></trkpt><trkpt lat="39.7007687" lon="8.7416513"><ele>96.0</ele><time>2026-05-03T08:45:56.773Z</time></trkpt><trkpt lat="39.7007263" lon="8.7413259"><ele>94.0</ele><time>2026-05-03T08:45:57.772Z</time></trkpt><trkpt lat="39.700685" lon="8.7409879"><ele>92.0</ele><time>2026-05-03T08:45:58.771Z</time></trkpt><trkpt lat="39.7006366" lon="8.7406447"><ele>92.0</ele><time>2026-05-03T08:45:59.773Z</time></trkpt><trkpt lat="39.7005798" lon="8.7402993"><ele>92.0</ele><time>2026-05-03T08:46:00.772Z</time></trkpt><trkpt lat="39.700518" lon="8.7399482"><ele>90.5</ele><time>2026-05-03T08:46:01.771Z</time></trkpt><trkpt lat="39.7004519" lon="8.7395965"><ele>89.0</ele><time>2026-05-03T08:46:02.772Z</time></trkpt><trkpt lat="39.7003868" lon="8.7392372"><ele>87.0</ele><time>2026-05-03T08:46:03.773Z</time></trkpt><trkpt lat="39.700321" lon="8.7388747"><ele>85.0</ele><time>2026-05-03T08:46:04.773Z</time></trkpt><trkpt lat="39.7002555" lon="8.7385077"><ele>83.0</ele><time>2026-05-03T08:46:05.771Z</time></trkpt><trkpt lat="39.7001862" lon="8.7381414"><ele>81.0</ele><time>2026-05-03T08:46:06.773Z</time></trkpt><trkpt lat="39.7001182" lon="8.7377707"><ele>79.0</ele><time>2026-05-03T08:46:07.772Z</time></trkpt><trkpt lat="39.7000494" lon="8.737408"><ele>77.0</ele><time>2026-05-03T08:46:08.772Z</time></trkpt><trkpt lat="39.6999823" lon="8.7370417"><ele>75.5</ele><time>2026-05-03T08:46:09.771Z</time></trkpt><trkpt lat="39.6999165" lon="8.7366801"><ele>74.0</ele><time>2026-05-03T08:46:10.772Z</time></trkpt><trkpt lat="39.699848" lon="8.736311"><ele>72.5</ele><time>2026-05-03T08:46:11.772Z</time></trkpt><trkpt lat="39.6997808" lon="8.7359418"><ele>71.0</ele><time>2026-05-03T08:46:12.771Z</time></trkpt><trkpt lat="39.6997125" lon="8.7355699"><ele>70.0</ele><time>2026-05-03T08:46:13.772Z</time></trkpt><trkpt lat="39.6996444" lon="8.7352012"><ele>69.0</ele><time>2026-05-03T08:46:14.772Z</time></trkpt><trkpt lat="39.6995782" lon="8.7348303"><ele>69.0</ele><time>2026-05-03T08:46:15.771Z</time></trkpt><trkpt lat="39.6995136" lon="8.7344645"><ele>69.0</ele><time>2026-05-03T08:46:16.772Z</time></trkpt><trkpt lat="39.699447" lon="8.734098"><ele>66.5</ele><time>2026-05-03T08:46:17.77Z</time></trkpt><trkpt lat="39.6993778" lon="8.7337311"><ele>64.0</ele><time>2026-05-03T08:46:18.772Z</time></trkpt><trkpt lat="39.6993151" lon="8.7333578"><ele>63.5</ele><time>2026-05-03T08:46:19.772Z</time></trkpt><trkpt lat="39.6992449" lon="8.7329902"><ele>63.0</ele><time>2026-05-03T08:46:20.772Z</time></trkpt><trkpt lat="39.6991815" lon="8.7326277"><ele>61.0</ele><time>2026-05-03T08:46:21.771Z</time></trkpt><trkpt lat="39.6991116" lon="8.7322644"><ele>59.0</ele><time>2026-05-03T08:46:22.772Z</time></trkpt><trkpt lat="39.6990412" lon="8.7318995"><ele>58.0</ele><time>2026-05-03T08:46:23.772Z</time></trkpt><trkpt lat="39.6989713" lon="8.731535"><ele>57.0</ele><time>2026-05-03T08:46:24.773Z</time></trkpt><trkpt lat="39.6989052" lon="8.7311759"><ele>56.5</ele><time>2026-05-03T08:46:25.772Z</time></trkpt><trkpt lat="39.6988407" lon="8.7308177"><ele>56.0</ele><time>2026-05-03T08:46:26.773Z</time></trkpt><trkpt lat="39.6987785" lon="8.7304641"><ele>54.0</ele><time>2026-05-03T08:46:27.771Z</time></trkpt><trkpt lat="39.6987149" lon="8.7301104"><ele>52.0</ele><time>2026-05-03T08:46:28.77Z</time></trkpt><trkpt lat="39.6986561" lon="8.7297562"><ele>52.0</ele><time>2026-05-03T08:46:29.772Z</time></trkpt><trkpt lat="39.6985946" lon="8.7294038"><ele>52.0</ele><time>2026-05-03T08:46:30.772Z</time></trkpt><trkpt lat="39.6985309" lon="8.7290503"><ele>51.0</ele><time>2026-05-03T08:46:31.773Z</time></trkpt><trkpt lat="39.6984709" lon="8.728695"><ele>50.0</ele><time>2026-05-03T08:46:32.772Z</time></trkpt><trkpt lat="39.6984077" lon="8.7283532"><ele>49.5</ele><time>2026-05-03T08:46:33.773Z</time></trkpt><trkpt lat="39.6983484" lon="8.7280226"><ele>49.0</ele><time>2026-05-03T08:46:34.773Z</time></trkpt><trkpt lat="39.698291" lon="8.7277027"><ele>48.5</ele><time>2026-05-03T08:46:35.773Z</time></trkpt><trkpt lat="39.6982318" lon="8.7273886"><ele>48.0</ele><time>2026-05-03T08:46:36.772Z</time></trkpt><trkpt lat="39.6981737" lon="8.7270719"><ele>47.5</ele><time>2026-05-03T08:46:37.771Z</time></trkpt><trkpt lat="39.698113" lon="8.7267574"><ele>47.0</ele><time>2026-05-03T08:46:38.773Z</time></trkpt><trkpt lat="39.6980537" lon="8.726441"><ele>47.0</ele><time>2026-05-03T08:46:39.773Z</time></trkpt><trkpt lat="39.6979903" lon="8.7261251"><ele>47.0</ele><time>2026-05-03T08:46:40.77Z</time></trkpt><trkpt lat="39.6979351" lon="8.7258235"><ele>46.666666666666664</ele><time>2026-05-03T08:46:41.773Z</time></trkpt><trkpt lat="39.6978867" lon="8.7255476"><ele>46.333333333333336</ele><time>2026-05-03T08:46:42.771Z</time></trkpt><trkpt lat="39.6978388" lon="8.7252861"><ele>46.0</ele><time>2026-05-03T08:46:43.771Z</time></trkpt><trkpt lat="39.6977994" lon="8.7250321"><ele>45.333333333333336</ele><time>2026-05-03T08:46:44.77Z</time></trkpt><trkpt lat="39.6977514" lon="8.7247586"><ele>44.666666666666664</ele><time>2026-05-03T08:46:45.772Z</time></trkpt><trkpt lat="39.6977036" lon="8.7244696"><ele>44.0</ele><time>2026-05-03T08:46:46.772Z</time></trkpt><trkpt lat="39.6976518" lon="8.7241699"><ele>44.0</ele><time>2026-05-03T08:46:47.772Z</time></trkpt><trkpt lat="39.6975984" lon="8.7238764"><ele>44.0</ele><time>2026-05-03T08:46:48.773Z</time></trkpt><trkpt lat="39.6975461" lon="8.7236146"><ele>44.0</ele><time>2026-05-03T08:46:49.772Z</time></trkpt><trkpt lat="39.6975034" lon="8.723394"><ele>43.6</ele><time>2026-05-03T08:46:50.772Z</time></trkpt><trkpt lat="39.6974695" lon="8.7232124"><ele>43.2</ele><time>2026-05-03T08:46:51.773Z</time></trkpt><trkpt lat="39.6974474" lon="8.7230827"><ele>42.800000000000004</ele><time>2026-05-03T08:46:52.772Z</time></trkpt><trkpt lat="39.6974484" lon="8.7229875"><ele>42.400000000000006</ele><time>2026-05-03T08:46:53.771Z</time></trkpt><trkpt lat="39.6975125" lon="8.7228709"><ele>42.0</ele><time>2026-05-03T08:46:55.772Z</time></trkpt><trkpt lat="39.6975718" lon="8.7228012"><ele>42.0</ele><time>2026-05-03T08:46:56.771Z</time></trkpt><trkpt lat="39.6976459" lon="8.7227079"><ele>42.0</ele><time>2026-05-03T08:46:57.772Z</time></trkpt><trkpt lat="39.6977268" lon="8.722584"><ele>42.0</ele><time>2026-05-03T08:46:58.773Z</time></trkpt><trkpt lat="39.6978134" lon="8.7224585"><ele>42.0</ele><time>2026-05-03T08:46:59.773Z</time></trkpt><trkpt lat="39.6979176" lon="8.722328"><ele>42.0</ele><time>2026-05-03T08:47:00.771Z</time></trkpt><trkpt lat="39.6980152" lon="8.7222134"><ele>42.0</ele><time>2026-05-03T08:47:01.771Z</time></trkpt><trkpt lat="39.6981232" lon="8.7221312"><ele>42.0</ele><time>2026-05-03T08:47:02.771Z</time></trkpt><trkpt lat="39.6982332" lon="8.7220643"><ele>42.0</ele><time>2026-05-03T08:47:03.773Z</time></trkpt><trkpt lat="39.698346" lon="8.7220559"><ele>42.0</ele><time>2026-05-03T08:47:04.771Z</time></trkpt><trkpt lat="39.6984575" lon="8.7220605"><ele>42.0</ele><time>2026-05-03T08:47:05.772Z</time></trkpt><trkpt lat="39.6985668" lon="8.7221125"><ele>42.0</ele><time>2026-05-03T08:47:06.772Z</time></trkpt><trkpt lat="39.6986814" lon="8.7221864"><ele>42.0</ele><time>2026-05-03T08:47:07.772Z</time></trkpt><trkpt lat="39.6987932" lon="8.7222867"><ele>42.0</ele><time>2026-05-03T08:47:08.771Z</time></trkpt><trkpt lat="39.6989044" lon="8.7224047"><ele>42.0</ele><time>2026-05-03T08:47:09.772Z</time></trkpt><trkpt lat="39.6990247" lon="8.7225426"><ele>42.0</ele><time>2026-05-03T08:47:10.771Z</time></trkpt><trkpt lat="39.6991534" lon="8.722695"><ele>42.666666666666664</ele><time>2026-05-03T08:47:11.771Z</time></trkpt><trkpt lat="39.6992844" lon="8.7228481"><ele>43.33333333333333</ele><time>2026-05-03T08:47:12.771Z</time></trkpt><trkpt lat="39.699425" lon="8.7230141"><ele>44.0</ele><time>2026-05-03T08:47:13.773Z</time></trkpt><trkpt lat="39.699569" lon="8.7231825"><ele>44.33333333333333</ele><time>2026-05-03T08:47:14.771Z</time></trkpt><trkpt lat="39.6997186" lon="8.7233543"><ele>44.666666666666664</ele><time>2026-05-03T08:47:15.773Z</time></trkpt><trkpt lat="39.6998692" lon="8.7235304"><ele>45.0</ele><time>2026-05-03T08:47:16.772Z</time></trkpt><trkpt lat="39.7000219" lon="8.7237098"><ele>45.666666666666664</ele><time>2026-05-03T08:47:17.772Z</time></trkpt><trkpt lat="39.7001762" lon="8.7238937"><ele>46.33333333333333</ele><time>2026-05-03T08:47:18.772Z</time></trkpt><trkpt lat="39.7003313" lon="8.7240749"><ele>47.0</ele><time>2026-05-03T08:47:19.772Z</time></trkpt><trkpt lat="39.7004871" lon="8.7242552"><ele>47.666666666666664</ele><time>2026-05-03T08:47:20.771Z</time></trkpt><trkpt lat="39.7006426" lon="8.7244384"><ele>48.33333333333333</ele><time>2026-05-03T08:47:21.773Z</time></trkpt><trkpt lat="39.7007942" lon="8.7246189"><ele>49.0</ele><time>2026-05-03T08:47:22.772Z</time></trkpt><trkpt lat="39.7009467" lon="8.7247979"><ele>49.33333333333333</ele><time>2026-05-03T08:47:23.772Z</time></trkpt><trkpt lat="39.7010951" lon="8.7249766"><ele>49.66666666666667</ele><time>2026-05-03T08:47:24.771Z</time></trkpt><trkpt lat="39.7012436" lon="8.7251552"><ele>50.0</ele><time>2026-05-03T08:47:25.772Z</time></trkpt><trkpt lat="39.7013938" lon="8.7253342"><ele>51.0</ele><time>2026-05-03T08:47:26.771Z</time></trkpt><trkpt lat="39.7015514" lon="8.7255173"><ele>52.0</ele><time>2026-05-03T08:47:27.772Z</time></trkpt><trkpt lat="39.7017127" lon="8.7257021"><ele>53.0</ele><time>2026-05-03T08:47:28.772Z</time></trkpt><trkpt lat="39.7018744" lon="8.7258932"><ele>53.66666666666667</ele><time>2026-05-03T08:47:29.772Z</time></trkpt><trkpt lat="39.7020326" lon="8.7260785"><ele>54.33333333333333</ele><time>2026-05-03T08:47:30.772Z</time></trkpt><trkpt lat="39.7021924" lon="8.7262653"><ele>55.0</ele><time>2026-05-03T08:47:31.772Z</time></trkpt><trkpt lat="39.7023499" lon="8.7264514"><ele>55.0</ele><time>2026-05-03T08:47:32.771Z</time></trkpt><trkpt lat="39.7025099" lon="8.7266373"><ele>55.0</ele><time>2026-05-03T08:47:33.772Z</time></trkpt><trkpt lat="39.7026709" lon="8.7268218"><ele>55.0</ele><time>2026-05-03T08:47:34.772Z</time></trkpt><trkpt lat="39.7028289" lon="8.7270078"><ele>55.666666666666664</ele><time>2026-05-03T08:47:35.771Z</time></trkpt><trkpt lat="39.702983" lon="8.7271868"><ele>56.33333333333333</ele><time>2026-05-03T08:47:36.773Z</time></trkpt><trkpt lat="39.7031298" lon="8.7273603"><ele>57.0</ele><time>2026-05-03T08:47:37.773Z</time></trkpt><trkpt lat="39.7032719" lon="8.7275254"><ele>57.0</ele><time>2026-05-03T08:47:38.77Z</time></trkpt><trkpt lat="39.703396" lon="8.7276717"><ele>57.0</ele><time>2026-05-03T08:47:39.772Z</time></trkpt><trkpt lat="39.7035021" lon="8.7277974"><ele>57.0</ele><time>2026-05-03T08:47:40.77Z</time></trkpt><trkpt lat="39.7035873" lon="8.7279036"><ele>57.0</ele><time>2026-05-03T08:47:41.772Z</time></trkpt><trkpt lat="39.7036578" lon="8.7279898"><ele>57.8</ele><time>2026-05-03T08:47:42.773Z</time></trkpt><trkpt lat="39.7037137" lon="8.7280566"><ele>58.6</ele><time>2026-05-03T08:47:43.772Z</time></trkpt><trkpt lat="39.703825" lon="8.7281053"><ele>59.39999999999999</ele><time>2026-05-03T08:47:45.771Z</time></trkpt><trkpt lat="39.7039135" lon="8.7280244"><ele>60.199999999999996</ele><time>2026-05-03T08:47:47.773Z</time></trkpt><trkpt lat="39.7039402" lon="8.7279467"><ele>61.0</ele><time>2026-05-03T08:47:48.773Z</time></trkpt><trkpt lat="39.7039588" lon="8.7278311"><ele>60.75</ele><time>2026-05-03T08:47:49.771Z</time></trkpt><trkpt lat="39.7039788" lon="8.7276931"><ele>60.5</ele><time>2026-05-03T08:47:50.773Z</time></trkpt><trkpt lat="39.7040062" lon="8.7275305"><ele>60.25</ele><time>2026-05-03T08:47:51.773Z</time></trkpt><trkpt lat="39.7040258" lon="8.7273531"><ele>60.0</ele><time>2026-05-03T08:47:52.771Z</time></trkpt><trkpt lat="39.7040331" lon="8.7271663"><ele>60.0</ele><time>2026-05-03T08:47:53.772Z</time></trkpt><trkpt lat="39.7040434" lon="8.7269776"><ele>60.0</ele><time>2026-05-03T08:47:54.771Z</time></trkpt><trkpt lat="39.7040661" lon="8.7267964"><ele>60.0</ele><time>2026-05-03T08:47:55.773Z</time></trkpt><trkpt lat="39.7040995" lon="8.7266362"><ele>60.0</ele><time>2026-05-03T08:47:56.771Z</time></trkpt><trkpt lat="39.7041492" lon="8.7264867"><ele>60.0</ele><time>2026-05-03T08:47:57.772Z</time></trkpt><trkpt lat="39.704221" lon="8.7263342"><ele>60.0</ele><time>2026-05-03T08:47:58.771Z</time></trkpt><trkpt lat="39.70431" lon="8.7261891"><ele>60.0</ele><time>2026-05-03T08:47:59.772Z</time></trkpt><trkpt lat="39.7043993" lon="8.7260437"><ele>60.0</ele><time>2026-05-03T08:48:00.771Z</time></trkpt><trkpt lat="39.7044775" lon="8.7259276"><ele>59.8</ele><time>2026-05-03T08:48:01.771Z</time></trkpt><trkpt lat="39.7045415" lon="8.7258194"><ele>59.6</ele><time>2026-05-03T08:48:02.772Z</time></trkpt><trkpt lat="39.7045847" lon="8.7257077"><ele>59.400000000000006</ele><time>2026-05-03T08:48:03.772Z</time></trkpt><trkpt lat="39.7046057" lon="8.7255778"><ele>59.2</ele><time>2026-05-03T08:48:04.773Z</time></trkpt><trkpt lat="39.7046173" lon="8.7254201"><ele>59.0</ele><time>2026-05-03T08:48:05.773Z</time></trkpt><trkpt lat="39.7046145" lon="8.7252345"><ele>59.0</ele><time>2026-05-03T08:48:06.771Z</time></trkpt><trkpt lat="39.7046154" lon="8.7250479"><ele>59.0</ele><time>2026-05-03T08:48:07.772Z</time></trkpt><trkpt lat="39.7046224" lon="8.7248552"><ele>59.0</ele><time>2026-05-03T08:48:08.771Z</time></trkpt><trkpt lat="39.7046333" lon="8.7246778"><ele>59.0</ele><time>2026-05-03T08:48:09.771Z</time></trkpt><trkpt lat="39.7046626" lon="8.7245025"><ele>58.5</ele><time>2026-05-03T08:48:10.773Z</time></trkpt><trkpt lat="39.7046958" lon="8.724324"><ele>58.0</ele><time>2026-05-03T08:48:11.772Z</time></trkpt><trkpt lat="39.7047425" lon="8.7241547"><ele>57.5</ele><time>2026-05-03T08:48:12.771Z</time></trkpt><trkpt lat="39.704804" lon="8.7239942"><ele>57.0</ele><time>2026-05-03T08:48:13.771Z</time></trkpt><trkpt lat="39.7048815" lon="8.7238419"><ele>57.0</ele><time>2026-05-03T08:48:14.772Z</time></trkpt><trkpt lat="39.7049706" lon="8.7236973"><ele>57.0</ele><time>2026-05-03T08:48:15.771Z</time></trkpt><trkpt lat="39.7050649" lon="8.72356"><ele>57.0</ele><time>2026-05-03T08:48:16.772Z</time></trkpt><trkpt lat="39.7051535" lon="8.723436"><ele>57.0</ele><time>2026-05-03T08:48:17.772Z</time></trkpt><trkpt lat="39.7052195" lon="8.7233061"><ele>57.0</ele><time>2026-05-03T08:48:18.773Z</time></trkpt><trkpt lat="39.7052649" lon="8.7231596"><ele>57.0</ele><time>2026-05-03T08:48:19.772Z</time></trkpt><trkpt lat="39.7052947" lon="8.7229816"><ele>57.0</ele><time>2026-05-03T08:48:20.772Z</time></trkpt><trkpt lat="39.70532" lon="8.7227834"><ele>57.0</ele><time>2026-05-03T08:48:21.77Z</time></trkpt><trkpt lat="39.7053472" lon="8.7225863"><ele>56.33333333333333</ele><time>2026-05-03T08:48:22.772Z</time></trkpt><trkpt lat="39.7053729" lon="8.7223939"><ele>55.666666666666664</ele><time>2026-05-03T08:48:23.772Z</time></trkpt><trkpt lat="39.7054055" lon="8.7222009"><ele>55.0</ele><time>2026-05-03T08:48:24.771Z</time></trkpt><trkpt lat="39.7054389" lon="8.7220072"><ele>54.666666666666664</ele><time>2026-05-03T08:48:25.773Z</time></trkpt><trkpt lat="39.7054821" lon="8.7218168"><ele>54.33333333333333</ele><time>2026-05-03T08:48:26.772Z</time></trkpt><trkpt lat="39.7055339" lon="8.7216231"><ele>54.0</ele><time>2026-05-03T08:48:27.772Z</time></trkpt><trkpt lat="39.7055874" lon="8.7214469"><ele>54.0</ele><time>2026-05-03T08:48:28.771Z</time></trkpt><trkpt lat="39.7056547" lon="8.7212941"><ele>54.0</ele><time>2026-05-03T08:48:29.772Z</time></trkpt><trkpt lat="39.7057098" lon="8.7211746"><ele>54.0</ele><time>2026-05-03T08:48:30.772Z</time></trkpt><trkpt lat="39.7057906" lon="8.7210679"><ele>54.0</ele><time>2026-05-03T08:48:31.771Z</time></trkpt><trkpt lat="39.7058904" lon="8.7209788"><ele>53.5</ele><time>2026-05-03T08:48:32.772Z</time></trkpt><trkpt lat="39.7060143" lon="8.7209003"><ele>53.0</ele><time>2026-05-03T08:48:33.772Z</time></trkpt><trkpt lat="39.7061523" lon="8.7208249"><ele>52.5</ele><time>2026-05-03T08:48:34.772Z</time></trkpt><trkpt lat="39.7062951" lon="8.7207472"><ele>52.0</ele><time>2026-05-03T08:48:35.771Z</time></trkpt><trkpt lat="39.7064279" lon="8.7206683"><ele>52.0</ele><time>2026-05-03T08:48:36.772Z</time></trkpt><trkpt lat="39.7065533" lon="8.7205796"><ele>52.0</ele><time>2026-05-03T08:48:37.772Z</time></trkpt><trkpt lat="39.7066723" lon="8.7204594"><ele>52.0</ele><time>2026-05-03T08:48:38.772Z</time></trkpt><trkpt lat="39.7067835" lon="8.7203112"><ele>51.33333333333333</ele><time>2026-05-03T08:48:39.772Z</time></trkpt><trkpt lat="39.7068972" lon="8.7201354"><ele>50.66666666666667</ele><time>2026-05-03T08:48:40.771Z</time></trkpt><trkpt lat="39.7070119" lon="8.7199435"><ele>50.0</ele><time>2026-05-03T08:48:41.773Z</time></trkpt><trkpt lat="39.7071327" lon="8.7197354"><ele>49.66666666666667</ele><time>2026-05-03T08:48:42.772Z</time></trkpt><trkpt lat="39.7072548" lon="8.7195387"><ele>49.33333333333333</ele><time>2026-05-03T08:48:43.771Z</time></trkpt><trkpt lat="39.7073834" lon="8.719321"><ele>49.0</ele><time>2026-05-03T08:48:44.771Z</time></trkpt><trkpt lat="39.7075151" lon="8.7191056"><ele>49.33333333333333</ele><time>2026-05-03T08:48:45.772Z</time></trkpt><trkpt lat="39.7076517" lon="8.7188842"><ele>49.66666666666667</ele><time>2026-05-03T08:48:46.771Z</time></trkpt><trkpt lat="39.7077764" lon="8.7186795"><ele>50.0</ele><time>2026-05-03T08:48:47.771Z</time></trkpt><trkpt lat="39.7078985" lon="8.7184791"><ele>49.333333333333336</ele><time>2026-05-03T08:48:48.771Z</time></trkpt><trkpt lat="39.7080085" lon="8.7182703"><ele>48.66666666666667</ele><time>2026-05-03T08:48:49.773Z</time></trkpt><trkpt lat="39.7081219" lon="8.7180561"><ele>48.0</ele><time>2026-05-03T08:48:50.77Z</time></trkpt><trkpt lat="39.7082146" lon="8.7178348"><ele>48.66666666666667</ele><time>2026-05-03T08:48:51.771Z</time></trkpt><trkpt lat="39.7083019" lon="8.7176111"><ele>49.333333333333336</ele><time>2026-05-03T08:48:52.771Z</time></trkpt><trkpt lat="39.7083826" lon="8.7174028"><ele>50.0</ele><time>2026-05-03T08:48:53.772Z</time></trkpt><trkpt lat="39.7084556" lon="8.7172103"><ele>50.0</ele><time>2026-05-03T08:48:54.771Z</time></trkpt><trkpt lat="39.7085347" lon="8.7170319"><ele>50.0</ele><time>2026-05-03T08:48:55.771Z</time></trkpt><trkpt lat="39.7086279" lon="8.7168676"><ele>50.0</ele><time>2026-05-03T08:48:56.772Z</time></trkpt><trkpt lat="39.7087372" lon="8.7167036"><ele>50.66666666666667</ele><time>2026-05-03T08:48:57.772Z</time></trkpt><trkpt lat="39.7088528" lon="8.7165346"><ele>51.33333333333333</ele><time>2026-05-03T08:48:58.771Z</time></trkpt><trkpt lat="39.7089738" lon="8.7163571"><ele>52.0</ele><time>2026-05-03T08:48:59.772Z</time></trkpt><trkpt lat="39.7091005" lon="8.7161829"><ele>52.666666666666664</ele><time>2026-05-03T08:49:00.772Z</time></trkpt><trkpt lat="39.7092309" lon="8.7160013"><ele>53.33333333333333</ele><time>2026-05-03T08:49:01.77Z</time></trkpt><trkpt lat="39.7093668" lon="8.7158249"><ele>54.0</ele><time>2026-05-03T08:49:02.771Z</time></trkpt><trkpt lat="39.7095121" lon="8.7156435"><ele>54.66666666666667</ele><time>2026-05-03T08:49:03.771Z</time></trkpt><trkpt lat="39.7096694" lon="8.7154517"><ele>55.333333333333336</ele><time>2026-05-03T08:49:04.772Z</time></trkpt><trkpt lat="39.7098349" lon="8.7152529"><ele>56.0</ele><time>2026-05-03T08:49:05.77Z</time></trkpt><trkpt lat="39.7100034" lon="8.7150421"><ele>56.5</ele><time>2026-05-03T08:49:06.772Z</time></trkpt><trkpt lat="39.7101691" lon="8.7148317"><ele>57.0</ele><time>2026-05-03T08:49:07.771Z</time></trkpt><trkpt lat="39.7103313" lon="8.7146324"><ele>57.33333333333333</ele><time>2026-05-03T08:49:08.772Z</time></trkpt><trkpt lat="39.7104852" lon="8.7144487"><ele>57.666666666666664</ele><time>2026-05-03T08:49:09.772Z</time></trkpt><trkpt lat="39.7106372" lon="8.714262"><ele>58.0</ele><time>2026-05-03T08:49:10.77Z</time></trkpt><trkpt lat="39.7107832" lon="8.7140816"><ele>58.0</ele><time>2026-05-03T08:49:11.772Z</time></trkpt><trkpt lat="39.7109236" lon="8.7139024"><ele>58.0</ele><time>2026-05-03T08:49:12.772Z</time></trkpt><trkpt lat="39.7110651" lon="8.7137135"><ele>58.0</ele><time>2026-05-03T08:49:13.772Z</time></trkpt><trkpt lat="39.7111974" lon="8.7135392"><ele>58.666666666666664</ele><time>2026-05-03T08:49:14.771Z</time></trkpt><trkpt lat="39.7113275" lon="8.7133663"><ele>59.33333333333333</ele><time>2026-05-03T08:49:15.773Z</time></trkpt><trkpt lat="39.7114608" lon="8.7131913"><ele>60.0</ele><time>2026-05-03T08:49:16.771Z</time></trkpt><trkpt lat="39.7115899" lon="8.7130226"><ele>60.0</ele><time>2026-05-03T08:49:17.772Z</time></trkpt><trkpt lat="39.7117148" lon="8.7128588"><ele>60.0</ele><time>2026-05-03T08:49:18.773Z</time></trkpt><trkpt lat="39.7118361" lon="8.7126963"><ele>60.0</ele><time>2026-05-03T08:49:19.772Z</time></trkpt><trkpt lat="39.7119581" lon="8.7125339"><ele>59.66666666666667</ele><time>2026-05-03T08:49:20.772Z</time></trkpt><trkpt lat="39.7120788" lon="8.7123773"><ele>59.333333333333336</ele><time>2026-05-03T08:49:21.771Z</time></trkpt><trkpt lat="39.7121928" lon="8.712222"><ele>59.0</ele><time>2026-05-03T08:49:22.771Z</time></trkpt><trkpt lat="39.7123" lon="8.7120835"><ele>59.0</ele><time>2026-05-03T08:49:23.77Z</time></trkpt><trkpt lat="39.7124033" lon="8.711946"><ele>59.0</ele><time>2026-05-03T08:49:24.772Z</time></trkpt><trkpt lat="39.7125113" lon="8.7118151"><ele>59.0</ele><time>2026-05-03T08:49:25.773Z</time></trkpt><trkpt lat="39.7126152" lon="8.7116904"><ele>59.0</ele><time>2026-05-03T08:49:26.772Z</time></trkpt><trkpt lat="39.7127178" lon="8.7115818"><ele>57.75</ele><time>2026-05-03T08:49:27.771Z</time></trkpt><trkpt lat="39.7128222" lon="8.7114764"><ele>56.5</ele><time>2026-05-03T08:49:28.771Z</time></trkpt><trkpt lat="39.7129396" lon="8.7113624"><ele>55.25</ele><time>2026-05-03T08:49:29.772Z</time></trkpt><trkpt lat="39.7130554" lon="8.7112422"><ele>54.0</ele><time>2026-05-03T08:49:30.771Z</time></trkpt><trkpt lat="39.7131751" lon="8.7111243"><ele>52.33333333333333</ele><time>2026-05-03T08:49:31.771Z</time></trkpt><trkpt lat="39.7132991" lon="8.7110028"><ele>50.666666666666664</ele><time>2026-05-03T08:49:32.771Z</time></trkpt><trkpt lat="39.7134283" lon="8.7108809"><ele>49.0</ele><time>2026-05-03T08:49:33.772Z</time></trkpt><trkpt lat="39.7135509" lon="8.7107566"><ele>49.0</ele><time>2026-05-03T08:49:34.771Z</time></trkpt><trkpt lat="39.7136738" lon="8.7106337"><ele>49.0</ele><time>2026-05-03T08:49:35.772Z</time></trkpt><trkpt lat="39.713796" lon="8.710517"><ele>49.0</ele><time>2026-05-03T08:49:36.771Z</time></trkpt><trkpt lat="39.7139184" lon="8.710397"><ele>49.0</ele><time>2026-05-03T08:49:37.772Z</time></trkpt><trkpt lat="39.7140352" lon="8.7102854"><ele>49.0</ele><time>2026-05-03T08:49:38.771Z</time></trkpt><trkpt lat="39.7141501" lon="8.7101768"><ele>49.0</ele><time>2026-05-03T08:49:39.77Z</time></trkpt><trkpt lat="39.7142625" lon="8.7100734"><ele>49.0</ele><time>2026-05-03T08:49:40.773Z</time></trkpt><trkpt lat="39.714372" lon="8.7099792"><ele>48.0</ele><time>2026-05-03T08:49:41.77Z</time></trkpt><trkpt lat="39.7144822" lon="8.7098827"><ele>47.0</ele><time>2026-05-03T08:49:42.773Z</time></trkpt><trkpt lat="39.7145862" lon="8.7097862"><ele>46.0</ele><time>2026-05-03T08:49:43.772Z</time></trkpt><trkpt lat="39.7146897" lon="8.7096929"><ele>45.0</ele><time>2026-05-03T08:49:44.771Z</time></trkpt><trkpt lat="39.7147897" lon="8.7096046"><ele>45.0</ele><time>2026-05-03T08:49:45.772Z</time></trkpt><trkpt lat="39.7148841" lon="8.709521"><ele>45.0</ele><time>2026-05-03T08:49:46.772Z</time></trkpt><trkpt lat="39.7149765" lon="8.7094307"><ele>45.0</ele><time>2026-05-03T08:49:47.771Z</time></trkpt><trkpt lat="39.7150764" lon="8.7093403"><ele>45.0</ele><time>2026-05-03T08:49:48.773Z</time></trkpt><trkpt lat="39.7151823" lon="8.7092476"><ele>44.75</ele><time>2026-05-03T08:49:49.773Z</time></trkpt><trkpt lat="39.7152915" lon="8.7091478"><ele>44.5</ele><time>2026-05-03T08:49:50.772Z</time></trkpt><trkpt lat="39.7154045" lon="8.7090507"><ele>44.25</ele><time>2026-05-03T08:49:51.77Z</time></trkpt><trkpt lat="39.7155178" lon="8.7089549"><ele>44.0</ele><time>2026-05-03T08:49:52.772Z</time></trkpt><trkpt lat="39.7156328" lon="8.7088568"><ele>44.0</ele><time>2026-05-03T08:49:53.771Z</time></trkpt><trkpt lat="39.7157489" lon="8.7087564"><ele>44.0</ele><time>2026-05-03T08:49:54.772Z</time></trkpt><trkpt lat="39.7158745" lon="8.7086607"><ele>44.0</ele><time>2026-05-03T08:49:55.773Z</time></trkpt><trkpt lat="39.7160002" lon="8.708556"><ele>44.0</ele><time>2026-05-03T08:49:56.771Z</time></trkpt><trkpt lat="39.716127" lon="8.7084466"><ele>42.0</ele><time>2026-05-03T08:49:57.77Z</time></trkpt><trkpt lat="39.7162515" lon="8.7083325"><ele>40.0</ele><time>2026-05-03T08:49:58.772Z</time></trkpt><trkpt lat="39.7163779" lon="8.7082225"><ele>38.0</ele><time>2026-05-03T08:49:59.771Z</time></trkpt><trkpt lat="39.7165039" lon="8.7081081"><ele>38.0</ele><time>2026-05-03T08:50:00.771Z</time></trkpt><trkpt lat="39.716637" lon="8.7079847"><ele>38.0</ele><time>2026-05-03T08:50:01.771Z</time></trkpt><trkpt lat="39.716766" lon="8.7078584"><ele>38.0</ele><time>2026-05-03T08:50:02.772Z</time></trkpt><trkpt lat="39.716897" lon="8.7077371"><ele>38.0</ele><time>2026-05-03T08:50:03.772Z</time></trkpt><trkpt lat="39.7170305" lon="8.7076132"><ele>38.0</ele><time>2026-05-03T08:50:04.771Z</time></trkpt><trkpt lat="39.7171657" lon="8.7074883"><ele>38.0</ele><time>2026-05-03T08:50:05.773Z</time></trkpt><trkpt lat="39.7172941" lon="8.707356"><ele>38.0</ele><time>2026-05-03T08:50:06.771Z</time></trkpt><trkpt lat="39.7174258" lon="8.7072253"><ele>38.0</ele><time>2026-05-03T08:50:07.772Z</time></trkpt><trkpt lat="39.7175595" lon="8.7070893"><ele>38.0</ele><time>2026-05-03T08:50:08.771Z</time></trkpt><trkpt lat="39.7176864" lon="8.706958"><ele>38.666666666666664</ele><time>2026-05-03T08:50:09.772Z</time></trkpt><trkpt lat="39.7178127" lon="8.7068288"><ele>39.333333333333336</ele><time>2026-05-03T08:50:10.771Z</time></trkpt><trkpt lat="39.7179352" lon="8.706706"><ele>40.0</ele><time>2026-05-03T08:50:11.771Z</time></trkpt><trkpt lat="39.7180474" lon="8.7065952"><ele>40.0</ele><time>2026-05-03T08:50:12.772Z</time></trkpt><trkpt lat="39.7181481" lon="8.7064895"><ele>40.0</ele><time>2026-05-03T08:50:13.772Z</time></trkpt><trkpt lat="39.7182464" lon="8.7063856"><ele>40.0</ele><time>2026-05-03T08:50:14.772Z</time></trkpt><trkpt lat="39.7183338" lon="8.7062963"><ele>40.0</ele><time>2026-05-03T08:50:15.772Z</time></trkpt><trkpt lat="39.7184113" lon="8.706219"><ele>40.0</ele><time>2026-05-03T08:50:16.772Z</time></trkpt><trkpt lat="39.7184731" lon="8.7061516"><ele>40.0</ele><time>2026-05-03T08:50:17.772Z</time></trkpt><trkpt lat="39.7185197" lon="8.7060801"><ele>40.0</ele><time>2026-05-03T08:50:18.771Z</time></trkpt><trkpt lat="39.7185608" lon="8.7059517"><ele>40.0</ele><time>2026-05-03T08:50:20.771Z</time></trkpt><trkpt lat="39.7185247" lon="8.7058478"><ele>40.0</ele><time>2026-05-03T08:50:22.772Z</time></trkpt><trkpt lat="39.7184652" lon="8.7057754"><ele>40.0</ele><time>2026-05-03T08:50:24.772Z</time></trkpt><trkpt lat="39.7184302" lon="8.7057006"><ele>40.0</ele><time>2026-05-03T08:50:26.77Z</time></trkpt><trkpt lat="39.718497" lon="8.7056237"><ele>40.0</ele><time>2026-05-03T08:50:29.771Z</time></trkpt><trkpt lat="39.71863" lon="8.7056165"><ele>40.0</ele><time>2026-05-03T08:50:31.771Z</time></trkpt><trkpt lat="39.7187044" lon="8.7055985"><ele>40.0</ele><time>2026-05-03T08:50:32.772Z</time></trkpt><trkpt lat="39.7187913" lon="8.7055556"><ele>40.0</ele><time>2026-05-03T08:50:33.771Z</time></trkpt><trkpt lat="39.7188831" lon="8.7054921"><ele>40.0</ele><time>2026-05-03T08:50:34.772Z</time></trkpt><trkpt lat="39.7189692" lon="8.7054082"><ele>40.0</ele><time>2026-05-03T08:50:35.772Z</time></trkpt><trkpt lat="39.7190477" lon="8.7053015"><ele>40.0</ele><time>2026-05-03T08:50:36.772Z</time></trkpt><trkpt lat="39.719119" lon="8.705138"><ele>40.0</ele><time>2026-05-03T08:50:37.772Z</time></trkpt><trkpt lat="39.7191912" lon="8.7049709"><ele>40.0</ele><time>2026-05-03T08:50:38.77Z</time></trkpt><trkpt lat="39.7192659" lon="8.7048003"><ele>40.0</ele><time>2026-05-03T08:50:39.77Z</time></trkpt><trkpt lat="39.7193416" lon="8.7046178"><ele>40.0</ele><time>2026-05-03T08:50:40.772Z</time></trkpt><trkpt lat="39.7194132" lon="8.7044449"><ele>41.0</ele><time>2026-05-03T08:50:41.772Z</time></trkpt><trkpt lat="39.7194845" lon="8.70427"><ele>42.0</ele><time>2026-05-03T08:50:42.772Z</time></trkpt><trkpt lat="39.7195625" lon="8.7040926"><ele>43.0</ele><time>2026-05-03T08:50:43.77Z</time></trkpt><trkpt lat="39.7196383" lon="8.7039307"><ele>43.0</ele><time>2026-05-03T08:50:44.772Z</time></trkpt><trkpt lat="39.7197219" lon="8.7037662"><ele>43.0</ele><time>2026-05-03T08:50:45.77Z</time></trkpt><trkpt lat="39.7198084" lon="8.7036005"><ele>43.0</ele><time>2026-05-03T08:50:46.772Z</time></trkpt><trkpt lat="39.719894" lon="8.7034328"><ele>42.75</ele><time>2026-05-03T08:50:47.773Z</time></trkpt><trkpt lat="39.7199735" lon="8.7032582"><ele>42.5</ele><time>2026-05-03T08:50:48.77Z</time></trkpt><trkpt lat="39.7200455" lon="8.7030854"><ele>42.25</ele><time>2026-05-03T08:50:49.772Z</time></trkpt><trkpt lat="39.720106" lon="8.7029273"><ele>42.0</ele><time>2026-05-03T08:50:50.771Z</time></trkpt><trkpt lat="39.7201614" lon="8.7027716"><ele>42.0</ele><time>2026-05-03T08:50:51.772Z</time></trkpt><trkpt lat="39.7202147" lon="8.7026205"><ele>42.0</ele><time>2026-05-03T08:50:52.77Z</time></trkpt><trkpt lat="39.7202677" lon="8.7024509"><ele>42.0</ele><time>2026-05-03T08:50:53.773Z</time></trkpt><trkpt lat="39.7203213" lon="8.7022795"><ele>42.0</ele><time>2026-05-03T08:50:54.772Z</time></trkpt><trkpt lat="39.7203669" lon="8.7021051"><ele>42.0</ele><time>2026-05-03T08:50:55.773Z</time></trkpt><trkpt lat="39.720409" lon="8.7019289"><ele>42.0</ele><time>2026-05-03T08:50:56.772Z</time></trkpt><trkpt lat="39.7204473" lon="8.7017603"><ele>42.0</ele><time>2026-05-03T08:50:57.77Z</time></trkpt><trkpt lat="39.720491" lon="8.7015902"><ele>42.0</ele><time>2026-05-03T08:50:58.773Z</time></trkpt><trkpt lat="39.7205382" lon="8.7014276"><ele>42.0</ele><time>2026-05-03T08:50:59.772Z</time></trkpt><trkpt lat="39.7205951" lon="8.7012691"><ele>42.0</ele><time>2026-05-03T08:51:00.771Z</time></trkpt><trkpt lat="39.720643" lon="8.7011027"><ele>42.0</ele><time>2026-05-03T08:51:01.772Z</time></trkpt><trkpt lat="39.7206829" lon="8.7009294"><ele>42.0</ele><time>2026-05-03T08:51:02.771Z</time></trkpt><trkpt lat="39.7207275" lon="8.7007497"><ele>41.333333333333336</ele><time>2026-05-03T08:51:03.772Z</time></trkpt><trkpt lat="39.7207738" lon="8.7005656"><ele>40.66666666666667</ele><time>2026-05-03T08:51:04.772Z</time></trkpt><trkpt lat="39.7208245" lon="8.7003717"><ele>40.0</ele><time>2026-05-03T08:51:05.772Z</time></trkpt><trkpt lat="39.7208739" lon="8.7001765"><ele>40.0</ele><time>2026-05-03T08:51:06.771Z</time></trkpt><trkpt lat="39.7209243" lon="8.6999897"><ele>40.0</ele><time>2026-05-03T08:51:07.772Z</time></trkpt><trkpt lat="39.7209614" lon="8.6998209"><ele>40.0</ele><time>2026-05-03T08:51:08.772Z</time></trkpt><trkpt lat="39.7210006" lon="8.6996622"><ele>40.0</ele><time>2026-05-03T08:51:09.772Z</time></trkpt><trkpt lat="39.7210339" lon="8.699512"><ele>40.5</ele><time>2026-05-03T08:51:10.773Z</time></trkpt><trkpt lat="39.7210673" lon="8.6993613"><ele>41.0</ele><time>2026-05-03T08:51:11.771Z</time></trkpt><trkpt lat="39.7211113" lon="8.6991969"><ele>41.5</ele><time>2026-05-03T08:51:12.771Z</time></trkpt><trkpt lat="39.7211545" lon="8.6990315"><ele>42.0</ele><time>2026-05-03T08:51:13.772Z</time></trkpt><trkpt lat="39.7212059" lon="8.6988632"><ele>42.0</ele><time>2026-05-03T08:51:14.771Z</time></trkpt><trkpt lat="39.7212512" lon="8.6986814"><ele>42.0</ele><time>2026-05-03T08:51:15.772Z</time></trkpt><trkpt lat="39.7212978" lon="8.6985104"><ele>42.0</ele><time>2026-05-03T08:51:16.772Z</time></trkpt><trkpt lat="39.7213454" lon="8.6983403"><ele>42.0</ele><time>2026-05-03T08:51:17.771Z</time></trkpt><trkpt lat="39.72139" lon="8.6981708"><ele>42.0</ele><time>2026-05-03T08:51:18.772Z</time></trkpt><trkpt lat="39.7214362" lon="8.6980167"><ele>42.0</ele><time>2026-05-03T08:51:19.772Z</time></trkpt><trkpt lat="39.7214684" lon="8.6978603"><ele>42.0</ele><time>2026-05-03T08:51:20.77Z</time></trkpt><trkpt lat="39.7215033" lon="8.6977004"><ele>42.0</ele><time>2026-05-03T08:51:21.77Z</time></trkpt><trkpt lat="39.721541" lon="8.697532"><ele>42.0</ele><time>2026-05-03T08:51:22.771Z</time></trkpt><trkpt lat="39.7215864" lon="8.6973594"><ele>42.0</ele><time>2026-05-03T08:51:23.77Z</time></trkpt><trkpt lat="39.7216384" lon="8.6971834"><ele>42.0</ele><time>2026-05-03T08:51:24.772Z</time></trkpt><trkpt lat="39.7216904" lon="8.6969937"><ele>42.0</ele><time>2026-05-03T08:51:25.771Z</time></trkpt><trkpt lat="39.7217369" lon="8.6967965"><ele>42.0</ele><time>2026-05-03T08:51:26.77Z</time></trkpt><trkpt lat="39.7217824" lon="8.6966"><ele>42.0</ele><time>2026-05-03T08:51:27.773Z</time></trkpt><trkpt lat="39.7218349" lon="8.6964089"><ele>42.0</ele><time>2026-05-03T08:51:28.772Z</time></trkpt><trkpt lat="39.7218889" lon="8.6962172"><ele>42.333333333333336</ele><time>2026-05-03T08:51:29.773Z</time></trkpt><trkpt lat="39.7219493" lon="8.6960247"><ele>42.66666666666667</ele><time>2026-05-03T08:51:30.772Z</time></trkpt><trkpt lat="39.7220011" lon="8.6958257"><ele>43.0</ele><time>2026-05-03T08:51:31.771Z</time></trkpt><trkpt lat="39.7220512" lon="8.6956202"><ele>43.0</ele><time>2026-05-03T08:51:32.771Z</time></trkpt><trkpt lat="39.7221045" lon="8.6954121"><ele>43.0</ele><time>2026-05-03T08:51:33.772Z</time></trkpt><trkpt lat="39.7221603" lon="8.6951998"><ele>43.0</ele><time>2026-05-03T08:51:34.771Z</time></trkpt><trkpt lat="39.7222224" lon="8.6949865"><ele>42.333333333333336</ele><time>2026-05-03T08:51:35.772Z</time></trkpt><trkpt lat="39.7222845" lon="8.6947674"><ele>41.666666666666664</ele><time>2026-05-03T08:51:36.772Z</time></trkpt><trkpt lat="39.7223437" lon="8.6945468"><ele>41.0</ele><time>2026-05-03T08:51:37.772Z</time></trkpt><trkpt lat="39.7223997" lon="8.694319"><ele>40.666666666666664</ele><time>2026-05-03T08:51:38.773Z</time></trkpt><trkpt lat="39.7224562" lon="8.6940945"><ele>40.333333333333336</ele><time>2026-05-03T08:51:39.77Z</time></trkpt><trkpt lat="39.7225129" lon="8.6938768"><ele>40.0</ele><time>2026-05-03T08:51:40.772Z</time></trkpt><trkpt lat="39.7225698" lon="8.6936559"><ele>40.0</ele><time>2026-05-03T08:51:41.772Z</time></trkpt><trkpt lat="39.7226224" lon="8.6934557"><ele>40.0</ele><time>2026-05-03T08:51:42.773Z</time></trkpt><trkpt lat="39.7226729" lon="8.6932696"><ele>40.0</ele><time>2026-05-03T08:51:43.773Z</time></trkpt><trkpt lat="39.7227198" lon="8.6930983"><ele>40.6</ele><time>2026-05-03T08:51:44.772Z</time></trkpt><trkpt lat="39.7227634" lon="8.6929486"><ele>41.2</ele><time>2026-05-03T08:51:45.772Z</time></trkpt><trkpt lat="39.7228001" lon="8.6928055"><ele>41.8</ele><time>2026-05-03T08:51:46.771Z</time></trkpt><trkpt lat="39.7228339" lon="8.6927061"><ele>42.4</ele><time>2026-05-03T08:51:47.772Z</time></trkpt><trkpt lat="39.7228804" lon="8.6925889"><ele>43.0</ele><time>2026-05-03T08:51:48.771Z</time></trkpt><trkpt lat="39.7229392" lon="8.692476"><ele>43.0</ele><time>2026-05-03T08:51:49.771Z</time></trkpt><trkpt lat="39.7230136" lon="8.6923627"><ele>43.0</ele><time>2026-05-03T08:51:50.772Z</time></trkpt><trkpt lat="39.7230974" lon="8.6922477"><ele>43.0</ele><time>2026-05-03T08:51:51.771Z</time></trkpt><trkpt lat="39.7231877" lon="8.6921479"><ele>43.0</ele><time>2026-05-03T08:51:52.772Z</time></trkpt><trkpt lat="39.7232873" lon="8.6920629"><ele>43.0</ele><time>2026-05-03T08:51:53.771Z</time></trkpt><trkpt lat="39.7233963" lon="8.6919762"><ele>43.0</ele><time>2026-05-03T08:51:54.771Z</time></trkpt><trkpt lat="39.7235115" lon="8.6919107"><ele>43.0</ele><time>2026-05-03T08:51:55.77Z</time></trkpt><trkpt lat="39.7236219" lon="8.6918464"><ele>43.0</ele><time>2026-05-03T08:51:56.77Z</time></trkpt><trkpt lat="39.7237301" lon="8.6917848"><ele>43.0</ele><time>2026-05-03T08:51:57.772Z</time></trkpt><trkpt lat="39.7238295" lon="8.6917237"><ele>43.0</ele><time>2026-05-03T08:51:58.771Z</time></trkpt><trkpt lat="39.7239172" lon="8.6916706"><ele>43.0</ele><time>2026-05-03T08:51:59.772Z</time></trkpt><trkpt lat="39.7240033" lon="8.6916223"><ele>43.0</ele><time>2026-05-03T08:52:00.771Z</time></trkpt><trkpt lat="39.7240935" lon="8.6915708"><ele>43.0</ele><time>2026-05-03T08:52:01.772Z</time></trkpt><trkpt lat="39.7241953" lon="8.6915127"><ele>43.0</ele><time>2026-05-03T08:52:02.77Z</time></trkpt><trkpt lat="39.7243121" lon="8.6914474"><ele>43.0</ele><time>2026-05-03T08:52:03.771Z</time></trkpt><trkpt lat="39.7244429" lon="8.691373"><ele>43.0</ele><time>2026-05-03T08:52:04.771Z</time></trkpt><trkpt lat="39.7245758" lon="8.6912992"><ele>43.0</ele><time>2026-05-03T08:52:05.772Z</time></trkpt><trkpt lat="39.724717" lon="8.6912262"><ele>43.0</ele><time>2026-05-03T08:52:06.772Z</time></trkpt><trkpt lat="39.7248641" lon="8.6911401"><ele>43.0</ele><time>2026-05-03T08:52:07.771Z</time></trkpt><trkpt lat="39.7250159" lon="8.6910525"><ele>43.0</ele><time>2026-05-03T08:52:08.771Z</time></trkpt><trkpt lat="39.7251732" lon="8.6909674"><ele>44.0</ele><time>2026-05-03T08:52:09.771Z</time></trkpt><trkpt lat="39.7253312" lon="8.6908766"><ele>45.0</ele><time>2026-05-03T08:52:10.771Z</time></trkpt><trkpt lat="39.7254895" lon="8.6907878"><ele>46.0</ele><time>2026-05-03T08:52:11.771Z</time></trkpt><trkpt lat="39.7256478" lon="8.690694"><ele>46.0</ele><time>2026-05-03T08:52:12.77Z</time></trkpt><trkpt lat="39.7258074" lon="8.6906007"><ele>46.0</ele><time>2026-05-03T08:52:13.772Z</time></trkpt><trkpt lat="39.7259674" lon="8.6905133"><ele>46.0</ele><time>2026-05-03T08:52:14.77Z</time></trkpt><trkpt lat="39.7261282" lon="8.6904201"><ele>46.333333333333336</ele><time>2026-05-03T08:52:15.771Z</time></trkpt><trkpt lat="39.7262906" lon="8.6903258"><ele>46.666666666666664</ele><time>2026-05-03T08:52:16.771Z</time></trkpt><trkpt lat="39.7264511" lon="8.6902303"><ele>47.0</ele><time>2026-05-03T08:52:17.771Z</time></trkpt><trkpt lat="39.726617" lon="8.6901291"><ele>47.0</ele><time>2026-05-03T08:52:18.772Z</time></trkpt><trkpt lat="39.7267795" lon="8.6900331"><ele>47.0</ele><time>2026-05-03T08:52:19.771Z</time></trkpt><trkpt lat="39.726945" lon="8.6899309"><ele>47.0</ele><time>2026-05-03T08:52:20.77Z</time></trkpt><trkpt lat="39.7271148" lon="8.6898331"><ele>47.666666666666664</ele><time>2026-05-03T08:52:21.772Z</time></trkpt><trkpt lat="39.7272817" lon="8.6897342"><ele>48.33333333333333</ele><time>2026-05-03T08:52:22.771Z</time></trkpt><trkpt lat="39.7274552" lon="8.6896366"><ele>49.0</ele><time>2026-05-03T08:52:23.771Z</time></trkpt><trkpt lat="39.727627" lon="8.6895357"><ele>49.33333333333333</ele><time>2026-05-03T08:52:24.772Z</time></trkpt><trkpt lat="39.7278036" lon="8.689437"><ele>49.66666666666667</ele><time>2026-05-03T08:52:25.771Z</time></trkpt><trkpt lat="39.7279799" lon="8.6893322"><ele>50.0</ele><time>2026-05-03T08:52:26.772Z</time></trkpt><trkpt lat="39.7281573" lon="8.6892289"><ele>50.0</ele><time>2026-05-03T08:52:27.773Z</time></trkpt><trkpt lat="39.728335" lon="8.689127"><ele>50.0</ele><time>2026-05-03T08:52:28.771Z</time></trkpt><trkpt lat="39.7285171" lon="8.6890225"><ele>50.0</ele><time>2026-05-03T08:52:29.773Z</time></trkpt><trkpt lat="39.7286979" lon="8.6889175"><ele>50.333333333333336</ele><time>2026-05-03T08:52:30.77Z</time></trkpt><trkpt lat="39.7288776" lon="8.6888048"><ele>50.66666666666667</ele><time>2026-05-03T08:52:31.772Z</time></trkpt><trkpt lat="39.7290596" lon="8.6886931"><ele>51.0</ele><time>2026-05-03T08:52:32.771Z</time></trkpt><trkpt lat="39.7292465" lon="8.6885768"><ele>51.66666666666667</ele><time>2026-05-03T08:52:33.772Z</time></trkpt><trkpt lat="39.7294376" lon="8.6884679"><ele>52.333333333333336</ele><time>2026-05-03T08:52:34.771Z</time></trkpt><trkpt lat="39.7296195" lon="8.6883617"><ele>53.0</ele><time>2026-05-03T08:52:35.773Z</time></trkpt><trkpt lat="39.729793" lon="8.6882652"><ele>53.0</ele><time>2026-05-03T08:52:36.772Z</time></trkpt><trkpt lat="39.7299564" lon="8.6881735"><ele>53.0</ele><time>2026-05-03T08:52:37.771Z</time></trkpt><trkpt lat="39.7301017" lon="8.6880894"><ele>53.0</ele><time>2026-05-03T08:52:38.771Z</time></trkpt><trkpt lat="39.7302425" lon="8.6880056"><ele>53.333333333333336</ele><time>2026-05-03T08:52:39.771Z</time></trkpt><trkpt lat="39.7303886" lon="8.6879251"><ele>53.66666666666667</ele><time>2026-05-03T08:52:40.771Z</time></trkpt><trkpt lat="39.730544" lon="8.6878434"><ele>54.0</ele><time>2026-05-03T08:52:41.771Z</time></trkpt><trkpt lat="39.7307055" lon="8.687751"><ele>54.0</ele><time>2026-05-03T08:52:42.773Z</time></trkpt><trkpt lat="39.7308701" lon="8.6876577"><ele>54.0</ele><time>2026-05-03T08:52:43.77Z</time></trkpt><trkpt lat="39.7310336" lon="8.6875694"><ele>54.0</ele><time>2026-05-03T08:52:44.772Z</time></trkpt><trkpt lat="39.7312013" lon="8.6874791"><ele>54.33333333333333</ele><time>2026-05-03T08:52:45.771Z</time></trkpt><trkpt lat="39.7313698" lon="8.6873889"><ele>54.666666666666664</ele><time>2026-05-03T08:52:46.77Z</time></trkpt><trkpt lat="39.7315349" lon="8.6872901"><ele>55.0</ele><time>2026-05-03T08:52:47.771Z</time></trkpt><trkpt lat="39.7317033" lon="8.6871951"><ele>55.0</ele><time>2026-05-03T08:52:48.771Z</time></trkpt><trkpt lat="39.7318705" lon="8.6871017"><ele>55.0</ele><time>2026-05-03T08:52:49.772Z</time></trkpt><trkpt lat="39.7320381" lon="8.6870086"><ele>55.0</ele><time>2026-05-03T08:52:50.772Z</time></trkpt><trkpt lat="39.7322072" lon="8.6869258"><ele>55.0</ele><time>2026-05-03T08:52:51.771Z</time></trkpt><trkpt lat="39.7323733" lon="8.6868435"><ele>55.0</ele><time>2026-05-03T08:52:52.77Z</time></trkpt><trkpt lat="39.7325456" lon="8.6867525"><ele>55.0</ele><time>2026-05-03T08:52:53.771Z</time></trkpt><trkpt lat="39.7327138" lon="8.6866595"><ele>55.666666666666664</ele><time>2026-05-03T08:52:54.771Z</time></trkpt><trkpt lat="39.7328824" lon="8.6865697"><ele>56.33333333333333</ele><time>2026-05-03T08:52:55.77Z</time></trkpt><trkpt lat="39.733049" lon="8.6864803"><ele>57.0</ele><time>2026-05-03T08:52:56.773Z</time></trkpt><trkpt lat="39.7332179" lon="8.6863875"><ele>57.0</ele><time>2026-05-03T08:52:57.771Z</time></trkpt><trkpt lat="39.7333806" lon="8.6862946"><ele>57.0</ele><time>2026-05-03T08:52:58.773Z</time></trkpt><trkpt lat="39.7335371" lon="8.6862031"><ele>57.0</ele><time>2026-05-03T08:52:59.77Z</time></trkpt><trkpt lat="39.7336966" lon="8.6861239"><ele>57.0</ele><time>2026-05-03T08:53:00.772Z</time></trkpt><trkpt lat="39.7338473" lon="8.6860512"><ele>57.0</ele><time>2026-05-03T08:53:01.771Z</time></trkpt><trkpt lat="39.7340114" lon="8.6859673"><ele>57.0</ele><time>2026-05-03T08:53:02.771Z</time></trkpt><trkpt lat="39.7341794" lon="8.6858787"><ele>57.0</ele><time>2026-05-03T08:53:03.772Z</time></trkpt><trkpt lat="39.7343524" lon="8.6857829"><ele>57.0</ele><time>2026-05-03T08:53:04.771Z</time></trkpt><trkpt lat="39.7345291" lon="8.6856893"><ele>57.0</ele><time>2026-05-03T08:53:05.77Z</time></trkpt><trkpt lat="39.7347075" lon="8.6855884"><ele>57.0</ele><time>2026-05-03T08:53:06.77Z</time></trkpt><trkpt lat="39.7348939" lon="8.6854847"><ele>57.0</ele><time>2026-05-03T08:53:07.77Z</time></trkpt><trkpt lat="39.7350796" lon="8.6853804"><ele>57.0</ele><time>2026-05-03T08:53:08.772Z</time></trkpt><trkpt lat="39.7352691" lon="8.6852756"><ele>56.33333333333333</ele><time>2026-05-03T08:53:09.771Z</time></trkpt><trkpt lat="39.7354651" lon="8.6851682"><ele>55.666666666666664</ele><time>2026-05-03T08:53:10.772Z</time></trkpt><trkpt lat="39.7356584" lon="8.6850673"><ele>55.0</ele><time>2026-05-03T08:53:11.773Z</time></trkpt><trkpt lat="39.7358564" lon="8.6849678"><ele>55.0</ele><time>2026-05-03T08:53:12.771Z</time></trkpt><trkpt lat="39.7360528" lon="8.6848669"><ele>55.0</ele><time>2026-05-03T08:53:13.77Z</time></trkpt><trkpt lat="39.7362508" lon="8.6847543"><ele>55.0</ele><time>2026-05-03T08:53:14.77Z</time></trkpt><trkpt lat="39.7364499" lon="8.6846335"><ele>54.666666666666664</ele><time>2026-05-03T08:53:15.773Z</time></trkpt><trkpt lat="39.7366525" lon="8.6845254"><ele>54.33333333333333</ele><time>2026-05-03T08:53:16.772Z</time></trkpt><trkpt lat="39.7368535" lon="8.6844137"><ele>54.0</ele><time>2026-05-03T08:53:17.771Z</time></trkpt><trkpt lat="39.7370567" lon="8.6843025"><ele>53.66666666666667</ele><time>2026-05-03T08:53:18.772Z</time></trkpt><trkpt lat="39.7372575" lon="8.6841918"><ele>53.333333333333336</ele><time>2026-05-03T08:53:19.771Z</time></trkpt><trkpt lat="39.7374593" lon="8.6840868"><ele>53.0</ele><time>2026-05-03T08:53:20.77Z</time></trkpt><trkpt lat="39.7376654" lon="8.6839807"><ele>53.66666666666667</ele><time>2026-05-03T08:53:21.771Z</time></trkpt><trkpt lat="39.7378706" lon="8.6838738"><ele>54.33333333333333</ele><time>2026-05-03T08:53:22.772Z</time></trkpt><trkpt lat="39.7380778" lon="8.683767"><ele>55.0</ele><time>2026-05-03T08:53:23.772Z</time></trkpt><trkpt lat="39.7382854" lon="8.6836572"><ele>54.33333333333333</ele><time>2026-05-03T08:53:24.771Z</time></trkpt><trkpt lat="39.7384933" lon="8.6835493"><ele>53.66666666666667</ele><time>2026-05-03T08:53:25.771Z</time></trkpt><trkpt lat="39.7386986" lon="8.6834443"><ele>53.0</ele><time>2026-05-03T08:53:26.771Z</time></trkpt><trkpt lat="39.7389047" lon="8.683332"><ele>52.5</ele><time>2026-05-03T08:53:27.771Z</time></trkpt><trkpt lat="39.7391179" lon="8.6832238"><ele>52.0</ele><time>2026-05-03T08:53:28.772Z</time></trkpt><trkpt lat="39.7393239" lon="8.68311"><ele>52.0</ele><time>2026-05-03T08:53:29.771Z</time></trkpt><trkpt lat="39.7395159" lon="8.6830035"><ele>52.0</ele><time>2026-05-03T08:53:30.77Z</time></trkpt><trkpt lat="39.7396897" lon="8.6829073"><ele>52.0</ele><time>2026-05-03T08:53:31.772Z</time></trkpt><trkpt lat="39.7398543" lon="8.6828116"><ele>51.33333333333333</ele><time>2026-05-03T08:53:32.773Z</time></trkpt><trkpt lat="39.7400323" lon="8.6827106"><ele>50.66666666666667</ele><time>2026-05-03T08:53:33.771Z</time></trkpt><trkpt lat="39.740214" lon="8.6826059"><ele>50.0</ele><time>2026-05-03T08:53:34.772Z</time></trkpt><trkpt lat="39.7404031" lon="8.6825018"><ele>50.0</ele><time>2026-05-03T08:53:35.771Z</time></trkpt><trkpt lat="39.7405929" lon="8.6823958"><ele>50.0</ele><time>2026-05-03T08:53:36.77Z</time></trkpt><trkpt lat="39.7407883" lon="8.6822979"><ele>50.0</ele><time>2026-05-03T08:53:37.771Z</time></trkpt><trkpt lat="39.7409723" lon="8.6821974"><ele>50.0</ele><time>2026-05-03T08:53:38.772Z</time></trkpt><trkpt lat="39.7411401" lon="8.6821053"><ele>50.0</ele><time>2026-05-03T08:53:39.773Z</time></trkpt><trkpt lat="39.7412938" lon="8.6820196"><ele>50.0</ele><time>2026-05-03T08:53:40.771Z</time></trkpt><trkpt lat="39.7414322" lon="8.6819422"><ele>50.333333333333336</ele><time>2026-05-03T08:53:41.772Z</time></trkpt><trkpt lat="39.7415759" lon="8.681868"><ele>50.66666666666667</ele><time>2026-05-03T08:53:42.77Z</time></trkpt><trkpt lat="39.7417302" lon="8.6817898"><ele>51.0</ele><time>2026-05-03T08:53:43.772Z</time></trkpt><trkpt lat="39.7418915" lon="8.6817032"><ele>51.0</ele><time>2026-05-03T08:53:44.77Z</time></trkpt><trkpt lat="39.7420639" lon="8.6816114"><ele>51.0</ele><time>2026-05-03T08:53:45.772Z</time></trkpt><trkpt lat="39.7422356" lon="8.6815182"><ele>51.0</ele><time>2026-05-03T08:53:46.771Z</time></trkpt><trkpt lat="39.7423918" lon="8.6814289"><ele>51.0</ele><time>2026-05-03T08:53:47.771Z</time></trkpt><trkpt lat="39.7425502" lon="8.68134"><ele>51.0</ele><time>2026-05-03T08:53:48.771Z</time></trkpt><trkpt lat="39.7427075" lon="8.6812574"><ele>51.0</ele><time>2026-05-03T08:53:49.771Z</time></trkpt><trkpt lat="39.7428663" lon="8.6811801"><ele>51.0</ele><time>2026-05-03T08:53:50.773Z</time></trkpt><trkpt lat="39.7430256" lon="8.6810922"><ele>51.0</ele><time>2026-05-03T08:53:51.77Z</time></trkpt><trkpt lat="39.7431843" lon="8.6810034"><ele>51.0</ele><time>2026-05-03T08:53:52.771Z</time></trkpt><trkpt lat="39.7433507" lon="8.6809166"><ele>51.0</ele><time>2026-05-03T08:53:53.772Z</time></trkpt><trkpt lat="39.7435046" lon="8.6808219"><ele>51.0</ele><time>2026-05-03T08:53:54.771Z</time></trkpt><trkpt lat="39.743675" lon="8.6807352"><ele>51.0</ele><time>2026-05-03T08:53:55.771Z</time></trkpt><trkpt lat="39.7438464" lon="8.6806502"><ele>51.66666666666667</ele><time>2026-05-03T08:53:56.771Z</time></trkpt><trkpt lat="39.7440244" lon="8.6805556"><ele>52.333333333333336</ele><time>2026-05-03T08:53:57.77Z</time></trkpt><trkpt lat="39.7442035" lon="8.6804573"><ele>53.0</ele><time>2026-05-03T08:53:58.771Z</time></trkpt><trkpt lat="39.7443864" lon="8.6803635"><ele>53.66666666666667</ele><time>2026-05-03T08:53:59.772Z</time></trkpt><trkpt lat="39.7445728" lon="8.680264"><ele>54.33333333333333</ele><time>2026-05-03T08:54:00.772Z</time></trkpt><trkpt lat="39.7447544" lon="8.6801659"><ele>55.0</ele><time>2026-05-03T08:54:01.77Z</time></trkpt><trkpt lat="39.7449371" lon="8.6800707"><ele>55.0</ele><time>2026-05-03T08:54:02.771Z</time></trkpt><trkpt lat="39.7451183" lon="8.6799783"><ele>55.0</ele><time>2026-05-03T08:54:03.77Z</time></trkpt><trkpt lat="39.7452996" lon="8.6798817"><ele>55.0</ele><time>2026-05-03T08:54:04.771Z</time></trkpt><trkpt lat="39.7454821" lon="8.67978"><ele>55.666666666666664</ele><time>2026-05-03T08:54:05.771Z</time></trkpt><trkpt lat="39.7456591" lon="8.6796828"><ele>56.33333333333333</ele><time>2026-05-03T08:54:06.771Z</time></trkpt><trkpt lat="39.7458346" lon="8.6795913"><ele>57.0</ele><time>2026-05-03T08:54:07.772Z</time></trkpt><trkpt lat="39.7460087" lon="8.6794992"><ele>56.75</ele><time>2026-05-03T08:54:08.771Z</time></trkpt><trkpt lat="39.7461658" lon="8.6794153"><ele>56.5</ele><time>2026-05-03T08:54:09.771Z</time></trkpt><trkpt lat="39.7462935" lon="8.6793456"><ele>56.25</ele><time>2026-05-03T08:54:10.77Z</time></trkpt><trkpt lat="39.7463954" lon="8.6792944"><ele>56.0</ele><time>2026-05-03T08:54:11.77Z</time></trkpt><trkpt lat="39.746464" lon="8.6792489"><ele>56.00000000000001</ele><time>2026-05-03T08:54:12.772Z</time></trkpt><trkpt lat="39.7465332" lon="8.6792121"><ele>56.0</ele><time>2026-05-03T08:54:14.77Z</time></trkpt><trkpt lat="39.7465952" lon="8.6791818"><ele>56.0</ele><time>2026-05-03T08:54:17.771Z</time></trkpt><trkpt lat="39.7466835" lon="8.6791267"><ele>56.0</ele><time>2026-05-03T08:54:19.77Z</time></trkpt><trkpt lat="39.7467482" lon="8.6790911"><ele>56.00000000000001</ele><time>2026-05-03T08:54:20.772Z</time></trkpt><trkpt lat="39.7468241" lon="8.6790576"><ele>56.0</ele><time>2026-05-03T08:54:21.771Z</time></trkpt><trkpt lat="39.7469168" lon="8.6790152"><ele>56.0</ele><time>2026-05-03T08:54:22.771Z</time></trkpt><trkpt lat="39.7470205" lon="8.6789617"><ele>56.0</ele><time>2026-05-03T08:54:23.771Z</time></trkpt><trkpt lat="39.7471203" lon="8.6789084"><ele>56.0</ele><time>2026-05-03T08:54:24.77Z</time></trkpt><trkpt lat="39.7472311" lon="8.6788446"><ele>56.0</ele><time>2026-05-03T08:54:25.771Z</time></trkpt><trkpt lat="39.7473419" lon="8.6787802"><ele>56.0</ele><time>2026-05-03T08:54:26.771Z</time></trkpt><trkpt lat="39.7474616" lon="8.6787101"><ele>56.0</ele><time>2026-05-03T08:54:27.771Z</time></trkpt><trkpt lat="39.7475816" lon="8.6786459"><ele>56.0</ele><time>2026-05-03T08:54:28.771Z</time></trkpt><trkpt lat="39.7476983" lon="8.6785843"><ele>56.0</ele><time>2026-05-03T08:54:29.77Z</time></trkpt><trkpt lat="39.7477991" lon="8.6785241"><ele>56.00000000000001</ele><time>2026-05-03T08:54:30.772Z</time></trkpt><trkpt lat="39.7478923" lon="8.6784718"><ele>56.0</ele><time>2026-05-03T08:54:31.771Z</time></trkpt><trkpt lat="39.7479753" lon="8.6784321"><ele>56.0</ele><time>2026-05-03T08:54:32.772Z</time></trkpt><trkpt lat="39.7480495" lon="8.67841"><ele>56.0</ele><time>2026-05-03T08:54:33.771Z</time></trkpt><trkpt lat="39.7481134" lon="8.6783811"><ele>56.00000000000001</ele><time>2026-05-03T08:54:34.771Z</time></trkpt><trkpt lat="39.7482037" lon="8.678394"><ele>56.0</ele><time>2026-05-03T08:54:36.772Z</time></trkpt><trkpt lat="39.748275" lon="8.678525"><ele>56.5</ele><time>2026-05-03T08:54:38.77Z</time></trkpt><trkpt lat="39.7483143" lon="8.6786555"><ele>57.0</ele><time>2026-05-03T08:54:39.771Z</time></trkpt><trkpt lat="39.7483581" lon="8.678789"><ele>57.5</ele><time>2026-05-03T08:54:40.771Z</time></trkpt><trkpt lat="39.7484088" lon="8.6789417"><ele>58.0</ele><time>2026-05-03T08:54:41.771Z</time></trkpt><trkpt lat="39.7484592" lon="8.679099"><ele>58.0</ele><time>2026-05-03T08:54:42.772Z</time></trkpt><trkpt lat="39.7485104" lon="8.6792675"><ele>58.0</ele><time>2026-05-03T08:54:43.77Z</time></trkpt><trkpt lat="39.7485628" lon="8.6794376"><ele>58.0</ele><time>2026-05-03T08:54:44.77Z</time></trkpt><trkpt lat="39.748618" lon="8.679606"><ele>58.0</ele><time>2026-05-03T08:54:45.772Z</time></trkpt><trkpt lat="39.7486715" lon="8.6797657"><ele>58.8</ele><time>2026-05-03T08:54:46.772Z</time></trkpt><trkpt lat="39.7487184" lon="8.6799068"><ele>59.599999999999994</ele><time>2026-05-03T08:54:47.771Z</time></trkpt><trkpt lat="39.7487581" lon="8.6800354"><ele>60.400000000000006</ele><time>2026-05-03T08:54:48.771Z</time></trkpt><trkpt lat="39.7487918" lon="8.6801385"><ele>61.2</ele><time>2026-05-03T08:54:49.771Z</time></trkpt><trkpt lat="39.7488556" lon="8.6802475"><ele>62.0</ele><time>2026-05-03T08:54:51.77Z</time></trkpt><trkpt lat="39.7489748" lon="8.6802336"><ele>62.0</ele><time>2026-05-03T08:54:53.772Z</time></trkpt><trkpt lat="39.7490573" lon="8.6801945"><ele>62.0</ele><time>2026-05-03T08:54:54.772Z</time></trkpt><trkpt lat="39.7491481" lon="8.680149"><ele>62.0</ele><time>2026-05-03T08:54:55.771Z</time></trkpt><trkpt lat="39.7492558" lon="8.6800973"><ele>62.0</ele><time>2026-05-03T08:54:56.77Z</time></trkpt><trkpt lat="39.7493585" lon="8.6800372"><ele>62.0</ele><time>2026-05-03T08:54:57.772Z</time></trkpt><trkpt lat="39.7494591" lon="8.6799784"><ele>62.2</ele><time>2026-05-03T08:54:58.771Z</time></trkpt><trkpt lat="39.7495626" lon="8.6799205"><ele>62.400000000000006</ele><time>2026-05-03T08:54:59.772Z</time></trkpt><trkpt lat="39.749663" lon="8.6798718"><ele>62.599999999999994</ele><time>2026-05-03T08:55:00.771Z</time></trkpt><trkpt lat="39.749759" lon="8.6798202"><ele>62.8</ele><time>2026-05-03T08:55:01.772Z</time></trkpt><trkpt lat="39.7498639" lon="8.6797673"><ele>63.0</ele><time>2026-05-03T08:55:02.772Z</time></trkpt><trkpt lat="39.7499651" lon="8.6797153"><ele>63.0</ele><time>2026-05-03T08:55:03.771Z</time></trkpt><trkpt lat="39.7500723" lon="8.6796567"><ele>63.0</ele><time>2026-05-03T08:55:04.771Z</time></trkpt><trkpt lat="39.7501775" lon="8.6796015"><ele>63.0</ele><time>2026-05-03T08:55:05.772Z</time></trkpt><trkpt lat="39.750271" lon="8.6795567"><ele>63.0</ele><time>2026-05-03T08:55:06.771Z</time></trkpt><trkpt lat="39.7503648" lon="8.6795057"><ele>63.0</ele><time>2026-05-03T08:55:07.772Z</time></trkpt><trkpt lat="39.750454" lon="8.6794563"><ele>62.599999999999994</ele><time>2026-05-03T08:55:08.771Z</time></trkpt><trkpt lat="39.7505477" lon="8.6794033"><ele>62.199999999999996</ele><time>2026-05-03T08:55:09.772Z</time></trkpt><trkpt lat="39.7506419" lon="8.6793519"><ele>61.8</ele><time>2026-05-03T08:55:10.77Z</time></trkpt><trkpt lat="39.7507389" lon="8.6793044"><ele>61.4</ele><time>2026-05-03T08:55:11.771Z</time></trkpt><trkpt lat="39.7508317" lon="8.6792537"><ele>61.0</ele><time>2026-05-03T08:55:12.771Z</time></trkpt><trkpt lat="39.7509303" lon="8.6791971"><ele>61.0</ele><time>2026-05-03T08:55:13.772Z</time></trkpt><trkpt lat="39.7510306" lon="8.6791483"><ele>61.0</ele><time>2026-05-03T08:55:14.771Z</time></trkpt><trkpt lat="39.7511365" lon="8.679098"><ele>61.0</ele><time>2026-05-03T08:55:15.771Z</time></trkpt><trkpt lat="39.7512427" lon="8.679046"><ele>61.0</ele><time>2026-05-03T08:55:16.771Z</time></trkpt><trkpt lat="39.751354" lon="8.6789914"><ele>61.4</ele><time>2026-05-03T08:55:17.771Z</time></trkpt><trkpt lat="39.751456" lon="8.6789347"><ele>61.8</ele><time>2026-05-03T08:55:18.771Z</time></trkpt><trkpt lat="39.7515533" lon="8.6788774"><ele>62.199999999999996</ele><time>2026-05-03T08:55:19.771Z</time></trkpt><trkpt lat="39.7516619" lon="8.6788116"><ele>62.599999999999994</ele><time>2026-05-03T08:55:20.771Z</time></trkpt><trkpt lat="39.7517611" lon="8.6787502"><ele>63.0</ele><time>2026-05-03T08:55:21.771Z</time></trkpt><trkpt lat="39.7518468" lon="8.6787043"><ele>63.4</ele><time>2026-05-03T08:55:22.771Z</time></trkpt><trkpt lat="39.7519461" lon="8.6786553"><ele>63.8</ele><time>2026-05-03T08:55:23.77Z</time></trkpt><trkpt lat="39.7520492" lon="8.6785984"><ele>64.2</ele><time>2026-05-03T08:55:24.772Z</time></trkpt><trkpt lat="39.7521513" lon="8.6785362"><ele>64.6</ele><time>2026-05-03T08:55:25.771Z</time></trkpt><trkpt lat="39.7522493" lon="8.6784819"><ele>65.0</ele><time>2026-05-03T08:55:26.77Z</time></trkpt><trkpt lat="39.7523497" lon="8.6784253"><ele>64.2</ele><time>2026-05-03T08:55:27.772Z</time></trkpt><trkpt lat="39.7524545" lon="8.6783697"><ele>63.4</ele><time>2026-05-03T08:55:28.771Z</time></trkpt><trkpt lat="39.7525446" lon="8.678321"><ele>62.599999999999994</ele><time>2026-05-03T08:55:29.771Z</time></trkpt><trkpt lat="39.7526376" lon="8.6782724"><ele>61.8</ele><time>2026-05-03T08:55:30.771Z</time></trkpt><trkpt lat="39.7527291" lon="8.6782241"><ele>61.0</ele><time>2026-05-03T08:55:31.771Z</time></trkpt><trkpt lat="39.7528146" lon="8.6781782"><ele>60.99999999999999</ele><time>2026-05-03T08:55:32.771Z</time></trkpt><trkpt lat="39.7528945" lon="8.6781336"><ele>61.0</ele><time>2026-05-03T08:55:33.77Z</time></trkpt><trkpt lat="39.752968" lon="8.6780925"><ele>61.0</ele><time>2026-05-03T08:55:34.772Z</time></trkpt><trkpt lat="39.7530297" lon="8.6780637"><ele>61.0</ele><time>2026-05-03T08:55:35.77Z</time></trkpt><trkpt lat="39.7531276" lon="8.6780306"><ele>60.99999999999999</ele><time>2026-05-03T08:55:37.77Z</time></trkpt><trkpt lat="39.7532106" lon="8.6779854"><ele>61.0</ele><time>2026-05-03T08:55:39.77Z</time></trkpt><trkpt lat="39.7533324" lon="8.6779181"><ele>60.99999999999999</ele><time>2026-05-03T08:55:41.771Z</time></trkpt><trkpt lat="39.7534039" lon="8.6778719"><ele>61.0</ele><time>2026-05-03T08:55:42.772Z</time></trkpt><trkpt lat="39.7534668" lon="8.6778353"><ele>61.0</ele><time>2026-05-03T08:55:43.77Z</time></trkpt><trkpt lat="39.7535458" lon="8.6777909"><ele>61.0</ele><time>2026-05-03T08:55:45.772Z</time></trkpt><trkpt lat="39.7536043" lon="8.6778611"><ele>60.99999999999999</ele><time>2026-05-03T08:55:48.771Z</time></trkpt><trkpt lat="39.7536636" lon="8.6779979"><ele>61.0</ele><time>2026-05-03T08:55:50.772Z</time></trkpt><trkpt lat="39.7536926" lon="8.67809"><ele>61.33333333333333</ele><time>2026-05-03T08:55:51.771Z</time></trkpt><trkpt lat="39.7537299" lon="8.6781866"><ele>61.666666666666664</ele><time>2026-05-03T08:55:52.772Z</time></trkpt><trkpt lat="39.7537615" lon="8.6782836"><ele>62.0</ele><time>2026-05-03T08:55:53.771Z</time></trkpt><trkpt lat="39.7537989" lon="8.6783639"><ele>62.33333333333333</ele><time>2026-05-03T08:55:54.772Z</time></trkpt><trkpt lat="39.7538854" lon="8.6784825"><ele>62.666666666666664</ele><time>2026-05-03T08:55:56.771Z</time></trkpt><trkpt lat="39.7539433" lon="8.678528"><ele>63.0</ele><time>2026-05-03T08:55:57.771Z</time></trkpt><trkpt lat="39.7540165" lon="8.6785495"><ele>63.0</ele><time>2026-05-03T08:55:58.772Z</time></trkpt><trkpt lat="39.7540889" lon="8.678552"><ele>63.0</ele><time>2026-05-03T08:55:59.772Z</time></trkpt><trkpt lat="39.7541585" lon="8.6785585"><ele>63.0</ele><time>2026-05-03T08:56:00.771Z</time></trkpt><trkpt lat="39.7542687" lon="8.6785743"><ele>63.0</ele><time>2026-05-03T08:56:02.771Z</time></trkpt><trkpt lat="39.7543583" lon="8.67858"><ele>63.0</ele><time>2026-05-03T08:56:04.772Z</time></trkpt><trkpt lat="39.7544286" lon="8.6785752"><ele>63.0</ele><time>2026-05-03T08:56:05.769Z</time></trkpt><trkpt lat="39.754511" lon="8.6785742"><ele>63.0</ele><time>2026-05-03T08:56:06.771Z</time></trkpt><trkpt lat="39.754596" lon="8.6785669"><ele>63.0</ele><time>2026-05-03T08:56:07.772Z</time></trkpt><trkpt lat="39.7546748" lon="8.6785582"><ele>63.0</ele><time>2026-05-03T08:56:08.77Z</time></trkpt><trkpt lat="39.7547545" lon="8.6785519"><ele>63.0</ele><time>2026-05-03T08:56:09.772Z</time></trkpt><trkpt lat="39.7548502" lon="8.678527"><ele>63.0</ele><time>2026-05-03T08:56:10.771Z</time></trkpt><trkpt lat="39.754945" lon="8.6785083"><ele>63.0</ele><time>2026-05-03T08:56:11.771Z</time></trkpt><trkpt lat="39.755042" lon="8.6784897"><ele>63.0</ele><time>2026-05-03T08:56:12.77Z</time></trkpt><trkpt lat="39.7551395" lon="8.6784663"><ele>63.0</ele><time>2026-05-03T08:56:13.771Z</time></trkpt><trkpt lat="39.7552308" lon="8.6784579"><ele>63.0</ele><time>2026-05-03T08:56:14.772Z</time></trkpt><trkpt lat="39.7553191" lon="8.678443"><ele>63.0</ele><time>2026-05-03T08:56:15.77Z</time></trkpt><trkpt lat="39.7554056" lon="8.67843"><ele>63.0</ele><time>2026-05-03T08:56:16.772Z</time></trkpt><trkpt lat="39.755496" lon="8.6784076"><ele>63.166666666666664</ele><time>2026-05-03T08:56:17.771Z</time></trkpt><trkpt lat="39.7555723" lon="8.6783945"><ele>63.33333333333333</ele><time>2026-05-03T08:56:18.77Z</time></trkpt><trkpt lat="39.7556457" lon="8.6783817"><ele>63.5</ele><time>2026-05-03T08:56:19.77Z</time></trkpt><trkpt lat="39.7557201" lon="8.6783703"><ele>63.666666666666664</ele><time>2026-05-03T08:56:20.771Z</time></trkpt><trkpt lat="39.7557963" lon="8.6783674"><ele>63.83333333333333</ele><time>2026-05-03T08:56:21.77Z</time></trkpt><trkpt lat="39.7558805" lon="8.6783701"><ele>64.0</ele><time>2026-05-03T08:56:22.772Z</time></trkpt><trkpt lat="39.7559733" lon="8.6783846"><ele>63.83333333333333</ele><time>2026-05-03T08:56:23.772Z</time></trkpt><trkpt lat="39.7560662" lon="8.6783996"><ele>63.666666666666664</ele><time>2026-05-03T08:56:24.77Z</time></trkpt><trkpt lat="39.7561561" lon="8.678422"><ele>63.5</ele><time>2026-05-03T08:56:25.771Z</time></trkpt><trkpt lat="39.7562385" lon="8.6784396"><ele>63.33333333333333</ele><time>2026-05-03T08:56:26.772Z</time></trkpt><trkpt lat="39.7563161" lon="8.6784671"><ele>63.166666666666664</ele><time>2026-05-03T08:56:27.771Z</time></trkpt><trkpt lat="39.7563901" lon="8.6785014"><ele>63.0</ele><time>2026-05-03T08:56:28.77Z</time></trkpt><trkpt lat="39.7564608" lon="8.6785299"><ele>63.0</ele><time>2026-05-03T08:56:29.772Z</time></trkpt><trkpt lat="39.7565402" lon="8.6785599"><ele>63.0</ele><time>2026-05-03T08:56:30.769Z</time></trkpt><trkpt lat="39.7566222" lon="8.6785822"><ele>63.0</ele><time>2026-05-03T08:56:31.771Z</time></trkpt><trkpt lat="39.756719" lon="8.6786149"><ele>63.0</ele><time>2026-05-03T08:56:32.77Z</time></trkpt><trkpt lat="39.7568012" lon="8.6786453"><ele>63.0</ele><time>2026-05-03T08:56:33.771Z</time></trkpt><trkpt lat="39.7568819" lon="8.6786698"><ele>63.0</ele><time>2026-05-03T08:56:34.772Z</time></trkpt><trkpt lat="39.756965" lon="8.6786985"><ele>63.4</ele><time>2026-05-03T08:56:35.771Z</time></trkpt><trkpt lat="39.7570501" lon="8.6787286"><ele>63.8</ele><time>2026-05-03T08:56:36.77Z</time></trkpt><trkpt lat="39.7571386" lon="8.6787622"><ele>64.2</ele><time>2026-05-03T08:56:37.772Z</time></trkpt><trkpt lat="39.7572366" lon="8.6787974"><ele>64.6</ele><time>2026-05-03T08:56:38.772Z</time></trkpt><trkpt lat="39.7573332" lon="8.6788263"><ele>65.0</ele><time>2026-05-03T08:56:39.771Z</time></trkpt><trkpt lat="39.7574291" lon="8.6788565"><ele>65.0</ele><time>2026-05-03T08:56:40.772Z</time></trkpt><trkpt lat="39.7575267" lon="8.6788802"><ele>65.0</ele><time>2026-05-03T08:56:41.77Z</time></trkpt><trkpt lat="39.7576357" lon="8.6788886"><ele>65.0</ele><time>2026-05-03T08:56:42.771Z</time></trkpt><trkpt lat="39.7577419" lon="8.6788987"><ele>65.0</ele><time>2026-05-03T08:56:43.771Z</time></trkpt><trkpt lat="39.757845" lon="8.6789137"><ele>65.0</ele><time>2026-05-03T08:56:44.77Z</time></trkpt><trkpt lat="39.757941" lon="8.6789246"><ele>65.0</ele><time>2026-05-03T08:56:45.771Z</time></trkpt><trkpt lat="39.7580321" lon="8.6789333"><ele>65.0</ele><time>2026-05-03T08:56:46.771Z</time></trkpt><trkpt lat="39.75812" lon="8.6789373"><ele>65.0</ele><time>2026-05-03T08:56:47.771Z</time></trkpt><trkpt lat="39.7581938" lon="8.6789394"><ele>65.0</ele><time>2026-05-03T08:56:48.772Z</time></trkpt><trkpt lat="39.7582631" lon="8.6789599"><ele>65.0</ele><time>2026-05-03T08:56:49.77Z</time></trkpt><trkpt lat="39.7583462" lon="8.6789829"><ele>65.0</ele><time>2026-05-03T08:56:50.772Z</time></trkpt><trkpt lat="39.7584309" lon="8.6790145"><ele>65.0</ele><time>2026-05-03T08:56:51.77Z</time></trkpt><trkpt lat="39.7585123" lon="8.6790509"><ele>65.0</ele><time>2026-05-03T08:56:52.771Z</time></trkpt><trkpt lat="39.758593" lon="8.6790927"><ele>65.0</ele><time>2026-05-03T08:56:53.77Z</time></trkpt><trkpt lat="39.7586727" lon="8.6791466"><ele>65.0</ele><time>2026-05-03T08:56:54.771Z</time></trkpt><trkpt lat="39.7587471" lon="8.6792015"><ele>65.0</ele><time>2026-05-03T08:56:55.771Z</time></trkpt><trkpt lat="39.7588179" lon="8.6792739"><ele>65.0</ele><time>2026-05-03T08:56:56.77Z</time></trkpt><trkpt lat="39.7588922" lon="8.6793576"><ele>65.0</ele><time>2026-05-03T08:56:57.77Z</time></trkpt><trkpt lat="39.7589633" lon="8.679431"><ele>65.0</ele><time>2026-05-03T08:56:58.772Z</time></trkpt><trkpt lat="39.7590371" lon="8.6795103"><ele>65.0</ele><time>2026-05-03T08:56:59.771Z</time></trkpt><trkpt lat="39.75912" lon="8.6795939"><ele>65.0</ele><time>2026-05-03T08:57:00.771Z</time></trkpt><trkpt lat="39.7592056" lon="8.6796774"><ele>65.0</ele><time>2026-05-03T08:57:01.77Z</time></trkpt><trkpt lat="39.7592913" lon="8.6797672"><ele>65.0</ele><time>2026-05-03T08:57:02.771Z</time></trkpt><trkpt lat="39.7593614" lon="8.679839"><ele>65.0</ele><time>2026-05-03T08:57:03.77Z</time></trkpt><trkpt lat="39.7594394" lon="8.6799068"><ele>65.0</ele><time>2026-05-03T08:57:04.771Z</time></trkpt><trkpt lat="39.7595141" lon="8.6799682"><ele>65.0</ele><time>2026-05-03T08:57:05.771Z</time></trkpt><trkpt lat="39.7595982" lon="8.6800221"><ele>65.0</ele><time>2026-05-03T08:57:06.772Z</time></trkpt><trkpt lat="39.7596882" lon="8.6800755"><ele>64.6</ele><time>2026-05-03T08:57:07.77Z</time></trkpt><trkpt lat="39.7597877" lon="8.6801199"><ele>64.2</ele><time>2026-05-03T08:57:08.771Z</time></trkpt><trkpt lat="39.7598887" lon="8.6801535"><ele>63.8</ele><time>2026-05-03T08:57:09.77Z</time></trkpt><trkpt lat="39.7599903" lon="8.6801815"><ele>63.4</ele><time>2026-05-03T08:57:10.77Z</time></trkpt><trkpt lat="39.7600919" lon="8.6802234"><ele>63.0</ele><time>2026-05-03T08:57:11.772Z</time></trkpt><trkpt lat="39.7601955" lon="8.6802503"><ele>63.4</ele><time>2026-05-03T08:57:12.77Z</time></trkpt><trkpt lat="39.760296" lon="8.680276"><ele>63.8</ele><time>2026-05-03T08:57:13.77Z</time></trkpt><trkpt lat="39.7603903" lon="8.6803073"><ele>64.2</ele><time>2026-05-03T08:57:14.77Z</time></trkpt><trkpt lat="39.760483" lon="8.6803355"><ele>64.6</ele><time>2026-05-03T08:57:15.771Z</time></trkpt><trkpt lat="39.7605776" lon="8.6803627"><ele>65.0</ele><time>2026-05-03T08:57:16.771Z</time></trkpt><trkpt lat="39.7606665" lon="8.6803908"><ele>65.0</ele><time>2026-05-03T08:57:17.77Z</time></trkpt><trkpt lat="39.7607455" lon="8.6804138"><ele>65.0</ele><time>2026-05-03T08:57:18.77Z</time></trkpt><trkpt lat="39.7608206" lon="8.6804435"><ele>65.0</ele><time>2026-05-03T08:57:19.772Z</time></trkpt><trkpt lat="39.7609027" lon="8.6804701"><ele>65.0</ele><time>2026-05-03T08:57:20.77Z</time></trkpt><trkpt lat="39.7609874" lon="8.6804987"><ele>65.0</ele><time>2026-05-03T08:57:21.771Z</time></trkpt><trkpt lat="39.7610711" lon="8.6805206"><ele>65.0</ele><time>2026-05-03T08:57:22.77Z</time></trkpt><trkpt lat="39.7611677" lon="8.6805352"><ele>65.0</ele><time>2026-05-03T08:57:23.771Z</time></trkpt><trkpt lat="39.7612607" lon="8.6805413"><ele>65.0</ele><time>2026-05-03T08:57:24.771Z</time></trkpt><trkpt lat="39.7613573" lon="8.6805393"><ele>65.0</ele><time>2026-05-03T08:57:25.771Z</time></trkpt><trkpt lat="39.761462" lon="8.6805288"><ele>65.0</ele><time>2026-05-03T08:57:26.769Z</time></trkpt><trkpt lat="39.7615702" lon="8.6805023"><ele>65.0</ele><time>2026-05-03T08:57:27.772Z</time></trkpt><trkpt lat="39.7616752" lon="8.6804638"><ele>65.0</ele><time>2026-05-03T08:57:28.771Z</time></trkpt><trkpt lat="39.7617795" lon="8.6804199"><ele>65.0</ele><time>2026-05-03T08:57:29.771Z</time></trkpt><trkpt lat="39.7618667" lon="8.6803832"><ele>65.0</ele><time>2026-05-03T08:57:30.771Z</time></trkpt><trkpt lat="39.7620534" lon="8.6803382"><ele>65.0</ele><time>2026-05-03T08:57:32.772Z</time></trkpt><trkpt lat="39.7621597" lon="8.6803217"><ele>65.25</ele><time>2026-05-03T08:57:33.77Z</time></trkpt><trkpt lat="39.7622762" lon="8.6802936"><ele>65.5</ele><time>2026-05-03T08:57:34.77Z</time></trkpt><trkpt lat="39.7623951" lon="8.6802682"><ele>65.75</ele><time>2026-05-03T08:57:35.77Z</time></trkpt><trkpt lat="39.7625174" lon="8.6802387"><ele>66.0</ele><time>2026-05-03T08:57:36.771Z</time></trkpt><trkpt lat="39.762637" lon="8.6802329"><ele>66.0</ele><time>2026-05-03T08:57:37.769Z</time></trkpt><trkpt lat="39.762763" lon="8.6802424"><ele>66.0</ele><time>2026-05-03T08:57:38.771Z</time></trkpt><trkpt lat="39.7628936" lon="8.6802596"><ele>66.0</ele><time>2026-05-03T08:57:39.77Z</time></trkpt><trkpt lat="39.7630323" lon="8.6802929"><ele>66.0</ele><time>2026-05-03T08:57:40.769Z</time></trkpt><trkpt lat="39.7631683" lon="8.6803305"><ele>66.0</ele><time>2026-05-03T08:57:41.77Z</time></trkpt><trkpt lat="39.7633152" lon="8.6803749"><ele>66.0</ele><time>2026-05-03T08:57:42.771Z</time></trkpt><trkpt lat="39.7634558" lon="8.6804187"><ele>66.0</ele><time>2026-05-03T08:57:43.77Z</time></trkpt><trkpt lat="39.7635998" lon="8.6804613"><ele>66.0</ele><time>2026-05-03T08:57:44.771Z</time></trkpt><trkpt lat="39.76374" lon="8.6805103"><ele>65.5</ele><time>2026-05-03T08:57:45.772Z</time></trkpt><trkpt lat="39.763874" lon="8.6805642"><ele>65.0</ele><time>2026-05-03T08:57:46.77Z</time></trkpt><trkpt lat="39.764001" lon="8.6806308"><ele>64.5</ele><time>2026-05-03T08:57:47.771Z</time></trkpt><trkpt lat="39.7641235" lon="8.6807032"><ele>64.0</ele><time>2026-05-03T08:57:48.77Z</time></trkpt><trkpt lat="39.7642455" lon="8.6807759"><ele>64.0</ele><time>2026-05-03T08:57:49.772Z</time></trkpt><trkpt lat="39.7643729" lon="8.6808517"><ele>64.0</ele><time>2026-05-03T08:57:50.772Z</time></trkpt><trkpt lat="39.7645015" lon="8.6809228"><ele>64.0</ele><time>2026-05-03T08:57:51.772Z</time></trkpt><trkpt lat="39.764626" lon="8.6809914"><ele>64.0</ele><time>2026-05-03T08:57:52.771Z</time></trkpt><trkpt lat="39.7647438" lon="8.6810594"><ele>64.4</ele><time>2026-05-03T08:57:53.77Z</time></trkpt><trkpt lat="39.7648553" lon="8.6811243"><ele>64.80000000000001</ele><time>2026-05-03T08:57:54.77Z</time></trkpt><trkpt lat="39.7649579" lon="8.6811796"><ele>65.19999999999999</ele><time>2026-05-03T08:57:55.771Z</time></trkpt><trkpt lat="39.7650653" lon="8.6812263"><ele>65.6</ele><time>2026-05-03T08:57:56.771Z</time></trkpt><trkpt lat="39.7651546" lon="8.6812305"><ele>66.0</ele><time>2026-05-03T08:57:57.771Z</time></trkpt><trkpt lat="39.7652541" lon="8.6812126"><ele>66.0</ele><time>2026-05-03T08:57:58.77Z</time></trkpt><trkpt lat="39.7653641" lon="8.6811587"><ele>66.0</ele><time>2026-05-03T08:57:59.772Z</time></trkpt><trkpt lat="39.7654762" lon="8.6810743"><ele>66.0</ele><time>2026-05-03T08:58:00.771Z</time></trkpt><trkpt lat="39.765587" lon="8.6809755"><ele>66.0</ele><time>2026-05-03T08:58:01.772Z</time></trkpt><trkpt lat="39.7657037" lon="8.6808661"><ele>66.0</ele><time>2026-05-03T08:58:02.772Z</time></trkpt><trkpt lat="39.7658302" lon="8.6807549"><ele>66.0</ele><time>2026-05-03T08:58:03.771Z</time></trkpt><trkpt lat="39.7659582" lon="8.6806421"><ele>66.0</ele><time>2026-05-03T08:58:04.77Z</time></trkpt><trkpt lat="39.7660855" lon="8.6805243"><ele>66.0</ele><time>2026-05-03T08:58:05.772Z</time></trkpt><trkpt lat="39.7662081" lon="8.6804133"><ele>66.0</ele><time>2026-05-03T08:58:06.769Z</time></trkpt><trkpt lat="39.7663235" lon="8.6803008"><ele>66.0</ele><time>2026-05-03T08:58:07.77Z</time></trkpt><trkpt lat="39.7664346" lon="8.6802092"><ele>66.0</ele><time>2026-05-03T08:58:08.77Z</time></trkpt><trkpt lat="39.7665516" lon="8.680128"><ele>65.25</ele><time>2026-05-03T08:58:09.772Z</time></trkpt><trkpt lat="39.7666712" lon="8.6800624"><ele>64.5</ele><time>2026-05-03T08:58:10.771Z</time></trkpt><trkpt lat="39.7667911" lon="8.6800071"><ele>63.75</ele><time>2026-05-03T08:58:11.771Z</time></trkpt><trkpt lat="39.7669176" lon="8.679955"><ele>63.0</ele><time>2026-05-03T08:58:12.769Z</time></trkpt><trkpt lat="39.7670504" lon="8.679905"><ele>63.0</ele><time>2026-05-03T08:58:13.771Z</time></trkpt><trkpt lat="39.7671921" lon="8.6798527"><ele>63.0</ele><time>2026-05-03T08:58:14.769Z</time></trkpt><trkpt lat="39.7673369" lon="8.6797978"><ele>63.0</ele><time>2026-05-03T08:58:15.77Z</time></trkpt><trkpt lat="39.7674782" lon="8.679743"><ele>63.0</ele><time>2026-05-03T08:58:16.77Z</time></trkpt><trkpt lat="39.7676163" lon="8.6796927"><ele>63.5</ele><time>2026-05-03T08:58:17.77Z</time></trkpt><trkpt lat="39.7677556" lon="8.679639"><ele>64.0</ele><time>2026-05-03T08:58:18.772Z</time></trkpt><trkpt lat="39.7678909" lon="8.6795893"><ele>64.5</ele><time>2026-05-03T08:58:19.772Z</time></trkpt><trkpt lat="39.7680316" lon="8.6795265"><ele>65.0</ele><time>2026-05-03T08:58:20.771Z</time></trkpt><trkpt lat="39.7681754" lon="8.6794636"><ele>64.0</ele><time>2026-05-03T08:58:21.772Z</time></trkpt><trkpt lat="39.7683232" lon="8.6794052"><ele>63.0</ele><time>2026-05-03T08:58:22.771Z</time></trkpt><trkpt lat="39.7684715" lon="8.6793517"><ele>62.0</ele><time>2026-05-03T08:58:23.77Z</time></trkpt><trkpt lat="39.768627" lon="8.6792983"><ele>62.0</ele><time>2026-05-03T08:58:24.77Z</time></trkpt><trkpt lat="39.7687795" lon="8.6792496"><ele>62.0</ele><time>2026-05-03T08:58:25.77Z</time></trkpt><trkpt lat="39.7689383" lon="8.6792012"><ele>62.0</ele><time>2026-05-03T08:58:26.771Z</time></trkpt><trkpt lat="39.7690905" lon="8.679152"><ele>62.0</ele><time>2026-05-03T08:58:27.77Z</time></trkpt><trkpt lat="39.7692389" lon="8.6790851"><ele>62.0</ele><time>2026-05-03T08:58:28.77Z</time></trkpt><trkpt lat="39.7693896" lon="8.6790321"><ele>62.0</ele><time>2026-05-03T08:58:29.771Z</time></trkpt><trkpt lat="39.769541" lon="8.6789823"><ele>63.0</ele><time>2026-05-03T08:58:30.771Z</time></trkpt><trkpt lat="39.7696875" lon="8.678927"><ele>64.0</ele><time>2026-05-03T08:58:31.77Z</time></trkpt><trkpt lat="39.7698345" lon="8.6788718"><ele>65.0</ele><time>2026-05-03T08:58:32.769Z</time></trkpt><trkpt lat="39.7699856" lon="8.6788151"><ele>65.0</ele><time>2026-05-03T08:58:33.772Z</time></trkpt><trkpt lat="39.7701268" lon="8.6787613"><ele>65.0</ele><time>2026-05-03T08:58:34.77Z</time></trkpt><trkpt lat="39.7702752" lon="8.6786925"><ele>65.0</ele><time>2026-05-03T08:58:35.772Z</time></trkpt><trkpt lat="39.7704245" lon="8.6786218"><ele>65.0</ele><time>2026-05-03T08:58:36.771Z</time></trkpt><trkpt lat="39.7705784" lon="8.6785453"><ele>65.0</ele><time>2026-05-03T08:58:37.77Z</time></trkpt><trkpt lat="39.7707367" lon="8.6784639"><ele>65.0</ele><time>2026-05-03T08:58:38.77Z</time></trkpt><trkpt lat="39.770878" lon="8.6783888"><ele>65.0</ele><time>2026-05-03T08:58:39.77Z</time></trkpt><trkpt lat="39.7710062" lon="8.678308"><ele>65.0</ele><time>2026-05-03T08:58:40.769Z</time></trkpt><trkpt lat="39.7711236" lon="8.6782198"><ele>65.0</ele><time>2026-05-03T08:58:41.772Z</time></trkpt><trkpt lat="39.7712446" lon="8.6781443"><ele>65.0</ele><time>2026-05-03T08:58:42.77Z</time></trkpt><trkpt lat="39.7713683" lon="8.6780748"><ele>65.0</ele><time>2026-05-03T08:58:43.771Z</time></trkpt><trkpt lat="39.7715058" lon="8.6780087"><ele>65.0</ele><time>2026-05-03T08:58:44.771Z</time></trkpt><trkpt lat="39.7716488" lon="8.6779368"><ele>65.0</ele><time>2026-05-03T08:58:45.771Z</time></trkpt><trkpt lat="39.771793" lon="8.6778619"><ele>65.0</ele><time>2026-05-03T08:58:46.771Z</time></trkpt><trkpt lat="39.771931" lon="8.6777818"><ele>65.0</ele><time>2026-05-03T08:58:47.77Z</time></trkpt><trkpt lat="39.7720603" lon="8.6777142"><ele>65.0</ele><time>2026-05-03T08:58:48.77Z</time></trkpt><trkpt lat="39.7721784" lon="8.6776554"><ele>65.0</ele><time>2026-05-03T08:58:49.77Z</time></trkpt><trkpt lat="39.7722899" lon="8.6776166"><ele>64.25</ele><time>2026-05-03T08:58:50.77Z</time></trkpt><trkpt lat="39.7723997" lon="8.6775905"><ele>63.5</ele><time>2026-05-03T08:58:51.771Z</time></trkpt><trkpt lat="39.7725223" lon="8.6775918"><ele>62.75</ele><time>2026-05-03T08:58:52.77Z</time></trkpt><trkpt lat="39.7726404" lon="8.6775984"><ele>62.0</ele><time>2026-05-03T08:58:53.77Z</time></trkpt><trkpt lat="39.772741" lon="8.6776144"><ele>62.00000000000001</ele><time>2026-05-03T08:58:54.772Z</time></trkpt><trkpt lat="39.7728358" lon="8.6776292"><ele>62.0</ele><time>2026-05-03T08:58:55.769Z</time></trkpt><trkpt lat="39.7729189" lon="8.6776627"><ele>62.0</ele><time>2026-05-03T08:58:56.771Z</time></trkpt><trkpt lat="39.7730013" lon="8.6777249"><ele>62.0</ele><time>2026-05-03T08:58:57.77Z</time></trkpt><trkpt lat="39.7730742" lon="8.67777"><ele>62.00000000000001</ele><time>2026-05-03T08:58:58.771Z</time></trkpt><trkpt lat="39.7731452" lon="8.6778227"><ele>62.0</ele><time>2026-05-03T08:58:59.77Z</time></trkpt><trkpt lat="39.7732217" lon="8.6779094"><ele>62.0</ele><time>2026-05-03T08:59:00.772Z</time></trkpt><trkpt lat="39.7733118" lon="8.6780147"><ele>62.0</ele><time>2026-05-03T08:59:01.771Z</time></trkpt><trkpt lat="39.7734123" lon="8.6781386"><ele>62.0</ele><time>2026-05-03T08:59:02.77Z</time></trkpt><trkpt lat="39.7735142" lon="8.6782744"><ele>62.0</ele><time>2026-05-03T08:59:03.77Z</time></trkpt><trkpt lat="39.7736041" lon="8.6783949"><ele>61.8</ele><time>2026-05-03T08:59:04.771Z</time></trkpt><trkpt lat="39.7736909" lon="8.6784958"><ele>61.6</ele><time>2026-05-03T08:59:05.77Z</time></trkpt><trkpt lat="39.7737676" lon="8.6785746"><ele>61.39999999999999</ele><time>2026-05-03T08:59:06.772Z</time></trkpt><trkpt lat="39.7738444" lon="8.6786153"><ele>61.199999999999996</ele><time>2026-05-03T08:59:07.771Z</time></trkpt><trkpt lat="39.7739251" lon="8.6786375"><ele>61.0</ele><time>2026-05-03T08:59:08.77Z</time></trkpt><trkpt lat="39.7740111" lon="8.6786158"><ele>61.0</ele><time>2026-05-03T08:59:09.771Z</time></trkpt><trkpt lat="39.7740871" lon="8.6785653"><ele>61.0</ele><time>2026-05-03T08:59:10.772Z</time></trkpt><trkpt lat="39.7741699" lon="8.6784861"><ele>61.0</ele><time>2026-05-03T08:59:11.77Z</time></trkpt><trkpt lat="39.7742653" lon="8.678372"><ele>61.0</ele><time>2026-05-03T08:59:12.771Z</time></trkpt><trkpt lat="39.7743642" lon="8.6782488"><ele>61.666666666666664</ele><time>2026-05-03T08:59:13.77Z</time></trkpt><trkpt lat="39.7744793" lon="8.6781297"><ele>62.33333333333333</ele><time>2026-05-03T08:59:14.77Z</time></trkpt><trkpt lat="39.7745996" lon="8.678011"><ele>63.0</ele><time>2026-05-03T08:59:15.77Z</time></trkpt><trkpt lat="39.7747253" lon="8.6778963"><ele>63.0</ele><time>2026-05-03T08:59:16.771Z</time></trkpt><trkpt lat="39.7748473" lon="8.6777857"><ele>63.0</ele><time>2026-05-03T08:59:17.77Z</time></trkpt><trkpt lat="39.7749623" lon="8.6776648"><ele>63.0</ele><time>2026-05-03T08:59:18.771Z</time></trkpt><trkpt lat="39.7750691" lon="8.6775479"><ele>63.0</ele><time>2026-05-03T08:59:19.77Z</time></trkpt><trkpt lat="39.7751669" lon="8.6774127"><ele>63.0</ele><time>2026-05-03T08:59:20.77Z</time></trkpt><trkpt lat="39.7752571" lon="8.6772562"><ele>63.0</ele><time>2026-05-03T08:59:21.77Z</time></trkpt><trkpt lat="39.7753406" lon="8.6770778"><ele>63.0</ele><time>2026-05-03T08:59:22.771Z</time></trkpt><trkpt lat="39.7754256" lon="8.6768985"><ele>63.0</ele><time>2026-05-03T08:59:23.77Z</time></trkpt><trkpt lat="39.775505" lon="8.6767119"><ele>63.0</ele><time>2026-05-03T08:59:24.772Z</time></trkpt><trkpt lat="39.7755798" lon="8.6765388"><ele>63.0</ele><time>2026-05-03T08:59:25.772Z</time></trkpt><trkpt lat="39.7756625" lon="8.6763805"><ele>63.0</ele><time>2026-05-03T08:59:26.769Z</time></trkpt><trkpt lat="39.7757421" lon="8.6762134"><ele>63.0</ele><time>2026-05-03T08:59:27.769Z</time></trkpt><trkpt lat="39.7758225" lon="8.6760512"><ele>63.0</ele><time>2026-05-03T08:59:28.772Z</time></trkpt><trkpt lat="39.775897" lon="8.675883"><ele>63.0</ele><time>2026-05-03T08:59:29.77Z</time></trkpt><trkpt lat="39.7759681" lon="8.6757227"><ele>62.75</ele><time>2026-05-03T08:59:30.771Z</time></trkpt><trkpt lat="39.7760468" lon="8.6755701"><ele>62.5</ele><time>2026-05-03T08:59:31.77Z</time></trkpt><trkpt lat="39.7761208" lon="8.6754114"><ele>62.25</ele><time>2026-05-03T08:59:32.77Z</time></trkpt><trkpt lat="39.7761991" lon="8.6752568"><ele>62.0</ele><time>2026-05-03T08:59:33.769Z</time></trkpt><trkpt lat="39.7762788" lon="8.675121"><ele>62.0</ele><time>2026-05-03T08:59:34.771Z</time></trkpt><trkpt lat="39.776365" lon="8.6750046"><ele>62.0</ele><time>2026-05-03T08:59:35.77Z</time></trkpt><trkpt lat="39.7764662" lon="8.6749057"><ele>62.0</ele><time>2026-05-03T08:59:36.77Z</time></trkpt><trkpt lat="39.7765815" lon="8.6748178"><ele>62.0</ele><time>2026-05-03T08:59:37.772Z</time></trkpt><trkpt lat="39.7767103" lon="8.6747337"><ele>62.0</ele><time>2026-05-03T08:59:38.771Z</time></trkpt><trkpt lat="39.7768351" lon="8.6746542"><ele>62.0</ele><time>2026-05-03T08:59:39.771Z</time></trkpt><trkpt lat="39.7769499" lon="8.6745812"><ele>62.0</ele><time>2026-05-03T08:59:40.771Z</time></trkpt><trkpt lat="39.7770516" lon="8.6745216"><ele>62.0</ele><time>2026-05-03T08:59:41.771Z</time></trkpt><trkpt lat="39.7771422" lon="8.6744773"><ele>62.16666666666667</ele><time>2026-05-03T08:59:42.772Z</time></trkpt><trkpt lat="39.7772291" lon="8.6744498"><ele>62.333333333333336</ele><time>2026-05-03T08:59:43.77Z</time></trkpt><trkpt lat="39.7773238" lon="8.6744233"><ele>62.5</ele><time>2026-05-03T08:59:44.771Z</time></trkpt><trkpt lat="39.7773981" lon="8.6743953"><ele>62.66666666666667</ele><time>2026-05-03T08:59:45.77Z</time></trkpt><trkpt lat="39.7774649" lon="8.6743592"><ele>62.833333333333336</ele><time>2026-05-03T08:59:47.771Z</time></trkpt><trkpt lat="39.7775537" lon="8.6744329"><ele>63.0</ele><time>2026-05-03T08:59:52.77Z</time></trkpt><trkpt lat="39.7776119" lon="8.674511"><ele>63.25</ele><time>2026-05-03T08:59:53.77Z</time></trkpt><trkpt lat="39.777687" lon="8.6746158"><ele>63.5</ele><time>2026-05-03T08:59:54.77Z</time></trkpt><trkpt lat="39.7777773" lon="8.6747297"><ele>63.75</ele><time>2026-05-03T08:59:55.77Z</time></trkpt><trkpt lat="39.777882" lon="8.6748593"><ele>64.0</ele><time>2026-05-03T08:59:56.77Z</time></trkpt><trkpt lat="39.7780054" lon="8.6750025"><ele>64.0</ele><time>2026-05-03T08:59:57.77Z</time></trkpt><trkpt lat="39.7781299" lon="8.6751526"><ele>64.0</ele><time>2026-05-03T08:59:58.771Z</time></trkpt><trkpt lat="39.7782652" lon="8.6753217"><ele>64.0</ele><time>2026-05-03T08:59:59.771Z</time></trkpt><trkpt lat="39.7784063" lon="8.6754951"><ele>65.33333333333333</ele><time>2026-05-03T09:00:00.77Z</time></trkpt><trkpt lat="39.7785459" lon="8.6756666"><ele>66.66666666666667</ele><time>2026-05-03T09:00:01.769Z</time></trkpt><trkpt lat="39.7786896" lon="8.6758464"><ele>68.0</ele><time>2026-05-03T09:00:02.77Z</time></trkpt><trkpt lat="39.7788363" lon="8.6760167"><ele>69.0</ele><time>2026-05-03T09:00:03.771Z</time></trkpt><trkpt lat="39.7789861" lon="8.6761906"><ele>70.0</ele><time>2026-05-03T09:00:04.769Z</time></trkpt><trkpt lat="39.7791345" lon="8.6763658"><ele>71.0</ele><time>2026-05-03T09:00:05.771Z</time></trkpt><trkpt lat="39.7792829" lon="8.6765397"><ele>70.66666666666667</ele><time>2026-05-03T09:00:06.77Z</time></trkpt><trkpt lat="39.7794312" lon="8.6767202"><ele>70.33333333333333</ele><time>2026-05-03T09:00:07.769Z</time></trkpt><trkpt lat="39.7795831" lon="8.676907"><ele>70.0</ele><time>2026-05-03T09:00:08.77Z</time></trkpt><trkpt lat="39.7797333" lon="8.6770973"><ele>71.66666666666666</ele><time>2026-05-03T09:00:09.771Z</time></trkpt><trkpt lat="39.7798898" lon="8.6772857"><ele>73.33333333333333</ele><time>2026-05-03T09:00:10.769Z</time></trkpt><trkpt lat="39.7800458" lon="8.6774761"><ele>75.0</ele><time>2026-05-03T09:00:11.771Z</time></trkpt><trkpt lat="39.7802071" lon="8.6776638"><ele>76.0</ele><time>2026-05-03T09:00:12.77Z</time></trkpt><trkpt lat="39.7803663" lon="8.6778567"><ele>77.0</ele><time>2026-05-03T09:00:13.771Z</time></trkpt><trkpt lat="39.7805265" lon="8.6780487"><ele>78.0</ele><time>2026-05-03T09:00:14.772Z</time></trkpt><trkpt lat="39.7806869" lon="8.6782436"><ele>78.0</ele><time>2026-05-03T09:00:15.771Z</time></trkpt><trkpt lat="39.7808524" lon="8.6784278"><ele>78.0</ele><time>2026-05-03T09:00:16.77Z</time></trkpt><trkpt lat="39.7810291" lon="8.6786024"><ele>78.0</ele><time>2026-05-03T09:00:17.77Z</time></trkpt><trkpt lat="39.7812151" lon="8.6787565"><ele>79.0</ele><time>2026-05-03T09:00:18.77Z</time></trkpt><trkpt lat="39.7814141" lon="8.6788878"><ele>80.0</ele><time>2026-05-03T09:00:19.771Z</time></trkpt><trkpt lat="39.7816215" lon="8.6789983"><ele>81.0</ele><time>2026-05-03T09:00:20.771Z</time></trkpt><trkpt lat="39.7818381" lon="8.67909"><ele>81.33333333333333</ele><time>2026-05-03T09:00:21.77Z</time></trkpt><trkpt lat="39.7820494" lon="8.6791635"><ele>81.66666666666666</ele><time>2026-05-03T09:00:22.769Z</time></trkpt><trkpt lat="39.7822535" lon="8.6792067"><ele>82.0</ele><time>2026-05-03T09:00:23.771Z</time></trkpt><trkpt lat="39.7824447" lon="8.6792318"><ele>82.0</ele><time>2026-05-03T09:00:24.771Z</time></trkpt><trkpt lat="39.7826004" lon="8.6792457"><ele>82.0</ele><time>2026-05-03T09:00:25.771Z</time></trkpt><trkpt lat="39.7827134" lon="8.6792513"><ele>82.0</ele><time>2026-05-03T09:00:26.77Z</time></trkpt><trkpt lat="39.7827881" lon="8.6792577"><ele>82.0</ele><time>2026-05-03T09:00:27.77Z</time></trkpt><trkpt lat="39.7828788" lon="8.6793161"><ele>82.0</ele><time>2026-05-03T09:00:29.77Z</time></trkpt><trkpt lat="39.7829319" lon="8.6794341"><ele>83.0</ele><time>2026-05-03T09:00:31.77Z</time></trkpt><trkpt lat="39.782963" lon="8.6795196"><ele>84.0</ele><time>2026-05-03T09:00:32.77Z</time></trkpt><trkpt lat="39.7829813" lon="8.6796346"><ele>85.0</ele><time>2026-05-03T09:00:33.77Z</time></trkpt><trkpt lat="39.7830038" lon="8.6797817"><ele>86.0</ele><time>2026-05-03T09:00:34.771Z</time></trkpt><trkpt lat="39.7830288" lon="8.6799467"><ele>87.0</ele><time>2026-05-03T09:00:35.77Z</time></trkpt><trkpt lat="39.7830822" lon="8.6801321"><ele>88.33333333333333</ele><time>2026-05-03T09:00:36.771Z</time></trkpt><trkpt lat="39.7831397" lon="8.6803343"><ele>89.66666666666666</ele><time>2026-05-03T09:00:37.771Z</time></trkpt><trkpt lat="39.7832019" lon="8.6805499"><ele>91.0</ele><time>2026-05-03T09:00:38.77Z</time></trkpt><trkpt lat="39.783259" lon="8.6807861"><ele>91.0</ele><time>2026-05-03T09:00:39.769Z</time></trkpt><trkpt lat="39.7833176" lon="8.6810307"><ele>91.0</ele><time>2026-05-03T09:00:40.77Z</time></trkpt><trkpt lat="39.7833752" lon="8.6812858"><ele>91.0</ele><time>2026-05-03T09:00:41.771Z</time></trkpt><trkpt lat="39.7834252" lon="8.6815174"><ele>91.66666666666666</ele><time>2026-05-03T09:00:42.77Z</time></trkpt><trkpt lat="39.7834705" lon="8.6817329"><ele>92.33333333333333</ele><time>2026-05-03T09:00:43.77Z</time></trkpt><trkpt lat="39.78351" lon="8.6819368"><ele>93.0</ele><time>2026-05-03T09:00:44.77Z</time></trkpt><trkpt lat="39.783554" lon="8.682142"><ele>95.33333333333334</ele><time>2026-05-03T09:00:45.77Z</time></trkpt><trkpt lat="39.783612" lon="8.682351"><ele>97.66666666666667</ele><time>2026-05-03T09:00:46.77Z</time></trkpt><trkpt lat="39.7836772" lon="8.6825389"><ele>100.0</ele><time>2026-05-03T09:00:47.77Z</time></trkpt><trkpt lat="39.7837348" lon="8.6827067"><ele>100.66666666666667</ele><time>2026-05-03T09:00:48.77Z</time></trkpt><trkpt lat="39.7837841" lon="8.6828842"><ele>101.33333333333334</ele><time>2026-05-03T09:00:49.771Z</time></trkpt><trkpt lat="39.7838359" lon="8.6830784"><ele>102.0</ele><time>2026-05-03T09:00:50.771Z</time></trkpt><trkpt lat="39.7838863" lon="8.6832884"><ele>102.0</ele><time>2026-05-03T09:00:51.771Z</time></trkpt><trkpt lat="39.7839342" lon="8.6835064"><ele>102.0</ele><time>2026-05-03T09:00:52.77Z</time></trkpt><trkpt lat="39.7839841" lon="8.6837434"><ele>102.0</ele><time>2026-05-03T09:00:53.771Z</time></trkpt><trkpt lat="39.7840459" lon="8.683969"><ele>103.33333333333334</ele><time>2026-05-03T09:00:54.769Z</time></trkpt><trkpt lat="39.78411" lon="8.6842027"><ele>104.66666666666667</ele><time>2026-05-03T09:00:55.771Z</time></trkpt><trkpt lat="39.7841727" lon="8.6844365"><ele>106.0</ele><time>2026-05-03T09:00:56.771Z</time></trkpt><trkpt lat="39.7842303" lon="8.6846687"><ele>107.33333333333334</ele><time>2026-05-03T09:00:57.771Z</time></trkpt><trkpt lat="39.7842828" lon="8.6848872"><ele>108.66666666666666</ele><time>2026-05-03T09:00:58.769Z</time></trkpt><trkpt lat="39.7843452" lon="8.6851055"><ele>110.0</ele><time>2026-05-03T09:00:59.771Z</time></trkpt><trkpt lat="39.7844183" lon="8.6853059"><ele>112.66666666666666</ele><time>2026-05-03T09:01:00.77Z</time></trkpt><trkpt lat="39.7844999" lon="8.6854881"><ele>115.33333333333334</ele><time>2026-05-03T09:01:01.771Z</time></trkpt><trkpt lat="39.7845917" lon="8.6856545"><ele>118.0</ele><time>2026-05-03T09:01:02.77Z</time></trkpt><trkpt lat="39.7846796" lon="8.6858195"><ele>118.0</ele><time>2026-05-03T09:01:03.769Z</time></trkpt><trkpt lat="39.7847507" lon="8.6859718"><ele>118.00000000000001</ele><time>2026-05-03T09:01:04.771Z</time></trkpt><trkpt lat="39.7848087" lon="8.6860989"><ele>118.00000000000001</ele><time>2026-05-03T09:01:05.769Z</time></trkpt><trkpt lat="39.7848594" lon="8.6861962"><ele>118.0</ele><time>2026-05-03T09:01:06.769Z</time></trkpt><trkpt lat="39.7849081" lon="8.6862978"><ele>118.0</ele><time>2026-05-03T09:01:08.77Z</time></trkpt><trkpt lat="39.784969" lon="8.6864147"><ele>118.2</ele><time>2026-05-03T09:01:11.771Z</time></trkpt><trkpt lat="39.7850258" lon="8.6865281"><ele>118.4</ele><time>2026-05-03T09:01:13.771Z</time></trkpt><trkpt lat="39.7850929" lon="8.6866554"><ele>118.60000000000001</ele><time>2026-05-03T09:01:15.771Z</time></trkpt><trkpt lat="39.7851575" lon="8.6867822"><ele>118.80000000000001</ele><time>2026-05-03T09:01:17.771Z</time></trkpt><trkpt lat="39.7852014" lon="8.6868768"><ele>119.0</ele><time>2026-05-03T09:01:19.77Z</time></trkpt><trkpt lat="39.7852411" lon="8.6869559"><ele>120.6</ele><time>2026-05-03T09:01:21.77Z</time></trkpt><trkpt lat="39.7852796" lon="8.6870566"><ele>122.2</ele><time>2026-05-03T09:01:24.771Z</time></trkpt><trkpt lat="39.7853414" lon="8.6871542"><ele>123.79999999999998</ele><time>2026-05-03T09:01:26.77Z</time></trkpt><trkpt lat="39.7854061" lon="8.6872749"><ele>125.39999999999999</ele><time>2026-05-03T09:01:28.77Z</time></trkpt><trkpt lat="39.7854692" lon="8.6874104"><ele>127.0</ele><time>2026-05-03T09:01:30.769Z</time></trkpt><trkpt lat="39.7855237" lon="8.6875255"><ele>127.00000000000001</ele><time>2026-05-03T09:01:32.772Z</time></trkpt><trkpt lat="39.7855584" lon="8.6876108"><ele>127.0</ele><time>2026-05-03T09:01:34.77Z</time></trkpt><trkpt lat="39.7856128" lon="8.6877196"><ele>127.0</ele><time>2026-05-03T09:01:36.77Z</time></trkpt><trkpt lat="39.7856559" lon="8.6877848"><ele>127.0</ele><time>2026-05-03T09:01:37.771Z</time></trkpt><trkpt lat="39.7857077" lon="8.6879075"><ele>127.00000000000001</ele><time>2026-05-03T09:01:39.772Z</time></trkpt><trkpt lat="39.7857095" lon="8.6879971"><ele>127.0</ele><time>2026-05-03T09:01:41.77Z</time></trkpt><trkpt lat="39.7856874" lon="8.688089"><ele>127.19999999999999</ele><time>2026-05-03T09:01:44.77Z</time></trkpt><trkpt lat="39.78568" lon="8.6881926"><ele>127.39999999999999</ele><time>2026-05-03T09:01:46.769Z</time></trkpt><trkpt lat="39.7857062" lon="8.6883176"><ele>127.60000000000001</ele><time>2026-05-03T09:01:48.771Z</time></trkpt><trkpt lat="39.7857662" lon="8.6884538"><ele>127.80000000000001</ele><time>2026-05-03T09:01:50.769Z</time></trkpt><trkpt lat="39.7858189" lon="8.6885372"><ele>128.0</ele><time>2026-05-03T09:01:51.77Z</time></trkpt><trkpt lat="39.7858767" lon="8.6886181"><ele>127.80000000000001</ele><time>2026-05-03T09:01:52.77Z</time></trkpt><trkpt lat="39.7859341" lon="8.6886885"><ele>127.60000000000001</ele><time>2026-05-03T09:01:53.771Z</time></trkpt><trkpt lat="39.7859939" lon="8.6887534"><ele>127.39999999999999</ele><time>2026-05-03T09:01:54.769Z</time></trkpt><trkpt lat="39.7861049" lon="8.6888037"><ele>127.19999999999999</ele><time>2026-05-03T09:01:56.77Z</time></trkpt><trkpt lat="39.7861729" lon="8.6888124"><ele>127.0</ele><time>2026-05-03T09:01:57.769Z</time></trkpt><trkpt lat="39.7862828" lon="8.6888613"><ele>127.0</ele><time>2026-05-03T09:01:59.77Z</time></trkpt><trkpt lat="39.7864129" lon="8.6889389"><ele>126.99999999999999</ele><time>2026-05-03T09:02:01.771Z</time></trkpt><trkpt lat="39.7864873" lon="8.6889622"><ele>126.99999999999999</ele><time>2026-05-03T09:02:02.77Z</time></trkpt><trkpt lat="39.7865692" lon="8.6889658"><ele>127.0</ele><time>2026-05-03T09:02:03.77Z</time></trkpt><trkpt lat="39.7866529" lon="8.6889517"><ele>127.0</ele><time>2026-05-03T09:02:04.77Z</time></trkpt><trkpt lat="39.7867285" lon="8.6889222"><ele>127.00000000000001</ele><time>2026-05-03T09:02:05.77Z</time></trkpt><trkpt lat="39.7867988" lon="8.6888797"><ele>127.0</ele><time>2026-05-03T09:02:06.771Z</time></trkpt><trkpt lat="39.7868652" lon="8.6888345"><ele>127.0</ele><time>2026-05-03T09:02:07.77Z</time></trkpt><trkpt lat="39.7869337" lon="8.6887866"><ele>127.0</ele><time>2026-05-03T09:02:08.77Z</time></trkpt><trkpt lat="39.7869939" lon="8.6887409"><ele>127.00000000000001</ele><time>2026-05-03T09:02:09.771Z</time></trkpt><trkpt lat="39.7871013" lon="8.6886743"><ele>127.0</ele><time>2026-05-03T09:02:11.77Z</time></trkpt><trkpt lat="39.7871696" lon="8.6886565"><ele>126.39999999999999</ele><time>2026-05-03T09:02:12.771Z</time></trkpt><trkpt lat="39.7872451" lon="8.6886273"><ele>125.79999999999998</ele><time>2026-05-03T09:02:13.771Z</time></trkpt><trkpt lat="39.7873473" lon="8.6886107"><ele>125.2</ele><time>2026-05-03T09:02:14.771Z</time></trkpt><trkpt lat="39.7874516" lon="8.6885991"><ele>124.6</ele><time>2026-05-03T09:02:15.769Z</time></trkpt><trkpt lat="39.7875627" lon="8.6885964"><ele>124.0</ele><time>2026-05-03T09:02:16.769Z</time></trkpt><trkpt lat="39.7876722" lon="8.688587"><ele>122.0</ele><time>2026-05-03T09:02:17.77Z</time></trkpt><trkpt lat="39.7877914" lon="8.6885889"><ele>120.0</ele><time>2026-05-03T09:02:18.771Z</time></trkpt><trkpt lat="39.7879192" lon="8.688585"><ele>118.0</ele><time>2026-05-03T09:02:19.77Z</time></trkpt><trkpt lat="39.7880489" lon="8.6885764"><ele>116.0</ele><time>2026-05-03T09:02:20.771Z</time></trkpt><trkpt lat="39.7881809" lon="8.6885671"><ele>116.0</ele><time>2026-05-03T09:02:21.77Z</time></trkpt><trkpt lat="39.7883112" lon="8.6885592"><ele>116.0</ele><time>2026-05-03T09:02:22.769Z</time></trkpt><trkpt lat="39.7884447" lon="8.6885447"><ele>116.0</ele><time>2026-05-03T09:02:23.77Z</time></trkpt><trkpt lat="39.7885758" lon="8.6885387"><ele>116.0</ele><time>2026-05-03T09:02:24.77Z</time></trkpt><trkpt lat="39.7887072" lon="8.6885246"><ele>114.5</ele><time>2026-05-03T09:02:25.771Z</time></trkpt><trkpt lat="39.7888301" lon="8.6885114"><ele>113.0</ele><time>2026-05-03T09:02:26.771Z</time></trkpt><trkpt lat="39.7889541" lon="8.6885006"><ele>111.5</ele><time>2026-05-03T09:02:27.77Z</time></trkpt><trkpt lat="39.7890713" lon="8.6884912"><ele>110.0</ele><time>2026-05-03T09:02:28.77Z</time></trkpt><trkpt lat="39.7891826" lon="8.6884842"><ele>110.0</ele><time>2026-05-03T09:02:29.769Z</time></trkpt><trkpt lat="39.7892918" lon="8.6884823"><ele>110.0</ele><time>2026-05-03T09:02:30.77Z</time></trkpt><trkpt lat="39.7894176" lon="8.6884767"><ele>110.0</ele><time>2026-05-03T09:02:31.77Z</time></trkpt><trkpt lat="39.789538" lon="8.6884735"><ele>110.0</ele><time>2026-05-03T09:02:32.77Z</time></trkpt><trkpt lat="39.7896637" lon="8.6884681"><ele>109.25</ele><time>2026-05-03T09:02:33.771Z</time></trkpt><trkpt lat="39.7897963" lon="8.6884609"><ele>108.5</ele><time>2026-05-03T09:02:34.771Z</time></trkpt><trkpt lat="39.7899262" lon="8.6884408"><ele>107.75</ele><time>2026-05-03T09:02:35.771Z</time></trkpt><trkpt lat="39.7900621" lon="8.6884259"><ele>107.0</ele><time>2026-05-03T09:02:36.769Z</time></trkpt><trkpt lat="39.7901938" lon="8.6884128"><ele>106.0</ele><time>2026-05-03T09:02:37.771Z</time></trkpt><trkpt lat="39.7903152" lon="8.688401"><ele>104.99999999999999</ele><time>2026-05-03T09:02:38.77Z</time></trkpt><trkpt lat="39.790423" lon="8.6883841"><ele>104.0</ele><time>2026-05-03T09:02:39.771Z</time></trkpt><trkpt lat="39.7905133" lon="8.6883671"><ele>103.0</ele><time>2026-05-03T09:02:40.77Z</time></trkpt><trkpt lat="39.7905918" lon="8.6883431"><ele>102.0</ele><time>2026-05-03T09:02:41.77Z</time></trkpt><trkpt lat="39.7906853" lon="8.6882534"><ele>102.0</ele><time>2026-05-03T09:02:43.771Z</time></trkpt><trkpt lat="39.7907421" lon="8.688201"><ele>102.0</ele><time>2026-05-03T09:02:44.771Z</time></trkpt><trkpt lat="39.7908039" lon="8.6881535"><ele>102.0</ele><time>2026-05-03T09:02:45.771Z</time></trkpt><trkpt lat="39.7908735" lon="8.6881137"><ele>102.0</ele><time>2026-05-03T09:02:46.77Z</time></trkpt><trkpt lat="39.790956" lon="8.6880914"><ele>102.0</ele><time>2026-05-03T09:02:47.77Z</time></trkpt><trkpt lat="39.791039" lon="8.6880721"><ele>102.0</ele><time>2026-05-03T09:02:48.769Z</time></trkpt><trkpt lat="39.7911124" lon="8.6880664"><ele>100.83333333333333</ele><time>2026-05-03T09:02:49.77Z</time></trkpt><trkpt lat="39.791181" lon="8.6880616"><ele>99.66666666666667</ele><time>2026-05-03T09:02:50.771Z</time></trkpt><trkpt lat="39.7912487" lon="8.6880504"><ele>98.5</ele><time>2026-05-03T09:02:51.771Z</time></trkpt><trkpt lat="39.7913633" lon="8.6880217"><ele>97.33333333333334</ele><time>2026-05-03T09:02:53.769Z</time></trkpt><trkpt lat="39.7914365" lon="8.6880057"><ele>96.16666666666667</ele><time>2026-05-03T09:02:54.77Z</time></trkpt><trkpt lat="39.7915172" lon="8.6880002"><ele>95.0</ele><time>2026-05-03T09:02:55.77Z</time></trkpt><trkpt lat="39.7915902" lon="8.6879968"><ele>95.0</ele><time>2026-05-03T09:02:56.771Z</time></trkpt><trkpt lat="39.7916678" lon="8.6879956"><ele>95.0</ele><time>2026-05-03T09:02:57.77Z</time></trkpt><trkpt lat="39.7917402" lon="8.6879995"><ele>95.0</ele><time>2026-05-03T09:02:58.769Z</time></trkpt><trkpt lat="39.7918154" lon="8.6880139"><ele>95.0</ele><time>2026-05-03T09:02:59.771Z</time></trkpt><trkpt lat="39.7918834" lon="8.6880188"><ele>95.0</ele><time>2026-05-03T09:03:00.77Z</time></trkpt><trkpt lat="39.7919494" lon="8.6880316"><ele>95.0</ele><time>2026-05-03T09:03:01.77Z</time></trkpt><trkpt lat="39.7920404" lon="8.6880567"><ele>94.16666666666667</ele><time>2026-05-03T09:03:03.769Z</time></trkpt><trkpt lat="39.792094" lon="8.6881584"><ele>93.33333333333334</ele><time>2026-05-03T09:03:10.771Z</time></trkpt><trkpt lat="39.7921769" lon="8.688182"><ele>92.5</ele><time>2026-05-03T09:03:12.77Z</time></trkpt><trkpt lat="39.7922433" lon="8.6881552"><ele>91.66666666666667</ele><time>2026-05-03T09:03:13.771Z</time></trkpt><trkpt lat="39.7923598" lon="8.6881468"><ele>90.83333333333333</ele><time>2026-05-03T09:03:15.77Z</time></trkpt><trkpt lat="39.7924232" lon="8.6881546"><ele>90.0</ele><time>2026-05-03T09:03:16.77Z</time></trkpt><trkpt lat="39.7925012" lon="8.6881779"><ele>90.0</ele><time>2026-05-03T09:03:17.771Z</time></trkpt><trkpt lat="39.7925869" lon="8.6882064"><ele>90.0</ele><time>2026-05-03T09:03:18.77Z</time></trkpt><trkpt lat="39.7926765" lon="8.6882339"><ele>90.0</ele><time>2026-05-03T09:03:19.77Z</time></trkpt><trkpt lat="39.7927737" lon="8.6882693"><ele>90.0</ele><time>2026-05-03T09:03:20.77Z</time></trkpt><trkpt lat="39.7928703" lon="8.688303"><ele>90.0</ele><time>2026-05-03T09:03:21.77Z</time></trkpt><trkpt lat="39.7929601" lon="8.6883313"><ele>89.6</ele><time>2026-05-03T09:03:22.771Z</time></trkpt><trkpt lat="39.7930567" lon="8.68836"><ele>89.2</ele><time>2026-05-03T09:03:23.77Z</time></trkpt><trkpt lat="39.7931555" lon="8.6883904"><ele>88.80000000000001</ele><time>2026-05-03T09:03:24.771Z</time></trkpt><trkpt lat="39.7932485" lon="8.6884154"><ele>88.4</ele><time>2026-05-03T09:03:25.77Z</time></trkpt><trkpt lat="39.7933384" lon="8.6884359"><ele>88.0</ele><time>2026-05-03T09:03:26.771Z</time></trkpt><trkpt lat="39.79343" lon="8.6884551"><ele>88.0</ele><time>2026-05-03T09:03:27.77Z</time></trkpt><trkpt lat="39.7935259" lon="8.6884811"><ele>88.0</ele><time>2026-05-03T09:03:28.77Z</time></trkpt><trkpt lat="39.7936238" lon="8.6885044"><ele>88.0</ele><time>2026-05-03T09:03:29.771Z</time></trkpt><trkpt lat="39.7937211" lon="8.6885154"><ele>88.0</ele><time>2026-05-03T09:03:30.771Z</time></trkpt><trkpt lat="39.7938044" lon="8.6885236"><ele>88.0</ele><time>2026-05-03T09:03:31.77Z</time></trkpt><trkpt lat="39.7938943" lon="8.6885308"><ele>88.0</ele><time>2026-05-03T09:03:32.77Z</time></trkpt><trkpt lat="39.7939767" lon="8.688546"><ele>88.0</ele><time>2026-05-03T09:03:33.769Z</time></trkpt><trkpt lat="39.794054" lon="8.6885665"><ele>88.0</ele><time>2026-05-03T09:03:34.77Z</time></trkpt><trkpt lat="39.7941505" lon="8.6885948"><ele>88.0</ele><time>2026-05-03T09:03:35.77Z</time></trkpt><trkpt lat="39.7942397" lon="8.688633"><ele>88.0</ele><time>2026-05-03T09:03:36.769Z</time></trkpt><trkpt lat="39.79434" lon="8.6886691"><ele>88.5</ele><time>2026-05-03T09:03:37.77Z</time></trkpt><trkpt lat="39.794446" lon="8.6887115"><ele>89.0</ele><time>2026-05-03T09:03:38.77Z</time></trkpt><trkpt lat="39.7945597" lon="8.6887574"><ele>89.5</ele><time>2026-05-03T09:03:39.769Z</time></trkpt><trkpt lat="39.7946895" lon="8.6888023"><ele>90.0</ele><time>2026-05-03T09:03:40.769Z</time></trkpt><trkpt lat="39.7948093" lon="8.6888504"><ele>90.0</ele><time>2026-05-03T09:03:41.771Z</time></trkpt><trkpt lat="39.7949287" lon="8.6888968"><ele>90.0</ele><time>2026-05-03T09:03:42.77Z</time></trkpt><trkpt lat="39.7950629" lon="8.6889292"><ele>90.0</ele><time>2026-05-03T09:03:43.771Z</time></trkpt><trkpt lat="39.795196" lon="8.6889489"><ele>90.0</ele><time>2026-05-03T09:03:44.77Z</time></trkpt><trkpt lat="39.7953333" lon="8.6889747"><ele>90.5</ele><time>2026-05-03T09:03:45.769Z</time></trkpt><trkpt lat="39.7954639" lon="8.6890026"><ele>91.0</ele><time>2026-05-03T09:03:46.77Z</time></trkpt><trkpt lat="39.7955888" lon="8.6890279"><ele>91.5</ele><time>2026-05-03T09:03:47.77Z</time></trkpt><trkpt lat="39.7957017" lon="8.6890602"><ele>92.0</ele><time>2026-05-03T09:03:48.77Z</time></trkpt><trkpt lat="39.7958055" lon="8.689094"><ele>92.0</ele><time>2026-05-03T09:03:49.77Z</time></trkpt><trkpt lat="39.7959019" lon="8.6891364"><ele>92.0</ele><time>2026-05-03T09:03:50.77Z</time></trkpt><trkpt lat="39.7959828" lon="8.6891862"><ele>92.0</ele><time>2026-05-03T09:03:51.77Z</time></trkpt><trkpt lat="39.7960506" lon="8.6892373"><ele>92.0</ele><time>2026-05-03T09:03:52.771Z</time></trkpt><trkpt lat="39.7961087" lon="8.6892788"><ele>92.0</ele><time>2026-05-03T09:03:53.771Z</time></trkpt><trkpt lat="39.7961694" lon="8.6893007"><ele>92.0</ele><time>2026-05-03T09:03:54.769Z</time></trkpt><trkpt lat="39.7962384" lon="8.6893061"><ele>92.16666666666667</ele><time>2026-05-03T09:03:55.771Z</time></trkpt><trkpt lat="39.7963263" lon="8.6892721"><ele>92.33333333333334</ele><time>2026-05-03T09:03:56.769Z</time></trkpt><trkpt lat="39.7963982" lon="8.6892808"><ele>92.5</ele><time>2026-05-03T09:03:57.769Z</time></trkpt><trkpt lat="39.7964682" lon="8.6892894"><ele>92.66666666666667</ele><time>2026-05-03T09:03:58.771Z</time></trkpt><trkpt lat="39.7965499" lon="8.6893134"><ele>92.83333333333333</ele><time>2026-05-03T09:03:59.768Z</time></trkpt><trkpt lat="39.7966376" lon="8.6893501"><ele>93.0</ele><time>2026-05-03T09:04:00.77Z</time></trkpt><trkpt lat="39.7967415" lon="8.6893912"><ele>93.0</ele><time>2026-05-03T09:04:01.77Z</time></trkpt><trkpt lat="39.7968587" lon="8.6894238"><ele>93.0</ele><time>2026-05-03T09:04:02.771Z</time></trkpt><trkpt lat="39.7969658" lon="8.689461"><ele>93.0</ele><time>2026-05-03T09:04:03.77Z</time></trkpt><trkpt lat="39.7970623" lon="8.6894914"><ele>93.0</ele><time>2026-05-03T09:04:04.769Z</time></trkpt><trkpt lat="39.7971449" lon="8.6895153"><ele>93.0</ele><time>2026-05-03T09:04:05.77Z</time></trkpt><trkpt lat="39.7972148" lon="8.6895545"><ele>94.0</ele><time>2026-05-03T09:04:06.77Z</time></trkpt><trkpt lat="39.7972992" lon="8.6897005"><ele>95.0</ele><time>2026-05-03T09:04:08.771Z</time></trkpt><trkpt lat="39.7973445" lon="8.689819"><ele>96.0</ele><time>2026-05-03T09:04:09.77Z</time></trkpt><trkpt lat="39.7974016" lon="8.6899483"><ele>97.0</ele><time>2026-05-03T09:04:10.771Z</time></trkpt><trkpt lat="39.7974641" lon="8.6900933"><ele>97.0</ele><time>2026-05-03T09:04:11.769Z</time></trkpt><trkpt lat="39.7975344" lon="8.6902431"><ele>97.0</ele><time>2026-05-03T09:04:12.771Z</time></trkpt><trkpt lat="39.7976119" lon="8.6903974"><ele>97.0</ele><time>2026-05-03T09:04:13.769Z</time></trkpt><trkpt lat="39.797679" lon="8.6905506"><ele>97.0</ele><time>2026-05-03T09:04:14.768Z</time></trkpt><trkpt lat="39.7977496" lon="8.6907021"><ele>98.0</ele><time>2026-05-03T09:04:15.77Z</time></trkpt><trkpt lat="39.7978231" lon="8.6908491"><ele>99.0</ele><time>2026-05-03T09:04:16.768Z</time></trkpt><trkpt lat="39.7978954" lon="8.690995"><ele>100.0</ele><time>2026-05-03T09:04:17.77Z</time></trkpt><trkpt lat="39.797964" lon="8.6911414"><ele>101.0</ele><time>2026-05-03T09:04:18.77Z</time></trkpt><trkpt lat="39.7980263" lon="8.6912791"><ele>101.4</ele><time>2026-05-03T09:04:19.77Z</time></trkpt><trkpt lat="39.7980942" lon="8.6913948"><ele>101.8</ele><time>2026-05-03T09:04:20.77Z</time></trkpt><trkpt lat="39.7981743" lon="8.6914914"><ele>102.2</ele><time>2026-05-03T09:04:21.771Z</time></trkpt><trkpt lat="39.7982706" lon="8.6915705"><ele>102.60000000000001</ele><time>2026-05-03T09:04:22.77Z</time></trkpt><trkpt lat="39.7983771" lon="8.6916221"><ele>103.0</ele><time>2026-05-03T09:04:23.769Z</time></trkpt><trkpt lat="39.7984939" lon="8.6916779"><ele>103.60000000000001</ele><time>2026-05-03T09:04:24.769Z</time></trkpt><trkpt lat="39.798602" lon="8.6917359"><ele>104.2</ele><time>2026-05-03T09:04:25.771Z</time></trkpt><trkpt lat="39.7987032" lon="8.6918073"><ele>104.8</ele><time>2026-05-03T09:04:26.769Z</time></trkpt><trkpt lat="39.798789" lon="8.6918962"><ele>105.4</ele><time>2026-05-03T09:04:27.77Z</time></trkpt><trkpt lat="39.7988645" lon="8.6919836"><ele>106.0</ele><time>2026-05-03T09:04:28.77Z</time></trkpt><trkpt lat="39.7989324" lon="8.6920777"><ele>106.8</ele><time>2026-05-03T09:04:29.768Z</time></trkpt><trkpt lat="39.7989961" lon="8.6921803"><ele>107.6</ele><time>2026-05-03T09:04:30.771Z</time></trkpt><trkpt lat="39.7990573" lon="8.6922942"><ele>108.4</ele><time>2026-05-03T09:04:31.771Z</time></trkpt><trkpt lat="39.7991009" lon="8.6923947"><ele>109.2</ele><time>2026-05-03T09:04:32.77Z</time></trkpt><trkpt lat="39.7991514" lon="8.6924889"><ele>110.0</ele><time>2026-05-03T09:04:33.771Z</time></trkpt><trkpt lat="39.7992103" lon="8.6925639"><ele>110.0</ele><time>2026-05-03T09:04:34.769Z</time></trkpt><trkpt lat="39.7992824" lon="8.6926219"><ele>110.0</ele><time>2026-05-03T09:04:35.77Z</time></trkpt><trkpt lat="39.7993749" lon="8.6926664"><ele>110.0</ele><time>2026-05-03T09:04:36.769Z</time></trkpt><trkpt lat="39.7994753" lon="8.6927073"><ele>110.0</ele><time>2026-05-03T09:04:37.77Z</time></trkpt><trkpt lat="39.7995813" lon="8.6927607"><ele>110.0</ele><time>2026-05-03T09:04:38.77Z</time></trkpt><trkpt lat="39.7996961" lon="8.6928057"><ele>112.25</ele><time>2026-05-03T09:04:39.769Z</time></trkpt><trkpt lat="39.7998093" lon="8.6928621"><ele>114.5</ele><time>2026-05-03T09:04:40.77Z</time></trkpt><trkpt lat="39.7999297" lon="8.6929265"><ele>116.75</ele><time>2026-05-03T09:04:41.77Z</time></trkpt><trkpt lat="39.8000576" lon="8.692984"><ele>119.0</ele><time>2026-05-03T09:04:42.77Z</time></trkpt><trkpt lat="39.800191" lon="8.6930329"><ele>119.75</ele><time>2026-05-03T09:04:43.771Z</time></trkpt><trkpt lat="39.8003176" lon="8.6930829"><ele>120.5</ele><time>2026-05-03T09:04:44.77Z</time></trkpt><trkpt lat="39.8004411" lon="8.6931321"><ele>121.25</ele><time>2026-05-03T09:04:45.771Z</time></trkpt><trkpt lat="39.8005544" lon="8.6931925"><ele>122.0</ele><time>2026-05-03T09:04:46.769Z</time></trkpt><trkpt lat="39.8006638" lon="8.6932614"><ele>122.0</ele><time>2026-05-03T09:04:47.771Z</time></trkpt><trkpt lat="39.8007785" lon="8.6933401"><ele>122.0</ele><time>2026-05-03T09:04:48.769Z</time></trkpt><trkpt lat="39.8008866" lon="8.6934165"><ele>122.0</ele><time>2026-05-03T09:04:49.77Z</time></trkpt><trkpt lat="39.8009937" lon="8.6934963"><ele>122.0</ele><time>2026-05-03T09:04:50.769Z</time></trkpt><trkpt lat="39.8010864" lon="8.69359"><ele>123.39999999999999</ele><time>2026-05-03T09:04:51.77Z</time></trkpt><trkpt lat="39.8011779" lon="8.6936927"><ele>124.79999999999998</ele><time>2026-05-03T09:04:52.769Z</time></trkpt><trkpt lat="39.8012631" lon="8.6937911"><ele>126.2</ele><time>2026-05-03T09:04:53.771Z</time></trkpt><trkpt lat="39.8013396" lon="8.6938822"><ele>127.6</ele><time>2026-05-03T09:04:54.771Z</time></trkpt><trkpt lat="39.801417" lon="8.6939438"><ele>129.0</ele><time>2026-05-03T09:04:55.77Z</time></trkpt><trkpt lat="39.8014975" lon="8.6939914"><ele>129.0</ele><time>2026-05-03T09:04:56.77Z</time></trkpt><trkpt lat="39.8015765" lon="8.6940185"><ele>129.0</ele><time>2026-05-03T09:04:57.77Z</time></trkpt><trkpt lat="39.8016718" lon="8.6940267"><ele>129.0</ele><time>2026-05-03T09:04:58.769Z</time></trkpt><trkpt lat="39.8017752" lon="8.6940236"><ele>129.0</ele><time>2026-05-03T09:04:59.769Z</time></trkpt><trkpt lat="39.8018828" lon="8.6940298"><ele>129.0</ele><time>2026-05-03T09:05:00.77Z</time></trkpt><trkpt lat="39.8019973" lon="8.6940323"><ele>129.0</ele><time>2026-05-03T09:05:01.769Z</time></trkpt><trkpt lat="39.8021204" lon="8.6940408"><ele>129.0</ele><time>2026-05-03T09:05:02.77Z</time></trkpt><trkpt lat="39.8022315" lon="8.6940576"><ele>129.0</ele><time>2026-05-03T09:05:03.769Z</time></trkpt><trkpt lat="39.8023403" lon="8.6940952"><ele>129.0</ele><time>2026-05-03T09:05:04.77Z</time></trkpt><trkpt lat="39.802452" lon="8.6941329"><ele>129.0</ele><time>2026-05-03T09:05:05.77Z</time></trkpt><trkpt lat="39.8025835" lon="8.6941762"><ele>129.0</ele><time>2026-05-03T09:05:06.77Z</time></trkpt><trkpt lat="39.8027065" lon="8.6942107"><ele>129.0</ele><time>2026-05-03T09:05:07.769Z</time></trkpt><trkpt lat="39.8028119" lon="8.6942317"><ele>129.0</ele><time>2026-05-03T09:05:08.769Z</time></trkpt><trkpt lat="39.8028959" lon="8.6942468"><ele>129.2</ele><time>2026-05-03T09:05:09.77Z</time></trkpt><trkpt lat="39.8029904" lon="8.6942353"><ele>129.4</ele><time>2026-05-03T09:05:11.771Z</time></trkpt><trkpt lat="39.8030697" lon="8.6941472"><ele>129.6</ele><time>2026-05-03T09:05:13.769Z</time></trkpt><trkpt lat="39.8031855" lon="8.6941194"><ele>129.8</ele><time>2026-05-03T09:05:15.769Z</time></trkpt><trkpt lat="39.8032667" lon="8.6941247"><ele>130.0</ele><time>2026-05-03T09:05:16.771Z</time></trkpt><trkpt lat="39.803387" lon="8.6941415"><ele>130.5</ele><time>2026-05-03T09:05:17.771Z</time></trkpt><trkpt lat="39.8035189" lon="8.6941628"><ele>131.0</ele><time>2026-05-03T09:05:18.77Z</time></trkpt><trkpt lat="39.8036655" lon="8.6941835"><ele>131.5</ele><time>2026-05-03T09:05:19.768Z</time></trkpt><trkpt lat="39.8038009" lon="8.6941879"><ele>132.0</ele><time>2026-05-03T09:05:20.77Z</time></trkpt><trkpt lat="39.8039205" lon="8.6941989"><ele>132.0</ele><time>2026-05-03T09:05:21.77Z</time></trkpt><trkpt lat="39.8040204" lon="8.6942106"><ele>132.0</ele><time>2026-05-03T09:05:22.77Z</time></trkpt><trkpt lat="39.8041288" lon="8.6942242"><ele>132.0</ele><time>2026-05-03T09:05:23.77Z</time></trkpt><trkpt lat="39.8042365" lon="8.6942419"><ele>132.0</ele><time>2026-05-03T09:05:24.77Z</time></trkpt><trkpt lat="39.8043333" lon="8.6942551"><ele>132.0</ele><time>2026-05-03T09:05:25.771Z</time></trkpt><trkpt lat="39.8044296" lon="8.6942767"><ele>131.6</ele><time>2026-05-03T09:05:26.769Z</time></trkpt><trkpt lat="39.8045185" lon="8.694293"><ele>131.2</ele><time>2026-05-03T09:05:27.769Z</time></trkpt><trkpt lat="39.8045869" lon="8.6943043"><ele>130.8</ele><time>2026-05-03T09:05:28.77Z</time></trkpt><trkpt lat="39.8046882" lon="8.6942571"><ele>130.4</ele><time>2026-05-03T09:05:30.77Z</time></trkpt><trkpt lat="39.8047379" lon="8.6941354"><ele>130.0</ele><time>2026-05-03T09:05:32.768Z</time></trkpt><trkpt lat="39.8047739" lon="8.6940404"><ele>130.0</ele><time>2026-05-03T09:05:33.769Z</time></trkpt><trkpt lat="39.8048081" lon="8.6939342"><ele>130.0</ele><time>2026-05-03T09:05:34.77Z</time></trkpt><trkpt lat="39.8048512" lon="8.6938045"><ele>130.0</ele><time>2026-05-03T09:05:35.769Z</time></trkpt><trkpt lat="39.8048952" lon="8.6936827"><ele>130.0</ele><time>2026-05-03T09:05:36.768Z</time></trkpt><trkpt lat="39.8049377" lon="8.6935551"><ele>130.0</ele><time>2026-05-03T09:05:37.77Z</time></trkpt><trkpt lat="39.8049747" lon="8.6934203"><ele>129.0</ele><time>2026-05-03T09:05:38.77Z</time></trkpt><trkpt lat="39.8050235" lon="8.6932834"><ele>128.0</ele><time>2026-05-03T09:05:39.77Z</time></trkpt><trkpt lat="39.8050747" lon="8.6931452"><ele>127.0</ele><time>2026-05-03T09:05:40.77Z</time></trkpt><trkpt lat="39.8051105" lon="8.6929982"><ele>126.0</ele><time>2026-05-03T09:05:41.769Z</time></trkpt><trkpt lat="39.8051451" lon="8.6928431"><ele>124.25</ele><time>2026-05-03T09:05:42.77Z</time></trkpt><trkpt lat="39.8051726" lon="8.6926932"><ele>122.5</ele><time>2026-05-03T09:05:43.769Z</time></trkpt><trkpt lat="39.8052015" lon="8.6925389"><ele>120.75</ele><time>2026-05-03T09:05:44.769Z</time></trkpt><trkpt lat="39.8052223" lon="8.6923815"><ele>119.0</ele><time>2026-05-03T09:05:45.769Z</time></trkpt><trkpt lat="39.8052489" lon="8.6922278"><ele>119.0</ele><time>2026-05-03T09:05:46.769Z</time></trkpt><trkpt lat="39.8052826" lon="8.692071"><ele>119.0</ele><time>2026-05-03T09:05:47.771Z</time></trkpt><trkpt lat="39.8053176" lon="8.6919078"><ele>119.0</ele><time>2026-05-03T09:05:48.768Z</time></trkpt><trkpt lat="39.8053643" lon="8.6917294"><ele>119.0</ele><time>2026-05-03T09:05:49.771Z</time></trkpt><trkpt lat="39.8054023" lon="8.6915742"><ele>118.25</ele><time>2026-05-03T09:05:50.771Z</time></trkpt><trkpt lat="39.8054408" lon="8.6914151"><ele>117.5</ele><time>2026-05-03T09:05:51.771Z</time></trkpt><trkpt lat="39.8054825" lon="8.6912438"><ele>116.75</ele><time>2026-05-03T09:05:52.771Z</time></trkpt><trkpt lat="39.8055308" lon="8.6910665"><ele>116.0</ele><time>2026-05-03T09:05:53.77Z</time></trkpt><trkpt lat="39.805575" lon="8.6908659"><ele>114.66666666666666</ele><time>2026-05-03T09:05:54.771Z</time></trkpt><trkpt lat="39.8056262" lon="8.6906639"><ele>113.33333333333334</ele><time>2026-05-03T09:05:55.771Z</time></trkpt><trkpt lat="39.805679" lon="8.690458"><ele>112.0</ele><time>2026-05-03T09:05:56.771Z</time></trkpt><trkpt lat="39.805732" lon="8.690245"><ele>110.66666666666667</ele><time>2026-05-03T09:05:57.768Z</time></trkpt><trkpt lat="39.8057819" lon="8.6900299"><ele>109.33333333333334</ele><time>2026-05-03T09:05:58.769Z</time></trkpt><trkpt lat="39.8058302" lon="8.6898121"><ele>108.0</ele><time>2026-05-03T09:05:59.77Z</time></trkpt><trkpt lat="39.8058841" lon="8.689603"><ele>106.66666666666666</ele><time>2026-05-03T09:06:00.768Z</time></trkpt><trkpt lat="39.8059355" lon="8.6893873"><ele>105.33333333333333</ele><time>2026-05-03T09:06:01.769Z</time></trkpt><trkpt lat="39.8059882" lon="8.6891701"><ele>104.0</ele><time>2026-05-03T09:06:02.77Z</time></trkpt><trkpt lat="39.8060401" lon="8.6889489"><ele>103.33333333333333</ele><time>2026-05-03T09:06:03.77Z</time></trkpt><trkpt lat="39.8060914" lon="8.6887376"><ele>102.66666666666666</ele><time>2026-05-03T09:06:04.77Z</time></trkpt><trkpt lat="39.8061436" lon="8.6885247"><ele>102.0</ele><time>2026-05-03T09:06:05.769Z</time></trkpt><trkpt lat="39.8061921" lon="8.6883171"><ele>100.0</ele><time>2026-05-03T09:06:06.77Z</time></trkpt><trkpt lat="39.8062409" lon="8.6881084"><ele>98.0</ele><time>2026-05-03T09:06:07.769Z</time></trkpt><trkpt lat="39.8062947" lon="8.6878928"><ele>96.0</ele><time>2026-05-03T09:06:08.77Z</time></trkpt><trkpt lat="39.8063441" lon="8.6876856"><ele>94.66666666666667</ele><time>2026-05-03T09:06:09.771Z</time></trkpt><trkpt lat="39.8063935" lon="8.6874799"><ele>93.33333333333334</ele><time>2026-05-03T09:06:10.77Z</time></trkpt><trkpt lat="39.8064442" lon="8.6872822"><ele>92.0</ele><time>2026-05-03T09:06:11.769Z</time></trkpt><trkpt lat="39.806491" lon="8.6870811"><ele>91.0</ele><time>2026-05-03T09:06:12.77Z</time></trkpt><trkpt lat="39.8065468" lon="8.6868862"><ele>90.0</ele><time>2026-05-03T09:06:13.77Z</time></trkpt><trkpt lat="39.8065911" lon="8.6866886"><ele>89.0</ele><time>2026-05-03T09:06:14.768Z</time></trkpt><trkpt lat="39.8066425" lon="8.6864863"><ele>89.0</ele><time>2026-05-03T09:06:15.769Z</time></trkpt><trkpt lat="39.8066926" lon="8.6862785"><ele>89.0</ele><time>2026-05-03T09:06:16.769Z</time></trkpt><trkpt lat="39.8067441" lon="8.6860672"><ele>89.0</ele><time>2026-05-03T09:06:17.771Z</time></trkpt><trkpt lat="39.8068053" lon="8.6858474"><ele>87.66666666666667</ele><time>2026-05-03T09:06:18.771Z</time></trkpt><trkpt lat="39.8068606" lon="8.6856282"><ele>86.33333333333333</ele><time>2026-05-03T09:06:19.769Z</time></trkpt><trkpt lat="39.8069035" lon="8.6854215"><ele>85.0</ele><time>2026-05-03T09:06:20.77Z</time></trkpt><trkpt lat="39.8069552" lon="8.6852122"><ele>84.0</ele><time>2026-05-03T09:06:21.771Z</time></trkpt><trkpt lat="39.8070052" lon="8.6850015"><ele>83.0</ele><time>2026-05-03T09:06:22.769Z</time></trkpt><trkpt lat="39.8070584" lon="8.6847851"><ele>82.0</ele><time>2026-05-03T09:06:23.77Z</time></trkpt><trkpt lat="39.8071188" lon="8.684571"><ele>81.0</ele><time>2026-05-03T09:06:24.77Z</time></trkpt><trkpt lat="39.8071787" lon="8.6843526"><ele>80.0</ele><time>2026-05-03T09:06:25.771Z</time></trkpt><trkpt lat="39.8072392" lon="8.6841269"><ele>79.0</ele><time>2026-05-03T09:06:26.769Z</time></trkpt><trkpt lat="39.807313" lon="8.6838975"><ele>79.0</ele><time>2026-05-03T09:06:27.77Z</time></trkpt><trkpt lat="39.8073743" lon="8.6836717"><ele>79.0</ele><time>2026-05-03T09:06:28.769Z</time></trkpt><trkpt lat="39.8074458" lon="8.6834549"><ele>79.0</ele><time>2026-05-03T09:06:29.769Z</time></trkpt><trkpt lat="39.8075133" lon="8.6832308"><ele>77.66666666666666</ele><time>2026-05-03T09:06:30.769Z</time></trkpt><trkpt lat="39.8075799" lon="8.6830126"><ele>76.33333333333333</ele><time>2026-05-03T09:06:31.768Z</time></trkpt><trkpt lat="39.807646" lon="8.6827898"><ele>75.0</ele><time>2026-05-03T09:06:32.769Z</time></trkpt><trkpt lat="39.8077184" lon="8.6825616"><ele>73.33333333333333</ele><time>2026-05-03T09:06:33.77Z</time></trkpt><trkpt lat="39.8077829" lon="8.6823352"><ele>71.66666666666666</ele><time>2026-05-03T09:06:34.771Z</time></trkpt><trkpt lat="39.8078549" lon="8.6821076"><ele>70.0</ele><time>2026-05-03T09:06:35.768Z</time></trkpt><trkpt lat="39.8079308" lon="8.6818803"><ele>69.66666666666666</ele><time>2026-05-03T09:06:36.77Z</time></trkpt><trkpt lat="39.807996" lon="8.6816484"><ele>69.33333333333333</ele><time>2026-05-03T09:06:37.769Z</time></trkpt><trkpt lat="39.8080708" lon="8.6814175"><ele>69.0</ele><time>2026-05-03T09:06:38.77Z</time></trkpt><trkpt lat="39.808132" lon="8.6811833"><ele>68.0</ele><time>2026-05-03T09:06:39.77Z</time></trkpt><trkpt lat="39.8081987" lon="8.6809536"><ele>67.0</ele><time>2026-05-03T09:06:40.77Z</time></trkpt><trkpt lat="39.8082708" lon="8.6807207"><ele>66.0</ele><time>2026-05-03T09:06:41.77Z</time></trkpt><trkpt lat="39.8083494" lon="8.680482"><ele>66.0</ele><time>2026-05-03T09:06:42.77Z</time></trkpt><trkpt lat="39.8084143" lon="8.6802494"><ele>66.0</ele><time>2026-05-03T09:06:43.77Z</time></trkpt><trkpt lat="39.8084852" lon="8.6800178"><ele>66.0</ele><time>2026-05-03T09:06:44.77Z</time></trkpt><trkpt lat="39.8085571" lon="8.6797874"><ele>65.0</ele><time>2026-05-03T09:06:45.768Z</time></trkpt><trkpt lat="39.8086235" lon="8.6795577"><ele>64.0</ele><time>2026-05-03T09:06:46.77Z</time></trkpt><trkpt lat="39.8086898" lon="8.6793429"><ele>63.0</ele><time>2026-05-03T09:06:47.769Z</time></trkpt><trkpt lat="39.8087496" lon="8.6791452"><ele>62.25</ele><time>2026-05-03T09:06:48.768Z</time></trkpt><trkpt lat="39.8088045" lon="8.6789606"><ele>61.5</ele><time>2026-05-03T09:06:49.77Z</time></trkpt><trkpt lat="39.8088494" lon="8.6787967"><ele>60.75</ele><time>2026-05-03T09:06:50.77Z</time></trkpt><trkpt lat="39.8088825" lon="8.6786687"><ele>60.0</ele><time>2026-05-03T09:06:51.769Z</time></trkpt><trkpt lat="39.8089036" lon="8.6785701"><ele>59.2</ele><time>2026-05-03T09:06:52.769Z</time></trkpt><trkpt lat="39.808926" lon="8.6784447"><ele>58.4</ele><time>2026-05-03T09:06:54.771Z</time></trkpt><trkpt lat="39.8089421" lon="8.6783059"><ele>57.599999999999994</ele><time>2026-05-03T09:07:02.769Z</time></trkpt><trkpt lat="39.8089503" lon="8.6782135"><ele>56.8</ele><time>2026-05-03T09:07:03.769Z</time></trkpt><trkpt lat="39.8089576" lon="8.6780908"><ele>56.0</ele><time>2026-05-03T09:07:04.769Z</time></trkpt><trkpt lat="39.8089667" lon="8.6779527"><ele>56.0</ele><time>2026-05-03T09:07:05.77Z</time></trkpt><trkpt lat="39.8089737" lon="8.6777925"><ele>56.0</ele><time>2026-05-03T09:07:06.768Z</time></trkpt><trkpt lat="39.8089734" lon="8.6776267"><ele>56.0</ele><time>2026-05-03T09:07:07.769Z</time></trkpt><trkpt lat="39.8089672" lon="8.6774493"><ele>56.0</ele><time>2026-05-03T09:07:08.769Z</time></trkpt><trkpt lat="39.8089551" lon="8.6772534"><ele>55.66666666666667</ele><time>2026-05-03T09:07:09.771Z</time></trkpt><trkpt lat="39.8089453" lon="8.6770332"><ele>55.33333333333333</ele><time>2026-05-03T09:07:10.771Z</time></trkpt><trkpt lat="39.8089396" lon="8.6767953"><ele>55.0</ele><time>2026-05-03T09:07:11.769Z</time></trkpt><trkpt lat="39.8089364" lon="8.6765377"><ele>54.33333333333333</ele><time>2026-05-03T09:07:12.769Z</time></trkpt><trkpt lat="39.8089308" lon="8.6762687"><ele>53.66666666666667</ele><time>2026-05-03T09:07:13.769Z</time></trkpt><trkpt lat="39.8089231" lon="8.6759858"><ele>53.0</ele><time>2026-05-03T09:07:14.768Z</time></trkpt><trkpt lat="39.8089185" lon="8.6756901"><ele>52.0</ele><time>2026-05-03T09:07:15.769Z</time></trkpt><trkpt lat="39.8089153" lon="8.675392"><ele>51.0</ele><time>2026-05-03T09:07:16.769Z</time></trkpt><trkpt lat="39.8089101" lon="8.6750914"><ele>51.0</ele><time>2026-05-03T09:07:17.769Z</time></trkpt><trkpt lat="39.808908" lon="8.6747892"><ele>51.0</ele><time>2026-05-03T09:07:18.768Z</time></trkpt><trkpt lat="39.8089163" lon="8.6744847"><ele>50.0</ele><time>2026-05-03T09:07:19.77Z</time></trkpt><trkpt lat="39.8089259" lon="8.6741725"><ele>49.0</ele><time>2026-05-03T09:07:20.769Z</time></trkpt><trkpt lat="39.8089282" lon="8.6738516"><ele>48.0</ele><time>2026-05-03T09:07:21.769Z</time></trkpt><trkpt lat="39.8089252" lon="8.6735309"><ele>47.0</ele><time>2026-05-03T09:07:22.771Z</time></trkpt><trkpt lat="39.8089197" lon="8.6732071"><ele>47.0</ele><time>2026-05-03T09:07:23.769Z</time></trkpt><trkpt lat="39.8089147" lon="8.6728934"><ele>47.0</ele><time>2026-05-03T09:07:24.769Z</time></trkpt><trkpt lat="39.8089156" lon="8.6725817"><ele>46.5</ele><time>2026-05-03T09:07:25.77Z</time></trkpt><trkpt lat="39.808914" lon="8.6722715"><ele>46.0</ele><time>2026-05-03T09:07:26.77Z</time></trkpt><trkpt lat="39.8089105" lon="8.6719673"><ele>46.0</ele><time>2026-05-03T09:07:27.77Z</time></trkpt><trkpt lat="39.8089113" lon="8.6716539"><ele>46.0</ele><time>2026-05-03T09:07:28.769Z</time></trkpt><trkpt lat="39.8089085" lon="8.671342"><ele>45.5</ele><time>2026-05-03T09:07:29.769Z</time></trkpt><trkpt lat="39.8089048" lon="8.6710229"><ele>45.0</ele><time>2026-05-03T09:07:30.769Z</time></trkpt><trkpt lat="39.8089034" lon="8.6707199"><ele>45.0</ele><time>2026-05-03T09:07:31.769Z</time></trkpt><trkpt lat="39.8089044" lon="8.670433"><ele>45.0</ele><time>2026-05-03T09:07:32.769Z</time></trkpt><trkpt lat="39.8089005" lon="8.670166"><ele>45.0</ele><time>2026-05-03T09:07:33.77Z</time></trkpt><trkpt lat="39.8089006" lon="8.6699127"><ele>44.333333333333336</ele><time>2026-05-03T09:07:34.77Z</time></trkpt><trkpt lat="39.808918" lon="8.6696713"><ele>43.66666666666667</ele><time>2026-05-03T09:07:35.771Z</time></trkpt><trkpt lat="39.8089686" lon="8.6694266"><ele>43.0</ele><time>2026-05-03T09:07:36.77Z</time></trkpt><trkpt lat="39.8090467" lon="8.6691774"><ele>43.0</ele><time>2026-05-03T09:07:37.77Z</time></trkpt><trkpt lat="39.8091508" lon="8.6689235"><ele>43.0</ele><time>2026-05-03T09:07:38.77Z</time></trkpt><trkpt lat="39.8092617" lon="8.6686545"><ele>41.5</ele><time>2026-05-03T09:07:39.769Z</time></trkpt><trkpt lat="39.8093781" lon="8.6683715"><ele>40.0</ele><time>2026-05-03T09:07:40.769Z</time></trkpt><trkpt lat="39.8094939" lon="8.668075"><ele>40.0</ele><time>2026-05-03T09:07:41.77Z</time></trkpt><trkpt lat="39.809607" lon="8.6677969"><ele>40.0</ele><time>2026-05-03T09:07:42.77Z</time></trkpt><trkpt lat="39.809713" lon="8.6675452"><ele>40.333333333333336</ele><time>2026-05-03T09:07:43.77Z</time></trkpt><trkpt lat="39.8097915" lon="8.667335"><ele>40.666666666666664</ele><time>2026-05-03T09:07:44.769Z</time></trkpt><trkpt lat="39.809849" lon="8.6671518"><ele>41.0</ele><time>2026-05-03T09:07:45.769Z</time></trkpt><trkpt lat="39.8098805" lon="8.6669875"><ele>40.5</ele><time>2026-05-03T09:07:46.77Z</time></trkpt><trkpt lat="39.809897" lon="8.666836"><ele>40.0</ele><time>2026-05-03T09:07:47.768Z</time></trkpt><trkpt lat="39.8099043" lon="8.6666766"><ele>39.5</ele><time>2026-05-03T09:07:48.77Z</time></trkpt><trkpt lat="39.8099078" lon="8.6665201"><ele>39.0</ele><time>2026-05-03T09:07:49.77Z</time></trkpt><trkpt lat="39.8099038" lon="8.6663902"><ele>39.0</ele><time>2026-05-03T09:07:50.77Z</time></trkpt><trkpt lat="39.8098915" lon="8.6663069"><ele>39.0</ele><time>2026-05-03T09:07:51.769Z</time></trkpt><trkpt lat="39.809814" lon="8.6662514"><ele>39.0</ele><time>2026-05-03T09:07:53.768Z</time></trkpt><trkpt lat="39.8097355" lon="8.6662313"><ele>39.0</ele><time>2026-05-03T09:07:54.77Z</time></trkpt><trkpt lat="39.8096291" lon="8.6662212"><ele>39.0</ele><time>2026-05-03T09:07:55.768Z</time></trkpt><trkpt lat="39.8095069" lon="8.6662097"><ele>39.333333333333336</ele><time>2026-05-03T09:07:56.769Z</time></trkpt><trkpt lat="39.8093205" lon="8.6662073"><ele>39.66666666666667</ele><time>2026-05-03T09:07:57.77Z</time></trkpt><trkpt lat="39.8091376" lon="8.6661987"><ele>40.0</ele><time>2026-05-03T09:07:58.769Z</time></trkpt><trkpt lat="39.8089471" lon="8.6661923"><ele>40.0</ele><time>2026-05-03T09:07:59.769Z</time></trkpt><trkpt lat="39.8087618" lon="8.6661918"><ele>40.0</ele><time>2026-05-03T09:08:00.77Z</time></trkpt><trkpt lat="39.8085888" lon="8.6661851"><ele>40.0</ele><time>2026-05-03T09:08:01.769Z</time></trkpt><trkpt lat="39.8084166" lon="8.6661735"><ele>39.66666666666667</ele><time>2026-05-03T09:08:02.769Z</time></trkpt><trkpt lat="39.8082449" lon="8.6661622"><ele>39.333333333333336</ele><time>2026-05-03T09:08:03.768Z</time></trkpt><trkpt lat="39.8080714" lon="8.6661549"><ele>39.0</ele><time>2026-05-03T09:08:04.768Z</time></trkpt><trkpt lat="39.8078956" lon="8.6661465"><ele>39.0</ele><time>2026-05-03T09:08:05.769Z</time></trkpt><trkpt lat="39.8077103" lon="8.6661416"><ele>39.0</ele><time>2026-05-03T09:08:06.768Z</time></trkpt><trkpt lat="39.8075406" lon="8.6661296"><ele>39.0</ele><time>2026-05-03T09:08:07.769Z</time></trkpt><trkpt lat="39.8073942" lon="8.6661184"><ele>39.25</ele><time>2026-05-03T09:08:08.77Z</time></trkpt><trkpt lat="39.807262" lon="8.6661019"><ele>39.5</ele><time>2026-05-03T09:08:09.769Z</time></trkpt><trkpt lat="39.807126" lon="8.6660833"><ele>39.75</ele><time>2026-05-03T09:08:10.77Z</time></trkpt><trkpt lat="39.8069835" lon="8.66604"><ele>40.0</ele><time>2026-05-03T09:08:11.769Z</time></trkpt><trkpt lat="39.8068165" lon="8.6659808"><ele>40.0</ele><time>2026-05-03T09:08:12.77Z</time></trkpt><trkpt lat="39.8066403" lon="8.6659085"><ele>40.0</ele><time>2026-05-03T09:08:13.769Z</time></trkpt><trkpt lat="39.8064591" lon="8.6658162"><ele>40.0</ele><time>2026-05-03T09:08:14.77Z</time></trkpt><trkpt lat="39.8062947" lon="8.6657403"><ele>40.0</ele><time>2026-05-03T09:08:15.769Z</time></trkpt><trkpt lat="39.8061334" lon="8.6656672"><ele>40.0</ele><time>2026-05-03T09:08:16.769Z</time></trkpt><trkpt lat="39.8059942" lon="8.6656048"><ele>40.0</ele><time>2026-05-03T09:08:17.769Z</time></trkpt><trkpt lat="39.8058486" lon="8.6655321"><ele>40.0</ele><time>2026-05-03T09:08:18.769Z</time></trkpt><trkpt lat="39.8057157" lon="8.6654589"><ele>40.0</ele><time>2026-05-03T09:08:19.769Z</time></trkpt><trkpt lat="39.8055936" lon="8.6653887"><ele>40.0</ele><time>2026-05-03T09:08:20.769Z</time></trkpt><trkpt lat="39.8054832" lon="8.6653286"><ele>40.0</ele><time>2026-05-03T09:08:21.768Z</time></trkpt><trkpt lat="39.8053653" lon="8.6652675"><ele>39.75</ele><time>2026-05-03T09:08:22.77Z</time></trkpt><trkpt lat="39.805242" lon="8.6652011"><ele>39.5</ele><time>2026-05-03T09:08:23.77Z</time></trkpt><trkpt lat="39.805107" lon="8.6651321"><ele>39.25</ele><time>2026-05-03T09:08:24.769Z</time></trkpt><trkpt lat="39.8049694" lon="8.6650635"><ele>39.0</ele><time>2026-05-03T09:08:25.769Z</time></trkpt><trkpt lat="39.8048306" lon="8.6649927"><ele>39.0</ele><time>2026-05-03T09:08:26.77Z</time></trkpt><trkpt lat="39.8046887" lon="8.6649163"><ele>39.0</ele><time>2026-05-03T09:08:27.768Z</time></trkpt><trkpt lat="39.8045467" lon="8.664839"><ele>39.0</ele><time>2026-05-03T09:08:28.769Z</time></trkpt><trkpt lat="39.8044023" lon="8.6647601"><ele>39.0</ele><time>2026-05-03T09:08:29.77Z</time></trkpt><trkpt lat="39.8042534" lon="8.6646783"><ele>39.0</ele><time>2026-05-03T09:08:30.768Z</time></trkpt><trkpt lat="39.8040973" lon="8.6645964"><ele>39.0</ele><time>2026-05-03T09:08:31.769Z</time></trkpt><trkpt lat="39.8039365" lon="8.6645206"><ele>39.0</ele><time>2026-05-03T09:08:32.77Z</time></trkpt><trkpt lat="39.8037651" lon="8.6644409"><ele>39.0</ele><time>2026-05-03T09:08:33.771Z</time></trkpt><trkpt lat="39.8036015" lon="8.6643769"><ele>39.0</ele><time>2026-05-03T09:08:34.768Z</time></trkpt><trkpt lat="39.8034312" lon="8.6643219"><ele>39.0</ele><time>2026-05-03T09:08:35.77Z</time></trkpt><trkpt lat="39.8032661" lon="8.6642755"><ele>39.0</ele><time>2026-05-03T09:08:36.77Z</time></trkpt><trkpt lat="39.8030948" lon="8.6642434"><ele>39.0</ele><time>2026-05-03T09:08:37.769Z</time></trkpt><trkpt lat="39.8029267" lon="8.6642015"><ele>39.0</ele><time>2026-05-03T09:08:38.769Z</time></trkpt><trkpt lat="39.8027732" lon="8.6641576"><ele>39.0</ele><time>2026-05-03T09:08:39.769Z</time></trkpt><trkpt lat="39.8026079" lon="8.6641209"><ele>39.0</ele><time>2026-05-03T09:08:40.769Z</time></trkpt><trkpt lat="39.8024485" lon="8.6640883"><ele>39.0</ele><time>2026-05-03T09:08:41.77Z</time></trkpt><trkpt lat="39.8022975" lon="8.6640533"><ele>39.0</ele><time>2026-05-03T09:08:42.769Z</time></trkpt><trkpt lat="39.8021422" lon="8.6640218"><ele>39.0</ele><time>2026-05-03T09:08:43.769Z</time></trkpt><trkpt lat="39.8019868" lon="8.6639961"><ele>39.0</ele><time>2026-05-03T09:08:44.77Z</time></trkpt><trkpt lat="39.8018321" lon="8.6639706"><ele>39.0</ele><time>2026-05-03T09:08:45.769Z</time></trkpt><trkpt lat="39.801681" lon="8.6639359"><ele>39.0</ele><time>2026-05-03T09:08:46.769Z</time></trkpt><trkpt lat="39.801527" lon="8.6638976"><ele>39.333333333333336</ele><time>2026-05-03T09:08:47.769Z</time></trkpt><trkpt lat="39.8013687" lon="8.6638611"><ele>39.66666666666667</ele><time>2026-05-03T09:08:48.769Z</time></trkpt><trkpt lat="39.8012023" lon="8.6638304"><ele>40.0</ele><time>2026-05-03T09:08:49.77Z</time></trkpt><trkpt lat="39.8010342" lon="8.6637948"><ele>39.66666666666667</ele><time>2026-05-03T09:08:50.77Z</time></trkpt><trkpt lat="39.800868" lon="8.6637515"><ele>39.333333333333336</ele><time>2026-05-03T09:08:51.77Z</time></trkpt><trkpt lat="39.8006965" lon="8.6637144"><ele>39.0</ele><time>2026-05-03T09:08:52.77Z</time></trkpt><trkpt lat="39.8005227" lon="8.6636657"><ele>39.0</ele><time>2026-05-03T09:08:53.771Z</time></trkpt><trkpt lat="39.8003482" lon="8.6636195"><ele>39.0</ele><time>2026-05-03T09:08:54.769Z</time></trkpt><trkpt lat="39.800174" lon="8.6635845"><ele>39.0</ele><time>2026-05-03T09:08:55.769Z</time></trkpt><trkpt lat="39.8000154" lon="8.6635484"><ele>38.666666666666664</ele><time>2026-05-03T09:08:56.77Z</time></trkpt><trkpt lat="39.7998387" lon="8.6635027"><ele>38.33333333333333</ele><time>2026-05-03T09:08:57.77Z</time></trkpt><trkpt lat="39.7996702" lon="8.6634687"><ele>38.0</ele><time>2026-05-03T09:08:58.769Z</time></trkpt><trkpt lat="39.799506" lon="8.6634294"><ele>38.0</ele><time>2026-05-03T09:08:59.769Z</time></trkpt><trkpt lat="39.799338" lon="8.6633931"><ele>38.0</ele><time>2026-05-03T09:09:00.77Z</time></trkpt><trkpt lat="39.7991774" lon="8.6633529"><ele>38.0</ele><time>2026-05-03T09:09:01.769Z</time></trkpt><trkpt lat="39.7990145" lon="8.6633169"><ele>38.33333333333333</ele><time>2026-05-03T09:09:02.769Z</time></trkpt><trkpt lat="39.7988664" lon="8.6632828"><ele>38.666666666666664</ele><time>2026-05-03T09:09:03.77Z</time></trkpt><trkpt lat="39.7987031" lon="8.6632484"><ele>39.0</ele><time>2026-05-03T09:09:04.769Z</time></trkpt><trkpt lat="39.7985378" lon="8.6632089"><ele>39.333333333333336</ele><time>2026-05-03T09:09:05.771Z</time></trkpt><trkpt lat="39.7983659" lon="8.6631624"><ele>39.66666666666667</ele><time>2026-05-03T09:09:06.77Z</time></trkpt><trkpt lat="39.7981925" lon="8.6631256"><ele>40.0</ele><time>2026-05-03T09:09:07.768Z</time></trkpt><trkpt lat="39.7980104" lon="8.6630978"><ele>40.0</ele><time>2026-05-03T09:09:08.769Z</time></trkpt><trkpt lat="39.7978348" lon="8.663068"><ele>40.0</ele><time>2026-05-03T09:09:09.768Z</time></trkpt><trkpt lat="39.7976647" lon="8.6630332"><ele>40.0</ele><time>2026-05-03T09:09:10.769Z</time></trkpt><trkpt lat="39.7974959" lon="8.6629925"><ele>39.66666666666667</ele><time>2026-05-03T09:09:11.77Z</time></trkpt><trkpt lat="39.797329" lon="8.662959"><ele>39.333333333333336</ele><time>2026-05-03T09:09:12.77Z</time></trkpt><trkpt lat="39.7971787" lon="8.6629227"><ele>39.0</ele><time>2026-05-03T09:09:13.769Z</time></trkpt><trkpt lat="39.7970399" lon="8.6628968"><ele>39.0</ele><time>2026-05-03T09:09:14.77Z</time></trkpt><trkpt lat="39.796908" lon="8.6628666"><ele>39.0</ele><time>2026-05-03T09:09:15.769Z</time></trkpt><trkpt lat="39.7967822" lon="8.6628474"><ele>39.0</ele><time>2026-05-03T09:09:16.769Z</time></trkpt><trkpt lat="39.7966553" lon="8.6628244"><ele>39.0</ele><time>2026-05-03T09:09:17.769Z</time></trkpt><trkpt lat="39.7965248" lon="8.6628273"><ele>39.0</ele><time>2026-05-03T09:09:18.769Z</time></trkpt><trkpt lat="39.796397" lon="8.6628519"><ele>39.0</ele><time>2026-05-03T09:09:19.77Z</time></trkpt><trkpt lat="39.7962704" lon="8.6629045"><ele>39.0</ele><time>2026-05-03T09:09:20.769Z</time></trkpt><trkpt lat="39.7961361" lon="8.6629777"><ele>39.0</ele><time>2026-05-03T09:09:21.769Z</time></trkpt><trkpt lat="39.7959978" lon="8.6630489"><ele>38.75</ele><time>2026-05-03T09:09:22.769Z</time></trkpt><trkpt lat="39.7958573" lon="8.6631136"><ele>38.5</ele><time>2026-05-03T09:09:23.769Z</time></trkpt><trkpt lat="39.7957356" lon="8.6631543"><ele>38.25</ele><time>2026-05-03T09:09:24.769Z</time></trkpt><trkpt lat="39.7956248" lon="8.6631627"><ele>38.0</ele><time>2026-05-03T09:09:25.77Z</time></trkpt><trkpt lat="39.7955277" lon="8.6631282"><ele>38.0</ele><time>2026-05-03T09:09:26.769Z</time></trkpt><trkpt lat="39.7954344" lon="8.6630647"><ele>38.0</ele><time>2026-05-03T09:09:27.77Z</time></trkpt><trkpt lat="39.7953368" lon="8.6629823"><ele>38.0</ele><time>2026-05-03T09:09:28.769Z</time></trkpt><trkpt lat="39.7952336" lon="8.6628936"><ele>38.0</ele><time>2026-05-03T09:09:29.769Z</time></trkpt><trkpt lat="39.795131" lon="8.6628044"><ele>37.666666666666664</ele><time>2026-05-03T09:09:30.769Z</time></trkpt><trkpt lat="39.7950058" lon="8.6627161"><ele>37.333333333333336</ele><time>2026-05-03T09:09:31.768Z</time></trkpt><trkpt lat="39.7948708" lon="8.6626154"><ele>37.0</ele><time>2026-05-03T09:09:32.768Z</time></trkpt><trkpt lat="39.7947313" lon="8.6625154"><ele>37.0</ele><time>2026-05-03T09:09:33.768Z</time></trkpt><trkpt lat="39.7945955" lon="8.6624298"><ele>37.0</ele><time>2026-05-03T09:09:34.769Z</time></trkpt><trkpt lat="39.7944765" lon="8.6623597"><ele>37.0</ele><time>2026-05-03T09:09:35.77Z</time></trkpt><trkpt lat="39.7943489" lon="8.662293"><ele>37.0</ele><time>2026-05-03T09:09:36.769Z</time></trkpt><trkpt lat="39.7942209" lon="8.6622441"><ele>37.25</ele><time>2026-05-03T09:09:37.769Z</time></trkpt><trkpt lat="39.7940802" lon="8.6622256"><ele>37.5</ele><time>2026-05-03T09:09:38.769Z</time></trkpt><trkpt lat="39.7939447" lon="8.6622412"><ele>37.75</ele><time>2026-05-03T09:09:39.77Z</time></trkpt><trkpt lat="39.7938117" lon="8.6622798"><ele>38.0</ele><time>2026-05-03T09:09:40.77Z</time></trkpt><trkpt lat="39.7936787" lon="8.6623299"><ele>38.0</ele><time>2026-05-03T09:09:41.769Z</time></trkpt><trkpt lat="39.7935568" lon="8.6623858"><ele>38.0</ele><time>2026-05-03T09:09:42.77Z</time></trkpt><trkpt lat="39.7934511" lon="8.6624461"><ele>38.0</ele><time>2026-05-03T09:09:43.77Z</time></trkpt><trkpt lat="39.7933539" lon="8.6625303"><ele>38.0</ele><time>2026-05-03T09:09:44.77Z</time></trkpt><trkpt lat="39.7932803" lon="8.6626372"><ele>37.75</ele><time>2026-05-03T09:09:45.769Z</time></trkpt><trkpt lat="39.7932201" lon="8.6627575"><ele>37.5</ele><time>2026-05-03T09:09:46.769Z</time></trkpt><trkpt lat="39.7931718" lon="8.6628912"><ele>37.25</ele><time>2026-05-03T09:09:47.769Z</time></trkpt><trkpt lat="39.7931152" lon="8.6630244"><ele>37.0</ele><time>2026-05-03T09:09:48.768Z</time></trkpt><trkpt lat="39.7930501" lon="8.663144"><ele>37.0</ele><time>2026-05-03T09:09:49.769Z</time></trkpt><trkpt lat="39.79298" lon="8.6632297"><ele>37.0</ele><time>2026-05-03T09:09:50.769Z</time></trkpt><trkpt lat="39.7929102" lon="8.6633005"><ele>37.0</ele><time>2026-05-03T09:09:51.768Z</time></trkpt><trkpt lat="39.792824" lon="8.663325"><ele>37.0</ele><time>2026-05-03T09:09:52.768Z</time></trkpt><trkpt lat="39.7927371" lon="8.66333"><ele>37.0</ele><time>2026-05-03T09:09:53.769Z</time></trkpt><trkpt lat="39.792643" lon="8.6633022"><ele>37.0</ele><time>2026-05-03T09:09:54.769Z</time></trkpt><trkpt lat="39.7925591" lon="8.6632487"><ele>37.0</ele><time>2026-05-03T09:09:55.769Z</time></trkpt><trkpt lat="39.7924926" lon="8.6631618"><ele>37.0</ele><time>2026-05-03T09:09:56.77Z</time></trkpt><trkpt lat="39.7924415" lon="8.6630552"><ele>37.0</ele><time>2026-05-03T09:09:57.77Z</time></trkpt><trkpt lat="39.7923929" lon="8.6629166"><ele>37.0</ele><time>2026-05-03T09:09:58.768Z</time></trkpt><trkpt lat="39.7923308" lon="8.6627574"><ele>36.5</ele><time>2026-05-03T09:09:59.768Z</time></trkpt><trkpt lat="39.7922753" lon="8.6625921"><ele>36.0</ele><time>2026-05-03T09:10:00.769Z</time></trkpt><trkpt lat="39.7922044" lon="8.6624151"><ele>35.5</ele><time>2026-05-03T09:10:01.77Z</time></trkpt><trkpt lat="39.7921441" lon="8.6622558"><ele>35.0</ele><time>2026-05-03T09:10:02.769Z</time></trkpt><trkpt lat="39.7920773" lon="8.6620976"><ele>35.0</ele><time>2026-05-03T09:10:03.77Z</time></trkpt><trkpt lat="39.7920016" lon="8.6619405"><ele>35.0</ele><time>2026-05-03T09:10:04.768Z</time></trkpt><trkpt lat="39.7919213" lon="8.6617926"><ele>35.0</ele><time>2026-05-03T09:10:05.769Z</time></trkpt><trkpt lat="39.7918223" lon="8.6616549"><ele>35.0</ele><time>2026-05-03T09:10:06.769Z</time></trkpt><trkpt lat="39.791715" lon="8.6615139"><ele>35.666666666666664</ele><time>2026-05-03T09:10:07.77Z</time></trkpt><trkpt lat="39.7916007" lon="8.6613835"><ele>36.333333333333336</ele><time>2026-05-03T09:10:08.768Z</time></trkpt><trkpt lat="39.7914812" lon="8.6612666"><ele>37.0</ele><time>2026-05-03T09:10:09.77Z</time></trkpt><trkpt lat="39.7913549" lon="8.6611571"><ele>36.66666666666667</ele><time>2026-05-03T09:10:10.769Z</time></trkpt><trkpt lat="39.7912179" lon="8.6610605"><ele>36.333333333333336</ele><time>2026-05-03T09:10:11.768Z</time></trkpt><trkpt lat="39.7910754" lon="8.6609631"><ele>36.0</ele><time>2026-05-03T09:10:12.768Z</time></trkpt><trkpt lat="39.7909289" lon="8.6608635"><ele>36.0</ele><time>2026-05-03T09:10:13.77Z</time></trkpt><trkpt lat="39.7907738" lon="8.6607686"><ele>36.0</ele><time>2026-05-03T09:10:14.769Z</time></trkpt><trkpt lat="39.7906238" lon="8.6606718"><ele>36.0</ele><time>2026-05-03T09:10:15.769Z</time></trkpt><trkpt lat="39.7904701" lon="8.6605756"><ele>36.0</ele><time>2026-05-03T09:10:16.77Z</time></trkpt><trkpt lat="39.7903195" lon="8.6604744"><ele>36.0</ele><time>2026-05-03T09:10:17.769Z</time></trkpt><trkpt lat="39.7901733" lon="8.660378"><ele>36.0</ele><time>2026-05-03T09:10:18.769Z</time></trkpt><trkpt lat="39.7900322" lon="8.6603021"><ele>35.666666666666664</ele><time>2026-05-03T09:10:19.769Z</time></trkpt><trkpt lat="39.789894" lon="8.6602288"><ele>35.33333333333333</ele><time>2026-05-03T09:10:20.769Z</time></trkpt><trkpt lat="39.7897577" lon="8.6601509"><ele>35.0</ele><time>2026-05-03T09:10:21.768Z</time></trkpt><trkpt lat="39.7896107" lon="8.6600787"><ele>35.0</ele><time>2026-05-03T09:10:22.769Z</time></trkpt><trkpt lat="39.7894639" lon="8.6600046"><ele>35.0</ele><time>2026-05-03T09:10:23.769Z</time></trkpt><trkpt lat="39.7893182" lon="8.6599362"><ele>35.0</ele><time>2026-05-03T09:10:24.769Z</time></trkpt><trkpt lat="39.7891787" lon="8.65987"><ele>35.33333333333333</ele><time>2026-05-03T09:10:25.768Z</time></trkpt><trkpt lat="39.7890331" lon="8.6597966"><ele>35.666666666666664</ele><time>2026-05-03T09:10:26.77Z</time></trkpt><trkpt lat="39.7888869" lon="8.6597149"><ele>36.0</ele><time>2026-05-03T09:10:27.769Z</time></trkpt><trkpt lat="39.7887434" lon="8.6596376"><ele>36.0</ele><time>2026-05-03T09:10:28.769Z</time></trkpt><trkpt lat="39.7886056" lon="8.6595702"><ele>36.0</ele><time>2026-05-03T09:10:29.77Z</time></trkpt><trkpt lat="39.7884715" lon="8.6594984"><ele>36.0</ele><time>2026-05-03T09:10:30.77Z</time></trkpt><trkpt lat="39.7883358" lon="8.6594279"><ele>36.0</ele><time>2026-05-03T09:10:31.769Z</time></trkpt><trkpt lat="39.7881932" lon="8.6593496"><ele>36.0</ele><time>2026-05-03T09:10:32.77Z</time></trkpt><trkpt lat="39.7880504" lon="8.65928"><ele>36.0</ele><time>2026-05-03T09:10:33.769Z</time></trkpt><trkpt lat="39.7879217" lon="8.6592068"><ele>36.0</ele><time>2026-05-03T09:10:34.77Z</time></trkpt><trkpt lat="39.787792" lon="8.659141"><ele>36.0</ele><time>2026-05-03T09:10:35.77Z</time></trkpt><trkpt lat="39.7876708" lon="8.6590883"><ele>36.0</ele><time>2026-05-03T09:10:36.768Z</time></trkpt><trkpt lat="39.7875358" lon="8.6590575"><ele>36.0</ele><time>2026-05-03T09:10:37.769Z</time></trkpt><trkpt lat="39.7873886" lon="8.6590397"><ele>36.0</ele><time>2026-05-03T09:10:38.77Z</time></trkpt><trkpt lat="39.7872403" lon="8.6590253"><ele>36.0</ele><time>2026-05-03T09:10:39.768Z</time></trkpt><trkpt lat="39.7870995" lon="8.6590173"><ele>36.0</ele><time>2026-05-03T09:10:40.77Z</time></trkpt><trkpt lat="39.7869535" lon="8.6590089"><ele>36.0</ele><time>2026-05-03T09:10:41.769Z</time></trkpt><trkpt lat="39.7868237" lon="8.6590015"><ele>36.0</ele><time>2026-05-03T09:10:42.77Z</time></trkpt><trkpt lat="39.7867022" lon="8.6589911"><ele>36.0</ele><time>2026-05-03T09:10:43.769Z</time></trkpt><trkpt lat="39.7866005" lon="8.6589816"><ele>36.333333333333336</ele><time>2026-05-03T09:10:44.769Z</time></trkpt><trkpt lat="39.786505" lon="8.658971"><ele>36.666666666666664</ele><time>2026-05-03T09:10:45.769Z</time></trkpt><trkpt lat="39.7864283" lon="8.6589488"><ele>37.0</ele><time>2026-05-03T09:10:46.77Z</time></trkpt><trkpt lat="39.7863518" lon="8.6589374"><ele>37.33333333333333</ele><time>2026-05-03T09:10:47.769Z</time></trkpt><trkpt lat="39.7862876" lon="8.6589195"><ele>37.666666666666664</ele><time>2026-05-03T09:10:48.77Z</time></trkpt><trkpt lat="39.786198" lon="8.6588662"><ele>38.0</ele><time>2026-05-03T09:10:50.77Z</time></trkpt><trkpt lat="39.7861846" lon="8.6587621"><ele>38.0</ele><time>2026-05-03T09:10:52.77Z</time></trkpt><trkpt lat="39.7861932" lon="8.6586584"><ele>38.0</ele><time>2026-05-03T09:10:53.769Z</time></trkpt><trkpt lat="39.7861944" lon="8.6585065"><ele>38.0</ele><time>2026-05-03T09:10:54.769Z</time></trkpt><trkpt lat="39.7861987" lon="8.6583171"><ele>38.0</ele><time>2026-05-03T09:10:55.77Z</time></trkpt><trkpt lat="39.7862038" lon="8.6580966"><ele>37.0</ele><time>2026-05-03T09:10:56.769Z</time></trkpt><trkpt lat="39.7862087" lon="8.6578464"><ele>36.0</ele><time>2026-05-03T09:10:57.77Z</time></trkpt><trkpt lat="39.7862095" lon="8.657573"><ele>35.0</ele><time>2026-05-03T09:10:58.768Z</time></trkpt><trkpt lat="39.7862106" lon="8.6572839"><ele>34.0</ele><time>2026-05-03T09:10:59.768Z</time></trkpt><trkpt lat="39.7862145" lon="8.6569795"><ele>33.0</ele><time>2026-05-03T09:11:00.769Z</time></trkpt><trkpt lat="39.7862173" lon="8.6566571"><ele>32.5</ele><time>2026-05-03T09:11:01.77Z</time></trkpt><trkpt lat="39.7862211" lon="8.6563441"><ele>32.0</ele><time>2026-05-03T09:11:02.77Z</time></trkpt><trkpt lat="39.7862229" lon="8.656053"><ele>32.0</ele><time>2026-05-03T09:11:03.77Z</time></trkpt><trkpt lat="39.7862264" lon="8.6557774"><ele>32.0</ele><time>2026-05-03T09:11:04.77Z</time></trkpt><trkpt lat="39.7862311" lon="8.6555211"><ele>32.0</ele><time>2026-05-03T09:11:05.77Z</time></trkpt><trkpt lat="39.7862338" lon="8.6552658"><ele>31.333333333333332</ele><time>2026-05-03T09:11:06.769Z</time></trkpt><trkpt lat="39.7862404" lon="8.6550311"><ele>30.666666666666664</ele><time>2026-05-03T09:11:07.769Z</time></trkpt><trkpt lat="39.7862459" lon="8.6548056"><ele>30.0</ele><time>2026-05-03T09:11:08.769Z</time></trkpt><trkpt lat="39.7862487" lon="8.654582"><ele>29.5</ele><time>2026-05-03T09:11:09.769Z</time></trkpt><trkpt lat="39.7862522" lon="8.65438"><ele>29.0</ele><time>2026-05-03T09:11:10.769Z</time></trkpt><trkpt lat="39.7862541" lon="8.6541903"><ele>28.5</ele><time>2026-05-03T09:11:11.769Z</time></trkpt><trkpt lat="39.7862549" lon="8.654026"><ele>28.0</ele><time>2026-05-03T09:11:12.769Z</time></trkpt><trkpt lat="39.7862556" lon="8.6538796"><ele>28.0</ele><time>2026-05-03T09:11:13.768Z</time></trkpt><trkpt lat="39.7862689" lon="8.653771"><ele>27.999999999999996</ele><time>2026-05-03T09:11:14.77Z</time></trkpt><trkpt lat="39.7862859" lon="8.6536881"><ele>27.999999999999996</ele><time>2026-05-03T09:11:15.769Z</time></trkpt><trkpt lat="39.786358" lon="8.653551"><ele>28.0</ele><time>2026-05-03T09:11:17.769Z</time></trkpt><trkpt lat="39.7864329" lon="8.6534989"><ele>28.0</ele><time>2026-05-03T09:11:18.769Z</time></trkpt><trkpt lat="39.7865282" lon="8.6534544"><ele>28.0</ele><time>2026-05-03T09:11:19.768Z</time></trkpt><trkpt lat="39.7866491" lon="8.6533983"><ele>28.0</ele><time>2026-05-03T09:11:20.77Z</time></trkpt><trkpt lat="39.7867792" lon="8.6533364"><ele>28.0</ele><time>2026-05-03T09:11:21.768Z</time></trkpt><trkpt lat="39.7869279" lon="8.653262"><ele>28.0</ele><time>2026-05-03T09:11:22.769Z</time></trkpt><trkpt lat="39.7870956" lon="8.6531741"><ele>28.0</ele><time>2026-05-03T09:11:23.77Z</time></trkpt><trkpt lat="39.7872683" lon="8.6530818"><ele>28.0</ele><time>2026-05-03T09:11:24.77Z</time></trkpt><trkpt lat="39.787452" lon="8.6529849"><ele>28.0</ele><time>2026-05-03T09:11:25.77Z</time></trkpt><trkpt lat="39.7876394" lon="8.6528866"><ele>28.0</ele><time>2026-05-03T09:11:26.77Z</time></trkpt><trkpt lat="39.7878337" lon="8.6527891"><ele>28.0</ele><time>2026-05-03T09:11:27.769Z</time></trkpt><trkpt lat="39.7880243" lon="8.6526848"><ele>28.0</ele><time>2026-05-03T09:11:28.769Z</time></trkpt><trkpt lat="39.7882119" lon="8.6525874"><ele>28.0</ele><time>2026-05-03T09:11:29.769Z</time></trkpt><trkpt lat="39.7883915" lon="8.6524931"><ele>28.0</ele><time>2026-05-03T09:11:30.77Z</time></trkpt><trkpt lat="39.7885694" lon="8.6523975"><ele>28.0</ele><time>2026-05-03T09:11:31.769Z</time></trkpt><trkpt lat="39.7887473" lon="8.6523051"><ele>28.0</ele><time>2026-05-03T09:11:32.768Z</time></trkpt><trkpt lat="39.7889211" lon="8.6522219"><ele>28.0</ele><time>2026-05-03T09:11:33.77Z</time></trkpt><trkpt lat="39.7890926" lon="8.6521286"><ele>28.0</ele><time>2026-05-03T09:11:34.769Z</time></trkpt><trkpt lat="39.7892636" lon="8.6520417"><ele>28.0</ele><time>2026-05-03T09:11:35.769Z</time></trkpt><trkpt lat="39.7894305" lon="8.6519577"><ele>28.0</ele><time>2026-05-03T09:11:36.769Z</time></trkpt><trkpt lat="39.7895981" lon="8.6518711"><ele>28.0</ele><time>2026-05-03T09:11:37.77Z</time></trkpt><trkpt lat="39.7897667" lon="8.6517786"><ele>27.333333333333336</ele><time>2026-05-03T09:11:38.769Z</time></trkpt><trkpt lat="39.789939" lon="8.6516893"><ele>26.666666666666664</ele><time>2026-05-03T09:11:39.769Z</time></trkpt><trkpt lat="39.7901128" lon="8.6515895"><ele>26.0</ele><time>2026-05-03T09:11:40.768Z</time></trkpt><trkpt lat="39.7902828" lon="8.6514908"><ele>26.0</ele><time>2026-05-03T09:11:41.768Z</time></trkpt><trkpt lat="39.7904507" lon="8.6513926"><ele>26.0</ele><time>2026-05-03T09:11:42.769Z</time></trkpt><trkpt lat="39.790619" lon="8.6512979"><ele>26.0</ele><time>2026-05-03T09:11:43.77Z</time></trkpt><trkpt lat="39.7907775" lon="8.6512027"><ele>25.333333333333332</ele><time>2026-05-03T09:11:44.768Z</time></trkpt><trkpt lat="39.7909394" lon="8.6511104"><ele>24.666666666666664</ele><time>2026-05-03T09:11:45.769Z</time></trkpt><trkpt lat="39.7911006" lon="8.6510217"><ele>24.0</ele><time>2026-05-03T09:11:46.769Z</time></trkpt><trkpt lat="39.791267" lon="8.6509367"><ele>24.0</ele><time>2026-05-03T09:11:47.769Z</time></trkpt><trkpt lat="39.791433" lon="8.6508497"><ele>24.0</ele><time>2026-05-03T09:11:48.769Z</time></trkpt><trkpt lat="39.7916" lon="8.6507573"><ele>24.0</ele><time>2026-05-03T09:11:49.769Z</time></trkpt><trkpt lat="39.7917623" lon="8.650663"><ele>24.333333333333336</ele><time>2026-05-03T09:11:50.768Z</time></trkpt><trkpt lat="39.7919228" lon="8.6505731"><ele>24.666666666666668</ele><time>2026-05-03T09:11:51.769Z</time></trkpt><trkpt lat="39.7920777" lon="8.6504976"><ele>25.0</ele><time>2026-05-03T09:11:52.77Z</time></trkpt><trkpt lat="39.7922373" lon="8.6504218"><ele>25.0</ele><time>2026-05-03T09:11:53.769Z</time></trkpt><trkpt lat="39.792378" lon="8.6503424"><ele>25.0</ele><time>2026-05-03T09:11:54.769Z</time></trkpt><trkpt lat="39.7925014" lon="8.6502749"><ele>25.0</ele><time>2026-05-03T09:11:55.769Z</time></trkpt><trkpt lat="39.7926183" lon="8.6502385"><ele>25.0</ele><time>2026-05-03T09:11:56.77Z</time></trkpt><trkpt lat="39.7927324" lon="8.6502243"><ele>24.6</ele><time>2026-05-03T09:11:57.77Z</time></trkpt><trkpt lat="39.7928577" lon="8.6502004"><ele>24.2</ele><time>2026-05-03T09:11:58.769Z</time></trkpt><trkpt lat="39.7929663" lon="8.6501521"><ele>23.799999999999997</ele><time>2026-05-03T09:11:59.77Z</time></trkpt><trkpt lat="39.7930608" lon="8.6500843"><ele>23.4</ele><time>2026-05-03T09:12:00.769Z</time></trkpt><trkpt lat="39.7931327" lon="8.6500127"><ele>23.0</ele><time>2026-05-03T09:12:01.769Z</time></trkpt><trkpt lat="39.7931878" lon="8.649954"><ele>23.0</ele><time>2026-05-03T09:12:02.769Z</time></trkpt><trkpt lat="39.7932366" lon="8.6498981"><ele>23.0</ele><time>2026-05-03T09:12:03.77Z</time></trkpt><trkpt lat="39.793234" lon="8.649779"><ele>23.0</ele><time>2026-05-03T09:12:05.77Z</time></trkpt><trkpt lat="39.7932109" lon="8.6497011"><ele>23.0</ele><time>2026-05-03T09:12:06.77Z</time></trkpt><trkpt lat="39.7931663" lon="8.6495248"><ele>23.0</ele><time>2026-05-03T09:12:08.771Z</time></trkpt><trkpt lat="39.7931258" lon="8.6494592"><ele>23.0</ele><time>2026-05-03T09:12:09.769Z</time></trkpt><trkpt lat="39.7930623" lon="8.6493714"><ele>22.599999999999998</ele><time>2026-05-03T09:12:11.768Z</time></trkpt><trkpt lat="39.7930011" lon="8.6492637"><ele>22.2</ele><time>2026-05-03T09:12:13.768Z</time></trkpt><trkpt lat="39.7929558" lon="8.6491539"><ele>21.8</ele><time>2026-05-03T09:12:15.769Z</time></trkpt><trkpt lat="39.7929328" lon="8.6490601"><ele>21.4</ele><time>2026-05-03T09:12:18.769Z</time></trkpt><trkpt lat="39.7929328" lon="8.6489049"><ele>21.0</ele><time>2026-05-03T09:12:20.77Z</time></trkpt><trkpt lat="39.7929355" lon="8.648817"><ele>21.0</ele><time>2026-05-03T09:12:21.767Z</time></trkpt><trkpt lat="39.7929278" lon="8.6487268"><ele>21.0</ele><time>2026-05-03T09:12:22.767Z</time></trkpt><trkpt lat="39.7929109" lon="8.6486347"><ele>21.0</ele><time>2026-05-03T09:12:23.769Z</time></trkpt><trkpt lat="39.7928991" lon="8.6485394"><ele>21.0</ele><time>2026-05-03T09:12:24.768Z</time></trkpt><trkpt lat="39.7928964" lon="8.648456"><ele>21.0</ele><time>2026-05-03T09:12:25.769Z</time></trkpt><trkpt lat="39.7928629" lon="8.6483307"><ele>21.0</ele><time>2026-05-03T09:12:27.767Z</time></trkpt><trkpt lat="39.7928346" lon="8.6482552"><ele>21.0</ele><time>2026-05-03T09:12:28.769Z</time></trkpt><trkpt lat="39.7928083" lon="8.648161"><ele>20.2</ele><time>2026-05-03T09:12:29.769Z</time></trkpt><trkpt lat="39.7927863" lon="8.6480535"><ele>19.400000000000002</ele><time>2026-05-03T09:12:30.77Z</time></trkpt><trkpt lat="39.7927615" lon="8.6479437"><ele>18.6</ele><time>2026-05-03T09:12:31.769Z</time></trkpt><trkpt lat="39.7927415" lon="8.647827"><ele>17.8</ele><time>2026-05-03T09:12:32.769Z</time></trkpt><trkpt lat="39.7927211" lon="8.6477077"><ele>17.0</ele><time>2026-05-03T09:12:33.77Z</time></trkpt><trkpt lat="39.7926964" lon="8.6475755"><ele>17.25</ele><time>2026-05-03T09:12:34.768Z</time></trkpt><trkpt lat="39.792662" lon="8.6474285"><ele>17.5</ele><time>2026-05-03T09:12:35.768Z</time></trkpt><trkpt lat="39.7926338" lon="8.6472763"><ele>17.75</ele><time>2026-05-03T09:12:36.77Z</time></trkpt><trkpt lat="39.7926058" lon="8.6471325"><ele>18.0</ele><time>2026-05-03T09:12:37.77Z</time></trkpt><trkpt lat="39.7925861" lon="8.6469902"><ele>17.2</ele><time>2026-05-03T09:12:38.769Z</time></trkpt><trkpt lat="39.7925633" lon="8.6468605"><ele>16.4</ele><time>2026-05-03T09:12:39.769Z</time></trkpt><trkpt lat="39.7925364" lon="8.6467469"><ele>15.599999999999998</ele><time>2026-05-03T09:12:40.769Z</time></trkpt><trkpt lat="39.7925177" lon="8.6466427"><ele>14.799999999999999</ele><time>2026-05-03T09:12:41.768Z</time></trkpt><trkpt lat="39.7924983" lon="8.6465504"><ele>14.0</ele><time>2026-05-03T09:12:42.769Z</time></trkpt><trkpt lat="39.7924838" lon="8.6464178"><ele>14.000000000000002</ele><time>2026-05-03T09:12:44.768Z</time></trkpt><trkpt lat="39.792464" lon="8.6463248"><ele>14.0</ele><time>2026-05-03T09:12:47.77Z</time></trkpt><trkpt lat="39.7923969" lon="8.6462569"><ele>14.0</ele><time>2026-05-03T09:12:49.769Z</time></trkpt><trkpt lat="39.7922932" lon="8.6461562"><ele>14.0</ele><time>2026-05-03T09:12:51.769Z</time></trkpt><trkpt lat="39.7922445" lon="8.6460859"><ele>14.000000000000002</ele><time>2026-05-03T09:12:52.768Z</time></trkpt><trkpt lat="39.7921916" lon="8.6460052"><ele>14.0</ele><time>2026-05-03T09:12:53.769Z</time></trkpt><trkpt lat="39.7921514" lon="8.6459278"><ele>14.166666666666668</ele><time>2026-05-03T09:12:54.768Z</time></trkpt><trkpt lat="39.7921165" lon="8.6458504"><ele>14.333333333333334</ele><time>2026-05-03T09:12:55.769Z</time></trkpt><trkpt lat="39.7920793" lon="8.6457607"><ele>14.5</ele><time>2026-05-03T09:12:56.768Z</time></trkpt><trkpt lat="39.79203" lon="8.6456689"><ele>14.666666666666668</ele><time>2026-05-03T09:12:57.77Z</time></trkpt><trkpt lat="39.7919768" lon="8.6455726"><ele>14.833333333333334</ele><time>2026-05-03T09:12:58.769Z</time></trkpt><trkpt lat="39.7919262" lon="8.645479"><ele>15.0</ele><time>2026-05-03T09:12:59.769Z</time></trkpt><trkpt lat="39.7918768" lon="8.6453916"><ele>15.0</ele><time>2026-05-03T09:13:00.769Z</time></trkpt><trkpt lat="39.7918355" lon="8.6452936"><ele>15.0</ele><time>2026-05-03T09:13:01.767Z</time></trkpt><trkpt lat="39.7917832" lon="8.6451796"><ele>15.0</ele><time>2026-05-03T09:13:02.769Z</time></trkpt><trkpt lat="39.7917398" lon="8.6450766"><ele>15.0</ele><time>2026-05-03T09:13:03.769Z</time></trkpt><trkpt lat="39.7917108" lon="8.6449892"><ele>15.0</ele><time>2026-05-03T09:13:04.769Z</time></trkpt><trkpt lat="39.7916512" lon="8.6448531"><ele>15.0</ele><time>2026-05-03T09:13:06.768Z</time></trkpt><trkpt lat="39.7915987" lon="8.6447298"><ele>15.0</ele><time>2026-05-03T09:13:08.77Z</time></trkpt><trkpt lat="39.7915839" lon="8.6445989"><ele>15.0</ele><time>2026-05-03T09:13:10.769Z</time></trkpt><trkpt lat="39.7915813" lon="8.6445141"><ele>15.0</ele><time>2026-05-03T09:13:11.769Z</time></trkpt><trkpt lat="39.791603" lon="8.6443666"><ele>15.0</ele><time>2026-05-03T09:13:13.769Z</time></trkpt><trkpt lat="39.7916114" lon="8.6442203"><ele>14.833333333333334</ele><time>2026-05-03T09:13:15.768Z</time></trkpt><trkpt lat="39.7915982" lon="8.6441276"><ele>14.666666666666668</ele><time>2026-05-03T09:13:16.769Z</time></trkpt><trkpt lat="39.7915932" lon="8.6440288"><ele>14.5</ele><time>2026-05-03T09:13:17.77Z</time></trkpt><trkpt lat="39.7916285" lon="8.6439172"><ele>14.333333333333334</ele><time>2026-05-03T09:13:18.769Z</time></trkpt><trkpt lat="39.7916634" lon="8.6438161"><ele>14.166666666666668</ele><time>2026-05-03T09:13:19.767Z</time></trkpt><trkpt lat="39.7917106" lon="8.6437182"><ele>14.0</ele><time>2026-05-03T09:13:20.768Z</time></trkpt><trkpt lat="39.7917638" lon="8.6436256"><ele>13.833333333333334</ele><time>2026-05-03T09:13:21.769Z</time></trkpt><trkpt lat="39.7918159" lon="8.6435266"><ele>13.666666666666668</ele><time>2026-05-03T09:13:22.769Z</time></trkpt><trkpt lat="39.7918805" lon="8.6434261"><ele>13.5</ele><time>2026-05-03T09:13:23.769Z</time></trkpt><trkpt lat="39.7919401" lon="8.6433428"><ele>13.333333333333332</ele><time>2026-05-03T09:13:24.768Z</time></trkpt><trkpt lat="39.791999" lon="8.643268"><ele>13.166666666666666</ele><time>2026-05-03T09:13:25.769Z</time></trkpt><trkpt lat="39.7920475" lon="8.6431973"><ele>13.0</ele><time>2026-05-03T09:13:26.769Z</time></trkpt><trkpt lat="39.7920956" lon="8.6430656"><ele>12.999999999999998</ele><time>2026-05-03T09:13:28.77Z</time></trkpt><trkpt lat="39.7920824" lon="8.642926"><ele>13.0</ele><time>2026-05-03T09:13:30.77Z</time></trkpt><trkpt lat="39.7920531" lon="8.642843"><ele>13.0</ele><time>2026-05-03T09:13:31.769Z</time></trkpt><trkpt lat="39.7920198" lon="8.6427487"><ele>13.0</ele><time>2026-05-03T09:13:32.769Z</time></trkpt><trkpt lat="39.7919927" lon="8.6426459"><ele>12.999999999999998</ele><time>2026-05-03T09:13:33.769Z</time></trkpt><trkpt lat="39.7919675" lon="8.6425391"><ele>13.0</ele><time>2026-05-03T09:13:34.769Z</time></trkpt><trkpt lat="39.7919428" lon="8.6424355"><ele>12.833333333333332</ele><time>2026-05-03T09:13:35.77Z</time></trkpt><trkpt lat="39.7919151" lon="8.6423414"><ele>12.666666666666666</ele><time>2026-05-03T09:13:36.77Z</time></trkpt><trkpt lat="39.7918832" lon="8.6422499"><ele>12.5</ele><time>2026-05-03T09:13:37.768Z</time></trkpt><trkpt lat="39.7918611" lon="8.642153"><ele>12.333333333333332</ele><time>2026-05-03T09:13:38.77Z</time></trkpt><trkpt lat="39.7918425" lon="8.6420509"><ele>12.166666666666666</ele><time>2026-05-03T09:13:39.768Z</time></trkpt><trkpt lat="39.7918188" lon="8.6419623"><ele>12.0</ele><time>2026-05-03T09:13:40.768Z</time></trkpt><trkpt lat="39.7917903" lon="8.6418833"><ele>12.0</ele><time>2026-05-03T09:13:41.77Z</time></trkpt><trkpt lat="39.791762" lon="8.6418056"><ele>12.0</ele><time>2026-05-03T09:13:42.77Z</time></trkpt><trkpt lat="39.7917114" lon="8.6416807"><ele>12.0</ele><time>2026-05-03T09:13:44.768Z</time></trkpt><trkpt lat="39.7916638" lon="8.6415873"><ele>12.0</ele><time>2026-05-03T09:13:46.767Z</time></trkpt><trkpt lat="39.7916124" lon="8.6414985"><ele>12.0</ele><time>2026-05-03T09:13:48.768Z</time></trkpt><trkpt lat="39.7915398" lon="8.6413951"><ele>12.0</ele><time>2026-05-03T09:13:50.77Z</time></trkpt><trkpt lat="39.7914884" lon="8.6413449"><ele>12.0</ele><time>2026-05-03T09:13:51.769Z</time></trkpt><trkpt lat="39.7914208" lon="8.641284"><ele>12.0</ele><time>2026-05-03T09:13:52.769Z</time></trkpt><trkpt lat="39.7913503" lon="8.6412263"><ele>12.0</ele><time>2026-05-03T09:13:53.77Z</time></trkpt><trkpt lat="39.7912833" lon="8.6411696"><ele>12.0</ele><time>2026-05-03T09:13:54.768Z</time></trkpt><trkpt lat="39.7912201" lon="8.6410938"><ele>12.0</ele><time>2026-05-03T09:13:55.769Z</time></trkpt><trkpt lat="39.7911574" lon="8.6410078"><ele>12.399999999999999</ele><time>2026-05-03T09:13:56.768Z</time></trkpt><trkpt lat="39.7910996" lon="8.6408924"><ele>12.799999999999999</ele><time>2026-05-03T09:13:57.768Z</time></trkpt><trkpt lat="39.7910291" lon="8.640763"><ele>13.2</ele><time>2026-05-03T09:13:58.77Z</time></trkpt><trkpt lat="39.7909667" lon="8.6406405"><ele>13.6</ele><time>2026-05-03T09:13:59.768Z</time></trkpt><trkpt lat="39.7908998" lon="8.6405325"><ele>14.0</ele><time>2026-05-03T09:14:00.769Z</time></trkpt><trkpt lat="39.7908434" lon="8.6404382"><ele>14.0</ele><time>2026-05-03T09:14:01.768Z</time></trkpt><trkpt lat="39.7907662" lon="8.6403558"><ele>13.999999999999998</ele><time>2026-05-03T09:14:02.77Z</time></trkpt><trkpt lat="39.7906809" lon="8.6402835"><ele>13.999999999999998</ele><time>2026-05-03T09:14:03.767Z</time></trkpt><trkpt lat="39.7905889" lon="8.6401967"><ele>14.0</ele><time>2026-05-03T09:14:04.769Z</time></trkpt><trkpt lat="39.7904981" lon="8.6401182"><ele>14.0</ele><time>2026-05-03T09:14:05.77Z</time></trkpt><trkpt lat="39.7904204" lon="8.640045"><ele>14.2</ele><time>2026-05-03T09:14:06.768Z</time></trkpt><trkpt lat="39.7903288" lon="8.639964"><ele>14.399999999999999</ele><time>2026-05-03T09:14:07.77Z</time></trkpt><trkpt lat="39.7902396" lon="8.6398973"><ele>14.6</ele><time>2026-05-03T09:14:08.77Z</time></trkpt><trkpt lat="39.7901455" lon="8.6398417"><ele>14.8</ele><time>2026-05-03T09:14:09.769Z</time></trkpt><trkpt lat="39.7900423" lon="8.6397981"><ele>15.0</ele><time>2026-05-03T09:14:10.768Z</time></trkpt><trkpt lat="39.7899424" lon="8.6397697"><ele>15.0</ele><time>2026-05-03T09:14:11.77Z</time></trkpt><trkpt lat="39.7898441" lon="8.6397491"><ele>15.0</ele><time>2026-05-03T09:14:12.769Z</time></trkpt><trkpt lat="39.7897604" lon="8.6397259"><ele>15.0</ele><time>2026-05-03T09:14:13.768Z</time></trkpt><trkpt lat="39.789691" lon="8.6396895"><ele>15.0</ele><time>2026-05-03T09:14:14.769Z</time></trkpt><trkpt lat="39.7896263" lon="8.6396317"><ele>15.0</ele><time>2026-05-03T09:14:15.769Z</time></trkpt><trkpt lat="39.7895714" lon="8.639584"><ele>15.0</ele><time>2026-05-03T09:14:16.769Z</time></trkpt><trkpt lat="39.7894554" lon="8.6395427"><ele>15.0</ele><time>2026-05-03T09:14:18.769Z</time></trkpt><trkpt lat="39.7893653" lon="8.6395382"><ele>15.0</ele><time>2026-05-03T09:14:19.768Z</time></trkpt><trkpt lat="39.7892744" lon="8.6395234"><ele>15.0</ele><time>2026-05-03T09:14:20.769Z</time></trkpt><trkpt lat="39.7892068" lon="8.6394964"><ele>15.0</ele><time>2026-05-03T09:14:21.77Z</time></trkpt><trkpt lat="39.7891279" lon="8.6394463"><ele>15.0</ele><time>2026-05-03T09:14:22.767Z</time></trkpt><trkpt lat="39.7890449" lon="8.6393885"><ele>15.0</ele><time>2026-05-03T09:14:23.77Z</time></trkpt><trkpt lat="39.7889587" lon="8.6393436"><ele>14.6</ele><time>2026-05-03T09:14:24.768Z</time></trkpt><trkpt lat="39.7888593" lon="8.6392977"><ele>14.2</ele><time>2026-05-03T09:14:25.769Z</time></trkpt><trkpt lat="39.7887555" lon="8.6392559"><ele>13.8</ele><time>2026-05-03T09:14:26.768Z</time></trkpt><trkpt lat="39.788645" lon="8.6392026"><ele>13.4</ele><time>2026-05-03T09:14:27.77Z</time></trkpt><trkpt lat="39.7885426" lon="8.6391425"><ele>13.0</ele><time>2026-05-03T09:14:28.769Z</time></trkpt><trkpt lat="39.7884435" lon="8.6390648"><ele>13.0</ele><time>2026-05-03T09:14:29.768Z</time></trkpt><trkpt lat="39.7883379" lon="8.6389795"><ele>13.0</ele><time>2026-05-03T09:14:30.769Z</time></trkpt><trkpt lat="39.7882346" lon="8.6389089"><ele>13.0</ele><time>2026-05-03T09:14:31.767Z</time></trkpt><trkpt lat="39.7881446" lon="8.6388453"><ele>13.0</ele><time>2026-05-03T09:14:32.769Z</time></trkpt><trkpt lat="39.7880528" lon="8.6387648"><ele>13.0</ele><time>2026-05-03T09:14:33.769Z</time></trkpt><trkpt lat="39.787956" lon="8.638698"><ele>13.0</ele><time>2026-05-03T09:14:34.769Z</time></trkpt><trkpt lat="39.7878494" lon="8.6386427"><ele>13.0</ele><time>2026-05-03T09:14:35.769Z</time></trkpt><trkpt lat="39.7877423" lon="8.6385881"><ele>13.0</ele><time>2026-05-03T09:14:36.77Z</time></trkpt><trkpt lat="39.787622" lon="8.6385438"><ele>13.0</ele><time>2026-05-03T09:14:37.769Z</time></trkpt><trkpt lat="39.7875061" lon="8.6385068"><ele>13.0</ele><time>2026-05-03T09:14:38.768Z</time></trkpt><trkpt lat="39.7873836" lon="8.6384911"><ele>13.0</ele><time>2026-05-03T09:14:39.769Z</time></trkpt><trkpt lat="39.7872562" lon="8.6384895"><ele>13.0</ele><time>2026-05-03T09:14:40.769Z</time></trkpt><trkpt lat="39.7871422" lon="8.6385021"><ele>13.0</ele><time>2026-05-03T09:14:41.769Z</time></trkpt><trkpt lat="39.7870386" lon="8.638526"><ele>13.0</ele><time>2026-05-03T09:14:42.769Z</time></trkpt><trkpt lat="39.7869404" lon="8.6385163"><ele>13.0</ele><time>2026-05-03T09:14:43.768Z</time></trkpt><trkpt lat="39.7868453" lon="8.6384864"><ele>13.0</ele><time>2026-05-03T09:14:44.77Z</time></trkpt><trkpt lat="39.7867492" lon="8.638428"><ele>13.0</ele><time>2026-05-03T09:14:45.769Z</time></trkpt><trkpt lat="39.7866549" lon="8.6383644"><ele>13.0</ele><time>2026-05-03T09:14:46.768Z</time></trkpt><trkpt lat="39.7865641" lon="8.638322"><ele>13.0</ele><time>2026-05-03T09:14:47.769Z</time></trkpt><trkpt lat="39.7864737" lon="8.6382933"><ele>13.0</ele><time>2026-05-03T09:14:48.768Z</time></trkpt><trkpt lat="39.7863768" lon="8.6382537"><ele>13.0</ele><time>2026-05-03T09:14:49.769Z</time></trkpt><trkpt lat="39.7862689" lon="8.6382099"><ele>13.0</ele><time>2026-05-03T09:14:50.769Z</time></trkpt><trkpt lat="39.7861618" lon="8.6381751"><ele>13.0</ele><time>2026-05-03T09:14:51.768Z</time></trkpt><trkpt lat="39.7860546" lon="8.6381248"><ele>13.0</ele><time>2026-05-03T09:14:52.768Z</time></trkpt><trkpt lat="39.7859477" lon="8.6380671"><ele>13.0</ele><time>2026-05-03T09:14:53.77Z</time></trkpt><trkpt lat="39.7858422" lon="8.63801"><ele>13.0</ele><time>2026-05-03T09:14:54.77Z</time></trkpt><trkpt lat="39.7857269" lon="8.6379807"><ele>13.25</ele><time>2026-05-03T09:14:55.768Z</time></trkpt><trkpt lat="39.7856041" lon="8.6379695"><ele>13.5</ele><time>2026-05-03T09:14:56.768Z</time></trkpt><trkpt lat="39.7854817" lon="8.637973"><ele>13.75</ele><time>2026-05-03T09:14:57.768Z</time></trkpt><trkpt lat="39.7853642" lon="8.6379654"><ele>14.0</ele><time>2026-05-03T09:14:58.768Z</time></trkpt><trkpt lat="39.7852562" lon="8.6379399"><ele>14.25</ele><time>2026-05-03T09:14:59.77Z</time></trkpt><trkpt lat="39.7851383" lon="8.637914"><ele>14.5</ele><time>2026-05-03T09:15:00.768Z</time></trkpt><trkpt lat="39.7850172" lon="8.6378947"><ele>14.75</ele><time>2026-05-03T09:15:01.769Z</time></trkpt><trkpt lat="39.7848996" lon="8.6378866"><ele>15.0</ele><time>2026-05-03T09:15:02.768Z</time></trkpt><trkpt lat="39.7847817" lon="8.6378747"><ele>15.0</ele><time>2026-05-03T09:15:03.768Z</time></trkpt><trkpt lat="39.7846773" lon="8.6378882"><ele>15.0</ele><time>2026-05-03T09:15:04.768Z</time></trkpt><trkpt lat="39.7845783" lon="8.6379051"><ele>15.0</ele><time>2026-05-03T09:15:05.77Z</time></trkpt><trkpt lat="39.7844726" lon="8.6379348"><ele>15.0</ele><time>2026-05-03T09:15:06.768Z</time></trkpt><trkpt lat="39.7843674" lon="8.6379747"><ele>15.0</ele><time>2026-05-03T09:15:07.768Z</time></trkpt><trkpt lat="39.7842528" lon="8.6380212"><ele>14.75</ele><time>2026-05-03T09:15:08.769Z</time></trkpt><trkpt lat="39.7841449" lon="8.638037"><ele>14.5</ele><time>2026-05-03T09:15:09.768Z</time></trkpt><trkpt lat="39.7840273" lon="8.6380475"><ele>14.25</ele><time>2026-05-03T09:15:10.77Z</time></trkpt><trkpt lat="39.7839048" lon="8.6380631"><ele>14.0</ele><time>2026-05-03T09:15:11.768Z</time></trkpt><trkpt lat="39.7837768" lon="8.6380862"><ele>14.0</ele><time>2026-05-03T09:15:12.769Z</time></trkpt><trkpt lat="39.7836487" lon="8.6381186"><ele>14.0</ele><time>2026-05-03T09:15:13.769Z</time></trkpt><trkpt lat="39.783531" lon="8.6381445"><ele>14.0</ele><time>2026-05-03T09:15:14.769Z</time></trkpt><trkpt lat="39.7834313" lon="8.6381647"><ele>14.0</ele><time>2026-05-03T09:15:15.768Z</time></trkpt><trkpt lat="39.7833278" lon="8.6381589"><ele>14.0</ele><time>2026-05-03T09:15:16.768Z</time></trkpt><trkpt lat="39.7832405" lon="8.6381281"><ele>13.999999999999998</ele><time>2026-05-03T09:15:17.77Z</time></trkpt><trkpt lat="39.7831563" lon="8.6380723"><ele>13.999999999999998</ele><time>2026-05-03T09:15:18.769Z</time></trkpt><trkpt lat="39.7830671" lon="8.6379937"><ele>14.0</ele><time>2026-05-03T09:15:19.77Z</time></trkpt><trkpt lat="39.782978" lon="8.6378919"><ele>14.0</ele><time>2026-05-03T09:15:20.769Z</time></trkpt><trkpt lat="39.7828821" lon="8.6377602"><ele>14.0</ele><time>2026-05-03T09:15:21.769Z</time></trkpt><trkpt lat="39.7827799" lon="8.6376147"><ele>14.0</ele><time>2026-05-03T09:15:22.769Z</time></trkpt><trkpt lat="39.7826914" lon="8.6374659"><ele>14.0</ele><time>2026-05-03T09:15:23.769Z</time></trkpt><trkpt lat="39.7826211" lon="8.6373214"><ele>14.0</ele><time>2026-05-03T09:15:24.77Z</time></trkpt><trkpt lat="39.7825602" lon="8.6371734"><ele>13.75</ele><time>2026-05-03T09:15:25.769Z</time></trkpt><trkpt lat="39.7825133" lon="8.6370054"><ele>13.5</ele><time>2026-05-03T09:15:26.768Z</time></trkpt><trkpt lat="39.7824854" lon="8.6368276"><ele>13.25</ele><time>2026-05-03T09:15:27.768Z</time></trkpt><trkpt lat="39.7824642" lon="8.6366531"><ele>13.0</ele><time>2026-05-03T09:15:28.77Z</time></trkpt><trkpt lat="39.7824335" lon="8.636514"><ele>12.75</ele><time>2026-05-03T09:15:29.768Z</time></trkpt><trkpt lat="39.782387" lon="8.6363915"><ele>12.5</ele><time>2026-05-03T09:15:30.769Z</time></trkpt><trkpt lat="39.7823112" lon="8.6362744"><ele>12.25</ele><time>2026-05-03T09:15:31.768Z</time></trkpt><trkpt lat="39.7822175" lon="8.6361604"><ele>12.0</ele><time>2026-05-03T09:15:32.768Z</time></trkpt><trkpt lat="39.7821249" lon="8.6360416"><ele>11.75</ele><time>2026-05-03T09:15:33.768Z</time></trkpt><trkpt lat="39.7820506" lon="8.6359208"><ele>11.5</ele><time>2026-05-03T09:15:34.769Z</time></trkpt><trkpt lat="39.7819754" lon="8.6358018"><ele>11.25</ele><time>2026-05-03T09:15:35.768Z</time></trkpt><trkpt lat="39.7819027" lon="8.6356905"><ele>11.0</ele><time>2026-05-03T09:15:36.768Z</time></trkpt><trkpt lat="39.7818243" lon="8.6355719"><ele>10.4</ele><time>2026-05-03T09:15:37.77Z</time></trkpt><trkpt lat="39.7817601" lon="8.635475"><ele>9.8</ele><time>2026-05-03T09:15:38.768Z</time></trkpt><trkpt lat="39.7816794" lon="8.6353878"><ele>9.200000000000001</ele><time>2026-05-03T09:15:39.769Z</time></trkpt><trkpt lat="39.7815983" lon="8.6353147"><ele>8.600000000000001</ele><time>2026-05-03T09:15:40.77Z</time></trkpt><trkpt lat="39.7815086" lon="8.6352476"><ele>8.0</ele><time>2026-05-03T09:15:41.77Z</time></trkpt><trkpt lat="39.7814141" lon="8.6351982"><ele>8.0</ele><time>2026-05-03T09:15:42.768Z</time></trkpt><trkpt lat="39.7813101" lon="8.6351572"><ele>8.0</ele><time>2026-05-03T09:15:43.768Z</time></trkpt><trkpt lat="39.7812147" lon="8.635107"><ele>8.0</ele><time>2026-05-03T09:15:44.769Z</time></trkpt><trkpt lat="39.7811393" lon="8.6350516"><ele>8.0</ele><time>2026-05-03T09:15:45.767Z</time></trkpt><trkpt lat="39.7810647" lon="8.6349755"><ele>8.0</ele><time>2026-05-03T09:15:46.767Z</time></trkpt><trkpt lat="39.7809979" lon="8.6348545"><ele>8.4</ele><time>2026-05-03T09:15:47.767Z</time></trkpt><trkpt lat="39.7809278" lon="8.6347704"><ele>8.8</ele><time>2026-05-03T09:15:48.768Z</time></trkpt><trkpt lat="39.7808412" lon="8.6347004"><ele>9.2</ele><time>2026-05-03T09:15:49.768Z</time></trkpt><trkpt lat="39.7807288" lon="8.6346501"><ele>9.6</ele><time>2026-05-03T09:15:50.767Z</time></trkpt><trkpt lat="39.7806044" lon="8.6346231"><ele>10.0</ele><time>2026-05-03T09:15:51.768Z</time></trkpt><trkpt lat="39.7804606" lon="8.634618"><ele>10.0</ele><time>2026-05-03T09:15:52.77Z</time></trkpt><trkpt lat="39.7803093" lon="8.6346305"><ele>10.0</ele><time>2026-05-03T09:15:53.77Z</time></trkpt><trkpt lat="39.7801522" lon="8.6346633"><ele>10.0</ele><time>2026-05-03T09:15:54.768Z</time></trkpt><trkpt lat="39.7799958" lon="8.6347091"><ele>9.75</ele><time>2026-05-03T09:15:55.768Z</time></trkpt><trkpt lat="39.7798532" lon="8.6347681"><ele>9.5</ele><time>2026-05-03T09:15:56.769Z</time></trkpt><trkpt lat="39.7797216" lon="8.6348301"><ele>9.25</ele><time>2026-05-03T09:15:57.769Z</time></trkpt><trkpt lat="39.7795988" lon="8.6349117"><ele>9.0</ele><time>2026-05-03T09:15:58.768Z</time></trkpt><trkpt lat="39.7794969" lon="8.6350124"><ele>9.0</ele><time>2026-05-03T09:15:59.77Z</time></trkpt><trkpt lat="39.7794098" lon="8.6351394"><ele>9.0</ele><time>2026-05-03T09:16:00.768Z</time></trkpt><trkpt lat="39.7793399" lon="8.6352853"><ele>9.0</ele><time>2026-05-03T09:16:01.768Z</time></trkpt><trkpt lat="39.7792986" lon="8.6354311"><ele>9.0</ele><time>2026-05-03T09:16:02.77Z</time></trkpt><trkpt lat="39.7792659" lon="8.635594"><ele>8.5</ele><time>2026-05-03T09:16:03.77Z</time></trkpt><trkpt lat="39.7792459" lon="8.6357736"><ele>8.0</ele><time>2026-05-03T09:16:04.768Z</time></trkpt><trkpt lat="39.7792379" lon="8.6359549"><ele>7.5</ele><time>2026-05-03T09:16:05.768Z</time></trkpt><trkpt lat="39.7792146" lon="8.6361225"><ele>7.0</ele><time>2026-05-03T09:16:06.77Z</time></trkpt><trkpt lat="39.7791673" lon="8.6362864"><ele>7.0</ele><time>2026-05-03T09:16:07.768Z</time></trkpt><trkpt lat="39.7791033" lon="8.6364427"><ele>7.0</ele><time>2026-05-03T09:16:08.768Z</time></trkpt><trkpt lat="39.779029" lon="8.6365826"><ele>7.0</ele><time>2026-05-03T09:16:09.769Z</time></trkpt><trkpt lat="39.7789339" lon="8.6367082"><ele>7.0</ele><time>2026-05-03T09:16:10.768Z</time></trkpt><trkpt lat="39.7788375" lon="8.6368054"><ele>7.0</ele><time>2026-05-03T09:16:11.769Z</time></trkpt><trkpt lat="39.7787253" lon="8.6368561"><ele>7.0</ele><time>2026-05-03T09:16:12.769Z</time></trkpt><trkpt lat="39.778597" lon="8.6368966"><ele>7.0</ele><time>2026-05-03T09:16:13.769Z</time></trkpt><trkpt lat="39.778457" lon="8.6369229"><ele>7.0</ele><time>2026-05-03T09:16:14.769Z</time></trkpt><trkpt lat="39.7783134" lon="8.636952"><ele>7.0</ele><time>2026-05-03T09:16:15.768Z</time></trkpt><trkpt lat="39.7781441" lon="8.6369761"><ele>7.0</ele><time>2026-05-03T09:16:16.769Z</time></trkpt><trkpt lat="39.7779916" lon="8.6369796"><ele>7.0</ele><time>2026-05-03T09:16:17.769Z</time></trkpt><trkpt lat="39.7778456" lon="8.6369645"><ele>7.0</ele><time>2026-05-03T09:16:18.769Z</time></trkpt><trkpt lat="39.7777088" lon="8.636933"><ele>7.0</ele><time>2026-05-03T09:16:19.769Z</time></trkpt><trkpt lat="39.7775854" lon="8.6368816"><ele>7.0</ele><time>2026-05-03T09:16:20.767Z</time></trkpt><trkpt lat="39.7774599" lon="8.636794"><ele>7.0</ele><time>2026-05-03T09:16:21.77Z</time></trkpt><trkpt lat="39.7773504" lon="8.6366964"><ele>6.75</ele><time>2026-05-03T09:16:22.768Z</time></trkpt><trkpt lat="39.7772461" lon="8.6365794"><ele>6.5</ele><time>2026-05-03T09:16:23.768Z</time></trkpt><trkpt lat="39.7771693" lon="8.6364326"><ele>6.25</ele><time>2026-05-03T09:16:24.768Z</time></trkpt><trkpt lat="39.7770956" lon="8.6362666"><ele>6.0</ele><time>2026-05-03T09:16:25.767Z</time></trkpt><trkpt lat="39.7770197" lon="8.6360733"><ele>5.666666666666667</ele><time>2026-05-03T09:16:26.769Z</time></trkpt><trkpt lat="39.7769413" lon="8.6358748"><ele>5.333333333333334</ele><time>2026-05-03T09:16:27.768Z</time></trkpt><trkpt lat="39.7768721" lon="8.6356863"><ele>5.0</ele><time>2026-05-03T09:16:28.767Z</time></trkpt><trkpt lat="39.7768061" lon="8.6355051"><ele>5.5</ele><time>2026-05-03T09:16:29.769Z</time></trkpt><trkpt lat="39.7767511" lon="8.6353208"><ele>6.0</ele><time>2026-05-03T09:16:30.768Z</time></trkpt><trkpt lat="39.7767208" lon="8.6351338"><ele>6.5</ele><time>2026-05-03T09:16:31.767Z</time></trkpt><trkpt lat="39.7767103" lon="8.6349407"><ele>7.0</ele><time>2026-05-03T09:16:32.768Z</time></trkpt><trkpt lat="39.7767222" lon="8.6347432"><ele>7.0</ele><time>2026-05-03T09:16:33.768Z</time></trkpt><trkpt lat="39.7767379" lon="8.6345374"><ele>7.0</ele><time>2026-05-03T09:16:34.768Z</time></trkpt><trkpt lat="39.7767465" lon="8.634329"><ele>7.0</ele><time>2026-05-03T09:16:35.768Z</time></trkpt><trkpt lat="39.7767558" lon="8.6341353"><ele>7.0</ele><time>2026-05-03T09:16:36.769Z</time></trkpt><trkpt lat="39.7767666" lon="8.6339531"><ele>7.0</ele><time>2026-05-03T09:16:37.768Z</time></trkpt><trkpt lat="39.7767674" lon="8.6337747"><ele>7.0</ele><time>2026-05-03T09:16:38.768Z</time></trkpt><trkpt lat="39.7767492" lon="8.6335971"><ele>7.0</ele><time>2026-05-03T09:16:39.769Z</time></trkpt><trkpt lat="39.7767229" lon="8.6334187"><ele>7.0</ele><time>2026-05-03T09:16:40.768Z</time></trkpt><trkpt lat="39.7766893" lon="8.6332398"><ele>7.0</ele><time>2026-05-03T09:16:41.767Z</time></trkpt><trkpt lat="39.7766484" lon="8.633054"><ele>7.0</ele><time>2026-05-03T09:16:42.769Z</time></trkpt><trkpt lat="39.7766059" lon="8.6328721"><ele>7.0</ele><time>2026-05-03T09:16:43.769Z</time></trkpt><trkpt lat="39.776569" lon="8.6327255"><ele>7.000000000000001</ele><time>2026-05-03T09:16:44.768Z</time></trkpt><trkpt lat="39.7765369" lon="8.632614"><ele>7.0</ele><time>2026-05-03T09:16:45.769Z</time></trkpt><trkpt lat="39.7765155" lon="8.6325242"><ele>7.0</ele><time>2026-05-03T09:16:46.769Z</time></trkpt><trkpt lat="39.7765185" lon="8.6324058"><ele>7.0</ele><time>2026-05-03T09:16:48.769Z</time></trkpt><trkpt lat="39.7765865" lon="8.6323386"><ele>7.000000000000001</ele><time>2026-05-03T09:16:50.769Z</time></trkpt><trkpt lat="39.7766824" lon="8.6322894"><ele>7.0</ele><time>2026-05-03T09:16:52.769Z</time></trkpt><trkpt lat="39.7767747" lon="8.6322229"><ele>7.0</ele><time>2026-05-03T09:16:54.769Z</time></trkpt><trkpt lat="39.7768379" lon="8.6321664"><ele>6.999999999999999</ele><time>2026-05-03T09:16:55.767Z</time></trkpt><trkpt lat="39.7769159" lon="8.6320921"><ele>6.999999999999999</ele><time>2026-05-03T09:16:56.769Z</time></trkpt><trkpt lat="39.7770048" lon="8.6319993"><ele>7.0</ele><time>2026-05-03T09:16:57.769Z</time></trkpt><trkpt lat="39.7770974" lon="8.6318962"><ele>7.0</ele><time>2026-05-03T09:16:58.767Z</time></trkpt><trkpt lat="39.7771621" lon="8.6318234"><ele>7.0</ele><time>2026-05-03T09:16:59.767Z</time></trkpt><trkpt lat="39.7772152" lon="8.6317345"><ele>6.999999999999999</ele><time>2026-05-03T09:17:01.769Z</time></trkpt><trkpt lat="39.7771256" lon="8.6316618"><ele>6.999999999999999</ele><time>2026-05-03T09:17:04.769Z</time></trkpt><trkpt lat="39.7770478" lon="8.6316019"><ele>7.0</ele><time>2026-05-03T09:17:05.767Z</time></trkpt><trkpt lat="39.7769358" lon="8.6315448"><ele>7.0</ele><time>2026-05-03T09:17:06.768Z</time></trkpt><trkpt lat="39.7767908" lon="8.6314888"><ele>7.0</ele><time>2026-05-03T09:17:07.768Z</time></trkpt><trkpt lat="39.7766374" lon="8.6314177"><ele>7.0</ele><time>2026-05-03T09:17:08.768Z</time></trkpt><trkpt lat="39.7765068" lon="8.6313537"><ele>7.0</ele><time>2026-05-03T09:17:09.77Z</time></trkpt><trkpt lat="39.7763859" lon="8.6312791"><ele>7.0</ele><time>2026-05-03T09:17:10.767Z</time></trkpt><trkpt lat="39.7762745" lon="8.6311973"><ele>8.0</ele><time>2026-05-03T09:17:11.769Z</time></trkpt><trkpt lat="39.7761705" lon="8.631114"><ele>9.0</ele><time>2026-05-03T09:17:12.768Z</time></trkpt><trkpt lat="39.7760586" lon="8.6310249"><ele>10.0</ele><time>2026-05-03T09:17:13.769Z</time></trkpt><trkpt lat="39.7759544" lon="8.6309376"><ele>11.0</ele><time>2026-05-03T09:17:14.768Z</time></trkpt><trkpt lat="39.7758473" lon="8.6308427"><ele>11.0</ele><time>2026-05-03T09:17:15.767Z</time></trkpt><trkpt lat="39.7757304" lon="8.6307586"><ele>11.0</ele><time>2026-05-03T09:17:16.769Z</time></trkpt><trkpt lat="39.7756194" lon="8.6306778"><ele>11.0</ele><time>2026-05-03T09:17:17.768Z</time></trkpt><trkpt lat="39.7754946" lon="8.6306127"><ele>11.0</ele><time>2026-05-03T09:17:18.768Z</time></trkpt><trkpt lat="39.7753704" lon="8.63054"><ele>11.0</ele><time>2026-05-03T09:17:19.768Z</time></trkpt><trkpt lat="39.7752504" lon="8.630479"><ele>11.0</ele><time>2026-05-03T09:17:20.769Z</time></trkpt><trkpt lat="39.7751341" lon="8.6304271"><ele>11.0</ele><time>2026-05-03T09:17:21.768Z</time></trkpt><trkpt lat="39.7750228" lon="8.6303751"><ele>11.0</ele><time>2026-05-03T09:17:22.767Z</time></trkpt><trkpt lat="39.7749128" lon="8.6303259"><ele>10.8</ele><time>2026-05-03T09:17:23.77Z</time></trkpt><trkpt lat="39.7748041" lon="8.6302793"><ele>10.600000000000001</ele><time>2026-05-03T09:17:24.77Z</time></trkpt><trkpt lat="39.7747089" lon="8.6302429"><ele>10.4</ele><time>2026-05-03T09:17:25.767Z</time></trkpt><trkpt lat="39.7746259" lon="8.6302163"><ele>10.2</ele><time>2026-05-03T09:17:26.767Z</time></trkpt><trkpt lat="39.7745308" lon="8.6301557"><ele>10.0</ele><time>2026-05-03T09:17:28.768Z</time></trkpt><trkpt lat="39.7745297" lon="8.630034"><ele>10.0</ele><time>2026-05-03T09:17:30.77Z</time></trkpt><trkpt lat="39.7745549" lon="8.6299371"><ele>10.0</ele><time>2026-05-03T09:17:31.769Z</time></trkpt><trkpt lat="39.7745909" lon="8.629813"><ele>10.0</ele><time>2026-05-03T09:17:32.769Z</time></trkpt><trkpt lat="39.7746285" lon="8.6297042"><ele>10.0</ele><time>2026-05-03T09:17:33.767Z</time></trkpt><trkpt lat="39.7746725" lon="8.6295852"><ele>10.0</ele><time>2026-05-03T09:17:34.768Z</time></trkpt><trkpt lat="39.7747255" lon="8.6294628"><ele>9.0</ele><time>2026-05-03T09:17:35.769Z</time></trkpt><trkpt lat="39.7747887" lon="8.6293432"><ele>8.0</ele><time>2026-05-03T09:17:36.769Z</time></trkpt><trkpt lat="39.7748574" lon="8.6292236"><ele>7.0</ele><time>2026-05-03T09:17:37.768Z</time></trkpt><trkpt lat="39.774919" lon="8.6291043"><ele>6.0</ele><time>2026-05-03T09:17:38.769Z</time></trkpt><trkpt lat="39.7749783" lon="8.6289752"><ele>6.0</ele><time>2026-05-03T09:17:39.769Z</time></trkpt><trkpt lat="39.7750362" lon="8.6288449"><ele>6.0</ele><time>2026-05-03T09:17:40.769Z</time></trkpt><trkpt lat="39.7750919" lon="8.6287117"><ele>6.0</ele><time>2026-05-03T09:17:41.768Z</time></trkpt><trkpt lat="39.7751526" lon="8.6285836"><ele>6.0</ele><time>2026-05-03T09:17:42.767Z</time></trkpt><trkpt lat="39.7752235" lon="8.6284593"><ele>5.5</ele><time>2026-05-03T09:17:43.768Z</time></trkpt><trkpt lat="39.775302" lon="8.6283385"><ele>5.0</ele><time>2026-05-03T09:17:44.77Z</time></trkpt><trkpt lat="39.7753869" lon="8.6282321"><ele>4.5</ele><time>2026-05-03T09:17:45.767Z</time></trkpt><trkpt lat="39.7754693" lon="8.628122"><ele>4.0</ele><time>2026-05-03T09:17:46.768Z</time></trkpt><trkpt lat="39.7755441" lon="8.6279979"><ele>4.0</ele><time>2026-05-03T09:17:47.768Z</time></trkpt><trkpt lat="39.775616" lon="8.6278639"><ele>4.0</ele><time>2026-05-03T09:17:48.769Z</time></trkpt><trkpt lat="39.7756798" lon="8.6277227"><ele>4.0</ele><time>2026-05-03T09:17:49.769Z</time></trkpt><trkpt lat="39.7757474" lon="8.627574"><ele>4.0</ele><time>2026-05-03T09:17:50.768Z</time></trkpt><trkpt lat="39.77581" lon="8.627423"><ele>3.8000000000000003</ele><time>2026-05-03T09:17:51.769Z</time></trkpt><trkpt lat="39.7758726" lon="8.6272919"><ele>3.6000000000000005</ele><time>2026-05-03T09:17:52.77Z</time></trkpt><trkpt lat="39.7759396" lon="8.6271739"><ele>3.4</ele><time>2026-05-03T09:17:53.768Z</time></trkpt><trkpt lat="39.7760027" lon="8.6270716"><ele>3.2</ele><time>2026-05-03T09:17:54.768Z</time></trkpt><trkpt lat="39.7760706" lon="8.6269921"><ele>3.0</ele><time>2026-05-03T09:17:55.768Z</time></trkpt><trkpt lat="39.7761625" lon="8.6269191"><ele>3.75</ele><time>2026-05-03T09:17:56.767Z</time></trkpt><trkpt lat="39.7762607" lon="8.6268441"><ele>4.5</ele><time>2026-05-03T09:17:57.767Z</time></trkpt><trkpt lat="39.776365" lon="8.6267582"><ele>5.25</ele><time>2026-05-03T09:17:58.768Z</time></trkpt><trkpt lat="39.7764665" lon="8.626658"><ele>6.0</ele><time>2026-05-03T09:17:59.767Z</time></trkpt><trkpt lat="39.7765708" lon="8.6265497"><ele>6.0</ele><time>2026-05-03T09:18:00.769Z</time></trkpt><trkpt lat="39.7766647" lon="8.6264198"><ele>6.0</ele><time>2026-05-03T09:18:01.769Z</time></trkpt><trkpt lat="39.7767464" lon="8.6262934"><ele>6.0</ele><time>2026-05-03T09:18:02.767Z</time></trkpt><trkpt lat="39.7768262" lon="8.6261706"><ele>6.0</ele><time>2026-05-03T09:18:03.769Z</time></trkpt><trkpt lat="39.7769056" lon="8.6260351"><ele>5.0</ele><time>2026-05-03T09:18:04.767Z</time></trkpt><trkpt lat="39.7770005" lon="8.6259328"><ele>4.0</ele><time>2026-05-03T09:18:05.767Z</time></trkpt><trkpt lat="39.7771013" lon="8.6258443"><ele>3.0</ele><time>2026-05-03T09:18:06.767Z</time></trkpt><trkpt lat="39.7772098" lon="8.6257603"><ele>2.0</ele><time>2026-05-03T09:18:07.768Z</time></trkpt><trkpt lat="39.7773244" lon="8.625684"><ele>2.0</ele><time>2026-05-03T09:18:08.767Z</time></trkpt><trkpt lat="39.7774365" lon="8.6255897"><ele>2.0</ele><time>2026-05-03T09:18:09.768Z</time></trkpt><trkpt lat="39.7775443" lon="8.6254918"><ele>2.0</ele><time>2026-05-03T09:18:10.769Z</time></trkpt><trkpt lat="39.7776454" lon="8.6253735"><ele>2.0</ele><time>2026-05-03T09:18:11.769Z</time></trkpt><trkpt lat="39.777746" lon="8.6252531"><ele>2.25</ele><time>2026-05-03T09:18:12.768Z</time></trkpt><trkpt lat="39.7778561" lon="8.6251336"><ele>2.5</ele><time>2026-05-03T09:18:13.768Z</time></trkpt><trkpt lat="39.7779592" lon="8.6250345"><ele>2.75</ele><time>2026-05-03T09:18:14.768Z</time></trkpt><trkpt lat="39.7780584" lon="8.6249528"><ele>3.0</ele><time>2026-05-03T09:18:15.768Z</time></trkpt><trkpt lat="39.7781524" lon="8.6248903"><ele>3.0</ele><time>2026-05-03T09:18:16.768Z</time></trkpt><trkpt lat="39.7782344" lon="8.6248453"><ele>3.0</ele><time>2026-05-03T09:18:17.769Z</time></trkpt><trkpt lat="39.7783029" lon="8.6248076"><ele>3.0</ele><time>2026-05-03T09:18:18.768Z</time></trkpt><trkpt lat="39.7783733" lon="8.6247695"><ele>3.0</ele><time>2026-05-03T09:18:20.769Z</time></trkpt><trkpt lat="39.7784387" lon="8.6247323"><ele>3.0</ele><time>2026-05-03T09:18:24.768Z</time></trkpt><trkpt lat="39.7785224" lon="8.6246869"><ele>3.0</ele><time>2026-05-03T09:18:26.768Z</time></trkpt><trkpt lat="39.7785982" lon="8.6246638"><ele>2.8333333333333335</ele><time>2026-05-03T09:18:27.768Z</time></trkpt><trkpt lat="39.7786827" lon="8.6246414"><ele>2.6666666666666665</ele><time>2026-05-03T09:18:28.77Z</time></trkpt><trkpt lat="39.7787844" lon="8.6246277"><ele>2.5</ele><time>2026-05-03T09:18:29.767Z</time></trkpt><trkpt lat="39.7788782" lon="8.6246125"><ele>2.333333333333333</ele><time>2026-05-03T09:18:30.769Z</time></trkpt><trkpt lat="39.7789541" lon="8.6245958"><ele>2.1666666666666665</ele><time>2026-05-03T09:18:31.769Z</time></trkpt><trkpt lat="39.7790263" lon="8.6245669"><ele>2.0</ele><time>2026-05-03T09:18:32.769Z</time></trkpt><trkpt lat="39.7791048" lon="8.6245296"><ele>2.0</ele><time>2026-05-03T09:18:33.768Z</time></trkpt><trkpt lat="39.7791799" lon="8.6244971"><ele>2.0</ele><time>2026-05-03T09:18:34.768Z</time></trkpt><trkpt lat="39.7792599" lon="8.6244723"><ele>2.0</ele><time>2026-05-03T09:18:35.768Z</time></trkpt><trkpt lat="39.7793514" lon="8.624461"><ele>2.0</ele><time>2026-05-03T09:18:36.768Z</time></trkpt><trkpt lat="39.7794465" lon="8.6244528"><ele>2.0</ele><time>2026-05-03T09:18:37.769Z</time></trkpt><trkpt lat="39.7795503" lon="8.6244456"><ele>1.75</ele><time>2026-05-03T09:18:38.768Z</time></trkpt><trkpt lat="39.7796662" lon="8.6244122"><ele>1.5</ele><time>2026-05-03T09:18:39.768Z</time></trkpt><trkpt lat="39.7797881" lon="8.6243905"><ele>1.25</ele><time>2026-05-03T09:18:40.768Z</time></trkpt><trkpt lat="39.7799052" lon="8.6243589"><ele>1.0</ele><time>2026-05-03T09:18:41.767Z</time></trkpt><trkpt lat="39.7800059" lon="8.6243184"><ele>0.9999999999999999</ele><time>2026-05-03T09:18:42.768Z</time></trkpt><trkpt lat="39.7801012" lon="8.6242671"><ele>1.0</ele><time>2026-05-03T09:18:43.768Z</time></trkpt><trkpt lat="39.7801882" lon="8.6242185"><ele>1.0</ele><time>2026-05-03T09:18:44.768Z</time></trkpt><trkpt lat="39.7802546" lon="8.6241632"><ele>1.0</ele><time>2026-05-03T09:18:45.768Z</time></trkpt><trkpt lat="39.7803011" lon="8.6241004"><ele>0.9999999999999999</ele><time>2026-05-03T09:18:46.768Z</time></trkpt><trkpt lat="39.7803349" lon="8.6240299"><ele>1.0</ele><time>2026-05-03T09:18:47.768Z</time></trkpt><trkpt lat="39.7803439" lon="8.6239095"><ele>0.9999999999999999</ele><time>2026-05-03T09:18:49.769Z</time></trkpt><trkpt lat="39.7803089" lon="8.6237988"><ele>1.0</ele><time>2026-05-03T09:18:52.768Z</time></trkpt><trkpt lat="39.7802429" lon="8.6237535"><ele>1.0</ele><time>2026-05-03T09:18:54.769Z</time></trkpt><trkpt lat="39.780171" lon="8.6237301"><ele>1.0</ele><time>2026-05-03T09:18:55.769Z</time></trkpt><trkpt lat="39.780092" lon="8.6237054"><ele>0.9999999999999999</ele><time>2026-05-03T09:18:56.769Z</time></trkpt><trkpt lat="39.7800157" lon="8.6236689"><ele>1.0</ele><time>2026-05-03T09:18:57.768Z</time></trkpt><trkpt lat="39.7799508" lon="8.6236166"><ele>0.8333333333333333</ele><time>2026-05-03T09:18:58.768Z</time></trkpt><trkpt lat="39.7798965" lon="8.6235582"><ele>0.6666666666666666</ele><time>2026-05-03T09:18:59.769Z</time></trkpt><trkpt lat="39.7798385" lon="8.6235067"><ele>0.5</ele><time>2026-05-03T09:19:00.769Z</time></trkpt><trkpt lat="39.7797182" lon="8.6234739"><ele>0.3333333333333333</ele><time>2026-05-03T09:19:02.768Z</time></trkpt><trkpt lat="39.77965" lon="8.6234808"><ele>0.16666666666666666</ele><time>2026-05-03T09:19:03.767Z</time></trkpt><trkpt lat="39.7795691" lon="8.6234986"><ele>0.0</ele><time>2026-05-03T09:19:04.768Z</time></trkpt><trkpt lat="39.7794791" lon="8.6235135"><ele>0.0</ele><time>2026-05-03T09:19:05.769Z</time></trkpt><trkpt lat="39.7793735" lon="8.6235287"><ele>0.0</ele><time>2026-05-03T09:19:06.767Z</time></trkpt><trkpt lat="39.7792671" lon="8.6235643"><ele>0.0</ele><time>2026-05-03T09:19:07.769Z</time></trkpt><trkpt lat="39.7791565" lon="8.6236114"><ele>0.0</ele><time>2026-05-03T09:19:08.768Z</time></trkpt><trkpt lat="39.7790572" lon="8.6236462"><ele>0.0</ele><time>2026-05-03T09:19:09.768Z</time></trkpt><trkpt lat="39.7789682" lon="8.6236587"><ele>0.4</ele><time>2026-05-03T09:19:10.769Z</time></trkpt><trkpt lat="39.7788781" lon="8.62364"><ele>0.8</ele><time>2026-05-03T09:19:11.769Z</time></trkpt><trkpt lat="39.7787815" lon="8.623591"><ele>1.2000000000000002</ele><time>2026-05-03T09:19:12.768Z</time></trkpt><trkpt lat="39.7786737" lon="8.6235185"><ele>1.6</ele><time>2026-05-03T09:19:13.768Z</time></trkpt><trkpt lat="39.7785605" lon="8.6234296"><ele>2.0</ele><time>2026-05-03T09:19:14.768Z</time></trkpt><trkpt lat="39.7784306" lon="8.6233274"><ele>2.0</ele><time>2026-05-03T09:19:15.768Z</time></trkpt><trkpt lat="39.7782891" lon="8.6232251"><ele>2.0</ele><time>2026-05-03T09:19:16.768Z</time></trkpt><trkpt lat="39.7781485" lon="8.6231248"><ele>2.0</ele><time>2026-05-03T09:19:17.768Z</time></trkpt><trkpt lat="39.7780065" lon="8.6230301"><ele>2.0</ele><time>2026-05-03T09:19:18.767Z</time></trkpt><trkpt lat="39.7778588" lon="8.6229555"><ele>2.0</ele><time>2026-05-03T09:19:19.767Z</time></trkpt><trkpt lat="39.7777082" lon="8.6228903"><ele>2.0</ele><time>2026-05-03T09:19:20.767Z</time></trkpt><trkpt lat="39.777548" lon="8.622831"><ele>1.3333333333333333</ele><time>2026-05-03T09:19:21.768Z</time></trkpt><trkpt lat="39.7773909" lon="8.6227752"><ele>0.6666666666666666</ele><time>2026-05-03T09:19:22.768Z</time></trkpt><trkpt lat="39.7772274" lon="8.6227204"><ele>0.0</ele><time>2026-05-03T09:19:23.769Z</time></trkpt><trkpt lat="39.7770552" lon="8.6226707"><ele>0.0</ele><time>2026-05-03T09:19:24.769Z</time></trkpt><trkpt lat="39.7768845" lon="8.6226173"><ele>0.0</ele><time>2026-05-03T09:19:25.768Z</time></trkpt><trkpt lat="39.7767215" lon="8.6225652"><ele>0.0</ele><time>2026-05-03T09:19:26.767Z</time></trkpt><trkpt lat="39.7765604" lon="8.6225342"><ele>0.25</ele><time>2026-05-03T09:19:27.768Z</time></trkpt><trkpt lat="39.7764107" lon="8.6225057"><ele>0.5</ele><time>2026-05-03T09:19:28.767Z</time></trkpt><trkpt lat="39.7762624" lon="8.6224704"><ele>0.75</ele><time>2026-05-03T09:19:29.769Z</time></trkpt><trkpt lat="39.7761366" lon="8.62244"><ele>1.0</ele><time>2026-05-03T09:19:30.768Z</time></trkpt><trkpt lat="39.7760264" lon="8.622384"><ele>1.5</ele><time>2026-05-03T09:19:31.768Z</time></trkpt><trkpt lat="39.7759144" lon="8.6223128"><ele>2.0</ele><time>2026-05-03T09:19:32.767Z</time></trkpt><trkpt lat="39.7758032" lon="8.6222259"><ele>2.5</ele><time>2026-05-03T09:19:33.769Z</time></trkpt><trkpt lat="39.7756825" lon="8.6221339"><ele>3.0</ele><time>2026-05-03T09:19:34.768Z</time></trkpt><trkpt lat="39.7755551" lon="8.6220386"><ele>2.3333333333333335</ele><time>2026-05-03T09:19:35.769Z</time></trkpt><trkpt lat="39.775425" lon="8.6219491"><ele>1.6666666666666665</ele><time>2026-05-03T09:19:36.768Z</time></trkpt><trkpt lat="39.7752887" lon="8.6218563"><ele>1.0</ele><time>2026-05-03T09:19:37.768Z</time></trkpt><trkpt lat="39.7751547" lon="8.6217642"><ele>1.0</ele><time>2026-05-03T09:19:38.768Z</time></trkpt><trkpt lat="39.7750223" lon="8.6216701"><ele>1.0</ele><time>2026-05-03T09:19:39.768Z</time></trkpt><trkpt lat="39.7748877" lon="8.6215748"><ele>1.0</ele><time>2026-05-03T09:19:40.769Z</time></trkpt><trkpt lat="39.774739" lon="8.6214875"><ele>1.0</ele><time>2026-05-03T09:19:41.768Z</time></trkpt><trkpt lat="39.7745958" lon="8.6214143"><ele>1.0</ele><time>2026-05-03T09:19:42.767Z</time></trkpt><trkpt lat="39.7744612" lon="8.621367"><ele>1.0</ele><time>2026-05-03T09:19:43.769Z</time></trkpt><trkpt lat="39.7743519" lon="8.6213376"><ele>1.0</ele><time>2026-05-03T09:19:44.767Z</time></trkpt><trkpt lat="39.7742736" lon="8.6213092"><ele>1.0</ele><time>2026-05-03T09:19:45.768Z</time></trkpt><trkpt lat="39.7741857" lon="8.6212663"><ele>1.0</ele><time>2026-05-03T09:19:47.768Z</time></trkpt><trkpt lat="39.774144" lon="8.6211502"><ele>1.0</ele><time>2026-05-03T09:19:49.768Z</time></trkpt><trkpt lat="39.7741442" lon="8.6210416"><ele>1.0</ele><time>2026-05-03T09:19:50.768Z</time></trkpt><trkpt lat="39.774152" lon="8.6209192"><ele>1.0</ele><time>2026-05-03T09:19:51.767Z</time></trkpt><trkpt lat="39.7741521" lon="8.6207702"><ele>1.25</ele><time>2026-05-03T09:19:52.768Z</time></trkpt><trkpt lat="39.7741503" lon="8.6206088"><ele>1.5</ele><time>2026-05-03T09:19:53.768Z</time></trkpt><trkpt lat="39.7741504" lon="8.6204376"><ele>1.75</ele><time>2026-05-03T09:19:54.768Z</time></trkpt><trkpt lat="39.7741518" lon="8.6202463"><ele>2.0</ele><time>2026-05-03T09:19:55.768Z</time></trkpt><trkpt lat="39.7741492" lon="8.6200491"><ele>1.5</ele><time>2026-05-03T09:19:56.768Z</time></trkpt><trkpt lat="39.7741457" lon="8.6198562"><ele>1.0</ele><time>2026-05-03T09:19:57.769Z</time></trkpt><trkpt lat="39.77414" lon="8.6196773"><ele>0.5</ele><time>2026-05-03T09:19:58.768Z</time></trkpt><trkpt lat="39.7741368" lon="8.6195155"><ele>0.0</ele><time>2026-05-03T09:19:59.769Z</time></trkpt><trkpt lat="39.7741371" lon="8.6193491"><ele>0.0</ele><time>2026-05-03T09:20:00.768Z</time></trkpt><trkpt lat="39.7741379" lon="8.6191693"><ele>0.0</ele><time>2026-05-03T09:20:01.768Z</time></trkpt><trkpt lat="39.7741351" lon="8.6189698"><ele>0.0</ele><time>2026-05-03T09:20:02.767Z</time></trkpt><trkpt lat="39.7741356" lon="8.6187552"><ele>0.3333333333333333</ele><time>2026-05-03T09:20:03.769Z</time></trkpt><trkpt lat="39.7741336" lon="8.618528"><ele>0.6666666666666666</ele><time>2026-05-03T09:20:04.769Z</time></trkpt><trkpt lat="39.7741297" lon="8.6182943"><ele>1.0</ele><time>2026-05-03T09:20:05.768Z</time></trkpt><trkpt lat="39.7741275" lon="8.618046"><ele>0.6666666666666666</ele><time>2026-05-03T09:20:06.769Z</time></trkpt><trkpt lat="39.7741296" lon="8.6177815"><ele>0.3333333333333333</ele><time>2026-05-03T09:20:07.769Z</time></trkpt><trkpt lat="39.7741297" lon="8.6175128"><ele>0.0</ele><time>2026-05-03T09:20:08.769Z</time></trkpt><trkpt lat="39.7741298" lon="8.6172436"><ele>-0.3333333333333333</ele><time>2026-05-03T09:20:09.768Z</time></trkpt><trkpt lat="39.7741245" lon="8.6169691"><ele>-0.6666666666666666</ele><time>2026-05-03T09:20:10.767Z</time></trkpt><trkpt lat="39.7741204" lon="8.6166965"><ele>-1.0</ele><time>2026-05-03T09:20:11.769Z</time></trkpt><trkpt lat="39.7741219" lon="8.6164144"><ele>-1.0</ele><time>2026-05-03T09:20:12.768Z</time></trkpt><trkpt lat="39.7741198" lon="8.6161461"><ele>-1.0</ele><time>2026-05-03T09:20:13.768Z</time></trkpt><trkpt lat="39.7741206" lon="8.6158641"><ele>-1.0</ele><time>2026-05-03T09:20:14.768Z</time></trkpt><trkpt lat="39.7741216" lon="8.6155849"><ele>-1.0</ele><time>2026-05-03T09:20:15.769Z</time></trkpt><trkpt lat="39.7741241" lon="8.6153036"><ele>-1.0</ele><time>2026-05-03T09:20:16.769Z</time></trkpt><trkpt lat="39.7741273" lon="8.6150289"><ele>-1.0</ele><time>2026-05-03T09:20:17.767Z</time></trkpt><trkpt lat="39.7741276" lon="8.6147554"><ele>-1.0</ele><time>2026-05-03T09:20:18.768Z</time></trkpt><trkpt lat="39.7741284" lon="8.6144956"><ele>-1.0</ele><time>2026-05-03T09:20:19.768Z</time></trkpt><trkpt lat="39.7741356" lon="8.6142421"><ele>-1.0</ele><time>2026-05-03T09:20:20.767Z</time></trkpt><trkpt lat="39.7741336" lon="8.6140012"><ele>-1.0</ele><time>2026-05-03T09:20:21.767Z</time></trkpt><trkpt lat="39.774134" lon="8.6137546"><ele>-1.0</ele><time>2026-05-03T09:20:22.768Z</time></trkpt><trkpt lat="39.7741312" lon="8.6135122"><ele>-1.0</ele><time>2026-05-03T09:20:23.769Z</time></trkpt><trkpt lat="39.7741298" lon="8.6132864"><ele>-1.0</ele><time>2026-05-03T09:20:24.769Z</time></trkpt><trkpt lat="39.7741323" lon="8.6130572"><ele>-1.0</ele><time>2026-05-03T09:20:25.769Z</time></trkpt><trkpt lat="39.7741338" lon="8.6128213"><ele>-1.0</ele><time>2026-05-03T09:20:26.769Z</time></trkpt><trkpt lat="39.7741345" lon="8.612577"><ele>-1.0</ele><time>2026-05-03T09:20:27.767Z</time></trkpt><trkpt lat="39.7741264" lon="8.6123209"><ele>-1.0</ele><time>2026-05-03T09:20:28.769Z</time></trkpt><trkpt lat="39.7741198" lon="8.6120701"><ele>-1.0</ele><time>2026-05-03T09:20:29.768Z</time></trkpt><trkpt lat="39.7741185" lon="8.6118444"><ele>-0.6666666666666666</ele><time>2026-05-03T09:20:30.769Z</time></trkpt><trkpt lat="39.7741167" lon="8.6116383"><ele>-0.3333333333333333</ele><time>2026-05-03T09:20:31.769Z</time></trkpt><trkpt lat="39.7741145" lon="8.6114421"><ele>0.0</ele><time>2026-05-03T09:20:32.768Z</time></trkpt><trkpt lat="39.7741199" lon="8.6112461"><ele>0.0</ele><time>2026-05-03T09:20:33.768Z</time></trkpt><trkpt lat="39.774115" lon="8.6110431"><ele>0.0</ele><time>2026-05-03T09:20:34.768Z</time></trkpt><trkpt lat="39.7741134" lon="8.610838"><ele>0.0</ele><time>2026-05-03T09:20:35.768Z</time></trkpt><trkpt lat="39.774117" lon="8.6106195"><ele>0.0</ele><time>2026-05-03T09:20:36.768Z</time></trkpt><trkpt lat="39.774117" lon="8.6103912"><ele>0.0</ele><time>2026-05-03T09:20:37.769Z</time></trkpt><trkpt lat="39.7741234" lon="8.6101486"><ele>0.0</ele><time>2026-05-03T09:20:38.768Z</time></trkpt><trkpt lat="39.7741199" lon="8.6099011"><ele>0.0</ele><time>2026-05-03T09:20:39.768Z</time></trkpt><trkpt lat="39.7741255" lon="8.6096398"><ele>0.0</ele><time>2026-05-03T09:20:40.769Z</time></trkpt><trkpt lat="39.7741291" lon="8.6093786"><ele>0.0</ele><time>2026-05-03T09:20:41.768Z</time></trkpt><trkpt lat="39.7741297" lon="8.6091264"><ele>0.0</ele><time>2026-05-03T09:20:42.769Z</time></trkpt><trkpt lat="39.7741163" lon="8.608875"><ele>0.0</ele><time>2026-05-03T09:20:43.768Z</time></trkpt><trkpt lat="39.7741252" lon="8.6086474"><ele>0.0</ele><time>2026-05-03T09:20:44.767Z</time></trkpt><trkpt lat="39.7741244" lon="8.6084073"><ele>0.0</ele><time>2026-05-03T09:20:45.767Z</time></trkpt><trkpt lat="39.7741197" lon="8.6081798"><ele>0.0</ele><time>2026-05-03T09:20:46.768Z</time></trkpt><trkpt lat="39.7741174" lon="8.6079398"><ele>0.0</ele><time>2026-05-03T09:20:47.768Z</time></trkpt><trkpt lat="39.7741177" lon="8.6077078"><ele>-0.6666666666666666</ele><time>2026-05-03T09:20:48.767Z</time></trkpt><trkpt lat="39.7741143" lon="8.6074769"><ele>-1.3333333333333333</ele><time>2026-05-03T09:20:49.768Z</time></trkpt><trkpt lat="39.7741175" lon="8.6072389"><ele>-2.0</ele><time>2026-05-03T09:20:50.769Z</time></trkpt><trkpt lat="39.7741073" lon="8.6069974"><ele>-1.6666666666666665</ele><time>2026-05-03T09:20:51.767Z</time></trkpt><trkpt lat="39.774106" lon="8.606765"><ele>-1.3333333333333333</ele><time>2026-05-03T09:20:52.769Z</time></trkpt><trkpt lat="39.7741049" lon="8.6065228"><ele>-1.0</ele><time>2026-05-03T09:20:53.768Z</time></trkpt><trkpt lat="39.774107" lon="8.6062882"><ele>-1.0</ele><time>2026-05-03T09:20:54.768Z</time></trkpt><trkpt lat="39.7741086" lon="8.6060561"><ele>-1.0</ele><time>2026-05-03T09:20:55.769Z</time></trkpt><trkpt lat="39.7741112" lon="8.6058222"><ele>-1.0</ele><time>2026-05-03T09:20:56.769Z</time></trkpt><trkpt lat="39.7741071" lon="8.6055805"><ele>-1.0</ele><time>2026-05-03T09:20:57.769Z</time></trkpt><trkpt lat="39.7741032" lon="8.6053615"><ele>-1.0</ele><time>2026-05-03T09:20:58.767Z</time></trkpt><trkpt lat="39.7740967" lon="8.6051619"><ele>-1.0</ele><time>2026-05-03T09:20:59.768Z</time></trkpt><trkpt lat="39.774091" lon="8.6049975"><ele>-1.0</ele><time>2026-05-03T09:21:00.768Z</time></trkpt><trkpt lat="39.7740888" lon="8.6048512"><ele>-1.2000000000000002</ele><time>2026-05-03T09:21:01.767Z</time></trkpt><trkpt lat="39.7740875" lon="8.6047375"><ele>-1.4000000000000001</ele><time>2026-05-03T09:21:02.768Z</time></trkpt><trkpt lat="39.7741135" lon="8.6046051"><ele>-1.6</ele><time>2026-05-03T09:21:04.769Z</time></trkpt><trkpt lat="39.7742029" lon="8.6045625"><ele>-1.8</ele><time>2026-05-03T09:21:06.768Z</time></trkpt><trkpt lat="39.7742796" lon="8.6045726"><ele>-2.0</ele><time>2026-05-03T09:21:07.768Z</time></trkpt><trkpt lat="39.7743641" lon="8.6045829"><ele>-2.0</ele><time>2026-05-03T09:21:08.768Z</time></trkpt><trkpt lat="39.7744669" lon="8.60459"><ele>-2.0</ele><time>2026-05-03T09:21:09.768Z</time></trkpt><trkpt lat="39.7745813" lon="8.6045883"><ele>-2.0</ele><time>2026-05-03T09:21:10.769Z</time></trkpt><trkpt lat="39.7747167" lon="8.604584"><ele>-2.0</ele><time>2026-05-03T09:21:11.767Z</time></trkpt><trkpt lat="39.7748584" lon="8.6045799"><ele>-2.0</ele><time>2026-05-03T09:21:12.766Z</time></trkpt><trkpt lat="39.7750119" lon="8.6045806"><ele>-2.0</ele><time>2026-05-03T09:21:13.768Z</time></trkpt><trkpt lat="39.7751673" lon="8.6045762"><ele>-2.0</ele><time>2026-05-03T09:21:14.768Z</time></trkpt><trkpt lat="39.7753244" lon="8.6045706"><ele>-2.0</ele><time>2026-05-03T09:21:15.768Z</time></trkpt><trkpt lat="39.7754912" lon="8.6045665"><ele>-2.0</ele><time>2026-05-03T09:21:16.768Z</time></trkpt><trkpt lat="39.775653" lon="8.6045614"><ele>-2.0</ele><time>2026-05-03T09:21:17.768Z</time></trkpt><trkpt lat="39.7758172" lon="8.6045603"><ele>-2.0</ele><time>2026-05-03T09:21:18.767Z</time></trkpt><trkpt lat="39.77599" lon="8.6045627"><ele>-2.0</ele><time>2026-05-03T09:21:19.768Z</time></trkpt><trkpt lat="39.776169" lon="8.6045614"><ele>-2.0</ele><time>2026-05-03T09:21:20.767Z</time></trkpt><trkpt lat="39.7763588" lon="8.6045549"><ele>-2.0</ele><time>2026-05-03T09:21:21.767Z</time></trkpt><trkpt lat="39.7765317" lon="8.6045499"><ele>-2.0</ele><time>2026-05-03T09:21:22.769Z</time></trkpt><trkpt lat="39.7767091" lon="8.6045476"><ele>-2.0</ele><time>2026-05-03T09:21:23.768Z</time></trkpt><trkpt lat="39.7768881" lon="8.6045505"><ele>-2.0</ele><time>2026-05-03T09:21:24.767Z</time></trkpt><trkpt lat="39.7770608" lon="8.6045589"><ele>-2.0</ele><time>2026-05-03T09:21:25.768Z</time></trkpt><trkpt lat="39.7772364" lon="8.604564"><ele>-2.0</ele><time>2026-05-03T09:21:26.768Z</time></trkpt><trkpt lat="39.7774192" lon="8.6045611"><ele>-2.0</ele><time>2026-05-03T09:21:27.769Z</time></trkpt><trkpt lat="39.7775994" lon="8.6045578"><ele>-2.0</ele><time>2026-05-03T09:21:28.767Z</time></trkpt><trkpt lat="39.7777648" lon="8.6045507"><ele>-2.0</ele><time>2026-05-03T09:21:29.768Z</time></trkpt><trkpt lat="39.7779235" lon="8.6045495"><ele>-2.0</ele><time>2026-05-03T09:21:30.768Z</time></trkpt><trkpt lat="39.77808" lon="8.6045555"><ele>-2.0</ele><time>2026-05-03T09:21:31.767Z</time></trkpt><trkpt lat="39.7782392" lon="8.6045644"><ele>-2.0</ele><time>2026-05-03T09:21:32.767Z</time></trkpt><trkpt lat="39.7784069" lon="8.604566"><ele>-1.6666666666666665</ele><time>2026-05-03T09:21:33.768Z</time></trkpt><trkpt lat="39.7785799" lon="8.6045687"><ele>-1.3333333333333333</ele><time>2026-05-03T09:21:34.768Z</time></trkpt><trkpt lat="39.7787534" lon="8.604567"><ele>-1.0</ele><time>2026-05-03T09:21:35.767Z</time></trkpt><trkpt lat="39.7789402" lon="8.6045634"><ele>-1.0</ele><time>2026-05-03T09:21:36.768Z</time></trkpt><trkpt lat="39.7791244" lon="8.6045581"><ele>-1.0</ele><time>2026-05-03T09:21:37.767Z</time></trkpt><trkpt lat="39.7793039" lon="8.6045544"><ele>-1.0</ele><time>2026-05-03T09:21:38.767Z</time></trkpt><trkpt lat="39.7794848" lon="8.6045472"><ele>-0.6666666666666666</ele><time>2026-05-03T09:21:39.767Z</time></trkpt><trkpt lat="39.7796608" lon="8.6045406"><ele>-0.3333333333333333</ele><time>2026-05-03T09:21:40.769Z</time></trkpt><trkpt lat="39.7798368" lon="8.604531"><ele>0.0</ele><time>2026-05-03T09:21:41.767Z</time></trkpt><trkpt lat="39.780019" lon="8.6045274"><ele>-0.3333333333333333</ele><time>2026-05-03T09:21:42.768Z</time></trkpt><trkpt lat="39.7801986" lon="8.6045287"><ele>-0.6666666666666666</ele><time>2026-05-03T09:21:43.767Z</time></trkpt><trkpt lat="39.7803798" lon="8.6045316"><ele>-1.0</ele><time>2026-05-03T09:21:44.767Z</time></trkpt><trkpt lat="39.78056" lon="8.6045331"><ele>-1.0</ele><time>2026-05-03T09:21:45.769Z</time></trkpt><trkpt lat="39.7807397" lon="8.604533"><ele>-1.0</ele><time>2026-05-03T09:21:46.769Z</time></trkpt><trkpt lat="39.7809174" lon="8.6045358"><ele>-1.0</ele><time>2026-05-03T09:21:47.768Z</time></trkpt><trkpt lat="39.7810922" lon="8.6045381"><ele>-1.0</ele><time>2026-05-03T09:21:48.769Z</time></trkpt><trkpt lat="39.7812531" lon="8.6045366"><ele>-1.0</ele><time>2026-05-03T09:21:49.769Z</time></trkpt><trkpt lat="39.7814052" lon="8.6045316"><ele>-1.0</ele><time>2026-05-03T09:21:50.767Z</time></trkpt><trkpt lat="39.7815585" lon="8.6045264"><ele>-1.0</ele><time>2026-05-03T09:21:51.769Z</time></trkpt><trkpt lat="39.7817101" lon="8.6045275"><ele>-1.0</ele><time>2026-05-03T09:21:52.769Z</time></trkpt><trkpt lat="39.7818721" lon="8.6045188"><ele>-1.0</ele><time>2026-05-03T09:21:53.768Z</time></trkpt><trkpt lat="39.7820281" lon="8.6045198"><ele>-1.3333333333333333</ele><time>2026-05-03T09:21:54.767Z</time></trkpt><trkpt lat="39.7821846" lon="8.6045238"><ele>-1.6666666666666665</ele><time>2026-05-03T09:21:55.767Z</time></trkpt><trkpt lat="39.7823406" lon="8.6045277"><ele>-2.0</ele><time>2026-05-03T09:21:56.769Z</time></trkpt><trkpt lat="39.7825011" lon="8.6045295"><ele>-2.0</ele><time>2026-05-03T09:21:57.767Z</time></trkpt><trkpt lat="39.7826609" lon="8.6045306"><ele>-2.0</ele><time>2026-05-03T09:21:58.768Z</time></trkpt><trkpt lat="39.7828257" lon="8.6045274"><ele>-2.0</ele><time>2026-05-03T09:21:59.768Z</time></trkpt><trkpt lat="39.7829917" lon="8.60452"><ele>-2.0</ele><time>2026-05-03T09:22:00.769Z</time></trkpt><trkpt lat="39.7831594" lon="8.6045127"><ele>-2.0</ele><time>2026-05-03T09:22:01.767Z</time></trkpt><trkpt lat="39.7833287" lon="8.6045131"><ele>-2.0</ele><time>2026-05-03T09:22:02.768Z</time></trkpt><trkpt lat="39.7834991" lon="8.6045112"><ele>-2.0</ele><time>2026-05-03T09:22:03.769Z</time></trkpt><trkpt lat="39.7836643" lon="8.6045147"><ele>-2.0</ele><time>2026-05-03T09:22:04.768Z</time></trkpt><trkpt lat="39.7838303" lon="8.6045173"><ele>-2.0</ele><time>2026-05-03T09:22:05.768Z</time></trkpt><trkpt lat="39.7839948" lon="8.6045171"><ele>-2.0</ele><time>2026-05-03T09:22:06.769Z</time></trkpt><trkpt lat="39.7841607" lon="8.6045195"><ele>-2.0</ele><time>2026-05-03T09:22:07.769Z</time></trkpt><trkpt lat="39.7843316" lon="8.6045217"><ele>-2.0</ele><time>2026-05-03T09:22:08.768Z</time></trkpt><trkpt lat="39.7845036" lon="8.6045235"><ele>-2.0</ele><time>2026-05-03T09:22:09.767Z</time></trkpt><trkpt lat="39.784677" lon="8.6045232"><ele>-2.0</ele><time>2026-05-03T09:22:10.766Z</time></trkpt><trkpt lat="39.7848522" lon="8.6045221"><ele>-2.0</ele><time>2026-05-03T09:22:11.768Z</time></trkpt><trkpt lat="39.7850209" lon="8.6045166"><ele>-1.3333333333333333</ele><time>2026-05-03T09:22:12.768Z</time></trkpt><trkpt lat="39.7851794" lon="8.604506"><ele>-0.6666666666666666</ele><time>2026-05-03T09:22:13.766Z</time></trkpt><trkpt lat="39.7853307" lon="8.6045079"><ele>0.0</ele><time>2026-05-03T09:22:14.768Z</time></trkpt><trkpt lat="39.7854717" lon="8.6045194"><ele>0.0</ele><time>2026-05-03T09:22:15.767Z</time></trkpt><trkpt lat="39.7856291" lon="8.6045211"><ele>0.0</ele><time>2026-05-03T09:22:16.769Z</time></trkpt><trkpt lat="39.7857824" lon="8.6045148"><ele>0.0</ele><time>2026-05-03T09:22:17.769Z</time></trkpt><trkpt lat="39.7859419" lon="8.6045192"><ele>-0.3333333333333333</ele><time>2026-05-03T09:22:18.768Z</time></trkpt><trkpt lat="39.7861005" lon="8.6045175"><ele>-0.6666666666666666</ele><time>2026-05-03T09:22:19.768Z</time></trkpt><trkpt lat="39.7862643" lon="8.6045107"><ele>-1.0</ele><time>2026-05-03T09:22:20.767Z</time></trkpt><trkpt lat="39.7864379" lon="8.6045104"><ele>-1.0</ele><time>2026-05-03T09:22:21.768Z</time></trkpt><trkpt lat="39.7866024" lon="8.6045078"><ele>-1.0</ele><time>2026-05-03T09:22:22.767Z</time></trkpt><trkpt lat="39.7867666" lon="8.6044979"><ele>-1.0</ele><time>2026-05-03T09:22:23.766Z</time></trkpt><trkpt lat="39.7869214" lon="8.604495"><ele>-1.0</ele><time>2026-05-03T09:22:24.768Z</time></trkpt><trkpt lat="39.7870786" lon="8.6044908"><ele>-1.0</ele><time>2026-05-03T09:22:25.767Z</time></trkpt><trkpt lat="39.7872356" lon="8.6044931"><ele>-1.0</ele><time>2026-05-03T09:22:26.769Z</time></trkpt><trkpt lat="39.7874013" lon="8.6045"><ele>-1.0</ele><time>2026-05-03T09:22:27.768Z</time></trkpt><trkpt lat="39.787572" lon="8.6044825"><ele>-1.0</ele><time>2026-05-03T09:22:28.767Z</time></trkpt><trkpt lat="39.7877372" lon="8.6044771"><ele>-1.0</ele><time>2026-05-03T09:22:29.767Z</time></trkpt><trkpt lat="39.7878939" lon="8.6044743"><ele>-1.25</ele><time>2026-05-03T09:22:30.768Z</time></trkpt><trkpt lat="39.7880438" lon="8.604476"><ele>-1.5</ele><time>2026-05-03T09:22:31.768Z</time></trkpt><trkpt lat="39.7881932" lon="8.6044816"><ele>-1.75</ele><time>2026-05-03T09:22:32.769Z</time></trkpt><trkpt lat="39.7883365" lon="8.6044827"><ele>-2.0</ele><time>2026-05-03T09:22:33.769Z</time></trkpt><trkpt lat="39.7884559" lon="8.6044917"><ele>-2.0</ele><time>2026-05-03T09:22:34.768Z</time></trkpt><trkpt lat="39.7885728" lon="8.6044956"><ele>-2.0</ele><time>2026-05-03T09:22:35.767Z</time></trkpt><trkpt lat="39.7886877" lon="8.6044916"><ele>-2.0</ele><time>2026-05-03T09:22:36.767Z</time></trkpt><trkpt lat="39.7887763" lon="8.6044826"><ele>-2.0</ele><time>2026-05-03T09:22:37.768Z</time></trkpt><trkpt lat="39.788846" lon="8.6044721"><ele>-2.0</ele><time>2026-05-03T09:22:38.768Z</time></trkpt><trkpt lat="39.7889345" lon="8.604417"><ele>-2.0</ele><time>2026-05-03T09:22:40.767Z</time></trkpt><trkpt lat="39.7889463" lon="8.604249"><ele>-2.0</ele><time>2026-05-03T09:22:42.768Z</time></trkpt><trkpt lat="39.7889398" lon="8.6041143"><ele>-2.0</ele><time>2026-05-03T09:22:43.768Z</time></trkpt><trkpt lat="39.7889381" lon="8.603955"><ele>-2.0</ele><time>2026-05-03T09:22:44.768Z</time></trkpt><trkpt lat="39.7889368" lon="8.6037771"><ele>-2.0</ele><time>2026-05-03T09:22:45.767Z</time></trkpt><trkpt lat="39.7889289" lon="8.6035817"><ele>-2.0</ele><time>2026-05-03T09:22:46.766Z</time></trkpt><trkpt lat="39.7889284" lon="8.6033671"><ele>-2.0</ele><time>2026-05-03T09:22:47.769Z</time></trkpt><trkpt lat="39.7889251" lon="8.6031409"><ele>-2.0</ele><time>2026-05-03T09:22:48.767Z</time></trkpt><trkpt lat="39.7889248" lon="8.6029051"><ele>-2.0</ele><time>2026-05-03T09:22:49.768Z</time></trkpt><trkpt lat="39.788921" lon="8.6026693"><ele>-2.0</ele><time>2026-05-03T09:22:50.768Z</time></trkpt><trkpt lat="39.7889162" lon="8.6024317"><ele>-1.6666666666666665</ele><time>2026-05-03T09:22:51.768Z</time></trkpt><trkpt lat="39.7889109" lon="8.6022018"><ele>-1.3333333333333333</ele><time>2026-05-03T09:22:52.768Z</time></trkpt><trkpt lat="39.788906" lon="8.60198"><ele>-1.0</ele><time>2026-05-03T09:22:53.767Z</time></trkpt><trkpt lat="39.7889056" lon="8.6017756"><ele>-0.6666666666666666</ele><time>2026-05-03T09:22:54.767Z</time></trkpt><trkpt lat="39.7889137" lon="8.6015684"><ele>-0.3333333333333333</ele><time>2026-05-03T09:22:55.768Z</time></trkpt><trkpt lat="39.7889176" lon="8.6013711"><ele>0.0</ele><time>2026-05-03T09:22:56.769Z</time></trkpt><trkpt lat="39.7889178" lon="8.601169"><ele>0.0</ele><time>2026-05-03T09:22:57.766Z</time></trkpt><trkpt lat="39.7889209" lon="8.6009673"><ele>0.0</ele><time>2026-05-03T09:22:58.768Z</time></trkpt><trkpt lat="39.7889228" lon="8.6007673"><ele>0.0</ele><time>2026-05-03T09:22:59.768Z</time></trkpt><trkpt lat="39.7889258" lon="8.6005692"><ele>0.0</ele><time>2026-05-03T09:23:00.767Z</time></trkpt><trkpt lat="39.7889292" lon="8.6003757"><ele>0.0</ele><time>2026-05-03T09:23:01.768Z</time></trkpt><trkpt lat="39.7889257" lon="8.6001891"><ele>0.0</ele><time>2026-05-03T09:23:02.767Z</time></trkpt><trkpt lat="39.7889215" lon="8.5999975"><ele>0.0</ele><time>2026-05-03T09:23:03.769Z</time></trkpt><trkpt lat="39.7889182" lon="8.599807"><ele>0.0</ele><time>2026-05-03T09:23:04.767Z</time></trkpt><trkpt lat="39.7889209" lon="8.5996176"><ele>0.0</ele><time>2026-05-03T09:23:05.768Z</time></trkpt><trkpt lat="39.78892" lon="8.5994295"><ele>0.0</ele><time>2026-05-03T09:23:06.768Z</time></trkpt><trkpt lat="39.7889185" lon="8.5992428"><ele>0.0</ele><time>2026-05-03T09:23:07.767Z</time></trkpt><trkpt lat="39.7889108" lon="8.5990481"><ele>0.0</ele><time>2026-05-03T09:23:08.768Z</time></trkpt><trkpt lat="39.7889125" lon="8.5988689"><ele>0.0</ele><time>2026-05-03T09:23:09.768Z</time></trkpt><trkpt lat="39.7889131" lon="8.5986914"><ele>0.0</ele><time>2026-05-03T09:23:10.767Z</time></trkpt><trkpt lat="39.7889142" lon="8.5985174"><ele>0.0</ele><time>2026-05-03T09:23:11.769Z</time></trkpt><trkpt lat="39.7889111" lon="8.5983429"><ele>0.0</ele><time>2026-05-03T09:23:12.768Z</time></trkpt><trkpt lat="39.7889158" lon="8.5981731"><ele>0.0</ele><time>2026-05-03T09:23:13.769Z</time></trkpt><trkpt lat="39.7889039" lon="8.5980095"><ele>0.0</ele><time>2026-05-03T09:23:14.768Z</time></trkpt><trkpt lat="39.788894" lon="8.5978416"><ele>0.0</ele><time>2026-05-03T09:23:15.768Z</time></trkpt><trkpt lat="39.7888978" lon="8.5976761"><ele>-0.25</ele><time>2026-05-03T09:23:16.767Z</time></trkpt><trkpt lat="39.788897" lon="8.5975061"><ele>-0.5</ele><time>2026-05-03T09:23:17.768Z</time></trkpt><trkpt lat="39.7889012" lon="8.5973391"><ele>-0.75</ele><time>2026-05-03T09:23:18.767Z</time></trkpt><trkpt lat="39.7889015" lon="8.5971662"><ele>-1.0</ele><time>2026-05-03T09:23:19.769Z</time></trkpt><trkpt lat="39.7889007" lon="8.5969845"><ele>-1.0</ele><time>2026-05-03T09:23:20.767Z</time></trkpt><trkpt lat="39.7888967" lon="8.5967996"><ele>-1.0</ele><time>2026-05-03T09:23:21.767Z</time></trkpt><trkpt lat="39.7888954" lon="8.5966192"><ele>-1.0</ele><time>2026-05-03T09:23:22.768Z</time></trkpt><trkpt lat="39.7888904" lon="8.5964449"><ele>-1.0</ele><time>2026-05-03T09:23:23.767Z</time></trkpt><trkpt lat="39.7888902" lon="8.5962711"><ele>-0.5</ele><time>2026-05-03T09:23:24.768Z</time></trkpt><trkpt lat="39.7888938" lon="8.5960862"><ele>0.0</ele><time>2026-05-03T09:23:25.769Z</time></trkpt><trkpt lat="39.7888943" lon="8.5958862"><ele>0.5</ele><time>2026-05-03T09:23:26.768Z</time></trkpt><trkpt lat="39.7888917" lon="8.5956981"><ele>1.0</ele><time>2026-05-03T09:23:27.768Z</time></trkpt><trkpt lat="39.7889161" lon="8.5955205"><ele>1.0</ele><time>2026-05-03T09:23:28.769Z</time></trkpt><trkpt lat="39.7889129" lon="8.5953148"><ele>1.0</ele><time>2026-05-03T09:23:29.767Z</time></trkpt><trkpt lat="39.7889156" lon="8.5951209"><ele>1.0</ele><time>2026-05-03T09:23:30.769Z</time></trkpt><trkpt lat="39.7889137" lon="8.5949136"><ele>1.0</ele><time>2026-05-03T09:23:31.767Z</time></trkpt><trkpt lat="39.7889101" lon="8.594721"><ele>1.0</ele><time>2026-05-03T09:23:32.766Z</time></trkpt><trkpt lat="39.788909" lon="8.594526"><ele>1.0</ele><time>2026-05-03T09:23:33.768Z</time></trkpt><trkpt lat="39.788902" lon="8.5943295"><ele>1.0</ele><time>2026-05-03T09:23:34.767Z</time></trkpt><trkpt lat="39.7889049" lon="8.5941365"><ele>1.0</ele><time>2026-05-03T09:23:35.768Z</time></trkpt><trkpt lat="39.7889056" lon="8.5939607"><ele>1.0</ele><time>2026-05-03T09:23:36.768Z</time></trkpt><trkpt lat="39.7889104" lon="8.5937973"><ele>1.0</ele><time>2026-05-03T09:23:37.767Z</time></trkpt><trkpt lat="39.7889093" lon="8.5936599"><ele>1.0</ele><time>2026-05-03T09:23:38.768Z</time></trkpt><trkpt lat="39.7889161" lon="8.5935525"><ele>1.0</ele><time>2026-05-03T09:23:39.768Z</time></trkpt><trkpt lat="39.7889177" lon="8.5934143"><ele>1.0</ele><time>2026-05-03T09:23:41.769Z</time></trkpt><trkpt lat="39.7889098" lon="8.593259"><ele>1.0</ele><time>2026-05-03T09:23:43.767Z</time></trkpt><trkpt lat="39.7888781" lon="8.5931253"><ele>1.0</ele><time>2026-05-03T09:23:45.768Z</time></trkpt><trkpt lat="39.788778" lon="8.5931052"><ele>1.0</ele><time>2026-05-03T09:23:47.767Z</time></trkpt><trkpt lat="39.7887053" lon="8.5931209"><ele>1.0</ele><time>2026-05-03T09:23:48.769Z</time></trkpt><trkpt lat="39.7886127" lon="8.5931297"><ele>1.25</ele><time>2026-05-03T09:23:49.769Z</time></trkpt><trkpt lat="39.7884951" lon="8.5931421"><ele>1.5</ele><time>2026-05-03T09:23:50.768Z</time></trkpt><trkpt lat="39.7883675" lon="8.5931772"><ele>1.75</ele><time>2026-05-03T09:23:51.767Z</time></trkpt><trkpt lat="39.7882259" lon="8.5932299"><ele>2.0</ele><time>2026-05-03T09:23:52.767Z</time></trkpt><trkpt lat="39.7880741" lon="8.5933101"><ele>2.0</ele><time>2026-05-03T09:23:53.768Z</time></trkpt><trkpt lat="39.7879143" lon="8.5934024"><ele>2.0</ele><time>2026-05-03T09:23:54.767Z</time></trkpt><trkpt lat="39.7877646" lon="8.5934886"><ele>2.0</ele><time>2026-05-03T09:23:55.767Z</time></trkpt><trkpt lat="39.7876319" lon="8.5935676"><ele>2.0</ele><time>2026-05-03T09:23:56.769Z</time></trkpt><trkpt lat="39.787511" lon="8.5936459"><ele>2.0</ele><time>2026-05-03T09:23:57.767Z</time></trkpt><trkpt lat="39.7874173" lon="8.5937167"><ele>2.0</ele><time>2026-05-03T09:23:58.767Z</time></trkpt><trkpt lat="39.7873184" lon="8.5937708"><ele>2.0</ele><time>2026-05-03T09:23:59.767Z</time></trkpt><trkpt lat="39.7872387" lon="8.5938089"><ele>2.0</ele><time>2026-05-03T09:24:00.768Z</time></trkpt><trkpt lat="39.7871638" lon="8.5938222"><ele>2.0</ele><time>2026-05-03T09:24:01.768Z</time></trkpt><trkpt lat="39.7870917" lon="8.5937162"><ele>2.0</ele><time>2026-05-03T09:24:03.767Z</time></trkpt><trkpt lat="39.7870849" lon="8.5936242"><ele>2.0</ele><time>2026-05-03T09:24:04.767Z</time></trkpt><trkpt lat="39.7870919" lon="8.5934852"><ele>2.0</ele><time>2026-05-03T09:24:05.768Z</time></trkpt><trkpt lat="39.7871008" lon="8.5933581"><ele>2.0</ele><time>2026-05-03T09:24:06.768Z</time></trkpt><trkpt lat="39.7871001" lon="8.5932358"><ele>2.0</ele><time>2026-05-03T09:24:07.768Z</time></trkpt><trkpt lat="39.7871019" lon="8.5931154"><ele>2.0</ele><time>2026-05-03T09:24:08.768Z</time></trkpt><trkpt lat="39.7871007" lon="8.5929944"><ele>2.0</ele><time>2026-05-03T09:24:09.768Z</time></trkpt><trkpt lat="39.7871062" lon="8.5928746"><ele>2.0</ele><time>2026-05-03T09:24:10.767Z</time></trkpt><trkpt lat="39.7871079" lon="8.592761"><ele>2.0</ele><time>2026-05-03T09:24:11.768Z</time></trkpt><trkpt lat="39.7870981" lon="8.5926461"><ele>2.333333333333333</ele><time>2026-05-03T09:24:12.768Z</time></trkpt><trkpt lat="39.7870964" lon="8.5925414"><ele>2.6666666666666665</ele><time>2026-05-03T09:24:13.767Z</time></trkpt><trkpt lat="39.7870989" lon="8.5924288"><ele>3.0</ele><time>2026-05-03T09:24:14.767Z</time></trkpt><trkpt lat="39.7870947" lon="8.5923112"><ele>3.333333333333333</ele><time>2026-05-03T09:24:15.768Z</time></trkpt><trkpt lat="39.7870934" lon="8.5921965"><ele>3.6666666666666665</ele><time>2026-05-03T09:24:16.767Z</time></trkpt><trkpt lat="39.7870966" lon="8.592083"><ele>4.0</ele><time>2026-05-03T09:24:17.768Z</time></trkpt><trkpt lat="39.7870938" lon="8.5919741"><ele>4.2</ele><time>2026-05-03T09:24:18.767Z</time></trkpt><trkpt lat="39.7870946" lon="8.5918612"><ele>4.4</ele><time>2026-05-03T09:24:19.768Z</time></trkpt><trkpt lat="39.7870958" lon="8.5917467"><ele>4.6</ele><time>2026-05-03T09:24:20.767Z</time></trkpt><trkpt lat="39.7870929" lon="8.5916243"><ele>4.8</ele><time>2026-05-03T09:24:21.767Z</time></trkpt><trkpt lat="39.7870943" lon="8.5914966"><ele>5.0</ele><time>2026-05-03T09:24:22.766Z</time></trkpt><trkpt lat="39.7870962" lon="8.5913593"><ele>5.0</ele><time>2026-05-03T09:24:23.766Z</time></trkpt><trkpt lat="39.7870989" lon="8.5912163"><ele>5.0</ele><time>2026-05-03T09:24:24.767Z</time></trkpt><trkpt lat="39.7871005" lon="8.5910654"><ele>5.0</ele><time>2026-05-03T09:24:25.767Z</time></trkpt><trkpt lat="39.787098" lon="8.5909079"><ele>5.0</ele><time>2026-05-03T09:24:26.768Z</time></trkpt><trkpt lat="39.787093" lon="8.5907321"><ele>5.25</ele><time>2026-05-03T09:24:27.768Z</time></trkpt><trkpt lat="39.7870858" lon="8.5905579"><ele>5.5</ele><time>2026-05-03T09:24:28.767Z</time></trkpt><trkpt lat="39.78709" lon="8.5903666"><ele>5.75</ele><time>2026-05-03T09:24:29.767Z</time></trkpt><trkpt lat="39.7870908" lon="8.590175"><ele>6.0</ele><time>2026-05-03T09:24:30.766Z</time></trkpt><trkpt lat="39.7870905" lon="8.5899809"><ele>6.0</ele><time>2026-05-03T09:24:31.767Z</time></trkpt><trkpt lat="39.7870888" lon="8.5897827"><ele>6.0</ele><time>2026-05-03T09:24:32.768Z</time></trkpt><trkpt lat="39.7870876" lon="8.589581"><ele>6.0</ele><time>2026-05-03T09:24:33.767Z</time></trkpt><trkpt lat="39.7870858" lon="8.5893827"><ele>6.0</ele><time>2026-05-03T09:24:34.767Z</time></trkpt><trkpt lat="39.7870825" lon="8.5891862"><ele>6.0</ele><time>2026-05-03T09:24:35.768Z</time></trkpt><trkpt lat="39.7870817" lon="8.5889913"><ele>6.0</ele><time>2026-05-03T09:24:36.768Z</time></trkpt><trkpt lat="39.787079" lon="8.5887931"><ele>6.0</ele><time>2026-05-03T09:24:37.768Z</time></trkpt><trkpt lat="39.7870797" lon="8.588597"><ele>6.0</ele><time>2026-05-03T09:24:38.768Z</time></trkpt><trkpt lat="39.7870858" lon="8.5884073"><ele>6.0</ele><time>2026-05-03T09:24:39.766Z</time></trkpt><trkpt lat="39.7870849" lon="8.5882192"><ele>6.0</ele><time>2026-05-03T09:24:40.768Z</time></trkpt><trkpt lat="39.7870899" lon="8.5880368"><ele>6.0</ele><time>2026-05-03T09:24:41.766Z</time></trkpt><trkpt lat="39.7870951" lon="8.5878485"><ele>6.0</ele><time>2026-05-03T09:24:42.767Z</time></trkpt><trkpt lat="39.787094" lon="8.5876687"><ele>6.0</ele><time>2026-05-03T09:24:43.768Z</time></trkpt><trkpt lat="39.7870904" lon="8.587494"><ele>6.0</ele><time>2026-05-03T09:24:44.767Z</time></trkpt><trkpt lat="39.7870879" lon="8.5873139"><ele>5.75</ele><time>2026-05-03T09:24:45.768Z</time></trkpt><trkpt lat="39.7870879" lon="8.587125"><ele>5.5</ele><time>2026-05-03T09:24:46.769Z</time></trkpt><trkpt lat="39.7870866" lon="8.5869318"><ele>5.25</ele><time>2026-05-03T09:24:47.767Z</time></trkpt><trkpt lat="39.7870855" lon="8.5867307"><ele>5.0</ele><time>2026-05-03T09:24:48.768Z</time></trkpt><trkpt lat="39.7870854" lon="8.5865288"><ele>5.0</ele><time>2026-05-03T09:24:49.768Z</time></trkpt><trkpt lat="39.7870867" lon="8.5863179"><ele>5.0</ele><time>2026-05-03T09:24:50.768Z</time></trkpt><trkpt lat="39.7870895" lon="8.5861097"><ele>5.0</ele><time>2026-05-03T09:24:51.767Z</time></trkpt><trkpt lat="39.7870881" lon="8.5859086"><ele>5.666666666666667</ele><time>2026-05-03T09:24:52.766Z</time></trkpt><trkpt lat="39.7870855" lon="8.5857016"><ele>6.333333333333334</ele><time>2026-05-03T09:24:53.768Z</time></trkpt><trkpt lat="39.7870871" lon="8.5854974"><ele>7.0</ele><time>2026-05-03T09:24:54.767Z</time></trkpt><trkpt lat="39.7870811" lon="8.5852893"><ele>7.333333333333334</ele><time>2026-05-03T09:24:55.766Z</time></trkpt><trkpt lat="39.787079" lon="8.5850869"><ele>7.666666666666666</ele><time>2026-05-03T09:24:56.767Z</time></trkpt><trkpt lat="39.7870763" lon="8.5848809"><ele>8.0</ele><time>2026-05-03T09:24:57.768Z</time></trkpt><trkpt lat="39.787076" lon="8.5846753"><ele>7.666666666666666</ele><time>2026-05-03T09:24:58.769Z</time></trkpt><trkpt lat="39.7870745" lon="8.5844743"><ele>7.333333333333334</ele><time>2026-05-03T09:24:59.768Z</time></trkpt><trkpt lat="39.787074" lon="8.584269"><ele>7.0</ele><time>2026-05-03T09:25:00.767Z</time></trkpt><trkpt lat="39.787074" lon="8.5840602"><ele>7.0</ele><time>2026-05-03T09:25:01.766Z</time></trkpt><trkpt lat="39.7870761" lon="8.5838576"><ele>7.0</ele><time>2026-05-03T09:25:02.769Z</time></trkpt><trkpt lat="39.7870749" lon="8.5836588"><ele>7.0</ele><time>2026-05-03T09:25:03.768Z</time></trkpt><trkpt lat="39.787078" lon="8.5834573"><ele>7.333333333333334</ele><time>2026-05-03T09:25:04.767Z</time></trkpt><trkpt lat="39.7870828" lon="8.5832592"><ele>7.666666666666666</ele><time>2026-05-03T09:25:05.767Z</time></trkpt><trkpt lat="39.7870827" lon="8.5830563"><ele>8.0</ele><time>2026-05-03T09:25:06.767Z</time></trkpt><trkpt lat="39.7870852" lon="8.5828651"><ele>8.4</ele><time>2026-05-03T09:25:07.768Z</time></trkpt><trkpt lat="39.7870833" lon="8.5826888"><ele>8.8</ele><time>2026-05-03T09:25:08.767Z</time></trkpt><trkpt lat="39.7870867" lon="8.5825455"><ele>9.2</ele><time>2026-05-03T09:25:09.768Z</time></trkpt><trkpt lat="39.7871014" lon="8.582456"><ele>9.6</ele><time>2026-05-03T09:25:10.768Z</time></trkpt><trkpt lat="39.7871816" lon="8.5823603"><ele>10.0</ele><time>2026-05-03T09:25:12.769Z</time></trkpt><trkpt lat="39.7872482" lon="8.5823368"><ele>10.0</ele><time>2026-05-03T09:25:13.767Z</time></trkpt><trkpt lat="39.7873355" lon="8.5823271"><ele>10.0</ele><time>2026-05-03T09:25:14.766Z</time></trkpt><trkpt lat="39.7874263" lon="8.5823172"><ele>10.0</ele><time>2026-05-03T09:25:15.767Z</time></trkpt><trkpt lat="39.7875284" lon="8.5823044"><ele>10.0</ele><time>2026-05-03T09:25:16.767Z</time></trkpt><trkpt lat="39.7876432" lon="8.5822955"><ele>10.0</ele><time>2026-05-03T09:25:17.767Z</time></trkpt><trkpt lat="39.7877758" lon="8.5822997"><ele>9.75</ele><time>2026-05-03T09:25:18.769Z</time></trkpt><trkpt lat="39.7879223" lon="8.5822982"><ele>9.5</ele><time>2026-05-03T09:25:19.767Z</time></trkpt><trkpt lat="39.7880591" lon="8.5822988"><ele>9.25</ele><time>2026-05-03T09:25:20.766Z</time></trkpt><trkpt lat="39.7881952" lon="8.5822994"><ele>9.0</ele><time>2026-05-03T09:25:21.768Z</time></trkpt><trkpt lat="39.7883432" lon="8.5822993"><ele>9.0</ele><time>2026-05-03T09:25:22.768Z</time></trkpt><trkpt lat="39.7884896" lon="8.5823022"><ele>9.0</ele><time>2026-05-03T09:25:23.767Z</time></trkpt><trkpt lat="39.7886414" lon="8.5822966"><ele>9.0</ele><time>2026-05-03T09:25:24.766Z</time></trkpt><trkpt lat="39.7887944" lon="8.582291"><ele>9.0</ele><time>2026-05-03T09:25:25.766Z</time></trkpt><trkpt lat="39.7889509" lon="8.5822907"><ele>9.0</ele><time>2026-05-03T09:25:26.767Z</time></trkpt><trkpt lat="39.7891104" lon="8.5822954"><ele>9.0</ele><time>2026-05-03T09:25:27.767Z</time></trkpt><trkpt lat="39.7892693" lon="8.5822889"><ele>8.666666666666666</ele><time>2026-05-03T09:25:28.768Z</time></trkpt><trkpt lat="39.7894346" lon="8.5822877"><ele>8.333333333333332</ele><time>2026-05-03T09:25:29.766Z</time></trkpt><trkpt lat="39.7896045" lon="8.5822775"><ele>8.0</ele><time>2026-05-03T09:25:30.767Z</time></trkpt><trkpt lat="39.7897805" lon="8.5822819"><ele>8.0</ele><time>2026-05-03T09:25:31.769Z</time></trkpt><trkpt lat="39.7899591" lon="8.5822814"><ele>8.0</ele><time>2026-05-03T09:25:32.768Z</time></trkpt><trkpt lat="39.7901275" lon="8.5822826"><ele>8.0</ele><time>2026-05-03T09:25:33.767Z</time></trkpt><trkpt lat="39.7903" lon="8.5822838"><ele>8.0</ele><time>2026-05-03T09:25:34.767Z</time></trkpt><trkpt lat="39.790478" lon="8.5822844"><ele>8.0</ele><time>2026-05-03T09:25:35.768Z</time></trkpt><trkpt lat="39.7906543" lon="8.5822836"><ele>8.0</ele><time>2026-05-03T09:25:36.767Z</time></trkpt><trkpt lat="39.7908339" lon="8.5822866"><ele>8.0</ele><time>2026-05-03T09:25:37.767Z</time></trkpt><trkpt lat="39.7910202" lon="8.5822882"><ele>8.0</ele><time>2026-05-03T09:25:38.768Z</time></trkpt><trkpt lat="39.7912067" lon="8.5822885"><ele>8.0</ele><time>2026-05-03T09:25:39.767Z</time></trkpt><trkpt lat="39.7914022" lon="8.5822862"><ele>8.0</ele><time>2026-05-03T09:25:40.768Z</time></trkpt><trkpt lat="39.7915944" lon="8.5822838"><ele>8.0</ele><time>2026-05-03T09:25:41.767Z</time></trkpt><trkpt lat="39.7917836" lon="8.5822781"><ele>8.0</ele><time>2026-05-03T09:25:42.768Z</time></trkpt><trkpt lat="39.7919748" lon="8.5822656"><ele>8.0</ele><time>2026-05-03T09:25:43.767Z</time></trkpt><trkpt lat="39.7921644" lon="8.5822615"><ele>8.0</ele><time>2026-05-03T09:25:44.767Z</time></trkpt><trkpt lat="39.7923503" lon="8.582255"><ele>8.0</ele><time>2026-05-03T09:25:45.767Z</time></trkpt><trkpt lat="39.7925331" lon="8.5822443"><ele>8.0</ele><time>2026-05-03T09:25:46.768Z</time></trkpt><trkpt lat="39.7927102" lon="8.5822439"><ele>8.0</ele><time>2026-05-03T09:25:47.767Z</time></trkpt><trkpt lat="39.7928797" lon="8.5822405"><ele>8.0</ele><time>2026-05-03T09:25:48.767Z</time></trkpt><trkpt lat="39.7930487" lon="8.5822426"><ele>8.0</ele><time>2026-05-03T09:25:49.768Z</time></trkpt><trkpt lat="39.7932167" lon="8.582241"><ele>8.0</ele><time>2026-05-03T09:25:50.767Z</time></trkpt><trkpt lat="39.793376" lon="8.5822408"><ele>8.0</ele><time>2026-05-03T09:25:51.767Z</time></trkpt><trkpt lat="39.7935256" lon="8.5822429"><ele>8.5</ele><time>2026-05-03T09:25:52.769Z</time></trkpt><trkpt lat="39.793682" lon="8.5822361"><ele>9.0</ele><time>2026-05-03T09:25:53.767Z</time></trkpt><trkpt lat="39.7938208" lon="8.5822398"><ele>9.5</ele><time>2026-05-03T09:25:54.767Z</time></trkpt><trkpt lat="39.7939544" lon="8.5822422"><ele>10.0</ele><time>2026-05-03T09:25:55.769Z</time></trkpt><trkpt lat="39.7940889" lon="8.5822407"><ele>10.0</ele><time>2026-05-03T09:25:56.767Z</time></trkpt><trkpt lat="39.7942155" lon="8.5822406"><ele>10.0</ele><time>2026-05-03T09:25:57.767Z</time></trkpt><trkpt lat="39.7943365" lon="8.5822453"><ele>10.0</ele><time>2026-05-03T09:25:58.767Z</time></trkpt><trkpt lat="39.7944513" lon="8.5822351"><ele>10.0</ele><time>2026-05-03T09:25:59.768Z</time></trkpt><trkpt lat="39.7945692" lon="8.5822288"><ele>11.0</ele><time>2026-05-03T09:26:00.768Z</time></trkpt><trkpt lat="39.7946983" lon="8.5822307"><ele>12.0</ele><time>2026-05-03T09:26:01.767Z</time></trkpt><trkpt lat="39.7948413" lon="8.5822372"><ele>13.0</ele><time>2026-05-03T09:26:02.767Z</time></trkpt><trkpt lat="39.7949934" lon="8.58224"><ele>14.0</ele><time>2026-05-03T09:26:03.767Z</time></trkpt><trkpt lat="39.7951573" lon="8.5822358"><ele>14.0</ele><time>2026-05-03T09:26:04.767Z</time></trkpt><trkpt lat="39.7953427" lon="8.5822376"><ele>14.0</ele><time>2026-05-03T09:26:05.768Z</time></trkpt><trkpt lat="39.7955252" lon="8.5822297"><ele>14.0</ele><time>2026-05-03T09:26:06.766Z</time></trkpt><trkpt lat="39.7957112" lon="8.5822249"><ele>14.0</ele><time>2026-05-03T09:26:07.767Z</time></trkpt><trkpt lat="39.7958982" lon="8.582223"><ele>14.0</ele><time>2026-05-03T09:26:08.769Z</time></trkpt><trkpt lat="39.796093" lon="8.5822303"><ele>14.0</ele><time>2026-05-03T09:26:09.767Z</time></trkpt><trkpt lat="39.796289" lon="8.582227"><ele>12.666666666666668</ele><time>2026-05-03T09:26:10.767Z</time></trkpt><trkpt lat="39.7964783" lon="8.5822284"><ele>11.333333333333334</ele><time>2026-05-03T09:26:11.767Z</time></trkpt><trkpt lat="39.7966514" lon="8.5822303"><ele>10.0</ele><time>2026-05-03T09:26:12.768Z</time></trkpt><trkpt lat="39.7968133" lon="8.582227"><ele>9.75</ele><time>2026-05-03T09:26:13.768Z</time></trkpt><trkpt lat="39.7969596" lon="8.5822123"><ele>9.5</ele><time>2026-05-03T09:26:14.767Z</time></trkpt><trkpt lat="39.7971039" lon="8.5822072"><ele>9.25</ele><time>2026-05-03T09:26:15.768Z</time></trkpt><trkpt lat="39.7972293" lon="8.5822014"><ele>9.0</ele><time>2026-05-03T09:26:16.768Z</time></trkpt><trkpt lat="39.7973508" lon="8.5821973"><ele>9.0</ele><time>2026-05-03T09:26:17.767Z</time></trkpt><trkpt lat="39.7974679" lon="8.5822031"><ele>9.0</ele><time>2026-05-03T09:26:18.768Z</time></trkpt><trkpt lat="39.7975693" lon="8.5822113"><ele>9.0</ele><time>2026-05-03T09:26:19.767Z</time></trkpt><trkpt lat="39.7976704" lon="8.5822172"><ele>9.0</ele><time>2026-05-03T09:26:20.766Z</time></trkpt><trkpt lat="39.7977565" lon="8.5822143"><ele>9.0</ele><time>2026-05-03T09:26:21.766Z</time></trkpt><trkpt lat="39.7978267" lon="8.5822152"><ele>8.5</ele><time>2026-05-03T09:26:22.767Z</time></trkpt><trkpt lat="39.7978996" lon="8.582212"><ele>8.0</ele><time>2026-05-03T09:26:23.769Z</time></trkpt><trkpt lat="39.7980067" lon="8.5822032"><ele>7.5</ele><time>2026-05-03T09:26:25.767Z</time></trkpt><trkpt lat="39.7980981" lon="8.5822114"><ele>7.0</ele><time>2026-05-03T09:26:27.768Z</time></trkpt><trkpt lat="39.7981643" lon="8.5822293"><ele>6.5</ele><time>2026-05-03T09:26:29.767Z</time></trkpt><trkpt lat="39.7980749" lon="8.5821694"><ele>6.0</ele><time>2026-05-03T09:26:41.767Z</time></trkpt><trkpt lat="39.7980011" lon="8.5821742"><ele>6.0</ele><time>2026-05-03T09:26:42.769Z</time></trkpt><trkpt lat="39.7979094" lon="8.5821816"><ele>6.0</ele><time>2026-05-03T09:26:43.768Z</time></trkpt><trkpt lat="39.7977957" lon="8.5821789"><ele>6.0</ele><time>2026-05-03T09:26:44.767Z</time></trkpt><trkpt lat="39.7976763" lon="8.5821766"><ele>6.0</ele><time>2026-05-03T09:26:45.767Z</time></trkpt><trkpt lat="39.7975502" lon="8.5821733"><ele>6.75</ele><time>2026-05-03T09:26:46.767Z</time></trkpt><trkpt lat="39.797431" lon="8.5821773"><ele>7.5</ele><time>2026-05-03T09:26:47.767Z</time></trkpt><trkpt lat="39.7972991" lon="8.5821756"><ele>8.25</ele><time>2026-05-03T09:26:48.767Z</time></trkpt><trkpt lat="39.7971523" lon="8.5821706"><ele>9.0</ele><time>2026-05-03T09:26:49.767Z</time></trkpt><trkpt lat="39.7970224" lon="8.5821744"><ele>9.0</ele><time>2026-05-03T09:26:50.767Z</time></trkpt><trkpt lat="39.7969017" lon="8.5821768"><ele>9.0</ele><time>2026-05-03T09:26:51.768Z</time></trkpt><trkpt lat="39.796801" lon="8.5821738"><ele>9.0</ele><time>2026-05-03T09:26:52.768Z</time></trkpt><trkpt lat="39.7967287" lon="8.5821514"><ele>9.0</ele><time>2026-05-03T09:26:53.768Z</time></trkpt><trkpt lat="39.796625" lon="8.5820511"><ele>9.0</ele><time>2026-05-03T09:26:55.768Z</time></trkpt><trkpt lat="39.7965782" lon="8.5819784"><ele>9.2</ele><time>2026-05-03T09:26:56.767Z</time></trkpt><trkpt lat="39.7965596" lon="8.5818729"><ele>9.4</ele><time>2026-05-03T09:26:57.768Z</time></trkpt><trkpt lat="39.7965491" lon="8.5817627"><ele>9.6</ele><time>2026-05-03T09:26:58.767Z</time></trkpt><trkpt lat="39.7965729" lon="8.5816336"><ele>9.8</ele><time>2026-05-03T09:26:59.766Z</time></trkpt><trkpt lat="39.7965773" lon="8.5815032"><ele>10.0</ele><time>2026-05-03T09:27:00.768Z</time></trkpt><trkpt lat="39.7965758" lon="8.5813853"><ele>10.0</ele><time>2026-05-03T09:27:01.767Z</time></trkpt><trkpt lat="39.7965741" lon="8.5812839"><ele>10.0</ele><time>2026-05-03T09:27:02.767Z</time></trkpt><trkpt lat="39.7965746" lon="8.5811995"><ele>10.0</ele><time>2026-05-03T09:27:03.767Z</time></trkpt><trkpt lat="39.7965751" lon="8.5810942"><ele>10.0</ele><time>2026-05-03T09:27:05.767Z</time></trkpt><trkpt lat="39.7965518" lon="8.5811984"><ele>10.0</ele><time>2026-05-03T09:28:42.766Z</time></trkpt><trkpt lat="39.7965501" lon="8.5812837"><ele>10.0</ele><time>2026-05-03T09:28:43.766Z</time></trkpt><trkpt lat="39.796548" lon="8.5813842"><ele>10.0</ele><time>2026-05-03T09:28:44.767Z</time></trkpt><trkpt lat="39.7965543" lon="8.581497"><ele>10.0</ele><time>2026-05-03T09:28:45.766Z</time></trkpt><trkpt lat="39.7965564" lon="8.5816204"><ele>10.0</ele><time>2026-05-03T09:28:46.766Z</time></trkpt><trkpt lat="39.7965572" lon="8.5817498"><ele>10.0</ele><time>2026-05-03T09:28:47.766Z</time></trkpt><trkpt lat="39.7965573" lon="8.581868"><ele>10.0</ele><time>2026-05-03T09:28:48.767Z</time></trkpt><trkpt lat="39.7965464" lon="8.5819619"><ele>10.0</ele><time>2026-05-03T09:28:49.766Z</time></trkpt><trkpt lat="39.7965178" lon="8.5820622"><ele>10.0</ele><time>2026-05-03T09:28:51.767Z</time></trkpt><trkpt lat="39.7964334" lon="8.5821424"><ele>10.0</ele><time>2026-05-03T09:28:54.767Z</time></trkpt><trkpt lat="39.7963705" lon="8.5821728"><ele>10.0</ele><time>2026-05-03T09:28:55.768Z</time></trkpt><trkpt lat="39.7962827" lon="8.5821874"><ele>10.0</ele><time>2026-05-03T09:28:56.767Z</time></trkpt><trkpt lat="39.7961746" lon="8.5821912"><ele>10.0</ele><time>2026-05-03T09:28:57.767Z</time></trkpt><trkpt lat="39.796045" lon="8.582189"><ele>11.0</ele><time>2026-05-03T09:28:58.768Z</time></trkpt><trkpt lat="39.7959113" lon="8.5821953"><ele>12.0</ele><time>2026-05-03T09:28:59.766Z</time></trkpt><trkpt lat="39.7957687" lon="8.5821949"><ele>13.0</ele><time>2026-05-03T09:29:00.767Z</time></trkpt><trkpt lat="39.7956102" lon="8.5821984"><ele>14.0</ele><time>2026-05-03T09:29:01.766Z</time></trkpt><trkpt lat="39.7954539" lon="8.5821995"><ele>14.0</ele><time>2026-05-03T09:29:02.767Z</time></trkpt><trkpt lat="39.7952848" lon="8.5821949"><ele>14.0</ele><time>2026-05-03T09:29:03.767Z</time></trkpt><trkpt lat="39.7951318" lon="8.5821925"><ele>14.0</ele><time>2026-05-03T09:29:04.767Z</time></trkpt><trkpt lat="39.7949909" lon="8.5821916"><ele>14.0</ele><time>2026-05-03T09:29:05.767Z</time></trkpt><trkpt lat="39.7948596" lon="8.5821872"><ele>13.999999999999998</ele><time>2026-05-03T09:29:06.767Z</time></trkpt><trkpt lat="39.7947401" lon="8.5821846"><ele>13.999999999999998</ele><time>2026-05-03T09:29:07.768Z</time></trkpt><trkpt lat="39.7946568" lon="8.5821519"><ele>14.0</ele><time>2026-05-03T09:29:08.766Z</time></trkpt><trkpt lat="39.7945901" lon="8.582102"><ele>14.0</ele><time>2026-05-03T09:29:09.767Z</time></trkpt><trkpt lat="39.794535" lon="8.5820538"><ele>13.0</ele><time>2026-05-03T09:29:10.765Z</time></trkpt><trkpt lat="39.794509" lon="8.5819714"><ele>11.999999999999998</ele><time>2026-05-03T09:29:11.768Z</time></trkpt><trkpt lat="39.7944755" lon="8.5818744"><ele>11.0</ele><time>2026-05-03T09:29:12.768Z</time></trkpt><trkpt lat="39.7944771" lon="8.5817473"><ele>10.0</ele><time>2026-05-03T09:29:13.767Z</time></trkpt><trkpt lat="39.7944749" lon="8.581589"><ele>9.0</ele><time>2026-05-03T09:29:14.767Z</time></trkpt><trkpt lat="39.7944767" lon="8.5814124"><ele>9.0</ele><time>2026-05-03T09:29:15.768Z</time></trkpt><trkpt lat="39.7944787" lon="8.5812058"><ele>9.0</ele><time>2026-05-03T09:29:16.766Z</time></trkpt><trkpt lat="39.794488" lon="8.58098"><ele>9.0</ele><time>2026-05-03T09:29:17.766Z</time></trkpt><trkpt lat="39.7944798" lon="8.5807341"><ele>8.333333333333334</ele><time>2026-05-03T09:29:18.767Z</time></trkpt><trkpt lat="39.7944824" lon="8.5804684"><ele>7.666666666666667</ele><time>2026-05-03T09:29:19.767Z</time></trkpt><trkpt lat="39.7944914" lon="8.5801907"><ele>7.0</ele><time>2026-05-03T09:29:20.767Z</time></trkpt><trkpt lat="39.7944919" lon="8.5799112"><ele>7.0</ele><time>2026-05-03T09:29:21.766Z</time></trkpt><trkpt lat="39.79449" lon="8.5796208"><ele>7.0</ele><time>2026-05-03T09:29:22.767Z</time></trkpt><trkpt lat="39.7944819" lon="8.5793241"><ele>7.5</ele><time>2026-05-03T09:29:23.767Z</time></trkpt><trkpt lat="39.7944747" lon="8.5790318"><ele>8.0</ele><time>2026-05-03T09:29:24.766Z</time></trkpt><trkpt lat="39.7944716" lon="8.5787321"><ele>7.5</ele><time>2026-05-03T09:29:25.767Z</time></trkpt><trkpt lat="39.7944695" lon="8.5784344"><ele>7.0</ele><time>2026-05-03T09:29:26.768Z</time></trkpt><trkpt lat="39.7944689" lon="8.578135"><ele>6.0</ele><time>2026-05-03T09:29:27.765Z</time></trkpt><trkpt lat="39.7944674" lon="8.5778293"><ele>5.0</ele><time>2026-05-03T09:29:28.766Z</time></trkpt><trkpt lat="39.7944742" lon="8.5775223"><ele>5.0</ele><time>2026-05-03T09:29:29.767Z</time></trkpt><trkpt lat="39.7944745" lon="8.5772296"><ele>5.0</ele><time>2026-05-03T09:29:30.768Z</time></trkpt><trkpt lat="39.7944731" lon="8.5769567"><ele>5.0</ele><time>2026-05-03T09:29:31.767Z</time></trkpt><trkpt lat="39.7944737" lon="8.5766984"><ele>5.0</ele><time>2026-05-03T09:29:32.766Z</time></trkpt><trkpt lat="39.7944746" lon="8.5764398"><ele>5.0</ele><time>2026-05-03T09:29:33.767Z</time></trkpt><trkpt lat="39.7944698" lon="8.5761901"><ele>5.0</ele><time>2026-05-03T09:29:34.768Z</time></trkpt><trkpt lat="39.7944726" lon="8.5759373"><ele>5.0</ele><time>2026-05-03T09:29:35.766Z</time></trkpt><trkpt lat="39.7944755" lon="8.5756781"><ele>5.0</ele><time>2026-05-03T09:29:36.767Z</time></trkpt><trkpt lat="39.7944742" lon="8.575418"><ele>5.0</ele><time>2026-05-03T09:29:37.768Z</time></trkpt><trkpt lat="39.7944732" lon="8.5751575"><ele>5.333333333333334</ele><time>2026-05-03T09:29:38.767Z</time></trkpt><trkpt lat="39.7944671" lon="8.5749018"><ele>5.666666666666667</ele><time>2026-05-03T09:29:39.766Z</time></trkpt><trkpt lat="39.7944698" lon="8.5746536"><ele>6.0</ele><time>2026-05-03T09:29:40.768Z</time></trkpt><trkpt lat="39.7944724" lon="8.574415"><ele>6.0</ele><time>2026-05-03T09:29:41.765Z</time></trkpt><trkpt lat="39.7944734" lon="8.5741803"><ele>6.0</ele><time>2026-05-03T09:29:42.768Z</time></trkpt><trkpt lat="39.7944713" lon="8.5739456"><ele>6.0</ele><time>2026-05-03T09:29:43.767Z</time></trkpt><trkpt lat="39.7944648" lon="8.5737227"><ele>6.5</ele><time>2026-05-03T09:29:44.768Z</time></trkpt><trkpt lat="39.7944693" lon="8.5735098"><ele>7.0</ele><time>2026-05-03T09:29:45.765Z</time></trkpt><trkpt lat="39.7944672" lon="8.5733151"><ele>7.5</ele><time>2026-05-03T09:29:46.768Z</time></trkpt><trkpt lat="39.7944666" lon="8.5731437"><ele>8.0</ele><time>2026-05-03T09:29:47.766Z</time></trkpt><trkpt lat="39.7944637" lon="8.5729761"><ele>8.200000000000001</ele><time>2026-05-03T09:29:48.767Z</time></trkpt><trkpt lat="39.7944687" lon="8.5728106"><ele>8.4</ele><time>2026-05-03T09:29:49.766Z</time></trkpt><trkpt lat="39.7944651" lon="8.5726458"><ele>8.600000000000001</ele><time>2026-05-03T09:29:50.767Z</time></trkpt><trkpt lat="39.7944622" lon="8.5725357"><ele>8.8</ele><time>2026-05-03T09:29:51.768Z</time></trkpt><trkpt lat="39.7944571" lon="8.5724306"><ele>9.0</ele><time>2026-05-03T09:29:52.767Z</time></trkpt><trkpt lat="39.7944557" lon="8.5723312"><ele>9.0</ele><time>2026-05-03T09:29:53.767Z</time></trkpt><trkpt lat="39.7944536" lon="8.572226"><ele>9.0</ele><time>2026-05-03T09:29:54.766Z</time></trkpt><trkpt lat="39.7944547" lon="8.5721195"><ele>9.0</ele><time>2026-05-03T09:29:55.768Z</time></trkpt><trkpt lat="39.7944621" lon="8.572018"><ele>9.0</ele><time>2026-05-03T09:29:56.768Z</time></trkpt><trkpt lat="39.7944535" lon="8.5719123"><ele>9.0</ele><time>2026-05-03T09:29:57.766Z</time></trkpt><trkpt lat="39.7944528" lon="8.5718026"><ele>9.0</ele><time>2026-05-03T09:29:58.767Z</time></trkpt><trkpt lat="39.7944529" lon="8.5716973"><ele>8.75</ele><time>2026-05-03T09:29:59.767Z</time></trkpt><trkpt lat="39.794452" lon="8.5715826"><ele>8.5</ele><time>2026-05-03T09:30:00.766Z</time></trkpt><trkpt lat="39.794453" lon="8.571429"><ele>8.25</ele><time>2026-05-03T09:30:01.768Z</time></trkpt><trkpt lat="39.7944576" lon="8.5712561"><ele>8.0</ele><time>2026-05-03T09:30:02.767Z</time></trkpt><trkpt lat="39.7944623" lon="8.5710558"><ele>7.333333333333333</ele><time>2026-05-03T09:30:03.766Z</time></trkpt><trkpt lat="39.7944659" lon="8.5708346"><ele>6.666666666666666</ele><time>2026-05-03T09:30:04.765Z</time></trkpt><trkpt lat="39.7944755" lon="8.5705895"><ele>6.0</ele><time>2026-05-03T09:30:05.766Z</time></trkpt><trkpt lat="39.7944789" lon="8.5703531"><ele>5.666666666666667</ele><time>2026-05-03T09:30:06.768Z</time></trkpt><trkpt lat="39.7944702" lon="8.5701125"><ele>5.333333333333334</ele><time>2026-05-03T09:30:07.768Z</time></trkpt><trkpt lat="39.7944648" lon="8.5698749"><ele>5.0</ele><time>2026-05-03T09:30:08.766Z</time></trkpt><trkpt lat="39.7944592" lon="8.5696255"><ele>4.666666666666667</ele><time>2026-05-03T09:30:09.767Z</time></trkpt><trkpt lat="39.7944587" lon="8.5693669"><ele>4.333333333333333</ele><time>2026-05-03T09:30:10.766Z</time></trkpt><trkpt lat="39.7944587" lon="8.5691148"><ele>4.0</ele><time>2026-05-03T09:30:11.768Z</time></trkpt><trkpt lat="39.7944577" lon="8.5688903"><ele>4.0</ele><time>2026-05-03T09:30:12.766Z</time></trkpt><trkpt lat="39.794458" lon="8.568679"><ele>4.0</ele><time>2026-05-03T09:30:13.767Z</time></trkpt><trkpt lat="39.7944594" lon="8.5684985"><ele>4.0</ele><time>2026-05-03T09:30:14.767Z</time></trkpt><trkpt lat="39.7944613" lon="8.5683228"><ele>4.0</ele><time>2026-05-03T09:30:15.766Z</time></trkpt><trkpt lat="39.794465" lon="8.5681584"><ele>4.0</ele><time>2026-05-03T09:30:16.767Z</time></trkpt><trkpt lat="39.7944652" lon="8.5680051"><ele>4.0</ele><time>2026-05-03T09:30:17.768Z</time></trkpt><trkpt lat="39.7944579" lon="8.5678444"><ele>4.0</ele><time>2026-05-03T09:30:18.767Z</time></trkpt><trkpt lat="39.7944609" lon="8.567698"><ele>4.0</ele><time>2026-05-03T09:30:19.766Z</time></trkpt><trkpt lat="39.7944532" lon="8.567554"><ele>4.25</ele><time>2026-05-03T09:30:20.766Z</time></trkpt><trkpt lat="39.7944521" lon="8.5673962"><ele>4.5</ele><time>2026-05-03T09:30:21.767Z</time></trkpt><trkpt lat="39.7944425" lon="8.5672315"><ele>4.75</ele><time>2026-05-03T09:30:22.766Z</time></trkpt><trkpt lat="39.7944387" lon="8.5670562"><ele>5.0</ele><time>2026-05-03T09:30:23.765Z</time></trkpt><trkpt lat="39.79443" lon="8.566867"><ele>5.0</ele><time>2026-05-03T09:30:24.768Z</time></trkpt><trkpt lat="39.7944282" lon="8.5666782"><ele>5.0</ele><time>2026-05-03T09:30:25.767Z</time></trkpt><trkpt lat="39.7944229" lon="8.5664753"><ele>5.0</ele><time>2026-05-03T09:30:26.767Z</time></trkpt><trkpt lat="39.7944251" lon="8.5662626"><ele>5.0</ele><time>2026-05-03T09:30:27.766Z</time></trkpt><trkpt lat="39.7944306" lon="8.5660595"><ele>5.0</ele><time>2026-05-03T09:30:28.767Z</time></trkpt><trkpt lat="39.7944321" lon="8.5658394"><ele>5.0</ele><time>2026-05-03T09:30:29.767Z</time></trkpt><trkpt lat="39.7944372" lon="8.5656093"><ele>5.0</ele><time>2026-05-03T09:30:30.767Z</time></trkpt><trkpt lat="39.7944427" lon="8.5653752"><ele>5.0</ele><time>2026-05-03T09:30:31.768Z</time></trkpt><trkpt lat="39.7944414" lon="8.5651252"><ele>5.0</ele><time>2026-05-03T09:30:32.767Z</time></trkpt><trkpt lat="39.7944387" lon="8.5648789"><ele>4.666666666666667</ele><time>2026-05-03T09:30:33.767Z</time></trkpt><trkpt lat="39.7944423" lon="8.5646254"><ele>4.333333333333333</ele><time>2026-05-03T09:30:34.771Z</time></trkpt><trkpt lat="39.7944435" lon="8.5643685"><ele>4.0</ele><time>2026-05-03T09:30:35.766Z</time></trkpt><trkpt lat="39.7944496" lon="8.564109"><ele>4.0</ele><time>2026-05-03T09:30:36.767Z</time></trkpt><trkpt lat="39.7944457" lon="8.563848"><ele>4.0</ele><time>2026-05-03T09:30:37.767Z</time></trkpt><trkpt lat="39.7944442" lon="8.5635828"><ele>4.0</ele><time>2026-05-03T09:30:38.764Z</time></trkpt><trkpt lat="39.7944509" lon="8.5633142"><ele>4.0</ele><time>2026-05-03T09:30:39.768Z</time></trkpt><trkpt lat="39.7944513" lon="8.5630495"><ele>4.0</ele><time>2026-05-03T09:30:40.768Z</time></trkpt><trkpt lat="39.7944491" lon="8.5627871"><ele>4.0</ele><time>2026-05-03T09:30:41.767Z</time></trkpt><trkpt lat="39.7944525" lon="8.5625204"><ele>4.0</ele><time>2026-05-03T09:30:42.767Z</time></trkpt><trkpt lat="39.794452" lon="8.562258"><ele>4.0</ele><time>2026-05-03T09:30:43.766Z</time></trkpt><trkpt lat="39.7944474" lon="8.5619983"><ele>4.0</ele><time>2026-05-03T09:30:44.768Z</time></trkpt><trkpt lat="39.7944449" lon="8.5617393"><ele>3.6666666666666665</ele><time>2026-05-03T09:30:45.766Z</time></trkpt><trkpt lat="39.7944467" lon="8.5614826"><ele>3.333333333333333</ele><time>2026-05-03T09:30:46.767Z</time></trkpt><trkpt lat="39.7944452" lon="8.5612249"><ele>3.0</ele><time>2026-05-03T09:30:47.767Z</time></trkpt><trkpt lat="39.7944433" lon="8.5609721"><ele>3.0</ele><time>2026-05-03T09:30:48.767Z</time></trkpt><trkpt lat="39.7944465" lon="8.5607267"><ele>3.0</ele><time>2026-05-03T09:30:49.768Z</time></trkpt><trkpt lat="39.7944487" lon="8.5604789"><ele>3.0</ele><time>2026-05-03T09:30:50.766Z</time></trkpt><trkpt lat="39.7944479" lon="8.5602363"><ele>3.333333333333333</ele><time>2026-05-03T09:30:51.766Z</time></trkpt><trkpt lat="39.7944471" lon="8.5599907"><ele>3.6666666666666665</ele><time>2026-05-03T09:30:52.768Z</time></trkpt><trkpt lat="39.7944434" lon="8.5597409"><ele>4.0</ele><time>2026-05-03T09:30:53.766Z</time></trkpt><trkpt lat="39.7944424" lon="8.5594941"><ele>4.333333333333333</ele><time>2026-05-03T09:30:54.767Z</time></trkpt><trkpt lat="39.7944409" lon="8.559255"><ele>4.666666666666667</ele><time>2026-05-03T09:30:55.767Z</time></trkpt><trkpt lat="39.7944398" lon="8.5590187"><ele>5.0</ele><time>2026-05-03T09:30:56.765Z</time></trkpt><trkpt lat="39.7944444" lon="8.5587947"><ele>5.333333333333334</ele><time>2026-05-03T09:30:57.767Z</time></trkpt><trkpt lat="39.7944439" lon="8.5585807"><ele>5.666666666666667</ele><time>2026-05-03T09:30:58.766Z</time></trkpt><trkpt lat="39.7944416" lon="8.5583669"><ele>6.0</ele><time>2026-05-03T09:30:59.767Z</time></trkpt><trkpt lat="39.7944376" lon="8.558154"><ele>6.0</ele><time>2026-05-03T09:31:00.768Z</time></trkpt><trkpt lat="39.7944432" lon="8.5579324"><ele>6.0</ele><time>2026-05-03T09:31:01.768Z</time></trkpt><trkpt lat="39.7944478" lon="8.5577169"><ele>6.0</ele><time>2026-05-03T09:31:02.765Z</time></trkpt><trkpt lat="39.7944454" lon="8.5574961"><ele>6.0</ele><time>2026-05-03T09:31:03.767Z</time></trkpt><trkpt lat="39.7944476" lon="8.5572654"><ele>6.0</ele><time>2026-05-03T09:31:04.766Z</time></trkpt><trkpt lat="39.7944539" lon="8.5570214"><ele>6.0</ele><time>2026-05-03T09:31:05.765Z</time></trkpt><trkpt lat="39.7944532" lon="8.556766"><ele>5.666666666666667</ele><time>2026-05-03T09:31:06.767Z</time></trkpt><trkpt lat="39.7944526" lon="8.5565154"><ele>5.333333333333334</ele><time>2026-05-03T09:31:07.765Z</time></trkpt><trkpt lat="39.7944505" lon="8.5562648"><ele>5.0</ele><time>2026-05-03T09:31:08.768Z</time></trkpt><trkpt lat="39.7944497" lon="8.5560179"><ele>5.0</ele><time>2026-05-03T09:31:09.766Z</time></trkpt><trkpt lat="39.7944479" lon="8.5557784"><ele>5.0</ele><time>2026-05-03T09:31:10.766Z</time></trkpt><trkpt lat="39.7944478" lon="8.555536"><ele>5.0</ele><time>2026-05-03T09:31:11.766Z</time></trkpt><trkpt lat="39.7944448" lon="8.5552994"><ele>4.666666666666667</ele><time>2026-05-03T09:31:12.765Z</time></trkpt><trkpt lat="39.7944406" lon="8.5550689"><ele>4.333333333333333</ele><time>2026-05-03T09:31:13.768Z</time></trkpt><trkpt lat="39.7944439" lon="8.5548582"><ele>4.0</ele><time>2026-05-03T09:31:14.767Z</time></trkpt><trkpt lat="39.7944491" lon="8.5546629"><ele>3.75</ele><time>2026-05-03T09:31:15.765Z</time></trkpt><trkpt lat="39.7944486" lon="8.5544762"><ele>3.5</ele><time>2026-05-03T09:31:16.766Z</time></trkpt><trkpt lat="39.7944555" lon="8.5542951"><ele>3.25</ele><time>2026-05-03T09:31:17.768Z</time></trkpt><trkpt lat="39.7944476" lon="8.5541256"><ele>3.0</ele><time>2026-05-03T09:31:18.768Z</time></trkpt><trkpt lat="39.7944483" lon="8.5539684"><ele>3.0</ele><time>2026-05-03T09:31:19.767Z</time></trkpt><trkpt lat="39.7944483" lon="8.5538176"><ele>3.0</ele><time>2026-05-03T09:31:20.766Z</time></trkpt><trkpt lat="39.7944413" lon="8.5536707"><ele>3.0</ele><time>2026-05-03T09:31:21.766Z</time></trkpt><trkpt lat="39.7944332" lon="8.5535203"><ele>3.0</ele><time>2026-05-03T09:31:22.767Z</time></trkpt><trkpt lat="39.7944314" lon="8.5533718"><ele>3.0</ele><time>2026-05-03T09:31:23.767Z</time></trkpt><trkpt lat="39.7944293" lon="8.5532189"><ele>3.0</ele><time>2026-05-03T09:31:24.767Z</time></trkpt><trkpt lat="39.7944299" lon="8.5530637"><ele>3.0</ele><time>2026-05-03T09:31:25.767Z</time></trkpt><trkpt lat="39.7944284" lon="8.5529097"><ele>3.0</ele><time>2026-05-03T09:31:26.767Z</time></trkpt><trkpt lat="39.7944263" lon="8.5527617"><ele>3.8</ele><time>2026-05-03T09:31:27.767Z</time></trkpt><trkpt lat="39.7944265" lon="8.552615"><ele>4.6</ele><time>2026-05-03T09:31:28.767Z</time></trkpt><trkpt lat="39.7944244" lon="8.5524726"><ele>5.3999999999999995</ele><time>2026-05-03T09:31:29.766Z</time></trkpt><trkpt lat="39.7944205" lon="8.5523246"><ele>6.199999999999999</ele><time>2026-05-03T09:31:30.767Z</time></trkpt><trkpt lat="39.7944214" lon="8.5521797"><ele>7.0</ele><time>2026-05-03T09:31:31.767Z</time></trkpt><trkpt lat="39.7944228" lon="8.5520507"><ele>7.0</ele><time>2026-05-03T09:31:32.768Z</time></trkpt><trkpt lat="39.7944105" lon="8.5519193"><ele>6.999999999999999</ele><time>2026-05-03T09:31:33.767Z</time></trkpt><trkpt lat="39.7944139" lon="8.5517915"><ele>6.999999999999999</ele><time>2026-05-03T09:31:34.766Z</time></trkpt><trkpt lat="39.7944201" lon="8.5516595"><ele>7.0</ele><time>2026-05-03T09:31:35.768Z</time></trkpt><trkpt lat="39.794421" lon="8.5515223"><ele>7.0</ele><time>2026-05-03T09:31:36.767Z</time></trkpt><trkpt lat="39.794415" lon="8.5513729"><ele>7.0</ele><time>2026-05-03T09:31:37.765Z</time></trkpt><trkpt lat="39.7944174" lon="8.5512418"><ele>6.999999999999999</ele><time>2026-05-03T09:31:38.766Z</time></trkpt><trkpt lat="39.7944253" lon="8.5511308"><ele>6.999999999999999</ele><time>2026-05-03T09:31:39.766Z</time></trkpt><trkpt lat="39.7944232" lon="8.5510396"><ele>7.0</ele><time>2026-05-03T09:31:40.767Z</time></trkpt><trkpt lat="39.7944105" lon="8.5508911"><ele>7.0</ele><time>2026-05-03T09:31:42.766Z</time></trkpt><trkpt lat="39.7944003" lon="8.5507586"><ele>7.000000000000001</ele><time>2026-05-03T09:31:44.767Z</time></trkpt><trkpt lat="39.7943876" lon="8.5506666"><ele>7.0</ele><time>2026-05-03T09:31:45.765Z</time></trkpt><trkpt lat="39.7943875" lon="8.5504973"><ele>7.0</ele><time>2026-05-03T09:31:47.767Z</time></trkpt><trkpt lat="39.7943818" lon="8.5504068"><ele>7.0</ele><time>2026-05-03T09:31:48.765Z</time></trkpt><trkpt lat="39.7943848" lon="8.5503105"><ele>7.000000000000001</ele><time>2026-05-03T09:31:49.767Z</time></trkpt><trkpt lat="39.7943915" lon="8.5502086"><ele>7.0</ele><time>2026-05-03T09:31:50.766Z</time></trkpt><trkpt lat="39.7943916" lon="8.5501133"><ele>7.500000000000001</ele><time>2026-05-03T09:31:51.767Z</time></trkpt><trkpt lat="39.7943858" lon="8.5500193"><ele>8.0</ele><time>2026-05-03T09:31:52.765Z</time></trkpt><trkpt lat="39.7943862" lon="8.5499268"><ele>8.5</ele><time>2026-05-03T09:31:53.767Z</time></trkpt><trkpt lat="39.7943891" lon="8.5498308"><ele>9.0</ele><time>2026-05-03T09:31:54.765Z</time></trkpt><trkpt lat="39.7943887" lon="8.5497301"><ele>9.5</ele><time>2026-05-03T09:31:55.765Z</time></trkpt><trkpt lat="39.7943864" lon="8.5496304"><ele>10.0</ele><time>2026-05-03T09:31:56.765Z</time></trkpt><trkpt lat="39.7943852" lon="8.5495285"><ele>10.0</ele><time>2026-05-03T09:31:57.766Z</time></trkpt><trkpt lat="39.7943839" lon="8.5494254"><ele>10.0</ele><time>2026-05-03T09:31:58.766Z</time></trkpt><trkpt lat="39.7943863" lon="8.5493258"><ele>10.0</ele><time>2026-05-03T09:31:59.765Z</time></trkpt><trkpt lat="39.7943902" lon="8.5492162"><ele>10.0</ele><time>2026-05-03T09:32:00.766Z</time></trkpt><trkpt lat="39.7943959" lon="8.5491186"><ele>10.0</ele><time>2026-05-03T09:32:01.767Z</time></trkpt><trkpt lat="39.7943954" lon="8.5490305"><ele>10.0</ele><time>2026-05-03T09:32:02.766Z</time></trkpt><trkpt lat="39.7944028" lon="8.5489454"><ele>10.0</ele><time>2026-05-03T09:32:03.766Z</time></trkpt><trkpt lat="39.7943871" lon="8.5488441"><ele>10.0</ele><time>2026-05-03T09:32:05.767Z</time></trkpt><trkpt lat="39.7944125" lon="8.548764"><ele>10.0</ele><time>2026-05-03T09:38:25.765Z</time></trkpt><trkpt lat="39.7944229" lon="8.5486545"><ele>10.0</ele><time>2026-05-03T09:38:34.766Z</time></trkpt><trkpt lat="39.7944266" lon="8.548559"><ele>10.0</ele><time>2026-05-03T09:38:36.765Z</time></trkpt><trkpt lat="39.7944225" lon="8.5484436"><ele>10.0</ele><time>2026-05-03T09:38:39.764Z</time></trkpt><trkpt lat="39.794415" lon="8.5483219"><ele>10.0</ele><time>2026-05-03T09:38:42.764Z</time></trkpt><trkpt lat="39.7944172" lon="8.548227"><ele>10.0</ele><time>2026-05-03T09:38:44.766Z</time></trkpt><trkpt lat="39.7944221" lon="8.5481173"><ele>10.0</ele><time>2026-05-03T09:38:46.766Z</time></trkpt><trkpt lat="39.7944197" lon="8.5480024"><ele>10.0</ele><time>2026-05-03T09:38:48.766Z</time></trkpt><trkpt lat="39.7944218" lon="8.5478874"><ele>10.0</ele><time>2026-05-03T09:38:50.765Z</time></trkpt><trkpt lat="39.7944134" lon="8.5477791"><ele>10.0</ele><time>2026-05-03T09:38:52.765Z</time></trkpt><trkpt lat="39.7943909" lon="8.5476795"><ele>10.0</ele><time>2026-05-03T09:38:54.767Z</time></trkpt><trkpt lat="39.7943806" lon="8.5475873"><ele>10.0</ele><time>2026-05-03T09:38:56.765Z</time></trkpt><trkpt lat="39.7944154" lon="8.5474997"><ele>10.0</ele><time>2026-05-03T09:38:58.764Z</time></trkpt><trkpt lat="39.794434" lon="8.5474106"><ele>10.0</ele><time>2026-05-03T09:39:00.766Z</time></trkpt></trkseg></trk></gpx>